<?xml version="1.0" encoding="UTF-8" standalone="no" ?>
<gpx xmlns="http://www.topografix.com/GPX/1/1" xmlns:xsi="http://www.w3.org/2001/XMLSchema-instance" xsi:schemaLocation="http://www.topografix.com/GPX/1/1 http://www.topografix.com/GPX/1/1/gpx.xsd" version="1.1" creator="VisuGPX - https://www.visugpx.com">
  <metadata>
    <name>L?Homme Cairn</name>
  </metadata>
  <trk>
    <name><![CDATA[L’Homme Cairn]]></name>
    <trkseg>
      <trkpt lat="45.63681" lon="6.79836">
        <ele>1503.8</ele>
        <time>2021-03-27T10:49:07Z</time>
      </trkpt>
      <trkpt lat="45.63681" lon="6.79836">
        <ele>1503.8</ele>
        <time>2021-03-27T10:49:08Z</time>
      </trkpt>
      <trkpt lat="45.63681" lon="6.79836">
        <ele>1503.8</ele>
        <time>2021-03-27T10:49:09Z</time>
      </trkpt>
      <trkpt lat="45.63681" lon="6.79836">
        <ele>1503.8</ele>
        <time>2021-03-27T10:49:10Z</time>
      </trkpt>
      <trkpt lat="45.63679" lon="6.79839">
        <ele>1504.2</ele>
        <time>2021-03-27T10:49:11Z</time>
      </trkpt>
      <trkpt lat="45.63679" lon="6.7984">
        <ele>1504.3</ele>
        <time>2021-03-27T10:49:12Z</time>
      </trkpt>
      <trkpt lat="45.63679" lon="6.7984">
        <ele>1504.3</ele>
        <time>2021-03-27T10:49:13Z</time>
      </trkpt>
      <trkpt lat="45.6368" lon="6.7984">
        <ele>1504.3</ele>
        <time>2021-03-27T10:49:14Z</time>
      </trkpt>
      <trkpt lat="45.6368" lon="6.79841">
        <ele>1504.4</ele>
        <time>2021-03-27T10:49:15Z</time>
      </trkpt>
      <trkpt lat="45.6368" lon="6.79841">
        <ele>1504.4</ele>
        <time>2021-03-27T10:49:16Z</time>
      </trkpt>
      <trkpt lat="45.6368" lon="6.79841">
        <ele>1504.4</ele>
        <time>2021-03-27T10:49:17Z</time>
      </trkpt>
      <trkpt lat="45.6368" lon="6.79841">
        <ele>1504.5</ele>
        <time>2021-03-27T10:49:18Z</time>
      </trkpt>
      <trkpt lat="45.63681" lon="6.79842">
        <ele>1504.5</ele>
        <time>2021-03-27T10:49:19Z</time>
      </trkpt>
      <trkpt lat="45.63681" lon="6.79842">
        <ele>1504.6</ele>
        <time>2021-03-27T10:49:20Z</time>
      </trkpt>
      <trkpt lat="45.63681" lon="6.79842">
        <ele>1504.6</ele>
        <time>2021-03-27T10:49:21Z</time>
      </trkpt>
      <trkpt lat="45.63681" lon="6.79842">
        <ele>1504.6</ele>
        <time>2021-03-27T10:49:22Z</time>
      </trkpt>
      <trkpt lat="45.63682" lon="6.79843">
        <ele>1504.7</ele>
        <time>2021-03-27T10:49:23Z</time>
      </trkpt>
      <trkpt lat="45.63682" lon="6.79843">
        <ele>1504.7</ele>
        <time>2021-03-27T10:49:24Z</time>
      </trkpt>
      <trkpt lat="45.63682" lon="6.79843">
        <ele>1504.7</ele>
        <time>2021-03-27T10:49:25Z</time>
      </trkpt>
      <trkpt lat="45.63682" lon="6.79843">
        <ele>1504.8</ele>
        <time>2021-03-27T10:49:26Z</time>
      </trkpt>
      <trkpt lat="45.63682" lon="6.79843">
        <ele>1504.8</ele>
        <time>2021-03-27T10:49:27Z</time>
      </trkpt>
      <trkpt lat="45.63683" lon="6.79844">
        <ele>1504.8</ele>
        <time>2021-03-27T10:50:04Z</time>
      </trkpt>
      <trkpt lat="45.63683" lon="6.79844">
        <ele>1504.9</ele>
        <time>2021-03-27T10:50:05Z</time>
      </trkpt>
      <trkpt lat="45.63683" lon="6.79844">
        <ele>1504.9</ele>
        <time>2021-03-27T10:50:06Z</time>
      </trkpt>
      <trkpt lat="45.63683" lon="6.79844">
        <ele>1504.9</ele>
        <time>2021-03-27T10:50:07Z</time>
      </trkpt>
      <trkpt lat="45.63684" lon="6.79845">
        <ele>1505</ele>
        <time>2021-03-27T10:50:08Z</time>
      </trkpt>
      <trkpt lat="45.63685" lon="6.79846">
        <ele>1505.1</ele>
        <time>2021-03-27T10:50:09Z</time>
      </trkpt>
      <trkpt lat="45.63685" lon="6.79847">
        <ele>1505.2</ele>
        <time>2021-03-27T10:50:10Z</time>
      </trkpt>
      <trkpt lat="45.63686" lon="6.79847">
        <ele>1505.3</ele>
        <time>2021-03-27T10:50:11Z</time>
      </trkpt>
      <trkpt lat="45.63687" lon="6.79848">
        <ele>1505.5</ele>
        <time>2021-03-27T10:50:12Z</time>
      </trkpt>
      <trkpt lat="45.63688" lon="6.79848">
        <ele>1505.5</ele>
        <time>2021-03-27T10:50:13Z</time>
      </trkpt>
      <trkpt lat="45.63688" lon="6.79849">
        <ele>1505.6</ele>
        <time>2021-03-27T10:50:14Z</time>
      </trkpt>
      <trkpt lat="45.63689" lon="6.79849">
        <ele>1505.7</ele>
        <time>2021-03-27T10:50:15Z</time>
      </trkpt>
      <trkpt lat="45.6369" lon="6.7985">
        <ele>1505.8</ele>
        <time>2021-03-27T10:50:16Z</time>
      </trkpt>
      <trkpt lat="45.6369" lon="6.7985">
        <ele>1505.8</ele>
        <time>2021-03-27T10:50:17Z</time>
      </trkpt>
      <trkpt lat="45.63691" lon="6.7985">
        <ele>1505.9</ele>
        <time>2021-03-27T10:50:18Z</time>
      </trkpt>
      <trkpt lat="45.63691" lon="6.7985">
        <ele>1505.9</ele>
        <time>2021-03-27T10:50:19Z</time>
      </trkpt>
      <trkpt lat="45.63691" lon="6.79851">
        <ele>1506</ele>
        <time>2021-03-27T10:50:20Z</time>
      </trkpt>
      <trkpt lat="45.63692" lon="6.79851">
        <ele>1506</ele>
        <time>2021-03-27T10:50:21Z</time>
      </trkpt>
      <trkpt lat="45.63692" lon="6.79851">
        <ele>1506.1</ele>
        <time>2021-03-27T10:50:22Z</time>
      </trkpt>
      <trkpt lat="45.63692" lon="6.79851">
        <ele>1506.1</ele>
        <time>2021-03-27T10:50:23Z</time>
      </trkpt>
      <trkpt lat="45.63693" lon="6.79852">
        <ele>1506.2</ele>
        <time>2021-03-27T10:50:24Z</time>
      </trkpt>
      <trkpt lat="45.63694" lon="6.79853">
        <ele>1506.3</ele>
        <time>2021-03-27T10:50:25Z</time>
      </trkpt>
      <trkpt lat="45.63695" lon="6.79854">
        <ele>1506.4</ele>
        <time>2021-03-27T10:50:26Z</time>
      </trkpt>
      <trkpt lat="45.63695" lon="6.79855">
        <ele>1506.5</ele>
        <time>2021-03-27T10:50:27Z</time>
      </trkpt>
      <trkpt lat="45.63696" lon="6.79856">
        <ele>1506.6</ele>
        <time>2021-03-27T10:50:28Z</time>
      </trkpt>
      <trkpt lat="45.63697" lon="6.79856">
        <ele>1506.7</ele>
        <time>2021-03-27T10:50:29Z</time>
      </trkpt>
      <trkpt lat="45.63697" lon="6.79856">
        <ele>1506.8</ele>
        <time>2021-03-27T10:50:30Z</time>
      </trkpt>
      <trkpt lat="45.63698" lon="6.79857">
        <ele>1506.9</ele>
        <time>2021-03-27T10:50:31Z</time>
      </trkpt>
      <trkpt lat="45.63699" lon="6.79857">
        <ele>1507</ele>
        <time>2021-03-27T10:50:32Z</time>
      </trkpt>
      <trkpt lat="45.63701" lon="6.79858">
        <ele>1507.2</ele>
        <time>2021-03-27T10:50:33Z</time>
      </trkpt>
      <trkpt lat="45.63702" lon="6.79858">
        <ele>1507.3</ele>
        <time>2021-03-27T10:50:34Z</time>
      </trkpt>
      <trkpt lat="45.63704" lon="6.79859">
        <ele>1507.6</ele>
        <time>2021-03-27T10:50:35Z</time>
      </trkpt>
      <trkpt lat="45.63705" lon="6.79859">
        <ele>1507.7</ele>
        <time>2021-03-27T10:50:36Z</time>
      </trkpt>
      <trkpt lat="45.63705" lon="6.7986">
        <ele>1507.7</ele>
        <time>2021-03-27T10:50:37Z</time>
      </trkpt>
      <trkpt lat="45.63707" lon="6.7986">
        <ele>1508</ele>
        <time>2021-03-27T10:50:38Z</time>
      </trkpt>
      <trkpt lat="45.63708" lon="6.79861">
        <ele>1508</ele>
        <time>2021-03-27T10:50:39Z</time>
      </trkpt>
      <trkpt lat="45.63708" lon="6.79861">
        <ele>1508.1</ele>
        <time>2021-03-27T10:50:40Z</time>
      </trkpt>
      <trkpt lat="45.63709" lon="6.79861">
        <ele>1508.2</ele>
        <time>2021-03-27T10:50:41Z</time>
      </trkpt>
      <trkpt lat="45.6371" lon="6.79862">
        <ele>1508.3</ele>
        <time>2021-03-27T10:50:42Z</time>
      </trkpt>
      <trkpt lat="45.63711" lon="6.79863">
        <ele>1508.4</ele>
        <time>2021-03-27T10:50:43Z</time>
      </trkpt>
      <trkpt lat="45.63711" lon="6.79864">
        <ele>1508.5</ele>
        <time>2021-03-27T10:50:44Z</time>
      </trkpt>
      <trkpt lat="45.63712" lon="6.79864">
        <ele>1508.6</ele>
        <time>2021-03-27T10:50:45Z</time>
      </trkpt>
      <trkpt lat="45.63713" lon="6.79866">
        <ele>1508.9</ele>
        <time>2021-03-27T10:50:46Z</time>
      </trkpt>
      <trkpt lat="45.63714" lon="6.79867">
        <ele>1509</ele>
        <time>2021-03-27T10:50:47Z</time>
      </trkpt>
      <trkpt lat="45.63715" lon="6.79867">
        <ele>1509.1</ele>
        <time>2021-03-27T10:50:48Z</time>
      </trkpt>
      <trkpt lat="45.63716" lon="6.79868">
        <ele>1509.2</ele>
        <time>2021-03-27T10:50:49Z</time>
      </trkpt>
      <trkpt lat="45.63716" lon="6.79869">
        <ele>1509.4</ele>
        <time>2021-03-27T10:50:50Z</time>
      </trkpt>
      <trkpt lat="45.63717" lon="6.79869">
        <ele>1509.5</ele>
        <time>2021-03-27T10:50:51Z</time>
      </trkpt>
      <trkpt lat="45.63718" lon="6.7987">
        <ele>1509.6</ele>
        <time>2021-03-27T10:50:52Z</time>
      </trkpt>
      <trkpt lat="45.63719" lon="6.79871">
        <ele>1509.7</ele>
        <time>2021-03-27T10:50:53Z</time>
      </trkpt>
      <trkpt lat="45.6372" lon="6.79871">
        <ele>1509.9</ele>
        <time>2021-03-27T10:50:54Z</time>
      </trkpt>
      <trkpt lat="45.63721" lon="6.79872">
        <ele>1510</ele>
        <time>2021-03-27T10:50:55Z</time>
      </trkpt>
      <trkpt lat="45.63721" lon="6.79872">
        <ele>1510.1</ele>
        <time>2021-03-27T10:50:56Z</time>
      </trkpt>
      <trkpt lat="45.63722" lon="6.79872">
        <ele>1510.2</ele>
        <time>2021-03-27T10:50:57Z</time>
      </trkpt>
      <trkpt lat="45.63723" lon="6.79872">
        <ele>1510.3</ele>
        <time>2021-03-27T10:50:58Z</time>
      </trkpt>
      <trkpt lat="45.63724" lon="6.79872">
        <ele>1510.4</ele>
        <time>2021-03-27T10:50:59Z</time>
      </trkpt>
      <trkpt lat="45.63724" lon="6.79873">
        <ele>1510.5</ele>
        <time>2021-03-27T10:51:00Z</time>
      </trkpt>
      <trkpt lat="45.63725" lon="6.79874">
        <ele>1510.6</ele>
        <time>2021-03-27T10:51:01Z</time>
      </trkpt>
      <trkpt lat="45.63726" lon="6.79874">
        <ele>1510.8</ele>
        <time>2021-03-27T10:51:02Z</time>
      </trkpt>
      <trkpt lat="45.63727" lon="6.79876">
        <ele>1510.9</ele>
        <time>2021-03-27T10:51:03Z</time>
      </trkpt>
      <trkpt lat="45.63728" lon="6.79876">
        <ele>1511.1</ele>
        <time>2021-03-27T10:51:04Z</time>
      </trkpt>
      <trkpt lat="45.63729" lon="6.79877">
        <ele>1511.2</ele>
        <time>2021-03-27T10:51:05Z</time>
      </trkpt>
      <trkpt lat="45.6373" lon="6.79878">
        <ele>1511.4</ele>
        <time>2021-03-27T10:51:06Z</time>
      </trkpt>
      <trkpt lat="45.63731" lon="6.79878">
        <ele>1511.5</ele>
        <time>2021-03-27T10:51:07Z</time>
      </trkpt>
      <trkpt lat="45.63732" lon="6.79879">
        <ele>1511.7</ele>
        <time>2021-03-27T10:51:08Z</time>
      </trkpt>
      <trkpt lat="45.63733" lon="6.7988">
        <ele>1511.8</ele>
        <time>2021-03-27T10:51:09Z</time>
      </trkpt>
      <trkpt lat="45.63733" lon="6.79881">
        <ele>1511.9</ele>
        <time>2021-03-27T10:51:10Z</time>
      </trkpt>
      <trkpt lat="45.63734" lon="6.79883">
        <ele>1512.1</ele>
        <time>2021-03-27T10:51:11Z</time>
      </trkpt>
      <trkpt lat="45.63735" lon="6.79885">
        <ele>1512.2</ele>
        <time>2021-03-27T10:51:12Z</time>
      </trkpt>
      <trkpt lat="45.63736" lon="6.79886">
        <ele>1512.4</ele>
        <time>2021-03-27T10:51:13Z</time>
      </trkpt>
      <trkpt lat="45.63737" lon="6.79887">
        <ele>1512.6</ele>
        <time>2021-03-27T10:51:14Z</time>
      </trkpt>
      <trkpt lat="45.63738" lon="6.79888">
        <ele>1512.7</ele>
        <time>2021-03-27T10:51:15Z</time>
      </trkpt>
      <trkpt lat="45.63738" lon="6.7989">
        <ele>1512.8</ele>
        <time>2021-03-27T10:51:16Z</time>
      </trkpt>
      <trkpt lat="45.63739" lon="6.79892">
        <ele>1513</ele>
        <time>2021-03-27T10:51:17Z</time>
      </trkpt>
      <trkpt lat="45.6374" lon="6.79893">
        <ele>1513.1</ele>
        <time>2021-03-27T10:51:18Z</time>
      </trkpt>
      <trkpt lat="45.63741" lon="6.79895">
        <ele>1513.3</ele>
        <time>2021-03-27T10:51:19Z</time>
      </trkpt>
      <trkpt lat="45.63742" lon="6.79896">
        <ele>1513.4</ele>
        <time>2021-03-27T10:51:20Z</time>
      </trkpt>
      <trkpt lat="45.63742" lon="6.79897">
        <ele>1513.5</ele>
        <time>2021-03-27T10:51:21Z</time>
      </trkpt>
      <trkpt lat="45.63743" lon="6.79898">
        <ele>1513.6</ele>
        <time>2021-03-27T10:51:22Z</time>
      </trkpt>
      <trkpt lat="45.63743" lon="6.79899">
        <ele>1513.7</ele>
        <time>2021-03-27T10:51:23Z</time>
      </trkpt>
      <trkpt lat="45.63743" lon="6.799">
        <ele>1513.8</ele>
        <time>2021-03-27T10:51:24Z</time>
      </trkpt>
      <trkpt lat="45.63744" lon="6.79901">
        <ele>1513.9</ele>
        <time>2021-03-27T10:51:25Z</time>
      </trkpt>
      <trkpt lat="45.63744" lon="6.79902">
        <ele>1514</ele>
        <time>2021-03-27T10:51:26Z</time>
      </trkpt>
      <trkpt lat="45.63744" lon="6.79904">
        <ele>1514.1</ele>
        <time>2021-03-27T10:51:27Z</time>
      </trkpt>
      <trkpt lat="45.63744" lon="6.79905">
        <ele>1514.2</ele>
        <time>2021-03-27T10:51:28Z</time>
      </trkpt>
      <trkpt lat="45.63744" lon="6.79906">
        <ele>1514.4</ele>
        <time>2021-03-27T10:51:29Z</time>
      </trkpt>
      <trkpt lat="45.63745" lon="6.79909">
        <ele>1514.5</ele>
        <time>2021-03-27T10:51:30Z</time>
      </trkpt>
      <trkpt lat="45.63745" lon="6.7991">
        <ele>1514.7</ele>
        <time>2021-03-27T10:51:31Z</time>
      </trkpt>
      <trkpt lat="45.63745" lon="6.79912">
        <ele>1514.8</ele>
        <time>2021-03-27T10:51:32Z</time>
      </trkpt>
      <trkpt lat="45.63746" lon="6.79913">
        <ele>1514.9</ele>
        <time>2021-03-27T10:51:33Z</time>
      </trkpt>
      <trkpt lat="45.63746" lon="6.79915">
        <ele>1515</ele>
        <time>2021-03-27T10:51:34Z</time>
      </trkpt>
      <trkpt lat="45.63747" lon="6.79918">
        <ele>1515.3</ele>
        <time>2021-03-27T10:51:35Z</time>
      </trkpt>
      <trkpt lat="45.63747" lon="6.79919">
        <ele>1515.4</ele>
        <time>2021-03-27T10:51:36Z</time>
      </trkpt>
      <trkpt lat="45.63747" lon="6.7992">
        <ele>1515.5</ele>
        <time>2021-03-27T10:51:37Z</time>
      </trkpt>
      <trkpt lat="45.63748" lon="6.79921">
        <ele>1515.6</ele>
        <time>2021-03-27T10:51:38Z</time>
      </trkpt>
      <trkpt lat="45.63748" lon="6.79922">
        <ele>1515.7</ele>
        <time>2021-03-27T10:51:39Z</time>
      </trkpt>
      <trkpt lat="45.63748" lon="6.79924">
        <ele>1515.8</ele>
        <time>2021-03-27T10:51:40Z</time>
      </trkpt>
      <trkpt lat="45.63749" lon="6.79925">
        <ele>1515.9</ele>
        <time>2021-03-27T10:51:41Z</time>
      </trkpt>
      <trkpt lat="45.63749" lon="6.79927">
        <ele>1516</ele>
        <time>2021-03-27T10:51:42Z</time>
      </trkpt>
      <trkpt lat="45.6375" lon="6.79928">
        <ele>1516.1</ele>
        <time>2021-03-27T10:51:43Z</time>
      </trkpt>
      <trkpt lat="45.6375" lon="6.7993">
        <ele>1516.2</ele>
        <time>2021-03-27T10:51:44Z</time>
      </trkpt>
      <trkpt lat="45.63751" lon="6.79931">
        <ele>1516.3</ele>
        <time>2021-03-27T10:51:45Z</time>
      </trkpt>
      <trkpt lat="45.63751" lon="6.79932">
        <ele>1516.5</ele>
        <time>2021-03-27T10:51:46Z</time>
      </trkpt>
      <trkpt lat="45.63752" lon="6.79934">
        <ele>1516.6</ele>
        <time>2021-03-27T10:51:47Z</time>
      </trkpt>
      <trkpt lat="45.63752" lon="6.79935">
        <ele>1516.7</ele>
        <time>2021-03-27T10:51:48Z</time>
      </trkpt>
      <trkpt lat="45.63753" lon="6.79937">
        <ele>1516.8</ele>
        <time>2021-03-27T10:51:49Z</time>
      </trkpt>
      <trkpt lat="45.63753" lon="6.79938">
        <ele>1516.9</ele>
        <time>2021-03-27T10:51:50Z</time>
      </trkpt>
      <trkpt lat="45.63754" lon="6.79939">
        <ele>1517</ele>
        <time>2021-03-27T10:51:51Z</time>
      </trkpt>
      <trkpt lat="45.63755" lon="6.7994">
        <ele>1517.2</ele>
        <time>2021-03-27T10:51:52Z</time>
      </trkpt>
      <trkpt lat="45.63755" lon="6.79942">
        <ele>1517.3</ele>
        <time>2021-03-27T10:51:53Z</time>
      </trkpt>
      <trkpt lat="45.63756" lon="6.79943">
        <ele>1517.4</ele>
        <time>2021-03-27T10:51:54Z</time>
      </trkpt>
      <trkpt lat="45.63757" lon="6.79944">
        <ele>1517.5</ele>
        <time>2021-03-27T10:51:55Z</time>
      </trkpt>
      <trkpt lat="45.63757" lon="6.79945">
        <ele>1517.6</ele>
        <time>2021-03-27T10:51:56Z</time>
      </trkpt>
      <trkpt lat="45.63758" lon="6.79947">
        <ele>1517.7</ele>
        <time>2021-03-27T10:51:57Z</time>
      </trkpt>
      <trkpt lat="45.63759" lon="6.79948">
        <ele>1517.8</ele>
        <time>2021-03-27T10:51:58Z</time>
      </trkpt>
      <trkpt lat="45.63759" lon="6.7995">
        <ele>1518</ele>
        <time>2021-03-27T10:51:59Z</time>
      </trkpt>
      <trkpt lat="45.6376" lon="6.79951">
        <ele>1518.1</ele>
        <time>2021-03-27T10:52:00Z</time>
      </trkpt>
      <trkpt lat="45.6376" lon="6.79952">
        <ele>1518.1</ele>
        <time>2021-03-27T10:52:01Z</time>
      </trkpt>
      <trkpt lat="45.63761" lon="6.79954">
        <ele>1518.3</ele>
        <time>2021-03-27T10:52:02Z</time>
      </trkpt>
      <trkpt lat="45.63761" lon="6.79956">
        <ele>1518.4</ele>
        <time>2021-03-27T10:52:03Z</time>
      </trkpt>
      <trkpt lat="45.63761" lon="6.79957">
        <ele>1518.5</ele>
        <time>2021-03-27T10:52:04Z</time>
      </trkpt>
      <trkpt lat="45.63761" lon="6.79958">
        <ele>1518.5</ele>
        <time>2021-03-27T10:52:05Z</time>
      </trkpt>
      <trkpt lat="45.63761" lon="6.79959">
        <ele>1518.6</ele>
        <time>2021-03-27T10:52:06Z</time>
      </trkpt>
      <trkpt lat="45.63761" lon="6.7996">
        <ele>1518.7</ele>
        <time>2021-03-27T10:52:07Z</time>
      </trkpt>
      <trkpt lat="45.63761" lon="6.79961">
        <ele>1518.8</ele>
        <time>2021-03-27T10:52:08Z</time>
      </trkpt>
      <trkpt lat="45.63761" lon="6.79962">
        <ele>1518.8</ele>
        <time>2021-03-27T10:52:09Z</time>
      </trkpt>
      <trkpt lat="45.63761" lon="6.79963">
        <ele>1518.9</ele>
        <time>2021-03-27T10:52:10Z</time>
      </trkpt>
      <trkpt lat="45.63761" lon="6.79964">
        <ele>1519</ele>
        <time>2021-03-27T10:52:11Z</time>
      </trkpt>
      <trkpt lat="45.63761" lon="6.79965">
        <ele>1519.1</ele>
        <time>2021-03-27T10:52:12Z</time>
      </trkpt>
      <trkpt lat="45.63761" lon="6.79966">
        <ele>1519.1</ele>
        <time>2021-03-27T10:52:13Z</time>
      </trkpt>
      <trkpt lat="45.63761" lon="6.79967">
        <ele>1519.2</ele>
        <time>2021-03-27T10:52:14Z</time>
      </trkpt>
      <trkpt lat="45.63761" lon="6.79968">
        <ele>1519.3</ele>
        <time>2021-03-27T10:54:31Z</time>
      </trkpt>
      <trkpt lat="45.63761" lon="6.79969">
        <ele>1519.4</ele>
        <time>2021-03-27T10:54:32Z</time>
      </trkpt>
      <trkpt lat="45.63761" lon="6.7997">
        <ele>1519.5</ele>
        <time>2021-03-27T10:54:33Z</time>
      </trkpt>
      <trkpt lat="45.63761" lon="6.79971">
        <ele>1519.6</ele>
        <time>2021-03-27T10:54:34Z</time>
      </trkpt>
      <trkpt lat="45.63761" lon="6.79972">
        <ele>1519.6</ele>
        <time>2021-03-27T10:54:35Z</time>
      </trkpt>
      <trkpt lat="45.63761" lon="6.79973">
        <ele>1519.7</ele>
        <time>2021-03-27T10:54:36Z</time>
      </trkpt>
      <trkpt lat="45.63761" lon="6.79975">
        <ele>1519.9</ele>
        <time>2021-03-27T10:54:37Z</time>
      </trkpt>
      <trkpt lat="45.63761" lon="6.79977">
        <ele>1520</ele>
        <time>2021-03-27T10:54:38Z</time>
      </trkpt>
      <trkpt lat="45.63761" lon="6.79981">
        <ele>1520.4</ele>
        <time>2021-03-27T10:54:39Z</time>
      </trkpt>
      <trkpt lat="45.63761" lon="6.79982">
        <ele>1520.5</ele>
        <time>2021-03-27T10:54:40Z</time>
      </trkpt>
      <trkpt lat="45.63761" lon="6.79984">
        <ele>1520.6</ele>
        <time>2021-03-27T10:54:41Z</time>
      </trkpt>
      <trkpt lat="45.63761" lon="6.79985">
        <ele>1520.8</ele>
        <time>2021-03-27T10:54:42Z</time>
      </trkpt>
      <trkpt lat="45.63762" lon="6.79987">
        <ele>1520.9</ele>
        <time>2021-03-27T10:54:43Z</time>
      </trkpt>
      <trkpt lat="45.63762" lon="6.7999">
        <ele>1521.2</ele>
        <time>2021-03-27T10:54:44Z</time>
      </trkpt>
      <trkpt lat="45.63762" lon="6.79991">
        <ele>1521.3</ele>
        <time>2021-03-27T10:54:45Z</time>
      </trkpt>
      <trkpt lat="45.63763" lon="6.79993">
        <ele>1521.4</ele>
        <time>2021-03-27T10:54:46Z</time>
      </trkpt>
      <trkpt lat="45.63763" lon="6.79994">
        <ele>1521.5</ele>
        <time>2021-03-27T10:54:47Z</time>
      </trkpt>
      <trkpt lat="45.63763" lon="6.79995">
        <ele>1521.6</ele>
        <time>2021-03-27T10:54:48Z</time>
      </trkpt>
      <trkpt lat="45.63763" lon="6.79997">
        <ele>1521.7</ele>
        <time>2021-03-27T10:54:49Z</time>
      </trkpt>
      <trkpt lat="45.63763" lon="6.79998">
        <ele>1521.8</ele>
        <time>2021-03-27T10:54:50Z</time>
      </trkpt>
      <trkpt lat="45.63763" lon="6.79999">
        <ele>1521.9</ele>
        <time>2021-03-27T10:54:51Z</time>
      </trkpt>
      <trkpt lat="45.63763" lon="6.8">
        <ele>1522.1</ele>
        <time>2021-03-27T10:54:52Z</time>
      </trkpt>
      <trkpt lat="45.63763" lon="6.80001">
        <ele>1522.1</ele>
        <time>2021-03-27T10:54:53Z</time>
      </trkpt>
      <trkpt lat="45.63764" lon="6.80004">
        <ele>1522.4</ele>
        <time>2021-03-27T10:54:54Z</time>
      </trkpt>
      <trkpt lat="45.63765" lon="6.80005">
        <ele>1522.5</ele>
        <time>2021-03-27T10:54:55Z</time>
      </trkpt>
      <trkpt lat="45.63765" lon="6.80006">
        <ele>1522.6</ele>
        <time>2021-03-27T10:54:56Z</time>
      </trkpt>
      <trkpt lat="45.63765" lon="6.80007">
        <ele>1522.7</ele>
        <time>2021-03-27T10:54:57Z</time>
      </trkpt>
      <trkpt lat="45.63765" lon="6.80009">
        <ele>1522.8</ele>
        <time>2021-03-27T10:54:58Z</time>
      </trkpt>
      <trkpt lat="45.63766" lon="6.8001">
        <ele>1522.9</ele>
        <time>2021-03-27T10:54:59Z</time>
      </trkpt>
      <trkpt lat="45.63766" lon="6.80012">
        <ele>1523</ele>
        <time>2021-03-27T10:55:00Z</time>
      </trkpt>
      <trkpt lat="45.63766" lon="6.80014">
        <ele>1523.2</ele>
        <time>2021-03-27T10:55:01Z</time>
      </trkpt>
      <trkpt lat="45.63767" lon="6.80015">
        <ele>1523.3</ele>
        <time>2021-03-27T10:55:02Z</time>
      </trkpt>
      <trkpt lat="45.63767" lon="6.80017">
        <ele>1523.4</ele>
        <time>2021-03-27T10:55:03Z</time>
      </trkpt>
      <trkpt lat="45.63767" lon="6.80018">
        <ele>1523.5</ele>
        <time>2021-03-27T10:55:04Z</time>
      </trkpt>
      <trkpt lat="45.63767" lon="6.80019">
        <ele>1523.5</ele>
        <time>2021-03-27T10:55:05Z</time>
      </trkpt>
      <trkpt lat="45.63767" lon="6.80019">
        <ele>1523.5</ele>
        <time>2021-03-27T10:55:06Z</time>
      </trkpt>
      <trkpt lat="45.63768" lon="6.8002">
        <ele>1523.6</ele>
        <time>2021-03-27T10:55:07Z</time>
      </trkpt>
      <trkpt lat="45.63768" lon="6.80021">
        <ele>1523.7</ele>
        <time>2021-03-27T10:55:08Z</time>
      </trkpt>
      <trkpt lat="45.63768" lon="6.80021">
        <ele>1523.7</ele>
        <time>2021-03-27T10:55:09Z</time>
      </trkpt>
      <trkpt lat="45.63768" lon="6.80022">
        <ele>1523.8</ele>
        <time>2021-03-27T10:55:10Z</time>
      </trkpt>
      <trkpt lat="45.63769" lon="6.80023">
        <ele>1523.9</ele>
        <time>2021-03-27T10:55:11Z</time>
      </trkpt>
      <trkpt lat="45.63769" lon="6.80024">
        <ele>1523.9</ele>
        <time>2021-03-27T10:55:12Z</time>
      </trkpt>
      <trkpt lat="45.63769" lon="6.80024">
        <ele>1524</ele>
        <time>2021-03-27T10:55:13Z</time>
      </trkpt>
      <trkpt lat="45.6377" lon="6.80025">
        <ele>1524</ele>
        <time>2021-03-27T10:55:14Z</time>
      </trkpt>
      <trkpt lat="45.6377" lon="6.80026">
        <ele>1524.1</ele>
        <time>2021-03-27T10:55:21Z</time>
      </trkpt>
      <trkpt lat="45.6377" lon="6.80027">
        <ele>1524.2</ele>
        <time>2021-03-27T10:55:22Z</time>
      </trkpt>
      <trkpt lat="45.63771" lon="6.80027">
        <ele>1524.2</ele>
        <time>2021-03-27T10:55:23Z</time>
      </trkpt>
      <trkpt lat="45.63771" lon="6.80028">
        <ele>1524.3</ele>
        <time>2021-03-27T10:55:24Z</time>
      </trkpt>
      <trkpt lat="45.63771" lon="6.80029">
        <ele>1524.3</ele>
        <time>2021-03-27T10:55:25Z</time>
      </trkpt>
      <trkpt lat="45.63771" lon="6.8003">
        <ele>1524.4</ele>
        <time>2021-03-27T10:55:26Z</time>
      </trkpt>
      <trkpt lat="45.63772" lon="6.8003">
        <ele>1524.5</ele>
        <time>2021-03-27T10:55:27Z</time>
      </trkpt>
      <trkpt lat="45.63772" lon="6.80031">
        <ele>1524.5</ele>
        <time>2021-03-27T10:55:28Z</time>
      </trkpt>
      <trkpt lat="45.63772" lon="6.80032">
        <ele>1524.6</ele>
        <time>2021-03-27T10:55:29Z</time>
      </trkpt>
      <trkpt lat="45.63773" lon="6.80032">
        <ele>1524.6</ele>
        <time>2021-03-27T10:55:30Z</time>
      </trkpt>
      <trkpt lat="45.63773" lon="6.80033">
        <ele>1524.7</ele>
        <time>2021-03-27T10:55:31Z</time>
      </trkpt>
      <trkpt lat="45.63773" lon="6.80034">
        <ele>1524.7</ele>
        <time>2021-03-27T10:55:56Z</time>
      </trkpt>
      <trkpt lat="45.63774" lon="6.80035">
        <ele>1524.8</ele>
        <time>2021-03-27T10:55:57Z</time>
      </trkpt>
      <trkpt lat="45.63774" lon="6.80035">
        <ele>1524.8</ele>
        <time>2021-03-27T10:55:58Z</time>
      </trkpt>
      <trkpt lat="45.63775" lon="6.80038">
        <ele>1525</ele>
        <time>2021-03-27T10:55:59Z</time>
      </trkpt>
      <trkpt lat="45.63776" lon="6.80039">
        <ele>1525.1</ele>
        <time>2021-03-27T10:56:00Z</time>
      </trkpt>
      <trkpt lat="45.63776" lon="6.80039">
        <ele>1525.1</ele>
        <time>2021-03-27T10:56:01Z</time>
      </trkpt>
      <trkpt lat="45.63777" lon="6.80041">
        <ele>1525.2</ele>
        <time>2021-03-27T10:56:02Z</time>
      </trkpt>
      <trkpt lat="45.63778" lon="6.80042">
        <ele>1525.3</ele>
        <time>2021-03-27T10:56:03Z</time>
      </trkpt>
      <trkpt lat="45.63779" lon="6.80044">
        <ele>1525.4</ele>
        <time>2021-03-27T10:56:04Z</time>
      </trkpt>
      <trkpt lat="45.6378" lon="6.80045">
        <ele>1525.5</ele>
        <time>2021-03-27T10:56:05Z</time>
      </trkpt>
      <trkpt lat="45.6378" lon="6.80046">
        <ele>1525.6</ele>
        <time>2021-03-27T10:56:06Z</time>
      </trkpt>
      <trkpt lat="45.63781" lon="6.80048">
        <ele>1525.7</ele>
        <time>2021-03-27T10:56:07Z</time>
      </trkpt>
      <trkpt lat="45.63782" lon="6.8005">
        <ele>1525.8</ele>
        <time>2021-03-27T10:56:08Z</time>
      </trkpt>
      <trkpt lat="45.63783" lon="6.80051">
        <ele>1525.9</ele>
        <time>2021-03-27T10:56:09Z</time>
      </trkpt>
      <trkpt lat="45.63784" lon="6.80053">
        <ele>1525.9</ele>
        <time>2021-03-27T10:56:10Z</time>
      </trkpt>
      <trkpt lat="45.63784" lon="6.80054">
        <ele>1526</ele>
        <time>2021-03-27T10:56:11Z</time>
      </trkpt>
      <trkpt lat="45.63786" lon="6.80056">
        <ele>1526.2</ele>
        <time>2021-03-27T10:56:12Z</time>
      </trkpt>
      <trkpt lat="45.63786" lon="6.80057">
        <ele>1526.3</ele>
        <time>2021-03-27T10:56:13Z</time>
      </trkpt>
      <trkpt lat="45.63787" lon="6.80058">
        <ele>1526.3</ele>
        <time>2021-03-27T10:56:14Z</time>
      </trkpt>
      <trkpt lat="45.63787" lon="6.8006">
        <ele>1526.4</ele>
        <time>2021-03-27T10:56:15Z</time>
      </trkpt>
      <trkpt lat="45.63788" lon="6.80061">
        <ele>1526.5</ele>
        <time>2021-03-27T10:56:16Z</time>
      </trkpt>
      <trkpt lat="45.63788" lon="6.80063">
        <ele>1526.6</ele>
        <time>2021-03-27T10:56:17Z</time>
      </trkpt>
      <trkpt lat="45.63789" lon="6.80066">
        <ele>1526.8</ele>
        <time>2021-03-27T10:56:18Z</time>
      </trkpt>
      <trkpt lat="45.63789" lon="6.80067">
        <ele>1526.9</ele>
        <time>2021-03-27T10:56:19Z</time>
      </trkpt>
      <trkpt lat="45.63789" lon="6.80069">
        <ele>1527</ele>
        <time>2021-03-27T10:56:20Z</time>
      </trkpt>
      <trkpt lat="45.63789" lon="6.80071">
        <ele>1527.1</ele>
        <time>2021-03-27T10:56:21Z</time>
      </trkpt>
      <trkpt lat="45.63789" lon="6.80072">
        <ele>1527.2</ele>
        <time>2021-03-27T10:56:22Z</time>
      </trkpt>
      <trkpt lat="45.6379" lon="6.80074">
        <ele>1527.3</ele>
        <time>2021-03-27T10:56:23Z</time>
      </trkpt>
      <trkpt lat="45.6379" lon="6.80075">
        <ele>1527.4</ele>
        <time>2021-03-27T10:56:24Z</time>
      </trkpt>
      <trkpt lat="45.63791" lon="6.80076">
        <ele>1527.5</ele>
        <time>2021-03-27T10:56:25Z</time>
      </trkpt>
      <trkpt lat="45.63791" lon="6.80078">
        <ele>1527.6</ele>
        <time>2021-03-27T10:56:26Z</time>
      </trkpt>
      <trkpt lat="45.63792" lon="6.80079">
        <ele>1527.7</ele>
        <time>2021-03-27T10:56:27Z</time>
      </trkpt>
      <trkpt lat="45.63792" lon="6.8008">
        <ele>1527.8</ele>
        <time>2021-03-27T10:56:28Z</time>
      </trkpt>
      <trkpt lat="45.63793" lon="6.80082">
        <ele>1527.9</ele>
        <time>2021-03-27T10:56:29Z</time>
      </trkpt>
      <trkpt lat="45.63794" lon="6.80084">
        <ele>1528.1</ele>
        <time>2021-03-27T10:56:30Z</time>
      </trkpt>
      <trkpt lat="45.63794" lon="6.80085">
        <ele>1528.2</ele>
        <time>2021-03-27T10:56:31Z</time>
      </trkpt>
      <trkpt lat="45.63794" lon="6.80087">
        <ele>1528.2</ele>
        <time>2021-03-27T10:56:32Z</time>
      </trkpt>
      <trkpt lat="45.63795" lon="6.80088">
        <ele>1528.3</ele>
        <time>2021-03-27T10:56:33Z</time>
      </trkpt>
      <trkpt lat="45.63795" lon="6.80089">
        <ele>1528.4</ele>
        <time>2021-03-27T10:56:34Z</time>
      </trkpt>
      <trkpt lat="45.63796" lon="6.80089">
        <ele>1528.5</ele>
        <time>2021-03-27T10:56:35Z</time>
      </trkpt>
      <trkpt lat="45.63796" lon="6.80089">
        <ele>1528.5</ele>
        <time>2021-03-27T10:56:36Z</time>
      </trkpt>
      <trkpt lat="45.63796" lon="6.80089">
        <ele>1528.5</ele>
        <time>2021-03-27T10:56:37Z</time>
      </trkpt>
      <trkpt lat="45.63796" lon="6.8009">
        <ele>1528.5</ele>
        <time>2021-03-27T10:56:38Z</time>
      </trkpt>
      <trkpt lat="45.63796" lon="6.80092">
        <ele>1528.7</ele>
        <time>2021-03-27T10:56:39Z</time>
      </trkpt>
      <trkpt lat="45.63796" lon="6.80093">
        <ele>1528.7</ele>
        <time>2021-03-27T10:56:40Z</time>
      </trkpt>
      <trkpt lat="45.63796" lon="6.80095">
        <ele>1528.8</ele>
        <time>2021-03-27T10:56:41Z</time>
      </trkpt>
      <trkpt lat="45.63796" lon="6.80096">
        <ele>1528.9</ele>
        <time>2021-03-27T10:56:42Z</time>
      </trkpt>
      <trkpt lat="45.63797" lon="6.80099">
        <ele>1529.1</ele>
        <time>2021-03-27T10:56:43Z</time>
      </trkpt>
      <trkpt lat="45.63797" lon="6.801">
        <ele>1529.1</ele>
        <time>2021-03-27T10:56:44Z</time>
      </trkpt>
      <trkpt lat="45.63797" lon="6.80101">
        <ele>1529.2</ele>
        <time>2021-03-27T10:56:45Z</time>
      </trkpt>
      <trkpt lat="45.63797" lon="6.80102">
        <ele>1529.3</ele>
        <time>2021-03-27T10:56:46Z</time>
      </trkpt>
      <trkpt lat="45.63797" lon="6.80104">
        <ele>1529.4</ele>
        <time>2021-03-27T10:56:47Z</time>
      </trkpt>
      <trkpt lat="45.63797" lon="6.80106">
        <ele>1529.5</ele>
        <time>2021-03-27T10:56:48Z</time>
      </trkpt>
      <trkpt lat="45.63797" lon="6.80108">
        <ele>1529.6</ele>
        <time>2021-03-27T10:56:49Z</time>
      </trkpt>
      <trkpt lat="45.63797" lon="6.8011">
        <ele>1529.8</ele>
        <time>2021-03-27T10:56:50Z</time>
      </trkpt>
      <trkpt lat="45.63798" lon="6.80111">
        <ele>1529.9</ele>
        <time>2021-03-27T10:56:51Z</time>
      </trkpt>
      <trkpt lat="45.63798" lon="6.80112">
        <ele>1529.9</ele>
        <time>2021-03-27T10:56:52Z</time>
      </trkpt>
      <trkpt lat="45.63799" lon="6.80114">
        <ele>1530.1</ele>
        <time>2021-03-27T10:56:53Z</time>
      </trkpt>
      <trkpt lat="45.638" lon="6.80117">
        <ele>1530.2</ele>
        <time>2021-03-27T10:56:54Z</time>
      </trkpt>
      <trkpt lat="45.638" lon="6.80118">
        <ele>1530.3</ele>
        <time>2021-03-27T10:56:55Z</time>
      </trkpt>
      <trkpt lat="45.638" lon="6.80119">
        <ele>1530.4</ele>
        <time>2021-03-27T10:56:56Z</time>
      </trkpt>
      <trkpt lat="45.63801" lon="6.80122">
        <ele>1530.5</ele>
        <time>2021-03-27T10:56:57Z</time>
      </trkpt>
      <trkpt lat="45.63801" lon="6.80123">
        <ele>1530.6</ele>
        <time>2021-03-27T10:56:58Z</time>
      </trkpt>
      <trkpt lat="45.63801" lon="6.80124">
        <ele>1530.7</ele>
        <time>2021-03-27T10:56:59Z</time>
      </trkpt>
      <trkpt lat="45.63802" lon="6.80126">
        <ele>1530.8</ele>
        <time>2021-03-27T10:57:00Z</time>
      </trkpt>
      <trkpt lat="45.63802" lon="6.80128">
        <ele>1530.9</ele>
        <time>2021-03-27T10:57:01Z</time>
      </trkpt>
      <trkpt lat="45.63802" lon="6.80131">
        <ele>1531</ele>
        <time>2021-03-27T10:57:02Z</time>
      </trkpt>
      <trkpt lat="45.63802" lon="6.80132">
        <ele>1531.1</ele>
        <time>2021-03-27T10:57:03Z</time>
      </trkpt>
      <trkpt lat="45.63803" lon="6.80134">
        <ele>1531.2</ele>
        <time>2021-03-27T10:57:04Z</time>
      </trkpt>
      <trkpt lat="45.63803" lon="6.80136">
        <ele>1531.3</ele>
        <time>2021-03-27T10:57:05Z</time>
      </trkpt>
      <trkpt lat="45.63802" lon="6.80138">
        <ele>1531.5</ele>
        <time>2021-03-27T10:57:06Z</time>
      </trkpt>
      <trkpt lat="45.63802" lon="6.80142">
        <ele>1531.6</ele>
        <time>2021-03-27T10:57:07Z</time>
      </trkpt>
      <trkpt lat="45.63802" lon="6.80143">
        <ele>1531.7</ele>
        <time>2021-03-27T10:57:08Z</time>
      </trkpt>
      <trkpt lat="45.63802" lon="6.80144">
        <ele>1531.8</ele>
        <time>2021-03-27T10:57:09Z</time>
      </trkpt>
      <trkpt lat="45.63802" lon="6.80146">
        <ele>1531.9</ele>
        <time>2021-03-27T10:57:10Z</time>
      </trkpt>
      <trkpt lat="45.63802" lon="6.80148">
        <ele>1532</ele>
        <time>2021-03-27T10:57:11Z</time>
      </trkpt>
      <trkpt lat="45.63802" lon="6.8015">
        <ele>1532.1</ele>
        <time>2021-03-27T10:57:12Z</time>
      </trkpt>
      <trkpt lat="45.63802" lon="6.80151">
        <ele>1532.2</ele>
        <time>2021-03-27T10:57:13Z</time>
      </trkpt>
      <trkpt lat="45.63802" lon="6.80153">
        <ele>1532.3</ele>
        <time>2021-03-27T10:57:14Z</time>
      </trkpt>
      <trkpt lat="45.63802" lon="6.80155">
        <ele>1532.4</ele>
        <time>2021-03-27T10:57:15Z</time>
      </trkpt>
      <trkpt lat="45.63803" lon="6.80157">
        <ele>1532.6</ele>
        <time>2021-03-27T10:57:16Z</time>
      </trkpt>
      <trkpt lat="45.63804" lon="6.80159">
        <ele>1532.7</ele>
        <time>2021-03-27T10:57:17Z</time>
      </trkpt>
      <trkpt lat="45.63804" lon="6.8016">
        <ele>1532.8</ele>
        <time>2021-03-27T10:57:18Z</time>
      </trkpt>
      <trkpt lat="45.63805" lon="6.80162">
        <ele>1532.9</ele>
        <time>2021-03-27T10:57:19Z</time>
      </trkpt>
      <trkpt lat="45.63805" lon="6.80163">
        <ele>1533</ele>
        <time>2021-03-27T10:57:20Z</time>
      </trkpt>
      <trkpt lat="45.63806" lon="6.80164">
        <ele>1533.1</ele>
        <time>2021-03-27T10:57:21Z</time>
      </trkpt>
      <trkpt lat="45.63806" lon="6.80167">
        <ele>1533.3</ele>
        <time>2021-03-27T10:57:22Z</time>
      </trkpt>
      <trkpt lat="45.63807" lon="6.80168">
        <ele>1533.4</ele>
        <time>2021-03-27T10:57:23Z</time>
      </trkpt>
      <trkpt lat="45.63807" lon="6.80169">
        <ele>1533.4</ele>
        <time>2021-03-27T10:57:24Z</time>
      </trkpt>
      <trkpt lat="45.63807" lon="6.80171">
        <ele>1533.5</ele>
        <time>2021-03-27T10:57:25Z</time>
      </trkpt>
      <trkpt lat="45.63808" lon="6.80172">
        <ele>1533.6</ele>
        <time>2021-03-27T10:57:26Z</time>
      </trkpt>
      <trkpt lat="45.63808" lon="6.80173">
        <ele>1533.7</ele>
        <time>2021-03-27T10:57:27Z</time>
      </trkpt>
      <trkpt lat="45.63808" lon="6.80176">
        <ele>1533.9</ele>
        <time>2021-03-27T10:57:28Z</time>
      </trkpt>
      <trkpt lat="45.63809" lon="6.80177">
        <ele>1534</ele>
        <time>2021-03-27T10:57:29Z</time>
      </trkpt>
      <trkpt lat="45.63809" lon="6.80179">
        <ele>1534</ele>
        <time>2021-03-27T10:57:30Z</time>
      </trkpt>
      <trkpt lat="45.63809" lon="6.8018">
        <ele>1534.1</ele>
        <time>2021-03-27T10:57:31Z</time>
      </trkpt>
      <trkpt lat="45.6381" lon="6.80181">
        <ele>1534.2</ele>
        <time>2021-03-27T10:57:32Z</time>
      </trkpt>
      <trkpt lat="45.6381" lon="6.80182">
        <ele>1534.3</ele>
        <time>2021-03-27T10:57:33Z</time>
      </trkpt>
      <trkpt lat="45.6381" lon="6.80183">
        <ele>1534.3</ele>
        <time>2021-03-27T10:57:34Z</time>
      </trkpt>
      <trkpt lat="45.6381" lon="6.80184">
        <ele>1534.4</ele>
        <time>2021-03-27T10:57:35Z</time>
      </trkpt>
      <trkpt lat="45.6381" lon="6.80186">
        <ele>1534.5</ele>
        <time>2021-03-27T10:57:36Z</time>
      </trkpt>
      <trkpt lat="45.6381" lon="6.80187">
        <ele>1534.6</ele>
        <time>2021-03-27T10:57:37Z</time>
      </trkpt>
      <trkpt lat="45.63811" lon="6.8019">
        <ele>1534.7</ele>
        <time>2021-03-27T10:57:38Z</time>
      </trkpt>
      <trkpt lat="45.63811" lon="6.80191">
        <ele>1534.8</ele>
        <time>2021-03-27T10:57:39Z</time>
      </trkpt>
      <trkpt lat="45.63811" lon="6.80193">
        <ele>1534.9</ele>
        <time>2021-03-27T10:57:40Z</time>
      </trkpt>
      <trkpt lat="45.63812" lon="6.80195">
        <ele>1535</ele>
        <time>2021-03-27T10:57:41Z</time>
      </trkpt>
      <trkpt lat="45.63812" lon="6.80196">
        <ele>1535.1</ele>
        <time>2021-03-27T10:57:42Z</time>
      </trkpt>
      <trkpt lat="45.63814" lon="6.80199">
        <ele>1535.3</ele>
        <time>2021-03-27T10:57:43Z</time>
      </trkpt>
      <trkpt lat="45.63814" lon="6.802">
        <ele>1535.4</ele>
        <time>2021-03-27T10:57:44Z</time>
      </trkpt>
      <trkpt lat="45.63815" lon="6.80201">
        <ele>1535.4</ele>
        <time>2021-03-27T10:57:45Z</time>
      </trkpt>
      <trkpt lat="45.63816" lon="6.80203">
        <ele>1535.6</ele>
        <time>2021-03-27T10:57:46Z</time>
      </trkpt>
      <trkpt lat="45.63817" lon="6.80205">
        <ele>1535.7</ele>
        <time>2021-03-27T10:57:47Z</time>
      </trkpt>
      <trkpt lat="45.63818" lon="6.80207">
        <ele>1535.9</ele>
        <time>2021-03-27T10:57:48Z</time>
      </trkpt>
      <trkpt lat="45.63818" lon="6.80208">
        <ele>1536</ele>
        <time>2021-03-27T10:57:49Z</time>
      </trkpt>
      <trkpt lat="45.63819" lon="6.80209">
        <ele>1536.1</ele>
        <time>2021-03-27T10:57:50Z</time>
      </trkpt>
      <trkpt lat="45.63819" lon="6.80211">
        <ele>1536.2</ele>
        <time>2021-03-27T10:57:51Z</time>
      </trkpt>
      <trkpt lat="45.63819" lon="6.80212">
        <ele>1536.3</ele>
        <time>2021-03-27T10:57:52Z</time>
      </trkpt>
      <trkpt lat="45.63819" lon="6.80214">
        <ele>1536.4</ele>
        <time>2021-03-27T10:57:53Z</time>
      </trkpt>
      <trkpt lat="45.6382" lon="6.80215">
        <ele>1536.5</ele>
        <time>2021-03-27T10:57:54Z</time>
      </trkpt>
      <trkpt lat="45.6382" lon="6.80217">
        <ele>1536.6</ele>
        <time>2021-03-27T10:57:55Z</time>
      </trkpt>
      <trkpt lat="45.63821" lon="6.80218">
        <ele>1536.7</ele>
        <time>2021-03-27T10:57:56Z</time>
      </trkpt>
      <trkpt lat="45.63821" lon="6.80221">
        <ele>1536.9</ele>
        <time>2021-03-27T10:57:57Z</time>
      </trkpt>
      <trkpt lat="45.63822" lon="6.80223">
        <ele>1537</ele>
        <time>2021-03-27T10:57:58Z</time>
      </trkpt>
      <trkpt lat="45.63822" lon="6.80224">
        <ele>1537.1</ele>
        <time>2021-03-27T10:57:59Z</time>
      </trkpt>
      <trkpt lat="45.63822" lon="6.80226">
        <ele>1537.3</ele>
        <time>2021-03-27T10:58:00Z</time>
      </trkpt>
      <trkpt lat="45.63822" lon="6.80227">
        <ele>1537.4</ele>
        <time>2021-03-27T10:58:01Z</time>
      </trkpt>
      <trkpt lat="45.63822" lon="6.80228">
        <ele>1537.4</ele>
        <time>2021-03-27T10:58:02Z</time>
      </trkpt>
      <trkpt lat="45.63822" lon="6.8023">
        <ele>1537.5</ele>
        <time>2021-03-27T10:58:03Z</time>
      </trkpt>
      <trkpt lat="45.63823" lon="6.80231">
        <ele>1537.6</ele>
        <time>2021-03-27T10:58:04Z</time>
      </trkpt>
      <trkpt lat="45.63823" lon="6.80233">
        <ele>1537.7</ele>
        <time>2021-03-27T10:58:05Z</time>
      </trkpt>
      <trkpt lat="45.63824" lon="6.80234">
        <ele>1537.8</ele>
        <time>2021-03-27T10:58:06Z</time>
      </trkpt>
      <trkpt lat="45.63824" lon="6.80235">
        <ele>1537.9</ele>
        <time>2021-03-27T10:58:07Z</time>
      </trkpt>
      <trkpt lat="45.63825" lon="6.80236">
        <ele>1538</ele>
        <time>2021-03-27T10:58:08Z</time>
      </trkpt>
      <trkpt lat="45.63826" lon="6.80238">
        <ele>1538.1</ele>
        <time>2021-03-27T10:58:09Z</time>
      </trkpt>
      <trkpt lat="45.63827" lon="6.8024">
        <ele>1538.3</ele>
        <time>2021-03-27T10:58:10Z</time>
      </trkpt>
      <trkpt lat="45.63828" lon="6.80243">
        <ele>1538.5</ele>
        <time>2021-03-27T10:58:11Z</time>
      </trkpt>
      <trkpt lat="45.63828" lon="6.80244">
        <ele>1538.6</ele>
        <time>2021-03-27T10:58:12Z</time>
      </trkpt>
      <trkpt lat="45.63828" lon="6.80245">
        <ele>1538.6</ele>
        <time>2021-03-27T10:58:13Z</time>
      </trkpt>
      <trkpt lat="45.63829" lon="6.80246">
        <ele>1538.7</ele>
        <time>2021-03-27T10:58:14Z</time>
      </trkpt>
      <trkpt lat="45.6383" lon="6.80248">
        <ele>1538.8</ele>
        <time>2021-03-27T10:58:15Z</time>
      </trkpt>
      <trkpt lat="45.6383" lon="6.80249">
        <ele>1539</ele>
        <time>2021-03-27T10:58:16Z</time>
      </trkpt>
      <trkpt lat="45.63831" lon="6.80251">
        <ele>1539.1</ele>
        <time>2021-03-27T10:58:17Z</time>
      </trkpt>
      <trkpt lat="45.63831" lon="6.80253">
        <ele>1539.2</ele>
        <time>2021-03-27T10:58:18Z</time>
      </trkpt>
      <trkpt lat="45.63831" lon="6.80255">
        <ele>1539.4</ele>
        <time>2021-03-27T10:58:19Z</time>
      </trkpt>
      <trkpt lat="45.63831" lon="6.80256">
        <ele>1539.4</ele>
        <time>2021-03-27T10:58:20Z</time>
      </trkpt>
      <trkpt lat="45.63832" lon="6.80258">
        <ele>1539.5</ele>
        <time>2021-03-27T10:58:21Z</time>
      </trkpt>
      <trkpt lat="45.63833" lon="6.8026">
        <ele>1539.7</ele>
        <time>2021-03-27T10:58:22Z</time>
      </trkpt>
      <trkpt lat="45.63834" lon="6.8026">
        <ele>1539.8</ele>
        <time>2021-03-27T10:58:23Z</time>
      </trkpt>
      <trkpt lat="45.63835" lon="6.80261">
        <ele>1539.9</ele>
        <time>2021-03-27T10:58:24Z</time>
      </trkpt>
      <trkpt lat="45.63836" lon="6.80262">
        <ele>1540.1</ele>
        <time>2021-03-27T10:58:25Z</time>
      </trkpt>
      <trkpt lat="45.63838" lon="6.80263">
        <ele>1540.2</ele>
        <time>2021-03-27T10:58:26Z</time>
      </trkpt>
      <trkpt lat="45.6384" lon="6.80263">
        <ele>1540.5</ele>
        <time>2021-03-27T10:58:27Z</time>
      </trkpt>
      <trkpt lat="45.63841" lon="6.80264">
        <ele>1540.6</ele>
        <time>2021-03-27T10:58:28Z</time>
      </trkpt>
      <trkpt lat="45.63841" lon="6.80264">
        <ele>1540.6</ele>
        <time>2021-03-27T10:58:29Z</time>
      </trkpt>
      <trkpt lat="45.63842" lon="6.80265">
        <ele>1540.8</ele>
        <time>2021-03-27T10:58:30Z</time>
      </trkpt>
      <trkpt lat="45.63843" lon="6.80266">
        <ele>1540.9</ele>
        <time>2021-03-27T10:58:31Z</time>
      </trkpt>
      <trkpt lat="45.63844" lon="6.80267">
        <ele>1541</ele>
        <time>2021-03-27T10:58:32Z</time>
      </trkpt>
      <trkpt lat="45.63845" lon="6.80267">
        <ele>1541.1</ele>
        <time>2021-03-27T10:58:33Z</time>
      </trkpt>
      <trkpt lat="45.63846" lon="6.80267">
        <ele>1541.2</ele>
        <time>2021-03-27T10:58:34Z</time>
      </trkpt>
      <trkpt lat="45.63847" lon="6.80268">
        <ele>1541.3</ele>
        <time>2021-03-27T10:58:35Z</time>
      </trkpt>
      <trkpt lat="45.63848" lon="6.80268">
        <ele>1541.4</ele>
        <time>2021-03-27T10:58:36Z</time>
      </trkpt>
      <trkpt lat="45.6385" lon="6.80269">
        <ele>1541.6</ele>
        <time>2021-03-27T10:58:37Z</time>
      </trkpt>
      <trkpt lat="45.63851" lon="6.80271">
        <ele>1541.7</ele>
        <time>2021-03-27T10:58:38Z</time>
      </trkpt>
      <trkpt lat="45.63852" lon="6.80272">
        <ele>1541.8</ele>
        <time>2021-03-27T10:58:39Z</time>
      </trkpt>
      <trkpt lat="45.63853" lon="6.80272">
        <ele>1541.9</ele>
        <time>2021-03-27T10:58:40Z</time>
      </trkpt>
      <trkpt lat="45.63854" lon="6.80273">
        <ele>1542</ele>
        <time>2021-03-27T10:58:41Z</time>
      </trkpt>
      <trkpt lat="45.63855" lon="6.80274">
        <ele>1542.1</ele>
        <time>2021-03-27T10:58:42Z</time>
      </trkpt>
      <trkpt lat="45.63856" lon="6.80275">
        <ele>1542.2</ele>
        <time>2021-03-27T10:58:43Z</time>
      </trkpt>
      <trkpt lat="45.63857" lon="6.80277">
        <ele>1542.3</ele>
        <time>2021-03-27T10:58:44Z</time>
      </trkpt>
      <trkpt lat="45.63859" lon="6.80279">
        <ele>1542.5</ele>
        <time>2021-03-27T10:58:45Z</time>
      </trkpt>
      <trkpt lat="45.63859" lon="6.8028">
        <ele>1542.5</ele>
        <time>2021-03-27T10:58:46Z</time>
      </trkpt>
      <trkpt lat="45.6386" lon="6.8028">
        <ele>1542.6</ele>
        <time>2021-03-27T10:58:47Z</time>
      </trkpt>
      <trkpt lat="45.63861" lon="6.80282">
        <ele>1542.7</ele>
        <time>2021-03-27T10:58:48Z</time>
      </trkpt>
      <trkpt lat="45.63862" lon="6.80283">
        <ele>1542.3</ele>
        <time>2021-03-27T10:58:49Z</time>
      </trkpt>
      <trkpt lat="45.63863" lon="6.80285">
        <ele>1541.9</ele>
        <time>2021-03-27T10:58:50Z</time>
      </trkpt>
      <trkpt lat="45.63864" lon="6.80286">
        <ele>1541.6</ele>
        <time>2021-03-27T10:58:51Z</time>
      </trkpt>
      <trkpt lat="45.63865" lon="6.80287">
        <ele>1541.3</ele>
        <time>2021-03-27T10:58:52Z</time>
      </trkpt>
      <trkpt lat="45.63866" lon="6.80289">
        <ele>1541</ele>
        <time>2021-03-27T10:58:53Z</time>
      </trkpt>
      <trkpt lat="45.63866" lon="6.8029">
        <ele>1540.7</ele>
        <time>2021-03-27T10:58:54Z</time>
      </trkpt>
      <trkpt lat="45.63867" lon="6.80292">
        <ele>1540.4</ele>
        <time>2021-03-27T10:58:55Z</time>
      </trkpt>
      <trkpt lat="45.63868" lon="6.80293">
        <ele>1540.1</ele>
        <time>2021-03-27T10:58:56Z</time>
      </trkpt>
      <trkpt lat="45.63869" lon="6.80293">
        <ele>1539.9</ele>
        <time>2021-03-27T10:58:57Z</time>
      </trkpt>
      <trkpt lat="45.6387" lon="6.80294">
        <ele>1539.6</ele>
        <time>2021-03-27T10:58:58Z</time>
      </trkpt>
      <trkpt lat="45.6387" lon="6.80295">
        <ele>1539.4</ele>
        <time>2021-03-27T10:58:59Z</time>
      </trkpt>
      <trkpt lat="45.63871" lon="6.80296">
        <ele>1539.1</ele>
        <time>2021-03-27T10:59:00Z</time>
      </trkpt>
      <trkpt lat="45.63871" lon="6.80298">
        <ele>1538.8</ele>
        <time>2021-03-27T10:59:01Z</time>
      </trkpt>
      <trkpt lat="45.63872" lon="6.803">
        <ele>1538.4</ele>
        <time>2021-03-27T10:59:02Z</time>
      </trkpt>
      <trkpt lat="45.63873" lon="6.80302">
        <ele>1538.1</ele>
        <time>2021-03-27T10:59:03Z</time>
      </trkpt>
      <trkpt lat="45.63873" lon="6.80303">
        <ele>1537.8</ele>
        <time>2021-03-27T10:59:04Z</time>
      </trkpt>
      <trkpt lat="45.63874" lon="6.80303">
        <ele>1537.7</ele>
        <time>2021-03-27T10:59:05Z</time>
      </trkpt>
      <trkpt lat="45.63874" lon="6.80304">
        <ele>1537.6</ele>
        <time>2021-03-27T10:59:06Z</time>
      </trkpt>
      <trkpt lat="45.63875" lon="6.80304">
        <ele>1537.4</ele>
        <time>2021-03-27T10:59:07Z</time>
      </trkpt>
      <trkpt lat="45.63875" lon="6.80305">
        <ele>1537.3</ele>
        <time>2021-03-27T10:59:08Z</time>
      </trkpt>
      <trkpt lat="45.63876" lon="6.80305">
        <ele>1537.1</ele>
        <time>2021-03-27T10:59:09Z</time>
      </trkpt>
      <trkpt lat="45.63876" lon="6.80306">
        <ele>1536.9</ele>
        <time>2021-03-27T10:59:10Z</time>
      </trkpt>
      <trkpt lat="45.63877" lon="6.80307">
        <ele>1536.6</ele>
        <time>2021-03-27T10:59:11Z</time>
      </trkpt>
      <trkpt lat="45.63877" lon="6.80309">
        <ele>1536.2</ele>
        <time>2021-03-27T10:59:12Z</time>
      </trkpt>
      <trkpt lat="45.63878" lon="6.8031">
        <ele>1535.4</ele>
        <time>2021-03-27T10:59:13Z</time>
      </trkpt>
      <trkpt lat="45.63878" lon="6.80312">
        <ele>1535.4</ele>
        <time>2021-03-27T10:59:14Z</time>
      </trkpt>
      <trkpt lat="45.63878" lon="6.80313">
        <ele>1535.4</ele>
        <time>2021-03-27T10:59:15Z</time>
      </trkpt>
      <trkpt lat="45.63878" lon="6.80315">
        <ele>1535.4</ele>
        <time>2021-03-27T10:59:16Z</time>
      </trkpt>
      <trkpt lat="45.63878" lon="6.80317">
        <ele>1535.4</ele>
        <time>2021-03-27T10:59:17Z</time>
      </trkpt>
      <trkpt lat="45.63879" lon="6.80319">
        <ele>1536.1</ele>
        <time>2021-03-27T10:59:18Z</time>
      </trkpt>
      <trkpt lat="45.63879" lon="6.8032">
        <ele>1536.3</ele>
        <time>2021-03-27T10:59:19Z</time>
      </trkpt>
      <trkpt lat="45.6388" lon="6.80321">
        <ele>1536.4</ele>
        <time>2021-03-27T10:59:20Z</time>
      </trkpt>
      <trkpt lat="45.6388" lon="6.80322">
        <ele>1536.7</ele>
        <time>2021-03-27T10:59:21Z</time>
      </trkpt>
      <trkpt lat="45.6388" lon="6.80323">
        <ele>1536.9</ele>
        <time>2021-03-27T10:59:22Z</time>
      </trkpt>
      <trkpt lat="45.6388" lon="6.80325">
        <ele>1537.1</ele>
        <time>2021-03-27T10:59:23Z</time>
      </trkpt>
      <trkpt lat="45.6388" lon="6.80326">
        <ele>1537.3</ele>
        <time>2021-03-27T10:59:24Z</time>
      </trkpt>
      <trkpt lat="45.6388" lon="6.80327">
        <ele>1537.4</ele>
        <time>2021-03-27T10:59:25Z</time>
      </trkpt>
      <trkpt lat="45.6388" lon="6.80327">
        <ele>1537.6</ele>
        <time>2021-03-27T10:59:26Z</time>
      </trkpt>
      <trkpt lat="45.6388" lon="6.80328">
        <ele>1537.6</ele>
        <time>2021-03-27T10:59:27Z</time>
      </trkpt>
      <trkpt lat="45.6388" lon="6.80327">
        <ele>1537.7</ele>
        <time>2021-03-27T10:59:28Z</time>
      </trkpt>
      <trkpt lat="45.6388" lon="6.80326">
        <ele>1537.9</ele>
        <time>2021-03-27T10:59:29Z</time>
      </trkpt>
      <trkpt lat="45.6388" lon="6.80326">
        <ele>1538</ele>
        <time>2021-03-27T10:59:30Z</time>
      </trkpt>
      <trkpt lat="45.6388" lon="6.80325">
        <ele>1538.1</ele>
        <time>2021-03-27T10:59:31Z</time>
      </trkpt>
      <trkpt lat="45.6388" lon="6.80324">
        <ele>1538.3</ele>
        <time>2021-03-27T10:59:32Z</time>
      </trkpt>
      <trkpt lat="45.6388" lon="6.80323">
        <ele>1538.4</ele>
        <time>2021-03-27T10:59:33Z</time>
      </trkpt>
      <trkpt lat="45.6388" lon="6.80322">
        <ele>1538.5</ele>
        <time>2021-03-27T10:59:34Z</time>
      </trkpt>
      <trkpt lat="45.6388" lon="6.80322">
        <ele>1538.6</ele>
        <time>2021-03-27T10:59:35Z</time>
      </trkpt>
      <trkpt lat="45.6388" lon="6.80321">
        <ele>1538.7</ele>
        <time>2021-03-27T10:59:36Z</time>
      </trkpt>
      <trkpt lat="45.6388" lon="6.8032">
        <ele>1538.9</ele>
        <time>2021-03-27T10:59:37Z</time>
      </trkpt>
      <trkpt lat="45.6388" lon="6.80319">
        <ele>1539</ele>
        <time>2021-03-27T10:59:38Z</time>
      </trkpt>
      <trkpt lat="45.6388" lon="6.80319">
        <ele>1539.1</ele>
        <time>2021-03-27T10:59:49Z</time>
      </trkpt>
      <trkpt lat="45.6388" lon="6.80318">
        <ele>1539.2</ele>
        <time>2021-03-27T10:59:50Z</time>
      </trkpt>
      <trkpt lat="45.6388" lon="6.80317">
        <ele>1539.4</ele>
        <time>2021-03-27T10:59:51Z</time>
      </trkpt>
      <trkpt lat="45.6388" lon="6.80316">
        <ele>1539.6</ele>
        <time>2021-03-27T10:59:52Z</time>
      </trkpt>
      <trkpt lat="45.6388" lon="6.80314">
        <ele>1539.9</ele>
        <time>2021-03-27T10:59:53Z</time>
      </trkpt>
      <trkpt lat="45.63879" lon="6.80313">
        <ele>1540.1</ele>
        <time>2021-03-27T10:59:54Z</time>
      </trkpt>
      <trkpt lat="45.63879" lon="6.80312">
        <ele>1540.2</ele>
        <time>2021-03-27T10:59:55Z</time>
      </trkpt>
      <trkpt lat="45.63879" lon="6.80311">
        <ele>1540.4</ele>
        <time>2021-03-27T10:59:56Z</time>
      </trkpt>
      <trkpt lat="45.63879" lon="6.80309">
        <ele>1540.6</ele>
        <time>2021-03-27T10:59:57Z</time>
      </trkpt>
      <trkpt lat="45.63879" lon="6.80308">
        <ele>1540.8</ele>
        <time>2021-03-27T10:59:58Z</time>
      </trkpt>
      <trkpt lat="45.63879" lon="6.80306">
        <ele>1541.1</ele>
        <time>2021-03-27T10:59:59Z</time>
      </trkpt>
      <trkpt lat="45.63879" lon="6.80305">
        <ele>1541.3</ele>
        <time>2021-03-27T11:00:00Z</time>
      </trkpt>
      <trkpt lat="45.63879" lon="6.80303">
        <ele>1541.6</ele>
        <time>2021-03-27T11:00:01Z</time>
      </trkpt>
      <trkpt lat="45.63879" lon="6.803">
        <ele>1542</ele>
        <time>2021-03-27T11:00:02Z</time>
      </trkpt>
      <trkpt lat="45.63879" lon="6.80299">
        <ele>1542.1</ele>
        <time>2021-03-27T11:00:03Z</time>
      </trkpt>
      <trkpt lat="45.63879" lon="6.80297">
        <ele>1542.3</ele>
        <time>2021-03-27T11:00:04Z</time>
      </trkpt>
      <trkpt lat="45.63879" lon="6.80296">
        <ele>1542.5</ele>
        <time>2021-03-27T11:00:05Z</time>
      </trkpt>
      <trkpt lat="45.63879" lon="6.80295">
        <ele>1542.7</ele>
        <time>2021-03-27T11:00:06Z</time>
      </trkpt>
      <trkpt lat="45.63878" lon="6.80293">
        <ele>1542.9</ele>
        <time>2021-03-27T11:00:07Z</time>
      </trkpt>
      <trkpt lat="45.63877" lon="6.80292">
        <ele>1543.3</ele>
        <time>2021-03-27T11:00:08Z</time>
      </trkpt>
      <trkpt lat="45.63876" lon="6.80291">
        <ele>1543.4</ele>
        <time>2021-03-27T11:00:09Z</time>
      </trkpt>
      <trkpt lat="45.63876" lon="6.8029">
        <ele>1543.6</ele>
        <time>2021-03-27T11:00:10Z</time>
      </trkpt>
      <trkpt lat="45.63875" lon="6.80289">
        <ele>1543.8</ele>
        <time>2021-03-27T11:00:11Z</time>
      </trkpt>
      <trkpt lat="45.63874" lon="6.80288">
        <ele>1544</ele>
        <time>2021-03-27T11:00:12Z</time>
      </trkpt>
      <trkpt lat="45.63873" lon="6.80286">
        <ele>1544.3</ele>
        <time>2021-03-27T11:00:13Z</time>
      </trkpt>
      <trkpt lat="45.63873" lon="6.80285">
        <ele>1544.4</ele>
        <time>2021-03-27T11:00:14Z</time>
      </trkpt>
      <trkpt lat="45.63873" lon="6.80284">
        <ele>1544.6</ele>
        <time>2021-03-27T11:00:15Z</time>
      </trkpt>
      <trkpt lat="45.63872" lon="6.80282">
        <ele>1544.9</ele>
        <time>2021-03-27T11:00:16Z</time>
      </trkpt>
      <trkpt lat="45.63871" lon="6.80279">
        <ele>1545.3</ele>
        <time>2021-03-27T11:00:17Z</time>
      </trkpt>
      <trkpt lat="45.63871" lon="6.80278">
        <ele>1545.5</ele>
        <time>2021-03-27T11:00:18Z</time>
      </trkpt>
      <trkpt lat="45.6387" lon="6.80277">
        <ele>1545.6</ele>
        <time>2021-03-27T11:00:19Z</time>
      </trkpt>
      <trkpt lat="45.63869" lon="6.80274">
        <ele>1546.2</ele>
        <time>2021-03-27T11:00:20Z</time>
      </trkpt>
      <trkpt lat="45.63868" lon="6.80273">
        <ele>1546.4</ele>
        <time>2021-03-27T11:00:21Z</time>
      </trkpt>
      <trkpt lat="45.63868" lon="6.80271">
        <ele>1546.7</ele>
        <time>2021-03-27T11:00:22Z</time>
      </trkpt>
      <trkpt lat="45.63867" lon="6.8027">
        <ele>1546.8</ele>
        <time>2021-03-27T11:00:23Z</time>
      </trkpt>
      <trkpt lat="45.63867" lon="6.80269">
        <ele>1547</ele>
        <time>2021-03-27T11:00:24Z</time>
      </trkpt>
      <trkpt lat="45.63866" lon="6.80268">
        <ele>1547.3</ele>
        <time>2021-03-27T11:00:25Z</time>
      </trkpt>
      <trkpt lat="45.63866" lon="6.80267">
        <ele>1547.4</ele>
        <time>2021-03-27T11:00:26Z</time>
      </trkpt>
      <trkpt lat="45.63866" lon="6.80266">
        <ele>1547.5</ele>
        <time>2021-03-27T11:00:27Z</time>
      </trkpt>
      <trkpt lat="45.63865" lon="6.80265">
        <ele>1547.6</ele>
        <time>2021-03-27T11:00:28Z</time>
      </trkpt>
      <trkpt lat="45.63865" lon="6.80264">
        <ele>1547.8</ele>
        <time>2021-03-27T11:00:29Z</time>
      </trkpt>
      <trkpt lat="45.63865" lon="6.80263">
        <ele>1548</ele>
        <time>2021-03-27T11:00:30Z</time>
      </trkpt>
      <trkpt lat="45.63865" lon="6.80263">
        <ele>1548</ele>
        <time>2021-03-27T11:00:31Z</time>
      </trkpt>
      <trkpt lat="45.63864" lon="6.80263">
        <ele>1548.1</ele>
        <time>2021-03-27T11:00:32Z</time>
      </trkpt>
      <trkpt lat="45.63864" lon="6.80262">
        <ele>1548.2</ele>
        <time>2021-03-27T11:00:33Z</time>
      </trkpt>
      <trkpt lat="45.63864" lon="6.80262">
        <ele>1548.2</ele>
        <time>2021-03-27T11:00:34Z</time>
      </trkpt>
      <trkpt lat="45.63864" lon="6.80261">
        <ele>1548.3</ele>
        <time>2021-03-27T11:00:35Z</time>
      </trkpt>
      <trkpt lat="45.63864" lon="6.80261">
        <ele>1548.4</ele>
        <time>2021-03-27T11:00:36Z</time>
      </trkpt>
      <trkpt lat="45.63863" lon="6.80261">
        <ele>1548.4</ele>
        <time>2021-03-27T11:00:37Z</time>
      </trkpt>
      <trkpt lat="45.63863" lon="6.8026">
        <ele>1548.5</ele>
        <time>2021-03-27T11:00:38Z</time>
      </trkpt>
      <trkpt lat="45.63863" lon="6.8026">
        <ele>1548.6</ele>
        <time>2021-03-27T11:00:39Z</time>
      </trkpt>
      <trkpt lat="45.63863" lon="6.80259">
        <ele>1548.6</ele>
        <time>2021-03-27T11:00:40Z</time>
      </trkpt>
      <trkpt lat="45.63863" lon="6.80259">
        <ele>1548.7</ele>
        <time>2021-03-27T11:01:29Z</time>
      </trkpt>
      <trkpt lat="45.63863" lon="6.80259">
        <ele>1548.8</ele>
        <time>2021-03-27T11:01:30Z</time>
      </trkpt>
      <trkpt lat="45.63862" lon="6.80258">
        <ele>1548.8</ele>
        <time>2021-03-27T11:01:31Z</time>
      </trkpt>
      <trkpt lat="45.63862" lon="6.80258">
        <ele>1548.9</ele>
        <time>2021-03-27T11:01:32Z</time>
      </trkpt>
      <trkpt lat="45.63862" lon="6.80257">
        <ele>1549</ele>
        <time>2021-03-27T11:01:33Z</time>
      </trkpt>
      <trkpt lat="45.63862" lon="6.80256">
        <ele>1549.1</ele>
        <time>2021-03-27T11:01:34Z</time>
      </trkpt>
      <trkpt lat="45.63862" lon="6.80256">
        <ele>1549.2</ele>
        <time>2021-03-27T11:01:35Z</time>
      </trkpt>
      <trkpt lat="45.63862" lon="6.80254">
        <ele>1549.4</ele>
        <time>2021-03-27T11:01:36Z</time>
      </trkpt>
      <trkpt lat="45.63861" lon="6.80253">
        <ele>1549.6</ele>
        <time>2021-03-27T11:01:37Z</time>
      </trkpt>
      <trkpt lat="45.63861" lon="6.80252">
        <ele>1549.8</ele>
        <time>2021-03-27T11:01:38Z</time>
      </trkpt>
      <trkpt lat="45.63861" lon="6.8025">
        <ele>1550</ele>
        <time>2021-03-27T11:01:39Z</time>
      </trkpt>
      <trkpt lat="45.6386" lon="6.80249">
        <ele>1550.1</ele>
        <time>2021-03-27T11:01:40Z</time>
      </trkpt>
      <trkpt lat="45.6386" lon="6.80248">
        <ele>1550.3</ele>
        <time>2021-03-27T11:01:41Z</time>
      </trkpt>
      <trkpt lat="45.6386" lon="6.80247">
        <ele>1550.4</ele>
        <time>2021-03-27T11:01:42Z</time>
      </trkpt>
      <trkpt lat="45.6386" lon="6.80246">
        <ele>1550.6</ele>
        <time>2021-03-27T11:01:43Z</time>
      </trkpt>
      <trkpt lat="45.6386" lon="6.80245">
        <ele>1550.7</ele>
        <time>2021-03-27T11:01:44Z</time>
      </trkpt>
      <trkpt lat="45.6386" lon="6.80244">
        <ele>1550.8</ele>
        <time>2021-03-27T11:01:45Z</time>
      </trkpt>
      <trkpt lat="45.63859" lon="6.80243">
        <ele>1550.9</ele>
        <time>2021-03-27T11:01:46Z</time>
      </trkpt>
      <trkpt lat="45.63859" lon="6.80242">
        <ele>1551.1</ele>
        <time>2021-03-27T11:01:47Z</time>
      </trkpt>
      <trkpt lat="45.63859" lon="6.80241">
        <ele>1551.2</ele>
        <time>2021-03-27T11:01:48Z</time>
      </trkpt>
      <trkpt lat="45.63859" lon="6.8024">
        <ele>1551.3</ele>
        <time>2021-03-27T11:01:49Z</time>
      </trkpt>
      <trkpt lat="45.63859" lon="6.80238">
        <ele>1551.5</ele>
        <time>2021-03-27T11:01:50Z</time>
      </trkpt>
      <trkpt lat="45.63858" lon="6.80237">
        <ele>1551.6</ele>
        <time>2021-03-27T11:01:51Z</time>
      </trkpt>
      <trkpt lat="45.63858" lon="6.80236">
        <ele>1551.8</ele>
        <time>2021-03-27T11:01:52Z</time>
      </trkpt>
      <trkpt lat="45.63858" lon="6.80235">
        <ele>1552</ele>
        <time>2021-03-27T11:01:53Z</time>
      </trkpt>
      <trkpt lat="45.63858" lon="6.80234">
        <ele>1552.1</ele>
        <time>2021-03-27T11:01:54Z</time>
      </trkpt>
      <trkpt lat="45.63857" lon="6.80233">
        <ele>1552.2</ele>
        <time>2021-03-27T11:01:55Z</time>
      </trkpt>
      <trkpt lat="45.63857" lon="6.80232">
        <ele>1552.3</ele>
        <time>2021-03-27T11:01:56Z</time>
      </trkpt>
      <trkpt lat="45.63857" lon="6.80231">
        <ele>1552.4</ele>
        <time>2021-03-27T11:01:57Z</time>
      </trkpt>
      <trkpt lat="45.63857" lon="6.8023">
        <ele>1552.5</ele>
        <time>2021-03-27T11:01:58Z</time>
      </trkpt>
      <trkpt lat="45.63858" lon="6.8023">
        <ele>1552.6</ele>
        <time>2021-03-27T11:01:59Z</time>
      </trkpt>
      <trkpt lat="45.63858" lon="6.80229">
        <ele>1552.7</ele>
        <time>2021-03-27T11:02:00Z</time>
      </trkpt>
      <trkpt lat="45.63858" lon="6.80228">
        <ele>1552.8</ele>
        <time>2021-03-27T11:02:01Z</time>
      </trkpt>
      <trkpt lat="45.63858" lon="6.80227">
        <ele>1552.9</ele>
        <time>2021-03-27T11:02:02Z</time>
      </trkpt>
      <trkpt lat="45.63858" lon="6.80226">
        <ele>1553</ele>
        <time>2021-03-27T11:02:03Z</time>
      </trkpt>
      <trkpt lat="45.63858" lon="6.80225">
        <ele>1553.1</ele>
        <time>2021-03-27T11:02:04Z</time>
      </trkpt>
      <trkpt lat="45.63859" lon="6.80224">
        <ele>1553.3</ele>
        <time>2021-03-27T11:02:05Z</time>
      </trkpt>
      <trkpt lat="45.63859" lon="6.80223">
        <ele>1553.4</ele>
        <time>2021-03-27T11:02:06Z</time>
      </trkpt>
      <trkpt lat="45.6386" lon="6.80222">
        <ele>1553.5</ele>
        <time>2021-03-27T11:02:07Z</time>
      </trkpt>
      <trkpt lat="45.6386" lon="6.80221">
        <ele>1553.7</ele>
        <time>2021-03-27T11:02:08Z</time>
      </trkpt>
      <trkpt lat="45.6386" lon="6.8022">
        <ele>1553.7</ele>
        <time>2021-03-27T11:02:09Z</time>
      </trkpt>
      <trkpt lat="45.6386" lon="6.80219">
        <ele>1553.9</ele>
        <time>2021-03-27T11:02:10Z</time>
      </trkpt>
      <trkpt lat="45.6386" lon="6.80218">
        <ele>1554</ele>
        <time>2021-03-27T11:02:11Z</time>
      </trkpt>
      <trkpt lat="45.6386" lon="6.80217">
        <ele>1554.1</ele>
        <time>2021-03-27T11:02:12Z</time>
      </trkpt>
      <trkpt lat="45.6386" lon="6.80215">
        <ele>1554.4</ele>
        <time>2021-03-27T11:02:13Z</time>
      </trkpt>
      <trkpt lat="45.6386" lon="6.80214">
        <ele>1554.5</ele>
        <time>2021-03-27T11:02:14Z</time>
      </trkpt>
      <trkpt lat="45.6386" lon="6.80212">
        <ele>1554.7</ele>
        <time>2021-03-27T11:02:15Z</time>
      </trkpt>
      <trkpt lat="45.6386" lon="6.80211">
        <ele>1554.8</ele>
        <time>2021-03-27T11:02:16Z</time>
      </trkpt>
      <trkpt lat="45.6386" lon="6.80211">
        <ele>1554.9</ele>
        <time>2021-03-27T11:02:17Z</time>
      </trkpt>
      <trkpt lat="45.63859" lon="6.8021">
        <ele>1555</ele>
        <time>2021-03-27T11:02:18Z</time>
      </trkpt>
      <trkpt lat="45.6386" lon="6.80209">
        <ele>1555.1</ele>
        <time>2021-03-27T11:02:19Z</time>
      </trkpt>
      <trkpt lat="45.63859" lon="6.80208">
        <ele>1555.2</ele>
        <time>2021-03-27T11:02:20Z</time>
      </trkpt>
      <trkpt lat="45.6386" lon="6.80208">
        <ele>1555.3</ele>
        <time>2021-03-27T11:02:21Z</time>
      </trkpt>
      <trkpt lat="45.6386" lon="6.80207">
        <ele>1555.4</ele>
        <time>2021-03-27T11:02:22Z</time>
      </trkpt>
      <trkpt lat="45.6386" lon="6.80206">
        <ele>1555.5</ele>
        <time>2021-03-27T11:02:23Z</time>
      </trkpt>
      <trkpt lat="45.6386" lon="6.80206">
        <ele>1555.6</ele>
        <time>2021-03-27T11:02:24Z</time>
      </trkpt>
      <trkpt lat="45.6386" lon="6.80204">
        <ele>1555.7</ele>
        <time>2021-03-27T11:02:25Z</time>
      </trkpt>
      <trkpt lat="45.6386" lon="6.80203">
        <ele>1555.8</ele>
        <time>2021-03-27T11:02:26Z</time>
      </trkpt>
      <trkpt lat="45.6386" lon="6.80202">
        <ele>1555.9</ele>
        <time>2021-03-27T11:02:27Z</time>
      </trkpt>
      <trkpt lat="45.6386" lon="6.80201">
        <ele>1556.1</ele>
        <time>2021-03-27T11:02:28Z</time>
      </trkpt>
      <trkpt lat="45.6386" lon="6.80201">
        <ele>1556.2</ele>
        <time>2021-03-27T11:02:29Z</time>
      </trkpt>
      <trkpt lat="45.6386" lon="6.802">
        <ele>1556.3</ele>
        <time>2021-03-27T11:02:30Z</time>
      </trkpt>
      <trkpt lat="45.6386" lon="6.80199">
        <ele>1556.4</ele>
        <time>2021-03-27T11:02:31Z</time>
      </trkpt>
      <trkpt lat="45.6386" lon="6.80198">
        <ele>1556.6</ele>
        <time>2021-03-27T11:02:32Z</time>
      </trkpt>
      <trkpt lat="45.63859" lon="6.80197">
        <ele>1556.6</ele>
        <time>2021-03-27T11:02:33Z</time>
      </trkpt>
      <trkpt lat="45.63859" lon="6.80196">
        <ele>1556.8</ele>
        <time>2021-03-27T11:02:34Z</time>
      </trkpt>
      <trkpt lat="45.63859" lon="6.80195">
        <ele>1556.9</ele>
        <time>2021-03-27T11:02:35Z</time>
      </trkpt>
      <trkpt lat="45.63859" lon="6.80194">
        <ele>1557</ele>
        <time>2021-03-27T11:02:36Z</time>
      </trkpt>
      <trkpt lat="45.63859" lon="6.80193">
        <ele>1557.2</ele>
        <time>2021-03-27T11:02:37Z</time>
      </trkpt>
      <trkpt lat="45.63859" lon="6.80193">
        <ele>1557.3</ele>
        <time>2021-03-27T11:02:38Z</time>
      </trkpt>
      <trkpt lat="45.6386" lon="6.80192">
        <ele>1557.4</ele>
        <time>2021-03-27T11:02:39Z</time>
      </trkpt>
      <trkpt lat="45.6386" lon="6.8019">
        <ele>1557.6</ele>
        <time>2021-03-27T11:02:40Z</time>
      </trkpt>
      <trkpt lat="45.63859" lon="6.80189">
        <ele>1557.8</ele>
        <time>2021-03-27T11:02:41Z</time>
      </trkpt>
      <trkpt lat="45.63859" lon="6.80188">
        <ele>1558</ele>
        <time>2021-03-27T11:02:42Z</time>
      </trkpt>
      <trkpt lat="45.63859" lon="6.80187">
        <ele>1558.1</ele>
        <time>2021-03-27T11:02:43Z</time>
      </trkpt>
      <trkpt lat="45.63858" lon="6.80186">
        <ele>1558.3</ele>
        <time>2021-03-27T11:02:44Z</time>
      </trkpt>
      <trkpt lat="45.63858" lon="6.80185">
        <ele>1558.4</ele>
        <time>2021-03-27T11:02:45Z</time>
      </trkpt>
      <trkpt lat="45.63858" lon="6.80184">
        <ele>1558.5</ele>
        <time>2021-03-27T11:02:46Z</time>
      </trkpt>
      <trkpt lat="45.63858" lon="6.80184">
        <ele>1558.6</ele>
        <time>2021-03-27T11:02:47Z</time>
      </trkpt>
      <trkpt lat="45.63858" lon="6.80183">
        <ele>1558.7</ele>
        <time>2021-03-27T11:02:48Z</time>
      </trkpt>
      <trkpt lat="45.63858" lon="6.80182">
        <ele>1558.9</ele>
        <time>2021-03-27T11:02:49Z</time>
      </trkpt>
      <trkpt lat="45.63859" lon="6.80181">
        <ele>1559.1</ele>
        <time>2021-03-27T11:02:50Z</time>
      </trkpt>
      <trkpt lat="45.63858" lon="6.8018">
        <ele>1559.2</ele>
        <time>2021-03-27T11:02:51Z</time>
      </trkpt>
      <trkpt lat="45.63858" lon="6.80179">
        <ele>1559.3</ele>
        <time>2021-03-27T11:02:52Z</time>
      </trkpt>
      <trkpt lat="45.63858" lon="6.80178">
        <ele>1559.6</ele>
        <time>2021-03-27T11:02:53Z</time>
      </trkpt>
      <trkpt lat="45.63858" lon="6.80176">
        <ele>1559.7</ele>
        <time>2021-03-27T11:02:54Z</time>
      </trkpt>
      <trkpt lat="45.63858" lon="6.80176">
        <ele>1559.9</ele>
        <time>2021-03-27T11:02:55Z</time>
      </trkpt>
      <trkpt lat="45.63859" lon="6.80175">
        <ele>1560</ele>
        <time>2021-03-27T11:02:56Z</time>
      </trkpt>
      <trkpt lat="45.6386" lon="6.80174">
        <ele>1560.3</ele>
        <time>2021-03-27T11:02:57Z</time>
      </trkpt>
      <trkpt lat="45.63861" lon="6.80173">
        <ele>1560.4</ele>
        <time>2021-03-27T11:02:58Z</time>
      </trkpt>
      <trkpt lat="45.63861" lon="6.80172">
        <ele>1560.6</ele>
        <time>2021-03-27T11:02:59Z</time>
      </trkpt>
      <trkpt lat="45.63862" lon="6.80172">
        <ele>1560.8</ele>
        <time>2021-03-27T11:03:00Z</time>
      </trkpt>
      <trkpt lat="45.63863" lon="6.80171">
        <ele>1561</ele>
        <time>2021-03-27T11:03:01Z</time>
      </trkpt>
      <trkpt lat="45.63863" lon="6.8017">
        <ele>1561.1</ele>
        <time>2021-03-27T11:03:02Z</time>
      </trkpt>
      <trkpt lat="45.63863" lon="6.8017">
        <ele>1561.2</ele>
        <time>2021-03-27T11:03:03Z</time>
      </trkpt>
      <trkpt lat="45.63863" lon="6.80169">
        <ele>1561.3</ele>
        <time>2021-03-27T11:03:04Z</time>
      </trkpt>
      <trkpt lat="45.63863" lon="6.80168">
        <ele>1561.5</ele>
        <time>2021-03-27T11:03:05Z</time>
      </trkpt>
      <trkpt lat="45.63862" lon="6.80167">
        <ele>1561.6</ele>
        <time>2021-03-27T11:03:06Z</time>
      </trkpt>
      <trkpt lat="45.63862" lon="6.80167">
        <ele>1561.6</ele>
        <time>2021-03-27T11:03:07Z</time>
      </trkpt>
      <trkpt lat="45.63862" lon="6.80166">
        <ele>1561.7</ele>
        <time>2021-03-27T11:03:08Z</time>
      </trkpt>
      <trkpt lat="45.63862" lon="6.80165">
        <ele>1561.8</ele>
        <time>2021-03-27T11:03:09Z</time>
      </trkpt>
      <trkpt lat="45.63862" lon="6.80164">
        <ele>1562</ele>
        <time>2021-03-27T11:03:10Z</time>
      </trkpt>
      <trkpt lat="45.63862" lon="6.80163">
        <ele>1562.1</ele>
        <time>2021-03-27T11:03:11Z</time>
      </trkpt>
      <trkpt lat="45.63862" lon="6.80162">
        <ele>1562.2</ele>
        <time>2021-03-27T11:03:12Z</time>
      </trkpt>
      <trkpt lat="45.63861" lon="6.80162">
        <ele>1562.3</ele>
        <time>2021-03-27T11:03:13Z</time>
      </trkpt>
      <trkpt lat="45.63861" lon="6.80161">
        <ele>1562.4</ele>
        <time>2021-03-27T11:03:14Z</time>
      </trkpt>
      <trkpt lat="45.63861" lon="6.8016">
        <ele>1562.5</ele>
        <time>2021-03-27T11:03:15Z</time>
      </trkpt>
      <trkpt lat="45.63861" lon="6.80159">
        <ele>1562.6</ele>
        <time>2021-03-27T11:03:16Z</time>
      </trkpt>
      <trkpt lat="45.63861" lon="6.80158">
        <ele>1562.8</ele>
        <time>2021-03-27T11:03:17Z</time>
      </trkpt>
      <trkpt lat="45.63861" lon="6.80157">
        <ele>1562.9</ele>
        <time>2021-03-27T11:03:18Z</time>
      </trkpt>
      <trkpt lat="45.63861" lon="6.80156">
        <ele>1563</ele>
        <time>2021-03-27T11:03:19Z</time>
      </trkpt>
      <trkpt lat="45.63862" lon="6.80155">
        <ele>1563.2</ele>
        <time>2021-03-27T11:03:20Z</time>
      </trkpt>
      <trkpt lat="45.63862" lon="6.80154">
        <ele>1563.3</ele>
        <time>2021-03-27T11:03:21Z</time>
      </trkpt>
      <trkpt lat="45.63863" lon="6.80153">
        <ele>1563.5</ele>
        <time>2021-03-27T11:03:22Z</time>
      </trkpt>
      <trkpt lat="45.63863" lon="6.80152">
        <ele>1563.6</ele>
        <time>2021-03-27T11:03:23Z</time>
      </trkpt>
      <trkpt lat="45.63862" lon="6.80151">
        <ele>1563.7</ele>
        <time>2021-03-27T11:03:24Z</time>
      </trkpt>
      <trkpt lat="45.63862" lon="6.8015">
        <ele>1563.8</ele>
        <time>2021-03-27T11:03:25Z</time>
      </trkpt>
      <trkpt lat="45.63862" lon="6.80149">
        <ele>1563.9</ele>
        <time>2021-03-27T11:03:26Z</time>
      </trkpt>
      <trkpt lat="45.63862" lon="6.80148">
        <ele>1564</ele>
        <time>2021-03-27T11:03:27Z</time>
      </trkpt>
      <trkpt lat="45.63861" lon="6.80148">
        <ele>1564.1</ele>
        <time>2021-03-27T11:03:28Z</time>
      </trkpt>
      <trkpt lat="45.63861" lon="6.80146">
        <ele>1564.3</ele>
        <time>2021-03-27T11:03:29Z</time>
      </trkpt>
      <trkpt lat="45.63861" lon="6.80145">
        <ele>1564.4</ele>
        <time>2021-03-27T11:03:30Z</time>
      </trkpt>
      <trkpt lat="45.63861" lon="6.80144">
        <ele>1564.5</ele>
        <time>2021-03-27T11:03:31Z</time>
      </trkpt>
      <trkpt lat="45.63861" lon="6.80143">
        <ele>1564.6</ele>
        <time>2021-03-27T11:03:32Z</time>
      </trkpt>
      <trkpt lat="45.63861" lon="6.80142">
        <ele>1564.8</ele>
        <time>2021-03-27T11:03:33Z</time>
      </trkpt>
      <trkpt lat="45.63861" lon="6.80142">
        <ele>1564.9</ele>
        <time>2021-03-27T11:03:34Z</time>
      </trkpt>
      <trkpt lat="45.63861" lon="6.80141">
        <ele>1564.9</ele>
        <time>2021-03-27T11:03:35Z</time>
      </trkpt>
      <trkpt lat="45.63862" lon="6.80141">
        <ele>1565</ele>
        <time>2021-03-27T11:03:36Z</time>
      </trkpt>
      <trkpt lat="45.63862" lon="6.8014">
        <ele>1565</ele>
        <time>2021-03-27T11:03:37Z</time>
      </trkpt>
      <trkpt lat="45.63862" lon="6.8014">
        <ele>1565.1</ele>
        <time>2021-03-27T11:03:38Z</time>
      </trkpt>
      <trkpt lat="45.63862" lon="6.80139">
        <ele>1565.2</ele>
        <time>2021-03-27T11:03:39Z</time>
      </trkpt>
      <trkpt lat="45.63862" lon="6.80139">
        <ele>1565.2</ele>
        <time>2021-03-27T11:03:40Z</time>
      </trkpt>
      <trkpt lat="45.63862" lon="6.80138">
        <ele>1565.3</ele>
        <time>2021-03-27T11:03:41Z</time>
      </trkpt>
      <trkpt lat="45.63862" lon="6.80138">
        <ele>1565.4</ele>
        <time>2021-03-27T11:03:42Z</time>
      </trkpt>
      <trkpt lat="45.63862" lon="6.80137">
        <ele>1565.4</ele>
        <time>2021-03-27T11:03:43Z</time>
      </trkpt>
      <trkpt lat="45.63863" lon="6.80137">
        <ele>1565.5</ele>
        <time>2021-03-27T11:03:54Z</time>
      </trkpt>
      <trkpt lat="45.63863" lon="6.80136">
        <ele>1565.6</ele>
        <time>2021-03-27T11:03:55Z</time>
      </trkpt>
      <trkpt lat="45.63863" lon="6.80136">
        <ele>1565.6</ele>
        <time>2021-03-27T11:03:56Z</time>
      </trkpt>
      <trkpt lat="45.63863" lon="6.80135">
        <ele>1565.7</ele>
        <time>2021-03-27T11:03:57Z</time>
      </trkpt>
      <trkpt lat="45.63863" lon="6.80134">
        <ele>1565.8</ele>
        <time>2021-03-27T11:03:58Z</time>
      </trkpt>
      <trkpt lat="45.63864" lon="6.80133">
        <ele>1566</ele>
        <time>2021-03-27T11:03:59Z</time>
      </trkpt>
      <trkpt lat="45.63864" lon="6.80132">
        <ele>1566.1</ele>
        <time>2021-03-27T11:04:00Z</time>
      </trkpt>
      <trkpt lat="45.63865" lon="6.80131">
        <ele>1566.2</ele>
        <time>2021-03-27T11:04:01Z</time>
      </trkpt>
      <trkpt lat="45.63865" lon="6.8013">
        <ele>1566.3</ele>
        <time>2021-03-27T11:04:02Z</time>
      </trkpt>
      <trkpt lat="45.63865" lon="6.8013">
        <ele>1566.4</ele>
        <time>2021-03-27T11:04:03Z</time>
      </trkpt>
      <trkpt lat="45.63865" lon="6.80129">
        <ele>1566.5</ele>
        <time>2021-03-27T11:04:04Z</time>
      </trkpt>
      <trkpt lat="45.63866" lon="6.80128">
        <ele>1566.6</ele>
        <time>2021-03-27T11:04:05Z</time>
      </trkpt>
      <trkpt lat="45.63865" lon="6.80127">
        <ele>1566.8</ele>
        <time>2021-03-27T11:04:06Z</time>
      </trkpt>
      <trkpt lat="45.63865" lon="6.80126">
        <ele>1566.9</ele>
        <time>2021-03-27T11:04:07Z</time>
      </trkpt>
      <trkpt lat="45.63864" lon="6.80125">
        <ele>1567</ele>
        <time>2021-03-27T11:04:08Z</time>
      </trkpt>
      <trkpt lat="45.63864" lon="6.80124">
        <ele>1567.1</ele>
        <time>2021-03-27T11:04:09Z</time>
      </trkpt>
      <trkpt lat="45.63864" lon="6.80123">
        <ele>1567.2</ele>
        <time>2021-03-27T11:04:10Z</time>
      </trkpt>
      <trkpt lat="45.63865" lon="6.80122">
        <ele>1567.3</ele>
        <time>2021-03-27T11:04:11Z</time>
      </trkpt>
      <trkpt lat="45.63865" lon="6.80121">
        <ele>1567.5</ele>
        <time>2021-03-27T11:04:12Z</time>
      </trkpt>
      <trkpt lat="45.63865" lon="6.8012">
        <ele>1567.6</ele>
        <time>2021-03-27T11:04:13Z</time>
      </trkpt>
      <trkpt lat="45.63865" lon="6.80119">
        <ele>1567.7</ele>
        <time>2021-03-27T11:04:14Z</time>
      </trkpt>
      <trkpt lat="45.63865" lon="6.80117">
        <ele>1567.9</ele>
        <time>2021-03-27T11:04:15Z</time>
      </trkpt>
      <trkpt lat="45.63865" lon="6.80117">
        <ele>1567.9</ele>
        <time>2021-03-27T11:04:16Z</time>
      </trkpt>
      <trkpt lat="45.63865" lon="6.80116">
        <ele>1568</ele>
        <time>2021-03-27T11:04:17Z</time>
      </trkpt>
      <trkpt lat="45.63865" lon="6.80114">
        <ele>1568.2</ele>
        <time>2021-03-27T11:04:18Z</time>
      </trkpt>
      <trkpt lat="45.63865" lon="6.80113">
        <ele>1568.3</ele>
        <time>2021-03-27T11:04:19Z</time>
      </trkpt>
      <trkpt lat="45.63865" lon="6.80113">
        <ele>1568.4</ele>
        <time>2021-03-27T11:04:20Z</time>
      </trkpt>
      <trkpt lat="45.63865" lon="6.80112">
        <ele>1568.5</ele>
        <time>2021-03-27T11:04:21Z</time>
      </trkpt>
      <trkpt lat="45.63865" lon="6.80111">
        <ele>1568.5</ele>
        <time>2021-03-27T11:04:22Z</time>
      </trkpt>
      <trkpt lat="45.63864" lon="6.8011">
        <ele>1568.7</ele>
        <time>2021-03-27T11:04:23Z</time>
      </trkpt>
      <trkpt lat="45.63864" lon="6.80109">
        <ele>1568.8</ele>
        <time>2021-03-27T11:04:24Z</time>
      </trkpt>
      <trkpt lat="45.63864" lon="6.80108">
        <ele>1568.9</ele>
        <time>2021-03-27T11:04:25Z</time>
      </trkpt>
      <trkpt lat="45.63864" lon="6.80107">
        <ele>1569.1</ele>
        <time>2021-03-27T11:04:26Z</time>
      </trkpt>
      <trkpt lat="45.63863" lon="6.80106">
        <ele>1569.2</ele>
        <time>2021-03-27T11:04:27Z</time>
      </trkpt>
      <trkpt lat="45.63863" lon="6.80105">
        <ele>1569.3</ele>
        <time>2021-03-27T11:04:28Z</time>
      </trkpt>
      <trkpt lat="45.63863" lon="6.80104">
        <ele>1569.5</ele>
        <time>2021-03-27T11:04:29Z</time>
      </trkpt>
      <trkpt lat="45.63863" lon="6.80103">
        <ele>1569.6</ele>
        <time>2021-03-27T11:04:37Z</time>
      </trkpt>
      <trkpt lat="45.63862" lon="6.80101">
        <ele>1569.7</ele>
        <time>2021-03-27T11:04:38Z</time>
      </trkpt>
      <trkpt lat="45.63862" lon="6.801">
        <ele>1569.9</ele>
        <time>2021-03-27T11:04:39Z</time>
      </trkpt>
      <trkpt lat="45.63862" lon="6.80099">
        <ele>1570</ele>
        <time>2021-03-27T11:04:40Z</time>
      </trkpt>
      <trkpt lat="45.63862" lon="6.80098">
        <ele>1570.2</ele>
        <time>2021-03-27T11:04:41Z</time>
      </trkpt>
      <trkpt lat="45.63863" lon="6.80096">
        <ele>1570.4</ele>
        <time>2021-03-27T11:04:42Z</time>
      </trkpt>
      <trkpt lat="45.63863" lon="6.80095">
        <ele>1570.6</ele>
        <time>2021-03-27T11:04:43Z</time>
      </trkpt>
      <trkpt lat="45.63863" lon="6.80094">
        <ele>1570.7</ele>
        <time>2021-03-27T11:04:44Z</time>
      </trkpt>
      <trkpt lat="45.63863" lon="6.80093">
        <ele>1570.9</ele>
        <time>2021-03-27T11:04:45Z</time>
      </trkpt>
      <trkpt lat="45.63863" lon="6.80092">
        <ele>1571</ele>
        <time>2021-03-27T11:04:46Z</time>
      </trkpt>
      <trkpt lat="45.63863" lon="6.80091">
        <ele>1571.2</ele>
        <time>2021-03-27T11:04:47Z</time>
      </trkpt>
      <trkpt lat="45.63863" lon="6.8009">
        <ele>1571.3</ele>
        <time>2021-03-27T11:04:48Z</time>
      </trkpt>
      <trkpt lat="45.63863" lon="6.80089">
        <ele>1571.4</ele>
        <time>2021-03-27T11:04:49Z</time>
      </trkpt>
      <trkpt lat="45.63863" lon="6.80088">
        <ele>1571.5</ele>
        <time>2021-03-27T11:04:50Z</time>
      </trkpt>
      <trkpt lat="45.63863" lon="6.80087">
        <ele>1571.7</ele>
        <time>2021-03-27T11:04:51Z</time>
      </trkpt>
      <trkpt lat="45.63863" lon="6.80085">
        <ele>1571.9</ele>
        <time>2021-03-27T11:04:52Z</time>
      </trkpt>
      <trkpt lat="45.63863" lon="6.80084">
        <ele>1572.1</ele>
        <time>2021-03-27T11:04:53Z</time>
      </trkpt>
      <trkpt lat="45.63863" lon="6.80082">
        <ele>1572.4</ele>
        <time>2021-03-27T11:04:54Z</time>
      </trkpt>
      <trkpt lat="45.63863" lon="6.80081">
        <ele>1572.6</ele>
        <time>2021-03-27T11:04:55Z</time>
      </trkpt>
      <trkpt lat="45.63863" lon="6.80079">
        <ele>1572.8</ele>
        <time>2021-03-27T11:04:56Z</time>
      </trkpt>
      <trkpt lat="45.63863" lon="6.80077">
        <ele>1573.1</ele>
        <time>2021-03-27T11:04:57Z</time>
      </trkpt>
      <trkpt lat="45.63863" lon="6.80076">
        <ele>1573.3</ele>
        <time>2021-03-27T11:04:58Z</time>
      </trkpt>
      <trkpt lat="45.63864" lon="6.80074">
        <ele>1573.5</ele>
        <time>2021-03-27T11:04:59Z</time>
      </trkpt>
      <trkpt lat="45.63864" lon="6.80073">
        <ele>1573.7</ele>
        <time>2021-03-27T11:05:00Z</time>
      </trkpt>
      <trkpt lat="45.63864" lon="6.80071">
        <ele>1573.9</ele>
        <time>2021-03-27T11:05:01Z</time>
      </trkpt>
      <trkpt lat="45.63865" lon="6.8007">
        <ele>1574.1</ele>
        <time>2021-03-27T11:05:02Z</time>
      </trkpt>
      <trkpt lat="45.63865" lon="6.80069">
        <ele>1574.3</ele>
        <time>2021-03-27T11:05:03Z</time>
      </trkpt>
      <trkpt lat="45.63866" lon="6.80067">
        <ele>1574.4</ele>
        <time>2021-03-27T11:05:04Z</time>
      </trkpt>
      <trkpt lat="45.63866" lon="6.80066">
        <ele>1574.6</ele>
        <time>2021-03-27T11:05:05Z</time>
      </trkpt>
      <trkpt lat="45.63867" lon="6.80065">
        <ele>1574.8</ele>
        <time>2021-03-27T11:05:06Z</time>
      </trkpt>
      <trkpt lat="45.63868" lon="6.80064">
        <ele>1574.9</ele>
        <time>2021-03-27T11:05:07Z</time>
      </trkpt>
      <trkpt lat="45.63869" lon="6.80063">
        <ele>1575.1</ele>
        <time>2021-03-27T11:05:08Z</time>
      </trkpt>
      <trkpt lat="45.6387" lon="6.80062">
        <ele>1575.3</ele>
        <time>2021-03-27T11:05:09Z</time>
      </trkpt>
      <trkpt lat="45.6387" lon="6.80062">
        <ele>1575.4</ele>
        <time>2021-03-27T11:05:10Z</time>
      </trkpt>
      <trkpt lat="45.63871" lon="6.80061">
        <ele>1575.5</ele>
        <time>2021-03-27T11:05:11Z</time>
      </trkpt>
      <trkpt lat="45.63871" lon="6.8006">
        <ele>1575.6</ele>
        <time>2021-03-27T11:05:12Z</time>
      </trkpt>
      <trkpt lat="45.63871" lon="6.80058">
        <ele>1575.8</ele>
        <time>2021-03-27T11:05:13Z</time>
      </trkpt>
      <trkpt lat="45.63871" lon="6.80057">
        <ele>1576</ele>
        <time>2021-03-27T11:05:14Z</time>
      </trkpt>
      <trkpt lat="45.6387" lon="6.80056">
        <ele>1576.1</ele>
        <time>2021-03-27T11:05:15Z</time>
      </trkpt>
      <trkpt lat="45.6387" lon="6.80055">
        <ele>1576.2</ele>
        <time>2021-03-27T11:05:16Z</time>
      </trkpt>
      <trkpt lat="45.6387" lon="6.80054">
        <ele>1576.3</ele>
        <time>2021-03-27T11:05:17Z</time>
      </trkpt>
      <trkpt lat="45.6387" lon="6.80053">
        <ele>1576.4</ele>
        <time>2021-03-27T11:05:18Z</time>
      </trkpt>
      <trkpt lat="45.63871" lon="6.80052">
        <ele>1576.5</ele>
        <time>2021-03-27T11:05:19Z</time>
      </trkpt>
      <trkpt lat="45.63871" lon="6.80051">
        <ele>1576.6</ele>
        <time>2021-03-27T11:05:20Z</time>
      </trkpt>
      <trkpt lat="45.63871" lon="6.8005">
        <ele>1576.7</ele>
        <time>2021-03-27T11:05:21Z</time>
      </trkpt>
      <trkpt lat="45.63871" lon="6.80049">
        <ele>1576.8</ele>
        <time>2021-03-27T11:05:22Z</time>
      </trkpt>
      <trkpt lat="45.63872" lon="6.80048">
        <ele>1576.9</ele>
        <time>2021-03-27T11:05:23Z</time>
      </trkpt>
      <trkpt lat="45.63872" lon="6.80047">
        <ele>1577</ele>
        <time>2021-03-27T11:05:24Z</time>
      </trkpt>
      <trkpt lat="45.63872" lon="6.80046">
        <ele>1577.2</ele>
        <time>2021-03-27T11:05:25Z</time>
      </trkpt>
      <trkpt lat="45.63872" lon="6.80045">
        <ele>1577.3</ele>
        <time>2021-03-27T11:05:26Z</time>
      </trkpt>
      <trkpt lat="45.63873" lon="6.80044">
        <ele>1577.4</ele>
        <time>2021-03-27T11:05:27Z</time>
      </trkpt>
      <trkpt lat="45.63873" lon="6.80043">
        <ele>1577.5</ele>
        <time>2021-03-27T11:05:28Z</time>
      </trkpt>
      <trkpt lat="45.63873" lon="6.80042">
        <ele>1577.6</ele>
        <time>2021-03-27T11:05:29Z</time>
      </trkpt>
      <trkpt lat="45.63874" lon="6.8004">
        <ele>1577.8</ele>
        <time>2021-03-27T11:05:30Z</time>
      </trkpt>
      <trkpt lat="45.63874" lon="6.80039">
        <ele>1578</ele>
        <time>2021-03-27T11:05:31Z</time>
      </trkpt>
      <trkpt lat="45.63874" lon="6.80037">
        <ele>1578.1</ele>
        <time>2021-03-27T11:05:32Z</time>
      </trkpt>
      <trkpt lat="45.63874" lon="6.80036">
        <ele>1578.3</ele>
        <time>2021-03-27T11:05:33Z</time>
      </trkpt>
      <trkpt lat="45.63875" lon="6.80034">
        <ele>1578.4</ele>
        <time>2021-03-27T11:05:34Z</time>
      </trkpt>
      <trkpt lat="45.63875" lon="6.80033">
        <ele>1578.6</ele>
        <time>2021-03-27T11:05:35Z</time>
      </trkpt>
      <trkpt lat="45.63875" lon="6.80031">
        <ele>1578.7</ele>
        <time>2021-03-27T11:05:36Z</time>
      </trkpt>
      <trkpt lat="45.63875" lon="6.8003">
        <ele>1578.9</ele>
        <time>2021-03-27T11:05:37Z</time>
      </trkpt>
      <trkpt lat="45.63876" lon="6.80029">
        <ele>1579</ele>
        <time>2021-03-27T11:05:38Z</time>
      </trkpt>
      <trkpt lat="45.63876" lon="6.80027">
        <ele>1579.2</ele>
        <time>2021-03-27T11:05:39Z</time>
      </trkpt>
      <trkpt lat="45.63876" lon="6.80026">
        <ele>1579.3</ele>
        <time>2021-03-27T11:05:40Z</time>
      </trkpt>
      <trkpt lat="45.63877" lon="6.80025">
        <ele>1579.4</ele>
        <time>2021-03-27T11:05:41Z</time>
      </trkpt>
      <trkpt lat="45.63877" lon="6.80024">
        <ele>1579.6</ele>
        <time>2021-03-27T11:05:42Z</time>
      </trkpt>
      <trkpt lat="45.63877" lon="6.80022">
        <ele>1579.7</ele>
        <time>2021-03-27T11:05:43Z</time>
      </trkpt>
      <trkpt lat="45.63877" lon="6.80021">
        <ele>1579.9</ele>
        <time>2021-03-27T11:05:44Z</time>
      </trkpt>
      <trkpt lat="45.63877" lon="6.80019">
        <ele>1580</ele>
        <time>2021-03-27T11:05:45Z</time>
      </trkpt>
      <trkpt lat="45.63877" lon="6.80018">
        <ele>1580.1</ele>
        <time>2021-03-27T11:05:46Z</time>
      </trkpt>
      <trkpt lat="45.63877" lon="6.80017">
        <ele>1580.2</ele>
        <time>2021-03-27T11:05:47Z</time>
      </trkpt>
      <trkpt lat="45.63877" lon="6.80016">
        <ele>1580.3</ele>
        <time>2021-03-27T11:05:48Z</time>
      </trkpt>
      <trkpt lat="45.63877" lon="6.80015">
        <ele>1580.4</ele>
        <time>2021-03-27T11:05:49Z</time>
      </trkpt>
      <trkpt lat="45.63877" lon="6.80014">
        <ele>1580.5</ele>
        <time>2021-03-27T11:05:50Z</time>
      </trkpt>
      <trkpt lat="45.63877" lon="6.80014">
        <ele>1580.6</ele>
        <time>2021-03-27T11:05:51Z</time>
      </trkpt>
      <trkpt lat="45.63877" lon="6.80013">
        <ele>1580.7</ele>
        <time>2021-03-27T11:05:52Z</time>
      </trkpt>
      <trkpt lat="45.63878" lon="6.80012">
        <ele>1580.8</ele>
        <time>2021-03-27T11:05:53Z</time>
      </trkpt>
      <trkpt lat="45.63878" lon="6.80011">
        <ele>1580.8</ele>
        <time>2021-03-27T11:05:54Z</time>
      </trkpt>
      <trkpt lat="45.63878" lon="6.8001">
        <ele>1580.9</ele>
        <time>2021-03-27T11:05:55Z</time>
      </trkpt>
      <trkpt lat="45.63878" lon="6.80009">
        <ele>1581</ele>
        <time>2021-03-27T11:05:56Z</time>
      </trkpt>
      <trkpt lat="45.63878" lon="6.80009">
        <ele>1581.1</ele>
        <time>2021-03-27T11:05:57Z</time>
      </trkpt>
      <trkpt lat="45.63878" lon="6.80008">
        <ele>1581.2</ele>
        <time>2021-03-27T11:05:58Z</time>
      </trkpt>
      <trkpt lat="45.63878" lon="6.80007">
        <ele>1581.3</ele>
        <time>2021-03-27T11:05:59Z</time>
      </trkpt>
      <trkpt lat="45.63878" lon="6.80006">
        <ele>1581.4</ele>
        <time>2021-03-27T11:06:00Z</time>
      </trkpt>
      <trkpt lat="45.63878" lon="6.80004">
        <ele>1581.5</ele>
        <time>2021-03-27T11:06:01Z</time>
      </trkpt>
      <trkpt lat="45.63878" lon="6.80003">
        <ele>1581.7</ele>
        <time>2021-03-27T11:06:02Z</time>
      </trkpt>
      <trkpt lat="45.63878" lon="6.80002">
        <ele>1581.8</ele>
        <time>2021-03-27T11:06:03Z</time>
      </trkpt>
      <trkpt lat="45.63878" lon="6.8">
        <ele>1582</ele>
        <time>2021-03-27T11:06:04Z</time>
      </trkpt>
      <trkpt lat="45.63878" lon="6.79999">
        <ele>1582.1</ele>
        <time>2021-03-27T11:06:05Z</time>
      </trkpt>
      <trkpt lat="45.63879" lon="6.79997">
        <ele>1582.3</ele>
        <time>2021-03-27T11:06:06Z</time>
      </trkpt>
      <trkpt lat="45.63879" lon="6.79996">
        <ele>1582.4</ele>
        <time>2021-03-27T11:06:07Z</time>
      </trkpt>
      <trkpt lat="45.63879" lon="6.79995">
        <ele>1582.6</ele>
        <time>2021-03-27T11:06:08Z</time>
      </trkpt>
      <trkpt lat="45.63879" lon="6.79994">
        <ele>1582.7</ele>
        <time>2021-03-27T11:06:09Z</time>
      </trkpt>
      <trkpt lat="45.63879" lon="6.79994">
        <ele>1582.7</ele>
        <time>2021-03-27T11:06:10Z</time>
      </trkpt>
      <trkpt lat="45.63879" lon="6.79993">
        <ele>1582.9</ele>
        <time>2021-03-27T11:06:11Z</time>
      </trkpt>
      <trkpt lat="45.63879" lon="6.79991">
        <ele>1583</ele>
        <time>2021-03-27T11:06:12Z</time>
      </trkpt>
      <trkpt lat="45.6388" lon="6.7999">
        <ele>1583.2</ele>
        <time>2021-03-27T11:06:13Z</time>
      </trkpt>
      <trkpt lat="45.6388" lon="6.79989">
        <ele>1583.3</ele>
        <time>2021-03-27T11:06:14Z</time>
      </trkpt>
      <trkpt lat="45.6388" lon="6.79988">
        <ele>1583.5</ele>
        <time>2021-03-27T11:06:15Z</time>
      </trkpt>
      <trkpt lat="45.63879" lon="6.79986">
        <ele>1583.7</ele>
        <time>2021-03-27T11:06:16Z</time>
      </trkpt>
      <trkpt lat="45.63879" lon="6.79986">
        <ele>1583.8</ele>
        <time>2021-03-27T11:06:17Z</time>
      </trkpt>
      <trkpt lat="45.63878" lon="6.79985">
        <ele>1583.9</ele>
        <time>2021-03-27T11:06:18Z</time>
      </trkpt>
      <trkpt lat="45.63879" lon="6.79984">
        <ele>1584.1</ele>
        <time>2021-03-27T11:06:19Z</time>
      </trkpt>
      <trkpt lat="45.63879" lon="6.79983">
        <ele>1584.3</ele>
        <time>2021-03-27T11:06:20Z</time>
      </trkpt>
      <trkpt lat="45.63879" lon="6.79981">
        <ele>1584.4</ele>
        <time>2021-03-27T11:06:21Z</time>
      </trkpt>
      <trkpt lat="45.63879" lon="6.7998">
        <ele>1584.6</ele>
        <time>2021-03-27T11:06:22Z</time>
      </trkpt>
      <trkpt lat="45.63879" lon="6.79979">
        <ele>1584.8</ele>
        <time>2021-03-27T11:06:23Z</time>
      </trkpt>
      <trkpt lat="45.63879" lon="6.79978">
        <ele>1584.9</ele>
        <time>2021-03-27T11:06:24Z</time>
      </trkpt>
      <trkpt lat="45.63879" lon="6.79977">
        <ele>1585.1</ele>
        <time>2021-03-27T11:06:25Z</time>
      </trkpt>
      <trkpt lat="45.63879" lon="6.79975">
        <ele>1585.3</ele>
        <time>2021-03-27T11:06:26Z</time>
      </trkpt>
      <trkpt lat="45.6388" lon="6.79973">
        <ele>1585.6</ele>
        <time>2021-03-27T11:06:27Z</time>
      </trkpt>
      <trkpt lat="45.6388" lon="6.79972">
        <ele>1585.8</ele>
        <time>2021-03-27T11:06:28Z</time>
      </trkpt>
      <trkpt lat="45.63881" lon="6.79971">
        <ele>1586</ele>
        <time>2021-03-27T11:06:29Z</time>
      </trkpt>
      <trkpt lat="45.63881" lon="6.79969">
        <ele>1586.2</ele>
        <time>2021-03-27T11:06:30Z</time>
      </trkpt>
      <trkpt lat="45.63882" lon="6.79968">
        <ele>1586.5</ele>
        <time>2021-03-27T11:06:31Z</time>
      </trkpt>
      <trkpt lat="45.63883" lon="6.79967">
        <ele>1586.7</ele>
        <time>2021-03-27T11:06:32Z</time>
      </trkpt>
      <trkpt lat="45.63883" lon="6.79966">
        <ele>1586.8</ele>
        <time>2021-03-27T11:06:33Z</time>
      </trkpt>
      <trkpt lat="45.63882" lon="6.79965">
        <ele>1587.1</ele>
        <time>2021-03-27T11:06:34Z</time>
      </trkpt>
      <trkpt lat="45.63882" lon="6.79964">
        <ele>1587.2</ele>
        <time>2021-03-27T11:06:35Z</time>
      </trkpt>
      <trkpt lat="45.63882" lon="6.79963">
        <ele>1587.4</ele>
        <time>2021-03-27T11:06:36Z</time>
      </trkpt>
      <trkpt lat="45.63881" lon="6.79962">
        <ele>1587.6</ele>
        <time>2021-03-27T11:06:37Z</time>
      </trkpt>
      <trkpt lat="45.63881" lon="6.7996">
        <ele>1587.8</ele>
        <time>2021-03-27T11:06:38Z</time>
      </trkpt>
      <trkpt lat="45.63881" lon="6.79959">
        <ele>1587.9</ele>
        <time>2021-03-27T11:06:39Z</time>
      </trkpt>
      <trkpt lat="45.63881" lon="6.79959">
        <ele>1588</ele>
        <time>2021-03-27T11:06:40Z</time>
      </trkpt>
      <trkpt lat="45.63881" lon="6.79958">
        <ele>1588.1</ele>
        <time>2021-03-27T11:06:41Z</time>
      </trkpt>
      <trkpt lat="45.63881" lon="6.79957">
        <ele>1588.3</ele>
        <time>2021-03-27T11:06:42Z</time>
      </trkpt>
      <trkpt lat="45.63881" lon="6.79956">
        <ele>1588.4</ele>
        <time>2021-03-27T11:06:43Z</time>
      </trkpt>
      <trkpt lat="45.63882" lon="6.79955">
        <ele>1588.6</ele>
        <time>2021-03-27T11:06:44Z</time>
      </trkpt>
      <trkpt lat="45.63882" lon="6.79953">
        <ele>1588.8</ele>
        <time>2021-03-27T11:06:45Z</time>
      </trkpt>
      <trkpt lat="45.63883" lon="6.79952">
        <ele>1589</ele>
        <time>2021-03-27T11:06:46Z</time>
      </trkpt>
      <trkpt lat="45.63883" lon="6.79951">
        <ele>1589.1</ele>
        <time>2021-03-27T11:06:47Z</time>
      </trkpt>
      <trkpt lat="45.63883" lon="6.7995">
        <ele>1589.3</ele>
        <time>2021-03-27T11:06:48Z</time>
      </trkpt>
      <trkpt lat="45.63883" lon="6.79949">
        <ele>1589.5</ele>
        <time>2021-03-27T11:06:49Z</time>
      </trkpt>
      <trkpt lat="45.63883" lon="6.79948">
        <ele>1589.6</ele>
        <time>2021-03-27T11:06:50Z</time>
      </trkpt>
      <trkpt lat="45.63883" lon="6.79947">
        <ele>1589.8</ele>
        <time>2021-03-27T11:06:51Z</time>
      </trkpt>
      <trkpt lat="45.63883" lon="6.79946">
        <ele>1590</ele>
        <time>2021-03-27T11:06:52Z</time>
      </trkpt>
      <trkpt lat="45.63883" lon="6.79945">
        <ele>1590.1</ele>
        <time>2021-03-27T11:06:53Z</time>
      </trkpt>
      <trkpt lat="45.63883" lon="6.79944">
        <ele>1590.3</ele>
        <time>2021-03-27T11:06:54Z</time>
      </trkpt>
      <trkpt lat="45.63883" lon="6.79942">
        <ele>1590.5</ele>
        <time>2021-03-27T11:06:55Z</time>
      </trkpt>
      <trkpt lat="45.63883" lon="6.79941">
        <ele>1590.7</ele>
        <time>2021-03-27T11:06:56Z</time>
      </trkpt>
      <trkpt lat="45.63883" lon="6.7994">
        <ele>1590.9</ele>
        <time>2021-03-27T11:06:57Z</time>
      </trkpt>
      <trkpt lat="45.63882" lon="6.79939">
        <ele>1591.1</ele>
        <time>2021-03-27T11:06:58Z</time>
      </trkpt>
      <trkpt lat="45.63882" lon="6.79938">
        <ele>1591.3</ele>
        <time>2021-03-27T11:06:59Z</time>
      </trkpt>
      <trkpt lat="45.63882" lon="6.79937">
        <ele>1591.4</ele>
        <time>2021-03-27T11:07:00Z</time>
      </trkpt>
      <trkpt lat="45.63882" lon="6.79936">
        <ele>1591.6</ele>
        <time>2021-03-27T11:07:01Z</time>
      </trkpt>
      <trkpt lat="45.63881" lon="6.79935">
        <ele>1591.8</ele>
        <time>2021-03-27T11:07:02Z</time>
      </trkpt>
      <trkpt lat="45.63881" lon="6.79934">
        <ele>1591.9</ele>
        <time>2021-03-27T11:07:03Z</time>
      </trkpt>
      <trkpt lat="45.63881" lon="6.79933">
        <ele>1592.1</ele>
        <time>2021-03-27T11:07:04Z</time>
      </trkpt>
      <trkpt lat="45.6388" lon="6.79932">
        <ele>1592.2</ele>
        <time>2021-03-27T11:07:05Z</time>
      </trkpt>
      <trkpt lat="45.6388" lon="6.79931">
        <ele>1592.4</ele>
        <time>2021-03-27T11:07:06Z</time>
      </trkpt>
      <trkpt lat="45.63879" lon="6.7993">
        <ele>1592.5</ele>
        <time>2021-03-27T11:07:07Z</time>
      </trkpt>
      <trkpt lat="45.63879" lon="6.79929">
        <ele>1592.7</ele>
        <time>2021-03-27T11:07:08Z</time>
      </trkpt>
      <trkpt lat="45.63878" lon="6.79929">
        <ele>1592.9</ele>
        <time>2021-03-27T11:07:09Z</time>
      </trkpt>
      <trkpt lat="45.63877" lon="6.79928">
        <ele>1593.1</ele>
        <time>2021-03-27T11:07:10Z</time>
      </trkpt>
      <trkpt lat="45.63877" lon="6.79927">
        <ele>1593.2</ele>
        <time>2021-03-27T11:07:11Z</time>
      </trkpt>
      <trkpt lat="45.63876" lon="6.79927">
        <ele>1593.4</ele>
        <time>2021-03-27T11:07:12Z</time>
      </trkpt>
      <trkpt lat="45.63876" lon="6.79926">
        <ele>1593.5</ele>
        <time>2021-03-27T11:07:13Z</time>
      </trkpt>
      <trkpt lat="45.63876" lon="6.79926">
        <ele>1593.5</ele>
        <time>2021-03-27T11:07:14Z</time>
      </trkpt>
      <trkpt lat="45.63876" lon="6.79925">
        <ele>1593.6</ele>
        <time>2021-03-27T11:07:15Z</time>
      </trkpt>
      <trkpt lat="45.63876" lon="6.79925">
        <ele>1593.7</ele>
        <time>2021-03-27T11:07:16Z</time>
      </trkpt>
      <trkpt lat="45.63877" lon="6.79924">
        <ele>1593.8</ele>
        <time>2021-03-27T11:07:17Z</time>
      </trkpt>
      <trkpt lat="45.63876" lon="6.79922">
        <ele>1594</ele>
        <time>2021-03-27T11:07:18Z</time>
      </trkpt>
      <trkpt lat="45.63876" lon="6.79921">
        <ele>1594.2</ele>
        <time>2021-03-27T11:07:19Z</time>
      </trkpt>
      <trkpt lat="45.63876" lon="6.7992">
        <ele>1594.4</ele>
        <time>2021-03-27T11:07:20Z</time>
      </trkpt>
      <trkpt lat="45.63876" lon="6.79919">
        <ele>1594.5</ele>
        <time>2021-03-27T11:07:21Z</time>
      </trkpt>
      <trkpt lat="45.63876" lon="6.79918">
        <ele>1594.7</ele>
        <time>2021-03-27T11:07:22Z</time>
      </trkpt>
      <trkpt lat="45.63875" lon="6.79916">
        <ele>1594.9</ele>
        <time>2021-03-27T11:07:23Z</time>
      </trkpt>
      <trkpt lat="45.63875" lon="6.79915">
        <ele>1595</ele>
        <time>2021-03-27T11:07:24Z</time>
      </trkpt>
      <trkpt lat="45.63874" lon="6.79914">
        <ele>1595.2</ele>
        <time>2021-03-27T11:07:25Z</time>
      </trkpt>
      <trkpt lat="45.63874" lon="6.79914">
        <ele>1595.3</ele>
        <time>2021-03-27T11:07:26Z</time>
      </trkpt>
      <trkpt lat="45.63873" lon="6.79913">
        <ele>1595.5</ele>
        <time>2021-03-27T11:07:27Z</time>
      </trkpt>
      <trkpt lat="45.63874" lon="6.79912">
        <ele>1595.6</ele>
        <time>2021-03-27T11:07:28Z</time>
      </trkpt>
      <trkpt lat="45.63874" lon="6.79911">
        <ele>1595.7</ele>
        <time>2021-03-27T11:07:29Z</time>
      </trkpt>
      <trkpt lat="45.63874" lon="6.7991">
        <ele>1595.8</ele>
        <time>2021-03-27T11:07:30Z</time>
      </trkpt>
      <trkpt lat="45.63874" lon="6.79909">
        <ele>1595.9</ele>
        <time>2021-03-27T11:07:31Z</time>
      </trkpt>
      <trkpt lat="45.63875" lon="6.79908">
        <ele>1596.1</ele>
        <time>2021-03-27T11:07:32Z</time>
      </trkpt>
      <trkpt lat="45.63875" lon="6.79907">
        <ele>1596.2</ele>
        <time>2021-03-27T11:07:33Z</time>
      </trkpt>
      <trkpt lat="45.63875" lon="6.79906">
        <ele>1596.3</ele>
        <time>2021-03-27T11:07:34Z</time>
      </trkpt>
      <trkpt lat="45.63876" lon="6.79905">
        <ele>1596.5</ele>
        <time>2021-03-27T11:07:35Z</time>
      </trkpt>
      <trkpt lat="45.63877" lon="6.79904">
        <ele>1596.8</ele>
        <time>2021-03-27T11:07:36Z</time>
      </trkpt>
      <trkpt lat="45.63878" lon="6.79903">
        <ele>1597</ele>
        <time>2021-03-27T11:07:37Z</time>
      </trkpt>
      <trkpt lat="45.63878" lon="6.79901">
        <ele>1597.2</ele>
        <time>2021-03-27T11:07:38Z</time>
      </trkpt>
      <trkpt lat="45.63879" lon="6.799">
        <ele>1597.4</ele>
        <time>2021-03-27T11:07:39Z</time>
      </trkpt>
      <trkpt lat="45.63879" lon="6.79899">
        <ele>1597.5</ele>
        <time>2021-03-27T11:07:40Z</time>
      </trkpt>
      <trkpt lat="45.63879" lon="6.79898">
        <ele>1597.7</ele>
        <time>2021-03-27T11:07:41Z</time>
      </trkpt>
      <trkpt lat="45.6388" lon="6.79897">
        <ele>1597.8</ele>
        <time>2021-03-27T11:07:42Z</time>
      </trkpt>
      <trkpt lat="45.6388" lon="6.79896">
        <ele>1598</ele>
        <time>2021-03-27T11:07:43Z</time>
      </trkpt>
      <trkpt lat="45.6388" lon="6.79895">
        <ele>1598.1</ele>
        <time>2021-03-27T11:07:44Z</time>
      </trkpt>
      <trkpt lat="45.63879" lon="6.79894">
        <ele>1598.2</ele>
        <time>2021-03-27T11:07:45Z</time>
      </trkpt>
      <trkpt lat="45.63879" lon="6.79893">
        <ele>1598.4</ele>
        <time>2021-03-27T11:07:46Z</time>
      </trkpt>
      <trkpt lat="45.6388" lon="6.79893">
        <ele>1598.5</ele>
        <time>2021-03-27T11:07:47Z</time>
      </trkpt>
      <trkpt lat="45.6388" lon="6.79892">
        <ele>1598.6</ele>
        <time>2021-03-27T11:07:48Z</time>
      </trkpt>
      <trkpt lat="45.6388" lon="6.79891">
        <ele>1598.7</ele>
        <time>2021-03-27T11:07:49Z</time>
      </trkpt>
      <trkpt lat="45.6388" lon="6.7989">
        <ele>1598.9</ele>
        <time>2021-03-27T11:07:50Z</time>
      </trkpt>
      <trkpt lat="45.6388" lon="6.79889">
        <ele>1599</ele>
        <time>2021-03-27T11:07:51Z</time>
      </trkpt>
      <trkpt lat="45.6388" lon="6.79888">
        <ele>1599.2</ele>
        <time>2021-03-27T11:07:52Z</time>
      </trkpt>
      <trkpt lat="45.63881" lon="6.79887">
        <ele>1599.3</ele>
        <time>2021-03-27T11:07:53Z</time>
      </trkpt>
      <trkpt lat="45.63881" lon="6.79886">
        <ele>1599.5</ele>
        <time>2021-03-27T11:07:54Z</time>
      </trkpt>
      <trkpt lat="45.63881" lon="6.79885">
        <ele>1599.6</ele>
        <time>2021-03-27T11:07:55Z</time>
      </trkpt>
      <trkpt lat="45.63881" lon="6.79885">
        <ele>1599.8</ele>
        <time>2021-03-27T11:07:56Z</time>
      </trkpt>
      <trkpt lat="45.63881" lon="6.79884">
        <ele>1599.9</ele>
        <time>2021-03-27T11:07:57Z</time>
      </trkpt>
      <trkpt lat="45.63881" lon="6.79882">
        <ele>1600.1</ele>
        <time>2021-03-27T11:07:58Z</time>
      </trkpt>
      <trkpt lat="45.63881" lon="6.79881">
        <ele>1600.2</ele>
        <time>2021-03-27T11:07:59Z</time>
      </trkpt>
      <trkpt lat="45.63881" lon="6.7988">
        <ele>1600.4</ele>
        <time>2021-03-27T11:08:00Z</time>
      </trkpt>
      <trkpt lat="45.63881" lon="6.79879">
        <ele>1600.6</ele>
        <time>2021-03-27T11:08:01Z</time>
      </trkpt>
      <trkpt lat="45.63881" lon="6.79878">
        <ele>1600.7</ele>
        <time>2021-03-27T11:08:02Z</time>
      </trkpt>
      <trkpt lat="45.63882" lon="6.79877">
        <ele>1600.9</ele>
        <time>2021-03-27T11:08:03Z</time>
      </trkpt>
      <trkpt lat="45.63882" lon="6.79876">
        <ele>1601.1</ele>
        <time>2021-03-27T11:08:04Z</time>
      </trkpt>
      <trkpt lat="45.63882" lon="6.79875">
        <ele>1601.3</ele>
        <time>2021-03-27T11:08:05Z</time>
      </trkpt>
      <trkpt lat="45.63882" lon="6.79874">
        <ele>1601.4</ele>
        <time>2021-03-27T11:08:06Z</time>
      </trkpt>
      <trkpt lat="45.63883" lon="6.79873">
        <ele>1601.6</ele>
        <time>2021-03-27T11:08:07Z</time>
      </trkpt>
      <trkpt lat="45.63883" lon="6.79872">
        <ele>1601.8</ele>
        <time>2021-03-27T11:08:08Z</time>
      </trkpt>
      <trkpt lat="45.63882" lon="6.79871">
        <ele>1601.9</ele>
        <time>2021-03-27T11:08:09Z</time>
      </trkpt>
      <trkpt lat="45.63882" lon="6.7987">
        <ele>1601.9</ele>
        <time>2021-03-27T11:08:10Z</time>
      </trkpt>
      <trkpt lat="45.63882" lon="6.79869">
        <ele>1602.1</ele>
        <time>2021-03-27T11:08:11Z</time>
      </trkpt>
      <trkpt lat="45.63882" lon="6.79869">
        <ele>1602.2</ele>
        <time>2021-03-27T11:08:12Z</time>
      </trkpt>
      <trkpt lat="45.63882" lon="6.79868">
        <ele>1602.3</ele>
        <time>2021-03-27T11:08:13Z</time>
      </trkpt>
      <trkpt lat="45.63883" lon="6.79867">
        <ele>1602.4</ele>
        <time>2021-03-27T11:08:14Z</time>
      </trkpt>
      <trkpt lat="45.63883" lon="6.79866">
        <ele>1602.6</ele>
        <time>2021-03-27T11:08:15Z</time>
      </trkpt>
      <trkpt lat="45.63884" lon="6.79865">
        <ele>1602.8</ele>
        <time>2021-03-27T11:08:16Z</time>
      </trkpt>
      <trkpt lat="45.63884" lon="6.79863">
        <ele>1603</ele>
        <time>2021-03-27T11:08:17Z</time>
      </trkpt>
      <trkpt lat="45.63884" lon="6.79862">
        <ele>1603.1</ele>
        <time>2021-03-27T11:08:18Z</time>
      </trkpt>
      <trkpt lat="45.63884" lon="6.79861">
        <ele>1603.3</ele>
        <time>2021-03-27T11:08:19Z</time>
      </trkpt>
      <trkpt lat="45.63884" lon="6.7986">
        <ele>1603.4</ele>
        <time>2021-03-27T11:08:20Z</time>
      </trkpt>
      <trkpt lat="45.63884" lon="6.79859">
        <ele>1603.5</ele>
        <time>2021-03-27T11:08:21Z</time>
      </trkpt>
      <trkpt lat="45.63884" lon="6.79858">
        <ele>1603.7</ele>
        <time>2021-03-27T11:08:22Z</time>
      </trkpt>
      <trkpt lat="45.63884" lon="6.79857">
        <ele>1603.8</ele>
        <time>2021-03-27T11:08:23Z</time>
      </trkpt>
      <trkpt lat="45.63884" lon="6.79857">
        <ele>1603.9</ele>
        <time>2021-03-27T11:08:24Z</time>
      </trkpt>
      <trkpt lat="45.63884" lon="6.79856">
        <ele>1604</ele>
        <time>2021-03-27T11:08:25Z</time>
      </trkpt>
      <trkpt lat="45.63885" lon="6.79855">
        <ele>1604.2</ele>
        <time>2021-03-27T11:08:26Z</time>
      </trkpt>
      <trkpt lat="45.63885" lon="6.79855">
        <ele>1604.3</ele>
        <time>2021-03-27T11:08:27Z</time>
      </trkpt>
      <trkpt lat="45.63886" lon="6.79854">
        <ele>1604.5</ele>
        <time>2021-03-27T11:08:28Z</time>
      </trkpt>
      <trkpt lat="45.63885" lon="6.79853">
        <ele>1604.6</ele>
        <time>2021-03-27T11:08:29Z</time>
      </trkpt>
      <trkpt lat="45.63885" lon="6.79852">
        <ele>1604.7</ele>
        <time>2021-03-27T11:08:30Z</time>
      </trkpt>
      <trkpt lat="45.63885" lon="6.79852">
        <ele>1604.8</ele>
        <time>2021-03-27T11:08:31Z</time>
      </trkpt>
      <trkpt lat="45.63885" lon="6.79851">
        <ele>1604.9</ele>
        <time>2021-03-27T11:08:32Z</time>
      </trkpt>
      <trkpt lat="45.63885" lon="6.7985">
        <ele>1605</ele>
        <time>2021-03-27T11:08:33Z</time>
      </trkpt>
      <trkpt lat="45.63885" lon="6.79849">
        <ele>1605.1</ele>
        <time>2021-03-27T11:08:34Z</time>
      </trkpt>
      <trkpt lat="45.63884" lon="6.79848">
        <ele>1605.2</ele>
        <time>2021-03-27T11:08:35Z</time>
      </trkpt>
      <trkpt lat="45.63885" lon="6.79847">
        <ele>1605.4</ele>
        <time>2021-03-27T11:08:36Z</time>
      </trkpt>
      <trkpt lat="45.63885" lon="6.79847">
        <ele>1605.5</ele>
        <time>2021-03-27T11:08:37Z</time>
      </trkpt>
      <trkpt lat="45.63886" lon="6.79846">
        <ele>1605.7</ele>
        <time>2021-03-27T11:08:38Z</time>
      </trkpt>
      <trkpt lat="45.63887" lon="6.79846">
        <ele>1605.9</ele>
        <time>2021-03-27T11:08:39Z</time>
      </trkpt>
      <trkpt lat="45.63887" lon="6.79846">
        <ele>1606</ele>
        <time>2021-03-27T11:08:40Z</time>
      </trkpt>
      <trkpt lat="45.63888" lon="6.79845">
        <ele>1606.1</ele>
        <time>2021-03-27T11:08:41Z</time>
      </trkpt>
      <trkpt lat="45.63888" lon="6.79844">
        <ele>1606.2</ele>
        <time>2021-03-27T11:08:42Z</time>
      </trkpt>
      <trkpt lat="45.63888" lon="6.79843">
        <ele>1606.4</ele>
        <time>2021-03-27T11:08:43Z</time>
      </trkpt>
      <trkpt lat="45.63888" lon="6.79842">
        <ele>1606.5</ele>
        <time>2021-03-27T11:08:44Z</time>
      </trkpt>
      <trkpt lat="45.63888" lon="6.79841">
        <ele>1606.7</ele>
        <time>2021-03-27T11:08:45Z</time>
      </trkpt>
      <trkpt lat="45.63888" lon="6.7984">
        <ele>1606.9</ele>
        <time>2021-03-27T11:08:46Z</time>
      </trkpt>
      <trkpt lat="45.63888" lon="6.79839">
        <ele>1607</ele>
        <time>2021-03-27T11:08:47Z</time>
      </trkpt>
      <trkpt lat="45.63888" lon="6.79838">
        <ele>1607.1</ele>
        <time>2021-03-27T11:08:48Z</time>
      </trkpt>
      <trkpt lat="45.63888" lon="6.79837">
        <ele>1607.3</ele>
        <time>2021-03-27T11:08:49Z</time>
      </trkpt>
      <trkpt lat="45.63888" lon="6.79835">
        <ele>1607.5</ele>
        <time>2021-03-27T11:08:50Z</time>
      </trkpt>
      <trkpt lat="45.63888" lon="6.79834">
        <ele>1607.7</ele>
        <time>2021-03-27T11:08:51Z</time>
      </trkpt>
      <trkpt lat="45.63888" lon="6.79833">
        <ele>1607.8</ele>
        <time>2021-03-27T11:08:52Z</time>
      </trkpt>
      <trkpt lat="45.63889" lon="6.79833">
        <ele>1607.9</ele>
        <time>2021-03-27T11:08:53Z</time>
      </trkpt>
      <trkpt lat="45.63889" lon="6.79832">
        <ele>1608</ele>
        <time>2021-03-27T11:08:54Z</time>
      </trkpt>
      <trkpt lat="45.63889" lon="6.79831">
        <ele>1608.1</ele>
        <time>2021-03-27T11:08:55Z</time>
      </trkpt>
      <trkpt lat="45.63889" lon="6.7983">
        <ele>1608.2</ele>
        <time>2021-03-27T11:08:56Z</time>
      </trkpt>
      <trkpt lat="45.6389" lon="6.79829">
        <ele>1608.4</ele>
        <time>2021-03-27T11:08:57Z</time>
      </trkpt>
      <trkpt lat="45.6389" lon="6.79828">
        <ele>1608.5</ele>
        <time>2021-03-27T11:08:58Z</time>
      </trkpt>
      <trkpt lat="45.63891" lon="6.79828">
        <ele>1608.7</ele>
        <time>2021-03-27T11:08:59Z</time>
      </trkpt>
      <trkpt lat="45.63891" lon="6.79827">
        <ele>1608.8</ele>
        <time>2021-03-27T11:09:00Z</time>
      </trkpt>
      <trkpt lat="45.63891" lon="6.79826">
        <ele>1608.9</ele>
        <time>2021-03-27T11:09:01Z</time>
      </trkpt>
      <trkpt lat="45.63892" lon="6.79826">
        <ele>1609</ele>
        <time>2021-03-27T11:09:02Z</time>
      </trkpt>
      <trkpt lat="45.63892" lon="6.79825">
        <ele>1609.1</ele>
        <time>2021-03-27T11:09:03Z</time>
      </trkpt>
      <trkpt lat="45.63893" lon="6.79824">
        <ele>1609.3</ele>
        <time>2021-03-27T11:09:04Z</time>
      </trkpt>
      <trkpt lat="45.63893" lon="6.79824">
        <ele>1609.4</ele>
        <time>2021-03-27T11:09:05Z</time>
      </trkpt>
      <trkpt lat="45.63893" lon="6.79823">
        <ele>1609.5</ele>
        <time>2021-03-27T11:09:06Z</time>
      </trkpt>
      <trkpt lat="45.63893" lon="6.79822">
        <ele>1609.7</ele>
        <time>2021-03-27T11:09:07Z</time>
      </trkpt>
      <trkpt lat="45.63893" lon="6.79821">
        <ele>1609.8</ele>
        <time>2021-03-27T11:09:08Z</time>
      </trkpt>
      <trkpt lat="45.63893" lon="6.7982">
        <ele>1609.9</ele>
        <time>2021-03-27T11:09:09Z</time>
      </trkpt>
      <trkpt lat="45.63893" lon="6.79819">
        <ele>1610</ele>
        <time>2021-03-27T11:09:10Z</time>
      </trkpt>
      <trkpt lat="45.63893" lon="6.79819">
        <ele>1610</ele>
        <time>2021-03-27T11:09:11Z</time>
      </trkpt>
      <trkpt lat="45.63893" lon="6.79818">
        <ele>1610.1</ele>
        <time>2021-03-27T11:09:12Z</time>
      </trkpt>
      <trkpt lat="45.63893" lon="6.79818">
        <ele>1610.2</ele>
        <time>2021-03-27T11:09:13Z</time>
      </trkpt>
      <trkpt lat="45.63894" lon="6.79816">
        <ele>1610.4</ele>
        <time>2021-03-27T11:09:14Z</time>
      </trkpt>
      <trkpt lat="45.63894" lon="6.79815">
        <ele>1610.6</ele>
        <time>2021-03-27T11:09:15Z</time>
      </trkpt>
      <trkpt lat="45.63894" lon="6.79815">
        <ele>1610.7</ele>
        <time>2021-03-27T11:09:16Z</time>
      </trkpt>
      <trkpt lat="45.63895" lon="6.79814">
        <ele>1610.8</ele>
        <time>2021-03-27T11:09:17Z</time>
      </trkpt>
      <trkpt lat="45.63895" lon="6.79813">
        <ele>1610.9</ele>
        <time>2021-03-27T11:09:18Z</time>
      </trkpt>
      <trkpt lat="45.63895" lon="6.79812">
        <ele>1611</ele>
        <time>2021-03-27T11:09:19Z</time>
      </trkpt>
      <trkpt lat="45.63895" lon="6.79811">
        <ele>1611.2</ele>
        <time>2021-03-27T11:09:20Z</time>
      </trkpt>
      <trkpt lat="45.63894" lon="6.79811">
        <ele>1611.3</ele>
        <time>2021-03-27T11:09:21Z</time>
      </trkpt>
      <trkpt lat="45.63894" lon="6.7981">
        <ele>1611.4</ele>
        <time>2021-03-27T11:09:22Z</time>
      </trkpt>
      <trkpt lat="45.63894" lon="6.79809">
        <ele>1611.5</ele>
        <time>2021-03-27T11:09:23Z</time>
      </trkpt>
      <trkpt lat="45.63894" lon="6.79808">
        <ele>1611.7</ele>
        <time>2021-03-27T11:09:24Z</time>
      </trkpt>
      <trkpt lat="45.63894" lon="6.79807">
        <ele>1611.9</ele>
        <time>2021-03-27T11:09:25Z</time>
      </trkpt>
      <trkpt lat="45.63893" lon="6.79806">
        <ele>1612</ele>
        <time>2021-03-27T11:09:26Z</time>
      </trkpt>
      <trkpt lat="45.63893" lon="6.79805">
        <ele>1612.2</ele>
        <time>2021-03-27T11:09:27Z</time>
      </trkpt>
      <trkpt lat="45.63893" lon="6.79804">
        <ele>1612.3</ele>
        <time>2021-03-27T11:09:28Z</time>
      </trkpt>
      <trkpt lat="45.63893" lon="6.79803">
        <ele>1612.5</ele>
        <time>2021-03-27T11:09:29Z</time>
      </trkpt>
      <trkpt lat="45.63893" lon="6.79802">
        <ele>1612.6</ele>
        <time>2021-03-27T11:09:30Z</time>
      </trkpt>
      <trkpt lat="45.63893" lon="6.79801">
        <ele>1612.8</ele>
        <time>2021-03-27T11:09:31Z</time>
      </trkpt>
      <trkpt lat="45.63893" lon="6.79801">
        <ele>1612.9</ele>
        <time>2021-03-27T11:09:32Z</time>
      </trkpt>
      <trkpt lat="45.63892" lon="6.798">
        <ele>1613</ele>
        <time>2021-03-27T11:09:33Z</time>
      </trkpt>
      <trkpt lat="45.63892" lon="6.79799">
        <ele>1613.2</ele>
        <time>2021-03-27T11:09:34Z</time>
      </trkpt>
      <trkpt lat="45.63892" lon="6.79798">
        <ele>1613.3</ele>
        <time>2021-03-27T11:09:35Z</time>
      </trkpt>
      <trkpt lat="45.63892" lon="6.79797">
        <ele>1613.4</ele>
        <time>2021-03-27T11:09:36Z</time>
      </trkpt>
      <trkpt lat="45.63892" lon="6.79796">
        <ele>1613.6</ele>
        <time>2021-03-27T11:09:37Z</time>
      </trkpt>
      <trkpt lat="45.63893" lon="6.79795">
        <ele>1613.8</ele>
        <time>2021-03-27T11:09:38Z</time>
      </trkpt>
      <trkpt lat="45.63893" lon="6.79794">
        <ele>1614</ele>
        <time>2021-03-27T11:09:39Z</time>
      </trkpt>
      <trkpt lat="45.63894" lon="6.79792">
        <ele>1614.3</ele>
        <time>2021-03-27T11:09:40Z</time>
      </trkpt>
      <trkpt lat="45.63894" lon="6.79791">
        <ele>1614.4</ele>
        <time>2021-03-27T11:09:41Z</time>
      </trkpt>
      <trkpt lat="45.63894" lon="6.79791">
        <ele>1614.5</ele>
        <time>2021-03-27T11:09:42Z</time>
      </trkpt>
      <trkpt lat="45.63895" lon="6.7979">
        <ele>1614.7</ele>
        <time>2021-03-27T11:09:43Z</time>
      </trkpt>
      <trkpt lat="45.63895" lon="6.79789">
        <ele>1614.9</ele>
        <time>2021-03-27T11:09:44Z</time>
      </trkpt>
      <trkpt lat="45.63896" lon="6.79789">
        <ele>1615.1</ele>
        <time>2021-03-27T11:09:45Z</time>
      </trkpt>
      <trkpt lat="45.63897" lon="6.79788">
        <ele>1615.2</ele>
        <time>2021-03-27T11:09:46Z</time>
      </trkpt>
      <trkpt lat="45.63897" lon="6.79787">
        <ele>1615.4</ele>
        <time>2021-03-27T11:09:47Z</time>
      </trkpt>
      <trkpt lat="45.63896" lon="6.79786">
        <ele>1615.6</ele>
        <time>2021-03-27T11:09:48Z</time>
      </trkpt>
      <trkpt lat="45.63896" lon="6.79785">
        <ele>1615.7</ele>
        <time>2021-03-27T11:09:49Z</time>
      </trkpt>
      <trkpt lat="45.63895" lon="6.79784">
        <ele>1615.9</ele>
        <time>2021-03-27T11:09:50Z</time>
      </trkpt>
      <trkpt lat="45.63895" lon="6.79783">
        <ele>1616</ele>
        <time>2021-03-27T11:09:51Z</time>
      </trkpt>
      <trkpt lat="45.63895" lon="6.79782">
        <ele>1616.2</ele>
        <time>2021-03-27T11:09:52Z</time>
      </trkpt>
      <trkpt lat="45.63895" lon="6.79781">
        <ele>1616.4</ele>
        <time>2021-03-27T11:09:53Z</time>
      </trkpt>
      <trkpt lat="45.63895" lon="6.79779">
        <ele>1616.7</ele>
        <time>2021-03-27T11:09:54Z</time>
      </trkpt>
      <trkpt lat="45.63894" lon="6.79777">
        <ele>1617</ele>
        <time>2021-03-27T11:09:55Z</time>
      </trkpt>
      <trkpt lat="45.63894" lon="6.79776">
        <ele>1617.2</ele>
        <time>2021-03-27T11:09:56Z</time>
      </trkpt>
      <trkpt lat="45.63893" lon="6.79775">
        <ele>1617.4</ele>
        <time>2021-03-27T11:09:57Z</time>
      </trkpt>
      <trkpt lat="45.63893" lon="6.79774">
        <ele>1617.5</ele>
        <time>2021-03-27T11:09:58Z</time>
      </trkpt>
      <trkpt lat="45.63892" lon="6.79774">
        <ele>1617.7</ele>
        <time>2021-03-27T11:09:59Z</time>
      </trkpt>
      <trkpt lat="45.63892" lon="6.79773">
        <ele>1617.8</ele>
        <time>2021-03-27T11:10:00Z</time>
      </trkpt>
      <trkpt lat="45.63892" lon="6.79772">
        <ele>1618</ele>
        <time>2021-03-27T11:10:01Z</time>
      </trkpt>
      <trkpt lat="45.63892" lon="6.79772">
        <ele>1618</ele>
        <time>2021-03-27T11:10:02Z</time>
      </trkpt>
      <trkpt lat="45.63892" lon="6.79771">
        <ele>1618.1</ele>
        <time>2021-03-27T11:10:03Z</time>
      </trkpt>
      <trkpt lat="45.63893" lon="6.79771">
        <ele>1618.2</ele>
        <time>2021-03-27T11:10:04Z</time>
      </trkpt>
      <trkpt lat="45.63893" lon="6.7977">
        <ele>1618.3</ele>
        <time>2021-03-27T11:10:05Z</time>
      </trkpt>
      <trkpt lat="45.63893" lon="6.7977">
        <ele>1618.4</ele>
        <time>2021-03-27T11:10:06Z</time>
      </trkpt>
      <trkpt lat="45.63893" lon="6.79769">
        <ele>1618.5</ele>
        <time>2021-03-27T11:10:07Z</time>
      </trkpt>
      <trkpt lat="45.63893" lon="6.79768">
        <ele>1618.6</ele>
        <time>2021-03-27T11:10:08Z</time>
      </trkpt>
      <trkpt lat="45.63894" lon="6.79768">
        <ele>1618.8</ele>
        <time>2021-03-27T11:10:09Z</time>
      </trkpt>
      <trkpt lat="45.63895" lon="6.79767">
        <ele>1619</ele>
        <time>2021-03-27T11:10:10Z</time>
      </trkpt>
      <trkpt lat="45.63895" lon="6.79767">
        <ele>1619.2</ele>
        <time>2021-03-27T11:10:11Z</time>
      </trkpt>
      <trkpt lat="45.63896" lon="6.79766">
        <ele>1619.3</ele>
        <time>2021-03-27T11:10:12Z</time>
      </trkpt>
      <trkpt lat="45.63896" lon="6.79765">
        <ele>1619.5</ele>
        <time>2021-03-27T11:10:13Z</time>
      </trkpt>
      <trkpt lat="45.63896" lon="6.79764">
        <ele>1619.6</ele>
        <time>2021-03-27T11:10:14Z</time>
      </trkpt>
      <trkpt lat="45.63896" lon="6.79764">
        <ele>1619.7</ele>
        <time>2021-03-27T11:10:15Z</time>
      </trkpt>
      <trkpt lat="45.63894" lon="6.79763">
        <ele>1620</ele>
        <time>2021-03-27T11:10:16Z</time>
      </trkpt>
      <trkpt lat="45.63893" lon="6.79762">
        <ele>1620.3</ele>
        <time>2021-03-27T11:10:17Z</time>
      </trkpt>
      <trkpt lat="45.63892" lon="6.79761">
        <ele>1620.6</ele>
        <time>2021-03-27T11:10:18Z</time>
      </trkpt>
      <trkpt lat="45.63891" lon="6.79761">
        <ele>1620.8</ele>
        <time>2021-03-27T11:10:19Z</time>
      </trkpt>
      <trkpt lat="45.6389" lon="6.79761">
        <ele>1621</ele>
        <time>2021-03-27T11:10:20Z</time>
      </trkpt>
      <trkpt lat="45.6389" lon="6.7976">
        <ele>1621.1</ele>
        <time>2021-03-27T11:10:21Z</time>
      </trkpt>
      <trkpt lat="45.63891" lon="6.79759">
        <ele>1621.2</ele>
        <time>2021-03-27T11:10:22Z</time>
      </trkpt>
      <trkpt lat="45.63892" lon="6.79759">
        <ele>1621.4</ele>
        <time>2021-03-27T11:10:23Z</time>
      </trkpt>
      <trkpt lat="45.63892" lon="6.79759">
        <ele>1621.6</ele>
        <time>2021-03-27T11:10:24Z</time>
      </trkpt>
      <trkpt lat="45.63892" lon="6.79758">
        <ele>1621.6</ele>
        <time>2021-03-27T11:10:25Z</time>
      </trkpt>
      <trkpt lat="45.63893" lon="6.79758">
        <ele>1621.8</ele>
        <time>2021-03-27T11:10:26Z</time>
      </trkpt>
      <trkpt lat="45.63893" lon="6.79756">
        <ele>1622</ele>
        <time>2021-03-27T11:10:27Z</time>
      </trkpt>
      <trkpt lat="45.63893" lon="6.79755">
        <ele>1622.2</ele>
        <time>2021-03-27T11:10:28Z</time>
      </trkpt>
      <trkpt lat="45.63893" lon="6.79754">
        <ele>1622.3</ele>
        <time>2021-03-27T11:10:29Z</time>
      </trkpt>
      <trkpt lat="45.63893" lon="6.79754">
        <ele>1622.5</ele>
        <time>2021-03-27T11:10:30Z</time>
      </trkpt>
      <trkpt lat="45.63893" lon="6.79753">
        <ele>1622.6</ele>
        <time>2021-03-27T11:10:33Z</time>
      </trkpt>
      <trkpt lat="45.63893" lon="6.79752">
        <ele>1622.8</ele>
        <time>2021-03-27T11:10:34Z</time>
      </trkpt>
      <trkpt lat="45.63893" lon="6.79751">
        <ele>1622.9</ele>
        <time>2021-03-27T11:10:35Z</time>
      </trkpt>
      <trkpt lat="45.63893" lon="6.7975">
        <ele>1623.1</ele>
        <time>2021-03-27T11:10:36Z</time>
      </trkpt>
      <trkpt lat="45.63893" lon="6.79749">
        <ele>1623.2</ele>
        <time>2021-03-27T11:10:37Z</time>
      </trkpt>
      <trkpt lat="45.63893" lon="6.79748">
        <ele>1623.4</ele>
        <time>2021-03-27T11:10:38Z</time>
      </trkpt>
      <trkpt lat="45.63892" lon="6.79747">
        <ele>1623.7</ele>
        <time>2021-03-27T11:10:39Z</time>
      </trkpt>
      <trkpt lat="45.63892" lon="6.79746">
        <ele>1623.8</ele>
        <time>2021-03-27T11:10:40Z</time>
      </trkpt>
      <trkpt lat="45.63892" lon="6.79745">
        <ele>1623.9</ele>
        <time>2021-03-27T11:10:41Z</time>
      </trkpt>
      <trkpt lat="45.63893" lon="6.79744">
        <ele>1624.1</ele>
        <time>2021-03-27T11:10:42Z</time>
      </trkpt>
      <trkpt lat="45.63893" lon="6.79743">
        <ele>1624.3</ele>
        <time>2021-03-27T11:10:43Z</time>
      </trkpt>
      <trkpt lat="45.63894" lon="6.79742">
        <ele>1624.5</ele>
        <time>2021-03-27T11:10:44Z</time>
      </trkpt>
      <trkpt lat="45.63894" lon="6.79741">
        <ele>1624.7</ele>
        <time>2021-03-27T11:10:45Z</time>
      </trkpt>
      <trkpt lat="45.63895" lon="6.7974">
        <ele>1624.9</ele>
        <time>2021-03-27T11:10:46Z</time>
      </trkpt>
      <trkpt lat="45.63896" lon="6.79739">
        <ele>1625.2</ele>
        <time>2021-03-27T11:10:47Z</time>
      </trkpt>
      <trkpt lat="45.63896" lon="6.79738">
        <ele>1625.3</ele>
        <time>2021-03-27T11:10:48Z</time>
      </trkpt>
      <trkpt lat="45.63896" lon="6.79738">
        <ele>1625.5</ele>
        <time>2021-03-27T11:10:49Z</time>
      </trkpt>
      <trkpt lat="45.63896" lon="6.79737">
        <ele>1625.6</ele>
        <time>2021-03-27T11:10:50Z</time>
      </trkpt>
      <trkpt lat="45.63896" lon="6.79737">
        <ele>1625.7</ele>
        <time>2021-03-27T11:10:51Z</time>
      </trkpt>
      <trkpt lat="45.63896" lon="6.79736">
        <ele>1625.8</ele>
        <time>2021-03-27T11:10:52Z</time>
      </trkpt>
      <trkpt lat="45.63896" lon="6.79736">
        <ele>1625.9</ele>
        <time>2021-03-27T11:10:53Z</time>
      </trkpt>
      <trkpt lat="45.63896" lon="6.79735">
        <ele>1626.1</ele>
        <time>2021-03-27T11:10:54Z</time>
      </trkpt>
      <trkpt lat="45.63896" lon="6.79734">
        <ele>1626.1</ele>
        <time>2021-03-27T11:10:55Z</time>
      </trkpt>
      <trkpt lat="45.63897" lon="6.79734">
        <ele>1626.3</ele>
        <time>2021-03-27T11:10:56Z</time>
      </trkpt>
      <trkpt lat="45.63896" lon="6.79733">
        <ele>1626.4</ele>
        <time>2021-03-27T11:10:57Z</time>
      </trkpt>
      <trkpt lat="45.63896" lon="6.79732">
        <ele>1626.6</ele>
        <time>2021-03-27T11:10:58Z</time>
      </trkpt>
      <trkpt lat="45.63896" lon="6.79732">
        <ele>1626.7</ele>
        <time>2021-03-27T11:10:59Z</time>
      </trkpt>
      <trkpt lat="45.63895" lon="6.79731">
        <ele>1626.9</ele>
        <time>2021-03-27T11:11:00Z</time>
      </trkpt>
      <trkpt lat="45.63895" lon="6.7973">
        <ele>1627</ele>
        <time>2021-03-27T11:11:01Z</time>
      </trkpt>
      <trkpt lat="45.63895" lon="6.7973">
        <ele>1627.1</ele>
        <time>2021-03-27T11:11:02Z</time>
      </trkpt>
      <trkpt lat="45.63895" lon="6.79729">
        <ele>1627.3</ele>
        <time>2021-03-27T11:11:03Z</time>
      </trkpt>
      <trkpt lat="45.63894" lon="6.79728">
        <ele>1627.5</ele>
        <time>2021-03-27T11:11:04Z</time>
      </trkpt>
      <trkpt lat="45.63894" lon="6.79727">
        <ele>1627.7</ele>
        <time>2021-03-27T11:11:05Z</time>
      </trkpt>
      <trkpt lat="45.63894" lon="6.79726">
        <ele>1628</ele>
        <time>2021-03-27T11:11:06Z</time>
      </trkpt>
      <trkpt lat="45.63894" lon="6.79724">
        <ele>1628.2</ele>
        <time>2021-03-27T11:11:07Z</time>
      </trkpt>
      <trkpt lat="45.63894" lon="6.79724">
        <ele>1628.4</ele>
        <time>2021-03-27T11:11:08Z</time>
      </trkpt>
      <trkpt lat="45.63894" lon="6.79722">
        <ele>1628.7</ele>
        <time>2021-03-27T11:11:09Z</time>
      </trkpt>
      <trkpt lat="45.63894" lon="6.79721">
        <ele>1628.9</ele>
        <time>2021-03-27T11:11:10Z</time>
      </trkpt>
      <trkpt lat="45.63894" lon="6.7972">
        <ele>1629.2</ele>
        <time>2021-03-27T11:11:11Z</time>
      </trkpt>
      <trkpt lat="45.63894" lon="6.79719">
        <ele>1629.4</ele>
        <time>2021-03-27T11:11:12Z</time>
      </trkpt>
      <trkpt lat="45.63893" lon="6.79719">
        <ele>1629.6</ele>
        <time>2021-03-27T11:11:13Z</time>
      </trkpt>
      <trkpt lat="45.63893" lon="6.79718">
        <ele>1629.9</ele>
        <time>2021-03-27T11:11:14Z</time>
      </trkpt>
      <trkpt lat="45.63892" lon="6.79717">
        <ele>1630.1</ele>
        <time>2021-03-27T11:11:15Z</time>
      </trkpt>
      <trkpt lat="45.63892" lon="6.79716">
        <ele>1630.3</ele>
        <time>2021-03-27T11:11:16Z</time>
      </trkpt>
      <trkpt lat="45.63892" lon="6.79716">
        <ele>1630.5</ele>
        <time>2021-03-27T11:11:17Z</time>
      </trkpt>
      <trkpt lat="45.63892" lon="6.79715">
        <ele>1630.6</ele>
        <time>2021-03-27T11:11:18Z</time>
      </trkpt>
      <trkpt lat="45.63892" lon="6.79714">
        <ele>1630.7</ele>
        <time>2021-03-27T11:11:19Z</time>
      </trkpt>
      <trkpt lat="45.63892" lon="6.79714">
        <ele>1630.8</ele>
        <time>2021-03-27T11:11:20Z</time>
      </trkpt>
      <trkpt lat="45.63892" lon="6.79714">
        <ele>1630.9</ele>
        <time>2021-03-27T11:11:21Z</time>
      </trkpt>
      <trkpt lat="45.63892" lon="6.79713">
        <ele>1631.1</ele>
        <time>2021-03-27T11:11:22Z</time>
      </trkpt>
      <trkpt lat="45.63893" lon="6.79712">
        <ele>1631.2</ele>
        <time>2021-03-27T11:11:23Z</time>
      </trkpt>
      <trkpt lat="45.63893" lon="6.79712">
        <ele>1631.4</ele>
        <time>2021-03-27T11:11:24Z</time>
      </trkpt>
      <trkpt lat="45.63893" lon="6.79711">
        <ele>1631.6</ele>
        <time>2021-03-27T11:11:25Z</time>
      </trkpt>
      <trkpt lat="45.63894" lon="6.79711">
        <ele>1631.7</ele>
        <time>2021-03-27T11:11:26Z</time>
      </trkpt>
      <trkpt lat="45.63894" lon="6.7971">
        <ele>1631.9</ele>
        <time>2021-03-27T11:11:27Z</time>
      </trkpt>
      <trkpt lat="45.63894" lon="6.7971">
        <ele>1632.1</ele>
        <time>2021-03-27T11:11:28Z</time>
      </trkpt>
      <trkpt lat="45.63894" lon="6.79708">
        <ele>1632.4</ele>
        <time>2021-03-27T11:11:29Z</time>
      </trkpt>
      <trkpt lat="45.63895" lon="6.79707">
        <ele>1632.6</ele>
        <time>2021-03-27T11:11:30Z</time>
      </trkpt>
      <trkpt lat="45.63894" lon="6.79706">
        <ele>1632.8</ele>
        <time>2021-03-27T11:11:31Z</time>
      </trkpt>
      <trkpt lat="45.63894" lon="6.79706">
        <ele>1633</ele>
        <time>2021-03-27T11:11:32Z</time>
      </trkpt>
      <trkpt lat="45.63894" lon="6.79705">
        <ele>1633.2</ele>
        <time>2021-03-27T11:11:33Z</time>
      </trkpt>
      <trkpt lat="45.63894" lon="6.79704">
        <ele>1633.4</ele>
        <time>2021-03-27T11:11:34Z</time>
      </trkpt>
      <trkpt lat="45.63894" lon="6.79703">
        <ele>1633.5</ele>
        <time>2021-03-27T11:11:35Z</time>
      </trkpt>
      <trkpt lat="45.63894" lon="6.79703">
        <ele>1633.7</ele>
        <time>2021-03-27T11:11:36Z</time>
      </trkpt>
      <trkpt lat="45.63894" lon="6.79702">
        <ele>1633.9</ele>
        <time>2021-03-27T11:11:37Z</time>
      </trkpt>
      <trkpt lat="45.63895" lon="6.79701">
        <ele>1634.2</ele>
        <time>2021-03-27T11:11:38Z</time>
      </trkpt>
      <trkpt lat="45.63895" lon="6.797">
        <ele>1634.4</ele>
        <time>2021-03-27T11:11:39Z</time>
      </trkpt>
      <trkpt lat="45.63895" lon="6.79699">
        <ele>1634.6</ele>
        <time>2021-03-27T11:11:40Z</time>
      </trkpt>
      <trkpt lat="45.63896" lon="6.79699">
        <ele>1634.7</ele>
        <time>2021-03-27T11:11:41Z</time>
      </trkpt>
      <trkpt lat="45.63896" lon="6.79697">
        <ele>1635</ele>
        <time>2021-03-27T11:11:42Z</time>
      </trkpt>
      <trkpt lat="45.63896" lon="6.79697">
        <ele>1635.2</ele>
        <time>2021-03-27T11:11:43Z</time>
      </trkpt>
      <trkpt lat="45.63896" lon="6.79696">
        <ele>1635.5</ele>
        <time>2021-03-27T11:11:44Z</time>
      </trkpt>
      <trkpt lat="45.63897" lon="6.79695">
        <ele>1635.6</ele>
        <time>2021-03-27T11:11:45Z</time>
      </trkpt>
      <trkpt lat="45.63897" lon="6.79694">
        <ele>1635.8</ele>
        <time>2021-03-27T11:11:46Z</time>
      </trkpt>
      <trkpt lat="45.63897" lon="6.79694">
        <ele>1635.9</ele>
        <time>2021-03-27T11:11:47Z</time>
      </trkpt>
      <trkpt lat="45.63898" lon="6.79693">
        <ele>1636.1</ele>
        <time>2021-03-27T11:11:48Z</time>
      </trkpt>
      <trkpt lat="45.63898" lon="6.79693">
        <ele>1636.3</ele>
        <time>2021-03-27T11:11:49Z</time>
      </trkpt>
      <trkpt lat="45.63899" lon="6.79692">
        <ele>1636.5</ele>
        <time>2021-03-27T11:11:50Z</time>
      </trkpt>
      <trkpt lat="45.63899" lon="6.79692">
        <ele>1636.7</ele>
        <time>2021-03-27T11:11:51Z</time>
      </trkpt>
      <trkpt lat="45.639" lon="6.79691">
        <ele>1636.9</ele>
        <time>2021-03-27T11:11:52Z</time>
      </trkpt>
      <trkpt lat="45.639" lon="6.7969">
        <ele>1637</ele>
        <time>2021-03-27T11:11:53Z</time>
      </trkpt>
      <trkpt lat="45.639" lon="6.7969">
        <ele>1637.2</ele>
        <time>2021-03-27T11:11:54Z</time>
      </trkpt>
      <trkpt lat="45.639" lon="6.79689">
        <ele>1637.3</ele>
        <time>2021-03-27T11:11:55Z</time>
      </trkpt>
      <trkpt lat="45.639" lon="6.79689">
        <ele>1637.4</ele>
        <time>2021-03-27T11:11:56Z</time>
      </trkpt>
      <trkpt lat="45.639" lon="6.79688">
        <ele>1637.5</ele>
        <time>2021-03-27T11:11:57Z</time>
      </trkpt>
      <trkpt lat="45.63901" lon="6.79688">
        <ele>1637.6</ele>
        <time>2021-03-27T11:11:58Z</time>
      </trkpt>
      <trkpt lat="45.63901" lon="6.79688">
        <ele>1637.6</ele>
        <time>2021-03-27T11:11:59Z</time>
      </trkpt>
      <trkpt lat="45.63901" lon="6.79687">
        <ele>1637.8</ele>
        <time>2021-03-27T11:12:00Z</time>
      </trkpt>
      <trkpt lat="45.63901" lon="6.79687">
        <ele>1637.9</ele>
        <time>2021-03-27T11:12:01Z</time>
      </trkpt>
      <trkpt lat="45.639" lon="6.79685">
        <ele>1638.3</ele>
        <time>2021-03-27T11:12:02Z</time>
      </trkpt>
      <trkpt lat="45.639" lon="6.79684">
        <ele>1638.5</ele>
        <time>2021-03-27T11:12:03Z</time>
      </trkpt>
      <trkpt lat="45.639" lon="6.79683">
        <ele>1638.7</ele>
        <time>2021-03-27T11:12:04Z</time>
      </trkpt>
      <trkpt lat="45.63899" lon="6.79682">
        <ele>1638.9</ele>
        <time>2021-03-27T11:12:06Z</time>
      </trkpt>
      <trkpt lat="45.63899" lon="6.79681">
        <ele>1639.1</ele>
        <time>2021-03-27T11:12:07Z</time>
      </trkpt>
      <trkpt lat="45.63899" lon="6.7968">
        <ele>1639.4</ele>
        <time>2021-03-27T11:12:08Z</time>
      </trkpt>
      <trkpt lat="45.63898" lon="6.79679">
        <ele>1639.5</ele>
        <time>2021-03-27T11:12:09Z</time>
      </trkpt>
      <trkpt lat="45.63898" lon="6.79678">
        <ele>1639.7</ele>
        <time>2021-03-27T11:12:10Z</time>
      </trkpt>
      <trkpt lat="45.63898" lon="6.79678">
        <ele>1639.7</ele>
        <time>2021-03-27T11:12:11Z</time>
      </trkpt>
      <trkpt lat="45.63898" lon="6.79678">
        <ele>1639.8</ele>
        <time>2021-03-27T11:12:12Z</time>
      </trkpt>
      <trkpt lat="45.63898" lon="6.79677">
        <ele>1640</ele>
        <time>2021-03-27T11:12:13Z</time>
      </trkpt>
      <trkpt lat="45.63898" lon="6.79676">
        <ele>1640.1</ele>
        <time>2021-03-27T11:12:14Z</time>
      </trkpt>
      <trkpt lat="45.63898" lon="6.79675">
        <ele>1640.3</ele>
        <time>2021-03-27T11:12:15Z</time>
      </trkpt>
      <trkpt lat="45.63898" lon="6.79674">
        <ele>1640.4</ele>
        <time>2021-03-27T11:12:16Z</time>
      </trkpt>
      <trkpt lat="45.63898" lon="6.79674">
        <ele>1640.6</ele>
        <time>2021-03-27T11:12:17Z</time>
      </trkpt>
      <trkpt lat="45.63899" lon="6.79673">
        <ele>1640.7</ele>
        <time>2021-03-27T11:12:18Z</time>
      </trkpt>
      <trkpt lat="45.639" lon="6.79673">
        <ele>1640.9</ele>
        <time>2021-03-27T11:12:19Z</time>
      </trkpt>
      <trkpt lat="45.639" lon="6.79672">
        <ele>1641.1</ele>
        <time>2021-03-27T11:12:20Z</time>
      </trkpt>
      <trkpt lat="45.639" lon="6.79672">
        <ele>1641.1</ele>
        <time>2021-03-27T11:12:21Z</time>
      </trkpt>
      <trkpt lat="45.63901" lon="6.79671">
        <ele>1641.2</ele>
        <time>2021-03-27T11:12:22Z</time>
      </trkpt>
      <trkpt lat="45.63901" lon="6.7967">
        <ele>1641.5</ele>
        <time>2021-03-27T11:12:23Z</time>
      </trkpt>
      <trkpt lat="45.63902" lon="6.7967">
        <ele>1641.6</ele>
        <time>2021-03-27T11:12:24Z</time>
      </trkpt>
      <trkpt lat="45.63902" lon="6.79669">
        <ele>1641.7</ele>
        <time>2021-03-27T11:12:25Z</time>
      </trkpt>
      <trkpt lat="45.63902" lon="6.79668">
        <ele>1641.8</ele>
        <time>2021-03-27T11:12:26Z</time>
      </trkpt>
      <trkpt lat="45.63902" lon="6.79667">
        <ele>1642.1</ele>
        <time>2021-03-27T11:12:27Z</time>
      </trkpt>
      <trkpt lat="45.63902" lon="6.79666">
        <ele>1642.4</ele>
        <time>2021-03-27T11:12:28Z</time>
      </trkpt>
      <trkpt lat="45.63902" lon="6.79665">
        <ele>1642.6</ele>
        <time>2021-03-27T11:12:29Z</time>
      </trkpt>
      <trkpt lat="45.63902" lon="6.79664">
        <ele>1642.8</ele>
        <time>2021-03-27T11:12:30Z</time>
      </trkpt>
      <trkpt lat="45.63902" lon="6.79663">
        <ele>1643</ele>
        <time>2021-03-27T11:12:31Z</time>
      </trkpt>
      <trkpt lat="45.63902" lon="6.79663">
        <ele>1643.2</ele>
        <time>2021-03-27T11:12:32Z</time>
      </trkpt>
      <trkpt lat="45.63901" lon="6.79662">
        <ele>1643.4</ele>
        <time>2021-03-27T11:12:33Z</time>
      </trkpt>
      <trkpt lat="45.63901" lon="6.79661">
        <ele>1643.7</ele>
        <time>2021-03-27T11:12:34Z</time>
      </trkpt>
      <trkpt lat="45.63901" lon="6.7966">
        <ele>1643.9</ele>
        <time>2021-03-27T11:12:35Z</time>
      </trkpt>
      <trkpt lat="45.63901" lon="6.79659">
        <ele>1644.2</ele>
        <time>2021-03-27T11:12:36Z</time>
      </trkpt>
      <trkpt lat="45.639" lon="6.79659">
        <ele>1644.4</ele>
        <time>2021-03-27T11:12:37Z</time>
      </trkpt>
      <trkpt lat="45.639" lon="6.79658">
        <ele>1644.6</ele>
        <time>2021-03-27T11:12:38Z</time>
      </trkpt>
      <trkpt lat="45.639" lon="6.79657">
        <ele>1644.8</ele>
        <time>2021-03-27T11:12:39Z</time>
      </trkpt>
      <trkpt lat="45.639" lon="6.79657">
        <ele>1645</ele>
        <time>2021-03-27T11:12:40Z</time>
      </trkpt>
      <trkpt lat="45.639" lon="6.79656">
        <ele>1645.3</ele>
        <time>2021-03-27T11:12:41Z</time>
      </trkpt>
      <trkpt lat="45.639" lon="6.79655">
        <ele>1645.5</ele>
        <time>2021-03-27T11:12:42Z</time>
      </trkpt>
      <trkpt lat="45.639" lon="6.79653">
        <ele>1645.7</ele>
        <time>2021-03-27T11:12:43Z</time>
      </trkpt>
      <trkpt lat="45.639" lon="6.79652">
        <ele>1646</ele>
        <time>2021-03-27T11:12:44Z</time>
      </trkpt>
      <trkpt lat="45.63901" lon="6.79651">
        <ele>1646.3</ele>
        <time>2021-03-27T11:12:45Z</time>
      </trkpt>
      <trkpt lat="45.63902" lon="6.7965">
        <ele>1646.6</ele>
        <time>2021-03-27T11:12:46Z</time>
      </trkpt>
      <trkpt lat="45.63902" lon="6.7965">
        <ele>1646.8</ele>
        <time>2021-03-27T11:12:47Z</time>
      </trkpt>
      <trkpt lat="45.63903" lon="6.79649">
        <ele>1647</ele>
        <time>2021-03-27T11:12:48Z</time>
      </trkpt>
      <trkpt lat="45.63903" lon="6.79649">
        <ele>1647.2</ele>
        <time>2021-03-27T11:12:49Z</time>
      </trkpt>
      <trkpt lat="45.63903" lon="6.79648">
        <ele>1647.4</ele>
        <time>2021-03-27T11:12:50Z</time>
      </trkpt>
      <trkpt lat="45.63904" lon="6.79648">
        <ele>1647.7</ele>
        <time>2021-03-27T11:12:51Z</time>
      </trkpt>
      <trkpt lat="45.63904" lon="6.79647">
        <ele>1647.8</ele>
        <time>2021-03-27T11:12:52Z</time>
      </trkpt>
      <trkpt lat="45.63904" lon="6.79646">
        <ele>1648</ele>
        <time>2021-03-27T11:12:53Z</time>
      </trkpt>
      <trkpt lat="45.63904" lon="6.79646">
        <ele>1648.2</ele>
        <time>2021-03-27T11:12:54Z</time>
      </trkpt>
      <trkpt lat="45.63904" lon="6.79645">
        <ele>1648.4</ele>
        <time>2021-03-27T11:12:55Z</time>
      </trkpt>
      <trkpt lat="45.63904" lon="6.79644">
        <ele>1648.7</ele>
        <time>2021-03-27T11:12:56Z</time>
      </trkpt>
      <trkpt lat="45.63905" lon="6.79643">
        <ele>1648.9</ele>
        <time>2021-03-27T11:12:57Z</time>
      </trkpt>
      <trkpt lat="45.63905" lon="6.79642">
        <ele>1649.1</ele>
        <time>2021-03-27T11:12:58Z</time>
      </trkpt>
      <trkpt lat="45.63905" lon="6.79642">
        <ele>1649.3</ele>
        <time>2021-03-27T11:12:59Z</time>
      </trkpt>
      <trkpt lat="45.63906" lon="6.79641">
        <ele>1649.5</ele>
        <time>2021-03-27T11:13:00Z</time>
      </trkpt>
      <trkpt lat="45.63906" lon="6.7964">
        <ele>1649.8</ele>
        <time>2021-03-27T11:13:01Z</time>
      </trkpt>
      <trkpt lat="45.63907" lon="6.79639">
        <ele>1650.1</ele>
        <time>2021-03-27T11:13:02Z</time>
      </trkpt>
      <trkpt lat="45.63907" lon="6.79638">
        <ele>1650.4</ele>
        <time>2021-03-27T11:13:03Z</time>
      </trkpt>
      <trkpt lat="45.63907" lon="6.79637">
        <ele>1650.6</ele>
        <time>2021-03-27T11:13:04Z</time>
      </trkpt>
      <trkpt lat="45.63907" lon="6.79637">
        <ele>1650.7</ele>
        <time>2021-03-27T11:13:05Z</time>
      </trkpt>
      <trkpt lat="45.63908" lon="6.79636">
        <ele>1650.9</ele>
        <time>2021-03-27T11:13:06Z</time>
      </trkpt>
      <trkpt lat="45.63908" lon="6.79635">
        <ele>1651.2</ele>
        <time>2021-03-27T11:13:07Z</time>
      </trkpt>
      <trkpt lat="45.63908" lon="6.79635">
        <ele>1651.4</ele>
        <time>2021-03-27T11:13:08Z</time>
      </trkpt>
      <trkpt lat="45.63909" lon="6.79634">
        <ele>1651.6</ele>
        <time>2021-03-27T11:13:09Z</time>
      </trkpt>
      <trkpt lat="45.63909" lon="6.79633">
        <ele>1651.7</ele>
        <time>2021-03-27T11:13:10Z</time>
      </trkpt>
      <trkpt lat="45.63909" lon="6.79633">
        <ele>1652</ele>
        <time>2021-03-27T11:13:11Z</time>
      </trkpt>
      <trkpt lat="45.63909" lon="6.79632">
        <ele>1652.2</ele>
        <time>2021-03-27T11:13:12Z</time>
      </trkpt>
      <trkpt lat="45.63909" lon="6.79631">
        <ele>1652.3</ele>
        <time>2021-03-27T11:13:13Z</time>
      </trkpt>
      <trkpt lat="45.63909" lon="6.79631">
        <ele>1652.6</ele>
        <time>2021-03-27T11:13:14Z</time>
      </trkpt>
      <trkpt lat="45.6391" lon="6.79629">
        <ele>1652.8</ele>
        <time>2021-03-27T11:13:15Z</time>
      </trkpt>
      <trkpt lat="45.6391" lon="6.79628">
        <ele>1653.1</ele>
        <time>2021-03-27T11:13:16Z</time>
      </trkpt>
      <trkpt lat="45.6391" lon="6.79627">
        <ele>1653.3</ele>
        <time>2021-03-27T11:13:17Z</time>
      </trkpt>
      <trkpt lat="45.6391" lon="6.79626">
        <ele>1653.4</ele>
        <time>2021-03-27T11:13:18Z</time>
      </trkpt>
      <trkpt lat="45.6391" lon="6.79626">
        <ele>1653.7</ele>
        <time>2021-03-27T11:13:19Z</time>
      </trkpt>
      <trkpt lat="45.63911" lon="6.79625">
        <ele>1653.8</ele>
        <time>2021-03-27T11:13:20Z</time>
      </trkpt>
      <trkpt lat="45.63911" lon="6.79625">
        <ele>1654</ele>
        <time>2021-03-27T11:13:21Z</time>
      </trkpt>
      <trkpt lat="45.63911" lon="6.79624">
        <ele>1654.1</ele>
        <time>2021-03-27T11:13:22Z</time>
      </trkpt>
      <trkpt lat="45.63912" lon="6.79624">
        <ele>1654.3</ele>
        <time>2021-03-27T11:13:23Z</time>
      </trkpt>
      <trkpt lat="45.63913" lon="6.79623">
        <ele>1654.6</ele>
        <time>2021-03-27T11:13:24Z</time>
      </trkpt>
      <trkpt lat="45.63913" lon="6.79623">
        <ele>1654.8</ele>
        <time>2021-03-27T11:13:25Z</time>
      </trkpt>
      <trkpt lat="45.63914" lon="6.79622">
        <ele>1655</ele>
        <time>2021-03-27T11:13:26Z</time>
      </trkpt>
      <trkpt lat="45.63914" lon="6.79621">
        <ele>1655.2</ele>
        <time>2021-03-27T11:13:27Z</time>
      </trkpt>
      <trkpt lat="45.63914" lon="6.7962">
        <ele>1655.4</ele>
        <time>2021-03-27T11:13:28Z</time>
      </trkpt>
      <trkpt lat="45.63914" lon="6.7962">
        <ele>1655.6</ele>
        <time>2021-03-27T11:13:29Z</time>
      </trkpt>
      <trkpt lat="45.63914" lon="6.79619">
        <ele>1655.8</ele>
        <time>2021-03-27T11:13:30Z</time>
      </trkpt>
      <trkpt lat="45.63914" lon="6.79617">
        <ele>1656</ele>
        <time>2021-03-27T11:13:31Z</time>
      </trkpt>
      <trkpt lat="45.63914" lon="6.79617">
        <ele>1656.2</ele>
        <time>2021-03-27T11:13:32Z</time>
      </trkpt>
      <trkpt lat="45.63913" lon="6.79616">
        <ele>1656.4</ele>
        <time>2021-03-27T11:13:33Z</time>
      </trkpt>
      <trkpt lat="45.63913" lon="6.79616">
        <ele>1656.4</ele>
        <time>2021-03-27T11:13:34Z</time>
      </trkpt>
      <trkpt lat="45.63913" lon="6.79616">
        <ele>1656.5</ele>
        <time>2021-03-27T11:13:35Z</time>
      </trkpt>
      <trkpt lat="45.63914" lon="6.79616">
        <ele>1656.6</ele>
        <time>2021-03-27T11:13:36Z</time>
      </trkpt>
      <trkpt lat="45.63914" lon="6.79615">
        <ele>1656.8</ele>
        <time>2021-03-27T11:13:37Z</time>
      </trkpt>
      <trkpt lat="45.63914" lon="6.79615">
        <ele>1656.9</ele>
        <time>2021-03-27T11:13:38Z</time>
      </trkpt>
      <trkpt lat="45.63915" lon="6.79615">
        <ele>1657.1</ele>
        <time>2021-03-27T11:13:39Z</time>
      </trkpt>
      <trkpt lat="45.63915" lon="6.79614">
        <ele>1657.3</ele>
        <time>2021-03-27T11:13:40Z</time>
      </trkpt>
      <trkpt lat="45.63916" lon="6.79613">
        <ele>1657.5</ele>
        <time>2021-03-27T11:13:41Z</time>
      </trkpt>
      <trkpt lat="45.63916" lon="6.79613">
        <ele>1657.7</ele>
        <time>2021-03-27T11:13:42Z</time>
      </trkpt>
      <trkpt lat="45.63917" lon="6.79612">
        <ele>1657.9</ele>
        <time>2021-03-27T11:13:43Z</time>
      </trkpt>
      <trkpt lat="45.63918" lon="6.79611">
        <ele>1658.1</ele>
        <time>2021-03-27T11:13:44Z</time>
      </trkpt>
      <trkpt lat="45.63918" lon="6.7961">
        <ele>1658.3</ele>
        <time>2021-03-27T11:13:45Z</time>
      </trkpt>
      <trkpt lat="45.63919" lon="6.7961">
        <ele>1658.6</ele>
        <time>2021-03-27T11:13:46Z</time>
      </trkpt>
      <trkpt lat="45.63919" lon="6.79609">
        <ele>1658.8</ele>
        <time>2021-03-27T11:13:47Z</time>
      </trkpt>
      <trkpt lat="45.6392" lon="6.79609">
        <ele>1658.9</ele>
        <time>2021-03-27T11:13:48Z</time>
      </trkpt>
      <trkpt lat="45.6392" lon="6.79608">
        <ele>1659.1</ele>
        <time>2021-03-27T11:13:49Z</time>
      </trkpt>
      <trkpt lat="45.63921" lon="6.79607">
        <ele>1659.3</ele>
        <time>2021-03-27T11:13:50Z</time>
      </trkpt>
      <trkpt lat="45.63921" lon="6.79607">
        <ele>1659.5</ele>
        <time>2021-03-27T11:13:51Z</time>
      </trkpt>
      <trkpt lat="45.63921" lon="6.79606">
        <ele>1659.6</ele>
        <time>2021-03-27T11:13:52Z</time>
      </trkpt>
      <trkpt lat="45.63922" lon="6.79606">
        <ele>1659.8</ele>
        <time>2021-03-27T11:13:53Z</time>
      </trkpt>
      <trkpt lat="45.63922" lon="6.79605">
        <ele>1659.9</ele>
        <time>2021-03-27T11:13:54Z</time>
      </trkpt>
      <trkpt lat="45.63922" lon="6.79605">
        <ele>1660</ele>
        <time>2021-03-27T11:13:55Z</time>
      </trkpt>
      <trkpt lat="45.63922" lon="6.79604">
        <ele>1660.2</ele>
        <time>2021-03-27T11:13:56Z</time>
      </trkpt>
      <trkpt lat="45.63923" lon="6.79603">
        <ele>1660.5</ele>
        <time>2021-03-27T11:13:57Z</time>
      </trkpt>
      <trkpt lat="45.63923" lon="6.79602">
        <ele>1660.6</ele>
        <time>2021-03-27T11:13:58Z</time>
      </trkpt>
      <trkpt lat="45.63924" lon="6.79601">
        <ele>1660.9</ele>
        <time>2021-03-27T11:13:59Z</time>
      </trkpt>
      <trkpt lat="45.63924" lon="6.796">
        <ele>1661.1</ele>
        <time>2021-03-27T11:14:00Z</time>
      </trkpt>
      <trkpt lat="45.63924" lon="6.79599">
        <ele>1661.4</ele>
        <time>2021-03-27T11:14:01Z</time>
      </trkpt>
      <trkpt lat="45.63924" lon="6.79598">
        <ele>1661.4</ele>
        <time>2021-03-27T11:14:02Z</time>
      </trkpt>
      <trkpt lat="45.63925" lon="6.79597">
        <ele>1661.6</ele>
        <time>2021-03-27T11:14:03Z</time>
      </trkpt>
      <trkpt lat="45.63925" lon="6.79597">
        <ele>1661.8</ele>
        <time>2021-03-27T11:14:04Z</time>
      </trkpt>
      <trkpt lat="45.63926" lon="6.79596">
        <ele>1661.9</ele>
        <time>2021-03-27T11:14:05Z</time>
      </trkpt>
      <trkpt lat="45.63926" lon="6.79596">
        <ele>1662.1</ele>
        <time>2021-03-27T11:14:06Z</time>
      </trkpt>
      <trkpt lat="45.63926" lon="6.79595">
        <ele>1662.2</ele>
        <time>2021-03-27T11:14:07Z</time>
      </trkpt>
      <trkpt lat="45.63926" lon="6.79594">
        <ele>1662.3</ele>
        <time>2021-03-27T11:14:08Z</time>
      </trkpt>
      <trkpt lat="45.63926" lon="6.79593">
        <ele>1662.4</ele>
        <time>2021-03-27T11:14:09Z</time>
      </trkpt>
      <trkpt lat="45.63926" lon="6.79592">
        <ele>1662.5</ele>
        <time>2021-03-27T11:14:10Z</time>
      </trkpt>
      <trkpt lat="45.63926" lon="6.79592">
        <ele>1662.6</ele>
        <time>2021-03-27T11:14:11Z</time>
      </trkpt>
      <trkpt lat="45.63927" lon="6.79592">
        <ele>1662.7</ele>
        <time>2021-03-27T11:14:12Z</time>
      </trkpt>
      <trkpt lat="45.63928" lon="6.79591">
        <ele>1662.8</ele>
        <time>2021-03-27T11:14:13Z</time>
      </trkpt>
      <trkpt lat="45.63928" lon="6.79591">
        <ele>1662.9</ele>
        <time>2021-03-27T11:14:14Z</time>
      </trkpt>
      <trkpt lat="45.63929" lon="6.7959">
        <ele>1663.1</ele>
        <time>2021-03-27T11:14:15Z</time>
      </trkpt>
      <trkpt lat="45.63929" lon="6.79589">
        <ele>1663.1</ele>
        <time>2021-03-27T11:14:16Z</time>
      </trkpt>
      <trkpt lat="45.63929" lon="6.79588">
        <ele>1663.2</ele>
        <time>2021-03-27T11:14:17Z</time>
      </trkpt>
      <trkpt lat="45.63929" lon="6.79587">
        <ele>1663.4</ele>
        <time>2021-03-27T11:14:18Z</time>
      </trkpt>
      <trkpt lat="45.6393" lon="6.79586">
        <ele>1663.5</ele>
        <time>2021-03-27T11:14:19Z</time>
      </trkpt>
      <trkpt lat="45.63931" lon="6.79585">
        <ele>1663.7</ele>
        <time>2021-03-27T11:14:20Z</time>
      </trkpt>
      <trkpt lat="45.63931" lon="6.79584">
        <ele>1663.8</ele>
        <time>2021-03-27T11:14:21Z</time>
      </trkpt>
      <trkpt lat="45.63932" lon="6.79583">
        <ele>1664</ele>
        <time>2021-03-27T11:14:22Z</time>
      </trkpt>
      <trkpt lat="45.63932" lon="6.79582">
        <ele>1664.1</ele>
        <time>2021-03-27T11:14:23Z</time>
      </trkpt>
      <trkpt lat="45.63933" lon="6.79581">
        <ele>1664.2</ele>
        <time>2021-03-27T11:14:24Z</time>
      </trkpt>
      <trkpt lat="45.63933" lon="6.7958">
        <ele>1664.3</ele>
        <time>2021-03-27T11:14:25Z</time>
      </trkpt>
      <trkpt lat="45.63934" lon="6.79579">
        <ele>1664.5</ele>
        <time>2021-03-27T11:14:28Z</time>
      </trkpt>
      <trkpt lat="45.63934" lon="6.79578">
        <ele>1664.6</ele>
        <time>2021-03-27T11:14:29Z</time>
      </trkpt>
      <trkpt lat="45.63935" lon="6.79577">
        <ele>1664.7</ele>
        <time>2021-03-27T11:14:30Z</time>
      </trkpt>
      <trkpt lat="45.63935" lon="6.79576">
        <ele>1664.9</ele>
        <time>2021-03-27T11:14:31Z</time>
      </trkpt>
      <trkpt lat="45.63936" lon="6.79575">
        <ele>1665</ele>
        <time>2021-03-27T11:14:32Z</time>
      </trkpt>
      <trkpt lat="45.63937" lon="6.79575">
        <ele>1665.1</ele>
        <time>2021-03-27T11:14:33Z</time>
      </trkpt>
      <trkpt lat="45.63937" lon="6.79574">
        <ele>1665.2</ele>
        <time>2021-03-27T11:14:34Z</time>
      </trkpt>
      <trkpt lat="45.63938" lon="6.79574">
        <ele>1665.3</ele>
        <time>2021-03-27T11:14:35Z</time>
      </trkpt>
      <trkpt lat="45.6394" lon="6.79573">
        <ele>1665.6</ele>
        <time>2021-03-27T11:14:36Z</time>
      </trkpt>
      <trkpt lat="45.63941" lon="6.79573">
        <ele>1665.8</ele>
        <time>2021-03-27T11:14:37Z</time>
      </trkpt>
      <trkpt lat="45.63942" lon="6.79573">
        <ele>1665.9</ele>
        <time>2021-03-27T11:14:38Z</time>
      </trkpt>
      <trkpt lat="45.63943" lon="6.79572">
        <ele>1666.1</ele>
        <time>2021-03-27T11:14:39Z</time>
      </trkpt>
      <trkpt lat="45.63943" lon="6.79572">
        <ele>1666.2</ele>
        <time>2021-03-27T11:14:40Z</time>
      </trkpt>
      <trkpt lat="45.63944" lon="6.79571">
        <ele>1666.3</ele>
        <time>2021-03-27T11:14:41Z</time>
      </trkpt>
      <trkpt lat="45.63945" lon="6.79571">
        <ele>1666.4</ele>
        <time>2021-03-27T11:14:42Z</time>
      </trkpt>
      <trkpt lat="45.63945" lon="6.7957">
        <ele>1666.5</ele>
        <time>2021-03-27T11:14:43Z</time>
      </trkpt>
      <trkpt lat="45.63945" lon="6.79569">
        <ele>1666.6</ele>
        <time>2021-03-27T11:14:44Z</time>
      </trkpt>
      <trkpt lat="45.63945" lon="6.79569">
        <ele>1666.7</ele>
        <time>2021-03-27T11:14:45Z</time>
      </trkpt>
      <trkpt lat="45.63946" lon="6.79568">
        <ele>1666.8</ele>
        <time>2021-03-27T11:14:46Z</time>
      </trkpt>
      <trkpt lat="45.63946" lon="6.79567">
        <ele>1666.9</ele>
        <time>2021-03-27T11:14:47Z</time>
      </trkpt>
      <trkpt lat="45.63946" lon="6.79566">
        <ele>1666.9</ele>
        <time>2021-03-27T11:14:48Z</time>
      </trkpt>
      <trkpt lat="45.63946" lon="6.79566">
        <ele>1667</ele>
        <time>2021-03-27T11:14:49Z</time>
      </trkpt>
      <trkpt lat="45.63947" lon="6.79566">
        <ele>1667.1</ele>
        <time>2021-03-27T11:14:50Z</time>
      </trkpt>
      <trkpt lat="45.63947" lon="6.79565">
        <ele>1667.2</ele>
        <time>2021-03-27T11:14:51Z</time>
      </trkpt>
      <trkpt lat="45.63948" lon="6.79565">
        <ele>1667.2</ele>
        <time>2021-03-27T11:14:52Z</time>
      </trkpt>
      <trkpt lat="45.63949" lon="6.79565">
        <ele>1667.2</ele>
        <time>2021-03-27T11:14:53Z</time>
      </trkpt>
      <trkpt lat="45.63949" lon="6.79565">
        <ele>1669</ele>
        <time>2021-03-27T11:14:54Z</time>
      </trkpt>
      <trkpt lat="45.63949" lon="6.79565">
        <ele>1669</ele>
        <time>2021-03-27T11:14:55Z</time>
      </trkpt>
      <trkpt lat="45.63949" lon="6.79565">
        <ele>1669</ele>
        <time>2021-03-27T11:14:56Z</time>
      </trkpt>
      <trkpt lat="45.63949" lon="6.79565">
        <ele>1669</ele>
        <time>2021-03-27T11:14:57Z</time>
      </trkpt>
      <trkpt lat="45.63949" lon="6.79565">
        <ele>1669</ele>
        <time>2021-03-27T11:14:58Z</time>
      </trkpt>
      <trkpt lat="45.63949" lon="6.79565">
        <ele>1669</ele>
        <time>2021-03-27T11:14:59Z</time>
      </trkpt>
      <trkpt lat="45.63949" lon="6.79565">
        <ele>1669</ele>
        <time>2021-03-27T11:15:00Z</time>
      </trkpt>
      <trkpt lat="45.63949" lon="6.79564">
        <ele>1668.3</ele>
        <time>2021-03-27T11:15:01Z</time>
      </trkpt>
      <trkpt lat="45.6395" lon="6.79564">
        <ele>1668.3</ele>
        <time>2021-03-27T11:15:02Z</time>
      </trkpt>
      <trkpt lat="45.6395" lon="6.79563">
        <ele>1668.3</ele>
        <time>2021-03-27T11:15:03Z</time>
      </trkpt>
      <trkpt lat="45.6395" lon="6.79563">
        <ele>1668.3</ele>
        <time>2021-03-27T11:15:04Z</time>
      </trkpt>
      <trkpt lat="45.63949" lon="6.79558">
        <ele>1667.6</ele>
        <time>2021-03-27T11:16:59Z</time>
      </trkpt>
      <trkpt lat="45.63949" lon="6.79559">
        <ele>1665.8</ele>
        <time>2021-03-27T11:17:00Z</time>
      </trkpt>
      <trkpt lat="45.63948" lon="6.7956">
        <ele>1665.8</ele>
        <time>2021-03-27T11:17:01Z</time>
      </trkpt>
      <trkpt lat="45.63948" lon="6.7956">
        <ele>1665.8</ele>
        <time>2021-03-27T11:17:02Z</time>
      </trkpt>
      <trkpt lat="45.63947" lon="6.79561">
        <ele>1666.5</ele>
        <time>2021-03-27T11:17:03Z</time>
      </trkpt>
      <trkpt lat="45.63947" lon="6.79561">
        <ele>1666.5</ele>
        <time>2021-03-27T11:17:04Z</time>
      </trkpt>
      <trkpt lat="45.63946" lon="6.79561">
        <ele>1666.5</ele>
        <time>2021-03-27T11:17:05Z</time>
      </trkpt>
      <trkpt lat="45.63945" lon="6.79561">
        <ele>1664.7</ele>
        <time>2021-03-27T11:17:06Z</time>
      </trkpt>
      <trkpt lat="45.63944" lon="6.79561">
        <ele>1664.7</ele>
        <time>2021-03-27T11:17:07Z</time>
      </trkpt>
      <trkpt lat="45.63944" lon="6.79561">
        <ele>1664.7</ele>
        <time>2021-03-27T11:17:08Z</time>
      </trkpt>
      <trkpt lat="45.63943" lon="6.79561">
        <ele>1664.7</ele>
        <time>2021-03-27T11:17:09Z</time>
      </trkpt>
      <trkpt lat="45.63943" lon="6.79563">
        <ele>1662.9</ele>
        <time>2021-03-27T11:17:10Z</time>
      </trkpt>
      <trkpt lat="45.63942" lon="6.79565">
        <ele>1663.5</ele>
        <time>2021-03-27T11:17:11Z</time>
      </trkpt>
      <trkpt lat="45.63943" lon="6.79567">
        <ele>1665.3</ele>
        <time>2021-03-27T11:17:12Z</time>
      </trkpt>
      <trkpt lat="45.63943" lon="6.79567">
        <ele>1665.3</ele>
        <time>2021-03-27T11:17:13Z</time>
      </trkpt>
      <trkpt lat="45.63944" lon="6.79568">
        <ele>1665.3</ele>
        <time>2021-03-27T11:17:14Z</time>
      </trkpt>
      <trkpt lat="45.63944" lon="6.79568">
        <ele>1665.3</ele>
        <time>2021-03-27T11:17:15Z</time>
      </trkpt>
      <trkpt lat="45.63944" lon="6.79569">
        <ele>1666</ele>
        <time>2021-03-27T11:17:16Z</time>
      </trkpt>
      <trkpt lat="45.63944" lon="6.7957">
        <ele>1666</ele>
        <time>2021-03-27T11:17:17Z</time>
      </trkpt>
      <trkpt lat="45.63945" lon="6.7957">
        <ele>1666</ele>
        <time>2021-03-27T11:17:18Z</time>
      </trkpt>
      <trkpt lat="45.63945" lon="6.79571">
        <ele>1666</ele>
        <time>2021-03-27T11:17:19Z</time>
      </trkpt>
      <trkpt lat="45.63945" lon="6.79571">
        <ele>1666</ele>
        <time>2021-03-27T11:17:20Z</time>
      </trkpt>
      <trkpt lat="45.63945" lon="6.79572">
        <ele>1666</ele>
        <time>2021-03-27T11:17:21Z</time>
      </trkpt>
      <trkpt lat="45.63946" lon="6.79572">
        <ele>1666</ele>
        <time>2021-03-27T11:17:22Z</time>
      </trkpt>
      <trkpt lat="45.63946" lon="6.79573">
        <ele>1666</ele>
        <time>2021-03-27T11:17:23Z</time>
      </trkpt>
      <trkpt lat="45.63946" lon="6.79574">
        <ele>1668.4</ele>
        <time>2021-03-27T11:17:26Z</time>
      </trkpt>
      <trkpt lat="45.63946" lon="6.79574">
        <ele>1668.4</ele>
        <time>2021-03-27T11:17:27Z</time>
      </trkpt>
      <trkpt lat="45.63947" lon="6.79575">
        <ele>1668.4</ele>
        <time>2021-03-27T11:17:28Z</time>
      </trkpt>
      <trkpt lat="45.63947" lon="6.79575">
        <ele>1668.4</ele>
        <time>2021-03-27T11:17:29Z</time>
      </trkpt>
      <trkpt lat="45.63947" lon="6.79576">
        <ele>1668.4</ele>
        <time>2021-03-27T11:17:30Z</time>
      </trkpt>
      <trkpt lat="45.63947" lon="6.79576">
        <ele>1668.4</ele>
        <time>2021-03-27T11:17:31Z</time>
      </trkpt>
      <trkpt lat="45.63947" lon="6.79577">
        <ele>1668.4</ele>
        <time>2021-03-27T11:17:32Z</time>
      </trkpt>
      <trkpt lat="45.63948" lon="6.79577">
        <ele>1668.4</ele>
        <time>2021-03-27T11:17:33Z</time>
      </trkpt>
      <trkpt lat="45.63948" lon="6.79578">
        <ele>1669</ele>
        <time>2021-03-27T11:17:34Z</time>
      </trkpt>
      <trkpt lat="45.63948" lon="6.79578">
        <ele>1669</ele>
        <time>2021-03-27T11:17:35Z</time>
      </trkpt>
      <trkpt lat="45.63948" lon="6.79579">
        <ele>1669</ele>
        <time>2021-03-27T11:17:36Z</time>
      </trkpt>
      <trkpt lat="45.63948" lon="6.7958">
        <ele>1669</ele>
        <time>2021-03-27T11:17:37Z</time>
      </trkpt>
      <trkpt lat="45.63949" lon="6.79581">
        <ele>1669</ele>
        <time>2021-03-27T11:17:38Z</time>
      </trkpt>
      <trkpt lat="45.63949" lon="6.79583">
        <ele>1671.4</ele>
        <time>2021-03-27T11:17:39Z</time>
      </trkpt>
      <trkpt lat="45.63949" lon="6.79583">
        <ele>1671.4</ele>
        <time>2021-03-27T11:17:40Z</time>
      </trkpt>
      <trkpt lat="45.63949" lon="6.79585">
        <ele>1671.4</ele>
        <time>2021-03-27T11:17:41Z</time>
      </trkpt>
      <trkpt lat="45.63949" lon="6.79586">
        <ele>1671.4</ele>
        <time>2021-03-27T11:17:42Z</time>
      </trkpt>
      <trkpt lat="45.63949" lon="6.79586">
        <ele>1670</ele>
        <time>2021-03-27T11:17:43Z</time>
      </trkpt>
      <trkpt lat="45.63949" lon="6.79586">
        <ele>1670</ele>
        <time>2021-03-27T11:17:44Z</time>
      </trkpt>
      <trkpt lat="45.63948" lon="6.79587">
        <ele>1670</ele>
        <time>2021-03-27T11:17:45Z</time>
      </trkpt>
      <trkpt lat="45.63948" lon="6.79588">
        <ele>1670</ele>
        <time>2021-03-27T11:17:46Z</time>
      </trkpt>
      <trkpt lat="45.63947" lon="6.79588">
        <ele>1670</ele>
        <time>2021-03-27T11:17:47Z</time>
      </trkpt>
      <trkpt lat="45.63946" lon="6.79589">
        <ele>1670</ele>
        <time>2021-03-27T11:17:48Z</time>
      </trkpt>
      <trkpt lat="45.63945" lon="6.79589">
        <ele>1668.1</ele>
        <time>2021-03-27T11:17:49Z</time>
      </trkpt>
      <trkpt lat="45.63945" lon="6.7959">
        <ele>1668.1</ele>
        <time>2021-03-27T11:17:50Z</time>
      </trkpt>
      <trkpt lat="45.63944" lon="6.79591">
        <ele>1668.6</ele>
        <time>2021-03-27T11:17:51Z</time>
      </trkpt>
      <trkpt lat="45.63944" lon="6.79593">
        <ele>1668.6</ele>
        <time>2021-03-27T11:17:52Z</time>
      </trkpt>
      <trkpt lat="45.63944" lon="6.79595">
        <ele>1669.1</ele>
        <time>2021-03-27T11:17:53Z</time>
      </trkpt>
      <trkpt lat="45.63944" lon="6.79597">
        <ele>1669.1</ele>
        <time>2021-03-27T11:17:54Z</time>
      </trkpt>
      <trkpt lat="45.63944" lon="6.79599">
        <ele>1669.1</ele>
        <time>2021-03-27T11:17:55Z</time>
      </trkpt>
      <trkpt lat="45.63944" lon="6.79601">
        <ele>1669.6</ele>
        <time>2021-03-27T11:17:56Z</time>
      </trkpt>
      <trkpt lat="45.63944" lon="6.79602">
        <ele>1669.6</ele>
        <time>2021-03-27T11:17:57Z</time>
      </trkpt>
      <trkpt lat="45.63945" lon="6.79604">
        <ele>1669.9</ele>
        <time>2021-03-27T11:18:12Z</time>
      </trkpt>
      <trkpt lat="45.63945" lon="6.79606">
        <ele>1669.9</ele>
        <time>2021-03-27T11:18:13Z</time>
      </trkpt>
      <trkpt lat="45.63945" lon="6.79608">
        <ele>1670.3</ele>
        <time>2021-03-27T11:18:14Z</time>
      </trkpt>
      <trkpt lat="45.63945" lon="6.7961">
        <ele>1670.3</ele>
        <time>2021-03-27T11:18:15Z</time>
      </trkpt>
      <trkpt lat="45.63945" lon="6.79612">
        <ele>1670.6</ele>
        <time>2021-03-27T11:18:16Z</time>
      </trkpt>
      <trkpt lat="45.63945" lon="6.79613">
        <ele>1670.6</ele>
        <time>2021-03-27T11:18:17Z</time>
      </trkpt>
      <trkpt lat="45.63945" lon="6.79613">
        <ele>1670.6</ele>
        <time>2021-03-27T11:18:18Z</time>
      </trkpt>
      <trkpt lat="45.63945" lon="6.79614">
        <ele>1670.6</ele>
        <time>2021-03-27T11:18:19Z</time>
      </trkpt>
      <trkpt lat="45.63945" lon="6.79615">
        <ele>1670.6</ele>
        <time>2021-03-27T11:18:20Z</time>
      </trkpt>
      <trkpt lat="45.63944" lon="6.79615">
        <ele>1670.6</ele>
        <time>2021-03-27T11:18:21Z</time>
      </trkpt>
      <trkpt lat="45.63945" lon="6.79616">
        <ele>1670.8</ele>
        <time>2021-03-27T11:18:22Z</time>
      </trkpt>
      <trkpt lat="45.63945" lon="6.79617">
        <ele>1670.8</ele>
        <time>2021-03-27T11:18:23Z</time>
      </trkpt>
      <trkpt lat="45.63945" lon="6.79619">
        <ele>1670.8</ele>
        <time>2021-03-27T11:18:24Z</time>
      </trkpt>
      <trkpt lat="45.63946" lon="6.7962">
        <ele>1670.8</ele>
        <time>2021-03-27T11:18:25Z</time>
      </trkpt>
      <trkpt lat="45.63946" lon="6.79621">
        <ele>1673</ele>
        <time>2021-03-27T11:18:26Z</time>
      </trkpt>
      <trkpt lat="45.63946" lon="6.79623">
        <ele>1673</ele>
        <time>2021-03-27T11:18:27Z</time>
      </trkpt>
      <trkpt lat="45.63947" lon="6.79624">
        <ele>1673</ele>
        <time>2021-03-27T11:18:28Z</time>
      </trkpt>
      <trkpt lat="45.63947" lon="6.79625">
        <ele>1673.2</ele>
        <time>2021-03-27T11:18:29Z</time>
      </trkpt>
      <trkpt lat="45.63947" lon="6.79626">
        <ele>1673.2</ele>
        <time>2021-03-27T11:18:30Z</time>
      </trkpt>
      <trkpt lat="45.63947" lon="6.79627">
        <ele>1673.2</ele>
        <time>2021-03-27T11:18:31Z</time>
      </trkpt>
      <trkpt lat="45.63948" lon="6.79629">
        <ele>1673.2</ele>
        <time>2021-03-27T11:18:32Z</time>
      </trkpt>
      <trkpt lat="45.63948" lon="6.7963">
        <ele>1673.4</ele>
        <time>2021-03-27T11:18:33Z</time>
      </trkpt>
      <trkpt lat="45.63948" lon="6.79631">
        <ele>1673.4</ele>
        <time>2021-03-27T11:18:34Z</time>
      </trkpt>
      <trkpt lat="45.63948" lon="6.79633">
        <ele>1673.4</ele>
        <time>2021-03-27T11:18:35Z</time>
      </trkpt>
      <trkpt lat="45.63949" lon="6.79635">
        <ele>1675.4</ele>
        <time>2021-03-27T11:18:36Z</time>
      </trkpt>
      <trkpt lat="45.63949" lon="6.79636">
        <ele>1675.4</ele>
        <time>2021-03-27T11:18:37Z</time>
      </trkpt>
      <trkpt lat="45.6395" lon="6.79637">
        <ele>1675.4</ele>
        <time>2021-03-27T11:18:38Z</time>
      </trkpt>
      <trkpt lat="45.6395" lon="6.79638">
        <ele>1675.6</ele>
        <time>2021-03-27T11:18:39Z</time>
      </trkpt>
      <trkpt lat="45.6395" lon="6.79639">
        <ele>1675.6</ele>
        <time>2021-03-27T11:18:40Z</time>
      </trkpt>
      <trkpt lat="45.6395" lon="6.7964">
        <ele>1675.6</ele>
        <time>2021-03-27T11:18:41Z</time>
      </trkpt>
      <trkpt lat="45.63951" lon="6.79641">
        <ele>1675.6</ele>
        <time>2021-03-27T11:18:42Z</time>
      </trkpt>
      <trkpt lat="45.63951" lon="6.79642">
        <ele>1675.8</ele>
        <time>2021-03-27T11:18:43Z</time>
      </trkpt>
      <trkpt lat="45.63951" lon="6.79643">
        <ele>1675.8</ele>
        <time>2021-03-27T11:18:44Z</time>
      </trkpt>
      <trkpt lat="45.63952" lon="6.79644">
        <ele>1675.8</ele>
        <time>2021-03-27T11:18:45Z</time>
      </trkpt>
      <trkpt lat="45.63952" lon="6.79645">
        <ele>1677.6</ele>
        <time>2021-03-27T11:18:46Z</time>
      </trkpt>
      <trkpt lat="45.63952" lon="6.79646">
        <ele>1677.6</ele>
        <time>2021-03-27T11:18:47Z</time>
      </trkpt>
      <trkpt lat="45.63953" lon="6.79647">
        <ele>1677.8</ele>
        <time>2021-03-27T11:18:48Z</time>
      </trkpt>
      <trkpt lat="45.63953" lon="6.79648">
        <ele>1677.8</ele>
        <time>2021-03-27T11:18:49Z</time>
      </trkpt>
      <trkpt lat="45.63953" lon="6.79649">
        <ele>1677.8</ele>
        <time>2021-03-27T11:18:50Z</time>
      </trkpt>
      <trkpt lat="45.63954" lon="6.79651">
        <ele>1678</ele>
        <time>2021-03-27T11:18:51Z</time>
      </trkpt>
      <trkpt lat="45.63954" lon="6.79652">
        <ele>1678</ele>
        <time>2021-03-27T11:18:52Z</time>
      </trkpt>
      <trkpt lat="45.63954" lon="6.79653">
        <ele>1678</ele>
        <time>2021-03-27T11:18:53Z</time>
      </trkpt>
      <trkpt lat="45.63955" lon="6.79654">
        <ele>1679.6</ele>
        <time>2021-03-27T11:18:54Z</time>
      </trkpt>
      <trkpt lat="45.63955" lon="6.79654">
        <ele>1679.6</ele>
        <time>2021-03-27T11:18:55Z</time>
      </trkpt>
      <trkpt lat="45.63955" lon="6.79655">
        <ele>1679.8</ele>
        <time>2021-03-27T11:18:56Z</time>
      </trkpt>
      <trkpt lat="45.63955" lon="6.79656">
        <ele>1679.8</ele>
        <time>2021-03-27T11:18:57Z</time>
      </trkpt>
      <trkpt lat="45.63955" lon="6.79656">
        <ele>1679.8</ele>
        <time>2021-03-27T11:18:58Z</time>
      </trkpt>
      <trkpt lat="45.63956" lon="6.79657">
        <ele>1679.8</ele>
        <time>2021-03-27T11:18:59Z</time>
      </trkpt>
      <trkpt lat="45.63956" lon="6.79658">
        <ele>1679.8</ele>
        <time>2021-03-27T11:19:00Z</time>
      </trkpt>
      <trkpt lat="45.63956" lon="6.79659">
        <ele>1679.9</ele>
        <time>2021-03-27T11:19:01Z</time>
      </trkpt>
      <trkpt lat="45.63956" lon="6.7966">
        <ele>1679.9</ele>
        <time>2021-03-27T11:19:02Z</time>
      </trkpt>
      <trkpt lat="45.63957" lon="6.7966">
        <ele>1679.9</ele>
        <time>2021-03-27T11:19:03Z</time>
      </trkpt>
      <trkpt lat="45.63957" lon="6.79661">
        <ele>1679.9</ele>
        <time>2021-03-27T11:19:04Z</time>
      </trkpt>
      <trkpt lat="45.63958" lon="6.79662">
        <ele>1681.5</ele>
        <time>2021-03-27T11:19:05Z</time>
      </trkpt>
      <trkpt lat="45.63958" lon="6.79662">
        <ele>1681.5</ele>
        <time>2021-03-27T11:19:06Z</time>
      </trkpt>
      <trkpt lat="45.63959" lon="6.79663">
        <ele>1681.5</ele>
        <time>2021-03-27T11:19:07Z</time>
      </trkpt>
      <trkpt lat="45.63959" lon="6.79663">
        <ele>1681.5</ele>
        <time>2021-03-27T11:19:08Z</time>
      </trkpt>
      <trkpt lat="45.6396" lon="6.79664">
        <ele>1681.6</ele>
        <time>2021-03-27T11:19:09Z</time>
      </trkpt>
      <trkpt lat="45.63961" lon="6.79665">
        <ele>1681.6</ele>
        <time>2021-03-27T11:19:10Z</time>
      </trkpt>
      <trkpt lat="45.63961" lon="6.79666">
        <ele>1683.2</ele>
        <time>2021-03-27T11:19:11Z</time>
      </trkpt>
      <trkpt lat="45.63961" lon="6.79667">
        <ele>1683.2</ele>
        <time>2021-03-27T11:19:12Z</time>
      </trkpt>
      <trkpt lat="45.63961" lon="6.79668">
        <ele>1683.3</ele>
        <time>2021-03-27T11:19:13Z</time>
      </trkpt>
      <trkpt lat="45.63961" lon="6.79669">
        <ele>1683.3</ele>
        <time>2021-03-27T11:19:14Z</time>
      </trkpt>
      <trkpt lat="45.63962" lon="6.7967">
        <ele>1683.3</ele>
        <time>2021-03-27T11:19:15Z</time>
      </trkpt>
      <trkpt lat="45.63962" lon="6.7967">
        <ele>1683.3</ele>
        <time>2021-03-27T11:19:16Z</time>
      </trkpt>
      <trkpt lat="45.63962" lon="6.7967">
        <ele>1683.3</ele>
        <time>2021-03-27T11:19:17Z</time>
      </trkpt>
      <trkpt lat="45.63962" lon="6.79671">
        <ele>1683.3</ele>
        <time>2021-03-27T11:19:18Z</time>
      </trkpt>
      <trkpt lat="45.63962" lon="6.79672">
        <ele>1683.4</ele>
        <time>2021-03-27T11:19:19Z</time>
      </trkpt>
      <trkpt lat="45.63963" lon="6.79673">
        <ele>1683.4</ele>
        <time>2021-03-27T11:19:20Z</time>
      </trkpt>
      <trkpt lat="45.63964" lon="6.79674">
        <ele>1683.4</ele>
        <time>2021-03-27T11:19:21Z</time>
      </trkpt>
      <trkpt lat="45.63964" lon="6.79675">
        <ele>1685.1</ele>
        <time>2021-03-27T11:19:22Z</time>
      </trkpt>
      <trkpt lat="45.63965" lon="6.79676">
        <ele>1685.1</ele>
        <time>2021-03-27T11:19:23Z</time>
      </trkpt>
      <trkpt lat="45.63965" lon="6.79676">
        <ele>1685.1</ele>
        <time>2021-03-27T11:19:24Z</time>
      </trkpt>
      <trkpt lat="45.63966" lon="6.79677">
        <ele>1685.1</ele>
        <time>2021-03-27T11:19:25Z</time>
      </trkpt>
      <trkpt lat="45.63966" lon="6.79678">
        <ele>1685.1</ele>
        <time>2021-03-27T11:19:26Z</time>
      </trkpt>
      <trkpt lat="45.63966" lon="6.79679">
        <ele>1685.1</ele>
        <time>2021-03-27T11:19:27Z</time>
      </trkpt>
      <trkpt lat="45.63966" lon="6.7968">
        <ele>1685.1</ele>
        <time>2021-03-27T11:19:28Z</time>
      </trkpt>
      <trkpt lat="45.63967" lon="6.79681">
        <ele>1685.2</ele>
        <time>2021-03-27T11:19:29Z</time>
      </trkpt>
      <trkpt lat="45.63967" lon="6.79681">
        <ele>1687</ele>
        <time>2021-03-27T11:19:30Z</time>
      </trkpt>
      <trkpt lat="45.63967" lon="6.79682">
        <ele>1687</ele>
        <time>2021-03-27T11:19:31Z</time>
      </trkpt>
      <trkpt lat="45.63967" lon="6.79683">
        <ele>1687</ele>
        <time>2021-03-27T11:19:32Z</time>
      </trkpt>
      <trkpt lat="45.63967" lon="6.79684">
        <ele>1687</ele>
        <time>2021-03-27T11:19:33Z</time>
      </trkpt>
      <trkpt lat="45.63967" lon="6.79684">
        <ele>1687</ele>
        <time>2021-03-27T11:19:34Z</time>
      </trkpt>
      <trkpt lat="45.63968" lon="6.79685">
        <ele>1687</ele>
        <time>2021-03-27T11:19:35Z</time>
      </trkpt>
      <trkpt lat="45.63968" lon="6.79685">
        <ele>1687</ele>
        <time>2021-03-27T11:19:36Z</time>
      </trkpt>
      <trkpt lat="45.63968" lon="6.79685">
        <ele>1687</ele>
        <time>2021-03-27T11:19:37Z</time>
      </trkpt>
      <trkpt lat="45.63968" lon="6.79686">
        <ele>1687</ele>
        <time>2021-03-27T11:19:38Z</time>
      </trkpt>
      <trkpt lat="45.63968" lon="6.79686">
        <ele>1687</ele>
        <time>2021-03-27T11:19:39Z</time>
      </trkpt>
      <trkpt lat="45.63968" lon="6.79687">
        <ele>1687</ele>
        <time>2021-03-27T11:19:40Z</time>
      </trkpt>
      <trkpt lat="45.63969" lon="6.79687">
        <ele>1687</ele>
        <time>2021-03-27T11:19:41Z</time>
      </trkpt>
      <trkpt lat="45.63969" lon="6.79688">
        <ele>1687</ele>
        <time>2021-03-27T11:19:42Z</time>
      </trkpt>
      <trkpt lat="45.63969" lon="6.79688">
        <ele>1687</ele>
        <time>2021-03-27T11:19:43Z</time>
      </trkpt>
      <trkpt lat="45.6397" lon="6.79689">
        <ele>1687</ele>
        <time>2021-03-27T11:19:44Z</time>
      </trkpt>
      <trkpt lat="45.6397" lon="6.7969">
        <ele>1688.9</ele>
        <time>2021-03-27T11:19:45Z</time>
      </trkpt>
      <trkpt lat="45.6397" lon="6.79691">
        <ele>1688.9</ele>
        <time>2021-03-27T11:19:46Z</time>
      </trkpt>
      <trkpt lat="45.63971" lon="6.79692">
        <ele>1688.9</ele>
        <time>2021-03-27T11:19:47Z</time>
      </trkpt>
      <trkpt lat="45.63971" lon="6.79693">
        <ele>1688.9</ele>
        <time>2021-03-27T11:19:48Z</time>
      </trkpt>
      <trkpt lat="45.63972" lon="6.79694">
        <ele>1688.8</ele>
        <time>2021-03-27T11:19:49Z</time>
      </trkpt>
      <trkpt lat="45.63972" lon="6.79695">
        <ele>1688.8</ele>
        <time>2021-03-27T11:19:50Z</time>
      </trkpt>
      <trkpt lat="45.63973" lon="6.79696">
        <ele>1688.8</ele>
        <time>2021-03-27T11:19:51Z</time>
      </trkpt>
      <trkpt lat="45.63974" lon="6.79697">
        <ele>1690.8</ele>
        <time>2021-03-27T11:19:52Z</time>
      </trkpt>
      <trkpt lat="45.63974" lon="6.79698">
        <ele>1690.8</ele>
        <time>2021-03-27T11:19:53Z</time>
      </trkpt>
      <trkpt lat="45.63975" lon="6.79698">
        <ele>1690.7</ele>
        <time>2021-03-27T11:19:54Z</time>
      </trkpt>
      <trkpt lat="45.63975" lon="6.79699">
        <ele>1690.7</ele>
        <time>2021-03-27T11:19:55Z</time>
      </trkpt>
      <trkpt lat="45.63976" lon="6.797">
        <ele>1690.7</ele>
        <time>2021-03-27T11:19:56Z</time>
      </trkpt>
      <trkpt lat="45.63976" lon="6.79701">
        <ele>1692.6</ele>
        <time>2021-03-27T11:19:57Z</time>
      </trkpt>
      <trkpt lat="45.63977" lon="6.79702">
        <ele>1692.6</ele>
        <time>2021-03-27T11:19:58Z</time>
      </trkpt>
      <trkpt lat="45.63977" lon="6.79703">
        <ele>1692.5</ele>
        <time>2021-03-27T11:19:59Z</time>
      </trkpt>
      <trkpt lat="45.63977" lon="6.79704">
        <ele>1692.5</ele>
        <time>2021-03-27T11:20:00Z</time>
      </trkpt>
      <trkpt lat="45.63977" lon="6.79705">
        <ele>1692.5</ele>
        <time>2021-03-27T11:20:01Z</time>
      </trkpt>
      <trkpt lat="45.63978" lon="6.79706">
        <ele>1692.4</ele>
        <time>2021-03-27T11:20:02Z</time>
      </trkpt>
      <trkpt lat="45.63978" lon="6.79707">
        <ele>1692.4</ele>
        <time>2021-03-27T11:20:03Z</time>
      </trkpt>
      <trkpt lat="45.63978" lon="6.79708">
        <ele>1692.4</ele>
        <time>2021-03-27T11:20:04Z</time>
      </trkpt>
      <trkpt lat="45.63978" lon="6.79709">
        <ele>1692.4</ele>
        <time>2021-03-27T11:20:05Z</time>
      </trkpt>
      <trkpt lat="45.63979" lon="6.7971">
        <ele>1692.4</ele>
        <time>2021-03-27T11:20:06Z</time>
      </trkpt>
      <trkpt lat="45.63979" lon="6.79711">
        <ele>1692.3</ele>
        <time>2021-03-27T11:20:07Z</time>
      </trkpt>
      <trkpt lat="45.63979" lon="6.79712">
        <ele>1694</ele>
        <time>2021-03-27T11:20:08Z</time>
      </trkpt>
      <trkpt lat="45.63979" lon="6.79713">
        <ele>1694</ele>
        <time>2021-03-27T11:20:09Z</time>
      </trkpt>
      <trkpt lat="45.63979" lon="6.79714">
        <ele>1694</ele>
        <time>2021-03-27T11:20:10Z</time>
      </trkpt>
      <trkpt lat="45.63979" lon="6.79715">
        <ele>1693.9</ele>
        <time>2021-03-27T11:20:11Z</time>
      </trkpt>
      <trkpt lat="45.6398" lon="6.79716">
        <ele>1693.9</ele>
        <time>2021-03-27T11:20:12Z</time>
      </trkpt>
      <trkpt lat="45.6398" lon="6.79717">
        <ele>1693.9</ele>
        <time>2021-03-27T11:20:13Z</time>
      </trkpt>
      <trkpt lat="45.6398" lon="6.79717">
        <ele>1693.9</ele>
        <time>2021-03-27T11:20:14Z</time>
      </trkpt>
      <trkpt lat="45.6398" lon="6.79718">
        <ele>1693.9</ele>
        <time>2021-03-27T11:20:15Z</time>
      </trkpt>
      <trkpt lat="45.6398" lon="6.79719">
        <ele>1693.8</ele>
        <time>2021-03-27T11:20:16Z</time>
      </trkpt>
      <trkpt lat="45.63981" lon="6.7972">
        <ele>1693.8</ele>
        <time>2021-03-27T11:20:17Z</time>
      </trkpt>
      <trkpt lat="45.63981" lon="6.79722">
        <ele>1693.8</ele>
        <time>2021-03-27T11:20:18Z</time>
      </trkpt>
      <trkpt lat="45.63981" lon="6.79723">
        <ele>1693.8</ele>
        <time>2021-03-27T11:20:19Z</time>
      </trkpt>
      <trkpt lat="45.63982" lon="6.79723">
        <ele>1695.3</ele>
        <time>2021-03-27T11:20:20Z</time>
      </trkpt>
      <trkpt lat="45.63982" lon="6.79724">
        <ele>1695.2</ele>
        <time>2021-03-27T11:20:21Z</time>
      </trkpt>
      <trkpt lat="45.63983" lon="6.79725">
        <ele>1695.2</ele>
        <time>2021-03-27T11:20:22Z</time>
      </trkpt>
      <trkpt lat="45.63984" lon="6.79726">
        <ele>1695.2</ele>
        <time>2021-03-27T11:20:23Z</time>
      </trkpt>
      <trkpt lat="45.63984" lon="6.79727">
        <ele>1695.2</ele>
        <time>2021-03-27T11:20:24Z</time>
      </trkpt>
      <trkpt lat="45.63984" lon="6.79728">
        <ele>1695.1</ele>
        <time>2021-03-27T11:20:25Z</time>
      </trkpt>
      <trkpt lat="45.63985" lon="6.79729">
        <ele>1696.5</ele>
        <time>2021-03-27T11:20:26Z</time>
      </trkpt>
      <trkpt lat="45.63985" lon="6.7973">
        <ele>1696.5</ele>
        <time>2021-03-27T11:20:27Z</time>
      </trkpt>
      <trkpt lat="45.63986" lon="6.7973">
        <ele>1696.5</ele>
        <time>2021-03-27T11:20:28Z</time>
      </trkpt>
      <trkpt lat="45.63986" lon="6.79731">
        <ele>1696.5</ele>
        <time>2021-03-27T11:20:29Z</time>
      </trkpt>
      <trkpt lat="45.63987" lon="6.79732">
        <ele>1696.5</ele>
        <time>2021-03-27T11:20:30Z</time>
      </trkpt>
      <trkpt lat="45.63988" lon="6.79733">
        <ele>1697.9</ele>
        <time>2021-03-27T11:20:31Z</time>
      </trkpt>
      <trkpt lat="45.63988" lon="6.79734">
        <ele>1697.9</ele>
        <time>2021-03-27T11:20:32Z</time>
      </trkpt>
      <trkpt lat="45.63989" lon="6.79735">
        <ele>1697.9</ele>
        <time>2021-03-27T11:20:33Z</time>
      </trkpt>
      <trkpt lat="45.63989" lon="6.79735">
        <ele>1697.9</ele>
        <time>2021-03-27T11:20:34Z</time>
      </trkpt>
      <trkpt lat="45.6399" lon="6.79736">
        <ele>1697.9</ele>
        <time>2021-03-27T11:20:35Z</time>
      </trkpt>
      <trkpt lat="45.63991" lon="6.79737">
        <ele>1697.8</ele>
        <time>2021-03-27T11:20:36Z</time>
      </trkpt>
      <trkpt lat="45.63991" lon="6.79737">
        <ele>1699.4</ele>
        <time>2021-03-27T11:20:37Z</time>
      </trkpt>
      <trkpt lat="45.63992" lon="6.79738">
        <ele>1699.4</ele>
        <time>2021-03-27T11:20:38Z</time>
      </trkpt>
      <trkpt lat="45.63992" lon="6.79739">
        <ele>1699.4</ele>
        <time>2021-03-27T11:20:39Z</time>
      </trkpt>
      <trkpt lat="45.63993" lon="6.7974">
        <ele>1699.4</ele>
        <time>2021-03-27T11:20:40Z</time>
      </trkpt>
      <trkpt lat="45.63993" lon="6.7974">
        <ele>1699.4</ele>
        <time>2021-03-27T11:20:41Z</time>
      </trkpt>
      <trkpt lat="45.63994" lon="6.79741">
        <ele>1699.3</ele>
        <time>2021-03-27T11:20:42Z</time>
      </trkpt>
      <trkpt lat="45.63994" lon="6.79742">
        <ele>1701.1</ele>
        <time>2021-03-27T11:20:43Z</time>
      </trkpt>
      <trkpt lat="45.63995" lon="6.79743">
        <ele>1701.1</ele>
        <time>2021-03-27T11:20:44Z</time>
      </trkpt>
      <trkpt lat="45.63995" lon="6.79743">
        <ele>1701.1</ele>
        <time>2021-03-27T11:24:16Z</time>
      </trkpt>
      <trkpt lat="45.63996" lon="6.79744">
        <ele>1701.1</ele>
        <time>2021-03-27T11:24:17Z</time>
      </trkpt>
      <trkpt lat="45.63996" lon="6.79745">
        <ele>1701.1</ele>
        <time>2021-03-27T11:24:18Z</time>
      </trkpt>
      <trkpt lat="45.63997" lon="6.79746">
        <ele>1702.8</ele>
        <time>2021-03-27T11:24:19Z</time>
      </trkpt>
      <trkpt lat="45.63998" lon="6.79747">
        <ele>1702.8</ele>
        <time>2021-03-27T11:24:20Z</time>
      </trkpt>
      <trkpt lat="45.63999" lon="6.79749">
        <ele>1702.8</ele>
        <time>2021-03-27T11:24:21Z</time>
      </trkpt>
      <trkpt lat="45.64" lon="6.79751">
        <ele>1702.7</ele>
        <time>2021-03-27T11:24:22Z</time>
      </trkpt>
      <trkpt lat="45.64" lon="6.79752">
        <ele>1704.5</ele>
        <time>2021-03-27T11:24:23Z</time>
      </trkpt>
      <trkpt lat="45.64" lon="6.79752">
        <ele>1704.5</ele>
        <time>2021-03-27T11:24:24Z</time>
      </trkpt>
      <trkpt lat="45.64001" lon="6.79753">
        <ele>1704.5</ele>
        <time>2021-03-27T11:24:25Z</time>
      </trkpt>
      <trkpt lat="45.64001" lon="6.79754">
        <ele>1704.3</ele>
        <time>2021-03-27T11:24:26Z</time>
      </trkpt>
      <trkpt lat="45.64001" lon="6.79755">
        <ele>1704.3</ele>
        <time>2021-03-27T11:24:27Z</time>
      </trkpt>
      <trkpt lat="45.64002" lon="6.79755">
        <ele>1704.3</ele>
        <time>2021-03-27T11:24:28Z</time>
      </trkpt>
      <trkpt lat="45.64002" lon="6.79757">
        <ele>1704.3</ele>
        <time>2021-03-27T11:24:29Z</time>
      </trkpt>
      <trkpt lat="45.64003" lon="6.79758">
        <ele>1704.2</ele>
        <time>2021-03-27T11:24:30Z</time>
      </trkpt>
      <trkpt lat="45.64003" lon="6.79759">
        <ele>1705.9</ele>
        <time>2021-03-27T11:24:31Z</time>
      </trkpt>
      <trkpt lat="45.64003" lon="6.7976">
        <ele>1705.9</ele>
        <time>2021-03-27T11:24:32Z</time>
      </trkpt>
      <trkpt lat="45.64004" lon="6.79761">
        <ele>1705.9</ele>
        <time>2021-03-27T11:24:33Z</time>
      </trkpt>
      <trkpt lat="45.64004" lon="6.79762">
        <ele>1705.9</ele>
        <time>2021-03-27T11:24:34Z</time>
      </trkpt>
      <trkpt lat="45.64004" lon="6.79762">
        <ele>1705.8</ele>
        <time>2021-03-27T11:24:35Z</time>
      </trkpt>
      <trkpt lat="45.64004" lon="6.79764">
        <ele>1705.8</ele>
        <time>2021-03-27T11:24:36Z</time>
      </trkpt>
      <trkpt lat="45.64004" lon="6.79765">
        <ele>1705.8</ele>
        <time>2021-03-27T11:24:37Z</time>
      </trkpt>
      <trkpt lat="45.64004" lon="6.79765">
        <ele>1705.8</ele>
        <time>2021-03-27T11:24:38Z</time>
      </trkpt>
      <trkpt lat="45.64004" lon="6.79767">
        <ele>1705.7</ele>
        <time>2021-03-27T11:24:39Z</time>
      </trkpt>
      <trkpt lat="45.64005" lon="6.79768">
        <ele>1705.7</ele>
        <time>2021-03-27T11:24:40Z</time>
      </trkpt>
      <trkpt lat="45.64005" lon="6.79769">
        <ele>1705.7</ele>
        <time>2021-03-27T11:24:41Z</time>
      </trkpt>
      <trkpt lat="45.64006" lon="6.7977">
        <ele>1707.2</ele>
        <time>2021-03-27T11:24:42Z</time>
      </trkpt>
      <trkpt lat="45.64006" lon="6.79772">
        <ele>1707.1</ele>
        <time>2021-03-27T11:24:43Z</time>
      </trkpt>
      <trkpt lat="45.64007" lon="6.79773">
        <ele>1707.1</ele>
        <time>2021-03-27T11:24:44Z</time>
      </trkpt>
      <trkpt lat="45.64007" lon="6.79775">
        <ele>1707.1</ele>
        <time>2021-03-27T11:24:45Z</time>
      </trkpt>
      <trkpt lat="45.64007" lon="6.79776">
        <ele>1707</ele>
        <time>2021-03-27T11:24:46Z</time>
      </trkpt>
      <trkpt lat="45.64007" lon="6.79778">
        <ele>1707</ele>
        <time>2021-03-27T11:24:47Z</time>
      </trkpt>
      <trkpt lat="45.64008" lon="6.79779">
        <ele>1706.8</ele>
        <time>2021-03-27T11:24:48Z</time>
      </trkpt>
      <trkpt lat="45.64008" lon="6.79781">
        <ele>1706.8</ele>
        <time>2021-03-27T11:24:49Z</time>
      </trkpt>
      <trkpt lat="45.64008" lon="6.79782">
        <ele>1706.8</ele>
        <time>2021-03-27T11:24:50Z</time>
      </trkpt>
      <trkpt lat="45.64008" lon="6.79784">
        <ele>1706.7</ele>
        <time>2021-03-27T11:24:51Z</time>
      </trkpt>
      <trkpt lat="45.64008" lon="6.79785">
        <ele>1706.7</ele>
        <time>2021-03-27T11:24:52Z</time>
      </trkpt>
      <trkpt lat="45.64008" lon="6.79787">
        <ele>1706.7</ele>
        <time>2021-03-27T11:24:53Z</time>
      </trkpt>
      <trkpt lat="45.64008" lon="6.79788">
        <ele>1706.5</ele>
        <time>2021-03-27T11:24:54Z</time>
      </trkpt>
      <trkpt lat="45.64008" lon="6.79789">
        <ele>1706.5</ele>
        <time>2021-03-27T11:24:55Z</time>
      </trkpt>
      <trkpt lat="45.64008" lon="6.7979">
        <ele>1706.5</ele>
        <time>2021-03-27T11:24:56Z</time>
      </trkpt>
      <trkpt lat="45.64009" lon="6.79791">
        <ele>1706.5</ele>
        <time>2021-03-27T11:24:57Z</time>
      </trkpt>
      <trkpt lat="45.64009" lon="6.79792">
        <ele>1708</ele>
        <time>2021-03-27T11:24:58Z</time>
      </trkpt>
      <trkpt lat="45.64009" lon="6.79793">
        <ele>1708</ele>
        <time>2021-03-27T11:24:59Z</time>
      </trkpt>
      <trkpt lat="45.6401" lon="6.79794">
        <ele>1708</ele>
        <time>2021-03-27T11:25:00Z</time>
      </trkpt>
      <trkpt lat="45.64011" lon="6.79795">
        <ele>1708</ele>
        <time>2021-03-27T11:25:01Z</time>
      </trkpt>
      <trkpt lat="45.64011" lon="6.79795">
        <ele>1708</ele>
        <time>2021-03-27T11:25:02Z</time>
      </trkpt>
      <trkpt lat="45.64012" lon="6.79797">
        <ele>1709.4</ele>
        <time>2021-03-27T11:25:03Z</time>
      </trkpt>
      <trkpt lat="45.64012" lon="6.79798">
        <ele>1709.4</ele>
        <time>2021-03-27T11:25:04Z</time>
      </trkpt>
      <trkpt lat="45.64013" lon="6.798">
        <ele>1709.4</ele>
        <time>2021-03-27T11:25:05Z</time>
      </trkpt>
      <trkpt lat="45.64013" lon="6.79801">
        <ele>1709.3</ele>
        <time>2021-03-27T11:25:06Z</time>
      </trkpt>
      <trkpt lat="45.64013" lon="6.79802">
        <ele>1709.3</ele>
        <time>2021-03-27T11:25:07Z</time>
      </trkpt>
      <trkpt lat="45.64013" lon="6.79804">
        <ele>1709.3</ele>
        <time>2021-03-27T11:25:08Z</time>
      </trkpt>
      <trkpt lat="45.64014" lon="6.79805">
        <ele>1709.3</ele>
        <time>2021-03-27T11:25:09Z</time>
      </trkpt>
      <trkpt lat="45.64014" lon="6.79806">
        <ele>1709.2</ele>
        <time>2021-03-27T11:25:10Z</time>
      </trkpt>
      <trkpt lat="45.64014" lon="6.79807">
        <ele>1709.2</ele>
        <time>2021-03-27T11:25:11Z</time>
      </trkpt>
      <trkpt lat="45.64015" lon="6.79808">
        <ele>1709.2</ele>
        <time>2021-03-27T11:25:12Z</time>
      </trkpt>
      <trkpt lat="45.64015" lon="6.79809">
        <ele>1710.6</ele>
        <time>2021-03-27T11:25:13Z</time>
      </trkpt>
      <trkpt lat="45.64015" lon="6.7981">
        <ele>1710.6</ele>
        <time>2021-03-27T11:25:14Z</time>
      </trkpt>
      <trkpt lat="45.64015" lon="6.79812">
        <ele>1710.6</ele>
        <time>2021-03-27T11:25:15Z</time>
      </trkpt>
      <trkpt lat="45.64016" lon="6.79813">
        <ele>1710.6</ele>
        <time>2021-03-27T11:25:16Z</time>
      </trkpt>
      <trkpt lat="45.64016" lon="6.79815">
        <ele>1710.5</ele>
        <time>2021-03-27T11:25:17Z</time>
      </trkpt>
      <trkpt lat="45.64016" lon="6.79816">
        <ele>1710.5</ele>
        <time>2021-03-27T11:25:18Z</time>
      </trkpt>
      <trkpt lat="45.64016" lon="6.79817">
        <ele>1710.5</ele>
        <time>2021-03-27T11:25:19Z</time>
      </trkpt>
      <trkpt lat="45.64017" lon="6.79818">
        <ele>1710.4</ele>
        <time>2021-03-27T11:25:20Z</time>
      </trkpt>
      <trkpt lat="45.64017" lon="6.79819">
        <ele>1710.4</ele>
        <time>2021-03-27T11:25:21Z</time>
      </trkpt>
      <trkpt lat="45.64018" lon="6.79821">
        <ele>1710.4</ele>
        <time>2021-03-27T11:25:22Z</time>
      </trkpt>
      <trkpt lat="45.64018" lon="6.79822">
        <ele>1711.8</ele>
        <time>2021-03-27T11:25:23Z</time>
      </trkpt>
      <trkpt lat="45.64018" lon="6.79824">
        <ele>1711.8</ele>
        <time>2021-03-27T11:25:24Z</time>
      </trkpt>
      <trkpt lat="45.64019" lon="6.79825">
        <ele>1711.8</ele>
        <time>2021-03-27T11:25:25Z</time>
      </trkpt>
      <trkpt lat="45.64019" lon="6.79826">
        <ele>1711.8</ele>
        <time>2021-03-27T11:25:26Z</time>
      </trkpt>
      <trkpt lat="45.64019" lon="6.79826">
        <ele>1711.6</ele>
        <time>2021-03-27T11:25:27Z</time>
      </trkpt>
      <trkpt lat="45.64019" lon="6.79827">
        <ele>1711.6</ele>
        <time>2021-03-27T11:25:28Z</time>
      </trkpt>
      <trkpt lat="45.64019" lon="6.79827">
        <ele>1711.6</ele>
        <time>2021-03-27T11:25:29Z</time>
      </trkpt>
      <trkpt lat="45.6402" lon="6.79828">
        <ele>1711.6</ele>
        <time>2021-03-27T11:25:30Z</time>
      </trkpt>
      <trkpt lat="45.6402" lon="6.79829">
        <ele>1711.6</ele>
        <time>2021-03-27T11:25:31Z</time>
      </trkpt>
      <trkpt lat="45.64021" lon="6.7983">
        <ele>1711.6</ele>
        <time>2021-03-27T11:25:32Z</time>
      </trkpt>
      <trkpt lat="45.64022" lon="6.79832">
        <ele>1713</ele>
        <time>2021-03-27T11:25:33Z</time>
      </trkpt>
      <trkpt lat="45.64022" lon="6.79833">
        <ele>1713</ele>
        <time>2021-03-27T11:25:34Z</time>
      </trkpt>
      <trkpt lat="45.64022" lon="6.79834">
        <ele>1713</ele>
        <time>2021-03-27T11:25:35Z</time>
      </trkpt>
      <trkpt lat="45.64023" lon="6.79834">
        <ele>1713</ele>
        <time>2021-03-27T11:25:36Z</time>
      </trkpt>
      <trkpt lat="45.64023" lon="6.79835">
        <ele>1712.8</ele>
        <time>2021-03-27T11:25:37Z</time>
      </trkpt>
      <trkpt lat="45.64024" lon="6.79836">
        <ele>1714.4</ele>
        <time>2021-03-27T11:25:38Z</time>
      </trkpt>
      <trkpt lat="45.64024" lon="6.79837">
        <ele>1714.4</ele>
        <time>2021-03-27T11:25:39Z</time>
      </trkpt>
      <trkpt lat="45.64025" lon="6.79838">
        <ele>1714.4</ele>
        <time>2021-03-27T11:25:40Z</time>
      </trkpt>
      <trkpt lat="45.64026" lon="6.79839">
        <ele>1714.4</ele>
        <time>2021-03-27T11:25:41Z</time>
      </trkpt>
      <trkpt lat="45.64027" lon="6.7984">
        <ele>1714.1</ele>
        <time>2021-03-27T11:25:42Z</time>
      </trkpt>
      <trkpt lat="45.64027" lon="6.79841">
        <ele>1715.7</ele>
        <time>2021-03-27T11:25:43Z</time>
      </trkpt>
      <trkpt lat="45.64028" lon="6.79842">
        <ele>1715.7</ele>
        <time>2021-03-27T11:25:44Z</time>
      </trkpt>
      <trkpt lat="45.64029" lon="6.79844">
        <ele>1715.4</ele>
        <time>2021-03-27T11:25:45Z</time>
      </trkpt>
      <trkpt lat="45.64029" lon="6.79845">
        <ele>1715.4</ele>
        <time>2021-03-27T11:25:46Z</time>
      </trkpt>
      <trkpt lat="45.64029" lon="6.79846">
        <ele>1715.4</ele>
        <time>2021-03-27T11:25:47Z</time>
      </trkpt>
      <trkpt lat="45.6403" lon="6.79847">
        <ele>1717</ele>
        <time>2021-03-27T11:25:48Z</time>
      </trkpt>
      <trkpt lat="45.64031" lon="6.79847">
        <ele>1717</ele>
        <time>2021-03-27T11:25:49Z</time>
      </trkpt>
      <trkpt lat="45.64031" lon="6.79847">
        <ele>1717</ele>
        <time>2021-03-27T11:25:50Z</time>
      </trkpt>
      <trkpt lat="45.64031" lon="6.79848">
        <ele>1717</ele>
        <time>2021-03-27T11:25:51Z</time>
      </trkpt>
      <trkpt lat="45.64032" lon="6.79848">
        <ele>1717</ele>
        <time>2021-03-27T11:25:52Z</time>
      </trkpt>
      <trkpt lat="45.64032" lon="6.79848">
        <ele>1716.8</ele>
        <time>2021-03-27T11:25:53Z</time>
      </trkpt>
      <trkpt lat="45.64033" lon="6.79848">
        <ele>1716.8</ele>
        <time>2021-03-27T11:25:54Z</time>
      </trkpt>
      <trkpt lat="45.64033" lon="6.79849">
        <ele>1718.3</ele>
        <time>2021-03-27T11:25:55Z</time>
      </trkpt>
      <trkpt lat="45.64033" lon="6.7985">
        <ele>1718.3</ele>
        <time>2021-03-27T11:25:56Z</time>
      </trkpt>
      <trkpt lat="45.64033" lon="6.79851">
        <ele>1718.3</ele>
        <time>2021-03-27T11:25:57Z</time>
      </trkpt>
      <trkpt lat="45.64033" lon="6.79853">
        <ele>1718.1</ele>
        <time>2021-03-27T11:25:58Z</time>
      </trkpt>
      <trkpt lat="45.64034" lon="6.79855">
        <ele>1718.1</ele>
        <time>2021-03-27T11:25:59Z</time>
      </trkpt>
      <trkpt lat="45.64035" lon="6.79856">
        <ele>1718.1</ele>
        <time>2021-03-27T11:26:01Z</time>
      </trkpt>
      <trkpt lat="45.64035" lon="6.79857">
        <ele>1717.8</ele>
        <time>2021-03-27T11:26:02Z</time>
      </trkpt>
      <trkpt lat="45.64036" lon="6.79859">
        <ele>1717.8</ele>
        <time>2021-03-27T11:26:03Z</time>
      </trkpt>
      <trkpt lat="45.64036" lon="6.7986">
        <ele>1719.3</ele>
        <time>2021-03-27T11:26:04Z</time>
      </trkpt>
      <trkpt lat="45.64037" lon="6.79861">
        <ele>1719</ele>
        <time>2021-03-27T11:26:05Z</time>
      </trkpt>
      <trkpt lat="45.64037" lon="6.79862">
        <ele>1719</ele>
        <time>2021-03-27T11:26:06Z</time>
      </trkpt>
      <trkpt lat="45.64038" lon="6.79863">
        <ele>1719</ele>
        <time>2021-03-27T11:26:07Z</time>
      </trkpt>
      <trkpt lat="45.64038" lon="6.79864">
        <ele>1719</ele>
        <time>2021-03-27T11:26:08Z</time>
      </trkpt>
      <trkpt lat="45.64039" lon="6.79865">
        <ele>1719</ele>
        <time>2021-03-27T11:26:09Z</time>
      </trkpt>
      <trkpt lat="45.64039" lon="6.79865">
        <ele>1720.1</ele>
        <time>2021-03-27T11:26:10Z</time>
      </trkpt>
      <trkpt lat="45.64039" lon="6.79866">
        <ele>1720.1</ele>
        <time>2021-03-27T11:26:11Z</time>
      </trkpt>
      <trkpt lat="45.6404" lon="6.79867">
        <ele>1720.1</ele>
        <time>2021-03-27T11:26:12Z</time>
      </trkpt>
      <trkpt lat="45.6404" lon="6.79868">
        <ele>1720.1</ele>
        <time>2021-03-27T11:26:13Z</time>
      </trkpt>
      <trkpt lat="45.6404" lon="6.79869">
        <ele>1719.8</ele>
        <time>2021-03-27T11:26:14Z</time>
      </trkpt>
      <trkpt lat="45.64041" lon="6.7987">
        <ele>1719.8</ele>
        <time>2021-03-27T11:26:15Z</time>
      </trkpt>
      <trkpt lat="45.64042" lon="6.79872">
        <ele>1719.8</ele>
        <time>2021-03-27T11:26:16Z</time>
      </trkpt>
      <trkpt lat="45.64042" lon="6.79874">
        <ele>1720.8</ele>
        <time>2021-03-27T11:26:17Z</time>
      </trkpt>
      <trkpt lat="45.64042" lon="6.79875">
        <ele>1720.8</ele>
        <time>2021-03-27T11:26:18Z</time>
      </trkpt>
      <trkpt lat="45.64043" lon="6.79876">
        <ele>1720.8</ele>
        <time>2021-03-27T11:26:19Z</time>
      </trkpt>
      <trkpt lat="45.64043" lon="6.79878">
        <ele>1720.8</ele>
        <time>2021-03-27T11:26:20Z</time>
      </trkpt>
      <trkpt lat="45.64043" lon="6.79879">
        <ele>1720.4</ele>
        <time>2021-03-27T11:26:21Z</time>
      </trkpt>
      <trkpt lat="45.64044" lon="6.79881">
        <ele>1720.4</ele>
        <time>2021-03-27T11:26:22Z</time>
      </trkpt>
      <trkpt lat="45.64044" lon="6.79882">
        <ele>1720.4</ele>
        <time>2021-03-27T11:26:23Z</time>
      </trkpt>
      <trkpt lat="45.64044" lon="6.79884">
        <ele>1720.1</ele>
        <time>2021-03-27T11:26:24Z</time>
      </trkpt>
      <trkpt lat="45.64045" lon="6.79885">
        <ele>1720.1</ele>
        <time>2021-03-27T11:26:25Z</time>
      </trkpt>
      <trkpt lat="45.64045" lon="6.79886">
        <ele>1720.1</ele>
        <time>2021-03-27T11:26:26Z</time>
      </trkpt>
      <trkpt lat="45.64045" lon="6.79887">
        <ele>1721.1</ele>
        <time>2021-03-27T11:26:27Z</time>
      </trkpt>
      <trkpt lat="45.64046" lon="6.79888">
        <ele>1721.1</ele>
        <time>2021-03-27T11:26:28Z</time>
      </trkpt>
      <trkpt lat="45.64046" lon="6.79888">
        <ele>1721.1</ele>
        <time>2021-03-27T11:26:29Z</time>
      </trkpt>
      <trkpt lat="45.64046" lon="6.79889">
        <ele>1721.1</ele>
        <time>2021-03-27T11:26:30Z</time>
      </trkpt>
      <trkpt lat="45.64047" lon="6.7989">
        <ele>1721.1</ele>
        <time>2021-03-27T11:26:31Z</time>
      </trkpt>
      <trkpt lat="45.64047" lon="6.7989">
        <ele>1721.1</ele>
        <time>2021-03-27T11:26:32Z</time>
      </trkpt>
      <trkpt lat="45.64047" lon="6.79891">
        <ele>1720.7</ele>
        <time>2021-03-27T11:26:33Z</time>
      </trkpt>
      <trkpt lat="45.64048" lon="6.79891">
        <ele>1720.7</ele>
        <time>2021-03-27T11:26:34Z</time>
      </trkpt>
      <trkpt lat="45.64048" lon="6.79892">
        <ele>1720.7</ele>
        <time>2021-03-27T11:26:35Z</time>
      </trkpt>
      <trkpt lat="45.64048" lon="6.79893">
        <ele>1722.1</ele>
        <time>2021-03-27T11:26:36Z</time>
      </trkpt>
      <trkpt lat="45.64048" lon="6.79894">
        <ele>1722.1</ele>
        <time>2021-03-27T11:26:37Z</time>
      </trkpt>
      <trkpt lat="45.64048" lon="6.79895">
        <ele>1721.7</ele>
        <time>2021-03-27T11:26:38Z</time>
      </trkpt>
      <trkpt lat="45.64049" lon="6.79896">
        <ele>1721.7</ele>
        <time>2021-03-27T11:26:39Z</time>
      </trkpt>
      <trkpt lat="45.64049" lon="6.79897">
        <ele>1721.7</ele>
        <time>2021-03-27T11:26:40Z</time>
      </trkpt>
      <trkpt lat="45.64049" lon="6.79898">
        <ele>1721.7</ele>
        <time>2021-03-27T11:26:41Z</time>
      </trkpt>
      <trkpt lat="45.64049" lon="6.79899">
        <ele>1721.7</ele>
        <time>2021-03-27T11:26:42Z</time>
      </trkpt>
      <trkpt lat="45.6405" lon="6.799">
        <ele>1721.3</ele>
        <time>2021-03-27T11:26:43Z</time>
      </trkpt>
      <trkpt lat="45.6405" lon="6.79901">
        <ele>1721.3</ele>
        <time>2021-03-27T11:26:44Z</time>
      </trkpt>
      <trkpt lat="45.64051" lon="6.79902">
        <ele>1721.3</ele>
        <time>2021-03-27T11:26:45Z</time>
      </trkpt>
      <trkpt lat="45.64051" lon="6.79903">
        <ele>1722.8</ele>
        <time>2021-03-27T11:26:46Z</time>
      </trkpt>
      <trkpt lat="45.64052" lon="6.79904">
        <ele>1722.3</ele>
        <time>2021-03-27T11:26:47Z</time>
      </trkpt>
      <trkpt lat="45.64052" lon="6.79906">
        <ele>1722.3</ele>
        <time>2021-03-27T11:26:48Z</time>
      </trkpt>
      <trkpt lat="45.64052" lon="6.79907">
        <ele>1722.3</ele>
        <time>2021-03-27T11:26:49Z</time>
      </trkpt>
      <trkpt lat="45.64053" lon="6.79909">
        <ele>1721.9</ele>
        <time>2021-03-27T11:26:50Z</time>
      </trkpt>
      <trkpt lat="45.64053" lon="6.79909">
        <ele>1721.9</ele>
        <time>2021-03-27T11:26:51Z</time>
      </trkpt>
      <trkpt lat="45.64054" lon="6.7991">
        <ele>1723.4</ele>
        <time>2021-03-27T11:26:52Z</time>
      </trkpt>
      <trkpt lat="45.64054" lon="6.79911">
        <ele>1723.4</ele>
        <time>2021-03-27T11:26:53Z</time>
      </trkpt>
      <trkpt lat="45.64055" lon="6.79912">
        <ele>1723</ele>
        <time>2021-03-27T11:26:54Z</time>
      </trkpt>
      <trkpt lat="45.64055" lon="6.79912">
        <ele>1723</ele>
        <time>2021-03-27T11:26:55Z</time>
      </trkpt>
      <trkpt lat="45.64056" lon="6.79913">
        <ele>1723</ele>
        <time>2021-03-27T11:26:56Z</time>
      </trkpt>
      <trkpt lat="45.64056" lon="6.79913">
        <ele>1723</ele>
        <time>2021-03-27T11:26:57Z</time>
      </trkpt>
      <trkpt lat="45.64057" lon="6.79914">
        <ele>1723</ele>
        <time>2021-03-27T11:26:58Z</time>
      </trkpt>
      <trkpt lat="45.64057" lon="6.79915">
        <ele>1724.5</ele>
        <time>2021-03-27T11:26:59Z</time>
      </trkpt>
      <trkpt lat="45.64058" lon="6.79916">
        <ele>1724.5</ele>
        <time>2021-03-27T11:27:00Z</time>
      </trkpt>
      <trkpt lat="45.64058" lon="6.79917">
        <ele>1724.1</ele>
        <time>2021-03-27T11:27:01Z</time>
      </trkpt>
      <trkpt lat="45.64059" lon="6.79918">
        <ele>1724.1</ele>
        <time>2021-03-27T11:27:02Z</time>
      </trkpt>
      <trkpt lat="45.6406" lon="6.79918">
        <ele>1724.1</ele>
        <time>2021-03-27T11:27:03Z</time>
      </trkpt>
      <trkpt lat="45.6406" lon="6.79919">
        <ele>1725.6</ele>
        <time>2021-03-27T11:27:04Z</time>
      </trkpt>
      <trkpt lat="45.64061" lon="6.79919">
        <ele>1725.6</ele>
        <time>2021-03-27T11:27:05Z</time>
      </trkpt>
      <trkpt lat="45.64061" lon="6.7992">
        <ele>1725.6</ele>
        <time>2021-03-27T11:27:06Z</time>
      </trkpt>
      <trkpt lat="45.64062" lon="6.7992">
        <ele>1725.6</ele>
        <time>2021-03-27T11:27:07Z</time>
      </trkpt>
      <trkpt lat="45.64062" lon="6.79921">
        <ele>1725.1</ele>
        <time>2021-03-27T11:27:08Z</time>
      </trkpt>
      <trkpt lat="45.64063" lon="6.79921">
        <ele>1726.5</ele>
        <time>2021-03-27T11:27:09Z</time>
      </trkpt>
      <trkpt lat="45.64064" lon="6.79922">
        <ele>1726.5</ele>
        <time>2021-03-27T11:27:10Z</time>
      </trkpt>
      <trkpt lat="45.64065" lon="6.79922">
        <ele>1726.5</ele>
        <time>2021-03-27T11:27:11Z</time>
      </trkpt>
      <trkpt lat="45.64065" lon="6.79922">
        <ele>1726.5</ele>
        <time>2021-03-27T11:27:12Z</time>
      </trkpt>
      <trkpt lat="45.64066" lon="6.79923">
        <ele>1727.7</ele>
        <time>2021-03-27T11:27:13Z</time>
      </trkpt>
      <trkpt lat="45.64067" lon="6.79923">
        <ele>1727.7</ele>
        <time>2021-03-27T11:27:14Z</time>
      </trkpt>
      <trkpt lat="45.64067" lon="6.79924">
        <ele>1727.7</ele>
        <time>2021-03-27T11:27:15Z</time>
      </trkpt>
      <trkpt lat="45.64068" lon="6.79924">
        <ele>1727.7</ele>
        <time>2021-03-27T11:27:16Z</time>
      </trkpt>
      <trkpt lat="45.64069" lon="6.79924">
        <ele>1727.7</ele>
        <time>2021-03-27T11:27:17Z</time>
      </trkpt>
      <trkpt lat="45.64069" lon="6.79925">
        <ele>1728.9</ele>
        <time>2021-03-27T11:27:18Z</time>
      </trkpt>
      <trkpt lat="45.6407" lon="6.79925">
        <ele>1728.5</ele>
        <time>2021-03-27T11:27:19Z</time>
      </trkpt>
      <trkpt lat="45.64071" lon="6.79926">
        <ele>1728.5</ele>
        <time>2021-03-27T11:27:20Z</time>
      </trkpt>
      <trkpt lat="45.64071" lon="6.79926">
        <ele>1728.5</ele>
        <time>2021-03-27T11:27:21Z</time>
      </trkpt>
      <trkpt lat="45.64072" lon="6.79926">
        <ele>1729.7</ele>
        <time>2021-03-27T11:27:22Z</time>
      </trkpt>
      <trkpt lat="45.64073" lon="6.79927">
        <ele>1729.7</ele>
        <time>2021-03-27T11:27:23Z</time>
      </trkpt>
      <trkpt lat="45.64073" lon="6.79927">
        <ele>1729.7</ele>
        <time>2021-03-27T11:27:24Z</time>
      </trkpt>
      <trkpt lat="45.64074" lon="6.79928">
        <ele>1729.7</ele>
        <time>2021-03-27T11:27:25Z</time>
      </trkpt>
      <trkpt lat="45.64075" lon="6.79928">
        <ele>1731.1</ele>
        <time>2021-03-27T11:27:26Z</time>
      </trkpt>
      <trkpt lat="45.64076" lon="6.79929">
        <ele>1731.1</ele>
        <time>2021-03-27T11:27:27Z</time>
      </trkpt>
      <trkpt lat="45.64076" lon="6.7993">
        <ele>1730.6</ele>
        <time>2021-03-27T11:27:28Z</time>
      </trkpt>
      <trkpt lat="45.64077" lon="6.79931">
        <ele>1730.6</ele>
        <time>2021-03-27T11:27:29Z</time>
      </trkpt>
      <trkpt lat="45.64077" lon="6.79932">
        <ele>1730.6</ele>
        <time>2021-03-27T11:27:30Z</time>
      </trkpt>
      <trkpt lat="45.64078" lon="6.79932">
        <ele>1730.6</ele>
        <time>2021-03-27T11:27:31Z</time>
      </trkpt>
      <trkpt lat="45.64078" lon="6.79933">
        <ele>1732.1</ele>
        <time>2021-03-27T11:27:32Z</time>
      </trkpt>
      <trkpt lat="45.64079" lon="6.79934">
        <ele>1731.7</ele>
        <time>2021-03-27T11:27:33Z</time>
      </trkpt>
      <trkpt lat="45.64079" lon="6.79935">
        <ele>1731.7</ele>
        <time>2021-03-27T11:27:34Z</time>
      </trkpt>
      <trkpt lat="45.6408" lon="6.79935">
        <ele>1731.7</ele>
        <time>2021-03-27T11:27:35Z</time>
      </trkpt>
      <trkpt lat="45.64081" lon="6.79936">
        <ele>1733.1</ele>
        <time>2021-03-27T11:27:36Z</time>
      </trkpt>
      <trkpt lat="45.64082" lon="6.79936">
        <ele>1733.1</ele>
        <time>2021-03-27T11:27:37Z</time>
      </trkpt>
      <trkpt lat="45.64083" lon="6.79937">
        <ele>1733.1</ele>
        <time>2021-03-27T11:27:38Z</time>
      </trkpt>
      <trkpt lat="45.64083" lon="6.79937">
        <ele>1733.1</ele>
        <time>2021-03-27T11:27:39Z</time>
      </trkpt>
      <trkpt lat="45.64084" lon="6.79938">
        <ele>1732.7</ele>
        <time>2021-03-27T11:27:40Z</time>
      </trkpt>
      <trkpt lat="45.64084" lon="6.79939">
        <ele>1734.1</ele>
        <time>2021-03-27T11:27:41Z</time>
      </trkpt>
      <trkpt lat="45.64085" lon="6.7994">
        <ele>1734.1</ele>
        <time>2021-03-27T11:27:42Z</time>
      </trkpt>
      <trkpt lat="45.64085" lon="6.79941">
        <ele>1734.1</ele>
        <time>2021-03-27T11:27:43Z</time>
      </trkpt>
      <trkpt lat="45.64086" lon="6.79942">
        <ele>1734.1</ele>
        <time>2021-03-27T11:27:44Z</time>
      </trkpt>
      <trkpt lat="45.64086" lon="6.79943">
        <ele>1733.6</ele>
        <time>2021-03-27T11:27:45Z</time>
      </trkpt>
      <trkpt lat="45.64086" lon="6.79944">
        <ele>1733.6</ele>
        <time>2021-03-27T11:27:46Z</time>
      </trkpt>
      <trkpt lat="45.64086" lon="6.79945">
        <ele>1733.6</ele>
        <time>2021-03-27T11:27:47Z</time>
      </trkpt>
      <trkpt lat="45.64087" lon="6.79946">
        <ele>1734.9</ele>
        <time>2021-03-27T11:27:48Z</time>
      </trkpt>
      <trkpt lat="45.64088" lon="6.79946">
        <ele>1734.9</ele>
        <time>2021-03-27T11:27:49Z</time>
      </trkpt>
      <trkpt lat="45.64089" lon="6.79947">
        <ele>1734.4</ele>
        <time>2021-03-27T11:27:50Z</time>
      </trkpt>
      <trkpt lat="45.64089" lon="6.79948">
        <ele>1734.4</ele>
        <time>2021-03-27T11:27:51Z</time>
      </trkpt>
      <trkpt lat="45.64089" lon="6.79948">
        <ele>1734.4</ele>
        <time>2021-03-27T11:27:52Z</time>
      </trkpt>
      <trkpt lat="45.6409" lon="6.79948">
        <ele>1735.6</ele>
        <time>2021-03-27T11:27:53Z</time>
      </trkpt>
      <trkpt lat="45.64091" lon="6.79947">
        <ele>1735.6</ele>
        <time>2021-03-27T11:27:54Z</time>
      </trkpt>
      <trkpt lat="45.64092" lon="6.79947">
        <ele>1735.6</ele>
        <time>2021-03-27T11:27:55Z</time>
      </trkpt>
      <trkpt lat="45.64093" lon="6.79947">
        <ele>1735.6</ele>
        <time>2021-03-27T11:27:56Z</time>
      </trkpt>
      <trkpt lat="45.64093" lon="6.79948">
        <ele>1736.8</ele>
        <time>2021-03-27T11:27:57Z</time>
      </trkpt>
      <trkpt lat="45.64094" lon="6.79948">
        <ele>1736.8</ele>
        <time>2021-03-27T11:27:58Z</time>
      </trkpt>
      <trkpt lat="45.64095" lon="6.79949">
        <ele>1736.8</ele>
        <time>2021-03-27T11:27:59Z</time>
      </trkpt>
      <trkpt lat="45.64095" lon="6.79949">
        <ele>1736.8</ele>
        <time>2021-03-27T11:28:00Z</time>
      </trkpt>
      <trkpt lat="45.64095" lon="6.79949">
        <ele>1736.8</ele>
        <time>2021-03-27T11:28:01Z</time>
      </trkpt>
      <trkpt lat="45.64095" lon="6.7995">
        <ele>1736.8</ele>
        <time>2021-03-27T11:28:02Z</time>
      </trkpt>
      <trkpt lat="45.64096" lon="6.79951">
        <ele>1736.8</ele>
        <time>2021-03-27T11:28:03Z</time>
      </trkpt>
      <trkpt lat="45.64096" lon="6.79951">
        <ele>1737.4</ele>
        <time>2021-03-27T11:28:04Z</time>
      </trkpt>
      <trkpt lat="45.64096" lon="6.79952">
        <ele>1737.4</ele>
        <time>2021-03-27T11:28:05Z</time>
      </trkpt>
      <trkpt lat="45.64098" lon="6.79954">
        <ele>1737.4</ele>
        <time>2021-03-27T11:28:06Z</time>
      </trkpt>
      <trkpt lat="45.64099" lon="6.79956">
        <ele>1736.8</ele>
        <time>2021-03-27T11:28:07Z</time>
      </trkpt>
      <trkpt lat="45.641" lon="6.79958">
        <ele>1738</ele>
        <time>2021-03-27T11:28:08Z</time>
      </trkpt>
      <trkpt lat="45.64101" lon="6.79959">
        <ele>1738</ele>
        <time>2021-03-27T11:28:09Z</time>
      </trkpt>
      <trkpt lat="45.64102" lon="6.79961">
        <ele>1737.4</ele>
        <time>2021-03-27T11:28:21Z</time>
      </trkpt>
      <trkpt lat="45.64103" lon="6.79962">
        <ele>1738.6</ele>
        <time>2021-03-27T11:28:22Z</time>
      </trkpt>
      <trkpt lat="45.64104" lon="6.79964">
        <ele>1738.1</ele>
        <time>2021-03-27T11:28:23Z</time>
      </trkpt>
      <trkpt lat="45.64105" lon="6.79965">
        <ele>1738.1</ele>
        <time>2021-03-27T11:28:24Z</time>
      </trkpt>
      <trkpt lat="45.64106" lon="6.79967">
        <ele>1739.3</ele>
        <time>2021-03-27T11:28:25Z</time>
      </trkpt>
      <trkpt lat="45.64106" lon="6.79967">
        <ele>1739.3</ele>
        <time>2021-03-27T11:28:26Z</time>
      </trkpt>
      <trkpt lat="45.64107" lon="6.79967">
        <ele>1739.3</ele>
        <time>2021-03-27T11:28:27Z</time>
      </trkpt>
      <trkpt lat="45.64107" lon="6.79968">
        <ele>1738.8</ele>
        <time>2021-03-27T11:28:28Z</time>
      </trkpt>
      <trkpt lat="45.64108" lon="6.79969">
        <ele>1738.8</ele>
        <time>2021-03-27T11:28:29Z</time>
      </trkpt>
      <trkpt lat="45.64108" lon="6.79969">
        <ele>1740.1</ele>
        <time>2021-03-27T11:28:30Z</time>
      </trkpt>
      <trkpt lat="45.64109" lon="6.7997">
        <ele>1740.1</ele>
        <time>2021-03-27T11:28:31Z</time>
      </trkpt>
      <trkpt lat="45.64109" lon="6.7997">
        <ele>1740.1</ele>
        <time>2021-03-27T11:28:32Z</time>
      </trkpt>
      <trkpt lat="45.6411" lon="6.7997">
        <ele>1740.1</ele>
        <time>2021-03-27T11:28:33Z</time>
      </trkpt>
      <trkpt lat="45.6411" lon="6.79971">
        <ele>1740.1</ele>
        <time>2021-03-27T11:28:34Z</time>
      </trkpt>
      <trkpt lat="45.64111" lon="6.79971">
        <ele>1741.3</ele>
        <time>2021-03-27T11:28:35Z</time>
      </trkpt>
      <trkpt lat="45.64112" lon="6.79972">
        <ele>1741.3</ele>
        <time>2021-03-27T11:28:36Z</time>
      </trkpt>
      <trkpt lat="45.64114" lon="6.79972">
        <ele>1742.5</ele>
        <time>2021-03-27T11:28:37Z</time>
      </trkpt>
      <trkpt lat="45.64115" lon="6.79972">
        <ele>1742</ele>
        <time>2021-03-27T11:28:38Z</time>
      </trkpt>
      <trkpt lat="45.64115" lon="6.79973">
        <ele>1742</ele>
        <time>2021-03-27T11:28:39Z</time>
      </trkpt>
      <trkpt lat="45.64116" lon="6.79973">
        <ele>1742</ele>
        <time>2021-03-27T11:28:40Z</time>
      </trkpt>
      <trkpt lat="45.64116" lon="6.79973">
        <ele>1742</ele>
        <time>2021-03-27T11:28:41Z</time>
      </trkpt>
      <trkpt lat="45.64117" lon="6.79973">
        <ele>1742</ele>
        <time>2021-03-27T11:28:42Z</time>
      </trkpt>
      <trkpt lat="45.64117" lon="6.79974">
        <ele>1743.2</ele>
        <time>2021-03-27T11:28:43Z</time>
      </trkpt>
      <trkpt lat="45.64118" lon="6.79974">
        <ele>1743.2</ele>
        <time>2021-03-27T11:28:44Z</time>
      </trkpt>
      <trkpt lat="45.64119" lon="6.79975">
        <ele>1743.2</ele>
        <time>2021-03-27T11:28:45Z</time>
      </trkpt>
      <trkpt lat="45.64119" lon="6.79976">
        <ele>1743.2</ele>
        <time>2021-03-27T11:28:46Z</time>
      </trkpt>
      <trkpt lat="45.6412" lon="6.79976">
        <ele>1743.2</ele>
        <time>2021-03-27T11:28:47Z</time>
      </trkpt>
      <trkpt lat="45.6412" lon="6.79976">
        <ele>1744.3</ele>
        <time>2021-03-27T11:28:48Z</time>
      </trkpt>
      <trkpt lat="45.64121" lon="6.79976">
        <ele>1744.3</ele>
        <time>2021-03-27T11:28:49Z</time>
      </trkpt>
      <trkpt lat="45.64122" lon="6.79976">
        <ele>1744.3</ele>
        <time>2021-03-27T11:28:50Z</time>
      </trkpt>
      <trkpt lat="45.64123" lon="6.79976">
        <ele>1744.3</ele>
        <time>2021-03-27T11:28:51Z</time>
      </trkpt>
      <trkpt lat="45.64124" lon="6.79976">
        <ele>1745.4</ele>
        <time>2021-03-27T11:28:52Z</time>
      </trkpt>
      <trkpt lat="45.64124" lon="6.79977">
        <ele>1744.9</ele>
        <time>2021-03-27T11:28:53Z</time>
      </trkpt>
      <trkpt lat="45.64125" lon="6.79977">
        <ele>1744.9</ele>
        <time>2021-03-27T11:28:54Z</time>
      </trkpt>
      <trkpt lat="45.64126" lon="6.79977">
        <ele>1745.9</ele>
        <time>2021-03-27T11:28:55Z</time>
      </trkpt>
      <trkpt lat="45.64127" lon="6.79977">
        <ele>1745.9</ele>
        <time>2021-03-27T11:28:56Z</time>
      </trkpt>
      <trkpt lat="45.64128" lon="6.79977">
        <ele>1745.9</ele>
        <time>2021-03-27T11:28:57Z</time>
      </trkpt>
      <trkpt lat="45.64129" lon="6.79978">
        <ele>1747</ele>
        <time>2021-03-27T11:28:58Z</time>
      </trkpt>
      <trkpt lat="45.6413" lon="6.79978">
        <ele>1747</ele>
        <time>2021-03-27T11:28:59Z</time>
      </trkpt>
      <trkpt lat="45.64131" lon="6.79979">
        <ele>1747</ele>
        <time>2021-03-27T11:29:00Z</time>
      </trkpt>
      <trkpt lat="45.64131" lon="6.79979">
        <ele>1747</ele>
        <time>2021-03-27T11:29:01Z</time>
      </trkpt>
      <trkpt lat="45.64132" lon="6.7998">
        <ele>1748</ele>
        <time>2021-03-27T11:29:02Z</time>
      </trkpt>
      <trkpt lat="45.64133" lon="6.7998">
        <ele>1748</ele>
        <time>2021-03-27T11:29:03Z</time>
      </trkpt>
      <trkpt lat="45.64133" lon="6.7998">
        <ele>1748</ele>
        <time>2021-03-27T11:29:04Z</time>
      </trkpt>
      <trkpt lat="45.64134" lon="6.7998">
        <ele>1748</ele>
        <time>2021-03-27T11:29:05Z</time>
      </trkpt>
      <trkpt lat="45.64135" lon="6.7998">
        <ele>1748</ele>
        <time>2021-03-27T11:29:06Z</time>
      </trkpt>
      <trkpt lat="45.64135" lon="6.79981">
        <ele>1749.1</ele>
        <time>2021-03-27T11:29:07Z</time>
      </trkpt>
      <trkpt lat="45.64136" lon="6.79981">
        <ele>1748.6</ele>
        <time>2021-03-27T11:29:08Z</time>
      </trkpt>
      <trkpt lat="45.64137" lon="6.79981">
        <ele>1748.6</ele>
        <time>2021-03-27T11:29:09Z</time>
      </trkpt>
      <trkpt lat="45.64137" lon="6.79982">
        <ele>1748.6</ele>
        <time>2021-03-27T11:29:10Z</time>
      </trkpt>
      <trkpt lat="45.64138" lon="6.79982">
        <ele>1749.8</ele>
        <time>2021-03-27T11:29:11Z</time>
      </trkpt>
      <trkpt lat="45.64138" lon="6.79982">
        <ele>1749.8</ele>
        <time>2021-03-27T11:29:12Z</time>
      </trkpt>
      <trkpt lat="45.64139" lon="6.79982">
        <ele>1749.8</ele>
        <time>2021-03-27T11:29:13Z</time>
      </trkpt>
      <trkpt lat="45.64139" lon="6.79983">
        <ele>1749.8</ele>
        <time>2021-03-27T11:29:14Z</time>
      </trkpt>
      <trkpt lat="45.6414" lon="6.79983">
        <ele>1749.8</ele>
        <time>2021-03-27T11:29:15Z</time>
      </trkpt>
      <trkpt lat="45.64141" lon="6.79984">
        <ele>1751</ele>
        <time>2021-03-27T11:29:16Z</time>
      </trkpt>
      <trkpt lat="45.64142" lon="6.79984">
        <ele>1751</ele>
        <time>2021-03-27T11:29:17Z</time>
      </trkpt>
      <trkpt lat="45.64142" lon="6.79985">
        <ele>1751</ele>
        <time>2021-03-27T11:29:18Z</time>
      </trkpt>
      <trkpt lat="45.64143" lon="6.79985">
        <ele>1750.5</ele>
        <time>2021-03-27T11:29:19Z</time>
      </trkpt>
      <trkpt lat="45.64143" lon="6.79986">
        <ele>1750.5</ele>
        <time>2021-03-27T11:29:20Z</time>
      </trkpt>
      <trkpt lat="45.64144" lon="6.79987">
        <ele>1751.6</ele>
        <time>2021-03-27T11:29:21Z</time>
      </trkpt>
      <trkpt lat="45.64145" lon="6.79987">
        <ele>1751.6</ele>
        <time>2021-03-27T11:29:22Z</time>
      </trkpt>
      <trkpt lat="45.64146" lon="6.79988">
        <ele>1751.6</ele>
        <time>2021-03-27T11:29:23Z</time>
      </trkpt>
      <trkpt lat="45.64147" lon="6.79988">
        <ele>1751.6</ele>
        <time>2021-03-27T11:29:24Z</time>
      </trkpt>
      <trkpt lat="45.64147" lon="6.79989">
        <ele>1752.7</ele>
        <time>2021-03-27T11:29:25Z</time>
      </trkpt>
      <trkpt lat="45.64147" lon="6.7999">
        <ele>1752.2</ele>
        <time>2021-03-27T11:29:26Z</time>
      </trkpt>
      <trkpt lat="45.64148" lon="6.79991">
        <ele>1752.2</ele>
        <time>2021-03-27T11:29:27Z</time>
      </trkpt>
      <trkpt lat="45.64148" lon="6.79991">
        <ele>1752.2</ele>
        <time>2021-03-27T11:29:28Z</time>
      </trkpt>
      <trkpt lat="45.64149" lon="6.79992">
        <ele>1752.2</ele>
        <time>2021-03-27T11:29:29Z</time>
      </trkpt>
      <trkpt lat="45.64149" lon="6.79993">
        <ele>1752.2</ele>
        <time>2021-03-27T11:29:30Z</time>
      </trkpt>
      <trkpt lat="45.64149" lon="6.79994">
        <ele>1752.2</ele>
        <time>2021-03-27T11:29:31Z</time>
      </trkpt>
      <trkpt lat="45.64149" lon="6.79994">
        <ele>1751.7</ele>
        <time>2021-03-27T11:29:32Z</time>
      </trkpt>
      <trkpt lat="45.64149" lon="6.79995">
        <ele>1751.7</ele>
        <time>2021-03-27T11:29:33Z</time>
      </trkpt>
      <trkpt lat="45.6415" lon="6.79996">
        <ele>1751.7</ele>
        <time>2021-03-27T11:29:34Z</time>
      </trkpt>
      <trkpt lat="45.6415" lon="6.79997">
        <ele>1752.6</ele>
        <time>2021-03-27T11:29:35Z</time>
      </trkpt>
      <trkpt lat="45.64151" lon="6.79999">
        <ele>1752.1</ele>
        <time>2021-03-27T11:29:36Z</time>
      </trkpt>
      <trkpt lat="45.64152" lon="6.8">
        <ele>1752.1</ele>
        <time>2021-03-27T11:29:37Z</time>
      </trkpt>
      <trkpt lat="45.64153" lon="6.80001">
        <ele>1752.1</ele>
        <time>2021-03-27T11:29:38Z</time>
      </trkpt>
      <trkpt lat="45.64153" lon="6.80002">
        <ele>1752.9</ele>
        <time>2021-03-27T11:29:39Z</time>
      </trkpt>
      <trkpt lat="45.64154" lon="6.80001">
        <ele>1752.9</ele>
        <time>2021-03-27T11:29:40Z</time>
      </trkpt>
      <trkpt lat="45.64155" lon="6.80001">
        <ele>1752.9</ele>
        <time>2021-03-27T11:29:41Z</time>
      </trkpt>
      <trkpt lat="45.64156" lon="6.8">
        <ele>1753.8</ele>
        <time>2021-03-27T11:29:42Z</time>
      </trkpt>
      <trkpt lat="45.64157" lon="6.8">
        <ele>1753.8</ele>
        <time>2021-03-27T11:29:43Z</time>
      </trkpt>
      <trkpt lat="45.64158" lon="6.8">
        <ele>1753.8</ele>
        <time>2021-03-27T11:29:44Z</time>
      </trkpt>
      <trkpt lat="45.64159" lon="6.79999">
        <ele>1754.7</ele>
        <time>2021-03-27T11:29:45Z</time>
      </trkpt>
      <trkpt lat="45.6416" lon="6.79999">
        <ele>1754.7</ele>
        <time>2021-03-27T11:29:46Z</time>
      </trkpt>
      <trkpt lat="45.64161" lon="6.79999">
        <ele>1754.7</ele>
        <time>2021-03-27T11:29:47Z</time>
      </trkpt>
      <trkpt lat="45.64161" lon="6.79999">
        <ele>1754.7</ele>
        <time>2021-03-27T11:29:48Z</time>
      </trkpt>
      <trkpt lat="45.64162" lon="6.79999">
        <ele>1755.7</ele>
        <time>2021-03-27T11:29:49Z</time>
      </trkpt>
      <trkpt lat="45.64163" lon="6.79999">
        <ele>1755.7</ele>
        <time>2021-03-27T11:29:50Z</time>
      </trkpt>
      <trkpt lat="45.64164" lon="6.8">
        <ele>1755.7</ele>
        <time>2021-03-27T11:29:51Z</time>
      </trkpt>
      <trkpt lat="45.64165" lon="6.80001">
        <ele>1756.7</ele>
        <time>2021-03-27T11:29:52Z</time>
      </trkpt>
      <trkpt lat="45.64166" lon="6.80001">
        <ele>1756.7</ele>
        <time>2021-03-27T11:29:53Z</time>
      </trkpt>
      <trkpt lat="45.64166" lon="6.80002">
        <ele>1756.7</ele>
        <time>2021-03-27T11:29:54Z</time>
      </trkpt>
      <trkpt lat="45.64167" lon="6.80002">
        <ele>1756.7</ele>
        <time>2021-03-27T11:29:55Z</time>
      </trkpt>
      <trkpt lat="45.64168" lon="6.80003">
        <ele>1757.1</ele>
        <time>2021-03-27T11:29:56Z</time>
      </trkpt>
      <trkpt lat="45.64169" lon="6.80004">
        <ele>1757.1</ele>
        <time>2021-03-27T11:29:57Z</time>
      </trkpt>
      <trkpt lat="45.64169" lon="6.80004">
        <ele>1757.1</ele>
        <time>2021-03-27T11:29:58Z</time>
      </trkpt>
      <trkpt lat="45.6417" lon="6.80006">
        <ele>1757.1</ele>
        <time>2021-03-27T11:29:59Z</time>
      </trkpt>
      <trkpt lat="45.64171" lon="6.80007">
        <ele>1757.5</ele>
        <time>2021-03-27T11:30:00Z</time>
      </trkpt>
      <trkpt lat="45.64171" lon="6.80007">
        <ele>1757.5</ele>
        <time>2021-03-27T11:30:01Z</time>
      </trkpt>
      <trkpt lat="45.64172" lon="6.80008">
        <ele>1757.5</ele>
        <time>2021-03-27T11:30:02Z</time>
      </trkpt>
      <trkpt lat="45.64173" lon="6.80009">
        <ele>1757.5</ele>
        <time>2021-03-27T11:30:03Z</time>
      </trkpt>
      <trkpt lat="45.64173" lon="6.80009">
        <ele>1757.5</ele>
        <time>2021-03-27T11:30:04Z</time>
      </trkpt>
      <trkpt lat="45.64174" lon="6.8001">
        <ele>1758.3</ele>
        <time>2021-03-27T11:30:05Z</time>
      </trkpt>
      <trkpt lat="45.64175" lon="6.80011">
        <ele>1757.8</ele>
        <time>2021-03-27T11:30:06Z</time>
      </trkpt>
      <trkpt lat="45.64176" lon="6.80012">
        <ele>1757.8</ele>
        <time>2021-03-27T11:30:07Z</time>
      </trkpt>
      <trkpt lat="45.64176" lon="6.80013">
        <ele>1757.8</ele>
        <time>2021-03-27T11:30:08Z</time>
      </trkpt>
      <trkpt lat="45.64177" lon="6.80013">
        <ele>1758.5</ele>
        <time>2021-03-27T11:30:09Z</time>
      </trkpt>
      <trkpt lat="45.64178" lon="6.80014">
        <ele>1758.5</ele>
        <time>2021-03-27T11:30:10Z</time>
      </trkpt>
      <trkpt lat="45.64179" lon="6.80014">
        <ele>1758.5</ele>
        <time>2021-03-27T11:30:11Z</time>
      </trkpt>
      <trkpt lat="45.64179" lon="6.80015">
        <ele>1758.5</ele>
        <time>2021-03-27T11:30:12Z</time>
      </trkpt>
      <trkpt lat="45.6418" lon="6.80015">
        <ele>1758.5</ele>
        <time>2021-03-27T11:30:13Z</time>
      </trkpt>
      <trkpt lat="45.64181" lon="6.80015">
        <ele>1758.8</ele>
        <time>2021-03-27T11:30:14Z</time>
      </trkpt>
      <trkpt lat="45.64182" lon="6.80016">
        <ele>1758.8</ele>
        <time>2021-03-27T11:30:15Z</time>
      </trkpt>
      <trkpt lat="45.64183" lon="6.80016">
        <ele>1758.8</ele>
        <time>2021-03-27T11:30:16Z</time>
      </trkpt>
      <trkpt lat="45.64184" lon="6.80017">
        <ele>1759.6</ele>
        <time>2021-03-27T11:30:17Z</time>
      </trkpt>
      <trkpt lat="45.64185" lon="6.80017">
        <ele>1759.6</ele>
        <time>2021-03-27T11:30:18Z</time>
      </trkpt>
      <trkpt lat="45.64185" lon="6.80018">
        <ele>1759.6</ele>
        <time>2021-03-27T11:30:19Z</time>
      </trkpt>
      <trkpt lat="45.64185" lon="6.80018">
        <ele>1759.6</ele>
        <time>2021-03-27T11:30:20Z</time>
      </trkpt>
      <trkpt lat="45.64186" lon="6.80018">
        <ele>1760.4</ele>
        <time>2021-03-27T11:30:21Z</time>
      </trkpt>
      <trkpt lat="45.64186" lon="6.80019">
        <ele>1760.4</ele>
        <time>2021-03-27T11:30:22Z</time>
      </trkpt>
      <trkpt lat="45.64187" lon="6.80019">
        <ele>1760.4</ele>
        <time>2021-03-27T11:30:23Z</time>
      </trkpt>
      <trkpt lat="45.64187" lon="6.80019">
        <ele>1759.9</ele>
        <time>2021-03-27T11:30:24Z</time>
      </trkpt>
      <trkpt lat="45.64188" lon="6.8002">
        <ele>1759.9</ele>
        <time>2021-03-27T11:30:25Z</time>
      </trkpt>
      <trkpt lat="45.64188" lon="6.8002">
        <ele>1759.9</ele>
        <time>2021-03-27T11:30:26Z</time>
      </trkpt>
      <trkpt lat="45.64189" lon="6.80021">
        <ele>1760.8</ele>
        <time>2021-03-27T11:30:27Z</time>
      </trkpt>
      <trkpt lat="45.64189" lon="6.80021">
        <ele>1760.8</ele>
        <time>2021-03-27T11:30:28Z</time>
      </trkpt>
      <trkpt lat="45.6419" lon="6.80021">
        <ele>1760.8</ele>
        <time>2021-03-27T11:30:29Z</time>
      </trkpt>
      <trkpt lat="45.6419" lon="6.80022">
        <ele>1760.8</ele>
        <time>2021-03-27T11:30:30Z</time>
      </trkpt>
      <trkpt lat="45.64191" lon="6.80022">
        <ele>1760.8</ele>
        <time>2021-03-27T11:30:33Z</time>
      </trkpt>
      <trkpt lat="45.64191" lon="6.80022">
        <ele>1760.8</ele>
        <time>2021-03-27T11:30:34Z</time>
      </trkpt>
      <trkpt lat="45.64192" lon="6.80023">
        <ele>1760.8</ele>
        <time>2021-03-27T11:30:35Z</time>
      </trkpt>
      <trkpt lat="45.64192" lon="6.80023">
        <ele>1761.6</ele>
        <time>2021-03-27T11:30:36Z</time>
      </trkpt>
      <trkpt lat="45.64193" lon="6.80023">
        <ele>1761.6</ele>
        <time>2021-03-27T11:30:37Z</time>
      </trkpt>
      <trkpt lat="45.64194" lon="6.80023">
        <ele>1761.6</ele>
        <time>2021-03-27T11:30:38Z</time>
      </trkpt>
      <trkpt lat="45.64194" lon="6.80023">
        <ele>1761.6</ele>
        <time>2021-03-27T11:30:39Z</time>
      </trkpt>
      <trkpt lat="45.64195" lon="6.80023">
        <ele>1762.5</ele>
        <time>2021-03-27T11:30:40Z</time>
      </trkpt>
      <trkpt lat="45.64195" lon="6.80024">
        <ele>1762.1</ele>
        <time>2021-03-27T11:30:41Z</time>
      </trkpt>
      <trkpt lat="45.64196" lon="6.80024">
        <ele>1762.1</ele>
        <time>2021-03-27T11:30:42Z</time>
      </trkpt>
      <trkpt lat="45.64197" lon="6.80024">
        <ele>1762.1</ele>
        <time>2021-03-27T11:30:43Z</time>
      </trkpt>
      <trkpt lat="45.64198" lon="6.80024">
        <ele>1762.1</ele>
        <time>2021-03-27T11:30:44Z</time>
      </trkpt>
      <trkpt lat="45.64198" lon="6.80023">
        <ele>1763.3</ele>
        <time>2021-03-27T11:30:45Z</time>
      </trkpt>
      <trkpt lat="45.64199" lon="6.80023">
        <ele>1763.3</ele>
        <time>2021-03-27T11:30:46Z</time>
      </trkpt>
      <trkpt lat="45.64199" lon="6.80022">
        <ele>1763.3</ele>
        <time>2021-03-27T11:30:47Z</time>
      </trkpt>
      <trkpt lat="45.642" lon="6.80022">
        <ele>1763.3</ele>
        <time>2021-03-27T11:30:48Z</time>
      </trkpt>
      <trkpt lat="45.642" lon="6.80021">
        <ele>1763.3</ele>
        <time>2021-03-27T11:30:49Z</time>
      </trkpt>
      <trkpt lat="45.642" lon="6.80019">
        <ele>1763.3</ele>
        <time>2021-03-27T11:30:50Z</time>
      </trkpt>
      <trkpt lat="45.642" lon="6.80018">
        <ele>1763.7</ele>
        <time>2021-03-27T11:30:51Z</time>
      </trkpt>
      <trkpt lat="45.64201" lon="6.80018">
        <ele>1763.7</ele>
        <time>2021-03-27T11:30:52Z</time>
      </trkpt>
      <trkpt lat="45.64201" lon="6.80017">
        <ele>1764.4</ele>
        <time>2021-03-27T11:30:53Z</time>
      </trkpt>
      <trkpt lat="45.64201" lon="6.80016">
        <ele>1764.4</ele>
        <time>2021-03-27T11:30:54Z</time>
      </trkpt>
      <trkpt lat="45.64202" lon="6.80015">
        <ele>1764.4</ele>
        <time>2021-03-27T11:30:55Z</time>
      </trkpt>
      <trkpt lat="45.64202" lon="6.80015">
        <ele>1764.9</ele>
        <time>2021-03-27T11:30:56Z</time>
      </trkpt>
      <trkpt lat="45.64202" lon="6.80014">
        <ele>1764.9</ele>
        <time>2021-03-27T11:30:57Z</time>
      </trkpt>
      <trkpt lat="45.64203" lon="6.80013">
        <ele>1764.9</ele>
        <time>2021-03-27T11:30:58Z</time>
      </trkpt>
      <trkpt lat="45.64203" lon="6.80013">
        <ele>1764.9</ele>
        <time>2021-03-27T11:30:59Z</time>
      </trkpt>
      <trkpt lat="45.64203" lon="6.80012">
        <ele>1764.9</ele>
        <time>2021-03-27T11:31:00Z</time>
      </trkpt>
      <trkpt lat="45.64204" lon="6.80011">
        <ele>1765.5</ele>
        <time>2021-03-27T11:31:01Z</time>
      </trkpt>
      <trkpt lat="45.64205" lon="6.8001">
        <ele>1766</ele>
        <time>2021-03-27T11:31:02Z</time>
      </trkpt>
      <trkpt lat="45.64205" lon="6.8001">
        <ele>1766</ele>
        <time>2021-03-27T11:31:03Z</time>
      </trkpt>
      <trkpt lat="45.64206" lon="6.8001">
        <ele>1766</ele>
        <time>2021-03-27T11:31:04Z</time>
      </trkpt>
      <trkpt lat="45.64206" lon="6.8001">
        <ele>1766</ele>
        <time>2021-03-27T11:31:05Z</time>
      </trkpt>
      <trkpt lat="45.64207" lon="6.80009">
        <ele>1766.6</ele>
        <time>2021-03-27T11:31:06Z</time>
      </trkpt>
      <trkpt lat="45.64207" lon="6.80008">
        <ele>1766.6</ele>
        <time>2021-03-27T11:31:07Z</time>
      </trkpt>
      <trkpt lat="45.64208" lon="6.80007">
        <ele>1766.6</ele>
        <time>2021-03-27T11:31:08Z</time>
      </trkpt>
      <trkpt lat="45.64207" lon="6.80007">
        <ele>1767</ele>
        <time>2021-03-27T11:31:09Z</time>
      </trkpt>
      <trkpt lat="45.64207" lon="6.80006">
        <ele>1767</ele>
        <time>2021-03-27T11:31:10Z</time>
      </trkpt>
      <trkpt lat="45.64207" lon="6.80005">
        <ele>1766.4</ele>
        <time>2021-03-27T11:31:11Z</time>
      </trkpt>
      <trkpt lat="45.64206" lon="6.80004">
        <ele>1766.4</ele>
        <time>2021-03-27T11:31:12Z</time>
      </trkpt>
      <trkpt lat="45.64206" lon="6.80003">
        <ele>1766.4</ele>
        <time>2021-03-27T11:31:13Z</time>
      </trkpt>
      <trkpt lat="45.64206" lon="6.80002">
        <ele>1766.8</ele>
        <time>2021-03-27T11:31:14Z</time>
      </trkpt>
      <trkpt lat="45.64205" lon="6.80001">
        <ele>1766.8</ele>
        <time>2021-03-27T11:31:15Z</time>
      </trkpt>
      <trkpt lat="45.64205" lon="6.8">
        <ele>1766.8</ele>
        <time>2021-03-27T11:31:16Z</time>
      </trkpt>
      <trkpt lat="45.64205" lon="6.8">
        <ele>1766.8</ele>
        <time>2021-03-27T11:31:17Z</time>
      </trkpt>
      <trkpt lat="45.64204" lon="6.79999">
        <ele>1766.8</ele>
        <time>2021-03-27T11:31:18Z</time>
      </trkpt>
      <trkpt lat="45.64204" lon="6.79998">
        <ele>1766.8</ele>
        <time>2021-03-27T11:31:19Z</time>
      </trkpt>
      <trkpt lat="45.64204" lon="6.79998">
        <ele>1767.2</ele>
        <time>2021-03-27T11:31:20Z</time>
      </trkpt>
      <trkpt lat="45.64205" lon="6.79997">
        <ele>1767.2</ele>
        <time>2021-03-27T11:31:21Z</time>
      </trkpt>
      <trkpt lat="45.64205" lon="6.79996">
        <ele>1767.2</ele>
        <time>2021-03-27T11:31:22Z</time>
      </trkpt>
      <trkpt lat="45.64206" lon="6.79996">
        <ele>1767.2</ele>
        <time>2021-03-27T11:31:23Z</time>
      </trkpt>
      <trkpt lat="45.64206" lon="6.79995">
        <ele>1767.2</ele>
        <time>2021-03-27T11:31:24Z</time>
      </trkpt>
      <trkpt lat="45.64206" lon="6.79994">
        <ele>1767.2</ele>
        <time>2021-03-27T11:31:25Z</time>
      </trkpt>
      <trkpt lat="45.64207" lon="6.79993">
        <ele>1767.5</ele>
        <time>2021-03-27T11:31:26Z</time>
      </trkpt>
      <trkpt lat="45.64207" lon="6.79993">
        <ele>1767.5</ele>
        <time>2021-03-27T11:31:27Z</time>
      </trkpt>
      <trkpt lat="45.64207" lon="6.79992">
        <ele>1767.5</ele>
        <time>2021-03-27T11:31:28Z</time>
      </trkpt>
      <trkpt lat="45.64206" lon="6.79991">
        <ele>1767.5</ele>
        <time>2021-03-27T11:31:29Z</time>
      </trkpt>
      <trkpt lat="45.64206" lon="6.7999">
        <ele>1767.5</ele>
        <time>2021-03-27T11:31:30Z</time>
      </trkpt>
      <trkpt lat="45.64206" lon="6.79989">
        <ele>1767.8</ele>
        <time>2021-03-27T11:31:31Z</time>
      </trkpt>
      <trkpt lat="45.64207" lon="6.79988">
        <ele>1767.8</ele>
        <time>2021-03-27T11:31:32Z</time>
      </trkpt>
      <trkpt lat="45.64207" lon="6.79988">
        <ele>1768.4</ele>
        <time>2021-03-27T11:31:33Z</time>
      </trkpt>
      <trkpt lat="45.64208" lon="6.79987">
        <ele>1768.4</ele>
        <time>2021-03-27T11:31:34Z</time>
      </trkpt>
      <trkpt lat="45.64208" lon="6.79986">
        <ele>1768.4</ele>
        <time>2021-03-27T11:31:35Z</time>
      </trkpt>
      <trkpt lat="45.64208" lon="6.79986">
        <ele>1768.4</ele>
        <time>2021-03-27T11:31:36Z</time>
      </trkpt>
      <trkpt lat="45.64209" lon="6.79985">
        <ele>1768.6</ele>
        <time>2021-03-27T11:31:37Z</time>
      </trkpt>
      <trkpt lat="45.64209" lon="6.79984">
        <ele>1768.6</ele>
        <time>2021-03-27T11:31:38Z</time>
      </trkpt>
      <trkpt lat="45.64209" lon="6.79983">
        <ele>1768.6</ele>
        <time>2021-03-27T11:31:39Z</time>
      </trkpt>
      <trkpt lat="45.64209" lon="6.79982">
        <ele>1768.6</ele>
        <time>2021-03-27T11:31:40Z</time>
      </trkpt>
      <trkpt lat="45.64209" lon="6.79981">
        <ele>1768.6</ele>
        <time>2021-03-27T11:31:41Z</time>
      </trkpt>
      <trkpt lat="45.64209" lon="6.7998">
        <ele>1768.9</ele>
        <time>2021-03-27T11:31:42Z</time>
      </trkpt>
      <trkpt lat="45.64209" lon="6.79979">
        <ele>1768.9</ele>
        <time>2021-03-27T11:31:43Z</time>
      </trkpt>
      <trkpt lat="45.6421" lon="6.79978">
        <ele>1768.9</ele>
        <time>2021-03-27T11:31:44Z</time>
      </trkpt>
      <trkpt lat="45.6421" lon="6.79977">
        <ele>1769.4</ele>
        <time>2021-03-27T11:31:45Z</time>
      </trkpt>
      <trkpt lat="45.64211" lon="6.79976">
        <ele>1769.7</ele>
        <time>2021-03-27T11:31:46Z</time>
      </trkpt>
      <trkpt lat="45.64211" lon="6.79976">
        <ele>1769.7</ele>
        <time>2021-03-27T11:31:47Z</time>
      </trkpt>
      <trkpt lat="45.64212" lon="6.79975">
        <ele>1769.7</ele>
        <time>2021-03-27T11:31:48Z</time>
      </trkpt>
      <trkpt lat="45.64212" lon="6.79975">
        <ele>1769.7</ele>
        <time>2021-03-27T11:31:49Z</time>
      </trkpt>
      <trkpt lat="45.64213" lon="6.79975">
        <ele>1770.2</ele>
        <time>2021-03-27T11:31:50Z</time>
      </trkpt>
      <trkpt lat="45.64214" lon="6.79974">
        <ele>1770.2</ele>
        <time>2021-03-27T11:31:51Z</time>
      </trkpt>
      <trkpt lat="45.64215" lon="6.79974">
        <ele>1770.2</ele>
        <time>2021-03-27T11:31:52Z</time>
      </trkpt>
      <trkpt lat="45.64216" lon="6.79975">
        <ele>1770.2</ele>
        <time>2021-03-27T11:31:53Z</time>
      </trkpt>
      <trkpt lat="45.64216" lon="6.79975">
        <ele>1770.7</ele>
        <time>2021-03-27T11:31:54Z</time>
      </trkpt>
      <trkpt lat="45.64217" lon="6.79975">
        <ele>1770.7</ele>
        <time>2021-03-27T11:31:55Z</time>
      </trkpt>
      <trkpt lat="45.64218" lon="6.79975">
        <ele>1770.7</ele>
        <time>2021-03-27T11:31:56Z</time>
      </trkpt>
      <trkpt lat="45.64218" lon="6.79975">
        <ele>1770.7</ele>
        <time>2021-03-27T11:31:57Z</time>
      </trkpt>
      <trkpt lat="45.64219" lon="6.79975">
        <ele>1771.3</ele>
        <time>2021-03-27T11:31:58Z</time>
      </trkpt>
      <trkpt lat="45.6422" lon="6.79975">
        <ele>1771.3</ele>
        <time>2021-03-27T11:31:59Z</time>
      </trkpt>
      <trkpt lat="45.6422" lon="6.79975">
        <ele>1771.3</ele>
        <time>2021-03-27T11:32:00Z</time>
      </trkpt>
      <trkpt lat="45.6422" lon="6.79975">
        <ele>1771.3</ele>
        <time>2021-03-27T11:32:01Z</time>
      </trkpt>
      <trkpt lat="45.64221" lon="6.79975">
        <ele>1771.3</ele>
        <time>2021-03-27T11:32:02Z</time>
      </trkpt>
      <trkpt lat="45.64221" lon="6.79975">
        <ele>1771.3</ele>
        <time>2021-03-27T11:32:03Z</time>
      </trkpt>
      <trkpt lat="45.64221" lon="6.79975">
        <ele>1771.3</ele>
        <time>2021-03-27T11:32:04Z</time>
      </trkpt>
      <trkpt lat="45.64222" lon="6.79976">
        <ele>1771.3</ele>
        <time>2021-03-27T11:32:05Z</time>
      </trkpt>
      <trkpt lat="45.64222" lon="6.79976">
        <ele>1771.9</ele>
        <time>2021-03-27T11:32:06Z</time>
      </trkpt>
      <trkpt lat="45.64222" lon="6.79977">
        <ele>1771.6</ele>
        <time>2021-03-27T11:32:07Z</time>
      </trkpt>
      <trkpt lat="45.64223" lon="6.79977">
        <ele>1771.6</ele>
        <time>2021-03-27T11:32:08Z</time>
      </trkpt>
      <trkpt lat="45.64223" lon="6.79977">
        <ele>1771.6</ele>
        <time>2021-03-27T11:32:09Z</time>
      </trkpt>
      <trkpt lat="45.64223" lon="6.79977">
        <ele>1771.6</ele>
        <time>2021-03-27T11:32:10Z</time>
      </trkpt>
      <trkpt lat="45.64223" lon="6.79977">
        <ele>1771.6</ele>
        <time>2021-03-27T11:32:11Z</time>
      </trkpt>
      <trkpt lat="45.64223" lon="6.79977">
        <ele>1771.6</ele>
        <time>2021-03-27T11:32:12Z</time>
      </trkpt>
      <trkpt lat="45.64223" lon="6.79977">
        <ele>1771.6</ele>
        <time>2021-03-27T11:32:13Z</time>
      </trkpt>
      <trkpt lat="45.64223" lon="6.79977">
        <ele>1771.6</ele>
        <time>2021-03-27T11:32:14Z</time>
      </trkpt>
      <trkpt lat="45.64222" lon="6.7998">
        <ele>1771</ele>
        <time>2021-03-27T11:32:15Z</time>
      </trkpt>
      <trkpt lat="45.64222" lon="6.7998">
        <ele>1771</ele>
        <time>2021-03-27T11:32:16Z</time>
      </trkpt>
      <trkpt lat="45.64223" lon="6.79981">
        <ele>1771.4</ele>
        <time>2021-03-27T11:32:17Z</time>
      </trkpt>
      <trkpt lat="45.64224" lon="6.79982">
        <ele>1771.4</ele>
        <time>2021-03-27T11:32:18Z</time>
      </trkpt>
      <trkpt lat="45.64225" lon="6.79983">
        <ele>1771.4</ele>
        <time>2021-03-27T11:34:19Z</time>
      </trkpt>
      <trkpt lat="45.64225" lon="6.79984">
        <ele>1772</ele>
        <time>2021-03-27T11:34:20Z</time>
      </trkpt>
      <trkpt lat="45.64226" lon="6.79985">
        <ele>1772</ele>
        <time>2021-03-27T11:34:21Z</time>
      </trkpt>
      <trkpt lat="45.64227" lon="6.79985">
        <ele>1771.7</ele>
        <time>2021-03-27T11:34:22Z</time>
      </trkpt>
      <trkpt lat="45.64228" lon="6.79985">
        <ele>1772.4</ele>
        <time>2021-03-27T11:34:23Z</time>
      </trkpt>
      <trkpt lat="45.64229" lon="6.79985">
        <ele>1772.4</ele>
        <time>2021-03-27T11:34:24Z</time>
      </trkpt>
      <trkpt lat="45.64229" lon="6.79985">
        <ele>1772.4</ele>
        <time>2021-03-27T11:34:25Z</time>
      </trkpt>
      <trkpt lat="45.64229" lon="6.79985">
        <ele>1772.4</ele>
        <time>2021-03-27T11:34:26Z</time>
      </trkpt>
      <trkpt lat="45.6423" lon="6.79986">
        <ele>1772.4</ele>
        <time>2021-03-27T11:34:27Z</time>
      </trkpt>
      <trkpt lat="45.64231" lon="6.79986">
        <ele>1772.4</ele>
        <time>2021-03-27T11:34:28Z</time>
      </trkpt>
      <trkpt lat="45.64231" lon="6.79986">
        <ele>1772.9</ele>
        <time>2021-03-27T11:34:29Z</time>
      </trkpt>
      <trkpt lat="45.64232" lon="6.79987">
        <ele>1772.9</ele>
        <time>2021-03-27T11:34:30Z</time>
      </trkpt>
      <trkpt lat="45.64232" lon="6.79987">
        <ele>1772.9</ele>
        <time>2021-03-27T11:34:31Z</time>
      </trkpt>
      <trkpt lat="45.64233" lon="6.79988">
        <ele>1772.9</ele>
        <time>2021-03-27T11:34:32Z</time>
      </trkpt>
      <trkpt lat="45.64234" lon="6.79989">
        <ele>1773.5</ele>
        <time>2021-03-27T11:34:33Z</time>
      </trkpt>
      <trkpt lat="45.64235" lon="6.79989">
        <ele>1773.3</ele>
        <time>2021-03-27T11:34:34Z</time>
      </trkpt>
      <trkpt lat="45.64236" lon="6.7999">
        <ele>1773.3</ele>
        <time>2021-03-27T11:34:35Z</time>
      </trkpt>
      <trkpt lat="45.64236" lon="6.79992">
        <ele>1773.3</ele>
        <time>2021-03-27T11:34:36Z</time>
      </trkpt>
      <trkpt lat="45.64237" lon="6.79993">
        <ele>1773.8</ele>
        <time>2021-03-27T11:34:37Z</time>
      </trkpt>
      <trkpt lat="45.64238" lon="6.79994">
        <ele>1773.8</ele>
        <time>2021-03-27T11:34:38Z</time>
      </trkpt>
      <trkpt lat="45.64239" lon="6.79994">
        <ele>1773.6</ele>
        <time>2021-03-27T11:34:39Z</time>
      </trkpt>
      <trkpt lat="45.6424" lon="6.79995">
        <ele>1773.6</ele>
        <time>2021-03-27T11:34:40Z</time>
      </trkpt>
      <trkpt lat="45.6424" lon="6.79996">
        <ele>1774.2</ele>
        <time>2021-03-27T11:34:41Z</time>
      </trkpt>
      <trkpt lat="45.64241" lon="6.79997">
        <ele>1774.2</ele>
        <time>2021-03-27T11:34:42Z</time>
      </trkpt>
      <trkpt lat="45.64242" lon="6.79997">
        <ele>1774.2</ele>
        <time>2021-03-27T11:34:43Z</time>
      </trkpt>
      <trkpt lat="45.64242" lon="6.79998">
        <ele>1773.9</ele>
        <time>2021-03-27T11:34:44Z</time>
      </trkpt>
      <trkpt lat="45.64243" lon="6.79999">
        <ele>1774.6</ele>
        <time>2021-03-27T11:34:45Z</time>
      </trkpt>
      <trkpt lat="45.64244" lon="6.8">
        <ele>1774.6</ele>
        <time>2021-03-27T11:34:46Z</time>
      </trkpt>
      <trkpt lat="45.64244" lon="6.80001">
        <ele>1774.6</ele>
        <time>2021-03-27T11:34:47Z</time>
      </trkpt>
      <trkpt lat="45.64245" lon="6.80002">
        <ele>1774.6</ele>
        <time>2021-03-27T11:34:48Z</time>
      </trkpt>
      <trkpt lat="45.64246" lon="6.80003">
        <ele>1774.4</ele>
        <time>2021-03-27T11:34:49Z</time>
      </trkpt>
      <trkpt lat="45.64247" lon="6.80004">
        <ele>1775.2</ele>
        <time>2021-03-27T11:34:50Z</time>
      </trkpt>
      <trkpt lat="45.64247" lon="6.80005">
        <ele>1775.2</ele>
        <time>2021-03-27T11:34:51Z</time>
      </trkpt>
      <trkpt lat="45.64248" lon="6.80006">
        <ele>1775.2</ele>
        <time>2021-03-27T11:34:52Z</time>
      </trkpt>
      <trkpt lat="45.64249" lon="6.80007">
        <ele>1775</ele>
        <time>2021-03-27T11:34:53Z</time>
      </trkpt>
      <trkpt lat="45.64249" lon="6.80008">
        <ele>1775.9</ele>
        <time>2021-03-27T11:34:54Z</time>
      </trkpt>
      <trkpt lat="45.6425" lon="6.80009">
        <ele>1775.9</ele>
        <time>2021-03-27T11:34:55Z</time>
      </trkpt>
      <trkpt lat="45.64251" lon="6.8001">
        <ele>1775.9</ele>
        <time>2021-03-27T11:34:56Z</time>
      </trkpt>
      <trkpt lat="45.64252" lon="6.80011">
        <ele>1775.6</ele>
        <time>2021-03-27T11:34:57Z</time>
      </trkpt>
      <trkpt lat="45.64252" lon="6.80012">
        <ele>1776.5</ele>
        <time>2021-03-27T11:34:58Z</time>
      </trkpt>
      <trkpt lat="45.64253" lon="6.80013">
        <ele>1776.5</ele>
        <time>2021-03-27T11:34:59Z</time>
      </trkpt>
      <trkpt lat="45.64254" lon="6.80014">
        <ele>1776.5</ele>
        <time>2021-03-27T11:35:00Z</time>
      </trkpt>
      <trkpt lat="45.64255" lon="6.80015">
        <ele>1776.5</ele>
        <time>2021-03-27T11:35:01Z</time>
      </trkpt>
      <trkpt lat="45.64255" lon="6.80016">
        <ele>1777.1</ele>
        <time>2021-03-27T11:35:02Z</time>
      </trkpt>
      <trkpt lat="45.64256" lon="6.80017">
        <ele>1777.1</ele>
        <time>2021-03-27T11:35:03Z</time>
      </trkpt>
      <trkpt lat="45.64256" lon="6.80018">
        <ele>1777.1</ele>
        <time>2021-03-27T11:35:04Z</time>
      </trkpt>
      <trkpt lat="45.64257" lon="6.80019">
        <ele>1777.1</ele>
        <time>2021-03-27T11:35:05Z</time>
      </trkpt>
      <trkpt lat="45.64258" lon="6.8002">
        <ele>1776.9</ele>
        <time>2021-03-27T11:35:06Z</time>
      </trkpt>
      <trkpt lat="45.64259" lon="6.80021">
        <ele>1777.7</ele>
        <time>2021-03-27T11:35:07Z</time>
      </trkpt>
      <trkpt lat="45.64259" lon="6.80022">
        <ele>1777.7</ele>
        <time>2021-03-27T11:35:08Z</time>
      </trkpt>
      <trkpt lat="45.6426" lon="6.80023">
        <ele>1777.7</ele>
        <time>2021-03-27T11:35:09Z</time>
      </trkpt>
      <trkpt lat="45.64261" lon="6.80024">
        <ele>1777.4</ele>
        <time>2021-03-27T11:35:10Z</time>
      </trkpt>
      <trkpt lat="45.64262" lon="6.80025">
        <ele>1778.2</ele>
        <time>2021-03-27T11:35:11Z</time>
      </trkpt>
      <trkpt lat="45.64262" lon="6.80026">
        <ele>1778.2</ele>
        <time>2021-03-27T11:35:12Z</time>
      </trkpt>
      <trkpt lat="45.64263" lon="6.80027">
        <ele>1778.2</ele>
        <time>2021-03-27T11:35:13Z</time>
      </trkpt>
      <trkpt lat="45.64264" lon="6.80028">
        <ele>1778.9</ele>
        <time>2021-03-27T11:35:14Z</time>
      </trkpt>
      <trkpt lat="45.64265" lon="6.80029">
        <ele>1778.6</ele>
        <time>2021-03-27T11:35:15Z</time>
      </trkpt>
      <trkpt lat="45.64265" lon="6.80029">
        <ele>1778.6</ele>
        <time>2021-03-27T11:35:16Z</time>
      </trkpt>
      <trkpt lat="45.64266" lon="6.8003">
        <ele>1778.6</ele>
        <time>2021-03-27T11:35:17Z</time>
      </trkpt>
      <trkpt lat="45.64266" lon="6.8003">
        <ele>1778.6</ele>
        <time>2021-03-27T11:35:18Z</time>
      </trkpt>
      <trkpt lat="45.64267" lon="6.80031">
        <ele>1779.4</ele>
        <time>2021-03-27T11:35:19Z</time>
      </trkpt>
      <trkpt lat="45.64268" lon="6.80032">
        <ele>1779.4</ele>
        <time>2021-03-27T11:35:20Z</time>
      </trkpt>
      <trkpt lat="45.64268" lon="6.80033">
        <ele>1779.2</ele>
        <time>2021-03-27T11:35:21Z</time>
      </trkpt>
      <trkpt lat="45.64269" lon="6.80033">
        <ele>1779.2</ele>
        <time>2021-03-27T11:35:22Z</time>
      </trkpt>
      <trkpt lat="45.6427" lon="6.80034">
        <ele>1779.2</ele>
        <time>2021-03-27T11:35:23Z</time>
      </trkpt>
      <trkpt lat="45.6427" lon="6.80035">
        <ele>1780</ele>
        <time>2021-03-27T11:35:24Z</time>
      </trkpt>
      <trkpt lat="45.64271" lon="6.80036">
        <ele>1780</ele>
        <time>2021-03-27T11:35:25Z</time>
      </trkpt>
      <trkpt lat="45.64272" lon="6.80036">
        <ele>1780</ele>
        <time>2021-03-27T11:35:26Z</time>
      </trkpt>
      <trkpt lat="45.64272" lon="6.80037">
        <ele>1779.8</ele>
        <time>2021-03-27T11:35:27Z</time>
      </trkpt>
      <trkpt lat="45.64273" lon="6.80038">
        <ele>1779.8</ele>
        <time>2021-03-27T11:35:28Z</time>
      </trkpt>
      <trkpt lat="45.64273" lon="6.80038">
        <ele>1780.6</ele>
        <time>2021-03-27T11:35:29Z</time>
      </trkpt>
      <trkpt lat="45.64274" lon="6.80039">
        <ele>1780.6</ele>
        <time>2021-03-27T11:35:30Z</time>
      </trkpt>
      <trkpt lat="45.64274" lon="6.8004">
        <ele>1780.6</ele>
        <time>2021-03-27T11:35:31Z</time>
      </trkpt>
      <trkpt lat="45.64275" lon="6.80041">
        <ele>1780.6</ele>
        <time>2021-03-27T11:35:32Z</time>
      </trkpt>
      <trkpt lat="45.64275" lon="6.80042">
        <ele>1780.4</ele>
        <time>2021-03-27T11:35:33Z</time>
      </trkpt>
      <trkpt lat="45.64275" lon="6.80043">
        <ele>1780.4</ele>
        <time>2021-03-27T11:35:34Z</time>
      </trkpt>
      <trkpt lat="45.64276" lon="6.80044">
        <ele>1780.4</ele>
        <time>2021-03-27T11:35:35Z</time>
      </trkpt>
      <trkpt lat="45.64276" lon="6.80045">
        <ele>1781.3</ele>
        <time>2021-03-27T11:35:36Z</time>
      </trkpt>
      <trkpt lat="45.64276" lon="6.80046">
        <ele>1781.1</ele>
        <time>2021-03-27T11:35:37Z</time>
      </trkpt>
      <trkpt lat="45.64277" lon="6.80046">
        <ele>1781.1</ele>
        <time>2021-03-27T11:35:38Z</time>
      </trkpt>
      <trkpt lat="45.64277" lon="6.80048">
        <ele>1781.1</ele>
        <time>2021-03-27T11:35:39Z</time>
      </trkpt>
      <trkpt lat="45.64277" lon="6.80048">
        <ele>1781.1</ele>
        <time>2021-03-27T11:35:40Z</time>
      </trkpt>
      <trkpt lat="45.64278" lon="6.8005">
        <ele>1780.8</ele>
        <time>2021-03-27T11:35:41Z</time>
      </trkpt>
      <trkpt lat="45.64278" lon="6.80051">
        <ele>1780.8</ele>
        <time>2021-03-27T11:35:42Z</time>
      </trkpt>
      <trkpt lat="45.64278" lon="6.80052">
        <ele>1780.8</ele>
        <time>2021-03-27T11:35:43Z</time>
      </trkpt>
      <trkpt lat="45.64278" lon="6.80053">
        <ele>1780.8</ele>
        <time>2021-03-27T11:35:44Z</time>
      </trkpt>
      <trkpt lat="45.64278" lon="6.80054">
        <ele>1780.5</ele>
        <time>2021-03-27T11:35:45Z</time>
      </trkpt>
      <trkpt lat="45.64278" lon="6.80055">
        <ele>1780.5</ele>
        <time>2021-03-27T11:35:46Z</time>
      </trkpt>
      <trkpt lat="45.64278" lon="6.80056">
        <ele>1780.5</ele>
        <time>2021-03-27T11:35:47Z</time>
      </trkpt>
      <trkpt lat="45.64279" lon="6.80057">
        <ele>1780.5</ele>
        <time>2021-03-27T11:35:48Z</time>
      </trkpt>
      <trkpt lat="45.64279" lon="6.80058">
        <ele>1780.5</ele>
        <time>2021-03-27T11:35:49Z</time>
      </trkpt>
      <trkpt lat="45.64279" lon="6.80059">
        <ele>1781.2</ele>
        <time>2021-03-27T11:35:50Z</time>
      </trkpt>
      <trkpt lat="45.64279" lon="6.8006">
        <ele>1781.2</ele>
        <time>2021-03-27T11:35:51Z</time>
      </trkpt>
      <trkpt lat="45.6428" lon="6.80061">
        <ele>1781.2</ele>
        <time>2021-03-27T11:35:52Z</time>
      </trkpt>
      <trkpt lat="45.6428" lon="6.80062">
        <ele>1781.2</ele>
        <time>2021-03-27T11:35:53Z</time>
      </trkpt>
      <trkpt lat="45.6428" lon="6.80063">
        <ele>1781</ele>
        <time>2021-03-27T11:35:54Z</time>
      </trkpt>
      <trkpt lat="45.64281" lon="6.80064">
        <ele>1781</ele>
        <time>2021-03-27T11:35:55Z</time>
      </trkpt>
      <trkpt lat="45.64281" lon="6.80065">
        <ele>1781</ele>
        <time>2021-03-27T11:35:56Z</time>
      </trkpt>
      <trkpt lat="45.64282" lon="6.80066">
        <ele>1781</ele>
        <time>2021-03-27T11:35:57Z</time>
      </trkpt>
      <trkpt lat="45.64283" lon="6.80066">
        <ele>1781.9</ele>
        <time>2021-03-27T11:35:58Z</time>
      </trkpt>
      <trkpt lat="45.64283" lon="6.80067">
        <ele>1781.8</ele>
        <time>2021-03-27T11:35:59Z</time>
      </trkpt>
      <trkpt lat="45.64284" lon="6.80068">
        <ele>1781.8</ele>
        <time>2021-03-27T11:36:00Z</time>
      </trkpt>
      <trkpt lat="45.64285" lon="6.80068">
        <ele>1781.8</ele>
        <time>2021-03-27T11:36:01Z</time>
      </trkpt>
      <trkpt lat="45.64286" lon="6.80069">
        <ele>1782.7</ele>
        <time>2021-03-27T11:36:02Z</time>
      </trkpt>
      <trkpt lat="45.64287" lon="6.80069">
        <ele>1782.7</ele>
        <time>2021-03-27T11:36:03Z</time>
      </trkpt>
      <trkpt lat="45.64287" lon="6.8007">
        <ele>1782.7</ele>
        <time>2021-03-27T11:36:04Z</time>
      </trkpt>
      <trkpt lat="45.64288" lon="6.8007">
        <ele>1783.6</ele>
        <time>2021-03-27T11:36:05Z</time>
      </trkpt>
      <trkpt lat="45.64289" lon="6.8007">
        <ele>1783.6</ele>
        <time>2021-03-27T11:36:06Z</time>
      </trkpt>
      <trkpt lat="45.6429" lon="6.80069">
        <ele>1783.6</ele>
        <time>2021-03-27T11:36:07Z</time>
      </trkpt>
      <trkpt lat="45.6429" lon="6.80069">
        <ele>1783.6</ele>
        <time>2021-03-27T11:36:08Z</time>
      </trkpt>
      <trkpt lat="45.64291" lon="6.80068">
        <ele>1784.5</ele>
        <time>2021-03-27T11:36:09Z</time>
      </trkpt>
      <trkpt lat="45.64292" lon="6.80067">
        <ele>1784.5</ele>
        <time>2021-03-27T11:36:10Z</time>
      </trkpt>
      <trkpt lat="45.64292" lon="6.80067">
        <ele>1784.5</ele>
        <time>2021-03-27T11:36:11Z</time>
      </trkpt>
      <trkpt lat="45.64293" lon="6.80066">
        <ele>1784.6</ele>
        <time>2021-03-27T11:36:12Z</time>
      </trkpt>
      <trkpt lat="45.64294" lon="6.80065">
        <ele>1784.6</ele>
        <time>2021-03-27T11:36:13Z</time>
      </trkpt>
      <trkpt lat="45.64294" lon="6.80065">
        <ele>1785.5</ele>
        <time>2021-03-27T11:36:14Z</time>
      </trkpt>
      <trkpt lat="45.64295" lon="6.80064">
        <ele>1785.5</ele>
        <time>2021-03-27T11:36:15Z</time>
      </trkpt>
      <trkpt lat="45.64295" lon="6.80063">
        <ele>1785.5</ele>
        <time>2021-03-27T11:36:16Z</time>
      </trkpt>
      <trkpt lat="45.64296" lon="6.80063">
        <ele>1785.5</ele>
        <time>2021-03-27T11:36:17Z</time>
      </trkpt>
      <trkpt lat="45.64296" lon="6.80062">
        <ele>1785.5</ele>
        <time>2021-03-27T11:36:18Z</time>
      </trkpt>
      <trkpt lat="45.64297" lon="6.80062">
        <ele>1786.6</ele>
        <time>2021-03-27T11:36:19Z</time>
      </trkpt>
      <trkpt lat="45.64297" lon="6.80061">
        <ele>1786.6</ele>
        <time>2021-03-27T11:36:20Z</time>
      </trkpt>
      <trkpt lat="45.64298" lon="6.80061">
        <ele>1786.6</ele>
        <time>2021-03-27T11:36:21Z</time>
      </trkpt>
      <trkpt lat="45.64299" lon="6.80061">
        <ele>1786.6</ele>
        <time>2021-03-27T11:36:22Z</time>
      </trkpt>
      <trkpt lat="45.64299" lon="6.80061">
        <ele>1786.6</ele>
        <time>2021-03-27T11:36:23Z</time>
      </trkpt>
      <trkpt lat="45.643" lon="6.80061">
        <ele>1787.5</ele>
        <time>2021-03-27T11:36:24Z</time>
      </trkpt>
      <trkpt lat="45.64301" lon="6.80062">
        <ele>1787.5</ele>
        <time>2021-03-27T11:36:25Z</time>
      </trkpt>
      <trkpt lat="45.64301" lon="6.80062">
        <ele>1787.5</ele>
        <time>2021-03-27T11:36:26Z</time>
      </trkpt>
      <trkpt lat="45.64302" lon="6.80063">
        <ele>1787.3</ele>
        <time>2021-03-27T11:36:27Z</time>
      </trkpt>
      <trkpt lat="45.64303" lon="6.80063">
        <ele>1788.2</ele>
        <time>2021-03-27T11:36:28Z</time>
      </trkpt>
      <trkpt lat="45.64304" lon="6.80064">
        <ele>1788.2</ele>
        <time>2021-03-27T11:36:29Z</time>
      </trkpt>
      <trkpt lat="45.64305" lon="6.80064">
        <ele>1788.2</ele>
        <time>2021-03-27T11:36:30Z</time>
      </trkpt>
      <trkpt lat="45.64306" lon="6.80065">
        <ele>1788.2</ele>
        <time>2021-03-27T11:36:31Z</time>
      </trkpt>
      <trkpt lat="45.64307" lon="6.80066">
        <ele>1789.2</ele>
        <time>2021-03-27T11:36:32Z</time>
      </trkpt>
      <trkpt lat="45.64307" lon="6.80066">
        <ele>1789.2</ele>
        <time>2021-03-27T11:36:33Z</time>
      </trkpt>
      <trkpt lat="45.64308" lon="6.80067">
        <ele>1789</ele>
        <time>2021-03-27T11:36:34Z</time>
      </trkpt>
      <trkpt lat="45.64309" lon="6.80067">
        <ele>1790</ele>
        <time>2021-03-27T11:36:35Z</time>
      </trkpt>
      <trkpt lat="45.6431" lon="6.80068">
        <ele>1790</ele>
        <time>2021-03-27T11:36:36Z</time>
      </trkpt>
      <trkpt lat="45.64311" lon="6.80068">
        <ele>1790</ele>
        <time>2021-03-27T11:36:37Z</time>
      </trkpt>
      <trkpt lat="45.64311" lon="6.80069">
        <ele>1790</ele>
        <time>2021-03-27T11:36:38Z</time>
      </trkpt>
      <trkpt lat="45.64312" lon="6.8007">
        <ele>1790.9</ele>
        <time>2021-03-27T11:36:39Z</time>
      </trkpt>
      <trkpt lat="45.64313" lon="6.8007">
        <ele>1790.9</ele>
        <time>2021-03-27T11:36:40Z</time>
      </trkpt>
      <trkpt lat="45.64314" lon="6.80071">
        <ele>1790.8</ele>
        <time>2021-03-27T11:36:41Z</time>
      </trkpt>
      <trkpt lat="45.64314" lon="6.80071">
        <ele>1790.8</ele>
        <time>2021-03-27T11:36:42Z</time>
      </trkpt>
      <trkpt lat="45.64315" lon="6.80072">
        <ele>1791.6</ele>
        <time>2021-03-27T11:36:43Z</time>
      </trkpt>
      <trkpt lat="45.64316" lon="6.80073">
        <ele>1791.6</ele>
        <time>2021-03-27T11:36:44Z</time>
      </trkpt>
      <trkpt lat="45.64317" lon="6.80074">
        <ele>1791.6</ele>
        <time>2021-03-27T11:36:45Z</time>
      </trkpt>
      <trkpt lat="45.64318" lon="6.80075">
        <ele>1791.6</ele>
        <time>2021-03-27T11:36:46Z</time>
      </trkpt>
      <trkpt lat="45.64318" lon="6.80076">
        <ele>1792.2</ele>
        <time>2021-03-27T11:36:47Z</time>
      </trkpt>
      <trkpt lat="45.64319" lon="6.80076">
        <ele>1792.2</ele>
        <time>2021-03-27T11:36:48Z</time>
      </trkpt>
      <trkpt lat="45.6432" lon="6.80077">
        <ele>1792.2</ele>
        <time>2021-03-27T11:36:49Z</time>
      </trkpt>
      <trkpt lat="45.64321" lon="6.80078">
        <ele>1792.2</ele>
        <time>2021-03-27T11:36:50Z</time>
      </trkpt>
      <trkpt lat="45.64321" lon="6.80079">
        <ele>1793</ele>
        <time>2021-03-27T11:36:51Z</time>
      </trkpt>
      <trkpt lat="45.64322" lon="6.8008">
        <ele>1792.8</ele>
        <time>2021-03-27T11:36:52Z</time>
      </trkpt>
      <trkpt lat="45.64323" lon="6.8008">
        <ele>1792.8</ele>
        <time>2021-03-27T11:36:53Z</time>
      </trkpt>
      <trkpt lat="45.64323" lon="6.80081">
        <ele>1792.8</ele>
        <time>2021-03-27T11:36:54Z</time>
      </trkpt>
      <trkpt lat="45.64324" lon="6.80082">
        <ele>1793.6</ele>
        <time>2021-03-27T11:36:55Z</time>
      </trkpt>
      <trkpt lat="45.64325" lon="6.80082">
        <ele>1793.6</ele>
        <time>2021-03-27T11:36:56Z</time>
      </trkpt>
      <trkpt lat="45.64326" lon="6.80083">
        <ele>1793.6</ele>
        <time>2021-03-27T11:36:57Z</time>
      </trkpt>
      <trkpt lat="45.64327" lon="6.80084">
        <ele>1793.6</ele>
        <time>2021-03-27T11:36:58Z</time>
      </trkpt>
      <trkpt lat="45.64327" lon="6.80084">
        <ele>1794.2</ele>
        <time>2021-03-27T11:36:59Z</time>
      </trkpt>
      <trkpt lat="45.64328" lon="6.80086">
        <ele>1794.2</ele>
        <time>2021-03-27T11:37:00Z</time>
      </trkpt>
      <trkpt lat="45.64328" lon="6.80086">
        <ele>1794.2</ele>
        <time>2021-03-27T11:37:01Z</time>
      </trkpt>
      <trkpt lat="45.64329" lon="6.80087">
        <ele>1794.2</ele>
        <time>2021-03-27T11:37:02Z</time>
      </trkpt>
      <trkpt lat="45.64329" lon="6.80088">
        <ele>1794.1</ele>
        <time>2021-03-27T11:37:03Z</time>
      </trkpt>
      <trkpt lat="45.6433" lon="6.80089">
        <ele>1795</ele>
        <time>2021-03-27T11:37:04Z</time>
      </trkpt>
      <trkpt lat="45.64331" lon="6.8009">
        <ele>1795</ele>
        <time>2021-03-27T11:37:05Z</time>
      </trkpt>
      <trkpt lat="45.64331" lon="6.80091">
        <ele>1795</ele>
        <time>2021-03-27T11:37:06Z</time>
      </trkpt>
      <trkpt lat="45.64332" lon="6.80092">
        <ele>1795</ele>
        <time>2021-03-27T11:37:07Z</time>
      </trkpt>
      <trkpt lat="45.64333" lon="6.80093">
        <ele>1794.9</ele>
        <time>2021-03-27T11:37:08Z</time>
      </trkpt>
      <trkpt lat="45.64334" lon="6.80094">
        <ele>1795.7</ele>
        <time>2021-03-27T11:37:09Z</time>
      </trkpt>
      <trkpt lat="45.64334" lon="6.80094">
        <ele>1795.7</ele>
        <time>2021-03-27T11:37:10Z</time>
      </trkpt>
      <trkpt lat="45.64335" lon="6.80095">
        <ele>1795.7</ele>
        <time>2021-03-27T11:37:11Z</time>
      </trkpt>
      <trkpt lat="45.64336" lon="6.80096">
        <ele>1795.7</ele>
        <time>2021-03-27T11:37:12Z</time>
      </trkpt>
      <trkpt lat="45.64336" lon="6.80096">
        <ele>1796.6</ele>
        <time>2021-03-27T11:37:13Z</time>
      </trkpt>
      <trkpt lat="45.64337" lon="6.80097">
        <ele>1796.6</ele>
        <time>2021-03-27T11:37:14Z</time>
      </trkpt>
      <trkpt lat="45.64338" lon="6.80097">
        <ele>1796.5</ele>
        <time>2021-03-27T11:37:15Z</time>
      </trkpt>
      <trkpt lat="45.64338" lon="6.80098">
        <ele>1796.5</ele>
        <time>2021-03-27T11:37:16Z</time>
      </trkpt>
      <trkpt lat="45.64339" lon="6.80099">
        <ele>1797.3</ele>
        <time>2021-03-27T11:37:17Z</time>
      </trkpt>
      <trkpt lat="45.6434" lon="6.801">
        <ele>1797.3</ele>
        <time>2021-03-27T11:37:18Z</time>
      </trkpt>
      <trkpt lat="45.64341" lon="6.801">
        <ele>1797.3</ele>
        <time>2021-03-27T11:37:19Z</time>
      </trkpt>
      <trkpt lat="45.64342" lon="6.80101">
        <ele>1797.3</ele>
        <time>2021-03-27T11:37:20Z</time>
      </trkpt>
      <trkpt lat="45.64343" lon="6.80102">
        <ele>1797.8</ele>
        <time>2021-03-27T11:37:21Z</time>
      </trkpt>
      <trkpt lat="45.64344" lon="6.80103">
        <ele>1797.8</ele>
        <time>2021-03-27T11:37:22Z</time>
      </trkpt>
      <trkpt lat="45.64345" lon="6.80103">
        <ele>1797.8</ele>
        <time>2021-03-27T11:37:23Z</time>
      </trkpt>
      <trkpt lat="45.64345" lon="6.80105">
        <ele>1798.4</ele>
        <time>2021-03-27T11:37:24Z</time>
      </trkpt>
      <trkpt lat="45.64346" lon="6.80106">
        <ele>1798.2</ele>
        <time>2021-03-27T11:37:25Z</time>
      </trkpt>
      <trkpt lat="45.64347" lon="6.80107">
        <ele>1798.2</ele>
        <time>2021-03-27T11:37:26Z</time>
      </trkpt>
      <trkpt lat="45.64348" lon="6.80107">
        <ele>1798.2</ele>
        <time>2021-03-27T11:37:27Z</time>
      </trkpt>
      <trkpt lat="45.64348" lon="6.80107">
        <ele>1798.2</ele>
        <time>2021-03-27T11:37:28Z</time>
      </trkpt>
      <trkpt lat="45.64349" lon="6.80108">
        <ele>1798.9</ele>
        <time>2021-03-27T11:37:29Z</time>
      </trkpt>
      <trkpt lat="45.6435" lon="6.80108">
        <ele>1798.9</ele>
        <time>2021-03-27T11:37:30Z</time>
      </trkpt>
      <trkpt lat="45.64351" lon="6.80108">
        <ele>1798.9</ele>
        <time>2021-03-27T11:37:31Z</time>
      </trkpt>
      <trkpt lat="45.64351" lon="6.80108">
        <ele>1799.5</ele>
        <time>2021-03-27T11:37:32Z</time>
      </trkpt>
      <trkpt lat="45.64352" lon="6.80109">
        <ele>1799.5</ele>
        <time>2021-03-27T11:37:33Z</time>
      </trkpt>
      <trkpt lat="45.64352" lon="6.8011">
        <ele>1799.3</ele>
        <time>2021-03-27T11:37:34Z</time>
      </trkpt>
      <trkpt lat="45.64353" lon="6.80111">
        <ele>1799.3</ele>
        <time>2021-03-27T11:37:35Z</time>
      </trkpt>
      <trkpt lat="45.64353" lon="6.80111">
        <ele>1799.3</ele>
        <time>2021-03-27T11:37:36Z</time>
      </trkpt>
      <trkpt lat="45.64354" lon="6.80112">
        <ele>1800</ele>
        <time>2021-03-27T11:37:37Z</time>
      </trkpt>
      <trkpt lat="45.64355" lon="6.80113">
        <ele>1800</ele>
        <time>2021-03-27T11:37:38Z</time>
      </trkpt>
      <trkpt lat="45.64355" lon="6.80114">
        <ele>1800</ele>
        <time>2021-03-27T11:37:39Z</time>
      </trkpt>
      <trkpt lat="45.64356" lon="6.80114">
        <ele>1799.8</ele>
        <time>2021-03-27T11:37:40Z</time>
      </trkpt>
      <trkpt lat="45.64357" lon="6.80115">
        <ele>1799.8</ele>
        <time>2021-03-27T11:37:41Z</time>
      </trkpt>
      <trkpt lat="45.64357" lon="6.80115">
        <ele>1800.5</ele>
        <time>2021-03-27T11:37:42Z</time>
      </trkpt>
      <trkpt lat="45.64358" lon="6.80116">
        <ele>1800.5</ele>
        <time>2021-03-27T11:37:43Z</time>
      </trkpt>
      <trkpt lat="45.64359" lon="6.80116">
        <ele>1800.5</ele>
        <time>2021-03-27T11:37:44Z</time>
      </trkpt>
      <trkpt lat="45.64359" lon="6.80117">
        <ele>1800.5</ele>
        <time>2021-03-27T11:37:45Z</time>
      </trkpt>
      <trkpt lat="45.6436" lon="6.80117">
        <ele>1800.5</ele>
        <time>2021-03-27T11:37:46Z</time>
      </trkpt>
      <trkpt lat="45.6436" lon="6.80118">
        <ele>1801</ele>
        <time>2021-03-27T11:37:47Z</time>
      </trkpt>
      <trkpt lat="45.64361" lon="6.80119">
        <ele>1801</ele>
        <time>2021-03-27T11:37:48Z</time>
      </trkpt>
      <trkpt lat="45.64362" lon="6.8012">
        <ele>1801</ele>
        <time>2021-03-27T11:37:49Z</time>
      </trkpt>
      <trkpt lat="45.64362" lon="6.8012">
        <ele>1801</ele>
        <time>2021-03-27T11:37:50Z</time>
      </trkpt>
      <trkpt lat="45.64363" lon="6.80121">
        <ele>1801</ele>
        <time>2021-03-27T11:37:51Z</time>
      </trkpt>
      <trkpt lat="45.64363" lon="6.80122">
        <ele>1801.7</ele>
        <time>2021-03-27T11:37:52Z</time>
      </trkpt>
      <trkpt lat="45.64364" lon="6.80123">
        <ele>1801.5</ele>
        <time>2021-03-27T11:37:53Z</time>
      </trkpt>
      <trkpt lat="45.64364" lon="6.80124">
        <ele>1801.5</ele>
        <time>2021-03-27T11:37:54Z</time>
      </trkpt>
      <trkpt lat="45.64364" lon="6.80125">
        <ele>1801.5</ele>
        <time>2021-03-27T11:37:55Z</time>
      </trkpt>
      <trkpt lat="45.64365" lon="6.80126">
        <ele>1801.5</ele>
        <time>2021-03-27T11:37:56Z</time>
      </trkpt>
      <trkpt lat="45.64365" lon="6.80126">
        <ele>1801.5</ele>
        <time>2021-03-27T11:37:57Z</time>
      </trkpt>
      <trkpt lat="45.64365" lon="6.80127">
        <ele>1801.3</ele>
        <time>2021-03-27T11:37:58Z</time>
      </trkpt>
      <trkpt lat="45.64366" lon="6.80128">
        <ele>1801.3</ele>
        <time>2021-03-27T11:37:59Z</time>
      </trkpt>
      <trkpt lat="45.64366" lon="6.80128">
        <ele>1801.3</ele>
        <time>2021-03-27T11:38:00Z</time>
      </trkpt>
      <trkpt lat="45.64366" lon="6.80129">
        <ele>1802</ele>
        <time>2021-03-27T11:38:01Z</time>
      </trkpt>
      <trkpt lat="45.64366" lon="6.8013">
        <ele>1802</ele>
        <time>2021-03-27T11:38:02Z</time>
      </trkpt>
      <trkpt lat="45.64367" lon="6.8013">
        <ele>1802</ele>
        <time>2021-03-27T11:38:03Z</time>
      </trkpt>
      <trkpt lat="45.64367" lon="6.80131">
        <ele>1801.8</ele>
        <time>2021-03-27T11:38:04Z</time>
      </trkpt>
      <trkpt lat="45.64367" lon="6.80132">
        <ele>1801.8</ele>
        <time>2021-03-27T11:38:05Z</time>
      </trkpt>
      <trkpt lat="45.64367" lon="6.80133">
        <ele>1801.8</ele>
        <time>2021-03-27T11:38:06Z</time>
      </trkpt>
      <trkpt lat="45.64368" lon="6.80133">
        <ele>1801.8</ele>
        <time>2021-03-27T11:38:07Z</time>
      </trkpt>
      <trkpt lat="45.64368" lon="6.80134">
        <ele>1801.8</ele>
        <time>2021-03-27T11:38:08Z</time>
      </trkpt>
      <trkpt lat="45.64368" lon="6.80134">
        <ele>1801.8</ele>
        <time>2021-03-27T11:38:09Z</time>
      </trkpt>
      <trkpt lat="45.64369" lon="6.80134">
        <ele>1801.8</ele>
        <time>2021-03-27T11:38:10Z</time>
      </trkpt>
      <trkpt lat="45.64369" lon="6.80134">
        <ele>1802.5</ele>
        <time>2021-03-27T11:38:11Z</time>
      </trkpt>
      <trkpt lat="45.64369" lon="6.80134">
        <ele>1802.5</ele>
        <time>2021-03-27T11:38:12Z</time>
      </trkpt>
      <trkpt lat="45.6437" lon="6.80134">
        <ele>1802.5</ele>
        <time>2021-03-27T11:38:13Z</time>
      </trkpt>
      <trkpt lat="45.64369" lon="6.80133">
        <ele>1802.5</ele>
        <time>2021-03-27T11:38:14Z</time>
      </trkpt>
      <trkpt lat="45.64369" lon="6.80132">
        <ele>1802.5</ele>
        <time>2021-03-27T11:38:15Z</time>
      </trkpt>
      <trkpt lat="45.64369" lon="6.80131">
        <ele>1802.5</ele>
        <time>2021-03-27T11:38:16Z</time>
      </trkpt>
      <trkpt lat="45.64369" lon="6.8013">
        <ele>1802</ele>
        <time>2021-03-27T11:38:17Z</time>
      </trkpt>
      <trkpt lat="45.64369" lon="6.80129">
        <ele>1802.6</ele>
        <time>2021-03-27T11:38:18Z</time>
      </trkpt>
      <trkpt lat="45.64369" lon="6.80129">
        <ele>1802.6</ele>
        <time>2021-03-27T11:38:19Z</time>
      </trkpt>
      <trkpt lat="45.64369" lon="6.80128">
        <ele>1802.6</ele>
        <time>2021-03-27T11:38:20Z</time>
      </trkpt>
      <trkpt lat="45.64369" lon="6.80128">
        <ele>1802.6</ele>
        <time>2021-03-27T11:38:21Z</time>
      </trkpt>
      <trkpt lat="45.6437" lon="6.80128">
        <ele>1802.6</ele>
        <time>2021-03-27T11:38:22Z</time>
      </trkpt>
      <trkpt lat="45.6437" lon="6.80127">
        <ele>1802.6</ele>
        <time>2021-03-27T11:38:23Z</time>
      </trkpt>
      <trkpt lat="45.6437" lon="6.80127">
        <ele>1802.6</ele>
        <time>2021-03-27T11:38:24Z</time>
      </trkpt>
      <trkpt lat="45.6437" lon="6.80127">
        <ele>1802.6</ele>
        <time>2021-03-27T11:38:25Z</time>
      </trkpt>
      <trkpt lat="45.6437" lon="6.80126">
        <ele>1802.9</ele>
        <time>2021-03-27T11:38:26Z</time>
      </trkpt>
      <trkpt lat="45.6437" lon="6.80126">
        <ele>1802.9</ele>
        <time>2021-03-27T11:38:27Z</time>
      </trkpt>
      <trkpt lat="45.6437" lon="6.80126">
        <ele>1802.9</ele>
        <time>2021-03-27T11:38:28Z</time>
      </trkpt>
      <trkpt lat="45.64371" lon="6.80125">
        <ele>1802.9</ele>
        <time>2021-03-27T11:38:29Z</time>
      </trkpt>
      <trkpt lat="45.64371" lon="6.80125">
        <ele>1802.9</ele>
        <time>2021-03-27T11:38:30Z</time>
      </trkpt>
      <trkpt lat="45.64371" lon="6.80125">
        <ele>1802.9</ele>
        <time>2021-03-27T11:38:31Z</time>
      </trkpt>
      <trkpt lat="45.64371" lon="6.80124">
        <ele>1802.9</ele>
        <time>2021-03-27T11:38:32Z</time>
      </trkpt>
      <trkpt lat="45.64371" lon="6.80124">
        <ele>1802.9</ele>
        <time>2021-03-27T11:38:33Z</time>
      </trkpt>
      <trkpt lat="45.64371" lon="6.80124">
        <ele>1802.9</ele>
        <time>2021-03-27T11:38:34Z</time>
      </trkpt>
      <trkpt lat="45.64372" lon="6.80123">
        <ele>1802.9</ele>
        <time>2021-03-27T11:38:35Z</time>
      </trkpt>
      <trkpt lat="45.64372" lon="6.80123">
        <ele>1802.9</ele>
        <time>2021-03-27T11:38:36Z</time>
      </trkpt>
      <trkpt lat="45.64372" lon="6.80123">
        <ele>1802.9</ele>
        <time>2021-03-27T11:38:37Z</time>
      </trkpt>
      <trkpt lat="45.64372" lon="6.80122">
        <ele>1803.5</ele>
        <time>2021-03-27T11:38:38Z</time>
      </trkpt>
      <trkpt lat="45.64372" lon="6.80122">
        <ele>1803.7</ele>
        <time>2021-03-27T11:38:39Z</time>
      </trkpt>
      <trkpt lat="45.64372" lon="6.80122">
        <ele>1803.7</ele>
        <time>2021-03-27T11:38:40Z</time>
      </trkpt>
      <trkpt lat="45.64372" lon="6.80121">
        <ele>1803.7</ele>
        <time>2021-03-27T11:38:41Z</time>
      </trkpt>
      <trkpt lat="45.64373" lon="6.80121">
        <ele>1803.7</ele>
        <time>2021-03-27T11:38:42Z</time>
      </trkpt>
      <trkpt lat="45.64373" lon="6.80121">
        <ele>1803.7</ele>
        <time>2021-03-27T11:38:43Z</time>
      </trkpt>
      <trkpt lat="45.64373" lon="6.8012">
        <ele>1803.7</ele>
        <time>2021-03-27T11:38:44Z</time>
      </trkpt>
      <trkpt lat="45.64373" lon="6.8012">
        <ele>1803.7</ele>
        <time>2021-03-27T11:39:08Z</time>
      </trkpt>
      <trkpt lat="45.64373" lon="6.8012">
        <ele>1803.7</ele>
        <time>2021-03-27T11:39:09Z</time>
      </trkpt>
      <trkpt lat="45.64373" lon="6.80119">
        <ele>1803.7</ele>
        <time>2021-03-27T11:39:10Z</time>
      </trkpt>
      <trkpt lat="45.64374" lon="6.80119">
        <ele>1803.7</ele>
        <time>2021-03-27T11:39:11Z</time>
      </trkpt>
      <trkpt lat="45.64373" lon="6.80118">
        <ele>1803.9</ele>
        <time>2021-03-27T11:39:12Z</time>
      </trkpt>
      <trkpt lat="45.64373" lon="6.80117">
        <ele>1803.9</ele>
        <time>2021-03-27T11:39:13Z</time>
      </trkpt>
      <trkpt lat="45.64373" lon="6.80115">
        <ele>1803.9</ele>
        <time>2021-03-27T11:39:14Z</time>
      </trkpt>
      <trkpt lat="45.64373" lon="6.80114">
        <ele>1803.9</ele>
        <time>2021-03-27T11:39:15Z</time>
      </trkpt>
      <trkpt lat="45.64374" lon="6.80113">
        <ele>1804.1</ele>
        <time>2021-03-27T11:39:16Z</time>
      </trkpt>
      <trkpt lat="45.64375" lon="6.80112">
        <ele>1804.1</ele>
        <time>2021-03-27T11:39:17Z</time>
      </trkpt>
      <trkpt lat="45.64375" lon="6.80111">
        <ele>1804.8</ele>
        <time>2021-03-27T11:39:18Z</time>
      </trkpt>
      <trkpt lat="45.64376" lon="6.8011">
        <ele>1804.8</ele>
        <time>2021-03-27T11:39:19Z</time>
      </trkpt>
      <trkpt lat="45.64376" lon="6.80109">
        <ele>1805</ele>
        <time>2021-03-27T11:39:20Z</time>
      </trkpt>
      <trkpt lat="45.64377" lon="6.80109">
        <ele>1805</ele>
        <time>2021-03-27T11:39:21Z</time>
      </trkpt>
      <trkpt lat="45.64377" lon="6.80108">
        <ele>1805</ele>
        <time>2021-03-27T11:39:22Z</time>
      </trkpt>
      <trkpt lat="45.64377" lon="6.80107">
        <ele>1805</ele>
        <time>2021-03-27T11:39:23Z</time>
      </trkpt>
      <trkpt lat="45.64378" lon="6.80107">
        <ele>1805.6</ele>
        <time>2021-03-27T11:39:24Z</time>
      </trkpt>
      <trkpt lat="45.64379" lon="6.80107">
        <ele>1805.6</ele>
        <time>2021-03-27T11:39:25Z</time>
      </trkpt>
      <trkpt lat="45.64379" lon="6.80108">
        <ele>1805.5</ele>
        <time>2021-03-27T11:39:26Z</time>
      </trkpt>
      <trkpt lat="45.6438" lon="6.80109">
        <ele>1805.4</ele>
        <time>2021-03-27T11:39:27Z</time>
      </trkpt>
      <trkpt lat="45.6438" lon="6.80109">
        <ele>1805.3</ele>
        <time>2021-03-27T11:39:28Z</time>
      </trkpt>
      <trkpt lat="45.64381" lon="6.80109">
        <ele>1805.3</ele>
        <time>2021-03-27T11:39:29Z</time>
      </trkpt>
      <trkpt lat="45.64382" lon="6.8011">
        <ele>1805.6</ele>
        <time>2021-03-27T11:39:30Z</time>
      </trkpt>
      <trkpt lat="45.64382" lon="6.80111">
        <ele>1805.5</ele>
        <time>2021-03-27T11:39:31Z</time>
      </trkpt>
      <trkpt lat="45.64383" lon="6.80112">
        <ele>1805.4</ele>
        <time>2021-03-27T11:39:32Z</time>
      </trkpt>
      <trkpt lat="45.64384" lon="6.80113">
        <ele>1805.3</ele>
        <time>2021-03-27T11:39:33Z</time>
      </trkpt>
      <trkpt lat="45.64384" lon="6.80114">
        <ele>1805.7</ele>
        <time>2021-03-27T11:39:34Z</time>
      </trkpt>
      <trkpt lat="45.64385" lon="6.80115">
        <ele>1805.6</ele>
        <time>2021-03-27T11:39:35Z</time>
      </trkpt>
      <trkpt lat="45.64386" lon="6.80116">
        <ele>1805.6</ele>
        <time>2021-03-27T11:39:36Z</time>
      </trkpt>
      <trkpt lat="45.64387" lon="6.80116">
        <ele>1805.5</ele>
        <time>2021-03-27T11:39:37Z</time>
      </trkpt>
      <trkpt lat="45.64388" lon="6.80117">
        <ele>1806</ele>
        <time>2021-03-27T11:39:38Z</time>
      </trkpt>
      <trkpt lat="45.64388" lon="6.80118">
        <ele>1805.9</ele>
        <time>2021-03-27T11:39:39Z</time>
      </trkpt>
      <trkpt lat="45.64389" lon="6.80119">
        <ele>1805.6</ele>
        <time>2021-03-27T11:39:40Z</time>
      </trkpt>
      <trkpt lat="45.6439" lon="6.80119">
        <ele>1806.2</ele>
        <time>2021-03-27T11:39:41Z</time>
      </trkpt>
      <trkpt lat="45.64391" lon="6.8012">
        <ele>1806.2</ele>
        <time>2021-03-27T11:39:42Z</time>
      </trkpt>
      <trkpt lat="45.64392" lon="6.80121">
        <ele>1806.1</ele>
        <time>2021-03-27T11:39:43Z</time>
      </trkpt>
      <trkpt lat="45.64393" lon="6.80122">
        <ele>1806.7</ele>
        <time>2021-03-27T11:39:44Z</time>
      </trkpt>
      <trkpt lat="45.64395" lon="6.80123">
        <ele>1806.4</ele>
        <time>2021-03-27T11:39:45Z</time>
      </trkpt>
      <trkpt lat="45.64396" lon="6.80124">
        <ele>1806.3</ele>
        <time>2021-03-27T11:39:46Z</time>
      </trkpt>
      <trkpt lat="45.64396" lon="6.80124">
        <ele>1806.9</ele>
        <time>2021-03-27T11:39:47Z</time>
      </trkpt>
      <trkpt lat="45.64397" lon="6.80125">
        <ele>1806.8</ele>
        <time>2021-03-27T11:39:48Z</time>
      </trkpt>
      <trkpt lat="45.64398" lon="6.80126">
        <ele>1806.8</ele>
        <time>2021-03-27T11:39:49Z</time>
      </trkpt>
      <trkpt lat="45.64399" lon="6.80127">
        <ele>1807.4</ele>
        <time>2021-03-27T11:39:50Z</time>
      </trkpt>
      <trkpt lat="45.644" lon="6.80127">
        <ele>1807.1</ele>
        <time>2021-03-27T11:39:51Z</time>
      </trkpt>
      <trkpt lat="45.64401" lon="6.80128">
        <ele>1807</ele>
        <time>2021-03-27T11:39:52Z</time>
      </trkpt>
      <trkpt lat="45.64401" lon="6.80129">
        <ele>1806.9</ele>
        <time>2021-03-27T11:39:53Z</time>
      </trkpt>
      <trkpt lat="45.64402" lon="6.80129">
        <ele>1807.4</ele>
        <time>2021-03-27T11:39:54Z</time>
      </trkpt>
      <trkpt lat="45.64403" lon="6.8013">
        <ele>1807.3</ele>
        <time>2021-03-27T11:39:55Z</time>
      </trkpt>
      <trkpt lat="45.64404" lon="6.80131">
        <ele>1807.2</ele>
        <time>2021-03-27T11:39:56Z</time>
      </trkpt>
      <trkpt lat="45.64404" lon="6.80132">
        <ele>1806.9</ele>
        <time>2021-03-27T11:39:57Z</time>
      </trkpt>
      <trkpt lat="45.64405" lon="6.80132">
        <ele>1807.4</ele>
        <time>2021-03-27T11:39:58Z</time>
      </trkpt>
      <trkpt lat="45.64406" lon="6.80133">
        <ele>1807.3</ele>
        <time>2021-03-27T11:39:59Z</time>
      </trkpt>
      <trkpt lat="45.64408" lon="6.80135">
        <ele>1807</ele>
        <time>2021-03-27T11:40:00Z</time>
      </trkpt>
      <trkpt lat="45.64409" lon="6.80136">
        <ele>1807.5</ele>
        <time>2021-03-27T11:40:01Z</time>
      </trkpt>
      <trkpt lat="45.64409" lon="6.80137">
        <ele>1807.4</ele>
        <time>2021-03-27T11:40:02Z</time>
      </trkpt>
      <trkpt lat="45.64411" lon="6.80139">
        <ele>1807.3</ele>
        <time>2021-03-27T11:40:03Z</time>
      </trkpt>
      <trkpt lat="45.64412" lon="6.8014">
        <ele>1807.6</ele>
        <time>2021-03-27T11:40:04Z</time>
      </trkpt>
      <trkpt lat="45.64413" lon="6.80143">
        <ele>1807.5</ele>
        <time>2021-03-27T11:40:05Z</time>
      </trkpt>
      <trkpt lat="45.64414" lon="6.80143">
        <ele>1807.4</ele>
        <time>2021-03-27T11:40:06Z</time>
      </trkpt>
      <trkpt lat="45.64414" lon="6.80144">
        <ele>1807.7</ele>
        <time>2021-03-27T11:40:07Z</time>
      </trkpt>
      <trkpt lat="45.64415" lon="6.80145">
        <ele>1807.6</ele>
        <time>2021-03-27T11:40:08Z</time>
      </trkpt>
      <trkpt lat="45.64416" lon="6.80146">
        <ele>1807.6</ele>
        <time>2021-03-27T11:40:09Z</time>
      </trkpt>
      <trkpt lat="45.64417" lon="6.80148">
        <ele>1807.5</ele>
        <time>2021-03-27T11:40:10Z</time>
      </trkpt>
      <trkpt lat="45.64417" lon="6.80149">
        <ele>1807.8</ele>
        <time>2021-03-27T11:40:11Z</time>
      </trkpt>
      <trkpt lat="45.64418" lon="6.8015">
        <ele>1807.8</ele>
        <time>2021-03-27T11:40:12Z</time>
      </trkpt>
      <trkpt lat="45.64419" lon="6.80151">
        <ele>1807.7</ele>
        <time>2021-03-27T11:40:13Z</time>
      </trkpt>
      <trkpt lat="45.6442" lon="6.80152">
        <ele>1808.2</ele>
        <time>2021-03-27T11:40:14Z</time>
      </trkpt>
      <trkpt lat="45.64421" lon="6.80153">
        <ele>1807.9</ele>
        <time>2021-03-27T11:40:15Z</time>
      </trkpt>
      <trkpt lat="45.64422" lon="6.80154">
        <ele>1807.8</ele>
        <time>2021-03-27T11:40:16Z</time>
      </trkpt>
      <trkpt lat="45.64423" lon="6.80154">
        <ele>1807.7</ele>
        <time>2021-03-27T11:40:17Z</time>
      </trkpt>
      <trkpt lat="45.64424" lon="6.80155">
        <ele>1808.2</ele>
        <time>2021-03-27T11:40:18Z</time>
      </trkpt>
      <trkpt lat="45.64425" lon="6.80155">
        <ele>1808.2</ele>
        <time>2021-03-27T11:40:19Z</time>
      </trkpt>
      <trkpt lat="45.64426" lon="6.80155">
        <ele>1808.1</ele>
        <time>2021-03-27T11:40:20Z</time>
      </trkpt>
      <trkpt lat="45.64427" lon="6.80156">
        <ele>1808.5</ele>
        <time>2021-03-27T11:40:21Z</time>
      </trkpt>
      <trkpt lat="45.64428" lon="6.80156">
        <ele>1808.5</ele>
        <time>2021-03-27T11:40:22Z</time>
      </trkpt>
      <trkpt lat="45.64429" lon="6.80157">
        <ele>1808.4</ele>
        <time>2021-03-27T11:40:23Z</time>
      </trkpt>
      <trkpt lat="45.64429" lon="6.80157">
        <ele>1808.5</ele>
        <time>2021-03-27T11:40:24Z</time>
      </trkpt>
      <trkpt lat="45.6443" lon="6.80158">
        <ele>1808.4</ele>
        <time>2021-03-27T11:40:25Z</time>
      </trkpt>
      <trkpt lat="45.64431" lon="6.80159">
        <ele>1808.4</ele>
        <time>2021-03-27T11:40:26Z</time>
      </trkpt>
      <trkpt lat="45.64432" lon="6.8016">
        <ele>1808.3</ele>
        <time>2021-03-27T11:40:27Z</time>
      </trkpt>
      <trkpt lat="45.64433" lon="6.80161">
        <ele>1808.7</ele>
        <time>2021-03-27T11:40:28Z</time>
      </trkpt>
      <trkpt lat="45.64433" lon="6.80162">
        <ele>1808.4</ele>
        <time>2021-03-27T11:40:29Z</time>
      </trkpt>
      <trkpt lat="45.64434" lon="6.80163">
        <ele>1808.3</ele>
        <time>2021-03-27T11:40:30Z</time>
      </trkpt>
      <trkpt lat="45.64435" lon="6.80164">
        <ele>1808.8</ele>
        <time>2021-03-27T11:40:31Z</time>
      </trkpt>
      <trkpt lat="45.64436" lon="6.80165">
        <ele>1808.7</ele>
        <time>2021-03-27T11:40:32Z</time>
      </trkpt>
      <trkpt lat="45.64437" lon="6.80166">
        <ele>1808.5</ele>
        <time>2021-03-27T11:40:33Z</time>
      </trkpt>
      <trkpt lat="45.64437" lon="6.80166">
        <ele>1808.4</ele>
        <time>2021-03-27T11:40:34Z</time>
      </trkpt>
      <trkpt lat="45.64438" lon="6.80167">
        <ele>1808.9</ele>
        <time>2021-03-27T11:40:35Z</time>
      </trkpt>
      <trkpt lat="45.64439" lon="6.80168">
        <ele>1808.8</ele>
        <time>2021-03-27T11:40:36Z</time>
      </trkpt>
      <trkpt lat="45.6444" lon="6.80169">
        <ele>1808.7</ele>
        <time>2021-03-27T11:40:37Z</time>
      </trkpt>
      <trkpt lat="45.6444" lon="6.8017">
        <ele>1808.6</ele>
        <time>2021-03-27T11:40:38Z</time>
      </trkpt>
      <trkpt lat="45.64441" lon="6.8017">
        <ele>1808.9</ele>
        <time>2021-03-27T11:40:39Z</time>
      </trkpt>
      <trkpt lat="45.64442" lon="6.80171">
        <ele>1808.9</ele>
        <time>2021-03-27T11:40:40Z</time>
      </trkpt>
      <trkpt lat="45.64442" lon="6.80171">
        <ele>1808.8</ele>
        <time>2021-03-27T11:40:41Z</time>
      </trkpt>
      <trkpt lat="45.64443" lon="6.80172">
        <ele>1808.7</ele>
        <time>2021-03-27T11:40:42Z</time>
      </trkpt>
      <trkpt lat="45.64443" lon="6.80172">
        <ele>1808.6</ele>
        <time>2021-03-27T11:40:43Z</time>
      </trkpt>
      <trkpt lat="45.64443" lon="6.80172">
        <ele>1808.5</ele>
        <time>2021-03-27T11:40:44Z</time>
      </trkpt>
      <trkpt lat="45.64443" lon="6.80172">
        <ele>1808.4</ele>
        <time>2021-03-27T11:40:45Z</time>
      </trkpt>
      <trkpt lat="45.64444" lon="6.80173">
        <ele>1808.3</ele>
        <time>2021-03-27T11:40:46Z</time>
      </trkpt>
      <trkpt lat="45.64444" lon="6.80173">
        <ele>1808.8</ele>
        <time>2021-03-27T11:40:47Z</time>
      </trkpt>
      <trkpt lat="45.64444" lon="6.80173">
        <ele>1808.8</ele>
        <time>2021-03-27T11:40:48Z</time>
      </trkpt>
      <trkpt lat="45.64445" lon="6.80173">
        <ele>1808.7</ele>
        <time>2021-03-27T11:40:49Z</time>
      </trkpt>
      <trkpt lat="45.64445" lon="6.80174">
        <ele>1808.6</ele>
        <time>2021-03-27T11:40:50Z</time>
      </trkpt>
      <trkpt lat="45.64445" lon="6.80174">
        <ele>1808.5</ele>
        <time>2021-03-27T11:40:51Z</time>
      </trkpt>
      <trkpt lat="45.64445" lon="6.80174">
        <ele>1808.3</ele>
        <time>2021-03-27T11:40:52Z</time>
      </trkpt>
      <trkpt lat="45.64446" lon="6.80174">
        <ele>1808.2</ele>
        <time>2021-03-27T11:40:54Z</time>
      </trkpt>
      <trkpt lat="45.64446" lon="6.80175">
        <ele>1808.1</ele>
        <time>2021-03-27T11:40:55Z</time>
      </trkpt>
      <trkpt lat="45.64446" lon="6.80175">
        <ele>1808.1</ele>
        <time>2021-03-27T11:40:56Z</time>
      </trkpt>
      <trkpt lat="45.64447" lon="6.80175">
        <ele>1808</ele>
        <time>2021-03-27T11:40:57Z</time>
      </trkpt>
      <trkpt lat="45.64448" lon="6.80176">
        <ele>1808.5</ele>
        <time>2021-03-27T11:40:58Z</time>
      </trkpt>
      <trkpt lat="45.64448" lon="6.80177">
        <ele>1808.4</ele>
        <time>2021-03-27T11:40:59Z</time>
      </trkpt>
      <trkpt lat="45.64449" lon="6.80178">
        <ele>1808.3</ele>
        <time>2021-03-27T11:41:00Z</time>
      </trkpt>
      <trkpt lat="45.6445" lon="6.80179">
        <ele>1808.2</ele>
        <time>2021-03-27T11:41:01Z</time>
      </trkpt>
      <trkpt lat="45.6445" lon="6.80179">
        <ele>1808.6</ele>
        <time>2021-03-27T11:41:02Z</time>
      </trkpt>
      <trkpt lat="45.64451" lon="6.8018">
        <ele>1808.6</ele>
        <time>2021-03-27T11:41:03Z</time>
      </trkpt>
      <trkpt lat="45.64452" lon="6.80181">
        <ele>1808.5</ele>
        <time>2021-03-27T11:41:04Z</time>
      </trkpt>
      <trkpt lat="45.64452" lon="6.80181">
        <ele>1808.4</ele>
        <time>2021-03-27T11:41:05Z</time>
      </trkpt>
      <trkpt lat="45.64453" lon="6.80182">
        <ele>1808.9</ele>
        <time>2021-03-27T11:41:06Z</time>
      </trkpt>
      <trkpt lat="45.64454" lon="6.80183">
        <ele>1808.9</ele>
        <time>2021-03-27T11:41:07Z</time>
      </trkpt>
      <trkpt lat="45.64454" lon="6.80184">
        <ele>1808.9</ele>
        <time>2021-03-27T11:41:08Z</time>
      </trkpt>
      <trkpt lat="45.64455" lon="6.80184">
        <ele>1808.9</ele>
        <time>2021-03-27T11:41:09Z</time>
      </trkpt>
      <trkpt lat="45.64456" lon="6.80185">
        <ele>1808.9</ele>
        <time>2021-03-27T11:41:10Z</time>
      </trkpt>
      <trkpt lat="45.64456" lon="6.80186">
        <ele>1809.4</ele>
        <time>2021-03-27T11:41:11Z</time>
      </trkpt>
      <trkpt lat="45.64457" lon="6.80187">
        <ele>1809.4</ele>
        <time>2021-03-27T11:41:12Z</time>
      </trkpt>
      <trkpt lat="45.64457" lon="6.80188">
        <ele>1809.4</ele>
        <time>2021-03-27T11:41:13Z</time>
      </trkpt>
      <trkpt lat="45.64457" lon="6.80189">
        <ele>1809.4</ele>
        <time>2021-03-27T11:41:14Z</time>
      </trkpt>
      <trkpt lat="45.64457" lon="6.8019">
        <ele>1809.4</ele>
        <time>2021-03-27T11:41:15Z</time>
      </trkpt>
      <trkpt lat="45.64458" lon="6.80192">
        <ele>1809.5</ele>
        <time>2021-03-27T11:41:16Z</time>
      </trkpt>
      <trkpt lat="45.64458" lon="6.80193">
        <ele>1809.5</ele>
        <time>2021-03-27T11:41:17Z</time>
      </trkpt>
      <trkpt lat="45.64458" lon="6.80194">
        <ele>1809.5</ele>
        <time>2021-03-27T11:41:18Z</time>
      </trkpt>
      <trkpt lat="45.64458" lon="6.80196">
        <ele>1809.5</ele>
        <time>2021-03-27T11:41:19Z</time>
      </trkpt>
      <trkpt lat="45.64458" lon="6.80197">
        <ele>1809.5</ele>
        <time>2021-03-27T11:41:20Z</time>
      </trkpt>
      <trkpt lat="45.64459" lon="6.80198">
        <ele>1809.5</ele>
        <time>2021-03-27T11:41:21Z</time>
      </trkpt>
      <trkpt lat="45.64459" lon="6.80199">
        <ele>1809.5</ele>
        <time>2021-03-27T11:41:22Z</time>
      </trkpt>
      <trkpt lat="45.64459" lon="6.80201">
        <ele>1810.1</ele>
        <time>2021-03-27T11:41:23Z</time>
      </trkpt>
      <trkpt lat="45.64459" lon="6.80202">
        <ele>1810.1</ele>
        <time>2021-03-27T11:41:24Z</time>
      </trkpt>
      <trkpt lat="45.6446" lon="6.80203">
        <ele>1810.1</ele>
        <time>2021-03-27T11:41:25Z</time>
      </trkpt>
      <trkpt lat="45.6446" lon="6.80204">
        <ele>1810.1</ele>
        <time>2021-03-27T11:41:26Z</time>
      </trkpt>
      <trkpt lat="45.6446" lon="6.80206">
        <ele>1810.1</ele>
        <time>2021-03-27T11:41:27Z</time>
      </trkpt>
      <trkpt lat="45.6446" lon="6.80207">
        <ele>1810.1</ele>
        <time>2021-03-27T11:41:28Z</time>
      </trkpt>
      <trkpt lat="45.6446" lon="6.80209">
        <ele>1810.1</ele>
        <time>2021-03-27T11:41:29Z</time>
      </trkpt>
      <trkpt lat="45.64461" lon="6.8021">
        <ele>1810.1</ele>
        <time>2021-03-27T11:41:30Z</time>
      </trkpt>
      <trkpt lat="45.64461" lon="6.80211">
        <ele>1810.1</ele>
        <time>2021-03-27T11:41:31Z</time>
      </trkpt>
      <trkpt lat="45.64461" lon="6.80213">
        <ele>1810.1</ele>
        <time>2021-03-27T11:41:32Z</time>
      </trkpt>
      <trkpt lat="45.64462" lon="6.80214">
        <ele>1810.1</ele>
        <time>2021-03-27T11:41:33Z</time>
      </trkpt>
      <trkpt lat="45.64462" lon="6.80215">
        <ele>1810.7</ele>
        <time>2021-03-27T11:41:34Z</time>
      </trkpt>
      <trkpt lat="45.64462" lon="6.80217">
        <ele>1810.7</ele>
        <time>2021-03-27T11:41:35Z</time>
      </trkpt>
      <trkpt lat="45.64463" lon="6.80218">
        <ele>1810.7</ele>
        <time>2021-03-27T11:41:36Z</time>
      </trkpt>
      <trkpt lat="45.64463" lon="6.80219">
        <ele>1810.7</ele>
        <time>2021-03-27T11:41:37Z</time>
      </trkpt>
      <trkpt lat="45.64463" lon="6.8022">
        <ele>1810.7</ele>
        <time>2021-03-27T11:41:38Z</time>
      </trkpt>
      <trkpt lat="45.64463" lon="6.80221">
        <ele>1810.8</ele>
        <time>2021-03-27T11:41:39Z</time>
      </trkpt>
      <trkpt lat="45.64463" lon="6.80222">
        <ele>1810.8</ele>
        <time>2021-03-27T11:41:40Z</time>
      </trkpt>
      <trkpt lat="45.64462" lon="6.80223">
        <ele>1810.8</ele>
        <time>2021-03-27T11:41:41Z</time>
      </trkpt>
      <trkpt lat="45.64462" lon="6.80224">
        <ele>1810.8</ele>
        <time>2021-03-27T11:41:42Z</time>
      </trkpt>
      <trkpt lat="45.64462" lon="6.80225">
        <ele>1810.8</ele>
        <time>2021-03-27T11:41:43Z</time>
      </trkpt>
      <trkpt lat="45.64462" lon="6.80226">
        <ele>1810.8</ele>
        <time>2021-03-27T11:41:44Z</time>
      </trkpt>
      <trkpt lat="45.64462" lon="6.80227">
        <ele>1810.8</ele>
        <time>2021-03-27T11:41:45Z</time>
      </trkpt>
      <trkpt lat="45.64462" lon="6.80228">
        <ele>1810.8</ele>
        <time>2021-03-27T11:41:46Z</time>
      </trkpt>
      <trkpt lat="45.64463" lon="6.80229">
        <ele>1810.8</ele>
        <time>2021-03-27T11:41:47Z</time>
      </trkpt>
      <trkpt lat="45.64463" lon="6.8023">
        <ele>1810.9</ele>
        <time>2021-03-27T11:41:48Z</time>
      </trkpt>
      <trkpt lat="45.64464" lon="6.8023">
        <ele>1810.9</ele>
        <time>2021-03-27T11:41:49Z</time>
      </trkpt>
      <trkpt lat="45.64465" lon="6.8023">
        <ele>1811.6</ele>
        <time>2021-03-27T11:41:50Z</time>
      </trkpt>
      <trkpt lat="45.64466" lon="6.8023">
        <ele>1811.5</ele>
        <time>2021-03-27T11:41:51Z</time>
      </trkpt>
      <trkpt lat="45.64467" lon="6.80229">
        <ele>1811.5</ele>
        <time>2021-03-27T11:41:52Z</time>
      </trkpt>
      <trkpt lat="45.64467" lon="6.80229">
        <ele>1811.5</ele>
        <time>2021-03-27T11:41:53Z</time>
      </trkpt>
      <trkpt lat="45.64468" lon="6.80229">
        <ele>1812.2</ele>
        <time>2021-03-27T11:41:54Z</time>
      </trkpt>
      <trkpt lat="45.64469" lon="6.80228">
        <ele>1812.2</ele>
        <time>2021-03-27T11:41:55Z</time>
      </trkpt>
      <trkpt lat="45.64469" lon="6.80228">
        <ele>1812.2</ele>
        <time>2021-03-27T11:41:56Z</time>
      </trkpt>
      <trkpt lat="45.6447" lon="6.80227">
        <ele>1812.2</ele>
        <time>2021-03-27T11:41:57Z</time>
      </trkpt>
      <trkpt lat="45.64471" lon="6.80227">
        <ele>1812.2</ele>
        <time>2021-03-27T11:41:58Z</time>
      </trkpt>
      <trkpt lat="45.64471" lon="6.80226">
        <ele>1812.9</ele>
        <time>2021-03-27T11:41:59Z</time>
      </trkpt>
      <trkpt lat="45.64471" lon="6.80226">
        <ele>1812.9</ele>
        <time>2021-03-27T11:42:00Z</time>
      </trkpt>
      <trkpt lat="45.64472" lon="6.80225">
        <ele>1812.9</ele>
        <time>2021-03-27T11:42:01Z</time>
      </trkpt>
      <trkpt lat="45.64472" lon="6.80225">
        <ele>1812.8</ele>
        <time>2021-03-27T11:42:02Z</time>
      </trkpt>
      <trkpt lat="45.64472" lon="6.80225">
        <ele>1812.8</ele>
        <time>2021-03-27T11:42:03Z</time>
      </trkpt>
      <trkpt lat="45.64473" lon="6.80224">
        <ele>1812.8</ele>
        <time>2021-03-27T11:42:04Z</time>
      </trkpt>
      <trkpt lat="45.64473" lon="6.80224">
        <ele>1812.8</ele>
        <time>2021-03-27T11:42:05Z</time>
      </trkpt>
      <trkpt lat="45.64474" lon="6.80223">
        <ele>1813.5</ele>
        <time>2021-03-27T11:42:06Z</time>
      </trkpt>
      <trkpt lat="45.64475" lon="6.80223">
        <ele>1813.5</ele>
        <time>2021-03-27T11:42:07Z</time>
      </trkpt>
      <trkpt lat="45.64475" lon="6.80223">
        <ele>1813.5</ele>
        <time>2021-03-27T11:42:08Z</time>
      </trkpt>
      <trkpt lat="45.64476" lon="6.80223">
        <ele>1813.5</ele>
        <time>2021-03-27T11:42:09Z</time>
      </trkpt>
      <trkpt lat="45.64477" lon="6.80223">
        <ele>1813.5</ele>
        <time>2021-03-27T11:42:10Z</time>
      </trkpt>
      <trkpt lat="45.64477" lon="6.80223">
        <ele>1814.6</ele>
        <time>2021-03-27T11:42:11Z</time>
      </trkpt>
      <trkpt lat="45.64478" lon="6.80224">
        <ele>1814.6</ele>
        <time>2021-03-27T11:42:12Z</time>
      </trkpt>
      <trkpt lat="45.64478" lon="6.80224">
        <ele>1814.6</ele>
        <time>2021-03-27T11:42:13Z</time>
      </trkpt>
      <trkpt lat="45.64479" lon="6.80224">
        <ele>1814.6</ele>
        <time>2021-03-27T11:42:14Z</time>
      </trkpt>
      <trkpt lat="45.64479" lon="6.80224">
        <ele>1814.6</ele>
        <time>2021-03-27T11:42:15Z</time>
      </trkpt>
      <trkpt lat="45.6448" lon="6.80224">
        <ele>1814.6</ele>
        <time>2021-03-27T11:42:16Z</time>
      </trkpt>
      <trkpt lat="45.6448" lon="6.80224">
        <ele>1815.3</ele>
        <time>2021-03-27T11:42:17Z</time>
      </trkpt>
      <trkpt lat="45.64481" lon="6.80224">
        <ele>1815.3</ele>
        <time>2021-03-27T11:42:18Z</time>
      </trkpt>
      <trkpt lat="45.64481" lon="6.80224">
        <ele>1815.3</ele>
        <time>2021-03-27T11:42:19Z</time>
      </trkpt>
      <trkpt lat="45.64482" lon="6.80223">
        <ele>1815.3</ele>
        <time>2021-03-27T11:42:20Z</time>
      </trkpt>
      <trkpt lat="45.64482" lon="6.80223">
        <ele>1815.3</ele>
        <time>2021-03-27T11:42:21Z</time>
      </trkpt>
      <trkpt lat="45.64483" lon="6.80223">
        <ele>1815.3</ele>
        <time>2021-03-27T11:42:22Z</time>
      </trkpt>
      <trkpt lat="45.64483" lon="6.80222">
        <ele>1815.9</ele>
        <time>2021-03-27T11:42:23Z</time>
      </trkpt>
      <trkpt lat="45.64484" lon="6.80223">
        <ele>1815.9</ele>
        <time>2021-03-27T11:42:24Z</time>
      </trkpt>
      <trkpt lat="45.64484" lon="6.80223">
        <ele>1815.9</ele>
        <time>2021-03-27T11:42:25Z</time>
      </trkpt>
      <trkpt lat="45.64484" lon="6.80223">
        <ele>1815.9</ele>
        <time>2021-03-27T11:42:26Z</time>
      </trkpt>
      <trkpt lat="45.64485" lon="6.80224">
        <ele>1815.9</ele>
        <time>2021-03-27T11:42:27Z</time>
      </trkpt>
      <trkpt lat="45.64485" lon="6.80225">
        <ele>1815.9</ele>
        <time>2021-03-27T11:42:28Z</time>
      </trkpt>
      <trkpt lat="45.64485" lon="6.80225">
        <ele>1816.2</ele>
        <time>2021-03-27T11:42:29Z</time>
      </trkpt>
      <trkpt lat="45.64485" lon="6.80227">
        <ele>1816.2</ele>
        <time>2021-03-27T11:42:30Z</time>
      </trkpt>
      <trkpt lat="45.64485" lon="6.80227">
        <ele>1816.2</ele>
        <time>2021-03-27T11:42:31Z</time>
      </trkpt>
      <trkpt lat="45.64485" lon="6.80228">
        <ele>1816.2</ele>
        <time>2021-03-27T11:42:32Z</time>
      </trkpt>
      <trkpt lat="45.64485" lon="6.80229">
        <ele>1816.2</ele>
        <time>2021-03-27T11:42:33Z</time>
      </trkpt>
      <trkpt lat="45.64485" lon="6.8023">
        <ele>1816.5</ele>
        <time>2021-03-27T11:42:34Z</time>
      </trkpt>
      <trkpt lat="45.64485" lon="6.80231">
        <ele>1816.5</ele>
        <time>2021-03-27T11:42:35Z</time>
      </trkpt>
      <trkpt lat="45.64485" lon="6.80232">
        <ele>1816.5</ele>
        <time>2021-03-27T11:42:36Z</time>
      </trkpt>
      <trkpt lat="45.64485" lon="6.80233">
        <ele>1816.5</ele>
        <time>2021-03-27T11:42:37Z</time>
      </trkpt>
      <trkpt lat="45.64485" lon="6.80235">
        <ele>1816.8</ele>
        <time>2021-03-27T11:42:38Z</time>
      </trkpt>
      <trkpt lat="45.64485" lon="6.80236">
        <ele>1816.8</ele>
        <time>2021-03-27T11:42:39Z</time>
      </trkpt>
      <trkpt lat="45.64485" lon="6.80237">
        <ele>1816.8</ele>
        <time>2021-03-27T11:42:40Z</time>
      </trkpt>
      <trkpt lat="45.64485" lon="6.80238">
        <ele>1816.8</ele>
        <time>2021-03-27T11:42:41Z</time>
      </trkpt>
      <trkpt lat="45.64485" lon="6.80239">
        <ele>1817</ele>
        <time>2021-03-27T11:42:42Z</time>
      </trkpt>
      <trkpt lat="45.64485" lon="6.8024">
        <ele>1817</ele>
        <time>2021-03-27T11:42:43Z</time>
      </trkpt>
      <trkpt lat="45.64485" lon="6.80241">
        <ele>1817</ele>
        <time>2021-03-27T11:42:44Z</time>
      </trkpt>
      <trkpt lat="45.64486" lon="6.80241">
        <ele>1817</ele>
        <time>2021-03-27T11:42:45Z</time>
      </trkpt>
      <trkpt lat="45.64486" lon="6.80242">
        <ele>1817</ele>
        <time>2021-03-27T11:42:46Z</time>
      </trkpt>
      <trkpt lat="45.64486" lon="6.80243">
        <ele>1817.9</ele>
        <time>2021-03-27T11:42:47Z</time>
      </trkpt>
      <trkpt lat="45.64486" lon="6.80244">
        <ele>1817.9</ele>
        <time>2021-03-27T11:42:48Z</time>
      </trkpt>
      <trkpt lat="45.64487" lon="6.80245">
        <ele>1817.9</ele>
        <time>2021-03-27T11:42:49Z</time>
      </trkpt>
      <trkpt lat="45.64487" lon="6.80245">
        <ele>1817.9</ele>
        <time>2021-03-27T11:42:50Z</time>
      </trkpt>
      <trkpt lat="45.64487" lon="6.80246">
        <ele>1817.9</ele>
        <time>2021-03-27T11:42:51Z</time>
      </trkpt>
      <trkpt lat="45.64487" lon="6.80247">
        <ele>1817.9</ele>
        <time>2021-03-27T11:42:52Z</time>
      </trkpt>
      <trkpt lat="45.64488" lon="6.80247">
        <ele>1818.2</ele>
        <time>2021-03-27T11:42:53Z</time>
      </trkpt>
      <trkpt lat="45.64488" lon="6.80248">
        <ele>1818.2</ele>
        <time>2021-03-27T11:42:54Z</time>
      </trkpt>
      <trkpt lat="45.64488" lon="6.80249">
        <ele>1818.2</ele>
        <time>2021-03-27T11:42:55Z</time>
      </trkpt>
      <trkpt lat="45.64489" lon="6.80249">
        <ele>1818.2</ele>
        <time>2021-03-27T11:42:56Z</time>
      </trkpt>
      <trkpt lat="45.64489" lon="6.8025">
        <ele>1818.8</ele>
        <time>2021-03-27T11:42:57Z</time>
      </trkpt>
      <trkpt lat="45.64489" lon="6.80251">
        <ele>1818.8</ele>
        <time>2021-03-27T11:42:58Z</time>
      </trkpt>
      <trkpt lat="45.6449" lon="6.80251">
        <ele>1819.1</ele>
        <time>2021-03-27T11:42:59Z</time>
      </trkpt>
      <trkpt lat="45.6449" lon="6.80252">
        <ele>1819.1</ele>
        <time>2021-03-27T11:43:00Z</time>
      </trkpt>
      <trkpt lat="45.64491" lon="6.80253">
        <ele>1819.1</ele>
        <time>2021-03-27T11:43:01Z</time>
      </trkpt>
      <trkpt lat="45.64491" lon="6.80253">
        <ele>1819.1</ele>
        <time>2021-03-27T11:43:02Z</time>
      </trkpt>
      <trkpt lat="45.64491" lon="6.80254">
        <ele>1819.1</ele>
        <time>2021-03-27T11:43:03Z</time>
      </trkpt>
      <trkpt lat="45.64492" lon="6.80255">
        <ele>1819.8</ele>
        <time>2021-03-27T11:43:04Z</time>
      </trkpt>
      <trkpt lat="45.64492" lon="6.80255">
        <ele>1819.8</ele>
        <time>2021-03-27T11:43:05Z</time>
      </trkpt>
      <trkpt lat="45.64493" lon="6.80255">
        <ele>1819.8</ele>
        <time>2021-03-27T11:43:06Z</time>
      </trkpt>
      <trkpt lat="45.64493" lon="6.80256">
        <ele>1820</ele>
        <time>2021-03-27T11:43:07Z</time>
      </trkpt>
      <trkpt lat="45.64494" lon="6.80256">
        <ele>1820</ele>
        <time>2021-03-27T11:43:08Z</time>
      </trkpt>
      <trkpt lat="45.64494" lon="6.80257">
        <ele>1820</ele>
        <time>2021-03-27T11:43:09Z</time>
      </trkpt>
      <trkpt lat="45.64494" lon="6.80257">
        <ele>1820</ele>
        <time>2021-03-27T11:43:10Z</time>
      </trkpt>
      <trkpt lat="45.64495" lon="6.80257">
        <ele>1820.7</ele>
        <time>2021-03-27T11:43:11Z</time>
      </trkpt>
      <trkpt lat="45.64496" lon="6.80257">
        <ele>1820.7</ele>
        <time>2021-03-27T11:43:12Z</time>
      </trkpt>
      <trkpt lat="45.64496" lon="6.80256">
        <ele>1820.7</ele>
        <time>2021-03-27T11:43:13Z</time>
      </trkpt>
      <trkpt lat="45.64497" lon="6.80255">
        <ele>1820.4</ele>
        <time>2021-03-27T11:43:14Z</time>
      </trkpt>
      <trkpt lat="45.64497" lon="6.80254">
        <ele>1820.4</ele>
        <time>2021-03-27T11:43:15Z</time>
      </trkpt>
      <trkpt lat="45.64498" lon="6.80253">
        <ele>1820.4</ele>
        <time>2021-03-27T11:43:16Z</time>
      </trkpt>
      <trkpt lat="45.64498" lon="6.80252">
        <ele>1821.1</ele>
        <time>2021-03-27T11:43:17Z</time>
      </trkpt>
      <trkpt lat="45.64498" lon="6.80251">
        <ele>1820.8</ele>
        <time>2021-03-27T11:43:18Z</time>
      </trkpt>
      <trkpt lat="45.64499" lon="6.8025">
        <ele>1820.8</ele>
        <time>2021-03-27T11:43:19Z</time>
      </trkpt>
      <trkpt lat="45.64499" lon="6.80249">
        <ele>1820.8</ele>
        <time>2021-03-27T11:43:20Z</time>
      </trkpt>
      <trkpt lat="45.645" lon="6.80248">
        <ele>1820.8</ele>
        <time>2021-03-27T11:43:21Z</time>
      </trkpt>
      <trkpt lat="45.645" lon="6.80248">
        <ele>1820.8</ele>
        <time>2021-03-27T11:43:22Z</time>
      </trkpt>
      <trkpt lat="45.64501" lon="6.80247">
        <ele>1821.4</ele>
        <time>2021-03-27T11:43:23Z</time>
      </trkpt>
      <trkpt lat="45.64502" lon="6.80247">
        <ele>1821.1</ele>
        <time>2021-03-27T11:43:24Z</time>
      </trkpt>
      <trkpt lat="45.64502" lon="6.80246">
        <ele>1821.1</ele>
        <time>2021-03-27T11:43:25Z</time>
      </trkpt>
      <trkpt lat="45.64503" lon="6.80246">
        <ele>1821.1</ele>
        <time>2021-03-27T11:43:26Z</time>
      </trkpt>
      <trkpt lat="45.64504" lon="6.80246">
        <ele>1821.1</ele>
        <time>2021-03-27T11:43:27Z</time>
      </trkpt>
      <trkpt lat="45.64505" lon="6.80246">
        <ele>1821.7</ele>
        <time>2021-03-27T11:43:28Z</time>
      </trkpt>
      <trkpt lat="45.64505" lon="6.80246">
        <ele>1821.7</ele>
        <time>2021-03-27T11:43:29Z</time>
      </trkpt>
      <trkpt lat="45.64506" lon="6.80246">
        <ele>1821.7</ele>
        <time>2021-03-27T11:43:30Z</time>
      </trkpt>
      <trkpt lat="45.64506" lon="6.80247">
        <ele>1821.7</ele>
        <time>2021-03-27T11:43:31Z</time>
      </trkpt>
      <trkpt lat="45.64507" lon="6.80248">
        <ele>1822.6</ele>
        <time>2021-03-27T11:43:32Z</time>
      </trkpt>
      <trkpt lat="45.64508" lon="6.80248">
        <ele>1822.6</ele>
        <time>2021-03-27T11:43:33Z</time>
      </trkpt>
      <trkpt lat="45.64508" lon="6.80249">
        <ele>1822.6</ele>
        <time>2021-03-27T11:43:34Z</time>
      </trkpt>
      <trkpt lat="45.64509" lon="6.8025">
        <ele>1822.6</ele>
        <time>2021-03-27T11:43:35Z</time>
      </trkpt>
      <trkpt lat="45.64509" lon="6.80251">
        <ele>1822.6</ele>
        <time>2021-03-27T11:43:36Z</time>
      </trkpt>
      <trkpt lat="45.64509" lon="6.80251">
        <ele>1822.9</ele>
        <time>2021-03-27T11:43:37Z</time>
      </trkpt>
      <trkpt lat="45.6451" lon="6.80252">
        <ele>1822.9</ele>
        <time>2021-03-27T11:43:38Z</time>
      </trkpt>
      <trkpt lat="45.6451" lon="6.80253">
        <ele>1822.9</ele>
        <time>2021-03-27T11:43:39Z</time>
      </trkpt>
      <trkpt lat="45.6451" lon="6.80254">
        <ele>1823.4</ele>
        <time>2021-03-27T11:43:40Z</time>
      </trkpt>
      <trkpt lat="45.64511" lon="6.80255">
        <ele>1823.4</ele>
        <time>2021-03-27T11:43:41Z</time>
      </trkpt>
      <trkpt lat="45.64511" lon="6.80256">
        <ele>1823.7</ele>
        <time>2021-03-27T11:43:42Z</time>
      </trkpt>
      <trkpt lat="45.64512" lon="6.80257">
        <ele>1823.7</ele>
        <time>2021-03-27T11:43:43Z</time>
      </trkpt>
      <trkpt lat="45.64512" lon="6.80258">
        <ele>1823.7</ele>
        <time>2021-03-27T11:43:44Z</time>
      </trkpt>
      <trkpt lat="45.64513" lon="6.80259">
        <ele>1823.7</ele>
        <time>2021-03-27T11:43:45Z</time>
      </trkpt>
      <trkpt lat="45.64513" lon="6.8026">
        <ele>1824.2</ele>
        <time>2021-03-27T11:43:46Z</time>
      </trkpt>
      <trkpt lat="45.64513" lon="6.80261">
        <ele>1824.5</ele>
        <time>2021-03-27T11:43:47Z</time>
      </trkpt>
      <trkpt lat="45.64514" lon="6.80262">
        <ele>1824.5</ele>
        <time>2021-03-27T11:43:48Z</time>
      </trkpt>
      <trkpt lat="45.64514" lon="6.80263">
        <ele>1824.5</ele>
        <time>2021-03-27T11:43:49Z</time>
      </trkpt>
      <trkpt lat="45.64515" lon="6.80264">
        <ele>1824.5</ele>
        <time>2021-03-27T11:43:50Z</time>
      </trkpt>
      <trkpt lat="45.64515" lon="6.80265">
        <ele>1824.8</ele>
        <time>2021-03-27T11:43:51Z</time>
      </trkpt>
      <trkpt lat="45.64516" lon="6.80266">
        <ele>1824.8</ele>
        <time>2021-03-27T11:43:52Z</time>
      </trkpt>
      <trkpt lat="45.64516" lon="6.80267">
        <ele>1824.8</ele>
        <time>2021-03-27T11:43:53Z</time>
      </trkpt>
      <trkpt lat="45.64516" lon="6.80267">
        <ele>1825.2</ele>
        <time>2021-03-27T11:43:54Z</time>
      </trkpt>
      <trkpt lat="45.64516" lon="6.80268">
        <ele>1825.2</ele>
        <time>2021-03-27T11:43:55Z</time>
      </trkpt>
      <trkpt lat="45.64516" lon="6.80268">
        <ele>1825.2</ele>
        <time>2021-03-27T11:43:56Z</time>
      </trkpt>
      <trkpt lat="45.64516" lon="6.80269">
        <ele>1825.5</ele>
        <time>2021-03-27T11:43:57Z</time>
      </trkpt>
      <trkpt lat="45.64516" lon="6.80269">
        <ele>1825.5</ele>
        <time>2021-03-27T11:43:58Z</time>
      </trkpt>
      <trkpt lat="45.64516" lon="6.8027">
        <ele>1825.5</ele>
        <time>2021-03-27T11:43:59Z</time>
      </trkpt>
      <trkpt lat="45.64516" lon="6.8027">
        <ele>1825.5</ele>
        <time>2021-03-27T11:44:00Z</time>
      </trkpt>
      <trkpt lat="45.64516" lon="6.80271">
        <ele>1825.5</ele>
        <time>2021-03-27T11:44:01Z</time>
      </trkpt>
      <trkpt lat="45.64516" lon="6.80271">
        <ele>1825.5</ele>
        <time>2021-03-27T11:44:02Z</time>
      </trkpt>
      <trkpt lat="45.64516" lon="6.80272">
        <ele>1825.5</ele>
        <time>2021-03-27T11:44:03Z</time>
      </trkpt>
      <trkpt lat="45.64516" lon="6.80272">
        <ele>1825.5</ele>
        <time>2021-03-27T11:44:04Z</time>
      </trkpt>
      <trkpt lat="45.64517" lon="6.80272">
        <ele>1825.5</ele>
        <time>2021-03-27T11:44:42Z</time>
      </trkpt>
      <trkpt lat="45.64517" lon="6.80273">
        <ele>1825.7</ele>
        <time>2021-03-27T11:44:43Z</time>
      </trkpt>
      <trkpt lat="45.64517" lon="6.80273">
        <ele>1825.7</ele>
        <time>2021-03-27T11:44:44Z</time>
      </trkpt>
      <trkpt lat="45.64517" lon="6.80274">
        <ele>1825.7</ele>
        <time>2021-03-27T11:44:45Z</time>
      </trkpt>
      <trkpt lat="45.64517" lon="6.80274">
        <ele>1825.7</ele>
        <time>2021-03-27T11:44:46Z</time>
      </trkpt>
      <trkpt lat="45.64518" lon="6.80274">
        <ele>1825.7</ele>
        <time>2021-03-27T11:44:47Z</time>
      </trkpt>
      <trkpt lat="45.64518" lon="6.80274">
        <ele>1825.7</ele>
        <time>2021-03-27T11:44:48Z</time>
      </trkpt>
      <trkpt lat="45.64518" lon="6.80275">
        <ele>1825.7</ele>
        <time>2021-03-27T11:44:49Z</time>
      </trkpt>
      <trkpt lat="45.64519" lon="6.80275">
        <ele>1825.7</ele>
        <time>2021-03-27T11:44:50Z</time>
      </trkpt>
      <trkpt lat="45.64519" lon="6.80275">
        <ele>1826.2</ele>
        <time>2021-03-27T11:44:51Z</time>
      </trkpt>
      <trkpt lat="45.6452" lon="6.80276">
        <ele>1826.2</ele>
        <time>2021-03-27T11:44:52Z</time>
      </trkpt>
      <trkpt lat="45.64522" lon="6.80277">
        <ele>1826.4</ele>
        <time>2021-03-27T11:44:53Z</time>
      </trkpt>
      <trkpt lat="45.64523" lon="6.80278">
        <ele>1826.9</ele>
        <time>2021-03-27T11:44:54Z</time>
      </trkpt>
      <trkpt lat="45.64523" lon="6.80279">
        <ele>1826.9</ele>
        <time>2021-03-27T11:44:55Z</time>
      </trkpt>
      <trkpt lat="45.64524" lon="6.8028">
        <ele>1826.9</ele>
        <time>2021-03-27T11:44:56Z</time>
      </trkpt>
      <trkpt lat="45.64525" lon="6.80281">
        <ele>1827.3</ele>
        <time>2021-03-27T11:44:57Z</time>
      </trkpt>
      <trkpt lat="45.64526" lon="6.80282">
        <ele>1827.6</ele>
        <time>2021-03-27T11:44:58Z</time>
      </trkpt>
      <trkpt lat="45.64527" lon="6.80283">
        <ele>1827.6</ele>
        <time>2021-03-27T11:44:59Z</time>
      </trkpt>
      <trkpt lat="45.64527" lon="6.80283">
        <ele>1827.6</ele>
        <time>2021-03-27T11:45:00Z</time>
      </trkpt>
      <trkpt lat="45.64527" lon="6.80284">
        <ele>1827.6</ele>
        <time>2021-03-27T11:45:01Z</time>
      </trkpt>
      <trkpt lat="45.64528" lon="6.80285">
        <ele>1827.6</ele>
        <time>2021-03-27T11:45:02Z</time>
      </trkpt>
      <trkpt lat="45.64528" lon="6.80286">
        <ele>1828.2</ele>
        <time>2021-03-27T11:45:03Z</time>
      </trkpt>
      <trkpt lat="45.64529" lon="6.80287">
        <ele>1828.2</ele>
        <time>2021-03-27T11:45:04Z</time>
      </trkpt>
      <trkpt lat="45.64529" lon="6.80287">
        <ele>1828.2</ele>
        <time>2021-03-27T11:45:05Z</time>
      </trkpt>
      <trkpt lat="45.64529" lon="6.80288">
        <ele>1828.2</ele>
        <time>2021-03-27T11:45:06Z</time>
      </trkpt>
      <trkpt lat="45.6453" lon="6.80289">
        <ele>1828.2</ele>
        <time>2021-03-27T11:45:07Z</time>
      </trkpt>
      <trkpt lat="45.64531" lon="6.80291">
        <ele>1828.5</ele>
        <time>2021-03-27T11:45:08Z</time>
      </trkpt>
      <trkpt lat="45.64531" lon="6.80292">
        <ele>1828.9</ele>
        <time>2021-03-27T11:45:09Z</time>
      </trkpt>
      <trkpt lat="45.64532" lon="6.80294">
        <ele>1829.2</ele>
        <time>2021-03-27T11:45:10Z</time>
      </trkpt>
      <trkpt lat="45.64532" lon="6.80296">
        <ele>1829.2</ele>
        <time>2021-03-27T11:45:11Z</time>
      </trkpt>
      <trkpt lat="45.64531" lon="6.80297">
        <ele>1829.3</ele>
        <time>2021-03-27T11:45:12Z</time>
      </trkpt>
      <trkpt lat="45.64531" lon="6.80297">
        <ele>1829.3</ele>
        <time>2021-03-27T11:45:13Z</time>
      </trkpt>
      <trkpt lat="45.64531" lon="6.80297">
        <ele>1829.3</ele>
        <time>2021-03-27T11:45:14Z</time>
      </trkpt>
      <trkpt lat="45.64531" lon="6.80297">
        <ele>1829.3</ele>
        <time>2021-03-27T11:45:15Z</time>
      </trkpt>
      <trkpt lat="45.64533" lon="6.80299">
        <ele>1829.5</ele>
        <time>2021-03-27T11:45:16Z</time>
      </trkpt>
      <trkpt lat="45.64534" lon="6.803">
        <ele>1829.6</ele>
        <time>2021-03-27T11:45:17Z</time>
      </trkpt>
      <trkpt lat="45.64534" lon="6.80301">
        <ele>1829.7</ele>
        <time>2021-03-27T11:45:18Z</time>
      </trkpt>
      <trkpt lat="45.64534" lon="6.80303">
        <ele>1829.7</ele>
        <time>2021-03-27T11:45:19Z</time>
      </trkpt>
      <trkpt lat="45.64535" lon="6.80304">
        <ele>1829.8</ele>
        <time>2021-03-27T11:45:20Z</time>
      </trkpt>
      <trkpt lat="45.64535" lon="6.80305">
        <ele>1829.9</ele>
        <time>2021-03-27T11:45:21Z</time>
      </trkpt>
      <trkpt lat="45.64536" lon="6.80306">
        <ele>1830</ele>
        <time>2021-03-27T11:45:22Z</time>
      </trkpt>
      <trkpt lat="45.64536" lon="6.80307">
        <ele>1830.1</ele>
        <time>2021-03-27T11:45:23Z</time>
      </trkpt>
      <trkpt lat="45.64536" lon="6.80308">
        <ele>1830.2</ele>
        <time>2021-03-27T11:45:24Z</time>
      </trkpt>
      <trkpt lat="45.64536" lon="6.80308">
        <ele>1830.2</ele>
        <time>2021-03-27T11:45:25Z</time>
      </trkpt>
      <trkpt lat="45.64537" lon="6.8031">
        <ele>1830.2</ele>
        <time>2021-03-27T11:45:26Z</time>
      </trkpt>
      <trkpt lat="45.64537" lon="6.80311">
        <ele>1830.3</ele>
        <time>2021-03-27T11:45:27Z</time>
      </trkpt>
      <trkpt lat="45.64537" lon="6.80312">
        <ele>1830.4</ele>
        <time>2021-03-27T11:45:28Z</time>
      </trkpt>
      <trkpt lat="45.64537" lon="6.80314">
        <ele>1830.5</ele>
        <time>2021-03-27T11:45:29Z</time>
      </trkpt>
      <trkpt lat="45.64538" lon="6.80315">
        <ele>1830.6</ele>
        <time>2021-03-27T11:45:30Z</time>
      </trkpt>
      <trkpt lat="45.64538" lon="6.80316">
        <ele>1830.7</ele>
        <time>2021-03-27T11:45:31Z</time>
      </trkpt>
      <trkpt lat="45.64539" lon="6.80318">
        <ele>1830.9</ele>
        <time>2021-03-27T11:45:32Z</time>
      </trkpt>
      <trkpt lat="45.64539" lon="6.80319">
        <ele>1830.9</ele>
        <time>2021-03-27T11:45:33Z</time>
      </trkpt>
      <trkpt lat="45.6454" lon="6.80319">
        <ele>1831</ele>
        <time>2021-03-27T11:45:34Z</time>
      </trkpt>
      <trkpt lat="45.6454" lon="6.8032">
        <ele>1831.1</ele>
        <time>2021-03-27T11:45:35Z</time>
      </trkpt>
      <trkpt lat="45.6454" lon="6.80321">
        <ele>1831.1</ele>
        <time>2021-03-27T11:45:36Z</time>
      </trkpt>
      <trkpt lat="45.6454" lon="6.80322">
        <ele>1831.2</ele>
        <time>2021-03-27T11:45:37Z</time>
      </trkpt>
      <trkpt lat="45.64541" lon="6.80323">
        <ele>1831.3</ele>
        <time>2021-03-27T11:45:38Z</time>
      </trkpt>
      <trkpt lat="45.64541" lon="6.80324">
        <ele>1831.4</ele>
        <time>2021-03-27T11:45:39Z</time>
      </trkpt>
      <trkpt lat="45.64541" lon="6.80325">
        <ele>1831.5</ele>
        <time>2021-03-27T11:45:40Z</time>
      </trkpt>
      <trkpt lat="45.64541" lon="6.80326">
        <ele>1831.5</ele>
        <time>2021-03-27T11:45:41Z</time>
      </trkpt>
      <trkpt lat="45.64541" lon="6.80327">
        <ele>1831.6</ele>
        <time>2021-03-27T11:45:42Z</time>
      </trkpt>
      <trkpt lat="45.64541" lon="6.80328">
        <ele>1831.7</ele>
        <time>2021-03-27T11:45:43Z</time>
      </trkpt>
      <trkpt lat="45.64542" lon="6.80329">
        <ele>1831.8</ele>
        <time>2021-03-27T11:45:44Z</time>
      </trkpt>
      <trkpt lat="45.64542" lon="6.8033">
        <ele>1831.9</ele>
        <time>2021-03-27T11:45:45Z</time>
      </trkpt>
      <trkpt lat="45.64542" lon="6.80331">
        <ele>1832</ele>
        <time>2021-03-27T11:45:46Z</time>
      </trkpt>
      <trkpt lat="45.64542" lon="6.80332">
        <ele>1832.1</ele>
        <time>2021-03-27T11:45:47Z</time>
      </trkpt>
      <trkpt lat="45.64542" lon="6.80333">
        <ele>1832.2</ele>
        <time>2021-03-27T11:45:48Z</time>
      </trkpt>
      <trkpt lat="45.64543" lon="6.80334">
        <ele>1832.3</ele>
        <time>2021-03-27T11:45:49Z</time>
      </trkpt>
      <trkpt lat="45.64543" lon="6.80335">
        <ele>1832.4</ele>
        <time>2021-03-27T11:45:50Z</time>
      </trkpt>
      <trkpt lat="45.64543" lon="6.80335">
        <ele>1832.4</ele>
        <time>2021-03-27T11:45:51Z</time>
      </trkpt>
      <trkpt lat="45.64543" lon="6.80335">
        <ele>1832.5</ele>
        <time>2021-03-27T11:45:52Z</time>
      </trkpt>
      <trkpt lat="45.64544" lon="6.80334">
        <ele>1832.5</ele>
        <time>2021-03-27T11:45:53Z</time>
      </trkpt>
      <trkpt lat="45.64544" lon="6.80334">
        <ele>1832.6</ele>
        <time>2021-03-27T11:45:54Z</time>
      </trkpt>
      <trkpt lat="45.64544" lon="6.80333">
        <ele>1832.6</ele>
        <time>2021-03-27T11:45:55Z</time>
      </trkpt>
      <trkpt lat="45.64544" lon="6.80333">
        <ele>1832.7</ele>
        <time>2021-03-27T11:45:56Z</time>
      </trkpt>
      <trkpt lat="45.64544" lon="6.80332">
        <ele>1832.7</ele>
        <time>2021-03-27T11:45:57Z</time>
      </trkpt>
      <trkpt lat="45.64545" lon="6.80332">
        <ele>1832.8</ele>
        <time>2021-03-27T11:45:58Z</time>
      </trkpt>
      <trkpt lat="45.64545" lon="6.80331">
        <ele>1832.8</ele>
        <time>2021-03-27T11:45:59Z</time>
      </trkpt>
      <trkpt lat="45.64545" lon="6.80331">
        <ele>1832.9</ele>
        <time>2021-03-27T11:46:00Z</time>
      </trkpt>
      <trkpt lat="45.64545" lon="6.8033">
        <ele>1832.9</ele>
        <time>2021-03-27T11:46:01Z</time>
      </trkpt>
      <trkpt lat="45.64546" lon="6.8033">
        <ele>1833</ele>
        <time>2021-03-27T11:46:02Z</time>
      </trkpt>
      <trkpt lat="45.64546" lon="6.80329">
        <ele>1833</ele>
        <time>2021-03-27T11:46:03Z</time>
      </trkpt>
      <trkpt lat="45.64546" lon="6.80329">
        <ele>1833.1</ele>
        <time>2021-03-27T11:46:04Z</time>
      </trkpt>
      <trkpt lat="45.64546" lon="6.80328">
        <ele>1833.2</ele>
        <time>2021-03-27T11:46:05Z</time>
      </trkpt>
      <trkpt lat="45.64547" lon="6.80327">
        <ele>1833.3</ele>
        <time>2021-03-27T11:46:06Z</time>
      </trkpt>
      <trkpt lat="45.64547" lon="6.80326">
        <ele>1833.4</ele>
        <time>2021-03-27T11:46:07Z</time>
      </trkpt>
      <trkpt lat="45.64548" lon="6.80326">
        <ele>1833.4</ele>
        <time>2021-03-27T11:46:08Z</time>
      </trkpt>
      <trkpt lat="45.64548" lon="6.80325">
        <ele>1833.6</ele>
        <time>2021-03-27T11:46:09Z</time>
      </trkpt>
      <trkpt lat="45.64549" lon="6.80324">
        <ele>1833.7</ele>
        <time>2021-03-27T11:46:10Z</time>
      </trkpt>
      <trkpt lat="45.64549" lon="6.80323">
        <ele>1833.8</ele>
        <time>2021-03-27T11:46:11Z</time>
      </trkpt>
      <trkpt lat="45.64549" lon="6.80322">
        <ele>1833.9</ele>
        <time>2021-03-27T11:46:12Z</time>
      </trkpt>
      <trkpt lat="45.6455" lon="6.80321">
        <ele>1834</ele>
        <time>2021-03-27T11:46:13Z</time>
      </trkpt>
      <trkpt lat="45.64551" lon="6.80319">
        <ele>1834.1</ele>
        <time>2021-03-27T11:46:14Z</time>
      </trkpt>
      <trkpt lat="45.64552" lon="6.80318">
        <ele>1834.3</ele>
        <time>2021-03-27T11:46:15Z</time>
      </trkpt>
      <trkpt lat="45.64552" lon="6.80317">
        <ele>1834.4</ele>
        <time>2021-03-27T11:46:16Z</time>
      </trkpt>
      <trkpt lat="45.64553" lon="6.80316">
        <ele>1834.5</ele>
        <time>2021-03-27T11:46:17Z</time>
      </trkpt>
      <trkpt lat="45.64553" lon="6.80315">
        <ele>1834.6</ele>
        <time>2021-03-27T11:46:18Z</time>
      </trkpt>
      <trkpt lat="45.64553" lon="6.80314">
        <ele>1834.7</ele>
        <time>2021-03-27T11:46:19Z</time>
      </trkpt>
      <trkpt lat="45.64554" lon="6.80313">
        <ele>1834.7</ele>
        <time>2021-03-27T11:46:20Z</time>
      </trkpt>
      <trkpt lat="45.64554" lon="6.80312">
        <ele>1834.8</ele>
        <time>2021-03-27T11:46:21Z</time>
      </trkpt>
      <trkpt lat="45.64554" lon="6.80311">
        <ele>1834.9</ele>
        <time>2021-03-27T11:46:22Z</time>
      </trkpt>
      <trkpt lat="45.64555" lon="6.8031">
        <ele>1835</ele>
        <time>2021-03-27T11:46:23Z</time>
      </trkpt>
      <trkpt lat="45.64555" lon="6.80309">
        <ele>1835.1</ele>
        <time>2021-03-27T11:46:24Z</time>
      </trkpt>
      <trkpt lat="45.64556" lon="6.80309">
        <ele>1835.1</ele>
        <time>2021-03-27T11:46:25Z</time>
      </trkpt>
      <trkpt lat="45.64556" lon="6.80309">
        <ele>1835.2</ele>
        <time>2021-03-27T11:46:26Z</time>
      </trkpt>
      <trkpt lat="45.64557" lon="6.80309">
        <ele>1835.2</ele>
        <time>2021-03-27T11:46:27Z</time>
      </trkpt>
      <trkpt lat="45.64558" lon="6.8031">
        <ele>1835.3</ele>
        <time>2021-03-27T11:46:28Z</time>
      </trkpt>
      <trkpt lat="45.64558" lon="6.80311">
        <ele>1835.4</ele>
        <time>2021-03-27T11:46:29Z</time>
      </trkpt>
      <trkpt lat="45.64559" lon="6.80312">
        <ele>1835.5</ele>
        <time>2021-03-27T11:46:30Z</time>
      </trkpt>
      <trkpt lat="45.64559" lon="6.80314">
        <ele>1835.6</ele>
        <time>2021-03-27T11:46:31Z</time>
      </trkpt>
      <trkpt lat="45.64559" lon="6.80315">
        <ele>1835.7</ele>
        <time>2021-03-27T11:46:32Z</time>
      </trkpt>
      <trkpt lat="45.64559" lon="6.80317">
        <ele>1835.8</ele>
        <time>2021-03-27T11:46:33Z</time>
      </trkpt>
      <trkpt lat="45.64559" lon="6.80318">
        <ele>1835.9</ele>
        <time>2021-03-27T11:46:34Z</time>
      </trkpt>
      <trkpt lat="45.64559" lon="6.8032">
        <ele>1836</ele>
        <time>2021-03-27T11:46:35Z</time>
      </trkpt>
      <trkpt lat="45.64559" lon="6.80321">
        <ele>1836</ele>
        <time>2021-03-27T11:46:36Z</time>
      </trkpt>
      <trkpt lat="45.64559" lon="6.80322">
        <ele>1836.1</ele>
        <time>2021-03-27T11:46:37Z</time>
      </trkpt>
      <trkpt lat="45.64559" lon="6.80323">
        <ele>1836.2</ele>
        <time>2021-03-27T11:46:38Z</time>
      </trkpt>
      <trkpt lat="45.64559" lon="6.80325">
        <ele>1836.3</ele>
        <time>2021-03-27T11:46:39Z</time>
      </trkpt>
      <trkpt lat="45.64559" lon="6.80326">
        <ele>1836.4</ele>
        <time>2021-03-27T11:46:40Z</time>
      </trkpt>
      <trkpt lat="45.64559" lon="6.80327">
        <ele>1836.5</ele>
        <time>2021-03-27T11:46:41Z</time>
      </trkpt>
      <trkpt lat="45.64559" lon="6.80328">
        <ele>1836.5</ele>
        <time>2021-03-27T11:46:42Z</time>
      </trkpt>
      <trkpt lat="45.64559" lon="6.80329">
        <ele>1836.6</ele>
        <time>2021-03-27T11:46:43Z</time>
      </trkpt>
      <trkpt lat="45.64559" lon="6.8033">
        <ele>1836.7</ele>
        <time>2021-03-27T11:46:44Z</time>
      </trkpt>
      <trkpt lat="45.6456" lon="6.80331">
        <ele>1836.8</ele>
        <time>2021-03-27T11:46:45Z</time>
      </trkpt>
      <trkpt lat="45.6456" lon="6.80332">
        <ele>1836.8</ele>
        <time>2021-03-27T11:46:46Z</time>
      </trkpt>
      <trkpt lat="45.64559" lon="6.80333">
        <ele>1836.9</ele>
        <time>2021-03-27T11:46:47Z</time>
      </trkpt>
      <trkpt lat="45.64559" lon="6.80334">
        <ele>1837</ele>
        <time>2021-03-27T11:46:48Z</time>
      </trkpt>
      <trkpt lat="45.64559" lon="6.80335">
        <ele>1837.1</ele>
        <time>2021-03-27T11:46:49Z</time>
      </trkpt>
      <trkpt lat="45.64559" lon="6.80336">
        <ele>1837.1</ele>
        <time>2021-03-27T11:46:50Z</time>
      </trkpt>
      <trkpt lat="45.6456" lon="6.80337">
        <ele>1837.2</ele>
        <time>2021-03-27T11:46:51Z</time>
      </trkpt>
      <trkpt lat="45.6456" lon="6.80338">
        <ele>1837.3</ele>
        <time>2021-03-27T11:46:52Z</time>
      </trkpt>
      <trkpt lat="45.6456" lon="6.80339">
        <ele>1837.4</ele>
        <time>2021-03-27T11:46:53Z</time>
      </trkpt>
      <trkpt lat="45.6456" lon="6.8034">
        <ele>1837.4</ele>
        <time>2021-03-27T11:46:54Z</time>
      </trkpt>
      <trkpt lat="45.6456" lon="6.80342">
        <ele>1837.5</ele>
        <time>2021-03-27T11:46:55Z</time>
      </trkpt>
      <trkpt lat="45.64561" lon="6.80343">
        <ele>1837.6</ele>
        <time>2021-03-27T11:46:56Z</time>
      </trkpt>
      <trkpt lat="45.64561" lon="6.80344">
        <ele>1837.7</ele>
        <time>2021-03-27T11:46:57Z</time>
      </trkpt>
      <trkpt lat="45.64562" lon="6.80344">
        <ele>1837.8</ele>
        <time>2021-03-27T11:46:58Z</time>
      </trkpt>
      <trkpt lat="45.64562" lon="6.80345">
        <ele>1837.8</ele>
        <time>2021-03-27T11:46:59Z</time>
      </trkpt>
      <trkpt lat="45.64563" lon="6.80346">
        <ele>1837.9</ele>
        <time>2021-03-27T11:47:00Z</time>
      </trkpt>
      <trkpt lat="45.64564" lon="6.80346">
        <ele>1838</ele>
        <time>2021-03-27T11:47:01Z</time>
      </trkpt>
      <trkpt lat="45.64564" lon="6.80347">
        <ele>1838.1</ele>
        <time>2021-03-27T11:47:02Z</time>
      </trkpt>
      <trkpt lat="45.64565" lon="6.80348">
        <ele>1838.1</ele>
        <time>2021-03-27T11:47:03Z</time>
      </trkpt>
      <trkpt lat="45.64566" lon="6.80348">
        <ele>1838.2</ele>
        <time>2021-03-27T11:47:04Z</time>
      </trkpt>
      <trkpt lat="45.64566" lon="6.80348">
        <ele>1838.3</ele>
        <time>2021-03-27T11:47:05Z</time>
      </trkpt>
      <trkpt lat="45.64567" lon="6.80348">
        <ele>1838.3</ele>
        <time>2021-03-27T11:47:06Z</time>
      </trkpt>
      <trkpt lat="45.64568" lon="6.80349">
        <ele>1838.4</ele>
        <time>2021-03-27T11:47:07Z</time>
      </trkpt>
      <trkpt lat="45.64568" lon="6.80349">
        <ele>1838.4</ele>
        <time>2021-03-27T11:47:08Z</time>
      </trkpt>
      <trkpt lat="45.64569" lon="6.80349">
        <ele>1838.5</ele>
        <time>2021-03-27T11:47:09Z</time>
      </trkpt>
      <trkpt lat="45.6457" lon="6.80349">
        <ele>1838.5</ele>
        <time>2021-03-27T11:47:10Z</time>
      </trkpt>
      <trkpt lat="45.6457" lon="6.8035">
        <ele>1838.6</ele>
        <time>2021-03-27T11:47:11Z</time>
      </trkpt>
      <trkpt lat="45.64571" lon="6.80351">
        <ele>1838.7</ele>
        <time>2021-03-27T11:47:12Z</time>
      </trkpt>
      <trkpt lat="45.64571" lon="6.80352">
        <ele>1838.7</ele>
        <time>2021-03-27T11:47:13Z</time>
      </trkpt>
      <trkpt lat="45.64571" lon="6.80353">
        <ele>1838.8</ele>
        <time>2021-03-27T11:47:14Z</time>
      </trkpt>
      <trkpt lat="45.64571" lon="6.80354">
        <ele>1838.9</ele>
        <time>2021-03-27T11:47:15Z</time>
      </trkpt>
      <trkpt lat="45.64571" lon="6.80356">
        <ele>1838.9</ele>
        <time>2021-03-27T11:47:16Z</time>
      </trkpt>
      <trkpt lat="45.64571" lon="6.80357">
        <ele>1839</ele>
        <time>2021-03-27T11:47:17Z</time>
      </trkpt>
      <trkpt lat="45.6457" lon="6.80358">
        <ele>1839.1</ele>
        <time>2021-03-27T11:47:18Z</time>
      </trkpt>
      <trkpt lat="45.6457" lon="6.80359">
        <ele>1839.1</ele>
        <time>2021-03-27T11:47:19Z</time>
      </trkpt>
      <trkpt lat="45.6457" lon="6.8036">
        <ele>1839.2</ele>
        <time>2021-03-27T11:47:20Z</time>
      </trkpt>
      <trkpt lat="45.6457" lon="6.80361">
        <ele>1839.2</ele>
        <time>2021-03-27T11:47:21Z</time>
      </trkpt>
      <trkpt lat="45.6457" lon="6.80361">
        <ele>1839.3</ele>
        <time>2021-03-27T11:47:22Z</time>
      </trkpt>
      <trkpt lat="45.6457" lon="6.80362">
        <ele>1839.3</ele>
        <time>2021-03-27T11:47:23Z</time>
      </trkpt>
      <trkpt lat="45.6457" lon="6.80363">
        <ele>1839.4</ele>
        <time>2021-03-27T11:47:24Z</time>
      </trkpt>
      <trkpt lat="45.6457" lon="6.80363">
        <ele>1839.4</ele>
        <time>2021-03-27T11:47:25Z</time>
      </trkpt>
      <trkpt lat="45.6457" lon="6.80364">
        <ele>1839.4</ele>
        <time>2021-03-27T11:47:26Z</time>
      </trkpt>
      <trkpt lat="45.6457" lon="6.80364">
        <ele>1839.5</ele>
        <time>2021-03-27T11:47:27Z</time>
      </trkpt>
      <trkpt lat="45.6457" lon="6.80365">
        <ele>1839.5</ele>
        <time>2021-03-27T11:47:28Z</time>
      </trkpt>
      <trkpt lat="45.6457" lon="6.80366">
        <ele>1839.5</ele>
        <time>2021-03-27T11:47:29Z</time>
      </trkpt>
      <trkpt lat="45.64569" lon="6.80366">
        <ele>1839.6</ele>
        <time>2021-03-27T11:47:30Z</time>
      </trkpt>
      <trkpt lat="45.64569" lon="6.80367">
        <ele>1839.6</ele>
        <time>2021-03-27T11:47:31Z</time>
      </trkpt>
      <trkpt lat="45.64569" lon="6.80368">
        <ele>1839.7</ele>
        <time>2021-03-27T11:47:32Z</time>
      </trkpt>
      <trkpt lat="45.64569" lon="6.80368">
        <ele>1839.7</ele>
        <time>2021-03-27T11:47:33Z</time>
      </trkpt>
      <trkpt lat="45.64569" lon="6.80369">
        <ele>1839.7</ele>
        <time>2021-03-27T11:51:26Z</time>
      </trkpt>
      <trkpt lat="45.64569" lon="6.80369">
        <ele>1839.8</ele>
        <time>2021-03-27T11:51:27Z</time>
      </trkpt>
      <trkpt lat="45.64569" lon="6.8037">
        <ele>1839.8</ele>
        <time>2021-03-27T11:51:28Z</time>
      </trkpt>
      <trkpt lat="45.64569" lon="6.80371">
        <ele>1839.9</ele>
        <time>2021-03-27T11:51:29Z</time>
      </trkpt>
      <trkpt lat="45.64569" lon="6.80371">
        <ele>1839.9</ele>
        <time>2021-03-27T11:51:30Z</time>
      </trkpt>
      <trkpt lat="45.6457" lon="6.80372">
        <ele>1840</ele>
        <time>2021-03-27T11:51:31Z</time>
      </trkpt>
      <trkpt lat="45.64571" lon="6.80373">
        <ele>1840.1</ele>
        <time>2021-03-27T11:51:32Z</time>
      </trkpt>
      <trkpt lat="45.64571" lon="6.80374">
        <ele>1840.2</ele>
        <time>2021-03-27T11:51:33Z</time>
      </trkpt>
      <trkpt lat="45.64572" lon="6.80376">
        <ele>1840.3</ele>
        <time>2021-03-27T11:51:34Z</time>
      </trkpt>
      <trkpt lat="45.64572" lon="6.80377">
        <ele>1840.4</ele>
        <time>2021-03-27T11:51:35Z</time>
      </trkpt>
      <trkpt lat="45.64573" lon="6.80379">
        <ele>1840.6</ele>
        <time>2021-03-27T11:51:36Z</time>
      </trkpt>
      <trkpt lat="45.64573" lon="6.8038">
        <ele>1840.7</ele>
        <time>2021-03-27T11:51:37Z</time>
      </trkpt>
      <trkpt lat="45.64574" lon="6.80382">
        <ele>1840.8</ele>
        <time>2021-03-27T11:51:38Z</time>
      </trkpt>
      <trkpt lat="45.64574" lon="6.80383">
        <ele>1840.9</ele>
        <time>2021-03-27T11:51:39Z</time>
      </trkpt>
      <trkpt lat="45.64574" lon="6.80385">
        <ele>1841</ele>
        <time>2021-03-27T11:51:40Z</time>
      </trkpt>
      <trkpt lat="45.64575" lon="6.80386">
        <ele>1841.1</ele>
        <time>2021-03-27T11:51:41Z</time>
      </trkpt>
      <trkpt lat="45.64575" lon="6.80387">
        <ele>1841.2</ele>
        <time>2021-03-27T11:51:42Z</time>
      </trkpt>
      <trkpt lat="45.64575" lon="6.80387">
        <ele>1841.2</ele>
        <time>2021-03-27T11:51:43Z</time>
      </trkpt>
      <trkpt lat="45.64576" lon="6.80389">
        <ele>1841.3</ele>
        <time>2021-03-27T11:51:44Z</time>
      </trkpt>
      <trkpt lat="45.64576" lon="6.8039">
        <ele>1841.4</ele>
        <time>2021-03-27T11:51:45Z</time>
      </trkpt>
      <trkpt lat="45.64577" lon="6.80391">
        <ele>1841.5</ele>
        <time>2021-03-27T11:51:46Z</time>
      </trkpt>
      <trkpt lat="45.64577" lon="6.80392">
        <ele>1841.5</ele>
        <time>2021-03-27T11:51:47Z</time>
      </trkpt>
      <trkpt lat="45.64578" lon="6.80393">
        <ele>1841.6</ele>
        <time>2021-03-27T11:51:48Z</time>
      </trkpt>
      <trkpt lat="45.64578" lon="6.80395">
        <ele>1841.7</ele>
        <time>2021-03-27T11:51:49Z</time>
      </trkpt>
      <trkpt lat="45.64578" lon="6.80396">
        <ele>1841.8</ele>
        <time>2021-03-27T11:51:50Z</time>
      </trkpt>
      <trkpt lat="45.64579" lon="6.80397">
        <ele>1841.8</ele>
        <time>2021-03-27T11:51:51Z</time>
      </trkpt>
      <trkpt lat="45.64579" lon="6.80399">
        <ele>1841.9</ele>
        <time>2021-03-27T11:51:52Z</time>
      </trkpt>
      <trkpt lat="45.6458" lon="6.804">
        <ele>1842</ele>
        <time>2021-03-27T11:51:53Z</time>
      </trkpt>
      <trkpt lat="45.6458" lon="6.80402">
        <ele>1842</ele>
        <time>2021-03-27T11:51:54Z</time>
      </trkpt>
      <trkpt lat="45.64581" lon="6.80403">
        <ele>1842.1</ele>
        <time>2021-03-27T11:51:55Z</time>
      </trkpt>
      <trkpt lat="45.64581" lon="6.80405">
        <ele>1842.1</ele>
        <time>2021-03-27T11:51:56Z</time>
      </trkpt>
      <trkpt lat="45.64581" lon="6.80406">
        <ele>1842.2</ele>
        <time>2021-03-27T11:51:57Z</time>
      </trkpt>
      <trkpt lat="45.64582" lon="6.80408">
        <ele>1842.2</ele>
        <time>2021-03-27T11:51:58Z</time>
      </trkpt>
      <trkpt lat="45.64582" lon="6.80409">
        <ele>1842.3</ele>
        <time>2021-03-27T11:51:59Z</time>
      </trkpt>
      <trkpt lat="45.64582" lon="6.80411">
        <ele>1842.3</ele>
        <time>2021-03-27T11:52:00Z</time>
      </trkpt>
      <trkpt lat="45.64583" lon="6.80412">
        <ele>1842.4</ele>
        <time>2021-03-27T11:52:01Z</time>
      </trkpt>
      <trkpt lat="45.64583" lon="6.80414">
        <ele>1842.4</ele>
        <time>2021-03-27T11:52:02Z</time>
      </trkpt>
      <trkpt lat="45.64584" lon="6.80415">
        <ele>1842.4</ele>
        <time>2021-03-27T11:52:03Z</time>
      </trkpt>
      <trkpt lat="45.64584" lon="6.80417">
        <ele>1842.5</ele>
        <time>2021-03-27T11:52:04Z</time>
      </trkpt>
      <trkpt lat="45.64585" lon="6.80418">
        <ele>1842.5</ele>
        <time>2021-03-27T11:52:05Z</time>
      </trkpt>
      <trkpt lat="45.64585" lon="6.80419">
        <ele>1842.6</ele>
        <time>2021-03-27T11:52:06Z</time>
      </trkpt>
      <trkpt lat="45.64586" lon="6.80421">
        <ele>1842.6</ele>
        <time>2021-03-27T11:52:07Z</time>
      </trkpt>
      <trkpt lat="45.64586" lon="6.80423">
        <ele>1842.7</ele>
        <time>2021-03-27T11:52:08Z</time>
      </trkpt>
      <trkpt lat="45.64587" lon="6.80426">
        <ele>1842.7</ele>
        <time>2021-03-27T11:52:09Z</time>
      </trkpt>
      <trkpt lat="45.64587" lon="6.80427">
        <ele>1842.8</ele>
        <time>2021-03-27T11:52:10Z</time>
      </trkpt>
      <trkpt lat="45.64587" lon="6.80428">
        <ele>1842.8</ele>
        <time>2021-03-27T11:52:11Z</time>
      </trkpt>
      <trkpt lat="45.64588" lon="6.8043">
        <ele>1842.9</ele>
        <time>2021-03-27T11:52:12Z</time>
      </trkpt>
      <trkpt lat="45.64588" lon="6.80432">
        <ele>1843</ele>
        <time>2021-03-27T11:52:13Z</time>
      </trkpt>
      <trkpt lat="45.64589" lon="6.80434">
        <ele>1843</ele>
        <time>2021-03-27T11:52:14Z</time>
      </trkpt>
      <trkpt lat="45.64589" lon="6.80436">
        <ele>1843.1</ele>
        <time>2021-03-27T11:52:15Z</time>
      </trkpt>
      <trkpt lat="45.6459" lon="6.80439">
        <ele>1843.2</ele>
        <time>2021-03-27T11:52:16Z</time>
      </trkpt>
      <trkpt lat="45.6459" lon="6.8044">
        <ele>1843.3</ele>
        <time>2021-03-27T11:52:17Z</time>
      </trkpt>
      <trkpt lat="45.6459" lon="6.80441">
        <ele>1843.3</ele>
        <time>2021-03-27T11:52:18Z</time>
      </trkpt>
      <trkpt lat="45.64591" lon="6.80443">
        <ele>1843.4</ele>
        <time>2021-03-27T11:52:19Z</time>
      </trkpt>
      <trkpt lat="45.64591" lon="6.80445">
        <ele>1843.5</ele>
        <time>2021-03-27T11:52:20Z</time>
      </trkpt>
      <trkpt lat="45.64592" lon="6.80446">
        <ele>1843.5</ele>
        <time>2021-03-27T11:52:21Z</time>
      </trkpt>
      <trkpt lat="45.64592" lon="6.80447">
        <ele>1843.6</ele>
        <time>2021-03-27T11:52:22Z</time>
      </trkpt>
      <trkpt lat="45.64592" lon="6.80449">
        <ele>1843.7</ele>
        <time>2021-03-27T11:52:23Z</time>
      </trkpt>
      <trkpt lat="45.64593" lon="6.8045">
        <ele>1843.7</ele>
        <time>2021-03-27T11:52:24Z</time>
      </trkpt>
      <trkpt lat="45.64593" lon="6.80452">
        <ele>1843.8</ele>
        <time>2021-03-27T11:52:25Z</time>
      </trkpt>
      <trkpt lat="45.64593" lon="6.80453">
        <ele>1843.8</ele>
        <time>2021-03-27T11:52:26Z</time>
      </trkpt>
      <trkpt lat="45.64594" lon="6.80454">
        <ele>1843.9</ele>
        <time>2021-03-27T11:52:27Z</time>
      </trkpt>
      <trkpt lat="45.64594" lon="6.80455">
        <ele>1843.9</ele>
        <time>2021-03-27T11:52:28Z</time>
      </trkpt>
      <trkpt lat="45.64594" lon="6.80456">
        <ele>1844</ele>
        <time>2021-03-27T11:52:29Z</time>
      </trkpt>
      <trkpt lat="45.64595" lon="6.80458">
        <ele>1844</ele>
        <time>2021-03-27T11:52:30Z</time>
      </trkpt>
      <trkpt lat="45.64595" lon="6.80459">
        <ele>1844</ele>
        <time>2021-03-27T11:52:31Z</time>
      </trkpt>
      <trkpt lat="45.64596" lon="6.80461">
        <ele>1844.1</ele>
        <time>2021-03-27T11:52:32Z</time>
      </trkpt>
      <trkpt lat="45.64596" lon="6.80462">
        <ele>1844.1</ele>
        <time>2021-03-27T11:52:33Z</time>
      </trkpt>
      <trkpt lat="45.64596" lon="6.80463">
        <ele>1844.2</ele>
        <time>2021-03-27T11:52:34Z</time>
      </trkpt>
      <trkpt lat="45.64597" lon="6.80464">
        <ele>1844.2</ele>
        <time>2021-03-27T11:52:35Z</time>
      </trkpt>
      <trkpt lat="45.64597" lon="6.80465">
        <ele>1844.3</ele>
        <time>2021-03-27T11:52:36Z</time>
      </trkpt>
      <trkpt lat="45.64597" lon="6.80467">
        <ele>1844.3</ele>
        <time>2021-03-27T11:52:37Z</time>
      </trkpt>
      <trkpt lat="45.64598" lon="6.80468">
        <ele>1844.3</ele>
        <time>2021-03-27T11:52:38Z</time>
      </trkpt>
      <trkpt lat="45.64598" lon="6.80469">
        <ele>1844.4</ele>
        <time>2021-03-27T11:52:39Z</time>
      </trkpt>
      <trkpt lat="45.64598" lon="6.80471">
        <ele>1844.5</ele>
        <time>2021-03-27T11:52:40Z</time>
      </trkpt>
      <trkpt lat="45.64599" lon="6.80472">
        <ele>1844.5</ele>
        <time>2021-03-27T11:52:41Z</time>
      </trkpt>
      <trkpt lat="45.64599" lon="6.80474">
        <ele>1844.6</ele>
        <time>2021-03-27T11:52:42Z</time>
      </trkpt>
      <trkpt lat="45.646" lon="6.80475">
        <ele>1844.6</ele>
        <time>2021-03-27T11:52:43Z</time>
      </trkpt>
      <trkpt lat="45.646" lon="6.80476">
        <ele>1844.7</ele>
        <time>2021-03-27T11:52:44Z</time>
      </trkpt>
      <trkpt lat="45.64601" lon="6.80477">
        <ele>1844.8</ele>
        <time>2021-03-27T11:52:45Z</time>
      </trkpt>
      <trkpt lat="45.64601" lon="6.80479">
        <ele>1844.9</ele>
        <time>2021-03-27T11:52:46Z</time>
      </trkpt>
      <trkpt lat="45.64602" lon="6.8048">
        <ele>1844.9</ele>
        <time>2021-03-27T11:52:47Z</time>
      </trkpt>
      <trkpt lat="45.64602" lon="6.80481">
        <ele>1845</ele>
        <time>2021-03-27T11:52:48Z</time>
      </trkpt>
      <trkpt lat="45.64603" lon="6.80483">
        <ele>1845.1</ele>
        <time>2021-03-27T11:52:49Z</time>
      </trkpt>
      <trkpt lat="45.64603" lon="6.80484">
        <ele>1845.2</ele>
        <time>2021-03-27T11:52:50Z</time>
      </trkpt>
      <trkpt lat="45.64603" lon="6.80485">
        <ele>1845.3</ele>
        <time>2021-03-27T11:52:51Z</time>
      </trkpt>
      <trkpt lat="45.64604" lon="6.80486">
        <ele>1845.4</ele>
        <time>2021-03-27T11:52:52Z</time>
      </trkpt>
      <trkpt lat="45.64605" lon="6.80487">
        <ele>1845.4</ele>
        <time>2021-03-27T11:52:53Z</time>
      </trkpt>
      <trkpt lat="45.64605" lon="6.80488">
        <ele>1845.5</ele>
        <time>2021-03-27T11:52:54Z</time>
      </trkpt>
      <trkpt lat="45.64606" lon="6.80489">
        <ele>1845.6</ele>
        <time>2021-03-27T11:52:55Z</time>
      </trkpt>
      <trkpt lat="45.64607" lon="6.8049">
        <ele>1845.8</ele>
        <time>2021-03-27T11:52:56Z</time>
      </trkpt>
      <trkpt lat="45.64607" lon="6.80491">
        <ele>1845.9</ele>
        <time>2021-03-27T11:52:57Z</time>
      </trkpt>
      <trkpt lat="45.64608" lon="6.80493">
        <ele>1846</ele>
        <time>2021-03-27T11:52:58Z</time>
      </trkpt>
      <trkpt lat="45.64608" lon="6.80494">
        <ele>1846.1</ele>
        <time>2021-03-27T11:52:59Z</time>
      </trkpt>
      <trkpt lat="45.64609" lon="6.80495">
        <ele>1846.2</ele>
        <time>2021-03-27T11:53:00Z</time>
      </trkpt>
      <trkpt lat="45.6461" lon="6.80496">
        <ele>1846.3</ele>
        <time>2021-03-27T11:53:01Z</time>
      </trkpt>
      <trkpt lat="45.6461" lon="6.80497">
        <ele>1846.5</ele>
        <time>2021-03-27T11:53:02Z</time>
      </trkpt>
      <trkpt lat="45.64611" lon="6.80498">
        <ele>1846.6</ele>
        <time>2021-03-27T11:53:03Z</time>
      </trkpt>
      <trkpt lat="45.64612" lon="6.80499">
        <ele>1846.7</ele>
        <time>2021-03-27T11:53:04Z</time>
      </trkpt>
      <trkpt lat="45.64613" lon="6.80501">
        <ele>1846.8</ele>
        <time>2021-03-27T11:53:05Z</time>
      </trkpt>
      <trkpt lat="45.64613" lon="6.80502">
        <ele>1846.9</ele>
        <time>2021-03-27T11:53:06Z</time>
      </trkpt>
      <trkpt lat="45.64614" lon="6.80503">
        <ele>1847</ele>
        <time>2021-03-27T11:53:07Z</time>
      </trkpt>
      <trkpt lat="45.64615" lon="6.80504">
        <ele>1847.2</ele>
        <time>2021-03-27T11:53:08Z</time>
      </trkpt>
      <trkpt lat="45.64616" lon="6.80505">
        <ele>1847.2</ele>
        <time>2021-03-27T11:53:09Z</time>
      </trkpt>
      <trkpt lat="45.64616" lon="6.80506">
        <ele>1847.3</ele>
        <time>2021-03-27T11:53:10Z</time>
      </trkpt>
      <trkpt lat="45.64617" lon="6.80507">
        <ele>1847.4</ele>
        <time>2021-03-27T11:53:11Z</time>
      </trkpt>
      <trkpt lat="45.64618" lon="6.80508">
        <ele>1847.5</ele>
        <time>2021-03-27T11:53:12Z</time>
      </trkpt>
      <trkpt lat="45.64618" lon="6.80508">
        <ele>1847.6</ele>
        <time>2021-03-27T11:53:13Z</time>
      </trkpt>
      <trkpt lat="45.64619" lon="6.80509">
        <ele>1847.6</ele>
        <time>2021-03-27T11:53:14Z</time>
      </trkpt>
      <trkpt lat="45.6462" lon="6.8051">
        <ele>1847.7</ele>
        <time>2021-03-27T11:53:15Z</time>
      </trkpt>
      <trkpt lat="45.64621" lon="6.80511">
        <ele>1847.8</ele>
        <time>2021-03-27T11:53:16Z</time>
      </trkpt>
      <trkpt lat="45.64621" lon="6.80512">
        <ele>1847.9</ele>
        <time>2021-03-27T11:53:17Z</time>
      </trkpt>
      <trkpt lat="45.64622" lon="6.80513">
        <ele>1848</ele>
        <time>2021-03-27T11:53:18Z</time>
      </trkpt>
      <trkpt lat="45.64623" lon="6.80514">
        <ele>1848</ele>
        <time>2021-03-27T11:53:19Z</time>
      </trkpt>
      <trkpt lat="45.64624" lon="6.80515">
        <ele>1848.1</ele>
        <time>2021-03-27T11:53:20Z</time>
      </trkpt>
      <trkpt lat="45.64624" lon="6.80515">
        <ele>1848.1</ele>
        <time>2021-03-27T11:53:21Z</time>
      </trkpt>
      <trkpt lat="45.64625" lon="6.80516">
        <ele>1848.2</ele>
        <time>2021-03-27T11:53:22Z</time>
      </trkpt>
      <trkpt lat="45.64625" lon="6.80518">
        <ele>1848.2</ele>
        <time>2021-03-27T11:53:23Z</time>
      </trkpt>
      <trkpt lat="45.64626" lon="6.80519">
        <ele>1848.3</ele>
        <time>2021-03-27T11:53:24Z</time>
      </trkpt>
      <trkpt lat="45.64627" lon="6.8052">
        <ele>1848.4</ele>
        <time>2021-03-27T11:53:25Z</time>
      </trkpt>
      <trkpt lat="45.64628" lon="6.80521">
        <ele>1848.5</ele>
        <time>2021-03-27T11:53:26Z</time>
      </trkpt>
      <trkpt lat="45.64628" lon="6.80522">
        <ele>1848.5</ele>
        <time>2021-03-27T11:53:27Z</time>
      </trkpt>
      <trkpt lat="45.64629" lon="6.80524">
        <ele>1848.6</ele>
        <time>2021-03-27T11:53:28Z</time>
      </trkpt>
      <trkpt lat="45.6463" lon="6.80525">
        <ele>1848.7</ele>
        <time>2021-03-27T11:53:29Z</time>
      </trkpt>
      <trkpt lat="45.64631" lon="6.80526">
        <ele>1848.8</ele>
        <time>2021-03-27T11:53:30Z</time>
      </trkpt>
      <trkpt lat="45.64632" lon="6.80527">
        <ele>1848.8</ele>
        <time>2021-03-27T11:53:31Z</time>
      </trkpt>
      <trkpt lat="45.64632" lon="6.80528">
        <ele>1848.9</ele>
        <time>2021-03-27T11:53:32Z</time>
      </trkpt>
      <trkpt lat="45.64633" lon="6.80529">
        <ele>1849</ele>
        <time>2021-03-27T11:53:33Z</time>
      </trkpt>
      <trkpt lat="45.64634" lon="6.8053">
        <ele>1849</ele>
        <time>2021-03-27T11:53:34Z</time>
      </trkpt>
      <trkpt lat="45.64634" lon="6.80531">
        <ele>1849.1</ele>
        <time>2021-03-27T11:53:35Z</time>
      </trkpt>
      <trkpt lat="45.64635" lon="6.80532">
        <ele>1849.2</ele>
        <time>2021-03-27T11:53:36Z</time>
      </trkpt>
      <trkpt lat="45.64636" lon="6.80533">
        <ele>1849.2</ele>
        <time>2021-03-27T11:53:37Z</time>
      </trkpt>
      <trkpt lat="45.64636" lon="6.80534">
        <ele>1849.3</ele>
        <time>2021-03-27T11:53:38Z</time>
      </trkpt>
      <trkpt lat="45.64637" lon="6.80535">
        <ele>1849.3</ele>
        <time>2021-03-27T11:53:39Z</time>
      </trkpt>
      <trkpt lat="45.64637" lon="6.80536">
        <ele>1849.4</ele>
        <time>2021-03-27T11:53:40Z</time>
      </trkpt>
      <trkpt lat="45.64638" lon="6.80537">
        <ele>1849.5</ele>
        <time>2021-03-27T11:53:41Z</time>
      </trkpt>
      <trkpt lat="45.64639" lon="6.80538">
        <ele>1849.5</ele>
        <time>2021-03-27T11:53:42Z</time>
      </trkpt>
      <trkpt lat="45.64639" lon="6.80539">
        <ele>1849.6</ele>
        <time>2021-03-27T11:53:43Z</time>
      </trkpt>
      <trkpt lat="45.6464" lon="6.8054">
        <ele>1849.6</ele>
        <time>2021-03-27T11:53:44Z</time>
      </trkpt>
      <trkpt lat="45.64641" lon="6.80541">
        <ele>1849.7</ele>
        <time>2021-03-27T11:53:45Z</time>
      </trkpt>
      <trkpt lat="45.64641" lon="6.80543">
        <ele>1849.8</ele>
        <time>2021-03-27T11:53:46Z</time>
      </trkpt>
      <trkpt lat="45.64642" lon="6.80544">
        <ele>1849.8</ele>
        <time>2021-03-27T11:53:47Z</time>
      </trkpt>
      <trkpt lat="45.64643" lon="6.80545">
        <ele>1849.9</ele>
        <time>2021-03-27T11:53:48Z</time>
      </trkpt>
      <trkpt lat="45.64643" lon="6.80546">
        <ele>1850</ele>
        <time>2021-03-27T11:53:49Z</time>
      </trkpt>
      <trkpt lat="45.64644" lon="6.80547">
        <ele>1850</ele>
        <time>2021-03-27T11:53:50Z</time>
      </trkpt>
      <trkpt lat="45.64644" lon="6.80548">
        <ele>1850.1</ele>
        <time>2021-03-27T11:53:51Z</time>
      </trkpt>
      <trkpt lat="45.64645" lon="6.80549">
        <ele>1850.2</ele>
        <time>2021-03-27T11:53:52Z</time>
      </trkpt>
      <trkpt lat="45.64645" lon="6.8055">
        <ele>1850.2</ele>
        <time>2021-03-27T11:53:53Z</time>
      </trkpt>
      <trkpt lat="45.64646" lon="6.80551">
        <ele>1850.3</ele>
        <time>2021-03-27T11:53:54Z</time>
      </trkpt>
      <trkpt lat="45.64646" lon="6.80552">
        <ele>1850.4</ele>
        <time>2021-03-27T11:53:55Z</time>
      </trkpt>
      <trkpt lat="45.64647" lon="6.80553">
        <ele>1850.5</ele>
        <time>2021-03-27T11:53:56Z</time>
      </trkpt>
      <trkpt lat="45.64648" lon="6.80554">
        <ele>1850.5</ele>
        <time>2021-03-27T11:53:57Z</time>
      </trkpt>
      <trkpt lat="45.64648" lon="6.80555">
        <ele>1850.6</ele>
        <time>2021-03-27T11:53:58Z</time>
      </trkpt>
      <trkpt lat="45.64649" lon="6.80556">
        <ele>1850.7</ele>
        <time>2021-03-27T11:53:59Z</time>
      </trkpt>
      <trkpt lat="45.64649" lon="6.80557">
        <ele>1850.8</ele>
        <time>2021-03-27T11:54:00Z</time>
      </trkpt>
      <trkpt lat="45.6465" lon="6.80558">
        <ele>1850.9</ele>
        <time>2021-03-27T11:54:01Z</time>
      </trkpt>
      <trkpt lat="45.64651" lon="6.80559">
        <ele>1851</ele>
        <time>2021-03-27T11:54:02Z</time>
      </trkpt>
      <trkpt lat="45.64652" lon="6.8056">
        <ele>1851.1</ele>
        <time>2021-03-27T11:54:03Z</time>
      </trkpt>
      <trkpt lat="45.64652" lon="6.80561">
        <ele>1851.2</ele>
        <time>2021-03-27T11:54:04Z</time>
      </trkpt>
      <trkpt lat="45.64653" lon="6.80562">
        <ele>1851.3</ele>
        <time>2021-03-27T11:54:05Z</time>
      </trkpt>
      <trkpt lat="45.64654" lon="6.80563">
        <ele>1851.4</ele>
        <time>2021-03-27T11:54:06Z</time>
      </trkpt>
      <trkpt lat="45.64655" lon="6.80563">
        <ele>1851.5</ele>
        <time>2021-03-27T11:54:07Z</time>
      </trkpt>
      <trkpt lat="45.64656" lon="6.80564">
        <ele>1851.6</ele>
        <time>2021-03-27T11:54:08Z</time>
      </trkpt>
      <trkpt lat="45.64656" lon="6.80565">
        <ele>1851.7</ele>
        <time>2021-03-27T11:54:09Z</time>
      </trkpt>
      <trkpt lat="45.64657" lon="6.80566">
        <ele>1851.8</ele>
        <time>2021-03-27T11:54:10Z</time>
      </trkpt>
      <trkpt lat="45.64658" lon="6.80567">
        <ele>1851.9</ele>
        <time>2021-03-27T11:54:11Z</time>
      </trkpt>
      <trkpt lat="45.64659" lon="6.80567">
        <ele>1852</ele>
        <time>2021-03-27T11:54:12Z</time>
      </trkpt>
      <trkpt lat="45.6466" lon="6.80568">
        <ele>1852.1</ele>
        <time>2021-03-27T11:54:13Z</time>
      </trkpt>
      <trkpt lat="45.6466" lon="6.80569">
        <ele>1852.2</ele>
        <time>2021-03-27T11:54:14Z</time>
      </trkpt>
      <trkpt lat="45.64661" lon="6.8057">
        <ele>1852.3</ele>
        <time>2021-03-27T11:54:15Z</time>
      </trkpt>
      <trkpt lat="45.64662" lon="6.80571">
        <ele>1852.4</ele>
        <time>2021-03-27T11:54:16Z</time>
      </trkpt>
      <trkpt lat="45.64663" lon="6.80572">
        <ele>1852.6</ele>
        <time>2021-03-27T11:54:17Z</time>
      </trkpt>
      <trkpt lat="45.64664" lon="6.80573">
        <ele>1852.7</ele>
        <time>2021-03-27T11:54:18Z</time>
      </trkpt>
      <trkpt lat="45.64664" lon="6.80574">
        <ele>1852.8</ele>
        <time>2021-03-27T11:54:19Z</time>
      </trkpt>
      <trkpt lat="45.64665" lon="6.80575">
        <ele>1852.9</ele>
        <time>2021-03-27T11:54:20Z</time>
      </trkpt>
      <trkpt lat="45.64666" lon="6.80575">
        <ele>1853</ele>
        <time>2021-03-27T11:54:21Z</time>
      </trkpt>
      <trkpt lat="45.64666" lon="6.80576">
        <ele>1853</ele>
        <time>2021-03-27T11:54:22Z</time>
      </trkpt>
      <trkpt lat="45.64667" lon="6.80577">
        <ele>1853.1</ele>
        <time>2021-03-27T11:54:23Z</time>
      </trkpt>
      <trkpt lat="45.64668" lon="6.80578">
        <ele>1853.2</ele>
        <time>2021-03-27T11:54:24Z</time>
      </trkpt>
      <trkpt lat="45.64668" lon="6.80578">
        <ele>1853.3</ele>
        <time>2021-03-27T11:54:25Z</time>
      </trkpt>
      <trkpt lat="45.64669" lon="6.80579">
        <ele>1853.4</ele>
        <time>2021-03-27T11:54:26Z</time>
      </trkpt>
      <trkpt lat="45.6467" lon="6.8058">
        <ele>1853.5</ele>
        <time>2021-03-27T11:54:27Z</time>
      </trkpt>
      <trkpt lat="45.64671" lon="6.80581">
        <ele>1853.6</ele>
        <time>2021-03-27T11:54:28Z</time>
      </trkpt>
      <trkpt lat="45.64671" lon="6.80582">
        <ele>1853.7</ele>
        <time>2021-03-27T11:54:29Z</time>
      </trkpt>
      <trkpt lat="45.64672" lon="6.80582">
        <ele>1853.8</ele>
        <time>2021-03-27T11:54:30Z</time>
      </trkpt>
      <trkpt lat="45.64673" lon="6.80583">
        <ele>1853.8</ele>
        <time>2021-03-27T11:54:31Z</time>
      </trkpt>
      <trkpt lat="45.64674" lon="6.80584">
        <ele>1853.9</ele>
        <time>2021-03-27T11:54:32Z</time>
      </trkpt>
      <trkpt lat="45.64675" lon="6.80585">
        <ele>1854</ele>
        <time>2021-03-27T11:54:33Z</time>
      </trkpt>
      <trkpt lat="45.64675" lon="6.80586">
        <ele>1854.1</ele>
        <time>2021-03-27T11:54:34Z</time>
      </trkpt>
      <trkpt lat="45.64676" lon="6.80587">
        <ele>1854.2</ele>
        <time>2021-03-27T11:54:35Z</time>
      </trkpt>
      <trkpt lat="45.64677" lon="6.80587">
        <ele>1854.2</ele>
        <time>2021-03-27T11:54:36Z</time>
      </trkpt>
      <trkpt lat="45.64678" lon="6.80588">
        <ele>1854.3</ele>
        <time>2021-03-27T11:54:37Z</time>
      </trkpt>
      <trkpt lat="45.64678" lon="6.80589">
        <ele>1854.4</ele>
        <time>2021-03-27T11:54:38Z</time>
      </trkpt>
      <trkpt lat="45.64679" lon="6.8059">
        <ele>1854.5</ele>
        <time>2021-03-27T11:54:39Z</time>
      </trkpt>
      <trkpt lat="45.6468" lon="6.80591">
        <ele>1854.5</ele>
        <time>2021-03-27T11:54:40Z</time>
      </trkpt>
      <trkpt lat="45.64681" lon="6.80592">
        <ele>1854.6</ele>
        <time>2021-03-27T11:54:41Z</time>
      </trkpt>
      <trkpt lat="45.64682" lon="6.80592">
        <ele>1854.6</ele>
        <time>2021-03-27T11:54:42Z</time>
      </trkpt>
      <trkpt lat="45.64683" lon="6.80593">
        <ele>1854.7</ele>
        <time>2021-03-27T11:54:43Z</time>
      </trkpt>
      <trkpt lat="45.64684" lon="6.80594">
        <ele>1854.7</ele>
        <time>2021-03-27T11:54:44Z</time>
      </trkpt>
      <trkpt lat="45.64685" lon="6.80594">
        <ele>1854.7</ele>
        <time>2021-03-27T11:54:45Z</time>
      </trkpt>
      <trkpt lat="45.64686" lon="6.80595">
        <ele>1854.8</ele>
        <time>2021-03-27T11:54:46Z</time>
      </trkpt>
      <trkpt lat="45.64686" lon="6.80596">
        <ele>1854.8</ele>
        <time>2021-03-27T11:54:47Z</time>
      </trkpt>
      <trkpt lat="45.64687" lon="6.80596">
        <ele>1854.8</ele>
        <time>2021-03-27T11:54:48Z</time>
      </trkpt>
      <trkpt lat="45.64688" lon="6.80597">
        <ele>1854.8</ele>
        <time>2021-03-27T11:54:49Z</time>
      </trkpt>
      <trkpt lat="45.64689" lon="6.80598">
        <ele>1854.8</ele>
        <time>2021-03-27T11:54:50Z</time>
      </trkpt>
      <trkpt lat="45.64689" lon="6.80599">
        <ele>1854.8</ele>
        <time>2021-03-27T11:54:51Z</time>
      </trkpt>
      <trkpt lat="45.6469" lon="6.806">
        <ele>1854.8</ele>
        <time>2021-03-27T11:54:52Z</time>
      </trkpt>
      <trkpt lat="45.6469" lon="6.80601">
        <ele>1854.8</ele>
        <time>2021-03-27T11:54:53Z</time>
      </trkpt>
      <trkpt lat="45.64691" lon="6.80602">
        <ele>1854.7</ele>
        <time>2021-03-27T11:54:54Z</time>
      </trkpt>
      <trkpt lat="45.64692" lon="6.80603">
        <ele>1854.7</ele>
        <time>2021-03-27T11:54:55Z</time>
      </trkpt>
      <trkpt lat="45.64692" lon="6.80604">
        <ele>1854.7</ele>
        <time>2021-03-27T11:54:56Z</time>
      </trkpt>
      <trkpt lat="45.64693" lon="6.80605">
        <ele>1854.6</ele>
        <time>2021-03-27T11:54:57Z</time>
      </trkpt>
      <trkpt lat="45.64693" lon="6.80606">
        <ele>1854.6</ele>
        <time>2021-03-27T11:54:58Z</time>
      </trkpt>
      <trkpt lat="45.64694" lon="6.80607">
        <ele>1854.5</ele>
        <time>2021-03-27T11:54:59Z</time>
      </trkpt>
      <trkpt lat="45.64695" lon="6.80608">
        <ele>1854.5</ele>
        <time>2021-03-27T11:55:00Z</time>
      </trkpt>
      <trkpt lat="45.64695" lon="6.8061">
        <ele>1854.7</ele>
        <time>2021-03-27T11:55:01Z</time>
      </trkpt>
      <trkpt lat="45.64696" lon="6.80611">
        <ele>1854.8</ele>
        <time>2021-03-27T11:55:02Z</time>
      </trkpt>
      <trkpt lat="45.64697" lon="6.80612">
        <ele>1854.9</ele>
        <time>2021-03-27T11:55:03Z</time>
      </trkpt>
      <trkpt lat="45.64698" lon="6.80613">
        <ele>1855</ele>
        <time>2021-03-27T11:55:04Z</time>
      </trkpt>
      <trkpt lat="45.64698" lon="6.80614">
        <ele>1855.1</ele>
        <time>2021-03-27T11:55:05Z</time>
      </trkpt>
      <trkpt lat="45.64699" lon="6.80615">
        <ele>1855.2</ele>
        <time>2021-03-27T11:55:06Z</time>
      </trkpt>
      <trkpt lat="45.647" lon="6.80616">
        <ele>1855.3</ele>
        <time>2021-03-27T11:55:07Z</time>
      </trkpt>
      <trkpt lat="45.647" lon="6.80617">
        <ele>1855.4</ele>
        <time>2021-03-27T11:55:08Z</time>
      </trkpt>
      <trkpt lat="45.64701" lon="6.80618">
        <ele>1855.5</ele>
        <time>2021-03-27T11:55:09Z</time>
      </trkpt>
      <trkpt lat="45.64702" lon="6.80619">
        <ele>1855.6</ele>
        <time>2021-03-27T11:55:10Z</time>
      </trkpt>
      <trkpt lat="45.64702" lon="6.8062">
        <ele>1855.7</ele>
        <time>2021-03-27T11:55:11Z</time>
      </trkpt>
      <trkpt lat="45.64703" lon="6.80621">
        <ele>1855.8</ele>
        <time>2021-03-27T11:55:12Z</time>
      </trkpt>
      <trkpt lat="45.64703" lon="6.80622">
        <ele>1855.9</ele>
        <time>2021-03-27T11:55:13Z</time>
      </trkpt>
      <trkpt lat="45.64704" lon="6.80623">
        <ele>1856</ele>
        <time>2021-03-27T11:55:14Z</time>
      </trkpt>
      <trkpt lat="45.64704" lon="6.80624">
        <ele>1856.1</ele>
        <time>2021-03-27T11:55:15Z</time>
      </trkpt>
      <trkpt lat="45.64704" lon="6.80626">
        <ele>1856.2</ele>
        <time>2021-03-27T11:55:16Z</time>
      </trkpt>
      <trkpt lat="45.64705" lon="6.80627">
        <ele>1856.3</ele>
        <time>2021-03-27T11:55:17Z</time>
      </trkpt>
      <trkpt lat="45.64705" lon="6.80628">
        <ele>1856.4</ele>
        <time>2021-03-27T11:55:18Z</time>
      </trkpt>
      <trkpt lat="45.64706" lon="6.80629">
        <ele>1856.6</ele>
        <time>2021-03-27T11:55:19Z</time>
      </trkpt>
      <trkpt lat="45.64707" lon="6.8063">
        <ele>1856.7</ele>
        <time>2021-03-27T11:55:20Z</time>
      </trkpt>
      <trkpt lat="45.64707" lon="6.80631">
        <ele>1856.8</ele>
        <time>2021-03-27T11:55:21Z</time>
      </trkpt>
      <trkpt lat="45.64708" lon="6.80632">
        <ele>1856.9</ele>
        <time>2021-03-27T11:55:22Z</time>
      </trkpt>
      <trkpt lat="45.64708" lon="6.80633">
        <ele>1857</ele>
        <time>2021-03-27T11:55:23Z</time>
      </trkpt>
      <trkpt lat="45.64709" lon="6.80634">
        <ele>1857.1</ele>
        <time>2021-03-27T11:55:24Z</time>
      </trkpt>
      <trkpt lat="45.6471" lon="6.80636">
        <ele>1857.3</ele>
        <time>2021-03-27T11:55:25Z</time>
      </trkpt>
      <trkpt lat="45.6471" lon="6.80636">
        <ele>1857.4</ele>
        <time>2021-03-27T11:55:26Z</time>
      </trkpt>
      <trkpt lat="45.64711" lon="6.80637">
        <ele>1857.5</ele>
        <time>2021-03-27T11:55:27Z</time>
      </trkpt>
      <trkpt lat="45.64711" lon="6.80638">
        <ele>1857.6</ele>
        <time>2021-03-27T11:55:28Z</time>
      </trkpt>
      <trkpt lat="45.64712" lon="6.80639">
        <ele>1857.7</ele>
        <time>2021-03-27T11:55:29Z</time>
      </trkpt>
      <trkpt lat="45.64713" lon="6.80639">
        <ele>1857.8</ele>
        <time>2021-03-27T11:55:30Z</time>
      </trkpt>
      <trkpt lat="45.64713" lon="6.8064">
        <ele>1857.9</ele>
        <time>2021-03-27T11:55:31Z</time>
      </trkpt>
      <trkpt lat="45.64714" lon="6.80641">
        <ele>1858</ele>
        <time>2021-03-27T11:55:32Z</time>
      </trkpt>
      <trkpt lat="45.64715" lon="6.80642">
        <ele>1858.1</ele>
        <time>2021-03-27T11:55:33Z</time>
      </trkpt>
      <trkpt lat="45.64715" lon="6.80643">
        <ele>1858.2</ele>
        <time>2021-03-27T11:55:34Z</time>
      </trkpt>
      <trkpt lat="45.64716" lon="6.80644">
        <ele>1858.3</ele>
        <time>2021-03-27T11:55:35Z</time>
      </trkpt>
      <trkpt lat="45.64717" lon="6.80645">
        <ele>1858.5</ele>
        <time>2021-03-27T11:55:36Z</time>
      </trkpt>
      <trkpt lat="45.64717" lon="6.80646">
        <ele>1858.6</ele>
        <time>2021-03-27T11:55:37Z</time>
      </trkpt>
      <trkpt lat="45.64718" lon="6.80647">
        <ele>1858.7</ele>
        <time>2021-03-27T11:55:38Z</time>
      </trkpt>
      <trkpt lat="45.64718" lon="6.80648">
        <ele>1858.8</ele>
        <time>2021-03-27T11:55:39Z</time>
      </trkpt>
      <trkpt lat="45.64719" lon="6.80649">
        <ele>1858.9</ele>
        <time>2021-03-27T11:55:40Z</time>
      </trkpt>
      <trkpt lat="45.64719" lon="6.8065">
        <ele>1859</ele>
        <time>2021-03-27T11:55:41Z</time>
      </trkpt>
      <trkpt lat="45.6472" lon="6.80651">
        <ele>1859.1</ele>
        <time>2021-03-27T11:55:42Z</time>
      </trkpt>
      <trkpt lat="45.6472" lon="6.80652">
        <ele>1859.2</ele>
        <time>2021-03-27T11:55:43Z</time>
      </trkpt>
      <trkpt lat="45.6472" lon="6.80653">
        <ele>1859.3</ele>
        <time>2021-03-27T11:55:44Z</time>
      </trkpt>
      <trkpt lat="45.64721" lon="6.80654">
        <ele>1859.4</ele>
        <time>2021-03-27T11:55:45Z</time>
      </trkpt>
      <trkpt lat="45.64721" lon="6.80655">
        <ele>1859.5</ele>
        <time>2021-03-27T11:55:46Z</time>
      </trkpt>
      <trkpt lat="45.64722" lon="6.80656">
        <ele>1859.6</ele>
        <time>2021-03-27T11:55:47Z</time>
      </trkpt>
      <trkpt lat="45.64722" lon="6.80657">
        <ele>1859.7</ele>
        <time>2021-03-27T11:55:48Z</time>
      </trkpt>
      <trkpt lat="45.64723" lon="6.80658">
        <ele>1859.8</ele>
        <time>2021-03-27T11:55:49Z</time>
      </trkpt>
      <trkpt lat="45.64724" lon="6.80659">
        <ele>1860</ele>
        <time>2021-03-27T11:55:50Z</time>
      </trkpt>
      <trkpt lat="45.64725" lon="6.80661">
        <ele>1860.1</ele>
        <time>2021-03-27T11:55:51Z</time>
      </trkpt>
      <trkpt lat="45.64725" lon="6.80662">
        <ele>1860.2</ele>
        <time>2021-03-27T11:55:52Z</time>
      </trkpt>
      <trkpt lat="45.64726" lon="6.80663">
        <ele>1860.4</ele>
        <time>2021-03-27T11:55:53Z</time>
      </trkpt>
      <trkpt lat="45.64727" lon="6.80664">
        <ele>1860.5</ele>
        <time>2021-03-27T11:55:54Z</time>
      </trkpt>
      <trkpt lat="45.64728" lon="6.80665">
        <ele>1860.7</ele>
        <time>2021-03-27T11:55:55Z</time>
      </trkpt>
      <trkpt lat="45.64728" lon="6.80667">
        <ele>1860.8</ele>
        <time>2021-03-27T11:55:56Z</time>
      </trkpt>
      <trkpt lat="45.64729" lon="6.80668">
        <ele>1861</ele>
        <time>2021-03-27T11:55:57Z</time>
      </trkpt>
      <trkpt lat="45.6473" lon="6.80669">
        <ele>1861.1</ele>
        <time>2021-03-27T11:55:58Z</time>
      </trkpt>
      <trkpt lat="45.6473" lon="6.8067">
        <ele>1861.2</ele>
        <time>2021-03-27T11:55:59Z</time>
      </trkpt>
      <trkpt lat="45.64731" lon="6.8067">
        <ele>1861.3</ele>
        <time>2021-03-27T11:56:00Z</time>
      </trkpt>
      <trkpt lat="45.64732" lon="6.80671">
        <ele>1861.4</ele>
        <time>2021-03-27T11:56:01Z</time>
      </trkpt>
      <trkpt lat="45.64732" lon="6.80672">
        <ele>1861.6</ele>
        <time>2021-03-27T11:56:02Z</time>
      </trkpt>
      <trkpt lat="45.64733" lon="6.80673">
        <ele>1861.7</ele>
        <time>2021-03-27T11:56:03Z</time>
      </trkpt>
      <trkpt lat="45.64734" lon="6.80674">
        <ele>1861.8</ele>
        <time>2021-03-27T11:56:04Z</time>
      </trkpt>
      <trkpt lat="45.64734" lon="6.80674">
        <ele>1862</ele>
        <time>2021-03-27T11:56:05Z</time>
      </trkpt>
      <trkpt lat="45.64735" lon="6.80675">
        <ele>1862.1</ele>
        <time>2021-03-27T11:56:06Z</time>
      </trkpt>
      <trkpt lat="45.64736" lon="6.80676">
        <ele>1862.2</ele>
        <time>2021-03-27T11:56:07Z</time>
      </trkpt>
      <trkpt lat="45.64736" lon="6.80676">
        <ele>1862.3</ele>
        <time>2021-03-27T11:56:08Z</time>
      </trkpt>
      <trkpt lat="45.64737" lon="6.80677">
        <ele>1862.4</ele>
        <time>2021-03-27T11:56:09Z</time>
      </trkpt>
      <trkpt lat="45.64738" lon="6.80677">
        <ele>1862.5</ele>
        <time>2021-03-27T11:56:10Z</time>
      </trkpt>
      <trkpt lat="45.64739" lon="6.80678">
        <ele>1862.7</ele>
        <time>2021-03-27T11:56:11Z</time>
      </trkpt>
      <trkpt lat="45.64739" lon="6.80679">
        <ele>1862.8</ele>
        <time>2021-03-27T11:56:12Z</time>
      </trkpt>
      <trkpt lat="45.6474" lon="6.8068">
        <ele>1862.9</ele>
        <time>2021-03-27T11:56:13Z</time>
      </trkpt>
      <trkpt lat="45.64741" lon="6.80681">
        <ele>1863</ele>
        <time>2021-03-27T11:56:14Z</time>
      </trkpt>
      <trkpt lat="45.64741" lon="6.80682">
        <ele>1863.2</ele>
        <time>2021-03-27T11:56:15Z</time>
      </trkpt>
      <trkpt lat="45.64742" lon="6.80682">
        <ele>1863.3</ele>
        <time>2021-03-27T11:56:16Z</time>
      </trkpt>
      <trkpt lat="45.64743" lon="6.80683">
        <ele>1863.4</ele>
        <time>2021-03-27T11:56:17Z</time>
      </trkpt>
      <trkpt lat="45.64743" lon="6.80683">
        <ele>1863.5</ele>
        <time>2021-03-27T11:56:18Z</time>
      </trkpt>
      <trkpt lat="45.64744" lon="6.80684">
        <ele>1863.6</ele>
        <time>2021-03-27T11:56:19Z</time>
      </trkpt>
      <trkpt lat="45.64745" lon="6.80685">
        <ele>1863.8</ele>
        <time>2021-03-27T11:56:20Z</time>
      </trkpt>
      <trkpt lat="45.64746" lon="6.80686">
        <ele>1863.9</ele>
        <time>2021-03-27T11:56:21Z</time>
      </trkpt>
      <trkpt lat="45.64746" lon="6.80686">
        <ele>1864</ele>
        <time>2021-03-27T11:56:22Z</time>
      </trkpt>
      <trkpt lat="45.64747" lon="6.80687">
        <ele>1864.1</ele>
        <time>2021-03-27T11:56:23Z</time>
      </trkpt>
      <trkpt lat="45.64748" lon="6.80688">
        <ele>1864.2</ele>
        <time>2021-03-27T11:56:24Z</time>
      </trkpt>
      <trkpt lat="45.64749" lon="6.80688">
        <ele>1864.4</ele>
        <time>2021-03-27T11:56:25Z</time>
      </trkpt>
      <trkpt lat="45.6475" lon="6.80689">
        <ele>1864.5</ele>
        <time>2021-03-27T11:56:26Z</time>
      </trkpt>
      <trkpt lat="45.64751" lon="6.8069">
        <ele>1864.7</ele>
        <time>2021-03-27T11:56:27Z</time>
      </trkpt>
      <trkpt lat="45.64752" lon="6.80691">
        <ele>1864.9</ele>
        <time>2021-03-27T11:56:28Z</time>
      </trkpt>
      <trkpt lat="45.64753" lon="6.80692">
        <ele>1865</ele>
        <time>2021-03-27T11:56:29Z</time>
      </trkpt>
      <trkpt lat="45.64754" lon="6.80692">
        <ele>1865.1</ele>
        <time>2021-03-27T11:56:30Z</time>
      </trkpt>
      <trkpt lat="45.64755" lon="6.80693">
        <ele>1865.2</ele>
        <time>2021-03-27T11:56:31Z</time>
      </trkpt>
      <trkpt lat="45.64755" lon="6.80694">
        <ele>1865.4</ele>
        <time>2021-03-27T11:56:32Z</time>
      </trkpt>
      <trkpt lat="45.64756" lon="6.80695">
        <ele>1865.5</ele>
        <time>2021-03-27T11:56:33Z</time>
      </trkpt>
      <trkpt lat="45.64757" lon="6.80696">
        <ele>1865.6</ele>
        <time>2021-03-27T11:56:34Z</time>
      </trkpt>
      <trkpt lat="45.64758" lon="6.80697">
        <ele>1865.7</ele>
        <time>2021-03-27T11:56:35Z</time>
      </trkpt>
      <trkpt lat="45.64758" lon="6.80697">
        <ele>1865.8</ele>
        <time>2021-03-27T11:56:36Z</time>
      </trkpt>
      <trkpt lat="45.64759" lon="6.80698">
        <ele>1865.9</ele>
        <time>2021-03-27T11:56:37Z</time>
      </trkpt>
      <trkpt lat="45.6476" lon="6.80699">
        <ele>1866</ele>
        <time>2021-03-27T11:56:38Z</time>
      </trkpt>
      <trkpt lat="45.64761" lon="6.807">
        <ele>1866.1</ele>
        <time>2021-03-27T11:56:39Z</time>
      </trkpt>
      <trkpt lat="45.64762" lon="6.80701">
        <ele>1866.2</ele>
        <time>2021-03-27T11:56:40Z</time>
      </trkpt>
      <trkpt lat="45.64763" lon="6.80702">
        <ele>1866.3</ele>
        <time>2021-03-27T11:56:41Z</time>
      </trkpt>
      <trkpt lat="45.64763" lon="6.80703">
        <ele>1866.4</ele>
        <time>2021-03-27T11:56:42Z</time>
      </trkpt>
      <trkpt lat="45.64764" lon="6.80704">
        <ele>1866.5</ele>
        <time>2021-03-27T11:56:43Z</time>
      </trkpt>
      <trkpt lat="45.64765" lon="6.80705">
        <ele>1866.5</ele>
        <time>2021-03-27T11:56:44Z</time>
      </trkpt>
      <trkpt lat="45.64766" lon="6.80706">
        <ele>1866.6</ele>
        <time>2021-03-27T11:56:45Z</time>
      </trkpt>
      <trkpt lat="45.64767" lon="6.80706">
        <ele>1866.7</ele>
        <time>2021-03-27T11:56:46Z</time>
      </trkpt>
      <trkpt lat="45.64768" lon="6.80707">
        <ele>1866.8</ele>
        <time>2021-03-27T11:56:47Z</time>
      </trkpt>
      <trkpt lat="45.64769" lon="6.80708">
        <ele>1866.9</ele>
        <time>2021-03-27T11:56:48Z</time>
      </trkpt>
      <trkpt lat="45.6477" lon="6.80709">
        <ele>1866.9</ele>
        <time>2021-03-27T11:56:49Z</time>
      </trkpt>
      <trkpt lat="45.64771" lon="6.8071">
        <ele>1867</ele>
        <time>2021-03-27T11:56:50Z</time>
      </trkpt>
      <trkpt lat="45.64771" lon="6.80711">
        <ele>1867.1</ele>
        <time>2021-03-27T11:56:51Z</time>
      </trkpt>
      <trkpt lat="45.64772" lon="6.80712">
        <ele>1867.1</ele>
        <time>2021-03-27T11:56:52Z</time>
      </trkpt>
      <trkpt lat="45.64773" lon="6.80713">
        <ele>1867.2</ele>
        <time>2021-03-27T11:56:53Z</time>
      </trkpt>
      <trkpt lat="45.64774" lon="6.80714">
        <ele>1867.3</ele>
        <time>2021-03-27T11:56:54Z</time>
      </trkpt>
      <trkpt lat="45.64775" lon="6.80715">
        <ele>1867.3</ele>
        <time>2021-03-27T11:56:55Z</time>
      </trkpt>
      <trkpt lat="45.64776" lon="6.80716">
        <ele>1867.4</ele>
        <time>2021-03-27T11:56:56Z</time>
      </trkpt>
      <trkpt lat="45.64777" lon="6.80717">
        <ele>1867.5</ele>
        <time>2021-03-27T11:56:57Z</time>
      </trkpt>
      <trkpt lat="45.64778" lon="6.80718">
        <ele>1867.5</ele>
        <time>2021-03-27T11:56:58Z</time>
      </trkpt>
      <trkpt lat="45.64778" lon="6.80719">
        <ele>1867.6</ele>
        <time>2021-03-27T11:56:59Z</time>
      </trkpt>
      <trkpt lat="45.64779" lon="6.8072">
        <ele>1867.7</ele>
        <time>2021-03-27T11:57:00Z</time>
      </trkpt>
      <trkpt lat="45.6478" lon="6.80721">
        <ele>1867.7</ele>
        <time>2021-03-27T11:57:01Z</time>
      </trkpt>
      <trkpt lat="45.64781" lon="6.80722">
        <ele>1867.8</ele>
        <time>2021-03-27T11:57:02Z</time>
      </trkpt>
      <trkpt lat="45.64782" lon="6.80724">
        <ele>1867.9</ele>
        <time>2021-03-27T11:57:03Z</time>
      </trkpt>
      <trkpt lat="45.64783" lon="6.80725">
        <ele>1868</ele>
        <time>2021-03-27T11:57:04Z</time>
      </trkpt>
      <trkpt lat="45.64784" lon="6.80726">
        <ele>1868</ele>
        <time>2021-03-27T11:57:05Z</time>
      </trkpt>
      <trkpt lat="45.64784" lon="6.80727">
        <ele>1868.1</ele>
        <time>2021-03-27T11:57:06Z</time>
      </trkpt>
      <trkpt lat="45.64785" lon="6.80728">
        <ele>1868.2</ele>
        <time>2021-03-27T11:57:07Z</time>
      </trkpt>
      <trkpt lat="45.64786" lon="6.8073">
        <ele>1868.3</ele>
        <time>2021-03-27T11:57:08Z</time>
      </trkpt>
      <trkpt lat="45.64787" lon="6.80731">
        <ele>1868.4</ele>
        <time>2021-03-27T11:57:09Z</time>
      </trkpt>
      <trkpt lat="45.64787" lon="6.80732">
        <ele>1868.5</ele>
        <time>2021-03-27T11:57:10Z</time>
      </trkpt>
      <trkpt lat="45.64788" lon="6.80734">
        <ele>1868.6</ele>
        <time>2021-03-27T11:57:11Z</time>
      </trkpt>
      <trkpt lat="45.64789" lon="6.80735">
        <ele>1868.7</ele>
        <time>2021-03-27T11:57:12Z</time>
      </trkpt>
      <trkpt lat="45.64789" lon="6.80736">
        <ele>1868.8</ele>
        <time>2021-03-27T11:57:13Z</time>
      </trkpt>
      <trkpt lat="45.6479" lon="6.80738">
        <ele>1868.9</ele>
        <time>2021-03-27T11:57:14Z</time>
      </trkpt>
      <trkpt lat="45.64791" lon="6.8074">
        <ele>1869.1</ele>
        <time>2021-03-27T11:57:15Z</time>
      </trkpt>
      <trkpt lat="45.64791" lon="6.80741">
        <ele>1869.2</ele>
        <time>2021-03-27T11:57:16Z</time>
      </trkpt>
      <trkpt lat="45.64792" lon="6.80742">
        <ele>1869.2</ele>
        <time>2021-03-27T11:57:17Z</time>
      </trkpt>
      <trkpt lat="45.64793" lon="6.80745">
        <ele>1869.4</ele>
        <time>2021-03-27T11:57:18Z</time>
      </trkpt>
      <trkpt lat="45.64793" lon="6.80746">
        <ele>1869.5</ele>
        <time>2021-03-27T11:57:19Z</time>
      </trkpt>
      <trkpt lat="45.64794" lon="6.80747">
        <ele>1869.6</ele>
        <time>2021-03-27T11:57:20Z</time>
      </trkpt>
      <trkpt lat="45.64794" lon="6.80748">
        <ele>1869.7</ele>
        <time>2021-03-27T11:57:21Z</time>
      </trkpt>
      <trkpt lat="45.64795" lon="6.8075">
        <ele>1869.8</ele>
        <time>2021-03-27T11:57:22Z</time>
      </trkpt>
      <trkpt lat="45.64795" lon="6.80751">
        <ele>1869.9</ele>
        <time>2021-03-27T11:57:23Z</time>
      </trkpt>
      <trkpt lat="45.64796" lon="6.80752">
        <ele>1870</ele>
        <time>2021-03-27T11:57:24Z</time>
      </trkpt>
      <trkpt lat="45.64796" lon="6.80754">
        <ele>1870.1</ele>
        <time>2021-03-27T11:57:25Z</time>
      </trkpt>
      <trkpt lat="45.64797" lon="6.80755">
        <ele>1870.3</ele>
        <time>2021-03-27T11:57:26Z</time>
      </trkpt>
      <trkpt lat="45.64798" lon="6.80756">
        <ele>1870.4</ele>
        <time>2021-03-27T11:57:27Z</time>
      </trkpt>
      <trkpt lat="45.64798" lon="6.80758">
        <ele>1870.5</ele>
        <time>2021-03-27T11:57:28Z</time>
      </trkpt>
      <trkpt lat="45.64799" lon="6.80759">
        <ele>1870.6</ele>
        <time>2021-03-27T11:57:29Z</time>
      </trkpt>
      <trkpt lat="45.64799" lon="6.8076">
        <ele>1870.7</ele>
        <time>2021-03-27T11:57:30Z</time>
      </trkpt>
      <trkpt lat="45.648" lon="6.80762">
        <ele>1870.8</ele>
        <time>2021-03-27T11:57:31Z</time>
      </trkpt>
      <trkpt lat="45.64801" lon="6.80763">
        <ele>1870.9</ele>
        <time>2021-03-27T11:57:32Z</time>
      </trkpt>
      <trkpt lat="45.64801" lon="6.80764">
        <ele>1871</ele>
        <time>2021-03-27T11:57:33Z</time>
      </trkpt>
      <trkpt lat="45.64802" lon="6.80765">
        <ele>1871.2</ele>
        <time>2021-03-27T11:57:34Z</time>
      </trkpt>
      <trkpt lat="45.64802" lon="6.80767">
        <ele>1871.3</ele>
        <time>2021-03-27T11:57:35Z</time>
      </trkpt>
      <trkpt lat="45.64803" lon="6.80768">
        <ele>1871.4</ele>
        <time>2021-03-27T11:57:36Z</time>
      </trkpt>
      <trkpt lat="45.64804" lon="6.80769">
        <ele>1871.5</ele>
        <time>2021-03-27T11:57:37Z</time>
      </trkpt>
      <trkpt lat="45.64804" lon="6.80771">
        <ele>1871.6</ele>
        <time>2021-03-27T11:57:38Z</time>
      </trkpt>
      <trkpt lat="45.64805" lon="6.80772">
        <ele>1871.7</ele>
        <time>2021-03-27T11:57:39Z</time>
      </trkpt>
      <trkpt lat="45.64805" lon="6.80773">
        <ele>1871.8</ele>
        <time>2021-03-27T11:57:40Z</time>
      </trkpt>
      <trkpt lat="45.64806" lon="6.80774">
        <ele>1872</ele>
        <time>2021-03-27T11:57:41Z</time>
      </trkpt>
      <trkpt lat="45.64807" lon="6.80775">
        <ele>1872.1</ele>
        <time>2021-03-27T11:57:42Z</time>
      </trkpt>
      <trkpt lat="45.64807" lon="6.80777">
        <ele>1872.2</ele>
        <time>2021-03-27T11:57:43Z</time>
      </trkpt>
      <trkpt lat="45.64808" lon="6.80778">
        <ele>1872.4</ele>
        <time>2021-03-27T11:57:44Z</time>
      </trkpt>
      <trkpt lat="45.64809" lon="6.80779">
        <ele>1872.5</ele>
        <time>2021-03-27T11:57:45Z</time>
      </trkpt>
      <trkpt lat="45.64809" lon="6.8078">
        <ele>1872.6</ele>
        <time>2021-03-27T11:57:46Z</time>
      </trkpt>
      <trkpt lat="45.6481" lon="6.80781">
        <ele>1872.7</ele>
        <time>2021-03-27T11:57:47Z</time>
      </trkpt>
      <trkpt lat="45.6481" lon="6.80782">
        <ele>1872.8</ele>
        <time>2021-03-27T11:57:48Z</time>
      </trkpt>
      <trkpt lat="45.64811" lon="6.80784">
        <ele>1873</ele>
        <time>2021-03-27T11:57:49Z</time>
      </trkpt>
      <trkpt lat="45.64811" lon="6.80785">
        <ele>1873.1</ele>
        <time>2021-03-27T11:57:50Z</time>
      </trkpt>
      <trkpt lat="45.64812" lon="6.80786">
        <ele>1873.2</ele>
        <time>2021-03-27T11:57:51Z</time>
      </trkpt>
      <trkpt lat="45.64812" lon="6.80787">
        <ele>1873.3</ele>
        <time>2021-03-27T11:57:52Z</time>
      </trkpt>
      <trkpt lat="45.64813" lon="6.80788">
        <ele>1873.4</ele>
        <time>2021-03-27T11:57:53Z</time>
      </trkpt>
      <trkpt lat="45.64814" lon="6.80789">
        <ele>1873.6</ele>
        <time>2021-03-27T11:57:54Z</time>
      </trkpt>
      <trkpt lat="45.64814" lon="6.8079">
        <ele>1873.7</ele>
        <time>2021-03-27T11:57:55Z</time>
      </trkpt>
      <trkpt lat="45.64815" lon="6.80791">
        <ele>1873.8</ele>
        <time>2021-03-27T11:57:56Z</time>
      </trkpt>
      <trkpt lat="45.64815" lon="6.80792">
        <ele>1874</ele>
        <time>2021-03-27T11:57:57Z</time>
      </trkpt>
      <trkpt lat="45.64816" lon="6.80793">
        <ele>1874.1</ele>
        <time>2021-03-27T11:57:58Z</time>
      </trkpt>
      <trkpt lat="45.64817" lon="6.80794">
        <ele>1874.3</ele>
        <time>2021-03-27T11:57:59Z</time>
      </trkpt>
      <trkpt lat="45.64817" lon="6.80795">
        <ele>1874.4</ele>
        <time>2021-03-27T11:58:00Z</time>
      </trkpt>
      <trkpt lat="45.64818" lon="6.80797">
        <ele>1874.7</ele>
        <time>2021-03-27T11:58:01Z</time>
      </trkpt>
      <trkpt lat="45.64819" lon="6.80797">
        <ele>1874.8</ele>
        <time>2021-03-27T11:58:02Z</time>
      </trkpt>
      <trkpt lat="45.64819" lon="6.80798">
        <ele>1874.9</ele>
        <time>2021-03-27T11:58:03Z</time>
      </trkpt>
      <trkpt lat="45.6482" lon="6.80799">
        <ele>1875</ele>
        <time>2021-03-27T11:58:04Z</time>
      </trkpt>
      <trkpt lat="45.6482" lon="6.808">
        <ele>1875.2</ele>
        <time>2021-03-27T11:58:05Z</time>
      </trkpt>
      <trkpt lat="45.64821" lon="6.80801">
        <ele>1875.3</ele>
        <time>2021-03-27T11:58:06Z</time>
      </trkpt>
      <trkpt lat="45.64822" lon="6.80802">
        <ele>1875.5</ele>
        <time>2021-03-27T11:58:07Z</time>
      </trkpt>
      <trkpt lat="45.64822" lon="6.80803">
        <ele>1875.6</ele>
        <time>2021-03-27T11:58:08Z</time>
      </trkpt>
      <trkpt lat="45.64823" lon="6.80804">
        <ele>1875.8</ele>
        <time>2021-03-27T11:58:09Z</time>
      </trkpt>
      <trkpt lat="45.64824" lon="6.80804">
        <ele>1876</ele>
        <time>2021-03-27T11:58:10Z</time>
      </trkpt>
      <trkpt lat="45.64825" lon="6.80805">
        <ele>1876.1</ele>
        <time>2021-03-27T11:58:11Z</time>
      </trkpt>
      <trkpt lat="45.64825" lon="6.80806">
        <ele>1876.3</ele>
        <time>2021-03-27T11:58:12Z</time>
      </trkpt>
      <trkpt lat="45.64826" lon="6.80807">
        <ele>1876.4</ele>
        <time>2021-03-27T11:58:13Z</time>
      </trkpt>
      <trkpt lat="45.64827" lon="6.80808">
        <ele>1876.6</ele>
        <time>2021-03-27T11:58:14Z</time>
      </trkpt>
      <trkpt lat="45.64827" lon="6.80809">
        <ele>1876.7</ele>
        <time>2021-03-27T11:58:15Z</time>
      </trkpt>
      <trkpt lat="45.64828" lon="6.80809">
        <ele>1876.8</ele>
        <time>2021-03-27T11:58:16Z</time>
      </trkpt>
      <trkpt lat="45.64828" lon="6.8081">
        <ele>1877</ele>
        <time>2021-03-27T11:58:17Z</time>
      </trkpt>
      <trkpt lat="45.64829" lon="6.80811">
        <ele>1877.1</ele>
        <time>2021-03-27T11:58:18Z</time>
      </trkpt>
      <trkpt lat="45.6483" lon="6.80812">
        <ele>1877.3</ele>
        <time>2021-03-27T11:58:19Z</time>
      </trkpt>
      <trkpt lat="45.6483" lon="6.80813">
        <ele>1877.4</ele>
        <time>2021-03-27T11:58:20Z</time>
      </trkpt>
      <trkpt lat="45.64831" lon="6.80813">
        <ele>1877.6</ele>
        <time>2021-03-27T11:58:21Z</time>
      </trkpt>
      <trkpt lat="45.64831" lon="6.80814">
        <ele>1877.7</ele>
        <time>2021-03-27T11:58:22Z</time>
      </trkpt>
      <trkpt lat="45.64832" lon="6.80815">
        <ele>1877.9</ele>
        <time>2021-03-27T11:58:23Z</time>
      </trkpt>
      <trkpt lat="45.64833" lon="6.80816">
        <ele>1878.1</ele>
        <time>2021-03-27T11:58:24Z</time>
      </trkpt>
      <trkpt lat="45.64834" lon="6.80817">
        <ele>1878.2</ele>
        <time>2021-03-27T11:58:25Z</time>
      </trkpt>
      <trkpt lat="45.64834" lon="6.80817">
        <ele>1878.4</ele>
        <time>2021-03-27T11:58:26Z</time>
      </trkpt>
      <trkpt lat="45.64835" lon="6.80818">
        <ele>1878.6</ele>
        <time>2021-03-27T11:58:27Z</time>
      </trkpt>
      <trkpt lat="45.64836" lon="6.80819">
        <ele>1878.7</ele>
        <time>2021-03-27T11:58:28Z</time>
      </trkpt>
      <trkpt lat="45.64837" lon="6.8082">
        <ele>1878.9</ele>
        <time>2021-03-27T11:58:29Z</time>
      </trkpt>
      <trkpt lat="45.64837" lon="6.8082">
        <ele>1879.1</ele>
        <time>2021-03-27T11:58:30Z</time>
      </trkpt>
      <trkpt lat="45.64838" lon="6.80821">
        <ele>1879.2</ele>
        <time>2021-03-27T11:58:31Z</time>
      </trkpt>
      <trkpt lat="45.64839" lon="6.80822">
        <ele>1879.4</ele>
        <time>2021-03-27T11:58:32Z</time>
      </trkpt>
      <trkpt lat="45.6484" lon="6.80823">
        <ele>1879.6</ele>
        <time>2021-03-27T11:58:33Z</time>
      </trkpt>
      <trkpt lat="45.6484" lon="6.80824">
        <ele>1879.8</ele>
        <time>2021-03-27T11:58:34Z</time>
      </trkpt>
      <trkpt lat="45.64841" lon="6.80825">
        <ele>1880</ele>
        <time>2021-03-27T11:58:35Z</time>
      </trkpt>
      <trkpt lat="45.64841" lon="6.80826">
        <ele>1880.1</ele>
        <time>2021-03-27T11:58:36Z</time>
      </trkpt>
      <trkpt lat="45.64842" lon="6.80827">
        <ele>1880.3</ele>
        <time>2021-03-27T11:58:37Z</time>
      </trkpt>
      <trkpt lat="45.64843" lon="6.80828">
        <ele>1880.4</ele>
        <time>2021-03-27T11:58:38Z</time>
      </trkpt>
      <trkpt lat="45.64843" lon="6.80829">
        <ele>1880.6</ele>
        <time>2021-03-27T11:58:39Z</time>
      </trkpt>
      <trkpt lat="45.64844" lon="6.8083">
        <ele>1880.7</ele>
        <time>2021-03-27T11:58:40Z</time>
      </trkpt>
      <trkpt lat="45.64844" lon="6.80831">
        <ele>1880.9</ele>
        <time>2021-03-27T11:58:41Z</time>
      </trkpt>
      <trkpt lat="45.64845" lon="6.80832">
        <ele>1881.1</ele>
        <time>2021-03-27T11:58:42Z</time>
      </trkpt>
      <trkpt lat="45.64846" lon="6.80833">
        <ele>1881.3</ele>
        <time>2021-03-27T11:58:43Z</time>
      </trkpt>
      <trkpt lat="45.64846" lon="6.80834">
        <ele>1881.4</ele>
        <time>2021-03-27T11:58:44Z</time>
      </trkpt>
      <trkpt lat="45.64847" lon="6.80835">
        <ele>1881.6</ele>
        <time>2021-03-27T11:58:45Z</time>
      </trkpt>
      <trkpt lat="45.64848" lon="6.80836">
        <ele>1881.8</ele>
        <time>2021-03-27T11:58:46Z</time>
      </trkpt>
      <trkpt lat="45.64848" lon="6.80837">
        <ele>1881.9</ele>
        <time>2021-03-27T11:58:47Z</time>
      </trkpt>
      <trkpt lat="45.64849" lon="6.80838">
        <ele>1882.1</ele>
        <time>2021-03-27T11:58:48Z</time>
      </trkpt>
      <trkpt lat="45.6485" lon="6.80838">
        <ele>1882.2</ele>
        <time>2021-03-27T11:58:49Z</time>
      </trkpt>
      <trkpt lat="45.6485" lon="6.80839">
        <ele>1882.4</ele>
        <time>2021-03-27T11:58:50Z</time>
      </trkpt>
      <trkpt lat="45.64851" lon="6.8084">
        <ele>1882.5</ele>
        <time>2021-03-27T11:58:51Z</time>
      </trkpt>
      <trkpt lat="45.64852" lon="6.80841">
        <ele>1882.7</ele>
        <time>2021-03-27T11:58:52Z</time>
      </trkpt>
      <trkpt lat="45.64852" lon="6.80842">
        <ele>1882.8</ele>
        <time>2021-03-27T11:58:53Z</time>
      </trkpt>
      <trkpt lat="45.64853" lon="6.80843">
        <ele>1883</ele>
        <time>2021-03-27T11:58:54Z</time>
      </trkpt>
      <trkpt lat="45.64853" lon="6.80845">
        <ele>1883.2</ele>
        <time>2021-03-27T11:58:55Z</time>
      </trkpt>
      <trkpt lat="45.64854" lon="6.80846">
        <ele>1883.3</ele>
        <time>2021-03-27T11:58:56Z</time>
      </trkpt>
      <trkpt lat="45.64854" lon="6.80847">
        <ele>1883.5</ele>
        <time>2021-03-27T11:58:57Z</time>
      </trkpt>
      <trkpt lat="45.64855" lon="6.80848">
        <ele>1883.7</ele>
        <time>2021-03-27T11:58:58Z</time>
      </trkpt>
      <trkpt lat="45.64855" lon="6.80849">
        <ele>1883.8</ele>
        <time>2021-03-27T11:58:59Z</time>
      </trkpt>
      <trkpt lat="45.64855" lon="6.8085">
        <ele>1884</ele>
        <time>2021-03-27T11:59:00Z</time>
      </trkpt>
      <trkpt lat="45.64856" lon="6.80851">
        <ele>1884.1</ele>
        <time>2021-03-27T11:59:01Z</time>
      </trkpt>
      <trkpt lat="45.64856" lon="6.80852">
        <ele>1884.2</ele>
        <time>2021-03-27T11:59:02Z</time>
      </trkpt>
      <trkpt lat="45.64857" lon="6.80853">
        <ele>1884.4</ele>
        <time>2021-03-27T11:59:03Z</time>
      </trkpt>
      <trkpt lat="45.64857" lon="6.80854">
        <ele>1884.6</ele>
        <time>2021-03-27T11:59:04Z</time>
      </trkpt>
      <trkpt lat="45.64857" lon="6.80855">
        <ele>1884.7</ele>
        <time>2021-03-27T11:59:05Z</time>
      </trkpt>
      <trkpt lat="45.64858" lon="6.80856">
        <ele>1884.9</ele>
        <time>2021-03-27T11:59:06Z</time>
      </trkpt>
      <trkpt lat="45.64858" lon="6.80857">
        <ele>1885</ele>
        <time>2021-03-27T11:59:07Z</time>
      </trkpt>
      <trkpt lat="45.64859" lon="6.80858">
        <ele>1885.2</ele>
        <time>2021-03-27T11:59:08Z</time>
      </trkpt>
      <trkpt lat="45.64859" lon="6.80859">
        <ele>1885.3</ele>
        <time>2021-03-27T11:59:09Z</time>
      </trkpt>
      <trkpt lat="45.6486" lon="6.8086">
        <ele>1885.5</ele>
        <time>2021-03-27T11:59:10Z</time>
      </trkpt>
      <trkpt lat="45.6486" lon="6.80861">
        <ele>1885.7</ele>
        <time>2021-03-27T11:59:11Z</time>
      </trkpt>
      <trkpt lat="45.64861" lon="6.80862">
        <ele>1885.8</ele>
        <time>2021-03-27T11:59:12Z</time>
      </trkpt>
      <trkpt lat="45.64861" lon="6.80863">
        <ele>1886</ele>
        <time>2021-03-27T11:59:13Z</time>
      </trkpt>
      <trkpt lat="45.64862" lon="6.80864">
        <ele>1886.1</ele>
        <time>2021-03-27T11:59:14Z</time>
      </trkpt>
      <trkpt lat="45.64862" lon="6.80865">
        <ele>1886.3</ele>
        <time>2021-03-27T11:59:15Z</time>
      </trkpt>
      <trkpt lat="45.64863" lon="6.80866">
        <ele>1886.5</ele>
        <time>2021-03-27T11:59:16Z</time>
      </trkpt>
      <trkpt lat="45.64864" lon="6.80867">
        <ele>1886.7</ele>
        <time>2021-03-27T11:59:17Z</time>
      </trkpt>
      <trkpt lat="45.64864" lon="6.80868">
        <ele>1886.9</ele>
        <time>2021-03-27T11:59:18Z</time>
      </trkpt>
      <trkpt lat="45.64865" lon="6.80869">
        <ele>1887</ele>
        <time>2021-03-27T11:59:19Z</time>
      </trkpt>
      <trkpt lat="45.64865" lon="6.8087">
        <ele>1887.2</ele>
        <time>2021-03-27T11:59:20Z</time>
      </trkpt>
      <trkpt lat="45.64865" lon="6.80871">
        <ele>1887.4</ele>
        <time>2021-03-27T11:59:21Z</time>
      </trkpt>
      <trkpt lat="45.64866" lon="6.80872">
        <ele>1887.5</ele>
        <time>2021-03-27T11:59:22Z</time>
      </trkpt>
      <trkpt lat="45.64866" lon="6.80873">
        <ele>1887.7</ele>
        <time>2021-03-27T11:59:23Z</time>
      </trkpt>
      <trkpt lat="45.64867" lon="6.80874">
        <ele>1887.8</ele>
        <time>2021-03-27T11:59:24Z</time>
      </trkpt>
      <trkpt lat="45.64867" lon="6.80875">
        <ele>1888</ele>
        <time>2021-03-27T11:59:25Z</time>
      </trkpt>
      <trkpt lat="45.64868" lon="6.80876">
        <ele>1888.2</ele>
        <time>2021-03-27T11:59:26Z</time>
      </trkpt>
      <trkpt lat="45.64868" lon="6.80877">
        <ele>1888.4</ele>
        <time>2021-03-27T11:59:27Z</time>
      </trkpt>
      <trkpt lat="45.64869" lon="6.80878">
        <ele>1888.5</ele>
        <time>2021-03-27T11:59:28Z</time>
      </trkpt>
      <trkpt lat="45.64869" lon="6.8088">
        <ele>1888.7</ele>
        <time>2021-03-27T11:59:29Z</time>
      </trkpt>
      <trkpt lat="45.6487" lon="6.80881">
        <ele>1888.9</ele>
        <time>2021-03-27T11:59:30Z</time>
      </trkpt>
      <trkpt lat="45.6487" lon="6.80882">
        <ele>1889.1</ele>
        <time>2021-03-27T11:59:31Z</time>
      </trkpt>
      <trkpt lat="45.64871" lon="6.80883">
        <ele>1889.3</ele>
        <time>2021-03-27T11:59:32Z</time>
      </trkpt>
      <trkpt lat="45.64871" lon="6.80884">
        <ele>1889.4</ele>
        <time>2021-03-27T11:59:33Z</time>
      </trkpt>
      <trkpt lat="45.64872" lon="6.80885">
        <ele>1889.5</ele>
        <time>2021-03-27T11:59:34Z</time>
      </trkpt>
      <trkpt lat="45.64872" lon="6.80886">
        <ele>1889.7</ele>
        <time>2021-03-27T11:59:35Z</time>
      </trkpt>
      <trkpt lat="45.64873" lon="6.80887">
        <ele>1889.8</ele>
        <time>2021-03-27T11:59:36Z</time>
      </trkpt>
      <trkpt lat="45.64874" lon="6.80888">
        <ele>1890</ele>
        <time>2021-03-27T11:59:37Z</time>
      </trkpt>
      <trkpt lat="45.64874" lon="6.80889">
        <ele>1890.1</ele>
        <time>2021-03-27T11:59:38Z</time>
      </trkpt>
      <trkpt lat="45.64875" lon="6.8089">
        <ele>1890.3</ele>
        <time>2021-03-27T11:59:39Z</time>
      </trkpt>
      <trkpt lat="45.64875" lon="6.8089">
        <ele>1890.4</ele>
        <time>2021-03-27T11:59:40Z</time>
      </trkpt>
      <trkpt lat="45.64876" lon="6.80891">
        <ele>1890.5</ele>
        <time>2021-03-27T11:59:41Z</time>
      </trkpt>
      <trkpt lat="45.64877" lon="6.80892">
        <ele>1890.7</ele>
        <time>2021-03-27T11:59:42Z</time>
      </trkpt>
      <trkpt lat="45.64877" lon="6.80893">
        <ele>1890.8</ele>
        <time>2021-03-27T11:59:43Z</time>
      </trkpt>
      <trkpt lat="45.64878" lon="6.80894">
        <ele>1890.9</ele>
        <time>2021-03-27T11:59:44Z</time>
      </trkpt>
      <trkpt lat="45.64878" lon="6.80894">
        <ele>1891.1</ele>
        <time>2021-03-27T11:59:45Z</time>
      </trkpt>
      <trkpt lat="45.64879" lon="6.80895">
        <ele>1891.2</ele>
        <time>2021-03-27T11:59:46Z</time>
      </trkpt>
      <trkpt lat="45.6488" lon="6.80896">
        <ele>1891.3</ele>
        <time>2021-03-27T11:59:47Z</time>
      </trkpt>
      <trkpt lat="45.64881" lon="6.80897">
        <ele>1891.5</ele>
        <time>2021-03-27T11:59:48Z</time>
      </trkpt>
      <trkpt lat="45.64882" lon="6.80897">
        <ele>1891.6</ele>
        <time>2021-03-27T11:59:49Z</time>
      </trkpt>
      <trkpt lat="45.64883" lon="6.80898">
        <ele>1891.8</ele>
        <time>2021-03-27T11:59:50Z</time>
      </trkpt>
      <trkpt lat="45.64883" lon="6.80899">
        <ele>1891.9</ele>
        <time>2021-03-27T11:59:51Z</time>
      </trkpt>
      <trkpt lat="45.64885" lon="6.809">
        <ele>1892.2</ele>
        <time>2021-03-27T11:59:52Z</time>
      </trkpt>
      <trkpt lat="45.64885" lon="6.80901">
        <ele>1892.3</ele>
        <time>2021-03-27T11:59:53Z</time>
      </trkpt>
      <trkpt lat="45.64886" lon="6.80902">
        <ele>1892.4</ele>
        <time>2021-03-27T11:59:54Z</time>
      </trkpt>
      <trkpt lat="45.64886" lon="6.80902">
        <ele>1892.5</ele>
        <time>2021-03-27T11:59:55Z</time>
      </trkpt>
      <trkpt lat="45.64887" lon="6.80903">
        <ele>1892.7</ele>
        <time>2021-03-27T11:59:56Z</time>
      </trkpt>
      <trkpt lat="45.64888" lon="6.80903">
        <ele>1892.8</ele>
        <time>2021-03-27T11:59:57Z</time>
      </trkpt>
      <trkpt lat="45.64888" lon="6.80904">
        <ele>1892.9</ele>
        <time>2021-03-27T11:59:58Z</time>
      </trkpt>
      <trkpt lat="45.64889" lon="6.80904">
        <ele>1893</ele>
        <time>2021-03-27T11:59:59Z</time>
      </trkpt>
      <trkpt lat="45.6489" lon="6.80905">
        <ele>1893.2</ele>
        <time>2021-03-27T12:00:00Z</time>
      </trkpt>
      <trkpt lat="45.64891" lon="6.80906">
        <ele>1893.3</ele>
        <time>2021-03-27T12:00:01Z</time>
      </trkpt>
      <trkpt lat="45.64891" lon="6.80906">
        <ele>1893.5</ele>
        <time>2021-03-27T12:00:02Z</time>
      </trkpt>
      <trkpt lat="45.64892" lon="6.80907">
        <ele>1893.6</ele>
        <time>2021-03-27T12:00:03Z</time>
      </trkpt>
      <trkpt lat="45.64893" lon="6.80907">
        <ele>1893.7</ele>
        <time>2021-03-27T12:00:04Z</time>
      </trkpt>
      <trkpt lat="45.64894" lon="6.80908">
        <ele>1893.9</ele>
        <time>2021-03-27T12:00:05Z</time>
      </trkpt>
      <trkpt lat="45.64895" lon="6.80908">
        <ele>1894.1</ele>
        <time>2021-03-27T12:00:06Z</time>
      </trkpt>
      <trkpt lat="45.64896" lon="6.80909">
        <ele>1894.3</ele>
        <time>2021-03-27T12:00:07Z</time>
      </trkpt>
      <trkpt lat="45.64897" lon="6.8091">
        <ele>1894.4</ele>
        <time>2021-03-27T12:00:08Z</time>
      </trkpt>
      <trkpt lat="45.64897" lon="6.8091">
        <ele>1894.6</ele>
        <time>2021-03-27T12:00:09Z</time>
      </trkpt>
      <trkpt lat="45.64898" lon="6.80911">
        <ele>1894.7</ele>
        <time>2021-03-27T12:00:10Z</time>
      </trkpt>
      <trkpt lat="45.64899" lon="6.80911">
        <ele>1894.9</ele>
        <time>2021-03-27T12:00:11Z</time>
      </trkpt>
      <trkpt lat="45.649" lon="6.80912">
        <ele>1895</ele>
        <time>2021-03-27T12:00:12Z</time>
      </trkpt>
      <trkpt lat="45.64901" lon="6.80913">
        <ele>1895.2</ele>
        <time>2021-03-27T12:00:13Z</time>
      </trkpt>
      <trkpt lat="45.64901" lon="6.80913">
        <ele>1895.3</ele>
        <time>2021-03-27T12:00:14Z</time>
      </trkpt>
      <trkpt lat="45.64902" lon="6.80914">
        <ele>1895.5</ele>
        <time>2021-03-27T12:00:15Z</time>
      </trkpt>
      <trkpt lat="45.64903" lon="6.80915">
        <ele>1895.7</ele>
        <time>2021-03-27T12:00:16Z</time>
      </trkpt>
      <trkpt lat="45.64904" lon="6.80915">
        <ele>1895.8</ele>
        <time>2021-03-27T12:00:17Z</time>
      </trkpt>
      <trkpt lat="45.64904" lon="6.80916">
        <ele>1895.9</ele>
        <time>2021-03-27T12:00:18Z</time>
      </trkpt>
      <trkpt lat="45.64905" lon="6.80916">
        <ele>1896</ele>
        <time>2021-03-27T12:00:19Z</time>
      </trkpt>
      <trkpt lat="45.64906" lon="6.80917">
        <ele>1896.2</ele>
        <time>2021-03-27T12:00:20Z</time>
      </trkpt>
      <trkpt lat="45.64907" lon="6.80917">
        <ele>1896.3</ele>
        <time>2021-03-27T12:00:21Z</time>
      </trkpt>
      <trkpt lat="45.64907" lon="6.80918">
        <ele>1896.5</ele>
        <time>2021-03-27T12:00:22Z</time>
      </trkpt>
      <trkpt lat="45.64908" lon="6.80919">
        <ele>1896.7</ele>
        <time>2021-03-27T12:00:23Z</time>
      </trkpt>
      <trkpt lat="45.64909" lon="6.80919">
        <ele>1896.8</ele>
        <time>2021-03-27T12:00:24Z</time>
      </trkpt>
      <trkpt lat="45.6491" lon="6.8092">
        <ele>1897</ele>
        <time>2021-03-27T12:00:25Z</time>
      </trkpt>
      <trkpt lat="45.64911" lon="6.80921">
        <ele>1897.1</ele>
        <time>2021-03-27T12:00:26Z</time>
      </trkpt>
      <trkpt lat="45.64912" lon="6.80921">
        <ele>1897.3</ele>
        <time>2021-03-27T12:00:27Z</time>
      </trkpt>
      <trkpt lat="45.64912" lon="6.80922">
        <ele>1897.4</ele>
        <time>2021-03-27T12:00:28Z</time>
      </trkpt>
      <trkpt lat="45.64913" lon="6.80923">
        <ele>1897.5</ele>
        <time>2021-03-27T12:00:29Z</time>
      </trkpt>
      <trkpt lat="45.64914" lon="6.80924">
        <ele>1897.6</ele>
        <time>2021-03-27T12:00:30Z</time>
      </trkpt>
      <trkpt lat="45.64914" lon="6.80924">
        <ele>1897.8</ele>
        <time>2021-03-27T12:00:31Z</time>
      </trkpt>
      <trkpt lat="45.64915" lon="6.80925">
        <ele>1897.9</ele>
        <time>2021-03-27T12:00:32Z</time>
      </trkpt>
      <trkpt lat="45.64916" lon="6.80926">
        <ele>1898</ele>
        <time>2021-03-27T12:00:33Z</time>
      </trkpt>
      <trkpt lat="45.64916" lon="6.80926">
        <ele>1898.1</ele>
        <time>2021-03-27T12:00:34Z</time>
      </trkpt>
      <trkpt lat="45.64917" lon="6.80927">
        <ele>1898.2</ele>
        <time>2021-03-27T12:00:35Z</time>
      </trkpt>
      <trkpt lat="45.64917" lon="6.80927">
        <ele>1898.3</ele>
        <time>2021-03-27T12:00:36Z</time>
      </trkpt>
      <trkpt lat="45.64918" lon="6.80928">
        <ele>1898.4</ele>
        <time>2021-03-27T12:00:37Z</time>
      </trkpt>
      <trkpt lat="45.64918" lon="6.80928">
        <ele>1898.5</ele>
        <time>2021-03-27T12:00:38Z</time>
      </trkpt>
      <trkpt lat="45.64919" lon="6.80929">
        <ele>1898.6</ele>
        <time>2021-03-27T12:00:39Z</time>
      </trkpt>
      <trkpt lat="45.6492" lon="6.80929">
        <ele>1898.7</ele>
        <time>2021-03-27T12:00:40Z</time>
      </trkpt>
      <trkpt lat="45.6492" lon="6.8093">
        <ele>1898.8</ele>
        <time>2021-03-27T12:00:41Z</time>
      </trkpt>
      <trkpt lat="45.64921" lon="6.8093">
        <ele>1898.9</ele>
        <time>2021-03-27T12:00:42Z</time>
      </trkpt>
      <trkpt lat="45.64921" lon="6.8093">
        <ele>1899</ele>
        <time>2021-03-27T12:00:43Z</time>
      </trkpt>
      <trkpt lat="45.64922" lon="6.80931">
        <ele>1899.1</ele>
        <time>2021-03-27T12:00:44Z</time>
      </trkpt>
      <trkpt lat="45.64923" lon="6.80931">
        <ele>1899.2</ele>
        <time>2021-03-27T12:00:45Z</time>
      </trkpt>
      <trkpt lat="45.64924" lon="6.80932">
        <ele>1899.3</ele>
        <time>2021-03-27T12:00:46Z</time>
      </trkpt>
      <trkpt lat="45.64924" lon="6.80932">
        <ele>1899.4</ele>
        <time>2021-03-27T12:00:47Z</time>
      </trkpt>
      <trkpt lat="45.64925" lon="6.80933">
        <ele>1899.5</ele>
        <time>2021-03-27T12:00:48Z</time>
      </trkpt>
      <trkpt lat="45.64925" lon="6.80933">
        <ele>1899.5</ele>
        <time>2021-03-27T12:00:49Z</time>
      </trkpt>
      <trkpt lat="45.64925" lon="6.80933">
        <ele>1899.6</ele>
        <time>2021-03-27T12:00:50Z</time>
      </trkpt>
      <trkpt lat="45.64926" lon="6.80934">
        <ele>1899.6</ele>
        <time>2021-03-27T12:00:51Z</time>
      </trkpt>
      <trkpt lat="45.64926" lon="6.80934">
        <ele>1899.7</ele>
        <time>2021-03-27T12:00:52Z</time>
      </trkpt>
      <trkpt lat="45.64926" lon="6.80935">
        <ele>1899.7</ele>
        <time>2021-03-27T12:00:53Z</time>
      </trkpt>
      <trkpt lat="45.64927" lon="6.80935">
        <ele>1899.8</ele>
        <time>2021-03-27T12:00:54Z</time>
      </trkpt>
      <trkpt lat="45.64927" lon="6.80935">
        <ele>1899.8</ele>
        <time>2021-03-27T12:00:55Z</time>
      </trkpt>
      <trkpt lat="45.64927" lon="6.80936">
        <ele>1899.9</ele>
        <time>2021-03-27T12:00:56Z</time>
      </trkpt>
      <trkpt lat="45.64928" lon="6.80936">
        <ele>1899.9</ele>
        <time>2021-03-27T12:00:57Z</time>
      </trkpt>
      <trkpt lat="45.64928" lon="6.80937">
        <ele>1900</ele>
        <time>2021-03-27T12:00:58Z</time>
      </trkpt>
      <trkpt lat="45.64928" lon="6.80937">
        <ele>1900</ele>
        <time>2021-03-27T12:00:59Z</time>
      </trkpt>
      <trkpt lat="45.64928" lon="6.80938">
        <ele>1900.1</ele>
        <time>2021-03-27T12:01:00Z</time>
      </trkpt>
      <trkpt lat="45.64929" lon="6.80938">
        <ele>1900.1</ele>
        <time>2021-03-27T12:01:01Z</time>
      </trkpt>
      <trkpt lat="45.64929" lon="6.80938">
        <ele>1900.2</ele>
        <time>2021-03-27T12:06:13Z</time>
      </trkpt>
      <trkpt lat="45.64929" lon="6.80939">
        <ele>1900.2</ele>
        <time>2021-03-27T12:06:14Z</time>
      </trkpt>
      <trkpt lat="45.6493" lon="6.80939">
        <ele>1900.3</ele>
        <time>2021-03-27T12:06:15Z</time>
      </trkpt>
      <trkpt lat="45.6493" lon="6.8094">
        <ele>1900.3</ele>
        <time>2021-03-27T12:06:16Z</time>
      </trkpt>
      <trkpt lat="45.64931" lon="6.8094">
        <ele>1900.4</ele>
        <time>2021-03-27T12:06:17Z</time>
      </trkpt>
      <trkpt lat="45.64931" lon="6.80941">
        <ele>1900.5</ele>
        <time>2021-03-27T12:06:18Z</time>
      </trkpt>
      <trkpt lat="45.64932" lon="6.80942">
        <ele>1900.6</ele>
        <time>2021-03-27T12:06:19Z</time>
      </trkpt>
      <trkpt lat="45.64933" lon="6.80943">
        <ele>1900.7</ele>
        <time>2021-03-27T12:06:20Z</time>
      </trkpt>
      <trkpt lat="45.64933" lon="6.80944">
        <ele>1900.8</ele>
        <time>2021-03-27T12:06:21Z</time>
      </trkpt>
      <trkpt lat="45.64933" lon="6.80944">
        <ele>1900.8</ele>
        <time>2021-03-27T12:06:22Z</time>
      </trkpt>
      <trkpt lat="45.64935" lon="6.80945">
        <ele>1901</ele>
        <time>2021-03-27T12:06:23Z</time>
      </trkpt>
      <trkpt lat="45.64935" lon="6.80945">
        <ele>1901</ele>
        <time>2021-03-27T12:06:24Z</time>
      </trkpt>
      <trkpt lat="45.64936" lon="6.80945">
        <ele>1901.1</ele>
        <time>2021-03-27T12:06:25Z</time>
      </trkpt>
      <trkpt lat="45.64937" lon="6.80946">
        <ele>1901.2</ele>
        <time>2021-03-27T12:06:26Z</time>
      </trkpt>
      <trkpt lat="45.64938" lon="6.80946">
        <ele>1901.3</ele>
        <time>2021-03-27T12:06:27Z</time>
      </trkpt>
      <trkpt lat="45.64938" lon="6.80946">
        <ele>1901.3</ele>
        <time>2021-03-27T12:06:28Z</time>
      </trkpt>
      <trkpt lat="45.64939" lon="6.80947">
        <ele>1901.4</ele>
        <time>2021-03-27T12:06:29Z</time>
      </trkpt>
      <trkpt lat="45.6494" lon="6.80947">
        <ele>1901.5</ele>
        <time>2021-03-27T12:06:30Z</time>
      </trkpt>
      <trkpt lat="45.6494" lon="6.80948">
        <ele>1901.6</ele>
        <time>2021-03-27T12:06:31Z</time>
      </trkpt>
      <trkpt lat="45.64941" lon="6.80948">
        <ele>1901.6</ele>
        <time>2021-03-27T12:06:32Z</time>
      </trkpt>
      <trkpt lat="45.64941" lon="6.80948">
        <ele>1901.7</ele>
        <time>2021-03-27T12:06:33Z</time>
      </trkpt>
      <trkpt lat="45.64942" lon="6.80949">
        <ele>1901.8</ele>
        <time>2021-03-27T12:06:34Z</time>
      </trkpt>
      <trkpt lat="45.64943" lon="6.8095">
        <ele>1901.9</ele>
        <time>2021-03-27T12:06:35Z</time>
      </trkpt>
      <trkpt lat="45.64944" lon="6.8095">
        <ele>1902</ele>
        <time>2021-03-27T12:06:36Z</time>
      </trkpt>
      <trkpt lat="45.64945" lon="6.80951">
        <ele>1902.1</ele>
        <time>2021-03-27T12:06:37Z</time>
      </trkpt>
      <trkpt lat="45.64946" lon="6.80952">
        <ele>1902.2</ele>
        <time>2021-03-27T12:06:38Z</time>
      </trkpt>
      <trkpt lat="45.64946" lon="6.80953">
        <ele>1902.4</ele>
        <time>2021-03-27T12:06:39Z</time>
      </trkpt>
      <trkpt lat="45.64947" lon="6.80954">
        <ele>1902.4</ele>
        <time>2021-03-27T12:06:40Z</time>
      </trkpt>
      <trkpt lat="45.64948" lon="6.80954">
        <ele>1902.5</ele>
        <time>2021-03-27T12:06:41Z</time>
      </trkpt>
      <trkpt lat="45.64948" lon="6.80955">
        <ele>1902.6</ele>
        <time>2021-03-27T12:06:42Z</time>
      </trkpt>
      <trkpt lat="45.64949" lon="6.80957">
        <ele>1902.8</ele>
        <time>2021-03-27T12:06:43Z</time>
      </trkpt>
      <trkpt lat="45.6495" lon="6.80958">
        <ele>1902.9</ele>
        <time>2021-03-27T12:06:44Z</time>
      </trkpt>
      <trkpt lat="45.6495" lon="6.80959">
        <ele>1903</ele>
        <time>2021-03-27T12:06:45Z</time>
      </trkpt>
      <trkpt lat="45.64951" lon="6.8096">
        <ele>1903.1</ele>
        <time>2021-03-27T12:06:46Z</time>
      </trkpt>
      <trkpt lat="45.64952" lon="6.80962">
        <ele>1903.3</ele>
        <time>2021-03-27T12:06:47Z</time>
      </trkpt>
      <trkpt lat="45.64952" lon="6.80963">
        <ele>1903.4</ele>
        <time>2021-03-27T12:06:48Z</time>
      </trkpt>
      <trkpt lat="45.64953" lon="6.80964">
        <ele>1903.5</ele>
        <time>2021-03-27T12:06:49Z</time>
      </trkpt>
      <trkpt lat="45.64954" lon="6.80965">
        <ele>1903.7</ele>
        <time>2021-03-27T12:06:50Z</time>
      </trkpt>
      <trkpt lat="45.64954" lon="6.80966">
        <ele>1903.8</ele>
        <time>2021-03-27T12:06:51Z</time>
      </trkpt>
      <trkpt lat="45.64955" lon="6.80967">
        <ele>1903.9</ele>
        <time>2021-03-27T12:06:52Z</time>
      </trkpt>
      <trkpt lat="45.64955" lon="6.80968">
        <ele>1904</ele>
        <time>2021-03-27T12:06:53Z</time>
      </trkpt>
      <trkpt lat="45.64956" lon="6.80969">
        <ele>1904.1</ele>
        <time>2021-03-27T12:06:54Z</time>
      </trkpt>
      <trkpt lat="45.64957" lon="6.80969">
        <ele>1904.2</ele>
        <time>2021-03-27T12:06:55Z</time>
      </trkpt>
      <trkpt lat="45.64957" lon="6.8097">
        <ele>1904.2</ele>
        <time>2021-03-27T12:06:56Z</time>
      </trkpt>
      <trkpt lat="45.64957" lon="6.80971">
        <ele>1904.3</ele>
        <time>2021-03-27T12:06:57Z</time>
      </trkpt>
      <trkpt lat="45.64958" lon="6.80971">
        <ele>1904.4</ele>
        <time>2021-03-27T12:06:58Z</time>
      </trkpt>
      <trkpt lat="45.64958" lon="6.80971">
        <ele>1904.4</ele>
        <time>2021-03-27T12:06:59Z</time>
      </trkpt>
      <trkpt lat="45.64958" lon="6.80971">
        <ele>1904.4</ele>
        <time>2021-03-27T12:07:00Z</time>
      </trkpt>
      <trkpt lat="45.64958" lon="6.80971">
        <ele>1904.4</ele>
        <time>2021-03-27T12:07:01Z</time>
      </trkpt>
      <trkpt lat="45.64958" lon="6.80971">
        <ele>1904.4</ele>
        <time>2021-03-27T12:07:02Z</time>
      </trkpt>
      <trkpt lat="45.64958" lon="6.80971">
        <ele>1904.4</ele>
        <time>2021-03-27T12:07:03Z</time>
      </trkpt>
      <trkpt lat="45.64958" lon="6.80971">
        <ele>1904.4</ele>
        <time>2021-03-27T12:07:04Z</time>
      </trkpt>
      <trkpt lat="45.64958" lon="6.80974">
        <ele>1904.6</ele>
        <time>2021-03-27T12:07:05Z</time>
      </trkpt>
      <trkpt lat="45.64959" lon="6.80975">
        <ele>1904.7</ele>
        <time>2021-03-27T12:07:06Z</time>
      </trkpt>
      <trkpt lat="45.6496" lon="6.80975">
        <ele>1904.8</ele>
        <time>2021-03-27T12:07:07Z</time>
      </trkpt>
      <trkpt lat="45.6496" lon="6.80976">
        <ele>1905</ele>
        <time>2021-03-27T12:07:08Z</time>
      </trkpt>
      <trkpt lat="45.64961" lon="6.80977">
        <ele>1905.1</ele>
        <time>2021-03-27T12:07:09Z</time>
      </trkpt>
      <trkpt lat="45.64962" lon="6.80978">
        <ele>1905.2</ele>
        <time>2021-03-27T12:07:10Z</time>
      </trkpt>
      <trkpt lat="45.64962" lon="6.80979">
        <ele>1905.3</ele>
        <time>2021-03-27T12:07:11Z</time>
      </trkpt>
      <trkpt lat="45.64963" lon="6.8098">
        <ele>1905.5</ele>
        <time>2021-03-27T12:07:12Z</time>
      </trkpt>
      <trkpt lat="45.64964" lon="6.8098">
        <ele>1905.6</ele>
        <time>2021-03-27T12:07:13Z</time>
      </trkpt>
      <trkpt lat="45.64964" lon="6.80981">
        <ele>1905.7</ele>
        <time>2021-03-27T12:07:14Z</time>
      </trkpt>
      <trkpt lat="45.64964" lon="6.80982">
        <ele>1905.7</ele>
        <time>2021-03-27T12:07:15Z</time>
      </trkpt>
      <trkpt lat="45.64965" lon="6.80982">
        <ele>1905.8</ele>
        <time>2021-03-27T12:07:16Z</time>
      </trkpt>
      <trkpt lat="45.64965" lon="6.80983">
        <ele>1905.9</ele>
        <time>2021-03-27T12:07:17Z</time>
      </trkpt>
      <trkpt lat="45.64965" lon="6.80985">
        <ele>1906.1</ele>
        <time>2021-03-27T12:07:18Z</time>
      </trkpt>
      <trkpt lat="45.64965" lon="6.80985">
        <ele>1906.2</ele>
        <time>2021-03-27T12:07:19Z</time>
      </trkpt>
      <trkpt lat="45.64966" lon="6.80986">
        <ele>1906.2</ele>
        <time>2021-03-27T12:07:20Z</time>
      </trkpt>
      <trkpt lat="45.64966" lon="6.80987">
        <ele>1906.3</ele>
        <time>2021-03-27T12:07:21Z</time>
      </trkpt>
      <trkpt lat="45.64966" lon="6.80987">
        <ele>1906.4</ele>
        <time>2021-03-27T12:07:22Z</time>
      </trkpt>
      <trkpt lat="45.64966" lon="6.80988">
        <ele>1906.5</ele>
        <time>2021-03-27T12:07:23Z</time>
      </trkpt>
      <trkpt lat="45.64966" lon="6.80989">
        <ele>1906.6</ele>
        <time>2021-03-27T12:07:24Z</time>
      </trkpt>
      <trkpt lat="45.64966" lon="6.80989">
        <ele>1906.6</ele>
        <time>2021-03-27T12:07:25Z</time>
      </trkpt>
      <trkpt lat="45.64966" lon="6.8099">
        <ele>1906.7</ele>
        <time>2021-03-27T12:07:26Z</time>
      </trkpt>
      <trkpt lat="45.64967" lon="6.80991">
        <ele>1906.8</ele>
        <time>2021-03-27T12:07:27Z</time>
      </trkpt>
      <trkpt lat="45.64967" lon="6.80992">
        <ele>1906.9</ele>
        <time>2021-03-27T12:07:28Z</time>
      </trkpt>
      <trkpt lat="45.64967" lon="6.80992">
        <ele>1907</ele>
        <time>2021-03-27T12:07:29Z</time>
      </trkpt>
      <trkpt lat="45.64967" lon="6.80993">
        <ele>1907.1</ele>
        <time>2021-03-27T12:07:58Z</time>
      </trkpt>
      <trkpt lat="45.64967" lon="6.80994">
        <ele>1907.1</ele>
        <time>2021-03-27T12:07:59Z</time>
      </trkpt>
      <trkpt lat="45.64967" lon="6.80994">
        <ele>1907.2</ele>
        <time>2021-03-27T12:08:00Z</time>
      </trkpt>
      <trkpt lat="45.64969" lon="6.80995">
        <ele>1907.5</ele>
        <time>2021-03-27T12:08:01Z</time>
      </trkpt>
      <trkpt lat="45.6497" lon="6.80995">
        <ele>1907.7</ele>
        <time>2021-03-27T12:08:02Z</time>
      </trkpt>
      <trkpt lat="45.64971" lon="6.80995">
        <ele>1907.9</ele>
        <time>2021-03-27T12:08:03Z</time>
      </trkpt>
      <trkpt lat="45.64973" lon="6.80996">
        <ele>1908.2</ele>
        <time>2021-03-27T12:08:04Z</time>
      </trkpt>
      <trkpt lat="45.64974" lon="6.80995">
        <ele>1908.4</ele>
        <time>2021-03-27T12:08:05Z</time>
      </trkpt>
      <trkpt lat="45.64975" lon="6.80995">
        <ele>1908.6</ele>
        <time>2021-03-27T12:08:06Z</time>
      </trkpt>
      <trkpt lat="45.64976" lon="6.80996">
        <ele>1908.8</ele>
        <time>2021-03-27T12:08:07Z</time>
      </trkpt>
      <trkpt lat="45.64977" lon="6.80996">
        <ele>1909</ele>
        <time>2021-03-27T12:08:08Z</time>
      </trkpt>
      <trkpt lat="45.64978" lon="6.80996">
        <ele>1909.1</ele>
        <time>2021-03-27T12:08:09Z</time>
      </trkpt>
      <trkpt lat="45.64979" lon="6.80996">
        <ele>1909.3</ele>
        <time>2021-03-27T12:08:10Z</time>
      </trkpt>
      <trkpt lat="45.64979" lon="6.80997">
        <ele>1909.4</ele>
        <time>2021-03-27T12:08:11Z</time>
      </trkpt>
      <trkpt lat="45.6498" lon="6.80997">
        <ele>1909.6</ele>
        <time>2021-03-27T12:08:12Z</time>
      </trkpt>
      <trkpt lat="45.64981" lon="6.80997">
        <ele>1909.7</ele>
        <time>2021-03-27T12:08:13Z</time>
      </trkpt>
      <trkpt lat="45.64981" lon="6.80996">
        <ele>1909.8</ele>
        <time>2021-03-27T12:08:14Z</time>
      </trkpt>
      <trkpt lat="45.64982" lon="6.80996">
        <ele>1910</ele>
        <time>2021-03-27T12:08:15Z</time>
      </trkpt>
      <trkpt lat="45.64983" lon="6.80995">
        <ele>1910.2</ele>
        <time>2021-03-27T12:08:16Z</time>
      </trkpt>
      <trkpt lat="45.64984" lon="6.80994">
        <ele>1910.4</ele>
        <time>2021-03-27T12:08:17Z</time>
      </trkpt>
      <trkpt lat="45.64985" lon="6.80993">
        <ele>1910.7</ele>
        <time>2021-03-27T12:08:18Z</time>
      </trkpt>
      <trkpt lat="45.64986" lon="6.80992">
        <ele>1910.7</ele>
        <time>2021-03-27T12:08:19Z</time>
      </trkpt>
      <trkpt lat="45.64987" lon="6.80991">
        <ele>1910.7</ele>
        <time>2021-03-27T12:08:20Z</time>
      </trkpt>
      <trkpt lat="45.64987" lon="6.80991">
        <ele>1911.3</ele>
        <time>2021-03-27T12:08:21Z</time>
      </trkpt>
      <trkpt lat="45.64988" lon="6.8099">
        <ele>1911.3</ele>
        <time>2021-03-27T12:08:22Z</time>
      </trkpt>
      <trkpt lat="45.64989" lon="6.8099">
        <ele>1911.3</ele>
        <time>2021-03-27T12:08:23Z</time>
      </trkpt>
      <trkpt lat="45.6499" lon="6.80989">
        <ele>1911.1</ele>
        <time>2021-03-27T12:08:24Z</time>
      </trkpt>
      <trkpt lat="45.64992" lon="6.80987">
        <ele>1911.5</ele>
        <time>2021-03-27T12:08:25Z</time>
      </trkpt>
      <trkpt lat="45.64992" lon="6.80987">
        <ele>1911.5</ele>
        <time>2021-03-27T12:08:26Z</time>
      </trkpt>
      <trkpt lat="45.64993" lon="6.80986">
        <ele>1912.1</ele>
        <time>2021-03-27T12:08:27Z</time>
      </trkpt>
      <trkpt lat="45.64994" lon="6.80986">
        <ele>1912.1</ele>
        <time>2021-03-27T12:08:28Z</time>
      </trkpt>
      <trkpt lat="45.64995" lon="6.80986">
        <ele>1912.1</ele>
        <time>2021-03-27T12:08:29Z</time>
      </trkpt>
      <trkpt lat="45.64996" lon="6.80987">
        <ele>1912.8</ele>
        <time>2021-03-27T12:08:30Z</time>
      </trkpt>
      <trkpt lat="45.64997" lon="6.80987">
        <ele>1912.7</ele>
        <time>2021-03-27T12:08:31Z</time>
      </trkpt>
      <trkpt lat="45.64998" lon="6.80988">
        <ele>1912.7</ele>
        <time>2021-03-27T12:08:32Z</time>
      </trkpt>
      <trkpt lat="45.64999" lon="6.80989">
        <ele>1912.7</ele>
        <time>2021-03-27T12:08:33Z</time>
      </trkpt>
      <trkpt lat="45.64999" lon="6.8099">
        <ele>1913.6</ele>
        <time>2021-03-27T12:08:34Z</time>
      </trkpt>
      <trkpt lat="45.65" lon="6.80991">
        <ele>1913.6</ele>
        <time>2021-03-27T12:08:35Z</time>
      </trkpt>
      <trkpt lat="45.65001" lon="6.80991">
        <ele>1913.6</ele>
        <time>2021-03-27T12:08:36Z</time>
      </trkpt>
      <trkpt lat="45.65002" lon="6.80992">
        <ele>1913.6</ele>
        <time>2021-03-27T12:08:37Z</time>
      </trkpt>
      <trkpt lat="45.65002" lon="6.80993">
        <ele>1914.2</ele>
        <time>2021-03-27T12:08:38Z</time>
      </trkpt>
      <trkpt lat="45.65003" lon="6.80994">
        <ele>1914.5</ele>
        <time>2021-03-27T12:08:39Z</time>
      </trkpt>
      <trkpt lat="45.65004" lon="6.80995">
        <ele>1914.4</ele>
        <time>2021-03-27T12:08:40Z</time>
      </trkpt>
      <trkpt lat="45.65005" lon="6.80996">
        <ele>1914.4</ele>
        <time>2021-03-27T12:08:41Z</time>
      </trkpt>
      <trkpt lat="45.65006" lon="6.80997">
        <ele>1915.2</ele>
        <time>2021-03-27T12:08:42Z</time>
      </trkpt>
      <trkpt lat="45.65006" lon="6.80998">
        <ele>1915.5</ele>
        <time>2021-03-27T12:08:43Z</time>
      </trkpt>
      <trkpt lat="45.65007" lon="6.80999">
        <ele>1915.5</ele>
        <time>2021-03-27T12:08:44Z</time>
      </trkpt>
      <trkpt lat="45.65008" lon="6.81">
        <ele>1915.5</ele>
        <time>2021-03-27T12:08:45Z</time>
      </trkpt>
      <trkpt lat="45.65008" lon="6.81001">
        <ele>1916.2</ele>
        <time>2021-03-27T12:08:46Z</time>
      </trkpt>
      <trkpt lat="45.65009" lon="6.81002">
        <ele>1916.2</ele>
        <time>2021-03-27T12:08:47Z</time>
      </trkpt>
      <trkpt lat="45.6501" lon="6.81003">
        <ele>1916.4</ele>
        <time>2021-03-27T12:08:48Z</time>
      </trkpt>
      <trkpt lat="45.6501" lon="6.81004">
        <ele>1916.4</ele>
        <time>2021-03-27T12:08:49Z</time>
      </trkpt>
      <trkpt lat="45.65011" lon="6.81005">
        <ele>1917.1</ele>
        <time>2021-03-27T12:08:50Z</time>
      </trkpt>
      <trkpt lat="45.65012" lon="6.81006">
        <ele>1917.1</ele>
        <time>2021-03-27T12:08:51Z</time>
      </trkpt>
      <trkpt lat="45.65012" lon="6.81006">
        <ele>1917.1</ele>
        <time>2021-03-27T12:08:52Z</time>
      </trkpt>
      <trkpt lat="45.65013" lon="6.81007">
        <ele>1917.4</ele>
        <time>2021-03-27T12:08:53Z</time>
      </trkpt>
      <trkpt lat="45.65014" lon="6.81008">
        <ele>1917.4</ele>
        <time>2021-03-27T12:08:54Z</time>
      </trkpt>
      <trkpt lat="45.65014" lon="6.81008">
        <ele>1918.1</ele>
        <time>2021-03-27T12:08:55Z</time>
      </trkpt>
      <trkpt lat="45.65015" lon="6.81009">
        <ele>1918</ele>
        <time>2021-03-27T12:08:56Z</time>
      </trkpt>
      <trkpt lat="45.65016" lon="6.8101">
        <ele>1918</ele>
        <time>2021-03-27T12:08:57Z</time>
      </trkpt>
      <trkpt lat="45.65017" lon="6.8101">
        <ele>1918</ele>
        <time>2021-03-27T12:08:58Z</time>
      </trkpt>
      <trkpt lat="45.65017" lon="6.81011">
        <ele>1919</ele>
        <time>2021-03-27T12:08:59Z</time>
      </trkpt>
      <trkpt lat="45.65018" lon="6.81012">
        <ele>1919</ele>
        <time>2021-03-27T12:09:00Z</time>
      </trkpt>
      <trkpt lat="45.65019" lon="6.81012">
        <ele>1919</ele>
        <time>2021-03-27T12:09:01Z</time>
      </trkpt>
      <trkpt lat="45.65019" lon="6.81012">
        <ele>1919</ele>
        <time>2021-03-27T12:09:02Z</time>
      </trkpt>
      <trkpt lat="45.6502" lon="6.81012">
        <ele>1919.6</ele>
        <time>2021-03-27T12:09:03Z</time>
      </trkpt>
      <trkpt lat="45.65021" lon="6.81012">
        <ele>1919.6</ele>
        <time>2021-03-27T12:09:04Z</time>
      </trkpt>
      <trkpt lat="45.65022" lon="6.81013">
        <ele>1919.6</ele>
        <time>2021-03-27T12:09:05Z</time>
      </trkpt>
      <trkpt lat="45.65022" lon="6.81013">
        <ele>1919.6</ele>
        <time>2021-03-27T12:09:06Z</time>
      </trkpt>
      <trkpt lat="45.65023" lon="6.81014">
        <ele>1919.5</ele>
        <time>2021-03-27T12:09:07Z</time>
      </trkpt>
      <trkpt lat="45.65023" lon="6.81015">
        <ele>1920.3</ele>
        <time>2021-03-27T12:09:08Z</time>
      </trkpt>
      <trkpt lat="45.65024" lon="6.81016">
        <ele>1920.6</ele>
        <time>2021-03-27T12:09:09Z</time>
      </trkpt>
      <trkpt lat="45.65024" lon="6.81017">
        <ele>1920.6</ele>
        <time>2021-03-27T12:09:10Z</time>
      </trkpt>
      <trkpt lat="45.65024" lon="6.81018">
        <ele>1920.5</ele>
        <time>2021-03-27T12:09:11Z</time>
      </trkpt>
      <trkpt lat="45.65025" lon="6.81019">
        <ele>1920.5</ele>
        <time>2021-03-27T12:09:12Z</time>
      </trkpt>
      <trkpt lat="45.65025" lon="6.8102">
        <ele>1920.7</ele>
        <time>2021-03-27T12:09:13Z</time>
      </trkpt>
      <trkpt lat="45.65026" lon="6.81021">
        <ele>1920.7</ele>
        <time>2021-03-27T12:09:14Z</time>
      </trkpt>
      <trkpt lat="45.65026" lon="6.81022">
        <ele>1920.7</ele>
        <time>2021-03-27T12:09:15Z</time>
      </trkpt>
      <trkpt lat="45.65026" lon="6.81023">
        <ele>1921.5</ele>
        <time>2021-03-27T12:09:16Z</time>
      </trkpt>
      <trkpt lat="45.65026" lon="6.81024">
        <ele>1921.7</ele>
        <time>2021-03-27T12:09:17Z</time>
      </trkpt>
      <trkpt lat="45.65027" lon="6.81026">
        <ele>1921.7</ele>
        <time>2021-03-27T12:09:18Z</time>
      </trkpt>
      <trkpt lat="45.65027" lon="6.81027">
        <ele>1921.7</ele>
        <time>2021-03-27T12:09:19Z</time>
      </trkpt>
      <trkpt lat="45.65027" lon="6.81028">
        <ele>1921.9</ele>
        <time>2021-03-27T12:09:20Z</time>
      </trkpt>
      <trkpt lat="45.65027" lon="6.81029">
        <ele>1921.8</ele>
        <time>2021-03-27T12:09:21Z</time>
      </trkpt>
      <trkpt lat="45.65026" lon="6.8103">
        <ele>1921.8</ele>
        <time>2021-03-27T12:09:22Z</time>
      </trkpt>
      <trkpt lat="45.65026" lon="6.81031">
        <ele>1921.8</ele>
        <time>2021-03-27T12:09:23Z</time>
      </trkpt>
      <trkpt lat="45.65026" lon="6.81033">
        <ele>1922.1</ele>
        <time>2021-03-27T12:09:24Z</time>
      </trkpt>
      <trkpt lat="45.65026" lon="6.81034">
        <ele>1922.1</ele>
        <time>2021-03-27T12:09:25Z</time>
      </trkpt>
      <trkpt lat="45.65026" lon="6.81035">
        <ele>1922.1</ele>
        <time>2021-03-27T12:09:26Z</time>
      </trkpt>
      <trkpt lat="45.65026" lon="6.81037">
        <ele>1921.4</ele>
        <time>2021-03-27T12:09:27Z</time>
      </trkpt>
      <trkpt lat="45.65026" lon="6.81038">
        <ele>1921.4</ele>
        <time>2021-03-27T12:09:28Z</time>
      </trkpt>
      <trkpt lat="45.65025" lon="6.81039">
        <ele>1921.4</ele>
        <time>2021-03-27T12:09:29Z</time>
      </trkpt>
      <trkpt lat="45.65025" lon="6.81041">
        <ele>1921.4</ele>
        <time>2021-03-27T12:09:30Z</time>
      </trkpt>
      <trkpt lat="45.65025" lon="6.81042">
        <ele>1921.6</ele>
        <time>2021-03-27T12:09:31Z</time>
      </trkpt>
      <trkpt lat="45.65025" lon="6.81043">
        <ele>1921.6</ele>
        <time>2021-03-27T12:09:32Z</time>
      </trkpt>
      <trkpt lat="45.65025" lon="6.81044">
        <ele>1921.6</ele>
        <time>2021-03-27T12:09:33Z</time>
      </trkpt>
      <trkpt lat="45.65025" lon="6.81045">
        <ele>1921.5</ele>
        <time>2021-03-27T12:09:34Z</time>
      </trkpt>
      <trkpt lat="45.65025" lon="6.81045">
        <ele>1921.7</ele>
        <time>2021-03-27T12:09:35Z</time>
      </trkpt>
      <trkpt lat="45.65026" lon="6.81046">
        <ele>1921.7</ele>
        <time>2021-03-27T12:09:36Z</time>
      </trkpt>
      <trkpt lat="45.65026" lon="6.81047">
        <ele>1921.7</ele>
        <time>2021-03-27T12:09:37Z</time>
      </trkpt>
      <trkpt lat="45.65026" lon="6.81048">
        <ele>1922.5</ele>
        <time>2021-03-27T12:09:38Z</time>
      </trkpt>
      <trkpt lat="45.65026" lon="6.81049">
        <ele>1922.5</ele>
        <time>2021-03-27T12:09:39Z</time>
      </trkpt>
      <trkpt lat="45.65027" lon="6.8105">
        <ele>1922.8</ele>
        <time>2021-03-27T12:09:40Z</time>
      </trkpt>
      <trkpt lat="45.65027" lon="6.8105">
        <ele>1922.8</ele>
        <time>2021-03-27T12:09:41Z</time>
      </trkpt>
      <trkpt lat="45.65028" lon="6.8105">
        <ele>1922.7</ele>
        <time>2021-03-27T12:09:42Z</time>
      </trkpt>
      <trkpt lat="45.65029" lon="6.8105">
        <ele>1922.7</ele>
        <time>2021-03-27T12:09:43Z</time>
      </trkpt>
      <trkpt lat="45.65029" lon="6.81049">
        <ele>1923.3</ele>
        <time>2021-03-27T12:09:44Z</time>
      </trkpt>
      <trkpt lat="45.6503" lon="6.81049">
        <ele>1923.3</ele>
        <time>2021-03-27T12:09:45Z</time>
      </trkpt>
      <trkpt lat="45.65031" lon="6.81048">
        <ele>1923.3</ele>
        <time>2021-03-27T12:09:46Z</time>
      </trkpt>
      <trkpt lat="45.65032" lon="6.81048">
        <ele>1923.3</ele>
        <time>2021-03-27T12:09:47Z</time>
      </trkpt>
      <trkpt lat="45.65033" lon="6.81047">
        <ele>1924.2</ele>
        <time>2021-03-27T12:09:48Z</time>
      </trkpt>
      <trkpt lat="45.65033" lon="6.81046">
        <ele>1924.2</ele>
        <time>2021-03-27T12:09:49Z</time>
      </trkpt>
      <trkpt lat="45.65034" lon="6.81046">
        <ele>1924.1</ele>
        <time>2021-03-27T12:09:50Z</time>
      </trkpt>
      <trkpt lat="45.65035" lon="6.81046">
        <ele>1924.9</ele>
        <time>2021-03-27T12:09:51Z</time>
      </trkpt>
      <trkpt lat="45.65036" lon="6.81045">
        <ele>1924.9</ele>
        <time>2021-03-27T12:09:52Z</time>
      </trkpt>
      <trkpt lat="45.65037" lon="6.81045">
        <ele>1924.9</ele>
        <time>2021-03-27T12:09:53Z</time>
      </trkpt>
      <trkpt lat="45.65037" lon="6.81045">
        <ele>1924.9</ele>
        <time>2021-03-27T12:09:54Z</time>
      </trkpt>
      <trkpt lat="45.65038" lon="6.81045">
        <ele>1925.6</ele>
        <time>2021-03-27T12:09:55Z</time>
      </trkpt>
      <trkpt lat="45.6504" lon="6.81045">
        <ele>1925.6</ele>
        <time>2021-03-27T12:09:56Z</time>
      </trkpt>
      <trkpt lat="45.6504" lon="6.81045">
        <ele>1925.3</ele>
        <time>2021-03-27T12:09:57Z</time>
      </trkpt>
      <trkpt lat="45.65041" lon="6.81045">
        <ele>1926</ele>
        <time>2021-03-27T12:09:58Z</time>
      </trkpt>
      <trkpt lat="45.65042" lon="6.81044">
        <ele>1926</ele>
        <time>2021-03-27T12:09:59Z</time>
      </trkpt>
      <trkpt lat="45.65043" lon="6.81045">
        <ele>1926</ele>
        <time>2021-03-27T12:10:00Z</time>
      </trkpt>
      <trkpt lat="45.65044" lon="6.81045">
        <ele>1926.8</ele>
        <time>2021-03-27T12:10:01Z</time>
      </trkpt>
      <trkpt lat="45.65045" lon="6.81045">
        <ele>1926.8</ele>
        <time>2021-03-27T12:10:02Z</time>
      </trkpt>
      <trkpt lat="45.65046" lon="6.81045">
        <ele>1927.1</ele>
        <time>2021-03-27T12:10:03Z</time>
      </trkpt>
      <trkpt lat="45.65046" lon="6.81046">
        <ele>1927.1</ele>
        <time>2021-03-27T12:10:04Z</time>
      </trkpt>
      <trkpt lat="45.65047" lon="6.81046">
        <ele>1927.9</ele>
        <time>2021-03-27T12:10:05Z</time>
      </trkpt>
      <trkpt lat="45.65048" lon="6.81046">
        <ele>1927.9</ele>
        <time>2021-03-27T12:10:06Z</time>
      </trkpt>
      <trkpt lat="45.65048" lon="6.81047">
        <ele>1927.9</ele>
        <time>2021-03-27T12:10:07Z</time>
      </trkpt>
      <trkpt lat="45.65049" lon="6.81047">
        <ele>1927.9</ele>
        <time>2021-03-27T12:10:08Z</time>
      </trkpt>
      <trkpt lat="45.6505" lon="6.81047">
        <ele>1927.9</ele>
        <time>2021-03-27T12:10:09Z</time>
      </trkpt>
      <trkpt lat="45.6505" lon="6.81047">
        <ele>1928.8</ele>
        <time>2021-03-27T12:10:10Z</time>
      </trkpt>
      <trkpt lat="45.65051" lon="6.81048">
        <ele>1928.8</ele>
        <time>2021-03-27T12:10:11Z</time>
      </trkpt>
      <trkpt lat="45.65051" lon="6.81048">
        <ele>1928.8</ele>
        <time>2021-03-27T12:10:12Z</time>
      </trkpt>
      <trkpt lat="45.65052" lon="6.81048">
        <ele>1928.8</ele>
        <time>2021-03-27T12:10:13Z</time>
      </trkpt>
      <trkpt lat="45.65052" lon="6.81048">
        <ele>1928.8</ele>
        <time>2021-03-27T12:10:14Z</time>
      </trkpt>
      <trkpt lat="45.65053" lon="6.81048">
        <ele>1929.7</ele>
        <time>2021-03-27T12:10:15Z</time>
      </trkpt>
      <trkpt lat="45.65054" lon="6.81048">
        <ele>1929.7</ele>
        <time>2021-03-27T12:10:16Z</time>
      </trkpt>
      <trkpt lat="45.65054" lon="6.81048">
        <ele>1929.7</ele>
        <time>2021-03-27T12:10:17Z</time>
      </trkpt>
      <trkpt lat="45.65055" lon="6.81048">
        <ele>1929.7</ele>
        <time>2021-03-27T12:10:18Z</time>
      </trkpt>
      <trkpt lat="45.65056" lon="6.81048">
        <ele>1929.7</ele>
        <time>2021-03-27T12:10:19Z</time>
      </trkpt>
      <trkpt lat="45.65056" lon="6.81047">
        <ele>1930.6</ele>
        <time>2021-03-27T12:10:20Z</time>
      </trkpt>
      <trkpt lat="45.65057" lon="6.81047">
        <ele>1930.6</ele>
        <time>2021-03-27T12:10:21Z</time>
      </trkpt>
      <trkpt lat="45.65058" lon="6.81047">
        <ele>1930.6</ele>
        <time>2021-03-27T12:10:22Z</time>
      </trkpt>
      <trkpt lat="45.65058" lon="6.81047">
        <ele>1930.6</ele>
        <time>2021-03-27T12:10:23Z</time>
      </trkpt>
      <trkpt lat="45.65059" lon="6.81047">
        <ele>1931.5</ele>
        <time>2021-03-27T12:10:24Z</time>
      </trkpt>
      <trkpt lat="45.6506" lon="6.81047">
        <ele>1931.5</ele>
        <time>2021-03-27T12:10:25Z</time>
      </trkpt>
      <trkpt lat="45.6506" lon="6.81046">
        <ele>1931.5</ele>
        <time>2021-03-27T12:10:26Z</time>
      </trkpt>
      <trkpt lat="45.65061" lon="6.81046">
        <ele>1931.5</ele>
        <time>2021-03-27T12:10:27Z</time>
      </trkpt>
      <trkpt lat="45.65062" lon="6.81046">
        <ele>1931.5</ele>
        <time>2021-03-27T12:10:28Z</time>
      </trkpt>
      <trkpt lat="45.65062" lon="6.81046">
        <ele>1932.4</ele>
        <time>2021-03-27T12:10:29Z</time>
      </trkpt>
      <trkpt lat="45.65063" lon="6.81045">
        <ele>1932.4</ele>
        <time>2021-03-27T12:10:30Z</time>
      </trkpt>
      <trkpt lat="45.65063" lon="6.81045">
        <ele>1932.4</ele>
        <time>2021-03-27T12:10:31Z</time>
      </trkpt>
      <trkpt lat="45.65064" lon="6.81045">
        <ele>1932.2</ele>
        <time>2021-03-27T12:10:32Z</time>
      </trkpt>
      <trkpt lat="45.65064" lon="6.81045">
        <ele>1932.2</ele>
        <time>2021-03-27T12:10:33Z</time>
      </trkpt>
      <trkpt lat="45.65065" lon="6.81045">
        <ele>1933</ele>
        <time>2021-03-27T12:10:34Z</time>
      </trkpt>
      <trkpt lat="45.65066" lon="6.81045">
        <ele>1933</ele>
        <time>2021-03-27T12:10:35Z</time>
      </trkpt>
      <trkpt lat="45.65066" lon="6.81044">
        <ele>1933</ele>
        <time>2021-03-27T12:10:36Z</time>
      </trkpt>
      <trkpt lat="45.65067" lon="6.81043">
        <ele>1933</ele>
        <time>2021-03-27T12:10:37Z</time>
      </trkpt>
      <trkpt lat="45.65067" lon="6.81043">
        <ele>1933</ele>
        <time>2021-03-27T12:10:38Z</time>
      </trkpt>
      <trkpt lat="45.65068" lon="6.81042">
        <ele>1933</ele>
        <time>2021-03-27T12:10:39Z</time>
      </trkpt>
      <trkpt lat="45.65069" lon="6.81042">
        <ele>1933.8</ele>
        <time>2021-03-27T12:10:40Z</time>
      </trkpt>
      <trkpt lat="45.65069" lon="6.81042">
        <ele>1933.8</ele>
        <time>2021-03-27T12:10:41Z</time>
      </trkpt>
      <trkpt lat="45.6507" lon="6.81042">
        <ele>1933.8</ele>
        <time>2021-03-27T12:10:42Z</time>
      </trkpt>
      <trkpt lat="45.65071" lon="6.81042">
        <ele>1933.8</ele>
        <time>2021-03-27T12:10:43Z</time>
      </trkpt>
      <trkpt lat="45.65071" lon="6.81042">
        <ele>1934.7</ele>
        <time>2021-03-27T12:10:44Z</time>
      </trkpt>
      <trkpt lat="45.65072" lon="6.81043">
        <ele>1934.7</ele>
        <time>2021-03-27T12:10:45Z</time>
      </trkpt>
      <trkpt lat="45.65072" lon="6.81044">
        <ele>1934.7</ele>
        <time>2021-03-27T12:10:46Z</time>
      </trkpt>
      <trkpt lat="45.65073" lon="6.81045">
        <ele>1934.7</ele>
        <time>2021-03-27T12:10:47Z</time>
      </trkpt>
      <trkpt lat="45.65073" lon="6.81046">
        <ele>1934.8</ele>
        <time>2021-03-27T12:10:48Z</time>
      </trkpt>
      <trkpt lat="45.65073" lon="6.81047">
        <ele>1934.8</ele>
        <time>2021-03-27T12:10:49Z</time>
      </trkpt>
      <trkpt lat="45.65074" lon="6.81048">
        <ele>1934.8</ele>
        <time>2021-03-27T12:10:50Z</time>
      </trkpt>
      <trkpt lat="45.65074" lon="6.81049">
        <ele>1935.7</ele>
        <time>2021-03-27T12:10:51Z</time>
      </trkpt>
      <trkpt lat="45.65075" lon="6.81049">
        <ele>1935.7</ele>
        <time>2021-03-27T12:10:52Z</time>
      </trkpt>
      <trkpt lat="45.65075" lon="6.8105">
        <ele>1935.8</ele>
        <time>2021-03-27T12:10:53Z</time>
      </trkpt>
      <trkpt lat="45.65076" lon="6.8105">
        <ele>1935.8</ele>
        <time>2021-03-27T12:10:54Z</time>
      </trkpt>
      <trkpt lat="45.65076" lon="6.81051">
        <ele>1935.8</ele>
        <time>2021-03-27T12:10:55Z</time>
      </trkpt>
      <trkpt lat="45.65076" lon="6.81052">
        <ele>1935.8</ele>
        <time>2021-03-27T12:10:56Z</time>
      </trkpt>
      <trkpt lat="45.65077" lon="6.81052">
        <ele>1935.8</ele>
        <time>2021-03-27T12:10:57Z</time>
      </trkpt>
      <trkpt lat="45.65077" lon="6.81053">
        <ele>1936.7</ele>
        <time>2021-03-27T12:10:58Z</time>
      </trkpt>
      <trkpt lat="45.65077" lon="6.81054">
        <ele>1936.8</ele>
        <time>2021-03-27T12:10:59Z</time>
      </trkpt>
      <trkpt lat="45.65078" lon="6.81055">
        <ele>1936.8</ele>
        <time>2021-03-27T12:11:00Z</time>
      </trkpt>
      <trkpt lat="45.65078" lon="6.81056">
        <ele>1936.8</ele>
        <time>2021-03-27T12:11:01Z</time>
      </trkpt>
      <trkpt lat="45.65079" lon="6.81057">
        <ele>1936.8</ele>
        <time>2021-03-27T12:11:02Z</time>
      </trkpt>
      <trkpt lat="45.65079" lon="6.81057">
        <ele>1936.8</ele>
        <time>2021-03-27T12:11:03Z</time>
      </trkpt>
      <trkpt lat="45.6508" lon="6.81058">
        <ele>1937</ele>
        <time>2021-03-27T12:11:04Z</time>
      </trkpt>
      <trkpt lat="45.6508" lon="6.81059">
        <ele>1937.8</ele>
        <time>2021-03-27T12:11:05Z</time>
      </trkpt>
      <trkpt lat="45.65081" lon="6.8106">
        <ele>1937.8</ele>
        <time>2021-03-27T12:11:06Z</time>
      </trkpt>
      <trkpt lat="45.65081" lon="6.8106">
        <ele>1937.8</ele>
        <time>2021-03-27T12:11:07Z</time>
      </trkpt>
      <trkpt lat="45.65082" lon="6.81061">
        <ele>1937.8</ele>
        <time>2021-03-27T12:11:08Z</time>
      </trkpt>
      <trkpt lat="45.65082" lon="6.81062">
        <ele>1937.8</ele>
        <time>2021-03-27T12:11:09Z</time>
      </trkpt>
      <trkpt lat="45.65083" lon="6.81062">
        <ele>1937.8</ele>
        <time>2021-03-27T12:11:10Z</time>
      </trkpt>
      <trkpt lat="45.65083" lon="6.81063">
        <ele>1938.8</ele>
        <time>2021-03-27T12:11:11Z</time>
      </trkpt>
      <trkpt lat="45.65084" lon="6.81063">
        <ele>1938.8</ele>
        <time>2021-03-27T12:11:12Z</time>
      </trkpt>
      <trkpt lat="45.65085" lon="6.81063">
        <ele>1938.8</ele>
        <time>2021-03-27T12:11:13Z</time>
      </trkpt>
      <trkpt lat="45.65086" lon="6.81064">
        <ele>1938.8</ele>
        <time>2021-03-27T12:11:14Z</time>
      </trkpt>
      <trkpt lat="45.65087" lon="6.81064">
        <ele>1939.6</ele>
        <time>2021-03-27T12:11:15Z</time>
      </trkpt>
      <trkpt lat="45.65087" lon="6.81064">
        <ele>1939.6</ele>
        <time>2021-03-27T12:11:16Z</time>
      </trkpt>
      <trkpt lat="45.65088" lon="6.81064">
        <ele>1939.6</ele>
        <time>2021-03-27T12:11:17Z</time>
      </trkpt>
      <trkpt lat="45.65089" lon="6.81064">
        <ele>1940.5</ele>
        <time>2021-03-27T12:11:18Z</time>
      </trkpt>
      <trkpt lat="45.6509" lon="6.81065">
        <ele>1940.5</ele>
        <time>2021-03-27T12:11:19Z</time>
      </trkpt>
      <trkpt lat="45.65091" lon="6.81065">
        <ele>1940.5</ele>
        <time>2021-03-27T12:11:20Z</time>
      </trkpt>
      <trkpt lat="45.65091" lon="6.81065">
        <ele>1940.5</ele>
        <time>2021-03-27T12:11:21Z</time>
      </trkpt>
      <trkpt lat="45.65092" lon="6.81065">
        <ele>1941.3</ele>
        <time>2021-03-27T12:11:22Z</time>
      </trkpt>
      <trkpt lat="45.65093" lon="6.81065">
        <ele>1941.3</ele>
        <time>2021-03-27T12:11:23Z</time>
      </trkpt>
      <trkpt lat="45.65094" lon="6.81065">
        <ele>1941.3</ele>
        <time>2021-03-27T12:11:24Z</time>
      </trkpt>
      <trkpt lat="45.65094" lon="6.81065">
        <ele>1941.3</ele>
        <time>2021-03-27T12:11:25Z</time>
      </trkpt>
      <trkpt lat="45.65095" lon="6.81064">
        <ele>1941.3</ele>
        <time>2021-03-27T12:11:26Z</time>
      </trkpt>
      <trkpt lat="45.65096" lon="6.81064">
        <ele>1942.1</ele>
        <time>2021-03-27T12:11:27Z</time>
      </trkpt>
      <trkpt lat="45.65096" lon="6.81064">
        <ele>1942.1</ele>
        <time>2021-03-27T12:11:28Z</time>
      </trkpt>
      <trkpt lat="45.65097" lon="6.81063">
        <ele>1942.1</ele>
        <time>2021-03-27T12:11:29Z</time>
      </trkpt>
      <trkpt lat="45.65098" lon="6.81063">
        <ele>1942.1</ele>
        <time>2021-03-27T12:11:30Z</time>
      </trkpt>
      <trkpt lat="45.65099" lon="6.81062">
        <ele>1942.9</ele>
        <time>2021-03-27T12:11:31Z</time>
      </trkpt>
      <trkpt lat="45.65099" lon="6.81061">
        <ele>1942.9</ele>
        <time>2021-03-27T12:11:32Z</time>
      </trkpt>
      <trkpt lat="45.651" lon="6.81061">
        <ele>1942.9</ele>
        <time>2021-03-27T12:11:33Z</time>
      </trkpt>
      <trkpt lat="45.65101" lon="6.81061">
        <ele>1942.9</ele>
        <time>2021-03-27T12:11:34Z</time>
      </trkpt>
      <trkpt lat="45.65102" lon="6.81062">
        <ele>1943.7</ele>
        <time>2021-03-27T12:11:35Z</time>
      </trkpt>
      <trkpt lat="45.65103" lon="6.81062">
        <ele>1943.7</ele>
        <time>2021-03-27T12:11:36Z</time>
      </trkpt>
      <trkpt lat="45.65104" lon="6.81062">
        <ele>1943.7</ele>
        <time>2021-03-27T12:11:37Z</time>
      </trkpt>
      <trkpt lat="45.65104" lon="6.81062">
        <ele>1944.5</ele>
        <time>2021-03-27T12:11:38Z</time>
      </trkpt>
      <trkpt lat="45.65105" lon="6.81062">
        <ele>1944.5</ele>
        <time>2021-03-27T12:11:39Z</time>
      </trkpt>
      <trkpt lat="45.65106" lon="6.81063">
        <ele>1944.5</ele>
        <time>2021-03-27T12:11:40Z</time>
      </trkpt>
      <trkpt lat="45.65107" lon="6.81064">
        <ele>1944.5</ele>
        <time>2021-03-27T12:11:41Z</time>
      </trkpt>
      <trkpt lat="45.65107" lon="6.81064">
        <ele>1945.4</ele>
        <time>2021-03-27T12:11:42Z</time>
      </trkpt>
      <trkpt lat="45.65108" lon="6.81064">
        <ele>1945.4</ele>
        <time>2021-03-27T12:11:43Z</time>
      </trkpt>
      <trkpt lat="45.65109" lon="6.81065">
        <ele>1945.4</ele>
        <time>2021-03-27T12:11:44Z</time>
      </trkpt>
      <trkpt lat="45.6511" lon="6.81065">
        <ele>1945.4</ele>
        <time>2021-03-27T12:11:45Z</time>
      </trkpt>
      <trkpt lat="45.6511" lon="6.81065">
        <ele>1946.3</ele>
        <time>2021-03-27T12:11:46Z</time>
      </trkpt>
      <trkpt lat="45.65111" lon="6.81065">
        <ele>1946.3</ele>
        <time>2021-03-27T12:11:47Z</time>
      </trkpt>
      <trkpt lat="45.65112" lon="6.81065">
        <ele>1946.3</ele>
        <time>2021-03-27T12:11:48Z</time>
      </trkpt>
      <trkpt lat="45.65112" lon="6.81066">
        <ele>1946.3</ele>
        <time>2021-03-27T12:11:49Z</time>
      </trkpt>
      <trkpt lat="45.65113" lon="6.81066">
        <ele>1946.3</ele>
        <time>2021-03-27T12:11:50Z</time>
      </trkpt>
      <trkpt lat="45.65113" lon="6.81066">
        <ele>1947.3</ele>
        <time>2021-03-27T12:11:51Z</time>
      </trkpt>
      <trkpt lat="45.65114" lon="6.81067">
        <ele>1947.3</ele>
        <time>2021-03-27T12:11:52Z</time>
      </trkpt>
      <trkpt lat="45.65115" lon="6.81067">
        <ele>1947.2</ele>
        <time>2021-03-27T12:11:53Z</time>
      </trkpt>
      <trkpt lat="45.65115" lon="6.81067">
        <ele>1947.2</ele>
        <time>2021-03-27T12:11:54Z</time>
      </trkpt>
      <trkpt lat="45.65116" lon="6.81067">
        <ele>1947.2</ele>
        <time>2021-03-27T12:11:55Z</time>
      </trkpt>
      <trkpt lat="45.65116" lon="6.81068">
        <ele>1948.2</ele>
        <time>2021-03-27T12:11:56Z</time>
      </trkpt>
      <trkpt lat="45.65117" lon="6.81068">
        <ele>1948.2</ele>
        <time>2021-03-27T12:11:57Z</time>
      </trkpt>
      <trkpt lat="45.65118" lon="6.81068">
        <ele>1948.2</ele>
        <time>2021-03-27T12:11:58Z</time>
      </trkpt>
      <trkpt lat="45.65118" lon="6.81068">
        <ele>1948.2</ele>
        <time>2021-03-27T12:11:59Z</time>
      </trkpt>
      <trkpt lat="45.65119" lon="6.81069">
        <ele>1948.2</ele>
        <time>2021-03-27T12:12:00Z</time>
      </trkpt>
      <trkpt lat="45.65119" lon="6.81069">
        <ele>1949.1</ele>
        <time>2021-03-27T12:12:01Z</time>
      </trkpt>
      <trkpt lat="45.6512" lon="6.81069">
        <ele>1949.1</ele>
        <time>2021-03-27T12:12:02Z</time>
      </trkpt>
      <trkpt lat="45.65121" lon="6.8107">
        <ele>1949.1</ele>
        <time>2021-03-27T12:12:03Z</time>
      </trkpt>
      <trkpt lat="45.65121" lon="6.8107">
        <ele>1949.1</ele>
        <time>2021-03-27T12:12:04Z</time>
      </trkpt>
      <trkpt lat="45.65122" lon="6.8107">
        <ele>1949.9</ele>
        <time>2021-03-27T12:12:05Z</time>
      </trkpt>
      <trkpt lat="45.65123" lon="6.81071">
        <ele>1949.9</ele>
        <time>2021-03-27T12:12:06Z</time>
      </trkpt>
      <trkpt lat="45.65124" lon="6.81071">
        <ele>1949.8</ele>
        <time>2021-03-27T12:12:07Z</time>
      </trkpt>
      <trkpt lat="45.65124" lon="6.81072">
        <ele>1949.8</ele>
        <time>2021-03-27T12:12:08Z</time>
      </trkpt>
      <trkpt lat="45.65125" lon="6.81072">
        <ele>1949.8</ele>
        <time>2021-03-27T12:12:09Z</time>
      </trkpt>
      <trkpt lat="45.65125" lon="6.81073">
        <ele>1950.5</ele>
        <time>2021-03-27T12:12:10Z</time>
      </trkpt>
      <trkpt lat="45.65126" lon="6.81073">
        <ele>1950.5</ele>
        <time>2021-03-27T12:12:11Z</time>
      </trkpt>
      <trkpt lat="45.65127" lon="6.81073">
        <ele>1950.5</ele>
        <time>2021-03-27T12:12:12Z</time>
      </trkpt>
      <trkpt lat="45.65127" lon="6.81074">
        <ele>1950.5</ele>
        <time>2021-03-27T12:12:13Z</time>
      </trkpt>
      <trkpt lat="45.65128" lon="6.81074">
        <ele>1950.5</ele>
        <time>2021-03-27T12:12:14Z</time>
      </trkpt>
      <trkpt lat="45.65128" lon="6.81075">
        <ele>1951.3</ele>
        <time>2021-03-27T12:12:15Z</time>
      </trkpt>
      <trkpt lat="45.65129" lon="6.81075">
        <ele>1951.3</ele>
        <time>2021-03-27T12:12:16Z</time>
      </trkpt>
      <trkpt lat="45.6513" lon="6.81075">
        <ele>1951.2</ele>
        <time>2021-03-27T12:12:17Z</time>
      </trkpt>
      <trkpt lat="45.65131" lon="6.81075">
        <ele>1951.2</ele>
        <time>2021-03-27T12:12:18Z</time>
      </trkpt>
      <trkpt lat="45.65131" lon="6.81076">
        <ele>1952</ele>
        <time>2021-03-27T12:12:19Z</time>
      </trkpt>
      <trkpt lat="45.65132" lon="6.81076">
        <ele>1952</ele>
        <time>2021-03-27T12:12:20Z</time>
      </trkpt>
      <trkpt lat="45.65133" lon="6.81076">
        <ele>1952</ele>
        <time>2021-03-27T12:12:21Z</time>
      </trkpt>
      <trkpt lat="45.65134" lon="6.81076">
        <ele>1952</ele>
        <time>2021-03-27T12:12:22Z</time>
      </trkpt>
      <trkpt lat="45.65134" lon="6.81077">
        <ele>1952.9</ele>
        <time>2021-03-27T12:12:23Z</time>
      </trkpt>
      <trkpt lat="45.65135" lon="6.81077">
        <ele>1952.9</ele>
        <time>2021-03-27T12:12:24Z</time>
      </trkpt>
      <trkpt lat="45.65136" lon="6.81077">
        <ele>1952.9</ele>
        <time>2021-03-27T12:12:25Z</time>
      </trkpt>
      <trkpt lat="45.65136" lon="6.81077">
        <ele>1952.9</ele>
        <time>2021-03-27T12:12:26Z</time>
      </trkpt>
      <trkpt lat="45.65137" lon="6.81078">
        <ele>1953.9</ele>
        <time>2021-03-27T12:12:27Z</time>
      </trkpt>
      <trkpt lat="45.65137" lon="6.81078">
        <ele>1953.9</ele>
        <time>2021-03-27T12:12:28Z</time>
      </trkpt>
      <trkpt lat="45.65138" lon="6.81078">
        <ele>1953.9</ele>
        <time>2021-03-27T12:12:29Z</time>
      </trkpt>
      <trkpt lat="45.65139" lon="6.81078">
        <ele>1953.9</ele>
        <time>2021-03-27T12:12:30Z</time>
      </trkpt>
      <trkpt lat="45.65139" lon="6.81079">
        <ele>1953.9</ele>
        <time>2021-03-27T12:12:31Z</time>
      </trkpt>
      <trkpt lat="45.6514" lon="6.81079">
        <ele>1954.9</ele>
        <time>2021-03-27T12:12:32Z</time>
      </trkpt>
      <trkpt lat="45.65141" lon="6.81078">
        <ele>1954.9</ele>
        <time>2021-03-27T12:12:33Z</time>
      </trkpt>
      <trkpt lat="45.65141" lon="6.81078">
        <ele>1954.9</ele>
        <time>2021-03-27T12:12:34Z</time>
      </trkpt>
      <trkpt lat="45.65142" lon="6.81078">
        <ele>1954.9</ele>
        <time>2021-03-27T12:12:35Z</time>
      </trkpt>
      <trkpt lat="45.65142" lon="6.81078">
        <ele>1954.9</ele>
        <time>2021-03-27T12:12:36Z</time>
      </trkpt>
      <trkpt lat="45.65143" lon="6.81078">
        <ele>1954.9</ele>
        <time>2021-03-27T12:12:37Z</time>
      </trkpt>
      <trkpt lat="45.65143" lon="6.81077">
        <ele>1955.8</ele>
        <time>2021-03-27T12:12:38Z</time>
      </trkpt>
      <trkpt lat="45.65144" lon="6.81077">
        <ele>1955.8</ele>
        <time>2021-03-27T12:12:39Z</time>
      </trkpt>
      <trkpt lat="45.65144" lon="6.81076">
        <ele>1955.8</ele>
        <time>2021-03-27T12:12:40Z</time>
      </trkpt>
      <trkpt lat="45.65144" lon="6.81075">
        <ele>1955.9</ele>
        <time>2021-03-27T12:12:41Z</time>
      </trkpt>
      <trkpt lat="45.65145" lon="6.81073">
        <ele>1955.9</ele>
        <time>2021-03-27T12:12:42Z</time>
      </trkpt>
      <trkpt lat="45.65145" lon="6.81073">
        <ele>1955.9</ele>
        <time>2021-03-27T12:12:43Z</time>
      </trkpt>
      <trkpt lat="45.65146" lon="6.81072">
        <ele>1955.9</ele>
        <time>2021-03-27T12:12:44Z</time>
      </trkpt>
      <trkpt lat="45.65147" lon="6.81072">
        <ele>1956.7</ele>
        <time>2021-03-27T12:12:45Z</time>
      </trkpt>
      <trkpt lat="45.65147" lon="6.81072">
        <ele>1956.7</ele>
        <time>2021-03-27T12:12:46Z</time>
      </trkpt>
      <trkpt lat="45.65148" lon="6.81072">
        <ele>1956.7</ele>
        <time>2021-03-27T12:12:47Z</time>
      </trkpt>
      <trkpt lat="45.65149" lon="6.81072">
        <ele>1957.5</ele>
        <time>2021-03-27T12:12:48Z</time>
      </trkpt>
      <trkpt lat="45.6515" lon="6.81073">
        <ele>1957.5</ele>
        <time>2021-03-27T12:12:49Z</time>
      </trkpt>
      <trkpt lat="45.6515" lon="6.81073">
        <ele>1957.5</ele>
        <time>2021-03-27T12:12:50Z</time>
      </trkpt>
      <trkpt lat="45.65151" lon="6.81074">
        <ele>1957.5</ele>
        <time>2021-03-27T12:12:51Z</time>
      </trkpt>
      <trkpt lat="45.65152" lon="6.81074">
        <ele>1957.5</ele>
        <time>2021-03-27T12:12:52Z</time>
      </trkpt>
      <trkpt lat="45.65152" lon="6.81075">
        <ele>1958.2</ele>
        <time>2021-03-27T12:12:53Z</time>
      </trkpt>
      <trkpt lat="45.65153" lon="6.81075">
        <ele>1958.2</ele>
        <time>2021-03-27T12:12:54Z</time>
      </trkpt>
      <trkpt lat="45.65154" lon="6.81076">
        <ele>1958.2</ele>
        <time>2021-03-27T12:12:55Z</time>
      </trkpt>
      <trkpt lat="45.65154" lon="6.81076">
        <ele>1958.2</ele>
        <time>2021-03-27T12:12:56Z</time>
      </trkpt>
      <trkpt lat="45.65155" lon="6.81077">
        <ele>1958.2</ele>
        <time>2021-03-27T12:12:57Z</time>
      </trkpt>
      <trkpt lat="45.65155" lon="6.81078">
        <ele>1959</ele>
        <time>2021-03-27T12:12:58Z</time>
      </trkpt>
      <trkpt lat="45.65156" lon="6.81078">
        <ele>1959</ele>
        <time>2021-03-27T12:12:59Z</time>
      </trkpt>
      <trkpt lat="45.65156" lon="6.81079">
        <ele>1959</ele>
        <time>2021-03-27T12:13:00Z</time>
      </trkpt>
      <trkpt lat="45.65157" lon="6.8108">
        <ele>1959.1</ele>
        <time>2021-03-27T12:13:01Z</time>
      </trkpt>
      <trkpt lat="45.65157" lon="6.8108">
        <ele>1959.1</ele>
        <time>2021-03-27T12:13:02Z</time>
      </trkpt>
      <trkpt lat="45.65158" lon="6.81081">
        <ele>1959.1</ele>
        <time>2021-03-27T12:13:03Z</time>
      </trkpt>
      <trkpt lat="45.65158" lon="6.81082">
        <ele>1960</ele>
        <time>2021-03-27T12:13:04Z</time>
      </trkpt>
      <trkpt lat="45.65159" lon="6.81082">
        <ele>1960</ele>
        <time>2021-03-27T12:13:05Z</time>
      </trkpt>
      <trkpt lat="45.65159" lon="6.81083">
        <ele>1960</ele>
        <time>2021-03-27T12:13:06Z</time>
      </trkpt>
      <trkpt lat="45.6516" lon="6.81084">
        <ele>1960</ele>
        <time>2021-03-27T12:13:07Z</time>
      </trkpt>
      <trkpt lat="45.6516" lon="6.81084">
        <ele>1960</ele>
        <time>2021-03-27T12:13:08Z</time>
      </trkpt>
      <trkpt lat="45.65161" lon="6.81085">
        <ele>1961</ele>
        <time>2021-03-27T12:13:09Z</time>
      </trkpt>
      <trkpt lat="45.65162" lon="6.81085">
        <ele>1961</ele>
        <time>2021-03-27T12:13:10Z</time>
      </trkpt>
      <trkpt lat="45.65162" lon="6.81086">
        <ele>1961</ele>
        <time>2021-03-27T12:13:11Z</time>
      </trkpt>
      <trkpt lat="45.65163" lon="6.81086">
        <ele>1961</ele>
        <time>2021-03-27T12:13:12Z</time>
      </trkpt>
      <trkpt lat="45.65163" lon="6.81087">
        <ele>1961</ele>
        <time>2021-03-27T12:13:13Z</time>
      </trkpt>
      <trkpt lat="45.65164" lon="6.81087">
        <ele>1961</ele>
        <time>2021-03-27T12:13:14Z</time>
      </trkpt>
      <trkpt lat="45.65164" lon="6.81087">
        <ele>1961.9</ele>
        <time>2021-03-27T12:13:15Z</time>
      </trkpt>
      <trkpt lat="45.65165" lon="6.81086">
        <ele>1961.9</ele>
        <time>2021-03-27T12:13:16Z</time>
      </trkpt>
      <trkpt lat="45.65166" lon="6.81086">
        <ele>1961.9</ele>
        <time>2021-03-27T12:13:17Z</time>
      </trkpt>
      <trkpt lat="45.65167" lon="6.81085">
        <ele>1961.9</ele>
        <time>2021-03-27T12:13:18Z</time>
      </trkpt>
      <trkpt lat="45.65167" lon="6.81085">
        <ele>1962.9</ele>
        <time>2021-03-27T12:13:19Z</time>
      </trkpt>
      <trkpt lat="45.65168" lon="6.81085">
        <ele>1962.9</ele>
        <time>2021-03-27T12:13:20Z</time>
      </trkpt>
      <trkpt lat="45.65168" lon="6.81084">
        <ele>1962.9</ele>
        <time>2021-03-27T12:13:21Z</time>
      </trkpt>
      <trkpt lat="45.65169" lon="6.81084">
        <ele>1962.9</ele>
        <time>2021-03-27T12:13:22Z</time>
      </trkpt>
      <trkpt lat="45.65169" lon="6.81084">
        <ele>1962.9</ele>
        <time>2021-03-27T12:13:23Z</time>
      </trkpt>
      <trkpt lat="45.6517" lon="6.81083">
        <ele>1963.6</ele>
        <time>2021-03-27T12:13:24Z</time>
      </trkpt>
      <trkpt lat="45.65171" lon="6.81083">
        <ele>1963.6</ele>
        <time>2021-03-27T12:13:25Z</time>
      </trkpt>
      <trkpt lat="45.65171" lon="6.81083">
        <ele>1963.6</ele>
        <time>2021-03-27T12:13:26Z</time>
      </trkpt>
      <trkpt lat="45.65172" lon="6.81083">
        <ele>1963.6</ele>
        <time>2021-03-27T12:13:27Z</time>
      </trkpt>
      <trkpt lat="45.65172" lon="6.81083">
        <ele>1963.6</ele>
        <time>2021-03-27T12:13:28Z</time>
      </trkpt>
      <trkpt lat="45.65173" lon="6.81083">
        <ele>1963.6</ele>
        <time>2021-03-27T12:13:29Z</time>
      </trkpt>
      <trkpt lat="45.65173" lon="6.81083">
        <ele>1964.5</ele>
        <time>2021-03-27T12:13:30Z</time>
      </trkpt>
      <trkpt lat="45.65174" lon="6.81083">
        <ele>1964.5</ele>
        <time>2021-03-27T12:13:31Z</time>
      </trkpt>
      <trkpt lat="45.65174" lon="6.81083">
        <ele>1964.5</ele>
        <time>2021-03-27T12:13:32Z</time>
      </trkpt>
      <trkpt lat="45.65175" lon="6.81083">
        <ele>1964.5</ele>
        <time>2021-03-27T12:13:33Z</time>
      </trkpt>
      <trkpt lat="45.65175" lon="6.81084">
        <ele>1964.5</ele>
        <time>2021-03-27T12:13:34Z</time>
      </trkpt>
      <trkpt lat="45.65175" lon="6.81085">
        <ele>1964.7</ele>
        <time>2021-03-27T12:13:35Z</time>
      </trkpt>
      <trkpt lat="45.65175" lon="6.81086">
        <ele>1964.7</ele>
        <time>2021-03-27T12:13:36Z</time>
      </trkpt>
      <trkpt lat="45.65175" lon="6.81087">
        <ele>1964.7</ele>
        <time>2021-03-27T12:13:37Z</time>
      </trkpt>
      <trkpt lat="45.65175" lon="6.81089">
        <ele>1965</ele>
        <time>2021-03-27T12:13:38Z</time>
      </trkpt>
      <trkpt lat="45.65174" lon="6.8109">
        <ele>1965</ele>
        <time>2021-03-27T12:13:39Z</time>
      </trkpt>
      <trkpt lat="45.65174" lon="6.81092">
        <ele>1965</ele>
        <time>2021-03-27T12:13:40Z</time>
      </trkpt>
      <trkpt lat="45.65173" lon="6.81093">
        <ele>1965.2</ele>
        <time>2021-03-27T12:13:41Z</time>
      </trkpt>
      <trkpt lat="45.65173" lon="6.81095">
        <ele>1964.2</ele>
        <time>2021-03-27T12:13:42Z</time>
      </trkpt>
      <trkpt lat="45.65172" lon="6.81096">
        <ele>1964.2</ele>
        <time>2021-03-27T12:13:43Z</time>
      </trkpt>
      <trkpt lat="45.65172" lon="6.81097">
        <ele>1964.5</ele>
        <time>2021-03-27T12:13:44Z</time>
      </trkpt>
      <trkpt lat="45.65171" lon="6.81099">
        <ele>1964.5</ele>
        <time>2021-03-27T12:13:45Z</time>
      </trkpt>
      <trkpt lat="45.65171" lon="6.811">
        <ele>1964.5</ele>
        <time>2021-03-27T12:13:46Z</time>
      </trkpt>
      <trkpt lat="45.65171" lon="6.81101">
        <ele>1964.7</ele>
        <time>2021-03-27T12:13:47Z</time>
      </trkpt>
      <trkpt lat="45.65171" lon="6.81102">
        <ele>1964.7</ele>
        <time>2021-03-27T12:13:48Z</time>
      </trkpt>
      <trkpt lat="45.6517" lon="6.81103">
        <ele>1964.7</ele>
        <time>2021-03-27T12:13:49Z</time>
      </trkpt>
      <trkpt lat="45.6517" lon="6.81104">
        <ele>1964.7</ele>
        <time>2021-03-27T12:13:50Z</time>
      </trkpt>
      <trkpt lat="45.6517" lon="6.81106">
        <ele>1964.9</ele>
        <time>2021-03-27T12:13:51Z</time>
      </trkpt>
      <trkpt lat="45.6517" lon="6.81107">
        <ele>1964.9</ele>
        <time>2021-03-27T12:13:52Z</time>
      </trkpt>
      <trkpt lat="45.6517" lon="6.81108">
        <ele>1964.9</ele>
        <time>2021-03-27T12:13:53Z</time>
      </trkpt>
      <trkpt lat="45.6517" lon="6.81109">
        <ele>1964.9</ele>
        <time>2021-03-27T12:13:54Z</time>
      </trkpt>
      <trkpt lat="45.6517" lon="6.8111">
        <ele>1965.1</ele>
        <time>2021-03-27T12:13:55Z</time>
      </trkpt>
      <trkpt lat="45.6517" lon="6.8111">
        <ele>1965.1</ele>
        <time>2021-03-27T12:13:56Z</time>
      </trkpt>
      <trkpt lat="45.6517" lon="6.81111">
        <ele>1965.1</ele>
        <time>2021-03-27T12:13:57Z</time>
      </trkpt>
      <trkpt lat="45.6517" lon="6.81112">
        <ele>1964</ele>
        <time>2021-03-27T12:13:58Z</time>
      </trkpt>
      <trkpt lat="45.6517" lon="6.81112">
        <ele>1964</ele>
        <time>2021-03-27T12:13:59Z</time>
      </trkpt>
      <trkpt lat="45.6517" lon="6.81113">
        <ele>1964</ele>
        <time>2021-03-27T12:14:00Z</time>
      </trkpt>
      <trkpt lat="45.6517" lon="6.81114">
        <ele>1965.3</ele>
        <time>2021-03-27T12:14:01Z</time>
      </trkpt>
      <trkpt lat="45.6517" lon="6.81115">
        <ele>1965.3</ele>
        <time>2021-03-27T12:14:02Z</time>
      </trkpt>
      <trkpt lat="45.65171" lon="6.81116">
        <ele>1965.3</ele>
        <time>2021-03-27T12:14:03Z</time>
      </trkpt>
      <trkpt lat="45.65171" lon="6.81116">
        <ele>1965.3</ele>
        <time>2021-03-27T12:14:04Z</time>
      </trkpt>
      <trkpt lat="45.65171" lon="6.81117">
        <ele>1965.3</ele>
        <time>2021-03-27T12:14:05Z</time>
      </trkpt>
      <trkpt lat="45.65172" lon="6.81118">
        <ele>1965.3</ele>
        <time>2021-03-27T12:14:06Z</time>
      </trkpt>
      <trkpt lat="45.65172" lon="6.81118">
        <ele>1965.3</ele>
        <time>2021-03-27T12:14:07Z</time>
      </trkpt>
      <trkpt lat="45.65173" lon="6.81118">
        <ele>1965.5</ele>
        <time>2021-03-27T12:14:08Z</time>
      </trkpt>
      <trkpt lat="45.65173" lon="6.81119">
        <ele>1966.6</ele>
        <time>2021-03-27T12:14:09Z</time>
      </trkpt>
      <trkpt lat="45.65174" lon="6.81119">
        <ele>1966.6</ele>
        <time>2021-03-27T12:14:10Z</time>
      </trkpt>
      <trkpt lat="45.65174" lon="6.81119">
        <ele>1966.6</ele>
        <time>2021-03-27T12:14:11Z</time>
      </trkpt>
      <trkpt lat="45.65175" lon="6.81119">
        <ele>1966.6</ele>
        <time>2021-03-27T12:14:12Z</time>
      </trkpt>
      <trkpt lat="45.65175" lon="6.8112">
        <ele>1966.6</ele>
        <time>2021-03-27T12:14:13Z</time>
      </trkpt>
      <trkpt lat="45.65176" lon="6.8112">
        <ele>1967.6</ele>
        <time>2021-03-27T12:14:14Z</time>
      </trkpt>
      <trkpt lat="45.65177" lon="6.8112">
        <ele>1967.6</ele>
        <time>2021-03-27T12:14:15Z</time>
      </trkpt>
      <trkpt lat="45.65178" lon="6.81121">
        <ele>1967.6</ele>
        <time>2021-03-27T12:14:16Z</time>
      </trkpt>
      <trkpt lat="45.65178" lon="6.81121">
        <ele>1967.6</ele>
        <time>2021-03-27T12:14:17Z</time>
      </trkpt>
      <trkpt lat="45.65179" lon="6.81121">
        <ele>1968.6</ele>
        <time>2021-03-27T12:14:18Z</time>
      </trkpt>
      <trkpt lat="45.6518" lon="6.81121">
        <ele>1968.6</ele>
        <time>2021-03-27T12:14:19Z</time>
      </trkpt>
      <trkpt lat="45.65181" lon="6.81122">
        <ele>1968.6</ele>
        <time>2021-03-27T12:14:20Z</time>
      </trkpt>
      <trkpt lat="45.65181" lon="6.81122">
        <ele>1968.6</ele>
        <time>2021-03-27T12:14:21Z</time>
      </trkpt>
      <trkpt lat="45.65182" lon="6.81122">
        <ele>1969.6</ele>
        <time>2021-03-27T12:14:22Z</time>
      </trkpt>
      <trkpt lat="45.65183" lon="6.81122">
        <ele>1969.7</ele>
        <time>2021-03-27T12:14:23Z</time>
      </trkpt>
      <trkpt lat="45.65184" lon="6.81123">
        <ele>1969.7</ele>
        <time>2021-03-27T12:14:24Z</time>
      </trkpt>
      <trkpt lat="45.65186" lon="6.81123">
        <ele>1970.7</ele>
        <time>2021-03-27T12:14:25Z</time>
      </trkpt>
      <trkpt lat="45.65187" lon="6.81124">
        <ele>1970.7</ele>
        <time>2021-03-27T12:14:26Z</time>
      </trkpt>
      <trkpt lat="45.65188" lon="6.81124">
        <ele>1970.7</ele>
        <time>2021-03-27T12:14:27Z</time>
      </trkpt>
      <trkpt lat="45.65188" lon="6.81124">
        <ele>1971.7</ele>
        <time>2021-03-27T12:14:28Z</time>
      </trkpt>
      <trkpt lat="45.65189" lon="6.81125">
        <ele>1971.7</ele>
        <time>2021-03-27T12:14:29Z</time>
      </trkpt>
      <trkpt lat="45.6519" lon="6.81125">
        <ele>1971.7</ele>
        <time>2021-03-27T12:14:30Z</time>
      </trkpt>
      <trkpt lat="45.6519" lon="6.81125">
        <ele>1971.7</ele>
        <time>2021-03-27T12:14:31Z</time>
      </trkpt>
      <trkpt lat="45.65191" lon="6.81124">
        <ele>1971.7</ele>
        <time>2021-03-27T12:14:32Z</time>
      </trkpt>
      <trkpt lat="45.65191" lon="6.81124">
        <ele>1972.7</ele>
        <time>2021-03-27T12:14:33Z</time>
      </trkpt>
      <trkpt lat="45.65192" lon="6.81124">
        <ele>1972.7</ele>
        <time>2021-03-27T12:14:34Z</time>
      </trkpt>
      <trkpt lat="45.65193" lon="6.81124">
        <ele>1972.7</ele>
        <time>2021-03-27T12:14:35Z</time>
      </trkpt>
      <trkpt lat="45.65193" lon="6.81123">
        <ele>1972.7</ele>
        <time>2021-03-27T12:14:36Z</time>
      </trkpt>
      <trkpt lat="45.65194" lon="6.81123">
        <ele>1973.7</ele>
        <time>2021-03-27T12:14:37Z</time>
      </trkpt>
      <trkpt lat="45.65195" lon="6.81123">
        <ele>1973.7</ele>
        <time>2021-03-27T12:14:38Z</time>
      </trkpt>
      <trkpt lat="45.65195" lon="6.81122">
        <ele>1973.6</ele>
        <time>2021-03-27T12:14:39Z</time>
      </trkpt>
      <trkpt lat="45.65196" lon="6.81121">
        <ele>1973.6</ele>
        <time>2021-03-27T12:14:40Z</time>
      </trkpt>
      <trkpt lat="45.65197" lon="6.81121">
        <ele>1973.6</ele>
        <time>2021-03-27T12:14:41Z</time>
      </trkpt>
      <trkpt lat="45.65197" lon="6.8112">
        <ele>1974.6</ele>
        <time>2021-03-27T12:14:42Z</time>
      </trkpt>
      <trkpt lat="45.65198" lon="6.81119">
        <ele>1974.6</ele>
        <time>2021-03-27T12:14:43Z</time>
      </trkpt>
      <trkpt lat="45.65199" lon="6.81118">
        <ele>1974.6</ele>
        <time>2021-03-27T12:14:44Z</time>
      </trkpt>
      <trkpt lat="45.65199" lon="6.81118">
        <ele>1974.4</ele>
        <time>2021-03-27T12:14:45Z</time>
      </trkpt>
      <trkpt lat="45.652" lon="6.81117">
        <ele>1974.4</ele>
        <time>2021-03-27T12:14:46Z</time>
      </trkpt>
      <trkpt lat="45.65201" lon="6.81116">
        <ele>1975.4</ele>
        <time>2021-03-27T12:14:47Z</time>
      </trkpt>
      <trkpt lat="45.65201" lon="6.81116">
        <ele>1975.4</ele>
        <time>2021-03-27T12:14:48Z</time>
      </trkpt>
      <trkpt lat="45.65202" lon="6.81115">
        <ele>1975.4</ele>
        <time>2021-03-27T12:14:49Z</time>
      </trkpt>
      <trkpt lat="45.65203" lon="6.81115">
        <ele>1975.4</ele>
        <time>2021-03-27T12:14:50Z</time>
      </trkpt>
      <trkpt lat="45.65204" lon="6.81114">
        <ele>1976</ele>
        <time>2021-03-27T12:14:51Z</time>
      </trkpt>
      <trkpt lat="45.65204" lon="6.81113">
        <ele>1976</ele>
        <time>2021-03-27T12:14:52Z</time>
      </trkpt>
      <trkpt lat="45.65205" lon="6.81112">
        <ele>1976</ele>
        <time>2021-03-27T12:14:53Z</time>
      </trkpt>
      <trkpt lat="45.65205" lon="6.81111">
        <ele>1976</ele>
        <time>2021-03-27T12:14:54Z</time>
      </trkpt>
      <trkpt lat="45.65206" lon="6.8111">
        <ele>1976.8</ele>
        <time>2021-03-27T12:14:55Z</time>
      </trkpt>
      <trkpt lat="45.65207" lon="6.81109">
        <ele>1976.4</ele>
        <time>2021-03-27T12:14:56Z</time>
      </trkpt>
      <trkpt lat="45.65208" lon="6.81108">
        <ele>1976.4</ele>
        <time>2021-03-27T12:14:57Z</time>
      </trkpt>
      <trkpt lat="45.65209" lon="6.81108">
        <ele>1976.4</ele>
        <time>2021-03-27T12:14:58Z</time>
      </trkpt>
      <trkpt lat="45.65209" lon="6.81107">
        <ele>1977.2</ele>
        <time>2021-03-27T12:14:59Z</time>
      </trkpt>
      <trkpt lat="45.6521" lon="6.81106">
        <ele>1977.2</ele>
        <time>2021-03-27T12:15:00Z</time>
      </trkpt>
      <trkpt lat="45.65211" lon="6.81106">
        <ele>1977.2</ele>
        <time>2021-03-27T12:15:01Z</time>
      </trkpt>
      <trkpt lat="45.65211" lon="6.81105">
        <ele>1976.8</ele>
        <time>2021-03-27T12:15:02Z</time>
      </trkpt>
      <trkpt lat="45.65212" lon="6.81105">
        <ele>1977.6</ele>
        <time>2021-03-27T12:15:03Z</time>
      </trkpt>
      <trkpt lat="45.65213" lon="6.81104">
        <ele>1977.6</ele>
        <time>2021-03-27T12:15:04Z</time>
      </trkpt>
      <trkpt lat="45.65213" lon="6.81104">
        <ele>1977.6</ele>
        <time>2021-03-27T12:15:05Z</time>
      </trkpt>
      <trkpt lat="45.65214" lon="6.81104">
        <ele>1977.6</ele>
        <time>2021-03-27T12:15:06Z</time>
      </trkpt>
      <trkpt lat="45.65215" lon="6.81104">
        <ele>1977.6</ele>
        <time>2021-03-27T12:15:07Z</time>
      </trkpt>
      <trkpt lat="45.65215" lon="6.81104">
        <ele>1978.3</ele>
        <time>2021-03-27T12:15:08Z</time>
      </trkpt>
      <trkpt lat="45.65216" lon="6.81104">
        <ele>1978.3</ele>
        <time>2021-03-27T12:15:09Z</time>
      </trkpt>
      <trkpt lat="45.65217" lon="6.81104">
        <ele>1978.3</ele>
        <time>2021-03-27T12:15:10Z</time>
      </trkpt>
      <trkpt lat="45.65217" lon="6.81104">
        <ele>1978.3</ele>
        <time>2021-03-27T12:15:11Z</time>
      </trkpt>
      <trkpt lat="45.65217" lon="6.81103">
        <ele>1978.3</ele>
        <time>2021-03-27T12:15:12Z</time>
      </trkpt>
      <trkpt lat="45.65218" lon="6.81103">
        <ele>1978.3</ele>
        <time>2021-03-27T12:15:13Z</time>
      </trkpt>
      <trkpt lat="45.65218" lon="6.81103">
        <ele>1979.2</ele>
        <time>2021-03-27T12:15:14Z</time>
      </trkpt>
      <trkpt lat="45.65219" lon="6.81102">
        <ele>1979.2</ele>
        <time>2021-03-27T12:15:15Z</time>
      </trkpt>
      <trkpt lat="45.65219" lon="6.81101">
        <ele>1978.8</ele>
        <time>2021-03-27T12:15:16Z</time>
      </trkpt>
      <trkpt lat="45.6522" lon="6.811">
        <ele>1978.8</ele>
        <time>2021-03-27T12:15:17Z</time>
      </trkpt>
      <trkpt lat="45.6522" lon="6.81099">
        <ele>1978.8</ele>
        <time>2021-03-27T12:15:18Z</time>
      </trkpt>
      <trkpt lat="45.6522" lon="6.81099">
        <ele>1978.8</ele>
        <time>2021-03-27T12:15:19Z</time>
      </trkpt>
      <trkpt lat="45.65221" lon="6.81099">
        <ele>1979.7</ele>
        <time>2021-03-27T12:15:20Z</time>
      </trkpt>
      <trkpt lat="45.65221" lon="6.81099">
        <ele>1979.7</ele>
        <time>2021-03-27T12:15:21Z</time>
      </trkpt>
      <trkpt lat="45.65222" lon="6.811">
        <ele>1979.7</ele>
        <time>2021-03-27T12:15:22Z</time>
      </trkpt>
      <trkpt lat="45.65223" lon="6.811">
        <ele>1979.7</ele>
        <time>2021-03-27T12:15:23Z</time>
      </trkpt>
      <trkpt lat="45.65223" lon="6.81101">
        <ele>1980.1</ele>
        <time>2021-03-27T12:15:24Z</time>
      </trkpt>
      <trkpt lat="45.65223" lon="6.81103">
        <ele>1980.1</ele>
        <time>2021-03-27T12:15:25Z</time>
      </trkpt>
      <trkpt lat="45.65223" lon="6.81105">
        <ele>1980.1</ele>
        <time>2021-03-27T12:15:26Z</time>
      </trkpt>
      <trkpt lat="45.65223" lon="6.81106">
        <ele>1980.4</ele>
        <time>2021-03-27T12:15:27Z</time>
      </trkpt>
      <trkpt lat="45.65223" lon="6.8111">
        <ele>1980.7</ele>
        <time>2021-03-27T12:15:28Z</time>
      </trkpt>
      <trkpt lat="45.65222" lon="6.81111">
        <ele>1980.7</ele>
        <time>2021-03-27T12:15:29Z</time>
      </trkpt>
      <trkpt lat="45.65222" lon="6.81112">
        <ele>1980.7</ele>
        <time>2021-03-27T12:15:30Z</time>
      </trkpt>
      <trkpt lat="45.65221" lon="6.81115">
        <ele>1980.9</ele>
        <time>2021-03-27T12:15:31Z</time>
      </trkpt>
      <trkpt lat="45.65221" lon="6.81116">
        <ele>1980.9</ele>
        <time>2021-03-27T12:15:32Z</time>
      </trkpt>
      <trkpt lat="45.65221" lon="6.81117">
        <ele>1980.1</ele>
        <time>2021-03-27T12:15:33Z</time>
      </trkpt>
      <trkpt lat="45.6522" lon="6.81119">
        <ele>1980.2</ele>
        <time>2021-03-27T12:15:34Z</time>
      </trkpt>
      <trkpt lat="45.6522" lon="6.8112">
        <ele>1980.2</ele>
        <time>2021-03-27T12:15:35Z</time>
      </trkpt>
      <trkpt lat="45.6522" lon="6.81122">
        <ele>1980.2</ele>
        <time>2021-03-27T12:15:36Z</time>
      </trkpt>
      <trkpt lat="45.65219" lon="6.81124">
        <ele>1980.4</ele>
        <time>2021-03-27T12:15:37Z</time>
      </trkpt>
      <trkpt lat="45.65219" lon="6.81125">
        <ele>1980.4</ele>
        <time>2021-03-27T12:15:38Z</time>
      </trkpt>
      <trkpt lat="45.65219" lon="6.81126">
        <ele>1980.4</ele>
        <time>2021-03-27T12:15:39Z</time>
      </trkpt>
      <trkpt lat="45.65218" lon="6.81127">
        <ele>1980.4</ele>
        <time>2021-03-27T12:15:40Z</time>
      </trkpt>
      <trkpt lat="45.65218" lon="6.81128">
        <ele>1980.4</ele>
        <time>2021-03-27T12:15:41Z</time>
      </trkpt>
      <trkpt lat="45.65218" lon="6.81129">
        <ele>1980.4</ele>
        <time>2021-03-27T12:15:42Z</time>
      </trkpt>
      <trkpt lat="45.65218" lon="6.8113">
        <ele>1980.4</ele>
        <time>2021-03-27T12:15:43Z</time>
      </trkpt>
      <trkpt lat="45.65218" lon="6.81131">
        <ele>1980.4</ele>
        <time>2021-03-27T12:15:44Z</time>
      </trkpt>
      <trkpt lat="45.65218" lon="6.81132">
        <ele>1980.4</ele>
        <time>2021-03-27T12:15:45Z</time>
      </trkpt>
      <trkpt lat="45.65218" lon="6.81133">
        <ele>1980.4</ele>
        <time>2021-03-27T12:15:46Z</time>
      </trkpt>
      <trkpt lat="45.65218" lon="6.81135">
        <ele>1980.4</ele>
        <time>2021-03-27T12:15:47Z</time>
      </trkpt>
      <trkpt lat="45.65218" lon="6.81136">
        <ele>1980.3</ele>
        <time>2021-03-27T12:15:48Z</time>
      </trkpt>
      <trkpt lat="45.65219" lon="6.81137">
        <ele>1980.3</ele>
        <time>2021-03-27T12:15:49Z</time>
      </trkpt>
      <trkpt lat="45.65219" lon="6.81137">
        <ele>1980.3</ele>
        <time>2021-03-27T12:15:50Z</time>
      </trkpt>
      <trkpt lat="45.6522" lon="6.81138">
        <ele>1980.3</ele>
        <time>2021-03-27T12:15:51Z</time>
      </trkpt>
      <trkpt lat="45.6522" lon="6.81138">
        <ele>1980.3</ele>
        <time>2021-03-27T12:15:52Z</time>
      </trkpt>
      <trkpt lat="45.65221" lon="6.81139">
        <ele>1980.3</ele>
        <time>2021-03-27T12:15:53Z</time>
      </trkpt>
      <trkpt lat="45.65221" lon="6.81139">
        <ele>1981.1</ele>
        <time>2021-03-27T12:15:54Z</time>
      </trkpt>
      <trkpt lat="45.65222" lon="6.81139">
        <ele>1981.1</ele>
        <time>2021-03-27T12:15:55Z</time>
      </trkpt>
      <trkpt lat="45.65223" lon="6.81139">
        <ele>1981.1</ele>
        <time>2021-03-27T12:15:56Z</time>
      </trkpt>
      <trkpt lat="45.65224" lon="6.81139">
        <ele>1981.1</ele>
        <time>2021-03-27T12:15:57Z</time>
      </trkpt>
      <trkpt lat="45.65224" lon="6.81139">
        <ele>1981.8</ele>
        <time>2021-03-27T12:15:58Z</time>
      </trkpt>
      <trkpt lat="45.65225" lon="6.81138">
        <ele>1981.8</ele>
        <time>2021-03-27T12:15:59Z</time>
      </trkpt>
      <trkpt lat="45.65225" lon="6.81138">
        <ele>1981.8</ele>
        <time>2021-03-27T12:16:00Z</time>
      </trkpt>
      <trkpt lat="45.65225" lon="6.81138">
        <ele>1981.8</ele>
        <time>2021-03-27T12:16:01Z</time>
      </trkpt>
      <trkpt lat="45.65226" lon="6.81138">
        <ele>1981.8</ele>
        <time>2021-03-27T12:16:02Z</time>
      </trkpt>
      <trkpt lat="45.65226" lon="6.81137">
        <ele>1981.8</ele>
        <time>2021-03-27T12:16:03Z</time>
      </trkpt>
      <trkpt lat="45.65226" lon="6.81137">
        <ele>1981.8</ele>
        <time>2021-03-27T12:16:04Z</time>
      </trkpt>
      <trkpt lat="45.65226" lon="6.81137">
        <ele>1981.8</ele>
        <time>2021-03-27T12:16:05Z</time>
      </trkpt>
      <trkpt lat="45.65227" lon="6.81136">
        <ele>1981.8</ele>
        <time>2021-03-27T12:16:06Z</time>
      </trkpt>
      <trkpt lat="45.65227" lon="6.81136">
        <ele>1982.4</ele>
        <time>2021-03-27T12:16:07Z</time>
      </trkpt>
      <trkpt lat="45.65227" lon="6.81136">
        <ele>1982.4</ele>
        <time>2021-03-27T12:16:08Z</time>
      </trkpt>
      <trkpt lat="45.65228" lon="6.81135">
        <ele>1982.5</ele>
        <time>2021-03-27T12:16:09Z</time>
      </trkpt>
      <trkpt lat="45.65228" lon="6.81135">
        <ele>1982.5</ele>
        <time>2021-03-27T12:16:10Z</time>
      </trkpt>
      <trkpt lat="45.65228" lon="6.81135">
        <ele>1982.5</ele>
        <time>2021-03-27T12:16:23Z</time>
      </trkpt>
      <trkpt lat="45.65228" lon="6.81134">
        <ele>1982.5</ele>
        <time>2021-03-27T12:16:24Z</time>
      </trkpt>
      <trkpt lat="45.65229" lon="6.81134">
        <ele>1982.5</ele>
        <time>2021-03-27T12:16:25Z</time>
      </trkpt>
      <trkpt lat="45.65229" lon="6.81134">
        <ele>1982.5</ele>
        <time>2021-03-27T12:16:26Z</time>
      </trkpt>
      <trkpt lat="45.6523" lon="6.81133">
        <ele>1982.5</ele>
        <time>2021-03-27T12:16:27Z</time>
      </trkpt>
      <trkpt lat="45.6523" lon="6.81132">
        <ele>1983.1</ele>
        <time>2021-03-27T12:16:28Z</time>
      </trkpt>
      <trkpt lat="45.65231" lon="6.81131">
        <ele>1983.1</ele>
        <time>2021-03-27T12:16:29Z</time>
      </trkpt>
      <trkpt lat="45.65231" lon="6.8113">
        <ele>1983.1</ele>
        <time>2021-03-27T12:16:30Z</time>
      </trkpt>
      <trkpt lat="45.65232" lon="6.81129">
        <ele>1983.1</ele>
        <time>2021-03-27T12:16:31Z</time>
      </trkpt>
      <trkpt lat="45.65232" lon="6.81128">
        <ele>1983.1</ele>
        <time>2021-03-27T12:16:32Z</time>
      </trkpt>
      <trkpt lat="45.65233" lon="6.81127">
        <ele>1983.1</ele>
        <time>2021-03-27T12:16:33Z</time>
      </trkpt>
      <trkpt lat="45.65233" lon="6.81127">
        <ele>1983.6</ele>
        <time>2021-03-27T12:16:34Z</time>
      </trkpt>
      <trkpt lat="45.65234" lon="6.81126">
        <ele>1983.6</ele>
        <time>2021-03-27T12:16:35Z</time>
      </trkpt>
      <trkpt lat="45.65235" lon="6.81125">
        <ele>1983.6</ele>
        <time>2021-03-27T12:16:36Z</time>
      </trkpt>
      <trkpt lat="45.65235" lon="6.81125">
        <ele>1983.6</ele>
        <time>2021-03-27T12:16:37Z</time>
      </trkpt>
      <trkpt lat="45.65236" lon="6.81125">
        <ele>1983.6</ele>
        <time>2021-03-27T12:16:38Z</time>
      </trkpt>
      <trkpt lat="45.65236" lon="6.81125">
        <ele>1984.1</ele>
        <time>2021-03-27T12:16:39Z</time>
      </trkpt>
      <trkpt lat="45.65237" lon="6.81125">
        <ele>1984.1</ele>
        <time>2021-03-27T12:16:40Z</time>
      </trkpt>
      <trkpt lat="45.65237" lon="6.81125">
        <ele>1984.1</ele>
        <time>2021-03-27T12:16:41Z</time>
      </trkpt>
      <trkpt lat="45.65237" lon="6.81126">
        <ele>1984.1</ele>
        <time>2021-03-27T12:16:42Z</time>
      </trkpt>
      <trkpt lat="45.65238" lon="6.81126">
        <ele>1984.1</ele>
        <time>2021-03-27T12:16:43Z</time>
      </trkpt>
      <trkpt lat="45.65238" lon="6.81126">
        <ele>1984.1</ele>
        <time>2021-03-27T12:16:44Z</time>
      </trkpt>
      <trkpt lat="45.65239" lon="6.81126">
        <ele>1984.1</ele>
        <time>2021-03-27T12:16:45Z</time>
      </trkpt>
      <trkpt lat="45.65239" lon="6.81126">
        <ele>1984.6</ele>
        <time>2021-03-27T12:16:46Z</time>
      </trkpt>
      <trkpt lat="45.6524" lon="6.81126">
        <ele>1984.6</ele>
        <time>2021-03-27T12:16:47Z</time>
      </trkpt>
      <trkpt lat="45.6524" lon="6.81126">
        <ele>1984.6</ele>
        <time>2021-03-27T12:16:48Z</time>
      </trkpt>
      <trkpt lat="45.65241" lon="6.81127">
        <ele>1984.6</ele>
        <time>2021-03-27T12:17:12Z</time>
      </trkpt>
      <trkpt lat="45.65241" lon="6.81127">
        <ele>1984.6</ele>
        <time>2021-03-27T12:17:13Z</time>
      </trkpt>
      <trkpt lat="45.65242" lon="6.81127">
        <ele>1984.6</ele>
        <time>2021-03-27T12:17:14Z</time>
      </trkpt>
      <trkpt lat="45.65242" lon="6.81127">
        <ele>1985.1</ele>
        <time>2021-03-27T12:17:15Z</time>
      </trkpt>
      <trkpt lat="45.65243" lon="6.81127">
        <ele>1985.1</ele>
        <time>2021-03-27T12:17:16Z</time>
      </trkpt>
      <trkpt lat="45.65243" lon="6.81127">
        <ele>1985.1</ele>
        <time>2021-03-27T12:17:17Z</time>
      </trkpt>
      <trkpt lat="45.65244" lon="6.81128">
        <ele>1985.1</ele>
        <time>2021-03-27T12:17:18Z</time>
      </trkpt>
      <trkpt lat="45.65244" lon="6.81128">
        <ele>1985.1</ele>
        <time>2021-03-27T12:17:19Z</time>
      </trkpt>
      <trkpt lat="45.65245" lon="6.81128">
        <ele>1985.1</ele>
        <time>2021-03-27T12:17:20Z</time>
      </trkpt>
      <trkpt lat="45.65245" lon="6.81128">
        <ele>1986</ele>
        <time>2021-03-27T12:17:21Z</time>
      </trkpt>
      <trkpt lat="45.65245" lon="6.81128">
        <ele>1986</ele>
        <time>2021-03-27T12:17:22Z</time>
      </trkpt>
      <trkpt lat="45.65246" lon="6.81128">
        <ele>1986</ele>
        <time>2021-03-27T12:17:23Z</time>
      </trkpt>
      <trkpt lat="45.65246" lon="6.81128">
        <ele>1986</ele>
        <time>2021-03-27T12:17:24Z</time>
      </trkpt>
      <trkpt lat="45.65247" lon="6.81129">
        <ele>1986</ele>
        <time>2021-03-27T12:22:34Z</time>
      </trkpt>
      <trkpt lat="45.65247" lon="6.81129">
        <ele>1986</ele>
        <time>2021-03-27T12:22:35Z</time>
      </trkpt>
      <trkpt lat="45.65248" lon="6.81129">
        <ele>1986</ele>
        <time>2021-03-27T12:22:36Z</time>
      </trkpt>
      <trkpt lat="45.65248" lon="6.81129">
        <ele>1986.6</ele>
        <time>2021-03-27T12:22:37Z</time>
      </trkpt>
      <trkpt lat="45.65249" lon="6.81129">
        <ele>1986.6</ele>
        <time>2021-03-27T12:22:38Z</time>
      </trkpt>
      <trkpt lat="45.65249" lon="6.8113">
        <ele>1986.6</ele>
        <time>2021-03-27T12:22:39Z</time>
      </trkpt>
      <trkpt lat="45.65249" lon="6.81131">
        <ele>1986.6</ele>
        <time>2021-03-27T12:22:40Z</time>
      </trkpt>
      <trkpt lat="45.65249" lon="6.81131">
        <ele>1986.6</ele>
        <time>2021-03-27T12:22:41Z</time>
      </trkpt>
      <trkpt lat="45.6525" lon="6.81132">
        <ele>1986.5</ele>
        <time>2021-03-27T12:22:42Z</time>
      </trkpt>
      <trkpt lat="45.6525" lon="6.81133">
        <ele>1986.5</ele>
        <time>2021-03-27T12:22:43Z</time>
      </trkpt>
      <trkpt lat="45.6525" lon="6.81135">
        <ele>1986.5</ele>
        <time>2021-03-27T12:22:44Z</time>
      </trkpt>
      <trkpt lat="45.6525" lon="6.81136">
        <ele>1986.3</ele>
        <time>2021-03-27T12:22:45Z</time>
      </trkpt>
      <trkpt lat="45.6525" lon="6.81136">
        <ele>1986.3</ele>
        <time>2021-03-27T12:22:46Z</time>
      </trkpt>
      <trkpt lat="45.6525" lon="6.81137">
        <ele>1986.3</ele>
        <time>2021-03-27T12:22:47Z</time>
      </trkpt>
      <trkpt lat="45.6525" lon="6.81137">
        <ele>1986.3</ele>
        <time>2021-03-27T12:22:48Z</time>
      </trkpt>
      <trkpt lat="45.65251" lon="6.81137">
        <ele>1986.3</ele>
        <time>2021-03-27T12:22:49Z</time>
      </trkpt>
      <trkpt lat="45.65252" lon="6.81138">
        <ele>1986.9</ele>
        <time>2021-03-27T12:22:50Z</time>
      </trkpt>
      <trkpt lat="45.65253" lon="6.81138">
        <ele>1986.9</ele>
        <time>2021-03-27T12:22:51Z</time>
      </trkpt>
      <trkpt lat="45.65254" lon="6.81139">
        <ele>1986.9</ele>
        <time>2021-03-27T12:22:52Z</time>
      </trkpt>
      <trkpt lat="45.65254" lon="6.81139">
        <ele>1987.5</ele>
        <time>2021-03-27T12:22:53Z</time>
      </trkpt>
      <trkpt lat="45.65255" lon="6.81139">
        <ele>1987.5</ele>
        <time>2021-03-27T12:22:54Z</time>
      </trkpt>
      <trkpt lat="45.65255" lon="6.81139">
        <ele>1987.5</ele>
        <time>2021-03-27T12:22:55Z</time>
      </trkpt>
      <trkpt lat="45.65256" lon="6.8114">
        <ele>1987.4</ele>
        <time>2021-03-27T12:22:56Z</time>
      </trkpt>
      <trkpt lat="45.65257" lon="6.8114">
        <ele>1987.4</ele>
        <time>2021-03-27T12:22:57Z</time>
      </trkpt>
      <trkpt lat="45.65257" lon="6.81141">
        <ele>1988</ele>
        <time>2021-03-27T12:22:58Z</time>
      </trkpt>
      <trkpt lat="45.65258" lon="6.81141">
        <ele>1988</ele>
        <time>2021-03-27T12:22:59Z</time>
      </trkpt>
      <trkpt lat="45.65258" lon="6.81141">
        <ele>1988</ele>
        <time>2021-03-27T12:23:00Z</time>
      </trkpt>
      <trkpt lat="45.65259" lon="6.81142">
        <ele>1988</ele>
        <time>2021-03-27T12:23:01Z</time>
      </trkpt>
      <trkpt lat="45.6526" lon="6.81142">
        <ele>1988</ele>
        <time>2021-03-27T12:23:02Z</time>
      </trkpt>
      <trkpt lat="45.6526" lon="6.81142">
        <ele>1988.5</ele>
        <time>2021-03-27T12:23:03Z</time>
      </trkpt>
      <trkpt lat="45.65261" lon="6.81143">
        <ele>1988.5</ele>
        <time>2021-03-27T12:23:04Z</time>
      </trkpt>
      <trkpt lat="45.65262" lon="6.81143">
        <ele>1988.5</ele>
        <time>2021-03-27T12:23:05Z</time>
      </trkpt>
      <trkpt lat="45.65262" lon="6.81143">
        <ele>1988.5</ele>
        <time>2021-03-27T12:23:06Z</time>
      </trkpt>
      <trkpt lat="45.65263" lon="6.81143">
        <ele>1989.1</ele>
        <time>2021-03-27T12:23:07Z</time>
      </trkpt>
      <trkpt lat="45.65264" lon="6.81143">
        <ele>1989.1</ele>
        <time>2021-03-27T12:23:08Z</time>
      </trkpt>
      <trkpt lat="45.65264" lon="6.81143">
        <ele>1989.1</ele>
        <time>2021-03-27T12:23:09Z</time>
      </trkpt>
      <trkpt lat="45.65264" lon="6.81143">
        <ele>1989.1</ele>
        <time>2021-03-27T12:23:10Z</time>
      </trkpt>
      <trkpt lat="45.65265" lon="6.81143">
        <ele>1989.1</ele>
        <time>2021-03-27T12:23:11Z</time>
      </trkpt>
      <trkpt lat="45.65265" lon="6.81143">
        <ele>1989.1</ele>
        <time>2021-03-27T12:23:12Z</time>
      </trkpt>
      <trkpt lat="45.65265" lon="6.81143">
        <ele>1989.1</ele>
        <time>2021-03-27T12:23:13Z</time>
      </trkpt>
      <trkpt lat="45.65266" lon="6.81144">
        <ele>1989.1</ele>
        <time>2021-03-27T12:23:14Z</time>
      </trkpt>
      <trkpt lat="45.65266" lon="6.81143">
        <ele>1989.7</ele>
        <time>2021-03-27T12:23:15Z</time>
      </trkpt>
      <trkpt lat="45.65267" lon="6.81143">
        <ele>1989.7</ele>
        <time>2021-03-27T12:23:16Z</time>
      </trkpt>
      <trkpt lat="45.65267" lon="6.81143">
        <ele>1989.7</ele>
        <time>2021-03-27T12:23:17Z</time>
      </trkpt>
      <trkpt lat="45.65268" lon="6.81142">
        <ele>1989.7</ele>
        <time>2021-03-27T12:23:18Z</time>
      </trkpt>
      <trkpt lat="45.65269" lon="6.81141">
        <ele>1989.7</ele>
        <time>2021-03-27T12:23:19Z</time>
      </trkpt>
      <trkpt lat="45.65269" lon="6.8114">
        <ele>1990.3</ele>
        <time>2021-03-27T12:23:20Z</time>
      </trkpt>
      <trkpt lat="45.6527" lon="6.81139">
        <ele>1990.5</ele>
        <time>2021-03-27T12:23:21Z</time>
      </trkpt>
      <trkpt lat="45.6527" lon="6.81139">
        <ele>1990.5</ele>
        <time>2021-03-27T12:23:22Z</time>
      </trkpt>
      <trkpt lat="45.6527" lon="6.81138">
        <ele>1990.5</ele>
        <time>2021-03-27T12:23:23Z</time>
      </trkpt>
      <trkpt lat="45.6527" lon="6.81137">
        <ele>1990.5</ele>
        <time>2021-03-27T12:23:24Z</time>
      </trkpt>
      <trkpt lat="45.65271" lon="6.81137">
        <ele>1990.5</ele>
        <time>2021-03-27T12:23:25Z</time>
      </trkpt>
      <trkpt lat="45.65271" lon="6.81136">
        <ele>1990.5</ele>
        <time>2021-03-27T12:23:26Z</time>
      </trkpt>
      <trkpt lat="45.65271" lon="6.81136">
        <ele>1990.5</ele>
        <time>2021-03-27T12:23:27Z</time>
      </trkpt>
      <trkpt lat="45.65271" lon="6.81135">
        <ele>1990.6</ele>
        <time>2021-03-27T12:23:28Z</time>
      </trkpt>
      <trkpt lat="45.65272" lon="6.81135">
        <ele>1991.3</ele>
        <time>2021-03-27T12:23:29Z</time>
      </trkpt>
      <trkpt lat="45.65273" lon="6.81135">
        <ele>1991.3</ele>
        <time>2021-03-27T12:23:30Z</time>
      </trkpt>
      <trkpt lat="45.65273" lon="6.81135">
        <ele>1991.3</ele>
        <time>2021-03-27T12:23:31Z</time>
      </trkpt>
      <trkpt lat="45.65274" lon="6.81135">
        <ele>1991.3</ele>
        <time>2021-03-27T12:23:32Z</time>
      </trkpt>
      <trkpt lat="45.65275" lon="6.81135">
        <ele>1991.3</ele>
        <time>2021-03-27T12:23:33Z</time>
      </trkpt>
      <trkpt lat="45.65275" lon="6.81135">
        <ele>1992.1</ele>
        <time>2021-03-27T12:23:34Z</time>
      </trkpt>
      <trkpt lat="45.65276" lon="6.81135">
        <ele>1992.1</ele>
        <time>2021-03-27T12:23:35Z</time>
      </trkpt>
      <trkpt lat="45.65277" lon="6.81135">
        <ele>1992.1</ele>
        <time>2021-03-27T12:23:36Z</time>
      </trkpt>
      <trkpt lat="45.65277" lon="6.81135">
        <ele>1992.1</ele>
        <time>2021-03-27T12:23:37Z</time>
      </trkpt>
      <trkpt lat="45.65278" lon="6.81135">
        <ele>1992.9</ele>
        <time>2021-03-27T12:23:38Z</time>
      </trkpt>
      <trkpt lat="45.65279" lon="6.81135">
        <ele>1992.9</ele>
        <time>2021-03-27T12:23:39Z</time>
      </trkpt>
      <trkpt lat="45.6528" lon="6.81135">
        <ele>1992.7</ele>
        <time>2021-03-27T12:23:40Z</time>
      </trkpt>
      <trkpt lat="45.6528" lon="6.81135">
        <ele>1992.7</ele>
        <time>2021-03-27T12:23:41Z</time>
      </trkpt>
      <trkpt lat="45.6528" lon="6.81136">
        <ele>1992.7</ele>
        <time>2021-03-27T12:23:42Z</time>
      </trkpt>
      <trkpt lat="45.65281" lon="6.81136">
        <ele>1992.7</ele>
        <time>2021-03-27T12:23:43Z</time>
      </trkpt>
      <trkpt lat="45.65281" lon="6.81136">
        <ele>1993.6</ele>
        <time>2021-03-27T12:23:44Z</time>
      </trkpt>
      <trkpt lat="45.65281" lon="6.81136">
        <ele>1993.6</ele>
        <time>2021-03-27T12:23:45Z</time>
      </trkpt>
      <trkpt lat="45.65282" lon="6.81136">
        <ele>1993.6</ele>
        <time>2021-03-27T12:23:46Z</time>
      </trkpt>
      <trkpt lat="45.65282" lon="6.81136">
        <ele>1993.6</ele>
        <time>2021-03-27T12:23:47Z</time>
      </trkpt>
      <trkpt lat="45.65282" lon="6.81137">
        <ele>1993.6</ele>
        <time>2021-03-27T12:23:48Z</time>
      </trkpt>
      <trkpt lat="45.65283" lon="6.81137">
        <ele>1993.6</ele>
        <time>2021-03-27T12:23:49Z</time>
      </trkpt>
      <trkpt lat="45.65283" lon="6.81137">
        <ele>1993.6</ele>
        <time>2021-03-27T12:23:50Z</time>
      </trkpt>
      <trkpt lat="45.65283" lon="6.81137">
        <ele>1993.6</ele>
        <time>2021-03-27T12:23:51Z</time>
      </trkpt>
      <trkpt lat="45.65284" lon="6.81137">
        <ele>1993.6</ele>
        <time>2021-03-27T12:24:11Z</time>
      </trkpt>
      <trkpt lat="45.65284" lon="6.81138">
        <ele>1994.4</ele>
        <time>2021-03-27T12:24:12Z</time>
      </trkpt>
      <trkpt lat="45.65284" lon="6.81138">
        <ele>1994.4</ele>
        <time>2021-03-27T12:24:13Z</time>
      </trkpt>
      <trkpt lat="45.65285" lon="6.81138">
        <ele>1994.4</ele>
        <time>2021-03-27T12:24:14Z</time>
      </trkpt>
      <trkpt lat="45.65286" lon="6.81138">
        <ele>1994.4</ele>
        <time>2021-03-27T12:24:15Z</time>
      </trkpt>
      <trkpt lat="45.65287" lon="6.81139">
        <ele>1995.1</ele>
        <time>2021-03-27T12:24:16Z</time>
      </trkpt>
      <trkpt lat="45.65288" lon="6.81139">
        <ele>1995.1</ele>
        <time>2021-03-27T12:24:17Z</time>
      </trkpt>
      <trkpt lat="45.65289" lon="6.8114">
        <ele>1995</ele>
        <time>2021-03-27T12:24:18Z</time>
      </trkpt>
      <trkpt lat="45.6529" lon="6.8114">
        <ele>1995.7</ele>
        <time>2021-03-27T12:24:19Z</time>
      </trkpt>
      <trkpt lat="45.65292" lon="6.81141">
        <ele>1995.7</ele>
        <time>2021-03-27T12:24:20Z</time>
      </trkpt>
      <trkpt lat="45.65292" lon="6.81142">
        <ele>1995.7</ele>
        <time>2021-03-27T12:24:21Z</time>
      </trkpt>
      <trkpt lat="45.65293" lon="6.81142">
        <ele>1995.7</ele>
        <time>2021-03-27T12:24:22Z</time>
      </trkpt>
      <trkpt lat="45.65293" lon="6.81142">
        <ele>1996.4</ele>
        <time>2021-03-27T12:24:23Z</time>
      </trkpt>
      <trkpt lat="45.65294" lon="6.81143">
        <ele>1996.4</ele>
        <time>2021-03-27T12:24:24Z</time>
      </trkpt>
      <trkpt lat="45.65294" lon="6.81144">
        <ele>1996.4</ele>
        <time>2021-03-27T12:24:25Z</time>
      </trkpt>
      <trkpt lat="45.65295" lon="6.81144">
        <ele>1996.3</ele>
        <time>2021-03-27T12:24:26Z</time>
      </trkpt>
      <trkpt lat="45.65295" lon="6.81145">
        <ele>1996.3</ele>
        <time>2021-03-27T12:24:27Z</time>
      </trkpt>
      <trkpt lat="45.65296" lon="6.81145">
        <ele>1996.3</ele>
        <time>2021-03-27T12:24:28Z</time>
      </trkpt>
      <trkpt lat="45.65296" lon="6.81146">
        <ele>1997</ele>
        <time>2021-03-27T12:24:29Z</time>
      </trkpt>
      <trkpt lat="45.65297" lon="6.81147">
        <ele>1997</ele>
        <time>2021-03-27T12:24:30Z</time>
      </trkpt>
      <trkpt lat="45.65297" lon="6.81147">
        <ele>1997</ele>
        <time>2021-03-27T12:24:31Z</time>
      </trkpt>
      <trkpt lat="45.65297" lon="6.81148">
        <ele>1997</ele>
        <time>2021-03-27T12:24:32Z</time>
      </trkpt>
      <trkpt lat="45.65298" lon="6.81148">
        <ele>1997</ele>
        <time>2021-03-27T12:24:33Z</time>
      </trkpt>
      <trkpt lat="45.65298" lon="6.81148">
        <ele>1997</ele>
        <time>2021-03-27T12:24:34Z</time>
      </trkpt>
      <trkpt lat="45.65298" lon="6.81148">
        <ele>1997</ele>
        <time>2021-03-27T12:24:35Z</time>
      </trkpt>
      <trkpt lat="45.65299" lon="6.81148">
        <ele>1997</ele>
        <time>2021-03-27T12:24:36Z</time>
      </trkpt>
      <trkpt lat="45.65299" lon="6.81149">
        <ele>1997.9</ele>
        <time>2021-03-27T12:24:37Z</time>
      </trkpt>
      <trkpt lat="45.653" lon="6.8115">
        <ele>1997.9</ele>
        <time>2021-03-27T12:24:38Z</time>
      </trkpt>
      <trkpt lat="45.653" lon="6.81151">
        <ele>1997.9</ele>
        <time>2021-03-27T12:24:39Z</time>
      </trkpt>
      <trkpt lat="45.65301" lon="6.81152">
        <ele>1997.9</ele>
        <time>2021-03-27T12:24:40Z</time>
      </trkpt>
      <trkpt lat="45.65301" lon="6.81153">
        <ele>1998</ele>
        <time>2021-03-27T12:24:41Z</time>
      </trkpt>
      <trkpt lat="45.65302" lon="6.81155">
        <ele>1998</ele>
        <time>2021-03-27T12:24:42Z</time>
      </trkpt>
      <trkpt lat="45.65302" lon="6.81156">
        <ele>1999</ele>
        <time>2021-03-27T12:24:43Z</time>
      </trkpt>
      <trkpt lat="45.65302" lon="6.81157">
        <ele>1999.1</ele>
        <time>2021-03-27T12:24:44Z</time>
      </trkpt>
      <trkpt lat="45.65303" lon="6.81159">
        <ele>1999.1</ele>
        <time>2021-03-27T12:24:45Z</time>
      </trkpt>
      <trkpt lat="45.65303" lon="6.8116">
        <ele>1999.1</ele>
        <time>2021-03-27T12:24:46Z</time>
      </trkpt>
      <trkpt lat="45.65303" lon="6.81161">
        <ele>1999.4</ele>
        <time>2021-03-27T12:24:47Z</time>
      </trkpt>
      <trkpt lat="45.65303" lon="6.81162">
        <ele>1999.4</ele>
        <time>2021-03-27T12:24:48Z</time>
      </trkpt>
      <trkpt lat="45.65303" lon="6.81163">
        <ele>1999.4</ele>
        <time>2021-03-27T12:24:49Z</time>
      </trkpt>
      <trkpt lat="45.65303" lon="6.81164">
        <ele>1999.4</ele>
        <time>2021-03-27T12:24:50Z</time>
      </trkpt>
      <trkpt lat="45.65303" lon="6.81165">
        <ele>1999.4</ele>
        <time>2021-03-27T12:24:51Z</time>
      </trkpt>
      <trkpt lat="45.65304" lon="6.81166">
        <ele>1999.6</ele>
        <time>2021-03-27T12:24:52Z</time>
      </trkpt>
      <trkpt lat="45.65305" lon="6.81166">
        <ele>2000.7</ele>
        <time>2021-03-27T12:24:53Z</time>
      </trkpt>
      <trkpt lat="45.65306" lon="6.81167">
        <ele>2000.7</ele>
        <time>2021-03-27T12:24:54Z</time>
      </trkpt>
      <trkpt lat="45.65307" lon="6.81166">
        <ele>2000.7</ele>
        <time>2021-03-27T12:24:55Z</time>
      </trkpt>
      <trkpt lat="45.65308" lon="6.81166">
        <ele>2000.7</ele>
        <time>2021-03-27T12:24:56Z</time>
      </trkpt>
      <trkpt lat="45.65308" lon="6.81165">
        <ele>2001.4</ele>
        <time>2021-03-27T12:24:57Z</time>
      </trkpt>
      <trkpt lat="45.65309" lon="6.81164">
        <ele>2001.4</ele>
        <time>2021-03-27T12:24:58Z</time>
      </trkpt>
      <trkpt lat="45.6531" lon="6.81164">
        <ele>2001.4</ele>
        <time>2021-03-27T12:24:59Z</time>
      </trkpt>
      <trkpt lat="45.65311" lon="6.81163">
        <ele>2002.4</ele>
        <time>2021-03-27T12:25:00Z</time>
      </trkpt>
      <trkpt lat="45.65312" lon="6.81162">
        <ele>2002.4</ele>
        <time>2021-03-27T12:25:01Z</time>
      </trkpt>
      <trkpt lat="45.65313" lon="6.81161">
        <ele>2002.1</ele>
        <time>2021-03-27T12:25:02Z</time>
      </trkpt>
      <trkpt lat="45.65314" lon="6.81159">
        <ele>2002.1</ele>
        <time>2021-03-27T12:25:03Z</time>
      </trkpt>
      <trkpt lat="45.65314" lon="6.81158">
        <ele>2003</ele>
        <time>2021-03-27T12:25:04Z</time>
      </trkpt>
      <trkpt lat="45.65315" lon="6.81158">
        <ele>2003</ele>
        <time>2021-03-27T12:25:05Z</time>
      </trkpt>
      <trkpt lat="45.65315" lon="6.81157">
        <ele>2003</ele>
        <time>2021-03-27T12:25:06Z</time>
      </trkpt>
      <trkpt lat="45.65316" lon="6.81157">
        <ele>2003</ele>
        <time>2021-03-27T12:25:07Z</time>
      </trkpt>
      <trkpt lat="45.65316" lon="6.81156">
        <ele>2002.8</ele>
        <time>2021-03-27T12:25:08Z</time>
      </trkpt>
      <trkpt lat="45.65317" lon="6.81156">
        <ele>2002.8</ele>
        <time>2021-03-27T12:25:09Z</time>
      </trkpt>
      <trkpt lat="45.65317" lon="6.81155">
        <ele>2003.7</ele>
        <time>2021-03-27T12:25:10Z</time>
      </trkpt>
      <trkpt lat="45.65318" lon="6.81155">
        <ele>2003.7</ele>
        <time>2021-03-27T12:25:11Z</time>
      </trkpt>
      <trkpt lat="45.65319" lon="6.81155">
        <ele>2003.7</ele>
        <time>2021-03-27T12:25:12Z</time>
      </trkpt>
      <trkpt lat="45.65319" lon="6.81155">
        <ele>2003.7</ele>
        <time>2021-03-27T12:25:13Z</time>
      </trkpt>
      <trkpt lat="45.6532" lon="6.81155">
        <ele>2003.7</ele>
        <time>2021-03-27T12:25:14Z</time>
      </trkpt>
      <trkpt lat="45.65321" lon="6.81156">
        <ele>2004.6</ele>
        <time>2021-03-27T12:25:15Z</time>
      </trkpt>
      <trkpt lat="45.65321" lon="6.81157">
        <ele>2004.8</ele>
        <time>2021-03-27T12:25:16Z</time>
      </trkpt>
      <trkpt lat="45.65322" lon="6.81158">
        <ele>2004.8</ele>
        <time>2021-03-27T12:25:17Z</time>
      </trkpt>
      <trkpt lat="45.65322" lon="6.81159">
        <ele>2004.8</ele>
        <time>2021-03-27T12:25:18Z</time>
      </trkpt>
      <trkpt lat="45.65322" lon="6.8116">
        <ele>2004.8</ele>
        <time>2021-03-27T12:25:19Z</time>
      </trkpt>
      <trkpt lat="45.65323" lon="6.81161">
        <ele>2005</ele>
        <time>2021-03-27T12:25:20Z</time>
      </trkpt>
      <trkpt lat="45.65323" lon="6.81162">
        <ele>2006</ele>
        <time>2021-03-27T12:25:21Z</time>
      </trkpt>
      <trkpt lat="45.65323" lon="6.81163">
        <ele>2006</ele>
        <time>2021-03-27T12:25:22Z</time>
      </trkpt>
      <trkpt lat="45.65323" lon="6.81164">
        <ele>2006</ele>
        <time>2021-03-27T12:25:23Z</time>
      </trkpt>
      <trkpt lat="45.65324" lon="6.81165">
        <ele>2006</ele>
        <time>2021-03-27T12:25:24Z</time>
      </trkpt>
      <trkpt lat="45.65324" lon="6.81165">
        <ele>2006</ele>
        <time>2021-03-27T12:25:25Z</time>
      </trkpt>
      <trkpt lat="45.65324" lon="6.81166">
        <ele>2006.3</ele>
        <time>2021-03-27T12:25:26Z</time>
      </trkpt>
      <trkpt lat="45.65324" lon="6.81167">
        <ele>2006.3</ele>
        <time>2021-03-27T12:25:27Z</time>
      </trkpt>
      <trkpt lat="45.65324" lon="6.81168">
        <ele>2006.3</ele>
        <time>2021-03-27T12:25:28Z</time>
      </trkpt>
      <trkpt lat="45.65324" lon="6.81169">
        <ele>2006.3</ele>
        <time>2021-03-27T12:25:29Z</time>
      </trkpt>
      <trkpt lat="45.65325" lon="6.8117">
        <ele>2006.6</ele>
        <time>2021-03-27T12:25:30Z</time>
      </trkpt>
      <trkpt lat="45.65325" lon="6.81171">
        <ele>2006.6</ele>
        <time>2021-03-27T12:25:31Z</time>
      </trkpt>
      <trkpt lat="45.65325" lon="6.81173">
        <ele>2006.6</ele>
        <time>2021-03-27T12:25:32Z</time>
      </trkpt>
      <trkpt lat="45.65325" lon="6.81174">
        <ele>2006.6</ele>
        <time>2021-03-27T12:25:33Z</time>
      </trkpt>
      <trkpt lat="45.65325" lon="6.81174">
        <ele>2006.9</ele>
        <time>2021-03-27T12:25:34Z</time>
      </trkpt>
      <trkpt lat="45.65325" lon="6.81175">
        <ele>2006.9</ele>
        <time>2021-03-27T12:25:35Z</time>
      </trkpt>
      <trkpt lat="45.65325" lon="6.81176">
        <ele>2006.9</ele>
        <time>2021-03-27T12:25:36Z</time>
      </trkpt>
      <trkpt lat="45.65326" lon="6.81177">
        <ele>2006.9</ele>
        <time>2021-03-27T12:25:37Z</time>
      </trkpt>
      <trkpt lat="45.65326" lon="6.81177">
        <ele>2007.9</ele>
        <time>2021-03-27T12:25:38Z</time>
      </trkpt>
      <trkpt lat="45.65327" lon="6.81178">
        <ele>2007.9</ele>
        <time>2021-03-27T12:25:39Z</time>
      </trkpt>
      <trkpt lat="45.65327" lon="6.81178">
        <ele>2007.9</ele>
        <time>2021-03-27T12:25:40Z</time>
      </trkpt>
      <trkpt lat="45.65328" lon="6.81177">
        <ele>2007.9</ele>
        <time>2021-03-27T12:25:41Z</time>
      </trkpt>
      <trkpt lat="45.65328" lon="6.81177">
        <ele>2007.9</ele>
        <time>2021-03-27T12:25:42Z</time>
      </trkpt>
      <trkpt lat="45.65329" lon="6.81177">
        <ele>2007.9</ele>
        <time>2021-03-27T12:25:43Z</time>
      </trkpt>
      <trkpt lat="45.65329" lon="6.81176">
        <ele>2009</ele>
        <time>2021-03-27T12:25:44Z</time>
      </trkpt>
      <trkpt lat="45.65329" lon="6.81176">
        <ele>2009</ele>
        <time>2021-03-27T12:25:45Z</time>
      </trkpt>
      <trkpt lat="45.6533" lon="6.81175">
        <ele>2009</ele>
        <time>2021-03-27T12:25:46Z</time>
      </trkpt>
      <trkpt lat="45.6533" lon="6.81175">
        <ele>2009</ele>
        <time>2021-03-27T12:25:47Z</time>
      </trkpt>
      <trkpt lat="45.6533" lon="6.81174">
        <ele>2009</ele>
        <time>2021-03-27T12:25:48Z</time>
      </trkpt>
      <trkpt lat="45.65331" lon="6.81174">
        <ele>2008.7</ele>
        <time>2021-03-27T12:25:49Z</time>
      </trkpt>
      <trkpt lat="45.65331" lon="6.81173">
        <ele>2008.7</ele>
        <time>2021-03-27T12:25:50Z</time>
      </trkpt>
      <trkpt lat="45.65332" lon="6.81173">
        <ele>2008.7</ele>
        <time>2021-03-27T12:25:51Z</time>
      </trkpt>
      <trkpt lat="45.65332" lon="6.81173">
        <ele>2009.8</ele>
        <time>2021-03-27T12:25:52Z</time>
      </trkpt>
      <trkpt lat="45.65333" lon="6.81173">
        <ele>2009.8</ele>
        <time>2021-03-27T12:25:53Z</time>
      </trkpt>
      <trkpt lat="45.65333" lon="6.81173">
        <ele>2009.8</ele>
        <time>2021-03-27T12:25:54Z</time>
      </trkpt>
      <trkpt lat="45.65333" lon="6.81174">
        <ele>2010.1</ele>
        <time>2021-03-27T12:25:55Z</time>
      </trkpt>
      <trkpt lat="45.65334" lon="6.81175">
        <ele>2010.1</ele>
        <time>2021-03-27T12:25:56Z</time>
      </trkpt>
      <trkpt lat="45.65334" lon="6.81176">
        <ele>2010.1</ele>
        <time>2021-03-27T12:25:57Z</time>
      </trkpt>
      <trkpt lat="45.65334" lon="6.81177">
        <ele>2010.1</ele>
        <time>2021-03-27T12:25:58Z</time>
      </trkpt>
      <trkpt lat="45.65334" lon="6.81178">
        <ele>2010.1</ele>
        <time>2021-03-27T12:25:59Z</time>
      </trkpt>
      <trkpt lat="45.65334" lon="6.81179">
        <ele>2010.4</ele>
        <time>2021-03-27T12:26:00Z</time>
      </trkpt>
      <trkpt lat="45.65334" lon="6.8118">
        <ele>2010.4</ele>
        <time>2021-03-27T12:26:01Z</time>
      </trkpt>
      <trkpt lat="45.65334" lon="6.81181">
        <ele>2010.4</ele>
        <time>2021-03-27T12:26:02Z</time>
      </trkpt>
      <trkpt lat="45.65335" lon="6.81182">
        <ele>2010.4</ele>
        <time>2021-03-27T12:26:03Z</time>
      </trkpt>
      <trkpt lat="45.65335" lon="6.81183">
        <ele>2011.8</ele>
        <time>2021-03-27T12:26:04Z</time>
      </trkpt>
      <trkpt lat="45.65335" lon="6.81184">
        <ele>2011.8</ele>
        <time>2021-03-27T12:26:05Z</time>
      </trkpt>
      <trkpt lat="45.65336" lon="6.81185">
        <ele>2011.8</ele>
        <time>2021-03-27T12:26:06Z</time>
      </trkpt>
      <trkpt lat="45.65336" lon="6.81186">
        <ele>2011.8</ele>
        <time>2021-03-27T12:26:07Z</time>
      </trkpt>
      <trkpt lat="45.65336" lon="6.81187">
        <ele>2012.2</ele>
        <time>2021-03-27T12:26:08Z</time>
      </trkpt>
      <trkpt lat="45.65336" lon="6.81188">
        <ele>2012.2</ele>
        <time>2021-03-27T12:26:09Z</time>
      </trkpt>
      <trkpt lat="45.65336" lon="6.81189">
        <ele>2012.2</ele>
        <time>2021-03-27T12:26:10Z</time>
      </trkpt>
      <trkpt lat="45.65335" lon="6.81189">
        <ele>2012.2</ele>
        <time>2021-03-27T12:26:11Z</time>
      </trkpt>
      <trkpt lat="45.65335" lon="6.8119">
        <ele>2012.2</ele>
        <time>2021-03-27T12:26:12Z</time>
      </trkpt>
      <trkpt lat="45.65335" lon="6.81191">
        <ele>2011.3</ele>
        <time>2021-03-27T12:26:13Z</time>
      </trkpt>
      <trkpt lat="45.65335" lon="6.81192">
        <ele>2011.3</ele>
        <time>2021-03-27T12:26:14Z</time>
      </trkpt>
      <trkpt lat="45.65335" lon="6.81193">
        <ele>2012.5</ele>
        <time>2021-03-27T12:26:15Z</time>
      </trkpt>
      <trkpt lat="45.65335" lon="6.81194">
        <ele>2012.5</ele>
        <time>2021-03-27T12:26:16Z</time>
      </trkpt>
      <trkpt lat="45.65335" lon="6.81194">
        <ele>2012.5</ele>
        <time>2021-03-27T12:26:17Z</time>
      </trkpt>
      <trkpt lat="45.65336" lon="6.81195">
        <ele>2012.5</ele>
        <time>2021-03-27T12:26:18Z</time>
      </trkpt>
      <trkpt lat="45.65336" lon="6.81195">
        <ele>2012.5</ele>
        <time>2021-03-27T12:26:19Z</time>
      </trkpt>
      <trkpt lat="45.65337" lon="6.81195">
        <ele>2012.8</ele>
        <time>2021-03-27T12:26:20Z</time>
      </trkpt>
      <trkpt lat="45.65338" lon="6.81195">
        <ele>2012.8</ele>
        <time>2021-03-27T12:26:21Z</time>
      </trkpt>
      <trkpt lat="45.65338" lon="6.81195">
        <ele>2013.9</ele>
        <time>2021-03-27T12:26:22Z</time>
      </trkpt>
      <trkpt lat="45.65339" lon="6.81195">
        <ele>2013.9</ele>
        <time>2021-03-27T12:26:23Z</time>
      </trkpt>
      <trkpt lat="45.6534" lon="6.81195">
        <ele>2013.9</ele>
        <time>2021-03-27T12:26:24Z</time>
      </trkpt>
      <trkpt lat="45.6534" lon="6.81195">
        <ele>2013.6</ele>
        <time>2021-03-27T12:26:25Z</time>
      </trkpt>
      <trkpt lat="45.65341" lon="6.81195">
        <ele>2014.8</ele>
        <time>2021-03-27T12:26:26Z</time>
      </trkpt>
      <trkpt lat="45.65342" lon="6.81195">
        <ele>2014.8</ele>
        <time>2021-03-27T12:26:27Z</time>
      </trkpt>
      <trkpt lat="45.65343" lon="6.81195">
        <ele>2014.8</ele>
        <time>2021-03-27T12:26:28Z</time>
      </trkpt>
      <trkpt lat="45.65343" lon="6.81195">
        <ele>2014.8</ele>
        <time>2021-03-27T12:26:29Z</time>
      </trkpt>
      <trkpt lat="45.65344" lon="6.81195">
        <ele>2015.9</ele>
        <time>2021-03-27T12:26:30Z</time>
      </trkpt>
      <trkpt lat="45.65345" lon="6.81194">
        <ele>2015.9</ele>
        <time>2021-03-27T12:26:31Z</time>
      </trkpt>
      <trkpt lat="45.65345" lon="6.81194">
        <ele>2015.9</ele>
        <time>2021-03-27T12:26:32Z</time>
      </trkpt>
      <trkpt lat="45.65346" lon="6.81194">
        <ele>2015.9</ele>
        <time>2021-03-27T12:26:33Z</time>
      </trkpt>
      <trkpt lat="45.65347" lon="6.81193">
        <ele>2015.9</ele>
        <time>2021-03-27T12:26:34Z</time>
      </trkpt>
      <trkpt lat="45.65347" lon="6.81193">
        <ele>2017</ele>
        <time>2021-03-27T12:26:35Z</time>
      </trkpt>
      <trkpt lat="45.65348" lon="6.81193">
        <ele>2017</ele>
        <time>2021-03-27T12:26:36Z</time>
      </trkpt>
      <trkpt lat="45.65349" lon="6.81193">
        <ele>2017</ele>
        <time>2021-03-27T12:26:37Z</time>
      </trkpt>
      <trkpt lat="45.65349" lon="6.81193">
        <ele>2017</ele>
        <time>2021-03-27T12:26:38Z</time>
      </trkpt>
      <trkpt lat="45.6535" lon="6.81193">
        <ele>2018.2</ele>
        <time>2021-03-27T12:26:39Z</time>
      </trkpt>
      <trkpt lat="45.65351" lon="6.81193">
        <ele>2018.2</ele>
        <time>2021-03-27T12:26:40Z</time>
      </trkpt>
      <trkpt lat="45.65351" lon="6.81193">
        <ele>2018.2</ele>
        <time>2021-03-27T12:26:41Z</time>
      </trkpt>
      <trkpt lat="45.65352" lon="6.81192">
        <ele>2018.2</ele>
        <time>2021-03-27T12:26:42Z</time>
      </trkpt>
      <trkpt lat="45.65353" lon="6.81192">
        <ele>2018.2</ele>
        <time>2021-03-27T12:26:43Z</time>
      </trkpt>
      <trkpt lat="45.65353" lon="6.81192">
        <ele>2019.4</ele>
        <time>2021-03-27T12:26:44Z</time>
      </trkpt>
      <trkpt lat="45.65354" lon="6.81191">
        <ele>2019.4</ele>
        <time>2021-03-27T12:26:45Z</time>
      </trkpt>
      <trkpt lat="45.65354" lon="6.81191">
        <ele>2019.4</ele>
        <time>2021-03-27T12:26:46Z</time>
      </trkpt>
      <trkpt lat="45.65355" lon="6.81191">
        <ele>2019.4</ele>
        <time>2021-03-27T12:26:47Z</time>
      </trkpt>
      <trkpt lat="45.65355" lon="6.81192">
        <ele>2019.4</ele>
        <time>2021-03-27T12:26:48Z</time>
      </trkpt>
      <trkpt lat="45.65356" lon="6.81192">
        <ele>2019.4</ele>
        <time>2021-03-27T12:26:49Z</time>
      </trkpt>
      <trkpt lat="45.65356" lon="6.81193">
        <ele>2019.4</ele>
        <time>2021-03-27T12:26:50Z</time>
      </trkpt>
      <trkpt lat="45.65356" lon="6.81193">
        <ele>2020.7</ele>
        <time>2021-03-27T12:26:51Z</time>
      </trkpt>
      <trkpt lat="45.65356" lon="6.81194">
        <ele>2020.7</ele>
        <time>2021-03-27T12:26:52Z</time>
      </trkpt>
      <trkpt lat="45.65357" lon="6.81195">
        <ele>2020.7</ele>
        <time>2021-03-27T12:26:53Z</time>
      </trkpt>
      <trkpt lat="45.65357" lon="6.81196">
        <ele>2021</ele>
        <time>2021-03-27T12:26:54Z</time>
      </trkpt>
      <trkpt lat="45.65357" lon="6.81197">
        <ele>2021</ele>
        <time>2021-03-27T12:26:55Z</time>
      </trkpt>
      <trkpt lat="45.65357" lon="6.81198">
        <ele>2021</ele>
        <time>2021-03-27T12:26:56Z</time>
      </trkpt>
      <trkpt lat="45.65357" lon="6.81199">
        <ele>2021</ele>
        <time>2021-03-27T12:26:57Z</time>
      </trkpt>
      <trkpt lat="45.65357" lon="6.812">
        <ele>2021.4</ele>
        <time>2021-03-27T12:26:58Z</time>
      </trkpt>
      <trkpt lat="45.65357" lon="6.81201">
        <ele>2021.4</ele>
        <time>2021-03-27T12:26:59Z</time>
      </trkpt>
      <trkpt lat="45.65357" lon="6.81202">
        <ele>2021.4</ele>
        <time>2021-03-27T12:27:00Z</time>
      </trkpt>
      <trkpt lat="45.65357" lon="6.81202">
        <ele>2021.4</ele>
        <time>2021-03-27T12:27:01Z</time>
      </trkpt>
      <trkpt lat="45.65357" lon="6.81203">
        <ele>2021.4</ele>
        <time>2021-03-27T12:27:02Z</time>
      </trkpt>
      <trkpt lat="45.65357" lon="6.81204">
        <ele>2021.7</ele>
        <time>2021-03-27T12:27:03Z</time>
      </trkpt>
      <trkpt lat="45.65357" lon="6.81205">
        <ele>2021.7</ele>
        <time>2021-03-27T12:27:04Z</time>
      </trkpt>
      <trkpt lat="45.65357" lon="6.81206">
        <ele>2021.7</ele>
        <time>2021-03-27T12:27:05Z</time>
      </trkpt>
      <trkpt lat="45.65357" lon="6.81207">
        <ele>2021.7</ele>
        <time>2021-03-27T12:27:06Z</time>
      </trkpt>
      <trkpt lat="45.65357" lon="6.81207">
        <ele>2021.7</ele>
        <time>2021-03-27T12:27:07Z</time>
      </trkpt>
      <trkpt lat="45.65358" lon="6.81208">
        <ele>2021.7</ele>
        <time>2021-03-27T12:27:08Z</time>
      </trkpt>
      <trkpt lat="45.65358" lon="6.81208">
        <ele>2022.1</ele>
        <time>2021-03-27T12:27:09Z</time>
      </trkpt>
      <trkpt lat="45.65359" lon="6.81208">
        <ele>2023.4</ele>
        <time>2021-03-27T12:27:10Z</time>
      </trkpt>
      <trkpt lat="45.6536" lon="6.81209">
        <ele>2023.4</ele>
        <time>2021-03-27T12:27:11Z</time>
      </trkpt>
      <trkpt lat="45.6536" lon="6.81208">
        <ele>2023.4</ele>
        <time>2021-03-27T12:27:12Z</time>
      </trkpt>
      <trkpt lat="45.65361" lon="6.81208">
        <ele>2023.1</ele>
        <time>2021-03-27T12:27:13Z</time>
      </trkpt>
      <trkpt lat="45.65362" lon="6.81207">
        <ele>2023.1</ele>
        <time>2021-03-27T12:27:14Z</time>
      </trkpt>
      <trkpt lat="45.65363" lon="6.81207">
        <ele>2024.4</ele>
        <time>2021-03-27T12:27:15Z</time>
      </trkpt>
      <trkpt lat="45.65363" lon="6.81206">
        <ele>2024.4</ele>
        <time>2021-03-27T12:27:16Z</time>
      </trkpt>
      <trkpt lat="45.65364" lon="6.81206">
        <ele>2024.4</ele>
        <time>2021-03-27T12:27:17Z</time>
      </trkpt>
      <trkpt lat="45.65364" lon="6.81206">
        <ele>2024.4</ele>
        <time>2021-03-27T12:27:18Z</time>
      </trkpt>
      <trkpt lat="45.65365" lon="6.81205">
        <ele>2025.8</ele>
        <time>2021-03-27T12:27:19Z</time>
      </trkpt>
      <trkpt lat="45.65366" lon="6.81205">
        <ele>2025.8</ele>
        <time>2021-03-27T12:27:20Z</time>
      </trkpt>
      <trkpt lat="45.65366" lon="6.81204">
        <ele>2025.8</ele>
        <time>2021-03-27T12:27:21Z</time>
      </trkpt>
      <trkpt lat="45.65367" lon="6.81204">
        <ele>2025.5</ele>
        <time>2021-03-27T12:27:22Z</time>
      </trkpt>
      <trkpt lat="45.65368" lon="6.81203">
        <ele>2025.5</ele>
        <time>2021-03-27T12:27:23Z</time>
      </trkpt>
      <trkpt lat="45.65368" lon="6.81202">
        <ele>2026.8</ele>
        <time>2021-03-27T12:27:24Z</time>
      </trkpt>
      <trkpt lat="45.65369" lon="6.81202">
        <ele>2026.8</ele>
        <time>2021-03-27T12:27:25Z</time>
      </trkpt>
      <trkpt lat="45.65369" lon="6.81201">
        <ele>2026.8</ele>
        <time>2021-03-27T12:27:26Z</time>
      </trkpt>
      <trkpt lat="45.65369" lon="6.81201">
        <ele>2026.8</ele>
        <time>2021-03-27T12:27:27Z</time>
      </trkpt>
      <trkpt lat="45.65369" lon="6.812">
        <ele>2026.8</ele>
        <time>2021-03-27T12:27:28Z</time>
      </trkpt>
      <trkpt lat="45.65369" lon="6.81199">
        <ele>2026.4</ele>
        <time>2021-03-27T12:27:29Z</time>
      </trkpt>
      <trkpt lat="45.65369" lon="6.81199">
        <ele>2026.4</ele>
        <time>2021-03-27T12:27:30Z</time>
      </trkpt>
      <trkpt lat="45.6537" lon="6.81199">
        <ele>2026.4</ele>
        <time>2021-03-27T12:27:31Z</time>
      </trkpt>
      <trkpt lat="45.6537" lon="6.81199">
        <ele>2026.4</ele>
        <time>2021-03-27T12:27:32Z</time>
      </trkpt>
      <trkpt lat="45.65371" lon="6.81199">
        <ele>2027.6</ele>
        <time>2021-03-27T12:27:33Z</time>
      </trkpt>
      <trkpt lat="45.65372" lon="6.81201">
        <ele>2027.9</ele>
        <time>2021-03-27T12:27:34Z</time>
      </trkpt>
      <trkpt lat="45.65372" lon="6.81202">
        <ele>2027.9</ele>
        <time>2021-03-27T12:27:35Z</time>
      </trkpt>
      <trkpt lat="45.65373" lon="6.81204">
        <ele>2027.9</ele>
        <time>2021-03-27T12:27:36Z</time>
      </trkpt>
      <trkpt lat="45.65373" lon="6.81206">
        <ele>2028.3</ele>
        <time>2021-03-27T12:27:37Z</time>
      </trkpt>
      <trkpt lat="45.65373" lon="6.81207">
        <ele>2028.3</ele>
        <time>2021-03-27T12:27:50Z</time>
      </trkpt>
      <trkpt lat="45.65374" lon="6.81209">
        <ele>2028.6</ele>
        <time>2021-03-27T12:27:51Z</time>
      </trkpt>
      <trkpt lat="45.65374" lon="6.81211">
        <ele>2029.8</ele>
        <time>2021-03-27T12:27:52Z</time>
      </trkpt>
      <trkpt lat="45.65374" lon="6.81212">
        <ele>2029.8</ele>
        <time>2021-03-27T12:27:53Z</time>
      </trkpt>
      <trkpt lat="45.65375" lon="6.81214">
        <ele>2030.1</ele>
        <time>2021-03-27T12:27:54Z</time>
      </trkpt>
      <trkpt lat="45.65375" lon="6.81216">
        <ele>2030.1</ele>
        <time>2021-03-27T12:27:55Z</time>
      </trkpt>
      <trkpt lat="45.65375" lon="6.81217">
        <ele>2030.5</ele>
        <time>2021-03-27T12:27:56Z</time>
      </trkpt>
      <trkpt lat="45.65376" lon="6.81217">
        <ele>2030.5</ele>
        <time>2021-03-27T12:27:57Z</time>
      </trkpt>
      <trkpt lat="45.65377" lon="6.81217">
        <ele>2030.5</ele>
        <time>2021-03-27T12:27:58Z</time>
      </trkpt>
      <trkpt lat="45.65377" lon="6.81216">
        <ele>2031.3</ele>
        <time>2021-03-27T12:27:59Z</time>
      </trkpt>
      <trkpt lat="45.65378" lon="6.81216">
        <ele>2031.3</ele>
        <time>2021-03-27T12:28:00Z</time>
      </trkpt>
      <trkpt lat="45.65378" lon="6.81215">
        <ele>2031.3</ele>
        <time>2021-03-27T12:28:01Z</time>
      </trkpt>
      <trkpt lat="45.65379" lon="6.81214">
        <ele>2031.3</ele>
        <time>2021-03-27T12:28:02Z</time>
      </trkpt>
      <trkpt lat="45.65379" lon="6.81214">
        <ele>2031.3</ele>
        <time>2021-03-27T12:28:03Z</time>
      </trkpt>
      <trkpt lat="45.65379" lon="6.81214">
        <ele>2031.3</ele>
        <time>2021-03-27T12:28:04Z</time>
      </trkpt>
      <trkpt lat="45.6538" lon="6.81214">
        <ele>2031.3</ele>
        <time>2021-03-27T12:28:05Z</time>
      </trkpt>
      <trkpt lat="45.6538" lon="6.81214">
        <ele>2032.4</ele>
        <time>2021-03-27T12:28:06Z</time>
      </trkpt>
      <trkpt lat="45.6538" lon="6.81214">
        <ele>2032.4</ele>
        <time>2021-03-27T12:28:07Z</time>
      </trkpt>
      <trkpt lat="45.65381" lon="6.81213">
        <ele>2032.4</ele>
        <time>2021-03-27T12:28:08Z</time>
      </trkpt>
      <trkpt lat="45.65381" lon="6.81213">
        <ele>2032.4</ele>
        <time>2021-03-27T12:28:09Z</time>
      </trkpt>
      <trkpt lat="45.65382" lon="6.81213">
        <ele>2032.4</ele>
        <time>2021-03-27T12:28:10Z</time>
      </trkpt>
      <trkpt lat="45.65382" lon="6.81213">
        <ele>2032.4</ele>
        <time>2021-03-27T12:28:11Z</time>
      </trkpt>
      <trkpt lat="45.65383" lon="6.81213">
        <ele>2032.4</ele>
        <time>2021-03-27T12:28:12Z</time>
      </trkpt>
      <trkpt lat="45.65383" lon="6.81214">
        <ele>2033.7</ele>
        <time>2021-03-27T12:28:13Z</time>
      </trkpt>
      <trkpt lat="45.65383" lon="6.81215">
        <ele>2033.7</ele>
        <time>2021-03-27T12:28:14Z</time>
      </trkpt>
      <trkpt lat="45.65384" lon="6.81215">
        <ele>2033.7</ele>
        <time>2021-03-27T12:28:15Z</time>
      </trkpt>
      <trkpt lat="45.65384" lon="6.81216">
        <ele>2033.7</ele>
        <time>2021-03-27T12:28:16Z</time>
      </trkpt>
      <trkpt lat="45.65384" lon="6.81216">
        <ele>2033.7</ele>
        <time>2021-03-27T12:28:17Z</time>
      </trkpt>
      <trkpt lat="45.65384" lon="6.81217">
        <ele>2034.1</ele>
        <time>2021-03-27T12:28:18Z</time>
      </trkpt>
      <trkpt lat="45.65385" lon="6.81218">
        <ele>2034.1</ele>
        <time>2021-03-27T12:28:19Z</time>
      </trkpt>
      <trkpt lat="45.65385" lon="6.81218">
        <ele>2034.1</ele>
        <time>2021-03-27T12:28:20Z</time>
      </trkpt>
      <trkpt lat="45.65385" lon="6.81219">
        <ele>2034.1</ele>
        <time>2021-03-27T12:28:21Z</time>
      </trkpt>
      <trkpt lat="45.65385" lon="6.8122">
        <ele>2034.1</ele>
        <time>2021-03-27T12:28:22Z</time>
      </trkpt>
      <trkpt lat="45.65385" lon="6.81221">
        <ele>2034.6</ele>
        <time>2021-03-27T12:28:23Z</time>
      </trkpt>
      <trkpt lat="45.65386" lon="6.81222">
        <ele>2034.6</ele>
        <time>2021-03-27T12:28:24Z</time>
      </trkpt>
      <trkpt lat="45.65386" lon="6.81223">
        <ele>2034.6</ele>
        <time>2021-03-27T12:28:25Z</time>
      </trkpt>
      <trkpt lat="45.65386" lon="6.81224">
        <ele>2035.9</ele>
        <time>2021-03-27T12:28:26Z</time>
      </trkpt>
      <trkpt lat="45.65386" lon="6.81224">
        <ele>2035.9</ele>
        <time>2021-03-27T12:28:27Z</time>
      </trkpt>
      <trkpt lat="45.65386" lon="6.81225">
        <ele>2035.9</ele>
        <time>2021-03-27T12:28:28Z</time>
      </trkpt>
      <trkpt lat="45.65387" lon="6.81225">
        <ele>2035.9</ele>
        <time>2021-03-27T12:28:29Z</time>
      </trkpt>
      <trkpt lat="45.65387" lon="6.81225">
        <ele>2035.9</ele>
        <time>2021-03-27T12:28:30Z</time>
      </trkpt>
      <trkpt lat="45.65388" lon="6.81225">
        <ele>2035.9</ele>
        <time>2021-03-27T12:28:31Z</time>
      </trkpt>
      <trkpt lat="45.65389" lon="6.81225">
        <ele>2035.9</ele>
        <time>2021-03-27T12:28:32Z</time>
      </trkpt>
      <trkpt lat="45.65389" lon="6.81224">
        <ele>2037.4</ele>
        <time>2021-03-27T12:28:33Z</time>
      </trkpt>
      <trkpt lat="45.65389" lon="6.81224">
        <ele>2037.4</ele>
        <time>2021-03-27T12:28:34Z</time>
      </trkpt>
      <trkpt lat="45.6539" lon="6.81224">
        <ele>2037.4</ele>
        <time>2021-03-27T12:28:35Z</time>
      </trkpt>
      <trkpt lat="45.65391" lon="6.81224">
        <ele>2037.4</ele>
        <time>2021-03-27T12:28:36Z</time>
      </trkpt>
      <trkpt lat="45.65391" lon="6.81224">
        <ele>2037.4</ele>
        <time>2021-03-27T12:28:37Z</time>
      </trkpt>
      <trkpt lat="45.65392" lon="6.81224">
        <ele>2037.4</ele>
        <time>2021-03-27T12:28:38Z</time>
      </trkpt>
      <trkpt lat="45.65392" lon="6.81224">
        <ele>2038.7</ele>
        <time>2021-03-27T12:28:39Z</time>
      </trkpt>
      <trkpt lat="45.65393" lon="6.81225">
        <ele>2038.7</ele>
        <time>2021-03-27T12:28:40Z</time>
      </trkpt>
      <trkpt lat="45.65393" lon="6.81225">
        <ele>2038.7</ele>
        <time>2021-03-27T12:28:41Z</time>
      </trkpt>
      <trkpt lat="45.65394" lon="6.81225">
        <ele>2038.7</ele>
        <time>2021-03-27T12:28:42Z</time>
      </trkpt>
      <trkpt lat="45.65394" lon="6.81224">
        <ele>2038.7</ele>
        <time>2021-03-27T12:28:43Z</time>
      </trkpt>
      <trkpt lat="45.65395" lon="6.81224">
        <ele>2038.7</ele>
        <time>2021-03-27T12:28:44Z</time>
      </trkpt>
      <trkpt lat="45.65395" lon="6.81224">
        <ele>2040</ele>
        <time>2021-03-27T12:28:45Z</time>
      </trkpt>
      <trkpt lat="45.65396" lon="6.81224">
        <ele>2040</ele>
        <time>2021-03-27T12:28:46Z</time>
      </trkpt>
      <trkpt lat="45.65397" lon="6.81224">
        <ele>2040</ele>
        <time>2021-03-27T12:28:47Z</time>
      </trkpt>
      <trkpt lat="45.65397" lon="6.81223">
        <ele>2040</ele>
        <time>2021-03-27T12:28:48Z</time>
      </trkpt>
      <trkpt lat="45.65398" lon="6.81223">
        <ele>2040</ele>
        <time>2021-03-27T12:28:49Z</time>
      </trkpt>
      <trkpt lat="45.65398" lon="6.81224">
        <ele>2041.2</ele>
        <time>2021-03-27T12:28:50Z</time>
      </trkpt>
      <trkpt lat="45.65399" lon="6.81224">
        <ele>2041.2</ele>
        <time>2021-03-27T12:28:51Z</time>
      </trkpt>
      <trkpt lat="45.65399" lon="6.81225">
        <ele>2041.2</ele>
        <time>2021-03-27T12:28:52Z</time>
      </trkpt>
      <trkpt lat="45.654" lon="6.81225">
        <ele>2041.2</ele>
        <time>2021-03-27T12:28:53Z</time>
      </trkpt>
      <trkpt lat="45.654" lon="6.81225">
        <ele>2041.2</ele>
        <time>2021-03-27T12:28:54Z</time>
      </trkpt>
      <trkpt lat="45.65401" lon="6.81225">
        <ele>2042.3</ele>
        <time>2021-03-27T12:28:55Z</time>
      </trkpt>
      <trkpt lat="45.65401" lon="6.81225">
        <ele>2042.3</ele>
        <time>2021-03-27T12:28:56Z</time>
      </trkpt>
      <trkpt lat="45.65402" lon="6.81225">
        <ele>2042.3</ele>
        <time>2021-03-27T12:28:57Z</time>
      </trkpt>
      <trkpt lat="45.65402" lon="6.81225">
        <ele>2042.3</ele>
        <time>2021-03-27T12:28:58Z</time>
      </trkpt>
      <trkpt lat="45.65403" lon="6.81225">
        <ele>2042.3</ele>
        <time>2021-03-27T12:28:59Z</time>
      </trkpt>
      <trkpt lat="45.65404" lon="6.81225">
        <ele>2042.3</ele>
        <time>2021-03-27T12:29:00Z</time>
      </trkpt>
      <trkpt lat="45.65404" lon="6.81225">
        <ele>2043.5</ele>
        <time>2021-03-27T12:29:01Z</time>
      </trkpt>
      <trkpt lat="45.65405" lon="6.81225">
        <ele>2043.5</ele>
        <time>2021-03-27T12:29:02Z</time>
      </trkpt>
      <trkpt lat="45.65405" lon="6.81225">
        <ele>2043.5</ele>
        <time>2021-03-27T12:29:03Z</time>
      </trkpt>
      <trkpt lat="45.65406" lon="6.81225">
        <ele>2043.5</ele>
        <time>2021-03-27T12:29:04Z</time>
      </trkpt>
      <trkpt lat="45.65406" lon="6.81225">
        <ele>2043.5</ele>
        <time>2021-03-27T12:29:05Z</time>
      </trkpt>
      <trkpt lat="45.65407" lon="6.81225">
        <ele>2043.5</ele>
        <time>2021-03-27T12:29:06Z</time>
      </trkpt>
      <trkpt lat="45.65407" lon="6.81224">
        <ele>2044.8</ele>
        <time>2021-03-27T12:29:07Z</time>
      </trkpt>
      <trkpt lat="45.65408" lon="6.81224">
        <ele>2044.8</ele>
        <time>2021-03-27T12:29:08Z</time>
      </trkpt>
      <trkpt lat="45.65408" lon="6.81225">
        <ele>2044.8</ele>
        <time>2021-03-27T12:29:09Z</time>
      </trkpt>
      <trkpt lat="45.65408" lon="6.81226">
        <ele>2045.3</ele>
        <time>2021-03-27T12:29:10Z</time>
      </trkpt>
      <trkpt lat="45.65408" lon="6.81227">
        <ele>2045.3</ele>
        <time>2021-03-27T12:29:11Z</time>
      </trkpt>
      <trkpt lat="45.65408" lon="6.81228">
        <ele>2045.3</ele>
        <time>2021-03-27T12:29:12Z</time>
      </trkpt>
      <trkpt lat="45.65408" lon="6.81229">
        <ele>2045.3</ele>
        <time>2021-03-27T12:29:13Z</time>
      </trkpt>
      <trkpt lat="45.65408" lon="6.8123">
        <ele>2045.8</ele>
        <time>2021-03-27T12:29:14Z</time>
      </trkpt>
      <trkpt lat="45.65408" lon="6.81231">
        <ele>2045.8</ele>
        <time>2021-03-27T12:29:15Z</time>
      </trkpt>
      <trkpt lat="45.65408" lon="6.81233">
        <ele>2045.8</ele>
        <time>2021-03-27T12:29:16Z</time>
      </trkpt>
      <trkpt lat="45.65408" lon="6.81234">
        <ele>2045.8</ele>
        <time>2021-03-27T12:29:17Z</time>
      </trkpt>
      <trkpt lat="45.65408" lon="6.81235">
        <ele>2046.3</ele>
        <time>2021-03-27T12:29:18Z</time>
      </trkpt>
      <trkpt lat="45.65408" lon="6.81236">
        <ele>2046.3</ele>
        <time>2021-03-27T12:29:19Z</time>
      </trkpt>
      <trkpt lat="45.65408" lon="6.81237">
        <ele>2046.3</ele>
        <time>2021-03-27T12:29:20Z</time>
      </trkpt>
      <trkpt lat="45.65408" lon="6.81238">
        <ele>2046.7</ele>
        <time>2021-03-27T12:29:21Z</time>
      </trkpt>
      <trkpt lat="45.65408" lon="6.81239">
        <ele>2046.7</ele>
        <time>2021-03-27T12:29:22Z</time>
      </trkpt>
      <trkpt lat="45.65408" lon="6.81241">
        <ele>2046.7</ele>
        <time>2021-03-27T12:29:23Z</time>
      </trkpt>
      <trkpt lat="45.65408" lon="6.81242">
        <ele>2046.7</ele>
        <time>2021-03-27T12:29:24Z</time>
      </trkpt>
      <trkpt lat="45.65408" lon="6.81242">
        <ele>2046.7</ele>
        <time>2021-03-27T12:29:25Z</time>
      </trkpt>
      <trkpt lat="45.65409" lon="6.81244">
        <ele>2047.1</ele>
        <time>2021-03-27T12:29:26Z</time>
      </trkpt>
      <trkpt lat="45.65409" lon="6.81245">
        <ele>2047.1</ele>
        <time>2021-03-27T12:29:27Z</time>
      </trkpt>
      <trkpt lat="45.65409" lon="6.81245">
        <ele>2047.1</ele>
        <time>2021-03-27T12:29:28Z</time>
      </trkpt>
      <trkpt lat="45.6541" lon="6.81246">
        <ele>2047.1</ele>
        <time>2021-03-27T12:29:29Z</time>
      </trkpt>
      <trkpt lat="45.6541" lon="6.81246">
        <ele>2048.4</ele>
        <time>2021-03-27T12:29:30Z</time>
      </trkpt>
      <trkpt lat="45.65411" lon="6.81247">
        <ele>2048.8</ele>
        <time>2021-03-27T12:29:31Z</time>
      </trkpt>
      <trkpt lat="45.65411" lon="6.81247">
        <ele>2048.8</ele>
        <time>2021-03-27T12:29:32Z</time>
      </trkpt>
      <trkpt lat="45.65412" lon="6.81248">
        <ele>2048.8</ele>
        <time>2021-03-27T12:29:33Z</time>
      </trkpt>
      <trkpt lat="45.65412" lon="6.81249">
        <ele>2048.8</ele>
        <time>2021-03-27T12:29:34Z</time>
      </trkpt>
      <trkpt lat="45.65412" lon="6.81249">
        <ele>2048.8</ele>
        <time>2021-03-27T12:29:35Z</time>
      </trkpt>
      <trkpt lat="45.65413" lon="6.8125">
        <ele>2048.8</ele>
        <time>2021-03-27T12:29:36Z</time>
      </trkpt>
      <trkpt lat="45.65413" lon="6.8125">
        <ele>2050.2</ele>
        <time>2021-03-27T12:29:37Z</time>
      </trkpt>
      <trkpt lat="45.65414" lon="6.81251">
        <ele>2050.2</ele>
        <time>2021-03-27T12:29:38Z</time>
      </trkpt>
      <trkpt lat="45.65414" lon="6.81251">
        <ele>2050.6</ele>
        <time>2021-03-27T12:29:39Z</time>
      </trkpt>
      <trkpt lat="45.65415" lon="6.81252">
        <ele>2050.6</ele>
        <time>2021-03-27T12:29:40Z</time>
      </trkpt>
      <trkpt lat="45.65415" lon="6.81252">
        <ele>2050.6</ele>
        <time>2021-03-27T12:29:41Z</time>
      </trkpt>
      <trkpt lat="45.65416" lon="6.81253">
        <ele>2050.6</ele>
        <time>2021-03-27T12:29:42Z</time>
      </trkpt>
      <trkpt lat="45.65416" lon="6.81253">
        <ele>2052</ele>
        <time>2021-03-27T12:29:43Z</time>
      </trkpt>
      <trkpt lat="45.65416" lon="6.81254">
        <ele>2052</ele>
        <time>2021-03-27T12:29:44Z</time>
      </trkpt>
      <trkpt lat="45.65417" lon="6.81254">
        <ele>2052</ele>
        <time>2021-03-27T12:29:45Z</time>
      </trkpt>
      <trkpt lat="45.65417" lon="6.81255">
        <ele>2052</ele>
        <time>2021-03-27T12:29:46Z</time>
      </trkpt>
      <trkpt lat="45.65418" lon="6.81255">
        <ele>2052</ele>
        <time>2021-03-27T12:29:47Z</time>
      </trkpt>
      <trkpt lat="45.65418" lon="6.81256">
        <ele>2052.3</ele>
        <time>2021-03-27T12:29:48Z</time>
      </trkpt>
      <trkpt lat="45.65419" lon="6.81256">
        <ele>2052.3</ele>
        <time>2021-03-27T12:29:49Z</time>
      </trkpt>
      <trkpt lat="45.65419" lon="6.81257">
        <ele>2053.6</ele>
        <time>2021-03-27T12:29:50Z</time>
      </trkpt>
      <trkpt lat="45.65419" lon="6.81257">
        <ele>2053.6</ele>
        <time>2021-03-27T12:29:51Z</time>
      </trkpt>
      <trkpt lat="45.6542" lon="6.81258">
        <ele>2053.6</ele>
        <time>2021-03-27T12:29:52Z</time>
      </trkpt>
      <trkpt lat="45.6542" lon="6.81259">
        <ele>2053.6</ele>
        <time>2021-03-27T12:29:53Z</time>
      </trkpt>
      <trkpt lat="45.65421" lon="6.8126">
        <ele>2054</ele>
        <time>2021-03-27T12:29:54Z</time>
      </trkpt>
      <trkpt lat="45.65421" lon="6.81261">
        <ele>2054</ele>
        <time>2021-03-27T12:29:55Z</time>
      </trkpt>
      <trkpt lat="45.65422" lon="6.81261">
        <ele>2054</ele>
        <time>2021-03-27T12:29:56Z</time>
      </trkpt>
      <trkpt lat="45.65422" lon="6.81262">
        <ele>2054</ele>
        <time>2021-03-27T12:29:57Z</time>
      </trkpt>
      <trkpt lat="45.65422" lon="6.81262">
        <ele>2055.2</ele>
        <time>2021-03-27T12:29:58Z</time>
      </trkpt>
      <trkpt lat="45.65422" lon="6.81263">
        <ele>2055.2</ele>
        <time>2021-03-27T12:29:59Z</time>
      </trkpt>
      <trkpt lat="45.65423" lon="6.81264">
        <ele>2055.2</ele>
        <time>2021-03-27T12:30:00Z</time>
      </trkpt>
      <trkpt lat="45.65423" lon="6.81265">
        <ele>2055.5</ele>
        <time>2021-03-27T12:30:01Z</time>
      </trkpt>
      <trkpt lat="45.65423" lon="6.81265">
        <ele>2055.5</ele>
        <time>2021-03-27T12:30:02Z</time>
      </trkpt>
      <trkpt lat="45.65424" lon="6.81266">
        <ele>2055.5</ele>
        <time>2021-03-27T12:30:03Z</time>
      </trkpt>
      <trkpt lat="45.65424" lon="6.81267">
        <ele>2055.5</ele>
        <time>2021-03-27T12:30:04Z</time>
      </trkpt>
      <trkpt lat="45.65424" lon="6.81268">
        <ele>2055.5</ele>
        <time>2021-03-27T12:30:05Z</time>
      </trkpt>
      <trkpt lat="45.65424" lon="6.81269">
        <ele>2055.9</ele>
        <time>2021-03-27T12:30:06Z</time>
      </trkpt>
      <trkpt lat="45.65424" lon="6.81269">
        <ele>2055.9</ele>
        <time>2021-03-27T12:30:07Z</time>
      </trkpt>
      <trkpt lat="45.65424" lon="6.8127">
        <ele>2055.9</ele>
        <time>2021-03-27T12:30:08Z</time>
      </trkpt>
      <trkpt lat="45.65425" lon="6.81271">
        <ele>2055.9</ele>
        <time>2021-03-27T12:30:09Z</time>
      </trkpt>
      <trkpt lat="45.65425" lon="6.81272">
        <ele>2055.9</ele>
        <time>2021-03-27T12:30:10Z</time>
      </trkpt>
      <trkpt lat="45.65425" lon="6.81272">
        <ele>2055.9</ele>
        <time>2021-03-27T12:30:11Z</time>
      </trkpt>
      <trkpt lat="45.65425" lon="6.81273">
        <ele>2056.3</ele>
        <time>2021-03-27T12:30:12Z</time>
      </trkpt>
      <trkpt lat="45.65425" lon="6.81274">
        <ele>2057.4</ele>
        <time>2021-03-27T12:30:13Z</time>
      </trkpt>
      <trkpt lat="45.65425" lon="6.81275">
        <ele>2057.4</ele>
        <time>2021-03-27T12:30:14Z</time>
      </trkpt>
      <trkpt lat="45.65425" lon="6.81276">
        <ele>2057.4</ele>
        <time>2021-03-27T12:30:15Z</time>
      </trkpt>
      <trkpt lat="45.65426" lon="6.81277">
        <ele>2057.4</ele>
        <time>2021-03-27T12:30:16Z</time>
      </trkpt>
      <trkpt lat="45.65426" lon="6.81278">
        <ele>2057.7</ele>
        <time>2021-03-27T12:30:17Z</time>
      </trkpt>
      <trkpt lat="45.65426" lon="6.81279">
        <ele>2057.7</ele>
        <time>2021-03-27T12:30:18Z</time>
      </trkpt>
      <trkpt lat="45.65426" lon="6.8128">
        <ele>2057.7</ele>
        <time>2021-03-27T12:30:19Z</time>
      </trkpt>
      <trkpt lat="45.65427" lon="6.8128">
        <ele>2057.7</ele>
        <time>2021-03-27T12:30:20Z</time>
      </trkpt>
      <trkpt lat="45.65427" lon="6.81281">
        <ele>2058.1</ele>
        <time>2021-03-27T12:30:21Z</time>
      </trkpt>
      <trkpt lat="45.65427" lon="6.81282">
        <ele>2058.1</ele>
        <time>2021-03-27T12:30:22Z</time>
      </trkpt>
      <trkpt lat="45.65428" lon="6.81283">
        <ele>2058.1</ele>
        <time>2021-03-27T12:30:23Z</time>
      </trkpt>
      <trkpt lat="45.65428" lon="6.81284">
        <ele>2059.1</ele>
        <time>2021-03-27T12:30:24Z</time>
      </trkpt>
      <trkpt lat="45.65428" lon="6.81285">
        <ele>2059.1</ele>
        <time>2021-03-27T12:30:25Z</time>
      </trkpt>
      <trkpt lat="45.65429" lon="6.81286">
        <ele>2059.4</ele>
        <time>2021-03-27T12:30:26Z</time>
      </trkpt>
      <trkpt lat="45.65429" lon="6.81287">
        <ele>2059.4</ele>
        <time>2021-03-27T12:30:27Z</time>
      </trkpt>
      <trkpt lat="45.65429" lon="6.81287">
        <ele>2059.4</ele>
        <time>2021-03-27T12:30:28Z</time>
      </trkpt>
      <trkpt lat="45.65429" lon="6.81288">
        <ele>2059.4</ele>
        <time>2021-03-27T12:30:29Z</time>
      </trkpt>
      <trkpt lat="45.6543" lon="6.81289">
        <ele>2059.4</ele>
        <time>2021-03-27T12:30:30Z</time>
      </trkpt>
      <trkpt lat="45.6543" lon="6.8129">
        <ele>2059.4</ele>
        <time>2021-03-27T12:30:31Z</time>
      </trkpt>
      <trkpt lat="45.65431" lon="6.81291">
        <ele>2059.8</ele>
        <time>2021-03-27T12:30:32Z</time>
      </trkpt>
      <trkpt lat="45.65431" lon="6.81291">
        <ele>2060.8</ele>
        <time>2021-03-27T12:30:33Z</time>
      </trkpt>
      <trkpt lat="45.65431" lon="6.81292">
        <ele>2060.8</ele>
        <time>2021-03-27T12:30:34Z</time>
      </trkpt>
      <trkpt lat="45.65432" lon="6.81293">
        <ele>2060.8</ele>
        <time>2021-03-27T12:30:35Z</time>
      </trkpt>
      <trkpt lat="45.65432" lon="6.81294">
        <ele>2061.2</ele>
        <time>2021-03-27T12:30:36Z</time>
      </trkpt>
      <trkpt lat="45.65433" lon="6.81295">
        <ele>2061.2</ele>
        <time>2021-03-27T12:30:37Z</time>
      </trkpt>
      <trkpt lat="45.65433" lon="6.81296">
        <ele>2061.2</ele>
        <time>2021-03-27T12:30:38Z</time>
      </trkpt>
      <trkpt lat="45.65433" lon="6.81297">
        <ele>2061.2</ele>
        <time>2021-03-27T12:30:39Z</time>
      </trkpt>
      <trkpt lat="45.65433" lon="6.81297">
        <ele>2061.2</ele>
        <time>2021-03-27T12:30:40Z</time>
      </trkpt>
      <trkpt lat="45.65433" lon="6.81298">
        <ele>2061.2</ele>
        <time>2021-03-27T12:30:41Z</time>
      </trkpt>
      <trkpt lat="45.65434" lon="6.81299">
        <ele>2061.7</ele>
        <time>2021-03-27T12:30:42Z</time>
      </trkpt>
      <trkpt lat="45.65434" lon="6.813">
        <ele>2062.8</ele>
        <time>2021-03-27T12:30:43Z</time>
      </trkpt>
      <trkpt lat="45.65434" lon="6.813">
        <ele>2062.8</ele>
        <time>2021-03-27T12:30:44Z</time>
      </trkpt>
      <trkpt lat="45.65435" lon="6.813">
        <ele>2062.8</ele>
        <time>2021-03-27T12:30:45Z</time>
      </trkpt>
      <trkpt lat="45.65435" lon="6.813">
        <ele>2062.8</ele>
        <time>2021-03-27T12:30:46Z</time>
      </trkpt>
      <trkpt lat="45.65435" lon="6.813">
        <ele>2062.8</ele>
        <time>2021-03-27T12:30:47Z</time>
      </trkpt>
      <trkpt lat="45.65436" lon="6.81299">
        <ele>2062.8</ele>
        <time>2021-03-27T12:30:48Z</time>
      </trkpt>
      <trkpt lat="45.65436" lon="6.81299">
        <ele>2062.8</ele>
        <time>2021-03-27T12:30:49Z</time>
      </trkpt>
      <trkpt lat="45.65436" lon="6.81298">
        <ele>2062.3</ele>
        <time>2021-03-27T12:30:50Z</time>
      </trkpt>
      <trkpt lat="45.65436" lon="6.81298">
        <ele>2062.3</ele>
        <time>2021-03-27T12:30:51Z</time>
      </trkpt>
      <trkpt lat="45.65436" lon="6.81297">
        <ele>2062.3</ele>
        <time>2021-03-27T12:30:52Z</time>
      </trkpt>
      <trkpt lat="45.65436" lon="6.81297">
        <ele>2062.3</ele>
        <time>2021-03-27T12:30:53Z</time>
      </trkpt>
      <trkpt lat="45.65437" lon="6.81296">
        <ele>2062.3</ele>
        <time>2021-03-27T12:30:54Z</time>
      </trkpt>
      <trkpt lat="45.65437" lon="6.81295">
        <ele>2063.4</ele>
        <time>2021-03-27T12:30:55Z</time>
      </trkpt>
      <trkpt lat="45.65438" lon="6.81294">
        <ele>2063.4</ele>
        <time>2021-03-27T12:30:56Z</time>
      </trkpt>
      <trkpt lat="45.65439" lon="6.81294">
        <ele>2062.9</ele>
        <time>2021-03-27T12:30:57Z</time>
      </trkpt>
      <trkpt lat="45.65439" lon="6.81293">
        <ele>2062.9</ele>
        <time>2021-03-27T12:30:58Z</time>
      </trkpt>
      <trkpt lat="45.6544" lon="6.81293">
        <ele>2064</ele>
        <time>2021-03-27T12:30:59Z</time>
      </trkpt>
      <trkpt lat="45.65441" lon="6.81293">
        <ele>2064</ele>
        <time>2021-03-27T12:31:00Z</time>
      </trkpt>
      <trkpt lat="45.65442" lon="6.81293">
        <ele>2064</ele>
        <time>2021-03-27T12:31:01Z</time>
      </trkpt>
      <trkpt lat="45.65442" lon="6.81293">
        <ele>2064</ele>
        <time>2021-03-27T12:31:02Z</time>
      </trkpt>
      <trkpt lat="45.65443" lon="6.81294">
        <ele>2064</ele>
        <time>2021-03-27T12:31:03Z</time>
      </trkpt>
      <trkpt lat="45.65443" lon="6.81294">
        <ele>2065.6</ele>
        <time>2021-03-27T12:31:04Z</time>
      </trkpt>
      <trkpt lat="45.65444" lon="6.81295">
        <ele>2065.6</ele>
        <time>2021-03-27T12:31:05Z</time>
      </trkpt>
      <trkpt lat="45.65444" lon="6.81296">
        <ele>2065.6</ele>
        <time>2021-03-27T12:31:06Z</time>
      </trkpt>
      <trkpt lat="45.65445" lon="6.81297">
        <ele>2065.6</ele>
        <time>2021-03-27T12:31:07Z</time>
      </trkpt>
      <trkpt lat="45.65445" lon="6.81297">
        <ele>2065.6</ele>
        <time>2021-03-27T12:31:08Z</time>
      </trkpt>
      <trkpt lat="45.65445" lon="6.81298">
        <ele>2066.1</ele>
        <time>2021-03-27T12:31:09Z</time>
      </trkpt>
      <trkpt lat="45.65446" lon="6.81299">
        <ele>2066.1</ele>
        <time>2021-03-27T12:31:10Z</time>
      </trkpt>
      <trkpt lat="45.65446" lon="6.813">
        <ele>2067.3</ele>
        <time>2021-03-27T12:31:11Z</time>
      </trkpt>
      <trkpt lat="45.65446" lon="6.81301">
        <ele>2067.3</ele>
        <time>2021-03-27T12:31:12Z</time>
      </trkpt>
      <trkpt lat="45.65447" lon="6.81302">
        <ele>2067.3</ele>
        <time>2021-03-27T12:31:13Z</time>
      </trkpt>
      <trkpt lat="45.65447" lon="6.81303">
        <ele>2067.8</ele>
        <time>2021-03-27T12:31:14Z</time>
      </trkpt>
      <trkpt lat="45.65447" lon="6.81304">
        <ele>2067.8</ele>
        <time>2021-03-27T12:31:15Z</time>
      </trkpt>
      <trkpt lat="45.65448" lon="6.81305">
        <ele>2067.8</ele>
        <time>2021-03-27T12:31:16Z</time>
      </trkpt>
      <trkpt lat="45.65448" lon="6.81306">
        <ele>2067.8</ele>
        <time>2021-03-27T12:31:17Z</time>
      </trkpt>
      <trkpt lat="45.65448" lon="6.81306">
        <ele>2067.8</ele>
        <time>2021-03-27T12:31:18Z</time>
      </trkpt>
      <trkpt lat="45.65449" lon="6.81307">
        <ele>2068.4</ele>
        <time>2021-03-27T12:31:19Z</time>
      </trkpt>
      <trkpt lat="45.65449" lon="6.81308">
        <ele>2069.6</ele>
        <time>2021-03-27T12:31:20Z</time>
      </trkpt>
      <trkpt lat="45.65449" lon="6.81309">
        <ele>2069.6</ele>
        <time>2021-03-27T12:31:21Z</time>
      </trkpt>
      <trkpt lat="45.6545" lon="6.8131">
        <ele>2069.6</ele>
        <time>2021-03-27T12:31:22Z</time>
      </trkpt>
      <trkpt lat="45.6545" lon="6.81311">
        <ele>2069.6</ele>
        <time>2021-03-27T12:31:23Z</time>
      </trkpt>
      <trkpt lat="45.6545" lon="6.81311">
        <ele>2069.6</ele>
        <time>2021-03-27T12:31:24Z</time>
      </trkpt>
      <trkpt lat="45.6545" lon="6.81312">
        <ele>2070.2</ele>
        <time>2021-03-27T12:31:25Z</time>
      </trkpt>
      <trkpt lat="45.65451" lon="6.81312">
        <ele>2070.2</ele>
        <time>2021-03-27T12:31:26Z</time>
      </trkpt>
      <trkpt lat="45.65451" lon="6.81313">
        <ele>2070.2</ele>
        <time>2021-03-27T12:31:27Z</time>
      </trkpt>
      <trkpt lat="45.65451" lon="6.81314">
        <ele>2070.2</ele>
        <time>2021-03-27T12:31:28Z</time>
      </trkpt>
      <trkpt lat="45.65452" lon="6.81314">
        <ele>2070.2</ele>
        <time>2021-03-27T12:31:29Z</time>
      </trkpt>
      <trkpt lat="45.65452" lon="6.81315">
        <ele>2071.3</ele>
        <time>2021-03-27T12:31:30Z</time>
      </trkpt>
      <trkpt lat="45.65453" lon="6.81315">
        <ele>2071.3</ele>
        <time>2021-03-27T12:31:31Z</time>
      </trkpt>
      <trkpt lat="45.65453" lon="6.81316">
        <ele>2071.9</ele>
        <time>2021-03-27T12:31:32Z</time>
      </trkpt>
      <trkpt lat="45.65454" lon="6.81316">
        <ele>2071.9</ele>
        <time>2021-03-27T12:31:33Z</time>
      </trkpt>
      <trkpt lat="45.65454" lon="6.81315">
        <ele>2071.3</ele>
        <time>2021-03-27T12:31:34Z</time>
      </trkpt>
      <trkpt lat="45.65455" lon="6.81315">
        <ele>2072.3</ele>
        <time>2021-03-27T12:31:35Z</time>
      </trkpt>
      <trkpt lat="45.65456" lon="6.81315">
        <ele>2072.3</ele>
        <time>2021-03-27T12:31:36Z</time>
      </trkpt>
      <trkpt lat="45.65456" lon="6.81314">
        <ele>2072.3</ele>
        <time>2021-03-27T12:31:37Z</time>
      </trkpt>
      <trkpt lat="45.65457" lon="6.81313">
        <ele>2072.3</ele>
        <time>2021-03-27T12:31:38Z</time>
      </trkpt>
      <trkpt lat="45.65457" lon="6.81313">
        <ele>2072.3</ele>
        <time>2021-03-27T12:31:39Z</time>
      </trkpt>
      <trkpt lat="45.65458" lon="6.81313">
        <ele>2072.3</ele>
        <time>2021-03-27T12:31:40Z</time>
      </trkpt>
      <trkpt lat="45.65458" lon="6.81312">
        <ele>2073.2</ele>
        <time>2021-03-27T12:31:41Z</time>
      </trkpt>
      <trkpt lat="45.65459" lon="6.81312">
        <ele>2073.2</ele>
        <time>2021-03-27T12:31:42Z</time>
      </trkpt>
      <trkpt lat="45.65459" lon="6.81311">
        <ele>2073.2</ele>
        <time>2021-03-27T12:31:43Z</time>
      </trkpt>
      <trkpt lat="45.6546" lon="6.81311">
        <ele>2073.2</ele>
        <time>2021-03-27T12:31:44Z</time>
      </trkpt>
      <trkpt lat="45.6546" lon="6.81311">
        <ele>2073.2</ele>
        <time>2021-03-27T12:31:45Z</time>
      </trkpt>
      <trkpt lat="45.65461" lon="6.81311">
        <ele>2072.7</ele>
        <time>2021-03-27T12:31:46Z</time>
      </trkpt>
      <trkpt lat="45.65461" lon="6.81311">
        <ele>2073.6</ele>
        <time>2021-03-27T12:31:47Z</time>
      </trkpt>
      <trkpt lat="45.65461" lon="6.8131">
        <ele>2073.6</ele>
        <time>2021-03-27T12:31:48Z</time>
      </trkpt>
      <trkpt lat="45.65461" lon="6.8131">
        <ele>2073.6</ele>
        <time>2021-03-27T12:31:49Z</time>
      </trkpt>
      <trkpt lat="45.65462" lon="6.8131">
        <ele>2073.6</ele>
        <time>2021-03-27T12:31:50Z</time>
      </trkpt>
      <trkpt lat="45.65462" lon="6.81309">
        <ele>2073.6</ele>
        <time>2021-03-27T12:31:51Z</time>
      </trkpt>
      <trkpt lat="45.65462" lon="6.81309">
        <ele>2073.6</ele>
        <time>2021-03-27T12:31:52Z</time>
      </trkpt>
      <trkpt lat="45.65463" lon="6.81308">
        <ele>2073.6</ele>
        <time>2021-03-27T12:31:53Z</time>
      </trkpt>
      <trkpt lat="45.65463" lon="6.81308">
        <ele>2073.6</ele>
        <time>2021-03-27T12:31:54Z</time>
      </trkpt>
      <trkpt lat="45.65464" lon="6.81307">
        <ele>2074.6</ele>
        <time>2021-03-27T12:31:55Z</time>
      </trkpt>
      <trkpt lat="45.65464" lon="6.81307">
        <ele>2074.6</ele>
        <time>2021-03-27T12:31:56Z</time>
      </trkpt>
      <trkpt lat="45.65464" lon="6.81307">
        <ele>2074.6</ele>
        <time>2021-03-27T12:31:57Z</time>
      </trkpt>
      <trkpt lat="45.65465" lon="6.81307">
        <ele>2074</ele>
        <time>2021-03-27T12:31:58Z</time>
      </trkpt>
      <trkpt lat="45.65466" lon="6.81306">
        <ele>2074</ele>
        <time>2021-03-27T12:31:59Z</time>
      </trkpt>
      <trkpt lat="45.65467" lon="6.81306">
        <ele>2074</ele>
        <time>2021-03-27T12:32:00Z</time>
      </trkpt>
      <trkpt lat="45.65467" lon="6.81305">
        <ele>2075.1</ele>
        <time>2021-03-27T12:32:03Z</time>
      </trkpt>
      <trkpt lat="45.65468" lon="6.81305">
        <ele>2075.1</ele>
        <time>2021-03-27T12:32:04Z</time>
      </trkpt>
      <trkpt lat="45.65469" lon="6.81305">
        <ele>2075.1</ele>
        <time>2021-03-27T12:32:05Z</time>
      </trkpt>
      <trkpt lat="45.65469" lon="6.81304">
        <ele>2075.1</ele>
        <time>2021-03-27T12:32:06Z</time>
      </trkpt>
      <trkpt lat="45.6547" lon="6.81304">
        <ele>2076.2</ele>
        <time>2021-03-27T12:32:07Z</time>
      </trkpt>
      <trkpt lat="45.65471" lon="6.81304">
        <ele>2076.2</ele>
        <time>2021-03-27T12:32:08Z</time>
      </trkpt>
      <trkpt lat="45.65471" lon="6.81305">
        <ele>2076.2</ele>
        <time>2021-03-27T12:32:09Z</time>
      </trkpt>
      <trkpt lat="45.65472" lon="6.81305">
        <ele>2076.2</ele>
        <time>2021-03-27T12:32:10Z</time>
      </trkpt>
      <trkpt lat="45.65473" lon="6.81305">
        <ele>2076.2</ele>
        <time>2021-03-27T12:32:11Z</time>
      </trkpt>
      <trkpt lat="45.65473" lon="6.81305">
        <ele>2077.3</ele>
        <time>2021-03-27T12:32:12Z</time>
      </trkpt>
      <trkpt lat="45.65474" lon="6.81305">
        <ele>2077.3</ele>
        <time>2021-03-27T12:32:13Z</time>
      </trkpt>
      <trkpt lat="45.65475" lon="6.81306">
        <ele>2077.3</ele>
        <time>2021-03-27T12:32:14Z</time>
      </trkpt>
      <trkpt lat="45.65475" lon="6.81306">
        <ele>2077.3</ele>
        <time>2021-03-27T12:32:15Z</time>
      </trkpt>
      <trkpt lat="45.65476" lon="6.81307">
        <ele>2077.3</ele>
        <time>2021-03-27T12:32:16Z</time>
      </trkpt>
      <trkpt lat="45.65476" lon="6.81308">
        <ele>2078.9</ele>
        <time>2021-03-27T12:32:17Z</time>
      </trkpt>
      <trkpt lat="45.65477" lon="6.81308">
        <ele>2078.9</ele>
        <time>2021-03-27T12:32:18Z</time>
      </trkpt>
      <trkpt lat="45.65477" lon="6.81309">
        <ele>2078.9</ele>
        <time>2021-03-27T12:32:19Z</time>
      </trkpt>
      <trkpt lat="45.65477" lon="6.8131">
        <ele>2078.9</ele>
        <time>2021-03-27T12:32:20Z</time>
      </trkpt>
      <trkpt lat="45.65478" lon="6.81312">
        <ele>2079.5</ele>
        <time>2021-03-27T12:32:21Z</time>
      </trkpt>
      <trkpt lat="45.65478" lon="6.81313">
        <ele>2079.5</ele>
        <time>2021-03-27T12:32:22Z</time>
      </trkpt>
      <trkpt lat="45.65478" lon="6.81314">
        <ele>2079.5</ele>
        <time>2021-03-27T12:32:23Z</time>
      </trkpt>
      <trkpt lat="45.65478" lon="6.81315">
        <ele>2079.5</ele>
        <time>2021-03-27T12:32:24Z</time>
      </trkpt>
      <trkpt lat="45.65478" lon="6.81316">
        <ele>2080.1</ele>
        <time>2021-03-27T12:32:25Z</time>
      </trkpt>
      <trkpt lat="45.65478" lon="6.81317">
        <ele>2080.1</ele>
        <time>2021-03-27T12:32:26Z</time>
      </trkpt>
      <trkpt lat="45.65478" lon="6.81318">
        <ele>2080.1</ele>
        <time>2021-03-27T12:32:27Z</time>
      </trkpt>
      <trkpt lat="45.65478" lon="6.81319">
        <ele>2080.1</ele>
        <time>2021-03-27T12:32:28Z</time>
      </trkpt>
      <trkpt lat="45.65479" lon="6.8132">
        <ele>2080.6</ele>
        <time>2021-03-27T12:32:29Z</time>
      </trkpt>
      <trkpt lat="45.65479" lon="6.81321">
        <ele>2080.6</ele>
        <time>2021-03-27T12:32:30Z</time>
      </trkpt>
      <trkpt lat="45.65479" lon="6.81321">
        <ele>2080.6</ele>
        <time>2021-03-27T12:32:31Z</time>
      </trkpt>
      <trkpt lat="45.65479" lon="6.81322">
        <ele>2080.6</ele>
        <time>2021-03-27T12:32:32Z</time>
      </trkpt>
      <trkpt lat="45.65479" lon="6.81323">
        <ele>2080.6</ele>
        <time>2021-03-27T12:32:33Z</time>
      </trkpt>
      <trkpt lat="45.65479" lon="6.81324">
        <ele>2081.6</ele>
        <time>2021-03-27T12:32:34Z</time>
      </trkpt>
      <trkpt lat="45.65479" lon="6.81324">
        <ele>2082.2</ele>
        <time>2021-03-27T12:32:35Z</time>
      </trkpt>
      <trkpt lat="45.65479" lon="6.81325">
        <ele>2082.2</ele>
        <time>2021-03-27T12:32:36Z</time>
      </trkpt>
      <trkpt lat="45.65479" lon="6.81326">
        <ele>2082.2</ele>
        <time>2021-03-27T12:32:37Z</time>
      </trkpt>
      <trkpt lat="45.65479" lon="6.81327">
        <ele>2082.2</ele>
        <time>2021-03-27T12:32:38Z</time>
      </trkpt>
      <trkpt lat="45.6548" lon="6.81327">
        <ele>2082.2</ele>
        <time>2021-03-27T12:32:39Z</time>
      </trkpt>
      <trkpt lat="45.6548" lon="6.81328">
        <ele>2082.2</ele>
        <time>2021-03-27T12:32:40Z</time>
      </trkpt>
      <trkpt lat="45.6548" lon="6.81328">
        <ele>2082.2</ele>
        <time>2021-03-27T12:32:41Z</time>
      </trkpt>
      <trkpt lat="45.6548" lon="6.81329">
        <ele>2082.9</ele>
        <time>2021-03-27T12:32:42Z</time>
      </trkpt>
      <trkpt lat="45.6548" lon="6.8133">
        <ele>2082.9</ele>
        <time>2021-03-27T12:32:43Z</time>
      </trkpt>
      <trkpt lat="45.6548" lon="6.8133">
        <ele>2082.9</ele>
        <time>2021-03-27T12:32:44Z</time>
      </trkpt>
      <trkpt lat="45.65481" lon="6.81331">
        <ele>2082.9</ele>
        <time>2021-03-27T12:32:45Z</time>
      </trkpt>
      <trkpt lat="45.65481" lon="6.81332">
        <ele>2082.9</ele>
        <time>2021-03-27T12:32:46Z</time>
      </trkpt>
      <trkpt lat="45.65482" lon="6.81333">
        <ele>2083.6</ele>
        <time>2021-03-27T12:32:47Z</time>
      </trkpt>
      <trkpt lat="45.65482" lon="6.81334">
        <ele>2083.6</ele>
        <time>2021-03-27T12:32:48Z</time>
      </trkpt>
      <trkpt lat="45.65482" lon="6.81335">
        <ele>2084.5</ele>
        <time>2021-03-27T12:32:49Z</time>
      </trkpt>
      <trkpt lat="45.65483" lon="6.81335">
        <ele>2084.5</ele>
        <time>2021-03-27T12:32:50Z</time>
      </trkpt>
      <trkpt lat="45.65483" lon="6.81336">
        <ele>2084.5</ele>
        <time>2021-03-27T12:32:51Z</time>
      </trkpt>
      <trkpt lat="45.65483" lon="6.81337">
        <ele>2084.5</ele>
        <time>2021-03-27T12:32:52Z</time>
      </trkpt>
      <trkpt lat="45.65484" lon="6.81338">
        <ele>2085.2</ele>
        <time>2021-03-27T12:32:53Z</time>
      </trkpt>
      <trkpt lat="45.65484" lon="6.81338">
        <ele>2085.2</ele>
        <time>2021-03-27T12:32:54Z</time>
      </trkpt>
      <trkpt lat="45.65485" lon="6.81339">
        <ele>2086.1</ele>
        <time>2021-03-27T12:32:55Z</time>
      </trkpt>
      <trkpt lat="45.65486" lon="6.81339">
        <ele>2086.1</ele>
        <time>2021-03-27T12:32:56Z</time>
      </trkpt>
      <trkpt lat="45.65486" lon="6.8134">
        <ele>2086.1</ele>
        <time>2021-03-27T12:32:57Z</time>
      </trkpt>
      <trkpt lat="45.65487" lon="6.8134">
        <ele>2086.1</ele>
        <time>2021-03-27T12:32:58Z</time>
      </trkpt>
      <trkpt lat="45.65487" lon="6.81341">
        <ele>2086.1</ele>
        <time>2021-03-27T12:32:59Z</time>
      </trkpt>
      <trkpt lat="45.65487" lon="6.81341">
        <ele>2086.9</ele>
        <time>2021-03-27T12:33:00Z</time>
      </trkpt>
      <trkpt lat="45.65488" lon="6.81342">
        <ele>2086.9</ele>
        <time>2021-03-27T12:33:01Z</time>
      </trkpt>
      <trkpt lat="45.65488" lon="6.81342">
        <ele>2087.8</ele>
        <time>2021-03-27T12:33:02Z</time>
      </trkpt>
      <trkpt lat="45.65489" lon="6.81343">
        <ele>2087.8</ele>
        <time>2021-03-27T12:33:03Z</time>
      </trkpt>
      <trkpt lat="45.65489" lon="6.81343">
        <ele>2087.8</ele>
        <time>2021-03-27T12:33:04Z</time>
      </trkpt>
      <trkpt lat="45.6549" lon="6.81344">
        <ele>2087.8</ele>
        <time>2021-03-27T12:33:05Z</time>
      </trkpt>
      <trkpt lat="45.6549" lon="6.81344">
        <ele>2087.8</ele>
        <time>2021-03-27T12:33:06Z</time>
      </trkpt>
      <trkpt lat="45.65491" lon="6.81345">
        <ele>2087.8</ele>
        <time>2021-03-27T12:33:07Z</time>
      </trkpt>
      <trkpt lat="45.65491" lon="6.81346">
        <ele>2088.6</ele>
        <time>2021-03-27T12:33:08Z</time>
      </trkpt>
      <trkpt lat="45.65491" lon="6.81347">
        <ele>2089.6</ele>
        <time>2021-03-27T12:33:09Z</time>
      </trkpt>
      <trkpt lat="45.65491" lon="6.81348">
        <ele>2089.6</ele>
        <time>2021-03-27T12:33:10Z</time>
      </trkpt>
      <trkpt lat="45.65492" lon="6.81349">
        <ele>2089.6</ele>
        <time>2021-03-27T12:33:11Z</time>
      </trkpt>
      <trkpt lat="45.65492" lon="6.8135">
        <ele>2089.6</ele>
        <time>2021-03-27T12:33:12Z</time>
      </trkpt>
      <trkpt lat="45.65492" lon="6.81351">
        <ele>2090.6</ele>
        <time>2021-03-27T12:33:13Z</time>
      </trkpt>
      <trkpt lat="45.65493" lon="6.81352">
        <ele>2090.6</ele>
        <time>2021-03-27T12:33:14Z</time>
      </trkpt>
      <trkpt lat="45.65493" lon="6.81353">
        <ele>2090.6</ele>
        <time>2021-03-27T12:33:15Z</time>
      </trkpt>
      <trkpt lat="45.65493" lon="6.81354">
        <ele>2090.6</ele>
        <time>2021-03-27T12:33:16Z</time>
      </trkpt>
      <trkpt lat="45.65493" lon="6.81355">
        <ele>2091.5</ele>
        <time>2021-03-27T12:33:17Z</time>
      </trkpt>
      <trkpt lat="45.65493" lon="6.81355">
        <ele>2091.5</ele>
        <time>2021-03-27T12:33:18Z</time>
      </trkpt>
      <trkpt lat="45.65493" lon="6.81356">
        <ele>2091.6</ele>
        <time>2021-03-27T12:33:19Z</time>
      </trkpt>
      <trkpt lat="45.65493" lon="6.81357">
        <ele>2091.6</ele>
        <time>2021-03-27T12:33:20Z</time>
      </trkpt>
      <trkpt lat="45.65493" lon="6.81358">
        <ele>2092.5</ele>
        <time>2021-03-27T12:33:21Z</time>
      </trkpt>
      <trkpt lat="45.65493" lon="6.81359">
        <ele>2092.5</ele>
        <time>2021-03-27T12:33:22Z</time>
      </trkpt>
      <trkpt lat="45.65493" lon="6.8136">
        <ele>2092.5</ele>
        <time>2021-03-27T12:33:23Z</time>
      </trkpt>
      <trkpt lat="45.65493" lon="6.81361">
        <ele>2092.5</ele>
        <time>2021-03-27T12:33:24Z</time>
      </trkpt>
      <trkpt lat="45.65493" lon="6.81362">
        <ele>2092.5</ele>
        <time>2021-03-27T12:33:25Z</time>
      </trkpt>
      <trkpt lat="45.65493" lon="6.81363">
        <ele>2093.5</ele>
        <time>2021-03-27T12:33:26Z</time>
      </trkpt>
      <trkpt lat="45.65492" lon="6.81364">
        <ele>2093.5</ele>
        <time>2021-03-27T12:33:27Z</time>
      </trkpt>
      <trkpt lat="45.65492" lon="6.81365">
        <ele>2093.5</ele>
        <time>2021-03-27T12:33:28Z</time>
      </trkpt>
      <trkpt lat="45.65492" lon="6.81365">
        <ele>2093.5</ele>
        <time>2021-03-27T12:33:29Z</time>
      </trkpt>
      <trkpt lat="45.65492" lon="6.81366">
        <ele>2093.5</ele>
        <time>2021-03-27T12:33:30Z</time>
      </trkpt>
      <trkpt lat="45.65492" lon="6.81367">
        <ele>2093.5</ele>
        <time>2021-03-27T12:33:31Z</time>
      </trkpt>
      <trkpt lat="45.65492" lon="6.81367">
        <ele>2094.3</ele>
        <time>2021-03-27T12:33:32Z</time>
      </trkpt>
      <trkpt lat="45.65492" lon="6.81368">
        <ele>2094.4</ele>
        <time>2021-03-27T12:33:33Z</time>
      </trkpt>
      <trkpt lat="45.65492" lon="6.81368">
        <ele>2094.4</ele>
        <time>2021-03-27T12:33:34Z</time>
      </trkpt>
      <trkpt lat="45.65492" lon="6.81369">
        <ele>2094.4</ele>
        <time>2021-03-27T12:33:35Z</time>
      </trkpt>
      <trkpt lat="45.65492" lon="6.81369">
        <ele>2094.4</ele>
        <time>2021-03-27T12:33:36Z</time>
      </trkpt>
      <trkpt lat="45.65493" lon="6.8137">
        <ele>2094.4</ele>
        <time>2021-03-27T12:33:37Z</time>
      </trkpt>
      <trkpt lat="45.65494" lon="6.8137">
        <ele>2094.4</ele>
        <time>2021-03-27T12:33:38Z</time>
      </trkpt>
      <trkpt lat="45.65494" lon="6.8137">
        <ele>2095.5</ele>
        <time>2021-03-27T12:33:39Z</time>
      </trkpt>
      <trkpt lat="45.65495" lon="6.8137">
        <ele>2095.5</ele>
        <time>2021-03-27T12:33:40Z</time>
      </trkpt>
      <trkpt lat="45.65495" lon="6.8137">
        <ele>2095.5</ele>
        <time>2021-03-27T12:33:41Z</time>
      </trkpt>
      <trkpt lat="45.65496" lon="6.81369">
        <ele>2095.5</ele>
        <time>2021-03-27T12:33:42Z</time>
      </trkpt>
      <trkpt lat="45.65497" lon="6.81369">
        <ele>2095.5</ele>
        <time>2021-03-27T12:33:43Z</time>
      </trkpt>
      <trkpt lat="45.65498" lon="6.81369">
        <ele>2096.5</ele>
        <time>2021-03-27T12:33:44Z</time>
      </trkpt>
      <trkpt lat="45.65498" lon="6.81369">
        <ele>2096.5</ele>
        <time>2021-03-27T12:33:45Z</time>
      </trkpt>
      <trkpt lat="45.65499" lon="6.81368">
        <ele>2096.6</ele>
        <time>2021-03-27T12:33:46Z</time>
      </trkpt>
      <trkpt lat="45.655" lon="6.81368">
        <ele>2096.6</ele>
        <time>2021-03-27T12:33:47Z</time>
      </trkpt>
      <trkpt lat="45.655" lon="6.81368">
        <ele>2097.6</ele>
        <time>2021-03-27T12:33:48Z</time>
      </trkpt>
      <trkpt lat="45.65501" lon="6.81367">
        <ele>2097.6</ele>
        <time>2021-03-27T12:33:49Z</time>
      </trkpt>
      <trkpt lat="45.65501" lon="6.81367">
        <ele>2096.8</ele>
        <time>2021-03-27T12:33:50Z</time>
      </trkpt>
      <trkpt lat="45.65501" lon="6.81367">
        <ele>2096.8</ele>
        <time>2021-03-27T12:33:51Z</time>
      </trkpt>
      <trkpt lat="45.65502" lon="6.81366">
        <ele>2096.8</ele>
        <time>2021-03-27T12:33:52Z</time>
      </trkpt>
      <trkpt lat="45.65502" lon="6.81366">
        <ele>2096.9</ele>
        <time>2021-03-27T12:33:53Z</time>
      </trkpt>
      <trkpt lat="45.65502" lon="6.81366">
        <ele>2096.9</ele>
        <time>2021-03-27T12:33:54Z</time>
      </trkpt>
      <trkpt lat="45.65502" lon="6.81366">
        <ele>2096.9</ele>
        <time>2021-03-27T12:33:55Z</time>
      </trkpt>
      <trkpt lat="45.65503" lon="6.81366">
        <ele>2096.9</ele>
        <time>2021-03-27T12:33:56Z</time>
      </trkpt>
      <trkpt lat="45.65503" lon="6.81365">
        <ele>2097.8</ele>
        <time>2021-03-27T12:33:57Z</time>
      </trkpt>
      <trkpt lat="45.65503" lon="6.81364">
        <ele>2097.8</ele>
        <time>2021-03-27T12:33:58Z</time>
      </trkpt>
      <trkpt lat="45.65504" lon="6.81363">
        <ele>2097.9</ele>
        <time>2021-03-27T12:33:59Z</time>
      </trkpt>
      <trkpt lat="45.65504" lon="6.81363">
        <ele>2097.1</ele>
        <time>2021-03-27T12:34:00Z</time>
      </trkpt>
      <trkpt lat="45.65505" lon="6.81362">
        <ele>2097.1</ele>
        <time>2021-03-27T12:34:01Z</time>
      </trkpt>
      <trkpt lat="45.65505" lon="6.81362">
        <ele>2097.1</ele>
        <time>2021-03-27T12:34:02Z</time>
      </trkpt>
      <trkpt lat="45.65505" lon="6.81361">
        <ele>2097.1</ele>
        <time>2021-03-27T12:34:03Z</time>
      </trkpt>
      <trkpt lat="45.65505" lon="6.81361">
        <ele>2097.1</ele>
        <time>2021-03-27T12:34:04Z</time>
      </trkpt>
      <trkpt lat="45.65505" lon="6.81361">
        <ele>2097.1</ele>
        <time>2021-03-27T12:34:05Z</time>
      </trkpt>
      <trkpt lat="45.65505" lon="6.81361">
        <ele>2097.2</ele>
        <time>2021-03-27T12:34:06Z</time>
      </trkpt>
      <trkpt lat="45.65505" lon="6.81361">
        <ele>2097.2</ele>
        <time>2021-03-27T12:34:07Z</time>
      </trkpt>
      <trkpt lat="45.65506" lon="6.81361">
        <ele>2097.2</ele>
        <time>2021-03-27T12:34:08Z</time>
      </trkpt>
      <trkpt lat="45.65506" lon="6.81361">
        <ele>2097.2</ele>
        <time>2021-03-27T12:34:09Z</time>
      </trkpt>
      <trkpt lat="45.65506" lon="6.81361">
        <ele>2098</ele>
        <time>2021-03-27T12:34:10Z</time>
      </trkpt>
      <trkpt lat="45.65506" lon="6.81361">
        <ele>2098</ele>
        <time>2021-03-27T12:34:11Z</time>
      </trkpt>
      <trkpt lat="45.65506" lon="6.81361">
        <ele>2098</ele>
        <time>2021-03-27T12:34:12Z</time>
      </trkpt>
      <trkpt lat="45.65506" lon="6.81361">
        <ele>2098.1</ele>
        <time>2021-03-27T12:34:13Z</time>
      </trkpt>
      <trkpt lat="45.65506" lon="6.81361">
        <ele>2098.1</ele>
        <time>2021-03-27T12:34:14Z</time>
      </trkpt>
      <trkpt lat="45.65506" lon="6.81361">
        <ele>2098.1</ele>
        <time>2021-03-27T12:34:15Z</time>
      </trkpt>
      <trkpt lat="45.65507" lon="6.81362">
        <ele>2098.1</ele>
        <time>2021-03-27T12:34:16Z</time>
      </trkpt>
      <trkpt lat="45.65507" lon="6.81363">
        <ele>2098.9</ele>
        <time>2021-03-27T12:34:17Z</time>
      </trkpt>
      <trkpt lat="45.65507" lon="6.81365">
        <ele>2098.9</ele>
        <time>2021-03-27T12:34:18Z</time>
      </trkpt>
      <trkpt lat="45.65507" lon="6.81366">
        <ele>2099</ele>
        <time>2021-03-27T12:34:19Z</time>
      </trkpt>
      <trkpt lat="45.65507" lon="6.81368">
        <ele>2099.8</ele>
        <time>2021-03-27T12:34:20Z</time>
      </trkpt>
      <trkpt lat="45.65507" lon="6.81369">
        <ele>2099.8</ele>
        <time>2021-03-27T12:34:21Z</time>
      </trkpt>
      <trkpt lat="45.65507" lon="6.8137">
        <ele>2099.8</ele>
        <time>2021-03-27T12:34:22Z</time>
      </trkpt>
      <trkpt lat="45.65507" lon="6.81371">
        <ele>2099.8</ele>
        <time>2021-03-27T12:34:23Z</time>
      </trkpt>
      <trkpt lat="45.65507" lon="6.81372">
        <ele>2100.6</ele>
        <time>2021-03-27T12:34:24Z</time>
      </trkpt>
      <trkpt lat="45.65507" lon="6.81373">
        <ele>2100.6</ele>
        <time>2021-03-27T12:34:25Z</time>
      </trkpt>
      <trkpt lat="45.65508" lon="6.81374">
        <ele>2100.7</ele>
        <time>2021-03-27T12:34:26Z</time>
      </trkpt>
      <trkpt lat="45.65508" lon="6.81375">
        <ele>2100.7</ele>
        <time>2021-03-27T12:34:27Z</time>
      </trkpt>
      <trkpt lat="45.65508" lon="6.81376">
        <ele>2101.4</ele>
        <time>2021-03-27T12:34:28Z</time>
      </trkpt>
      <trkpt lat="45.65508" lon="6.81377">
        <ele>2101.4</ele>
        <time>2021-03-27T12:34:29Z</time>
      </trkpt>
      <trkpt lat="45.65508" lon="6.81378">
        <ele>2101.4</ele>
        <time>2021-03-27T12:34:30Z</time>
      </trkpt>
      <trkpt lat="45.65508" lon="6.81379">
        <ele>2101.4</ele>
        <time>2021-03-27T12:34:31Z</time>
      </trkpt>
      <trkpt lat="45.65508" lon="6.81379">
        <ele>2101.4</ele>
        <time>2021-03-27T12:34:32Z</time>
      </trkpt>
      <trkpt lat="45.65508" lon="6.8138">
        <ele>2102.2</ele>
        <time>2021-03-27T12:34:33Z</time>
      </trkpt>
      <trkpt lat="45.65508" lon="6.81381">
        <ele>2102.2</ele>
        <time>2021-03-27T12:34:34Z</time>
      </trkpt>
      <trkpt lat="45.65508" lon="6.81382">
        <ele>2102.2</ele>
        <time>2021-03-27T12:34:35Z</time>
      </trkpt>
      <trkpt lat="45.65508" lon="6.81383">
        <ele>2102.2</ele>
        <time>2021-03-27T12:34:36Z</time>
      </trkpt>
      <trkpt lat="45.65508" lon="6.81383">
        <ele>2102.2</ele>
        <time>2021-03-27T12:34:37Z</time>
      </trkpt>
      <trkpt lat="45.65508" lon="6.81384">
        <ele>2102.9</ele>
        <time>2021-03-27T12:34:38Z</time>
      </trkpt>
      <trkpt lat="45.65508" lon="6.81385">
        <ele>2103</ele>
        <time>2021-03-27T12:34:39Z</time>
      </trkpt>
      <trkpt lat="45.65508" lon="6.81386">
        <ele>2103</ele>
        <time>2021-03-27T12:34:40Z</time>
      </trkpt>
      <trkpt lat="45.65508" lon="6.81387">
        <ele>2103</ele>
        <time>2021-03-27T12:34:41Z</time>
      </trkpt>
      <trkpt lat="45.65508" lon="6.81388">
        <ele>2103</ele>
        <time>2021-03-27T12:34:42Z</time>
      </trkpt>
      <trkpt lat="45.65508" lon="6.81389">
        <ele>2103.7</ele>
        <time>2021-03-27T12:34:43Z</time>
      </trkpt>
      <trkpt lat="45.65508" lon="6.8139">
        <ele>2103.7</ele>
        <time>2021-03-27T12:34:44Z</time>
      </trkpt>
      <trkpt lat="45.65507" lon="6.81391">
        <ele>2103.7</ele>
        <time>2021-03-27T12:34:45Z</time>
      </trkpt>
      <trkpt lat="45.65507" lon="6.81392">
        <ele>2103.8</ele>
        <time>2021-03-27T12:34:46Z</time>
      </trkpt>
      <trkpt lat="45.65507" lon="6.81392">
        <ele>2103.8</ele>
        <time>2021-03-27T12:34:47Z</time>
      </trkpt>
      <trkpt lat="45.65507" lon="6.81393">
        <ele>2104.6</ele>
        <time>2021-03-27T12:34:48Z</time>
      </trkpt>
      <trkpt lat="45.65506" lon="6.81394">
        <ele>2104.6</ele>
        <time>2021-03-27T12:34:49Z</time>
      </trkpt>
      <trkpt lat="45.65506" lon="6.81394">
        <ele>2104.6</ele>
        <time>2021-03-27T12:34:50Z</time>
      </trkpt>
      <trkpt lat="45.65507" lon="6.81395">
        <ele>2104.6</ele>
        <time>2021-03-27T12:34:51Z</time>
      </trkpt>
      <trkpt lat="45.65507" lon="6.81396">
        <ele>2104.6</ele>
        <time>2021-03-27T12:34:52Z</time>
      </trkpt>
      <trkpt lat="45.65507" lon="6.81397">
        <ele>2104.6</ele>
        <time>2021-03-27T12:34:53Z</time>
      </trkpt>
      <trkpt lat="45.65507" lon="6.81398">
        <ele>2105.3</ele>
        <time>2021-03-27T12:34:54Z</time>
      </trkpt>
      <trkpt lat="45.65507" lon="6.81398">
        <ele>2105.3</ele>
        <time>2021-03-27T12:34:55Z</time>
      </trkpt>
      <trkpt lat="45.65507" lon="6.81399">
        <ele>2105.3</ele>
        <time>2021-03-27T12:34:56Z</time>
      </trkpt>
      <trkpt lat="45.65508" lon="6.81399">
        <ele>2105.3</ele>
        <time>2021-03-27T12:34:57Z</time>
      </trkpt>
      <trkpt lat="45.65508" lon="6.81399">
        <ele>2105.3</ele>
        <time>2021-03-27T12:34:58Z</time>
      </trkpt>
      <trkpt lat="45.65509" lon="6.81399">
        <ele>2105.3</ele>
        <time>2021-03-27T12:34:59Z</time>
      </trkpt>
      <trkpt lat="45.65509" lon="6.81399">
        <ele>2105.3</ele>
        <time>2021-03-27T12:35:00Z</time>
      </trkpt>
      <trkpt lat="45.65509" lon="6.81398">
        <ele>2106.1</ele>
        <time>2021-03-27T12:35:01Z</time>
      </trkpt>
      <trkpt lat="45.6551" lon="6.81397">
        <ele>2106.1</ele>
        <time>2021-03-27T12:35:02Z</time>
      </trkpt>
      <trkpt lat="45.6551" lon="6.81397">
        <ele>2105.4</ele>
        <time>2021-03-27T12:35:03Z</time>
      </trkpt>
      <trkpt lat="45.65511" lon="6.81397">
        <ele>2105.4</ele>
        <time>2021-03-27T12:35:04Z</time>
      </trkpt>
      <trkpt lat="45.65511" lon="6.81397">
        <ele>2105.4</ele>
        <time>2021-03-27T12:35:05Z</time>
      </trkpt>
      <trkpt lat="45.65511" lon="6.81397">
        <ele>2105.4</ele>
        <time>2021-03-27T12:35:06Z</time>
      </trkpt>
      <trkpt lat="45.65512" lon="6.81397">
        <ele>2105.4</ele>
        <time>2021-03-27T12:35:07Z</time>
      </trkpt>
      <trkpt lat="45.65512" lon="6.81396">
        <ele>2106.2</ele>
        <time>2021-03-27T12:35:08Z</time>
      </trkpt>
      <trkpt lat="45.65513" lon="6.81396">
        <ele>2106.2</ele>
        <time>2021-03-27T12:35:09Z</time>
      </trkpt>
      <trkpt lat="45.65513" lon="6.81395">
        <ele>2106.2</ele>
        <time>2021-03-27T12:35:10Z</time>
      </trkpt>
      <trkpt lat="45.65514" lon="6.81394">
        <ele>2106.2</ele>
        <time>2021-03-27T12:35:11Z</time>
      </trkpt>
      <trkpt lat="45.65514" lon="6.81394">
        <ele>2106.2</ele>
        <time>2021-03-27T12:35:12Z</time>
      </trkpt>
      <trkpt lat="45.65515" lon="6.81394">
        <ele>2106.9</ele>
        <time>2021-03-27T12:35:13Z</time>
      </trkpt>
      <trkpt lat="45.65516" lon="6.81393">
        <ele>2106.9</ele>
        <time>2021-03-27T12:35:14Z</time>
      </trkpt>
      <trkpt lat="45.65516" lon="6.81393">
        <ele>2106.9</ele>
        <time>2021-03-27T12:35:15Z</time>
      </trkpt>
      <trkpt lat="45.65517" lon="6.81392">
        <ele>2106.1</ele>
        <time>2021-03-27T12:35:16Z</time>
      </trkpt>
      <trkpt lat="45.65518" lon="6.81392">
        <ele>2106.1</ele>
        <time>2021-03-27T12:35:17Z</time>
      </trkpt>
      <trkpt lat="45.65518" lon="6.81392">
        <ele>2106.9</ele>
        <time>2021-03-27T12:35:18Z</time>
      </trkpt>
      <trkpt lat="45.65519" lon="6.81391">
        <ele>2106.9</ele>
        <time>2021-03-27T12:35:19Z</time>
      </trkpt>
      <trkpt lat="45.65519" lon="6.81391">
        <ele>2106.9</ele>
        <time>2021-03-27T12:35:20Z</time>
      </trkpt>
      <trkpt lat="45.6552" lon="6.8139">
        <ele>2106.9</ele>
        <time>2021-03-27T12:35:21Z</time>
      </trkpt>
      <trkpt lat="45.65521" lon="6.8139">
        <ele>2106.9</ele>
        <time>2021-03-27T12:35:22Z</time>
      </trkpt>
      <trkpt lat="45.65521" lon="6.81391">
        <ele>2107.7</ele>
        <time>2021-03-27T12:35:23Z</time>
      </trkpt>
      <trkpt lat="45.65522" lon="6.81391">
        <ele>2107.7</ele>
        <time>2021-03-27T12:35:24Z</time>
      </trkpt>
      <trkpt lat="45.65522" lon="6.81392">
        <ele>2107.7</ele>
        <time>2021-03-27T12:35:25Z</time>
      </trkpt>
      <trkpt lat="45.65523" lon="6.81393">
        <ele>2108.4</ele>
        <time>2021-03-27T12:35:26Z</time>
      </trkpt>
      <trkpt lat="45.65523" lon="6.81394">
        <ele>2108.4</ele>
        <time>2021-03-27T12:35:27Z</time>
      </trkpt>
      <trkpt lat="45.65523" lon="6.81395">
        <ele>2108.4</ele>
        <time>2021-03-27T12:35:28Z</time>
      </trkpt>
      <trkpt lat="45.65523" lon="6.81396">
        <ele>2108.4</ele>
        <time>2021-03-27T12:35:29Z</time>
      </trkpt>
      <trkpt lat="45.65523" lon="6.81397">
        <ele>2109.2</ele>
        <time>2021-03-27T12:35:30Z</time>
      </trkpt>
      <trkpt lat="45.65523" lon="6.81398">
        <ele>2109.2</ele>
        <time>2021-03-27T12:35:31Z</time>
      </trkpt>
      <trkpt lat="45.65524" lon="6.81399">
        <ele>2109.2</ele>
        <time>2021-03-27T12:35:32Z</time>
      </trkpt>
      <trkpt lat="45.65524" lon="6.814">
        <ele>2110</ele>
        <time>2021-03-27T12:35:33Z</time>
      </trkpt>
      <trkpt lat="45.65524" lon="6.81401">
        <ele>2110</ele>
        <time>2021-03-27T12:35:34Z</time>
      </trkpt>
      <trkpt lat="45.65524" lon="6.81402">
        <ele>2110.8</ele>
        <time>2021-03-27T12:35:35Z</time>
      </trkpt>
      <trkpt lat="45.65524" lon="6.81403">
        <ele>2110.8</ele>
        <time>2021-03-27T12:35:36Z</time>
      </trkpt>
      <trkpt lat="45.65525" lon="6.81404">
        <ele>2110.8</ele>
        <time>2021-03-27T12:35:37Z</time>
      </trkpt>
      <trkpt lat="45.65525" lon="6.81405">
        <ele>2110.8</ele>
        <time>2021-03-27T12:35:38Z</time>
      </trkpt>
      <trkpt lat="45.65525" lon="6.81406">
        <ele>2110.8</ele>
        <time>2021-03-27T12:35:39Z</time>
      </trkpt>
      <trkpt lat="45.65526" lon="6.81406">
        <ele>2111.6</ele>
        <time>2021-03-27T12:35:40Z</time>
      </trkpt>
      <trkpt lat="45.65526" lon="6.81407">
        <ele>2111.6</ele>
        <time>2021-03-27T12:35:41Z</time>
      </trkpt>
      <trkpt lat="45.65526" lon="6.81408">
        <ele>2111.6</ele>
        <time>2021-03-27T12:35:42Z</time>
      </trkpt>
      <trkpt lat="45.65526" lon="6.81408">
        <ele>2111.6</ele>
        <time>2021-03-27T12:35:43Z</time>
      </trkpt>
      <trkpt lat="45.65526" lon="6.81409">
        <ele>2111.6</ele>
        <time>2021-03-27T12:35:44Z</time>
      </trkpt>
      <trkpt lat="45.65527" lon="6.8141">
        <ele>2111.6</ele>
        <time>2021-03-27T12:35:45Z</time>
      </trkpt>
      <trkpt lat="45.65527" lon="6.8141">
        <ele>2113.2</ele>
        <time>2021-03-27T12:35:46Z</time>
      </trkpt>
      <trkpt lat="45.65527" lon="6.81411">
        <ele>2113.2</ele>
        <time>2021-03-27T12:35:47Z</time>
      </trkpt>
      <trkpt lat="45.65528" lon="6.81412">
        <ele>2113.2</ele>
        <time>2021-03-27T12:35:48Z</time>
      </trkpt>
      <trkpt lat="45.65528" lon="6.81413">
        <ele>2113.2</ele>
        <time>2021-03-27T12:35:49Z</time>
      </trkpt>
      <trkpt lat="45.65529" lon="6.81414">
        <ele>2113.2</ele>
        <time>2021-03-27T12:35:50Z</time>
      </trkpt>
      <trkpt lat="45.65529" lon="6.81415">
        <ele>2114</ele>
        <time>2021-03-27T12:35:51Z</time>
      </trkpt>
      <trkpt lat="45.6553" lon="6.81415">
        <ele>2114</ele>
        <time>2021-03-27T12:35:52Z</time>
      </trkpt>
      <trkpt lat="45.6553" lon="6.81416">
        <ele>2114.9</ele>
        <time>2021-03-27T12:35:53Z</time>
      </trkpt>
      <trkpt lat="45.6553" lon="6.81417">
        <ele>2114.9</ele>
        <time>2021-03-27T12:35:54Z</time>
      </trkpt>
      <trkpt lat="45.65531" lon="6.81418">
        <ele>2114.9</ele>
        <time>2021-03-27T12:35:55Z</time>
      </trkpt>
      <trkpt lat="45.65531" lon="6.81419">
        <ele>2115.7</ele>
        <time>2021-03-27T12:35:56Z</time>
      </trkpt>
      <trkpt lat="45.65531" lon="6.8142">
        <ele>2115.7</ele>
        <time>2021-03-27T12:35:57Z</time>
      </trkpt>
      <trkpt lat="45.65532" lon="6.81421">
        <ele>2115.7</ele>
        <time>2021-03-27T12:35:58Z</time>
      </trkpt>
      <trkpt lat="45.65532" lon="6.81422">
        <ele>2115.7</ele>
        <time>2021-03-27T12:35:59Z</time>
      </trkpt>
      <trkpt lat="45.65532" lon="6.81423">
        <ele>2115.7</ele>
        <time>2021-03-27T12:36:00Z</time>
      </trkpt>
      <trkpt lat="45.65532" lon="6.81423">
        <ele>2116.6</ele>
        <time>2021-03-27T12:36:01Z</time>
      </trkpt>
      <trkpt lat="45.65533" lon="6.81424">
        <ele>2116.6</ele>
        <time>2021-03-27T12:36:02Z</time>
      </trkpt>
      <trkpt lat="45.65533" lon="6.81425">
        <ele>2116.6</ele>
        <time>2021-03-27T12:36:03Z</time>
      </trkpt>
      <trkpt lat="45.65533" lon="6.81425">
        <ele>2117.5</ele>
        <time>2021-03-27T12:36:04Z</time>
      </trkpt>
      <trkpt lat="45.65533" lon="6.81426">
        <ele>2117.5</ele>
        <time>2021-03-27T12:36:05Z</time>
      </trkpt>
      <trkpt lat="45.65534" lon="6.81427">
        <ele>2117.5</ele>
        <time>2021-03-27T12:36:06Z</time>
      </trkpt>
      <trkpt lat="45.65534" lon="6.81427">
        <ele>2118.4</ele>
        <time>2021-03-27T12:36:07Z</time>
      </trkpt>
      <trkpt lat="45.65534" lon="6.81428">
        <ele>2118.4</ele>
        <time>2021-03-27T12:36:08Z</time>
      </trkpt>
      <trkpt lat="45.65534" lon="6.81429">
        <ele>2118.4</ele>
        <time>2021-03-27T12:36:09Z</time>
      </trkpt>
      <trkpt lat="45.65535" lon="6.81429">
        <ele>2118.4</ele>
        <time>2021-03-27T12:36:10Z</time>
      </trkpt>
      <trkpt lat="45.65535" lon="6.8143">
        <ele>2118.4</ele>
        <time>2021-03-27T12:36:11Z</time>
      </trkpt>
      <trkpt lat="45.65535" lon="6.8143">
        <ele>2118.4</ele>
        <time>2021-03-27T12:36:12Z</time>
      </trkpt>
      <trkpt lat="45.65536" lon="6.81431">
        <ele>2118.4</ele>
        <time>2021-03-27T12:36:13Z</time>
      </trkpt>
      <trkpt lat="45.65536" lon="6.81431">
        <ele>2119.3</ele>
        <time>2021-03-27T12:36:14Z</time>
      </trkpt>
      <trkpt lat="45.65536" lon="6.81431">
        <ele>2119.3</ele>
        <time>2021-03-27T12:36:15Z</time>
      </trkpt>
      <trkpt lat="45.65537" lon="6.81432">
        <ele>2120.3</ele>
        <time>2021-03-27T12:36:16Z</time>
      </trkpt>
      <trkpt lat="45.65537" lon="6.81432">
        <ele>2120.3</ele>
        <time>2021-03-27T12:36:17Z</time>
      </trkpt>
      <trkpt lat="45.65537" lon="6.81433">
        <ele>2120.3</ele>
        <time>2021-03-27T12:36:18Z</time>
      </trkpt>
      <trkpt lat="45.65538" lon="6.81433">
        <ele>2120.3</ele>
        <time>2021-03-27T12:36:19Z</time>
      </trkpt>
      <trkpt lat="45.65538" lon="6.81434">
        <ele>2120.3</ele>
        <time>2021-03-27T12:36:20Z</time>
      </trkpt>
      <trkpt lat="45.65539" lon="6.81434">
        <ele>2120.3</ele>
        <time>2021-03-27T12:36:21Z</time>
      </trkpt>
      <trkpt lat="45.65539" lon="6.81435">
        <ele>2121.1</ele>
        <time>2021-03-27T12:36:22Z</time>
      </trkpt>
      <trkpt lat="45.6554" lon="6.81436">
        <ele>2122.2</ele>
        <time>2021-03-27T12:36:23Z</time>
      </trkpt>
      <trkpt lat="45.6554" lon="6.81436">
        <ele>2122.2</ele>
        <time>2021-03-27T12:36:24Z</time>
      </trkpt>
      <trkpt lat="45.65541" lon="6.81437">
        <ele>2122.2</ele>
        <time>2021-03-27T12:36:25Z</time>
      </trkpt>
      <trkpt lat="45.65541" lon="6.81438">
        <ele>2122.2</ele>
        <time>2021-03-27T12:36:26Z</time>
      </trkpt>
      <trkpt lat="45.65542" lon="6.81439">
        <ele>2122.2</ele>
        <time>2021-03-27T12:36:27Z</time>
      </trkpt>
      <trkpt lat="45.65542" lon="6.8144">
        <ele>2124.2</ele>
        <time>2021-03-27T12:36:28Z</time>
      </trkpt>
      <trkpt lat="45.65542" lon="6.81441">
        <ele>2124.2</ele>
        <time>2021-03-27T12:36:29Z</time>
      </trkpt>
      <trkpt lat="45.65543" lon="6.81442">
        <ele>2124.2</ele>
        <time>2021-03-27T12:36:30Z</time>
      </trkpt>
      <trkpt lat="45.65543" lon="6.81443">
        <ele>2124.2</ele>
        <time>2021-03-27T12:36:31Z</time>
      </trkpt>
      <trkpt lat="45.65543" lon="6.81443">
        <ele>2124.2</ele>
        <time>2021-03-27T12:36:32Z</time>
      </trkpt>
      <trkpt lat="45.65543" lon="6.81444">
        <ele>2124.2</ele>
        <time>2021-03-27T12:36:33Z</time>
      </trkpt>
      <trkpt lat="45.65544" lon="6.81445">
        <ele>2125.5</ele>
        <time>2021-03-27T12:36:34Z</time>
      </trkpt>
      <trkpt lat="45.65544" lon="6.81445">
        <ele>2125.5</ele>
        <time>2021-03-27T12:36:35Z</time>
      </trkpt>
      <trkpt lat="45.65545" lon="6.81446">
        <ele>2125.5</ele>
        <time>2021-03-27T12:36:36Z</time>
      </trkpt>
      <trkpt lat="45.65545" lon="6.81446">
        <ele>2126.3</ele>
        <time>2021-03-27T12:36:37Z</time>
      </trkpt>
      <trkpt lat="45.65546" lon="6.81446">
        <ele>2126.3</ele>
        <time>2021-03-27T12:36:38Z</time>
      </trkpt>
      <trkpt lat="45.65546" lon="6.81446">
        <ele>2126.3</ele>
        <time>2021-03-27T12:36:39Z</time>
      </trkpt>
      <trkpt lat="45.65547" lon="6.81446">
        <ele>2126.3</ele>
        <time>2021-03-27T12:36:40Z</time>
      </trkpt>
      <trkpt lat="45.65547" lon="6.81445">
        <ele>2126.3</ele>
        <time>2021-03-27T12:36:41Z</time>
      </trkpt>
      <trkpt lat="45.65548" lon="6.81444">
        <ele>2125</ele>
        <time>2021-03-27T12:36:42Z</time>
      </trkpt>
      <trkpt lat="45.65549" lon="6.81443">
        <ele>2125.9</ele>
        <time>2021-03-27T12:36:43Z</time>
      </trkpt>
      <trkpt lat="45.65549" lon="6.81442">
        <ele>2125.9</ele>
        <time>2021-03-27T12:36:44Z</time>
      </trkpt>
      <trkpt lat="45.6555" lon="6.81441">
        <ele>2125.9</ele>
        <time>2021-03-27T12:36:45Z</time>
      </trkpt>
      <trkpt lat="45.65551" lon="6.81441">
        <ele>2125.9</ele>
        <time>2021-03-27T12:36:46Z</time>
      </trkpt>
      <trkpt lat="45.65551" lon="6.8144">
        <ele>2126.8</ele>
        <time>2021-03-27T12:36:47Z</time>
      </trkpt>
      <trkpt lat="45.65552" lon="6.8144">
        <ele>2125.6</ele>
        <time>2021-03-27T12:36:48Z</time>
      </trkpt>
      <trkpt lat="45.65552" lon="6.81439">
        <ele>2125.6</ele>
        <time>2021-03-27T12:36:49Z</time>
      </trkpt>
      <trkpt lat="45.65553" lon="6.81439">
        <ele>2125.6</ele>
        <time>2021-03-27T12:36:50Z</time>
      </trkpt>
      <trkpt lat="45.65553" lon="6.81438">
        <ele>2125.6</ele>
        <time>2021-03-27T12:36:51Z</time>
      </trkpt>
      <trkpt lat="45.65554" lon="6.81438">
        <ele>2125.6</ele>
        <time>2021-03-27T12:36:52Z</time>
      </trkpt>
      <trkpt lat="45.65554" lon="6.81438">
        <ele>2126.6</ele>
        <time>2021-03-27T12:36:53Z</time>
      </trkpt>
      <trkpt lat="45.65554" lon="6.81437">
        <ele>2126.6</ele>
        <time>2021-03-27T12:36:54Z</time>
      </trkpt>
      <trkpt lat="45.65555" lon="6.81437">
        <ele>2126.6</ele>
        <time>2021-03-27T12:36:55Z</time>
      </trkpt>
      <trkpt lat="45.65555" lon="6.81436">
        <ele>2126.6</ele>
        <time>2021-03-27T12:36:56Z</time>
      </trkpt>
      <trkpt lat="45.65556" lon="6.81436">
        <ele>2125.5</ele>
        <time>2021-03-27T12:36:57Z</time>
      </trkpt>
      <trkpt lat="45.65556" lon="6.81435">
        <ele>2125.5</ele>
        <time>2021-03-27T12:36:58Z</time>
      </trkpt>
      <trkpt lat="45.65557" lon="6.81434">
        <ele>2125.5</ele>
        <time>2021-03-27T12:36:59Z</time>
      </trkpt>
      <trkpt lat="45.65557" lon="6.81434">
        <ele>2126.6</ele>
        <time>2021-03-27T12:37:00Z</time>
      </trkpt>
      <trkpt lat="45.65557" lon="6.81434">
        <ele>2126.6</ele>
        <time>2021-03-27T12:37:01Z</time>
      </trkpt>
      <trkpt lat="45.65557" lon="6.81434">
        <ele>2126.6</ele>
        <time>2021-03-27T12:37:02Z</time>
      </trkpt>
      <trkpt lat="45.65557" lon="6.81434">
        <ele>2126.6</ele>
        <time>2021-03-27T12:37:03Z</time>
      </trkpt>
      <trkpt lat="45.65557" lon="6.81432">
        <ele>2126.6</ele>
        <time>2021-03-27T12:37:04Z</time>
      </trkpt>
      <trkpt lat="45.65558" lon="6.81432">
        <ele>2126.6</ele>
        <time>2021-03-27T12:37:05Z</time>
      </trkpt>
      <trkpt lat="45.65558" lon="6.81431">
        <ele>2125.5</ele>
        <time>2021-03-27T12:37:06Z</time>
      </trkpt>
      <trkpt lat="45.65558" lon="6.8143">
        <ele>2125.5</ele>
        <time>2021-03-27T12:37:07Z</time>
      </trkpt>
      <trkpt lat="45.65559" lon="6.8143">
        <ele>2125.5</ele>
        <time>2021-03-27T12:37:08Z</time>
      </trkpt>
      <trkpt lat="45.65559" lon="6.81429">
        <ele>2125.5</ele>
        <time>2021-03-27T12:37:09Z</time>
      </trkpt>
      <trkpt lat="45.6556" lon="6.81428">
        <ele>2125.5</ele>
        <time>2021-03-27T12:37:10Z</time>
      </trkpt>
      <trkpt lat="45.6556" lon="6.81428">
        <ele>2126.5</ele>
        <time>2021-03-27T12:37:11Z</time>
      </trkpt>
      <trkpt lat="45.6556" lon="6.81427">
        <ele>2126.5</ele>
        <time>2021-03-27T12:37:12Z</time>
      </trkpt>
      <trkpt lat="45.65561" lon="6.81427">
        <ele>2125.5</ele>
        <time>2021-03-27T12:37:13Z</time>
      </trkpt>
      <trkpt lat="45.65562" lon="6.81426">
        <ele>2125.5</ele>
        <time>2021-03-27T12:37:14Z</time>
      </trkpt>
      <trkpt lat="45.65562" lon="6.81426">
        <ele>2125.5</ele>
        <time>2021-03-27T12:37:15Z</time>
      </trkpt>
      <trkpt lat="45.65563" lon="6.81425">
        <ele>2125.5</ele>
        <time>2021-03-27T12:37:16Z</time>
      </trkpt>
      <trkpt lat="45.65564" lon="6.81425">
        <ele>2126.4</ele>
        <time>2021-03-27T12:37:17Z</time>
      </trkpt>
      <trkpt lat="45.65564" lon="6.81424">
        <ele>2126.4</ele>
        <time>2021-03-27T12:37:18Z</time>
      </trkpt>
      <trkpt lat="45.65565" lon="6.81423">
        <ele>2126.4</ele>
        <time>2021-03-27T12:37:19Z</time>
      </trkpt>
      <trkpt lat="45.65565" lon="6.81423">
        <ele>2126.4</ele>
        <time>2021-03-27T12:37:20Z</time>
      </trkpt>
      <trkpt lat="45.65566" lon="6.81423">
        <ele>2126.3</ele>
        <time>2021-03-27T12:37:21Z</time>
      </trkpt>
      <trkpt lat="45.65567" lon="6.81422">
        <ele>2126.3</ele>
        <time>2021-03-27T12:37:22Z</time>
      </trkpt>
      <trkpt lat="45.65567" lon="6.81422">
        <ele>2126.3</ele>
        <time>2021-03-27T12:37:23Z</time>
      </trkpt>
      <trkpt lat="45.65568" lon="6.81421">
        <ele>2126.3</ele>
        <time>2021-03-27T12:37:24Z</time>
      </trkpt>
      <trkpt lat="45.65568" lon="6.81421">
        <ele>2126.3</ele>
        <time>2021-03-27T12:37:25Z</time>
      </trkpt>
      <trkpt lat="45.65569" lon="6.81421">
        <ele>2126.3</ele>
        <time>2021-03-27T12:37:26Z</time>
      </trkpt>
      <trkpt lat="45.65569" lon="6.81421">
        <ele>2127.1</ele>
        <time>2021-03-27T12:37:27Z</time>
      </trkpt>
      <trkpt lat="45.6557" lon="6.8142">
        <ele>2127.1</ele>
        <time>2021-03-27T12:37:28Z</time>
      </trkpt>
      <trkpt lat="45.6557" lon="6.8142">
        <ele>2127.1</ele>
        <time>2021-03-27T12:37:29Z</time>
      </trkpt>
      <trkpt lat="45.65571" lon="6.8142">
        <ele>2127.1</ele>
        <time>2021-03-27T12:37:30Z</time>
      </trkpt>
      <trkpt lat="45.65571" lon="6.81419">
        <ele>2127.1</ele>
        <time>2021-03-27T12:37:31Z</time>
      </trkpt>
      <trkpt lat="45.65571" lon="6.81419">
        <ele>2127.1</ele>
        <time>2021-03-27T12:37:32Z</time>
      </trkpt>
      <trkpt lat="45.65572" lon="6.81419">
        <ele>2127.9</ele>
        <time>2021-03-27T12:37:33Z</time>
      </trkpt>
      <trkpt lat="45.65572" lon="6.81419">
        <ele>2127.9</ele>
        <time>2021-03-27T12:37:34Z</time>
      </trkpt>
      <trkpt lat="45.65573" lon="6.81419">
        <ele>2127.9</ele>
        <time>2021-03-27T12:37:35Z</time>
      </trkpt>
      <trkpt lat="45.65573" lon="6.81419">
        <ele>2127.9</ele>
        <time>2021-03-27T12:37:36Z</time>
      </trkpt>
      <trkpt lat="45.65574" lon="6.81419">
        <ele>2127.9</ele>
        <time>2021-03-27T12:37:37Z</time>
      </trkpt>
      <trkpt lat="45.65574" lon="6.81419">
        <ele>2127.9</ele>
        <time>2021-03-27T12:37:38Z</time>
      </trkpt>
      <trkpt lat="45.65574" lon="6.8142">
        <ele>2127.9</ele>
        <time>2021-03-27T12:37:39Z</time>
      </trkpt>
      <trkpt lat="45.65575" lon="6.81421">
        <ele>2127.9</ele>
        <time>2021-03-27T12:37:40Z</time>
      </trkpt>
      <trkpt lat="45.65575" lon="6.81421">
        <ele>2128.8</ele>
        <time>2021-03-27T12:37:41Z</time>
      </trkpt>
      <trkpt lat="45.65575" lon="6.81422">
        <ele>2128.8</ele>
        <time>2021-03-27T12:37:42Z</time>
      </trkpt>
      <trkpt lat="45.65576" lon="6.81423">
        <ele>2129.7</ele>
        <time>2021-03-27T12:37:43Z</time>
      </trkpt>
      <trkpt lat="45.65576" lon="6.81424">
        <ele>2129.7</ele>
        <time>2021-03-27T12:37:44Z</time>
      </trkpt>
      <trkpt lat="45.65576" lon="6.81425">
        <ele>2129.7</ele>
        <time>2021-03-27T12:37:45Z</time>
      </trkpt>
      <trkpt lat="45.65576" lon="6.81426">
        <ele>2129.7</ele>
        <time>2021-03-27T12:37:46Z</time>
      </trkpt>
      <trkpt lat="45.65577" lon="6.81428">
        <ele>2130.7</ele>
        <time>2021-03-27T12:37:47Z</time>
      </trkpt>
      <trkpt lat="45.65577" lon="6.81429">
        <ele>2130.7</ele>
        <time>2021-03-27T12:37:48Z</time>
      </trkpt>
      <trkpt lat="45.65578" lon="6.8143">
        <ele>2130.7</ele>
        <time>2021-03-27T12:37:49Z</time>
      </trkpt>
      <trkpt lat="45.65578" lon="6.81431">
        <ele>2131.6</ele>
        <time>2021-03-27T12:37:50Z</time>
      </trkpt>
      <trkpt lat="45.65578" lon="6.81431">
        <ele>2132.6</ele>
        <time>2021-03-27T12:37:51Z</time>
      </trkpt>
      <trkpt lat="45.65578" lon="6.81432">
        <ele>2132.6</ele>
        <time>2021-03-27T12:37:52Z</time>
      </trkpt>
      <trkpt lat="45.65579" lon="6.81433">
        <ele>2132.6</ele>
        <time>2021-03-27T12:37:53Z</time>
      </trkpt>
      <trkpt lat="45.65579" lon="6.81434">
        <ele>2132.6</ele>
        <time>2021-03-27T12:37:54Z</time>
      </trkpt>
      <trkpt lat="45.65579" lon="6.81435">
        <ele>2132.6</ele>
        <time>2021-03-27T12:37:55Z</time>
      </trkpt>
      <trkpt lat="45.6558" lon="6.81436">
        <ele>2133.7</ele>
        <time>2021-03-27T12:37:56Z</time>
      </trkpt>
      <trkpt lat="45.6558" lon="6.81437">
        <ele>2133.7</ele>
        <time>2021-03-27T12:37:57Z</time>
      </trkpt>
      <trkpt lat="45.6558" lon="6.81437">
        <ele>2133.7</ele>
        <time>2021-03-27T12:37:58Z</time>
      </trkpt>
      <trkpt lat="45.6558" lon="6.81438">
        <ele>2133.7</ele>
        <time>2021-03-27T12:37:59Z</time>
      </trkpt>
      <trkpt lat="45.65581" lon="6.81439">
        <ele>2133.7</ele>
        <time>2021-03-27T12:38:00Z</time>
      </trkpt>
      <trkpt lat="45.65581" lon="6.8144">
        <ele>2134.7</ele>
        <time>2021-03-27T12:38:01Z</time>
      </trkpt>
      <trkpt lat="45.65581" lon="6.8144">
        <ele>2135.9</ele>
        <time>2021-03-27T12:38:02Z</time>
      </trkpt>
      <trkpt lat="45.65581" lon="6.81441">
        <ele>2135.9</ele>
        <time>2021-03-27T12:38:03Z</time>
      </trkpt>
      <trkpt lat="45.65581" lon="6.81442">
        <ele>2135.9</ele>
        <time>2021-03-27T12:38:04Z</time>
      </trkpt>
      <trkpt lat="45.65581" lon="6.81442">
        <ele>2135.9</ele>
        <time>2021-03-27T12:38:05Z</time>
      </trkpt>
      <trkpt lat="45.65581" lon="6.81443">
        <ele>2135.9</ele>
        <time>2021-03-27T12:38:06Z</time>
      </trkpt>
      <trkpt lat="45.65581" lon="6.81444">
        <ele>2135.9</ele>
        <time>2021-03-27T12:38:07Z</time>
      </trkpt>
      <trkpt lat="45.65581" lon="6.81445">
        <ele>2137.2</ele>
        <time>2021-03-27T12:38:08Z</time>
      </trkpt>
      <trkpt lat="45.65581" lon="6.81445">
        <ele>2137.2</ele>
        <time>2021-03-27T12:38:09Z</time>
      </trkpt>
      <trkpt lat="45.65582" lon="6.81446">
        <ele>2137.2</ele>
        <time>2021-03-27T12:38:10Z</time>
      </trkpt>
      <trkpt lat="45.65582" lon="6.81446">
        <ele>2137.2</ele>
        <time>2021-03-27T12:38:11Z</time>
      </trkpt>
      <trkpt lat="45.65582" lon="6.81447">
        <ele>2137.2</ele>
        <time>2021-03-27T12:38:12Z</time>
      </trkpt>
      <trkpt lat="45.65582" lon="6.81448">
        <ele>2137.2</ele>
        <time>2021-03-27T12:38:13Z</time>
      </trkpt>
      <trkpt lat="45.65582" lon="6.81448">
        <ele>2137.2</ele>
        <time>2021-03-27T12:38:14Z</time>
      </trkpt>
      <trkpt lat="45.65582" lon="6.81449">
        <ele>2138.5</ele>
        <time>2021-03-27T12:38:15Z</time>
      </trkpt>
      <trkpt lat="45.65582" lon="6.8145">
        <ele>2138.5</ele>
        <time>2021-03-27T12:38:16Z</time>
      </trkpt>
      <trkpt lat="45.65583" lon="6.8145">
        <ele>2138.5</ele>
        <time>2021-03-27T12:38:17Z</time>
      </trkpt>
      <trkpt lat="45.65583" lon="6.81451">
        <ele>2138.5</ele>
        <time>2021-03-27T12:38:18Z</time>
      </trkpt>
      <trkpt lat="45.65583" lon="6.81452">
        <ele>2138.5</ele>
        <time>2021-03-27T12:38:19Z</time>
      </trkpt>
      <trkpt lat="45.65583" lon="6.81452">
        <ele>2138.5</ele>
        <time>2021-03-27T12:38:20Z</time>
      </trkpt>
      <trkpt lat="45.65583" lon="6.81453">
        <ele>2139.8</ele>
        <time>2021-03-27T12:38:21Z</time>
      </trkpt>
      <trkpt lat="45.65583" lon="6.81454">
        <ele>2139.8</ele>
        <time>2021-03-27T12:38:22Z</time>
      </trkpt>
      <trkpt lat="45.65583" lon="6.81455">
        <ele>2139.8</ele>
        <time>2021-03-27T12:38:23Z</time>
      </trkpt>
      <trkpt lat="45.65583" lon="6.81455">
        <ele>2139.8</ele>
        <time>2021-03-27T12:38:24Z</time>
      </trkpt>
      <trkpt lat="45.65583" lon="6.81456">
        <ele>2139.8</ele>
        <time>2021-03-27T12:38:25Z</time>
      </trkpt>
      <trkpt lat="45.65583" lon="6.81457">
        <ele>2141.1</ele>
        <time>2021-03-27T12:38:26Z</time>
      </trkpt>
      <trkpt lat="45.65583" lon="6.81458">
        <ele>2141.1</ele>
        <time>2021-03-27T12:38:27Z</time>
      </trkpt>
      <trkpt lat="45.65583" lon="6.81459">
        <ele>2141.1</ele>
        <time>2021-03-27T12:38:28Z</time>
      </trkpt>
      <trkpt lat="45.65582" lon="6.8146">
        <ele>2141.1</ele>
        <time>2021-03-27T12:38:29Z</time>
      </trkpt>
      <trkpt lat="45.65583" lon="6.81461">
        <ele>2141.1</ele>
        <time>2021-03-27T12:38:30Z</time>
      </trkpt>
      <trkpt lat="45.65583" lon="6.81461">
        <ele>2141.1</ele>
        <time>2021-03-27T12:38:31Z</time>
      </trkpt>
      <trkpt lat="45.65583" lon="6.81462">
        <ele>2142.4</ele>
        <time>2021-03-27T12:38:32Z</time>
      </trkpt>
      <trkpt lat="45.65583" lon="6.81462">
        <ele>2142.4</ele>
        <time>2021-03-27T12:38:33Z</time>
      </trkpt>
      <trkpt lat="45.65584" lon="6.81462">
        <ele>2142.4</ele>
        <time>2021-03-27T12:38:34Z</time>
      </trkpt>
      <trkpt lat="45.65584" lon="6.81462">
        <ele>2143.3</ele>
        <time>2021-03-27T12:38:35Z</time>
      </trkpt>
      <trkpt lat="45.65585" lon="6.81461">
        <ele>2142</ele>
        <time>2021-03-27T12:38:36Z</time>
      </trkpt>
      <trkpt lat="45.65586" lon="6.8146">
        <ele>2142</ele>
        <time>2021-03-27T12:38:37Z</time>
      </trkpt>
      <trkpt lat="45.65586" lon="6.81459">
        <ele>2142</ele>
        <time>2021-03-27T12:38:38Z</time>
      </trkpt>
      <trkpt lat="45.65587" lon="6.81459">
        <ele>2143</ele>
        <time>2021-03-27T12:38:39Z</time>
      </trkpt>
      <trkpt lat="45.65588" lon="6.81458">
        <ele>2143</ele>
        <time>2021-03-27T12:38:40Z</time>
      </trkpt>
      <trkpt lat="45.65589" lon="6.81458">
        <ele>2143</ele>
        <time>2021-03-27T12:38:41Z</time>
      </trkpt>
      <trkpt lat="45.65589" lon="6.81457">
        <ele>2143</ele>
        <time>2021-03-27T12:38:42Z</time>
      </trkpt>
      <trkpt lat="45.6559" lon="6.81457">
        <ele>2142.6</ele>
        <time>2021-03-27T12:38:43Z</time>
      </trkpt>
      <trkpt lat="45.65591" lon="6.81456">
        <ele>2142.6</ele>
        <time>2021-03-27T12:38:44Z</time>
      </trkpt>
      <trkpt lat="45.65591" lon="6.81455">
        <ele>2142.6</ele>
        <time>2021-03-27T12:38:45Z</time>
      </trkpt>
      <trkpt lat="45.65592" lon="6.81455">
        <ele>2142.6</ele>
        <time>2021-03-27T12:38:46Z</time>
      </trkpt>
      <trkpt lat="45.65593" lon="6.81454">
        <ele>2142.6</ele>
        <time>2021-03-27T12:38:47Z</time>
      </trkpt>
      <trkpt lat="45.65593" lon="6.81454">
        <ele>2143.5</ele>
        <time>2021-03-27T12:38:48Z</time>
      </trkpt>
      <trkpt lat="45.65594" lon="6.81454">
        <ele>2143.5</ele>
        <time>2021-03-27T12:38:49Z</time>
      </trkpt>
      <trkpt lat="45.65594" lon="6.81454">
        <ele>2143.5</ele>
        <time>2021-03-27T12:38:50Z</time>
      </trkpt>
      <trkpt lat="45.65594" lon="6.81454">
        <ele>2143.5</ele>
        <time>2021-03-27T12:38:51Z</time>
      </trkpt>
      <trkpt lat="45.65595" lon="6.81454">
        <ele>2143.5</ele>
        <time>2021-03-27T12:38:52Z</time>
      </trkpt>
      <trkpt lat="45.65595" lon="6.81454">
        <ele>2143.5</ele>
        <time>2021-03-27T12:38:53Z</time>
      </trkpt>
      <trkpt lat="45.65596" lon="6.81454">
        <ele>2144.4</ele>
        <time>2021-03-27T12:38:54Z</time>
      </trkpt>
      <trkpt lat="45.65597" lon="6.81453">
        <ele>2144.4</ele>
        <time>2021-03-27T12:38:55Z</time>
      </trkpt>
      <trkpt lat="45.65597" lon="6.81453">
        <ele>2144.4</ele>
        <time>2021-03-27T12:38:56Z</time>
      </trkpt>
      <trkpt lat="45.65598" lon="6.81453">
        <ele>2144.4</ele>
        <time>2021-03-27T12:38:57Z</time>
      </trkpt>
      <trkpt lat="45.65599" lon="6.81453">
        <ele>2144.4</ele>
        <time>2021-03-27T12:38:58Z</time>
      </trkpt>
      <trkpt lat="45.65599" lon="6.81453">
        <ele>2144.1</ele>
        <time>2021-03-27T12:38:59Z</time>
      </trkpt>
      <trkpt lat="45.656" lon="6.81452">
        <ele>2144.1</ele>
        <time>2021-03-27T12:39:00Z</time>
      </trkpt>
      <trkpt lat="45.656" lon="6.81452">
        <ele>2144.1</ele>
        <time>2021-03-27T12:39:01Z</time>
      </trkpt>
      <trkpt lat="45.65601" lon="6.81451">
        <ele>2144.1</ele>
        <time>2021-03-27T12:39:02Z</time>
      </trkpt>
      <trkpt lat="45.65602" lon="6.81451">
        <ele>2144.1</ele>
        <time>2021-03-27T12:39:03Z</time>
      </trkpt>
      <trkpt lat="45.65602" lon="6.81451">
        <ele>2145.2</ele>
        <time>2021-03-27T12:39:04Z</time>
      </trkpt>
      <trkpt lat="45.65603" lon="6.8145">
        <ele>2145.2</ele>
        <time>2021-03-27T12:39:05Z</time>
      </trkpt>
      <trkpt lat="45.65603" lon="6.8145">
        <ele>2145.2</ele>
        <time>2021-03-27T12:39:06Z</time>
      </trkpt>
      <trkpt lat="45.65604" lon="6.8145">
        <ele>2145.2</ele>
        <time>2021-03-27T12:39:07Z</time>
      </trkpt>
      <trkpt lat="45.65604" lon="6.8145">
        <ele>2145.2</ele>
        <time>2021-03-27T12:39:08Z</time>
      </trkpt>
      <trkpt lat="45.65605" lon="6.81449">
        <ele>2145.2</ele>
        <time>2021-03-27T12:39:09Z</time>
      </trkpt>
      <trkpt lat="45.65605" lon="6.81449">
        <ele>2146.3</ele>
        <time>2021-03-27T12:39:10Z</time>
      </trkpt>
      <trkpt lat="45.65606" lon="6.81449">
        <ele>2146.3</ele>
        <time>2021-03-27T12:39:11Z</time>
      </trkpt>
      <trkpt lat="45.65606" lon="6.81449">
        <ele>2146.3</ele>
        <time>2021-03-27T12:39:12Z</time>
      </trkpt>
      <trkpt lat="45.65607" lon="6.81449">
        <ele>2146.3</ele>
        <time>2021-03-27T12:39:13Z</time>
      </trkpt>
      <trkpt lat="45.65607" lon="6.81448">
        <ele>2145.1</ele>
        <time>2021-03-27T12:39:14Z</time>
      </trkpt>
      <trkpt lat="45.65608" lon="6.81448">
        <ele>2145.1</ele>
        <time>2021-03-27T12:39:15Z</time>
      </trkpt>
      <trkpt lat="45.65608" lon="6.81448">
        <ele>2146.3</ele>
        <time>2021-03-27T12:39:16Z</time>
      </trkpt>
      <trkpt lat="45.65609" lon="6.81448">
        <ele>2146.3</ele>
        <time>2021-03-27T12:39:17Z</time>
      </trkpt>
      <trkpt lat="45.65609" lon="6.81448">
        <ele>2146.3</ele>
        <time>2021-03-27T12:39:18Z</time>
      </trkpt>
      <trkpt lat="45.6561" lon="6.81447">
        <ele>2146.3</ele>
        <time>2021-03-27T12:39:19Z</time>
      </trkpt>
      <trkpt lat="45.6561" lon="6.81447">
        <ele>2146.3</ele>
        <time>2021-03-27T12:39:20Z</time>
      </trkpt>
      <trkpt lat="45.65611" lon="6.81447">
        <ele>2146.3</ele>
        <time>2021-03-27T12:39:21Z</time>
      </trkpt>
      <trkpt lat="45.65611" lon="6.81447">
        <ele>2147.5</ele>
        <time>2021-03-27T12:39:22Z</time>
      </trkpt>
      <trkpt lat="45.65612" lon="6.81447">
        <ele>2147.5</ele>
        <time>2021-03-27T12:39:23Z</time>
      </trkpt>
      <trkpt lat="45.65612" lon="6.81447">
        <ele>2147.5</ele>
        <time>2021-03-27T12:39:24Z</time>
      </trkpt>
      <trkpt lat="45.65613" lon="6.81447">
        <ele>2147.5</ele>
        <time>2021-03-27T12:39:25Z</time>
      </trkpt>
      <trkpt lat="45.65613" lon="6.81447">
        <ele>2147.5</ele>
        <time>2021-03-27T12:39:26Z</time>
      </trkpt>
      <trkpt lat="45.65614" lon="6.81447">
        <ele>2148.8</ele>
        <time>2021-03-27T12:39:27Z</time>
      </trkpt>
      <trkpt lat="45.65614" lon="6.81447">
        <ele>2148.8</ele>
        <time>2021-03-27T12:39:28Z</time>
      </trkpt>
      <trkpt lat="45.65615" lon="6.81447">
        <ele>2148.8</ele>
        <time>2021-03-27T12:39:29Z</time>
      </trkpt>
      <trkpt lat="45.65615" lon="6.81446">
        <ele>2148.8</ele>
        <time>2021-03-27T12:39:30Z</time>
      </trkpt>
      <trkpt lat="45.65616" lon="6.81446">
        <ele>2148.8</ele>
        <time>2021-03-27T12:39:31Z</time>
      </trkpt>
      <trkpt lat="45.65616" lon="6.81446">
        <ele>2148.8</ele>
        <time>2021-03-27T12:39:32Z</time>
      </trkpt>
      <trkpt lat="45.65617" lon="6.81445">
        <ele>2148.8</ele>
        <time>2021-03-27T12:39:33Z</time>
      </trkpt>
      <trkpt lat="45.65617" lon="6.81445">
        <ele>2150.1</ele>
        <time>2021-03-27T12:39:34Z</time>
      </trkpt>
      <trkpt lat="45.65617" lon="6.81445">
        <ele>2150.1</ele>
        <time>2021-03-27T12:39:35Z</time>
      </trkpt>
      <trkpt lat="45.65618" lon="6.81445">
        <ele>2150.1</ele>
        <time>2021-03-27T12:39:36Z</time>
      </trkpt>
      <trkpt lat="45.65618" lon="6.81445">
        <ele>2150.1</ele>
        <time>2021-03-27T12:39:37Z</time>
      </trkpt>
      <trkpt lat="45.65618" lon="6.81444">
        <ele>2150.1</ele>
        <time>2021-03-27T12:39:38Z</time>
      </trkpt>
      <trkpt lat="45.65619" lon="6.81444">
        <ele>2150.1</ele>
        <time>2021-03-27T12:39:39Z</time>
      </trkpt>
      <trkpt lat="45.65619" lon="6.81444">
        <ele>2149</ele>
        <time>2021-03-27T12:39:40Z</time>
      </trkpt>
      <trkpt lat="45.6562" lon="6.81444">
        <ele>2149</ele>
        <time>2021-03-27T12:39:41Z</time>
      </trkpt>
      <trkpt lat="45.6562" lon="6.81444">
        <ele>2150.3</ele>
        <time>2021-03-27T12:39:42Z</time>
      </trkpt>
      <trkpt lat="45.6562" lon="6.81443">
        <ele>2150.3</ele>
        <time>2021-03-27T12:39:50Z</time>
      </trkpt>
      <trkpt lat="45.65621" lon="6.81443">
        <ele>2150.3</ele>
        <time>2021-03-27T12:39:51Z</time>
      </trkpt>
      <trkpt lat="45.65621" lon="6.81443">
        <ele>2150.3</ele>
        <time>2021-03-27T12:39:52Z</time>
      </trkpt>
      <trkpt lat="45.65621" lon="6.81443">
        <ele>2150.3</ele>
        <time>2021-03-27T12:39:53Z</time>
      </trkpt>
      <trkpt lat="45.65622" lon="6.81443">
        <ele>2150.3</ele>
        <time>2021-03-27T12:39:54Z</time>
      </trkpt>
      <trkpt lat="45.65622" lon="6.81443">
        <ele>2150.3</ele>
        <time>2021-03-27T12:39:55Z</time>
      </trkpt>
      <trkpt lat="45.65623" lon="6.81443">
        <ele>2150.3</ele>
        <time>2021-03-27T12:39:56Z</time>
      </trkpt>
      <trkpt lat="45.65623" lon="6.81443">
        <ele>2151.5</ele>
        <time>2021-03-27T12:39:57Z</time>
      </trkpt>
      <trkpt lat="45.65623" lon="6.81444">
        <ele>2151.5</ele>
        <time>2021-03-27T12:39:58Z</time>
      </trkpt>
      <trkpt lat="45.65623" lon="6.81444">
        <ele>2152.6</ele>
        <time>2021-03-27T12:39:59Z</time>
      </trkpt>
      <trkpt lat="45.65624" lon="6.81445">
        <ele>2152.6</ele>
        <time>2021-03-27T12:40:00Z</time>
      </trkpt>
      <trkpt lat="45.65624" lon="6.81445">
        <ele>2152.6</ele>
        <time>2021-03-27T12:40:01Z</time>
      </trkpt>
      <trkpt lat="45.65624" lon="6.81445">
        <ele>2152.6</ele>
        <time>2021-03-27T12:40:02Z</time>
      </trkpt>
      <trkpt lat="45.65624" lon="6.81446">
        <ele>2152.6</ele>
        <time>2021-03-27T12:40:03Z</time>
      </trkpt>
      <trkpt lat="45.65624" lon="6.81446">
        <ele>2152.6</ele>
        <time>2021-03-27T12:40:04Z</time>
      </trkpt>
      <trkpt lat="45.65625" lon="6.81447">
        <ele>2152.6</ele>
        <time>2021-03-27T12:40:05Z</time>
      </trkpt>
      <trkpt lat="45.65625" lon="6.81447">
        <ele>2152.6</ele>
        <time>2021-03-27T12:40:06Z</time>
      </trkpt>
      <trkpt lat="45.65625" lon="6.81448">
        <ele>2152.6</ele>
        <time>2021-03-27T12:40:07Z</time>
      </trkpt>
      <trkpt lat="45.65625" lon="6.81448">
        <ele>2152.6</ele>
        <time>2021-03-27T12:40:28Z</time>
      </trkpt>
      <trkpt lat="45.65626" lon="6.81448">
        <ele>2152.6</ele>
        <time>2021-03-27T12:40:29Z</time>
      </trkpt>
      <trkpt lat="45.65626" lon="6.81449">
        <ele>2153.8</ele>
        <time>2021-03-27T12:40:30Z</time>
      </trkpt>
      <trkpt lat="45.65626" lon="6.8145">
        <ele>2155</ele>
        <time>2021-03-27T12:40:31Z</time>
      </trkpt>
      <trkpt lat="45.65627" lon="6.81451">
        <ele>2155</ele>
        <time>2021-03-27T12:40:32Z</time>
      </trkpt>
      <trkpt lat="45.65627" lon="6.81452">
        <ele>2155</ele>
        <time>2021-03-27T12:40:33Z</time>
      </trkpt>
      <trkpt lat="45.65627" lon="6.81453">
        <ele>2156.1</ele>
        <time>2021-03-27T12:40:34Z</time>
      </trkpt>
      <trkpt lat="45.65628" lon="6.81454">
        <ele>2156.1</ele>
        <time>2021-03-27T12:40:35Z</time>
      </trkpt>
      <trkpt lat="45.65628" lon="6.81455">
        <ele>2156.1</ele>
        <time>2021-03-27T12:40:36Z</time>
      </trkpt>
      <trkpt lat="45.65629" lon="6.81455">
        <ele>2156.1</ele>
        <time>2021-03-27T12:40:37Z</time>
      </trkpt>
      <trkpt lat="45.65629" lon="6.81455">
        <ele>2157.3</ele>
        <time>2021-03-27T12:40:38Z</time>
      </trkpt>
      <trkpt lat="45.65629" lon="6.81455">
        <ele>2157.3</ele>
        <time>2021-03-27T12:40:39Z</time>
      </trkpt>
      <trkpt lat="45.65629" lon="6.81455">
        <ele>2157.3</ele>
        <time>2021-03-27T12:40:40Z</time>
      </trkpt>
      <trkpt lat="45.6563" lon="6.81453">
        <ele>2157.3</ele>
        <time>2021-03-27T12:40:41Z</time>
      </trkpt>
      <trkpt lat="45.6563" lon="6.81452">
        <ele>2156.2</ele>
        <time>2021-03-27T12:40:42Z</time>
      </trkpt>
      <trkpt lat="45.65631" lon="6.8145">
        <ele>2156.2</ele>
        <time>2021-03-27T12:40:43Z</time>
      </trkpt>
      <trkpt lat="45.65632" lon="6.81449">
        <ele>2157.4</ele>
        <time>2021-03-27T12:40:44Z</time>
      </trkpt>
      <trkpt lat="45.65633" lon="6.81448">
        <ele>2156.3</ele>
        <time>2021-03-27T12:40:45Z</time>
      </trkpt>
      <trkpt lat="45.65633" lon="6.81447">
        <ele>2156.3</ele>
        <time>2021-03-27T12:40:46Z</time>
      </trkpt>
      <trkpt lat="45.65633" lon="6.81447">
        <ele>2156.3</ele>
        <time>2021-03-27T12:40:47Z</time>
      </trkpt>
      <trkpt lat="45.65634" lon="6.81446">
        <ele>2156.3</ele>
        <time>2021-03-27T12:40:48Z</time>
      </trkpt>
      <trkpt lat="45.65634" lon="6.81446">
        <ele>2156.3</ele>
        <time>2021-03-27T12:40:49Z</time>
      </trkpt>
      <trkpt lat="45.65634" lon="6.81445">
        <ele>2156.3</ele>
        <time>2021-03-27T12:40:50Z</time>
      </trkpt>
      <trkpt lat="45.65635" lon="6.81445">
        <ele>2156.3</ele>
        <time>2021-03-27T12:40:51Z</time>
      </trkpt>
      <trkpt lat="45.65635" lon="6.81445">
        <ele>2157.7</ele>
        <time>2021-03-27T12:40:52Z</time>
      </trkpt>
      <trkpt lat="45.65635" lon="6.81444">
        <ele>2156.6</ele>
        <time>2021-03-27T12:40:53Z</time>
      </trkpt>
      <trkpt lat="45.65636" lon="6.81443">
        <ele>2156.6</ele>
        <time>2021-03-27T12:40:54Z</time>
      </trkpt>
      <trkpt lat="45.65636" lon="6.81443">
        <ele>2156.6</ele>
        <time>2021-03-27T12:40:55Z</time>
      </trkpt>
      <trkpt lat="45.65636" lon="6.81443">
        <ele>2156.6</ele>
        <time>2021-03-27T12:40:56Z</time>
      </trkpt>
      <trkpt lat="45.65636" lon="6.81443">
        <ele>2156.6</ele>
        <time>2021-03-27T12:40:57Z</time>
      </trkpt>
      <trkpt lat="45.65636" lon="6.81443">
        <ele>2156.6</ele>
        <time>2021-03-27T12:40:58Z</time>
      </trkpt>
      <trkpt lat="45.65636" lon="6.81443">
        <ele>2156.6</ele>
        <time>2021-03-27T12:40:59Z</time>
      </trkpt>
      <trkpt lat="45.65637" lon="6.81442">
        <ele>2156.6</ele>
        <time>2021-03-27T12:41:00Z</time>
      </trkpt>
      <trkpt lat="45.65637" lon="6.81441">
        <ele>2156.6</ele>
        <time>2021-03-27T12:41:01Z</time>
      </trkpt>
      <trkpt lat="45.65637" lon="6.8144">
        <ele>2156.6</ele>
        <time>2021-03-27T12:41:02Z</time>
      </trkpt>
      <trkpt lat="45.65637" lon="6.8144">
        <ele>2156.6</ele>
        <time>2021-03-27T12:41:03Z</time>
      </trkpt>
      <trkpt lat="45.65637" lon="6.8144">
        <ele>2156.6</ele>
        <time>2021-03-27T12:41:04Z</time>
      </trkpt>
      <trkpt lat="45.65637" lon="6.8144">
        <ele>2156.6</ele>
        <time>2021-03-27T12:41:05Z</time>
      </trkpt>
      <trkpt lat="45.65636" lon="6.81442">
        <ele>2156.6</ele>
        <time>2021-03-27T12:41:06Z</time>
      </trkpt>
      <trkpt lat="45.65636" lon="6.81442">
        <ele>2156.6</ele>
        <time>2021-03-27T12:41:07Z</time>
      </trkpt>
      <trkpt lat="45.65636" lon="6.81442">
        <ele>2156.6</ele>
        <time>2021-03-27T12:41:08Z</time>
      </trkpt>
      <trkpt lat="45.65636" lon="6.81442">
        <ele>2156.6</ele>
        <time>2021-03-27T12:41:09Z</time>
      </trkpt>
      <trkpt lat="45.65636" lon="6.81444">
        <ele>2156.6</ele>
        <time>2021-03-27T12:41:10Z</time>
      </trkpt>
      <trkpt lat="45.65636" lon="6.81445">
        <ele>2157.7</ele>
        <time>2021-03-27T12:41:11Z</time>
      </trkpt>
      <trkpt lat="45.65637" lon="6.81446">
        <ele>2157.7</ele>
        <time>2021-03-27T12:41:12Z</time>
      </trkpt>
      <trkpt lat="45.65637" lon="6.81448">
        <ele>2157.7</ele>
        <time>2021-03-27T12:41:13Z</time>
      </trkpt>
      <trkpt lat="45.65638" lon="6.81449">
        <ele>2158.7</ele>
        <time>2021-03-27T12:41:14Z</time>
      </trkpt>
      <trkpt lat="45.65638" lon="6.8145">
        <ele>2160.1</ele>
        <time>2021-03-27T12:41:15Z</time>
      </trkpt>
      <trkpt lat="45.65638" lon="6.81451">
        <ele>2160.1</ele>
        <time>2021-03-27T12:41:16Z</time>
      </trkpt>
      <trkpt lat="45.65639" lon="6.81452">
        <ele>2160.1</ele>
        <time>2021-03-27T12:41:17Z</time>
      </trkpt>
      <trkpt lat="45.65639" lon="6.81453">
        <ele>2161.2</ele>
        <time>2021-03-27T12:41:18Z</time>
      </trkpt>
      <trkpt lat="45.65639" lon="6.81454">
        <ele>2161.2</ele>
        <time>2021-03-27T12:41:19Z</time>
      </trkpt>
      <trkpt lat="45.6564" lon="6.81455">
        <ele>2161.2</ele>
        <time>2021-03-27T12:41:20Z</time>
      </trkpt>
      <trkpt lat="45.6564" lon="6.81455">
        <ele>2161.2</ele>
        <time>2021-03-27T12:41:21Z</time>
      </trkpt>
      <trkpt lat="45.6564" lon="6.81456">
        <ele>2161.2</ele>
        <time>2021-03-27T12:41:22Z</time>
      </trkpt>
      <trkpt lat="45.6564" lon="6.81457">
        <ele>2161.2</ele>
        <time>2021-03-27T12:41:23Z</time>
      </trkpt>
      <trkpt lat="45.6564" lon="6.81458">
        <ele>2162.2</ele>
        <time>2021-03-27T12:41:24Z</time>
      </trkpt>
      <trkpt lat="45.6564" lon="6.81458">
        <ele>2162.2</ele>
        <time>2021-03-27T12:41:25Z</time>
      </trkpt>
      <trkpt lat="45.6564" lon="6.81459">
        <ele>2162.2</ele>
        <time>2021-03-27T12:41:26Z</time>
      </trkpt>
      <trkpt lat="45.6564" lon="6.8146">
        <ele>2162.2</ele>
        <time>2021-03-27T12:41:27Z</time>
      </trkpt>
      <trkpt lat="45.65639" lon="6.81461">
        <ele>2162.2</ele>
        <time>2021-03-27T12:41:28Z</time>
      </trkpt>
      <trkpt lat="45.65639" lon="6.81462">
        <ele>2163.3</ele>
        <time>2021-03-27T12:41:29Z</time>
      </trkpt>
      <trkpt lat="45.65639" lon="6.81462">
        <ele>2163.3</ele>
        <time>2021-03-27T12:41:30Z</time>
      </trkpt>
      <trkpt lat="45.65639" lon="6.81462">
        <ele>2163.3</ele>
        <time>2021-03-27T12:41:31Z</time>
      </trkpt>
      <trkpt lat="45.65639" lon="6.81463">
        <ele>2163.3</ele>
        <time>2021-03-27T12:41:32Z</time>
      </trkpt>
      <trkpt lat="45.65639" lon="6.81464">
        <ele>2163.3</ele>
        <time>2021-03-27T12:41:33Z</time>
      </trkpt>
      <trkpt lat="45.65639" lon="6.81464">
        <ele>2163.3</ele>
        <time>2021-03-27T12:41:34Z</time>
      </trkpt>
      <trkpt lat="45.6564" lon="6.81464">
        <ele>2163.3</ele>
        <time>2021-03-27T12:41:35Z</time>
      </trkpt>
      <trkpt lat="45.6564" lon="6.81464">
        <ele>2163.3</ele>
        <time>2021-03-27T12:41:36Z</time>
      </trkpt>
      <trkpt lat="45.65641" lon="6.81463">
        <ele>2163.3</ele>
        <time>2021-03-27T12:41:37Z</time>
      </trkpt>
      <trkpt lat="45.65641" lon="6.81463">
        <ele>2164.7</ele>
        <time>2021-03-27T12:41:38Z</time>
      </trkpt>
      <trkpt lat="45.65641" lon="6.81463">
        <ele>2164.7</ele>
        <time>2021-03-27T12:41:39Z</time>
      </trkpt>
      <trkpt lat="45.65642" lon="6.81462">
        <ele>2164.7</ele>
        <time>2021-03-27T12:41:40Z</time>
      </trkpt>
      <trkpt lat="45.65642" lon="6.81462">
        <ele>2164.7</ele>
        <time>2021-03-27T12:41:41Z</time>
      </trkpt>
      <trkpt lat="45.65642" lon="6.81462">
        <ele>2164.7</ele>
        <time>2021-03-27T12:41:49Z</time>
      </trkpt>
      <trkpt lat="45.65643" lon="6.81461">
        <ele>2163.6</ele>
        <time>2021-03-27T12:41:50Z</time>
      </trkpt>
      <trkpt lat="45.65643" lon="6.81461">
        <ele>2163.6</ele>
        <time>2021-03-27T12:41:51Z</time>
      </trkpt>
      <trkpt lat="45.65644" lon="6.81461">
        <ele>2163.6</ele>
        <time>2021-03-27T12:41:52Z</time>
      </trkpt>
      <trkpt lat="45.65644" lon="6.8146">
        <ele>2164.9</ele>
        <time>2021-03-27T12:41:53Z</time>
      </trkpt>
      <trkpt lat="45.65644" lon="6.81459">
        <ele>2164.9</ele>
        <time>2021-03-27T12:41:54Z</time>
      </trkpt>
      <trkpt lat="45.65645" lon="6.81459">
        <ele>2164.9</ele>
        <time>2021-03-27T12:41:55Z</time>
      </trkpt>
      <trkpt lat="45.65645" lon="6.81458">
        <ele>2164.9</ele>
        <time>2021-03-27T12:41:56Z</time>
      </trkpt>
      <trkpt lat="45.65645" lon="6.81457">
        <ele>2164</ele>
        <time>2021-03-27T12:41:57Z</time>
      </trkpt>
      <trkpt lat="45.65645" lon="6.81456">
        <ele>2164</ele>
        <time>2021-03-27T12:41:58Z</time>
      </trkpt>
      <trkpt lat="45.65645" lon="6.81456">
        <ele>2164</ele>
        <time>2021-03-27T12:41:59Z</time>
      </trkpt>
      <trkpt lat="45.65645" lon="6.81456">
        <ele>2164</ele>
        <time>2021-03-27T12:42:00Z</time>
      </trkpt>
      <trkpt lat="45.65645" lon="6.81456">
        <ele>2164</ele>
        <time>2021-03-27T12:42:01Z</time>
      </trkpt>
      <trkpt lat="45.65645" lon="6.81455">
        <ele>2164</ele>
        <time>2021-03-27T12:42:02Z</time>
      </trkpt>
      <trkpt lat="45.65645" lon="6.81454">
        <ele>2164</ele>
        <time>2021-03-27T12:42:03Z</time>
      </trkpt>
      <trkpt lat="45.65645" lon="6.81453">
        <ele>2164</ele>
        <time>2021-03-27T12:42:04Z</time>
      </trkpt>
      <trkpt lat="45.65646" lon="6.81452">
        <ele>2162.9</ele>
        <time>2021-03-27T12:42:05Z</time>
      </trkpt>
      <trkpt lat="45.65646" lon="6.81451">
        <ele>2162.9</ele>
        <time>2021-03-27T12:42:06Z</time>
      </trkpt>
      <trkpt lat="45.65646" lon="6.81451">
        <ele>2162.9</ele>
        <time>2021-03-27T12:42:07Z</time>
      </trkpt>
      <trkpt lat="45.65647" lon="6.8145">
        <ele>2162.9</ele>
        <time>2021-03-27T12:42:08Z</time>
      </trkpt>
      <trkpt lat="45.65647" lon="6.8145">
        <ele>2164.2</ele>
        <time>2021-03-27T12:42:09Z</time>
      </trkpt>
      <trkpt lat="45.65647" lon="6.81449">
        <ele>2164.2</ele>
        <time>2021-03-27T12:42:10Z</time>
      </trkpt>
      <trkpt lat="45.65648" lon="6.81448">
        <ele>2163.2</ele>
        <time>2021-03-27T12:42:11Z</time>
      </trkpt>
      <trkpt lat="45.65648" lon="6.81448">
        <ele>2163.2</ele>
        <time>2021-03-27T12:42:12Z</time>
      </trkpt>
      <trkpt lat="45.65648" lon="6.81447">
        <ele>2163.2</ele>
        <time>2021-03-27T12:42:13Z</time>
      </trkpt>
      <trkpt lat="45.65648" lon="6.81446">
        <ele>2163.2</ele>
        <time>2021-03-27T12:42:14Z</time>
      </trkpt>
      <trkpt lat="45.65649" lon="6.81445">
        <ele>2163.2</ele>
        <time>2021-03-27T12:42:15Z</time>
      </trkpt>
      <trkpt lat="45.65649" lon="6.81445">
        <ele>2163.2</ele>
        <time>2021-03-27T12:42:16Z</time>
      </trkpt>
      <trkpt lat="45.65649" lon="6.81444">
        <ele>2162.2</ele>
        <time>2021-03-27T12:42:17Z</time>
      </trkpt>
      <trkpt lat="45.65649" lon="6.81444">
        <ele>2162.2</ele>
        <time>2021-03-27T12:42:18Z</time>
      </trkpt>
      <trkpt lat="45.65649" lon="6.81444">
        <ele>2162.2</ele>
        <time>2021-03-27T12:42:19Z</time>
      </trkpt>
      <trkpt lat="45.65649" lon="6.81443">
        <ele>2162.2</ele>
        <time>2021-03-27T12:42:20Z</time>
      </trkpt>
      <trkpt lat="45.65649" lon="6.81443">
        <ele>2162.2</ele>
        <time>2021-03-27T12:42:21Z</time>
      </trkpt>
      <trkpt lat="45.65649" lon="6.81442">
        <ele>2162.2</ele>
        <time>2021-03-27T12:42:22Z</time>
      </trkpt>
      <trkpt lat="45.65649" lon="6.81441">
        <ele>2162.2</ele>
        <time>2021-03-27T12:42:23Z</time>
      </trkpt>
      <trkpt lat="45.65649" lon="6.81441">
        <ele>2162.2</ele>
        <time>2021-03-27T12:42:24Z</time>
      </trkpt>
      <trkpt lat="45.6565" lon="6.8144">
        <ele>2163.4</ele>
        <time>2021-03-27T12:42:25Z</time>
      </trkpt>
      <trkpt lat="45.6565" lon="6.81441">
        <ele>2163.4</ele>
        <time>2021-03-27T12:42:26Z</time>
      </trkpt>
      <trkpt lat="45.65651" lon="6.81441">
        <ele>2163.4</ele>
        <time>2021-03-27T12:42:27Z</time>
      </trkpt>
      <trkpt lat="45.65651" lon="6.81441">
        <ele>2163.4</ele>
        <time>2021-03-27T12:42:28Z</time>
      </trkpt>
      <trkpt lat="45.65651" lon="6.81442">
        <ele>2163.4</ele>
        <time>2021-03-27T12:42:29Z</time>
      </trkpt>
      <trkpt lat="45.65652" lon="6.81442">
        <ele>2163.4</ele>
        <time>2021-03-27T12:42:30Z</time>
      </trkpt>
      <trkpt lat="45.65652" lon="6.81442">
        <ele>2163.4</ele>
        <time>2021-03-27T12:42:31Z</time>
      </trkpt>
      <trkpt lat="45.65653" lon="6.81443">
        <ele>2163.4</ele>
        <time>2021-03-27T12:42:32Z</time>
      </trkpt>
      <trkpt lat="45.65653" lon="6.81443">
        <ele>2164.6</ele>
        <time>2021-03-27T12:42:33Z</time>
      </trkpt>
      <trkpt lat="45.65653" lon="6.81444">
        <ele>2164.6</ele>
        <time>2021-03-27T12:42:34Z</time>
      </trkpt>
      <trkpt lat="45.65654" lon="6.81444">
        <ele>2164.6</ele>
        <time>2021-03-27T12:42:35Z</time>
      </trkpt>
      <trkpt lat="45.65654" lon="6.81444">
        <ele>2165.5</ele>
        <time>2021-03-27T12:42:36Z</time>
      </trkpt>
      <trkpt lat="45.65654" lon="6.81445">
        <ele>2165.5</ele>
        <time>2021-03-27T12:42:37Z</time>
      </trkpt>
      <trkpt lat="45.65655" lon="6.81445">
        <ele>2165.5</ele>
        <time>2021-03-27T12:42:38Z</time>
      </trkpt>
      <trkpt lat="45.65655" lon="6.81446">
        <ele>2165.5</ele>
        <time>2021-03-27T12:42:39Z</time>
      </trkpt>
      <trkpt lat="45.65656" lon="6.81447">
        <ele>2165.5</ele>
        <time>2021-03-27T12:42:40Z</time>
      </trkpt>
      <trkpt lat="45.65656" lon="6.81448">
        <ele>2166.7</ele>
        <time>2021-03-27T12:42:41Z</time>
      </trkpt>
      <trkpt lat="45.65657" lon="6.81448">
        <ele>2166.7</ele>
        <time>2021-03-27T12:42:42Z</time>
      </trkpt>
      <trkpt lat="45.65657" lon="6.81449">
        <ele>2167.6</ele>
        <time>2021-03-27T12:42:43Z</time>
      </trkpt>
      <trkpt lat="45.65657" lon="6.8145">
        <ele>2167.6</ele>
        <time>2021-03-27T12:42:44Z</time>
      </trkpt>
      <trkpt lat="45.65658" lon="6.81451">
        <ele>2167.6</ele>
        <time>2021-03-27T12:42:45Z</time>
      </trkpt>
      <trkpt lat="45.65658" lon="6.81451">
        <ele>2167.6</ele>
        <time>2021-03-27T12:42:46Z</time>
      </trkpt>
      <trkpt lat="45.65659" lon="6.81452">
        <ele>2167.6</ele>
        <time>2021-03-27T12:42:47Z</time>
      </trkpt>
      <trkpt lat="45.65659" lon="6.81453">
        <ele>2168.8</ele>
        <time>2021-03-27T12:42:48Z</time>
      </trkpt>
      <trkpt lat="45.65659" lon="6.81453">
        <ele>2169.8</ele>
        <time>2021-03-27T12:42:49Z</time>
      </trkpt>
      <trkpt lat="45.6566" lon="6.81454">
        <ele>2169.8</ele>
        <time>2021-03-27T12:42:50Z</time>
      </trkpt>
      <trkpt lat="45.6566" lon="6.81455">
        <ele>2169.8</ele>
        <time>2021-03-27T12:42:51Z</time>
      </trkpt>
      <trkpt lat="45.6566" lon="6.81455">
        <ele>2169.8</ele>
        <time>2021-03-27T12:42:52Z</time>
      </trkpt>
      <trkpt lat="45.65661" lon="6.81456">
        <ele>2169.8</ele>
        <time>2021-03-27T12:42:53Z</time>
      </trkpt>
      <trkpt lat="45.65661" lon="6.81457">
        <ele>2169.8</ele>
        <time>2021-03-27T12:42:54Z</time>
      </trkpt>
      <trkpt lat="45.65661" lon="6.81457">
        <ele>2170.7</ele>
        <time>2021-03-27T12:42:55Z</time>
      </trkpt>
      <trkpt lat="45.65661" lon="6.81458">
        <ele>2170.7</ele>
        <time>2021-03-27T12:42:56Z</time>
      </trkpt>
      <trkpt lat="45.65662" lon="6.8146">
        <ele>2171.9</ele>
        <time>2021-03-27T12:42:57Z</time>
      </trkpt>
      <trkpt lat="45.65662" lon="6.81461">
        <ele>2171.9</ele>
        <time>2021-03-27T12:42:58Z</time>
      </trkpt>
      <trkpt lat="45.65663" lon="6.81462">
        <ele>2172.8</ele>
        <time>2021-03-27T12:42:59Z</time>
      </trkpt>
      <trkpt lat="45.65663" lon="6.81463">
        <ele>2172.8</ele>
        <time>2021-03-27T12:43:00Z</time>
      </trkpt>
      <trkpt lat="45.65663" lon="6.81464">
        <ele>2172.8</ele>
        <time>2021-03-27T12:43:01Z</time>
      </trkpt>
      <trkpt lat="45.65664" lon="6.81465">
        <ele>2172.8</ele>
        <time>2021-03-27T12:43:02Z</time>
      </trkpt>
      <trkpt lat="45.65664" lon="6.81465">
        <ele>2172.8</ele>
        <time>2021-03-27T12:43:03Z</time>
      </trkpt>
      <trkpt lat="45.65664" lon="6.81466">
        <ele>2173.7</ele>
        <time>2021-03-27T12:43:04Z</time>
      </trkpt>
      <trkpt lat="45.65664" lon="6.81467">
        <ele>2173.7</ele>
        <time>2021-03-27T12:43:05Z</time>
      </trkpt>
      <trkpt lat="45.65664" lon="6.81468">
        <ele>2173.7</ele>
        <time>2021-03-27T12:43:06Z</time>
      </trkpt>
      <trkpt lat="45.65664" lon="6.81469">
        <ele>2173.7</ele>
        <time>2021-03-27T12:43:07Z</time>
      </trkpt>
      <trkpt lat="45.65664" lon="6.8147">
        <ele>2173.7</ele>
        <time>2021-03-27T12:43:08Z</time>
      </trkpt>
      <trkpt lat="45.65665" lon="6.8147">
        <ele>2174.6</ele>
        <time>2021-03-27T12:43:09Z</time>
      </trkpt>
      <trkpt lat="45.65665" lon="6.81471">
        <ele>2174.6</ele>
        <time>2021-03-27T12:43:10Z</time>
      </trkpt>
      <trkpt lat="45.65665" lon="6.81472">
        <ele>2174.6</ele>
        <time>2021-03-27T12:43:11Z</time>
      </trkpt>
      <trkpt lat="45.65665" lon="6.81473">
        <ele>2175.8</ele>
        <time>2021-03-27T12:43:12Z</time>
      </trkpt>
      <trkpt lat="45.65665" lon="6.81474">
        <ele>2175.8</ele>
        <time>2021-03-27T12:43:13Z</time>
      </trkpt>
      <trkpt lat="45.65665" lon="6.81475">
        <ele>2176.7</ele>
        <time>2021-03-27T12:43:14Z</time>
      </trkpt>
      <trkpt lat="45.65665" lon="6.81476">
        <ele>2176.7</ele>
        <time>2021-03-27T12:43:15Z</time>
      </trkpt>
      <trkpt lat="45.65665" lon="6.81477">
        <ele>2176.7</ele>
        <time>2021-03-27T12:43:16Z</time>
      </trkpt>
      <trkpt lat="45.65665" lon="6.81478">
        <ele>2176.7</ele>
        <time>2021-03-27T12:43:17Z</time>
      </trkpt>
      <trkpt lat="45.65665" lon="6.81479">
        <ele>2177.7</ele>
        <time>2021-03-27T12:43:18Z</time>
      </trkpt>
      <trkpt lat="45.65666" lon="6.8148">
        <ele>2177.7</ele>
        <time>2021-03-27T12:43:19Z</time>
      </trkpt>
      <trkpt lat="45.65666" lon="6.8148">
        <ele>2177.7</ele>
        <time>2021-03-27T12:43:20Z</time>
      </trkpt>
      <trkpt lat="45.65666" lon="6.81481">
        <ele>2177.7</ele>
        <time>2021-03-27T12:43:21Z</time>
      </trkpt>
      <trkpt lat="45.65666" lon="6.81482">
        <ele>2177.7</ele>
        <time>2021-03-27T12:43:22Z</time>
      </trkpt>
      <trkpt lat="45.65667" lon="6.81482">
        <ele>2177.7</ele>
        <time>2021-03-27T12:43:23Z</time>
      </trkpt>
      <trkpt lat="45.65667" lon="6.81483">
        <ele>2177.7</ele>
        <time>2021-03-27T12:43:24Z</time>
      </trkpt>
      <trkpt lat="45.65667" lon="6.81483">
        <ele>2178.8</ele>
        <time>2021-03-27T12:43:25Z</time>
      </trkpt>
      <trkpt lat="45.65668" lon="6.81483">
        <ele>2179.9</ele>
        <time>2021-03-27T12:43:26Z</time>
      </trkpt>
      <trkpt lat="45.65668" lon="6.81483">
        <ele>2178.9</ele>
        <time>2021-03-27T12:43:27Z</time>
      </trkpt>
      <trkpt lat="45.65669" lon="6.81483">
        <ele>2178.9</ele>
        <time>2021-03-27T12:43:28Z</time>
      </trkpt>
      <trkpt lat="45.65669" lon="6.81483">
        <ele>2178.9</ele>
        <time>2021-03-27T12:43:29Z</time>
      </trkpt>
      <trkpt lat="45.6567" lon="6.81482">
        <ele>2178.9</ele>
        <time>2021-03-27T12:43:30Z</time>
      </trkpt>
      <trkpt lat="45.65671" lon="6.81482">
        <ele>2178.9</ele>
        <time>2021-03-27T12:43:31Z</time>
      </trkpt>
      <trkpt lat="45.65671" lon="6.81482">
        <ele>2179.9</ele>
        <time>2021-03-27T12:43:32Z</time>
      </trkpt>
      <trkpt lat="45.65672" lon="6.81482">
        <ele>2179.9</ele>
        <time>2021-03-27T12:43:33Z</time>
      </trkpt>
      <trkpt lat="45.65672" lon="6.81481">
        <ele>2179.9</ele>
        <time>2021-03-27T12:43:34Z</time>
      </trkpt>
      <trkpt lat="45.65673" lon="6.81481">
        <ele>2179.9</ele>
        <time>2021-03-27T12:43:35Z</time>
      </trkpt>
      <trkpt lat="45.65673" lon="6.81481">
        <ele>2179.9</ele>
        <time>2021-03-27T12:43:36Z</time>
      </trkpt>
      <trkpt lat="45.65674" lon="6.81482">
        <ele>2179.9</ele>
        <time>2021-03-27T12:43:37Z</time>
      </trkpt>
      <trkpt lat="45.65674" lon="6.81482">
        <ele>2180.8</ele>
        <time>2021-03-27T12:43:38Z</time>
      </trkpt>
      <trkpt lat="45.65675" lon="6.81482">
        <ele>2180.8</ele>
        <time>2021-03-27T12:43:39Z</time>
      </trkpt>
      <trkpt lat="45.65675" lon="6.81482">
        <ele>2180.8</ele>
        <time>2021-03-27T12:43:40Z</time>
      </trkpt>
      <trkpt lat="45.65675" lon="6.81482">
        <ele>2180.8</ele>
        <time>2021-03-27T12:43:41Z</time>
      </trkpt>
      <trkpt lat="45.65676" lon="6.81482">
        <ele>2180.8</ele>
        <time>2021-03-27T12:43:42Z</time>
      </trkpt>
      <trkpt lat="45.65676" lon="6.81482">
        <ele>2180.8</ele>
        <time>2021-03-27T12:43:43Z</time>
      </trkpt>
      <trkpt lat="45.65677" lon="6.81483">
        <ele>2180.8</ele>
        <time>2021-03-27T12:43:44Z</time>
      </trkpt>
      <trkpt lat="45.65677" lon="6.81483">
        <ele>2181.7</ele>
        <time>2021-03-27T12:43:45Z</time>
      </trkpt>
      <trkpt lat="45.65678" lon="6.81483">
        <ele>2181.7</ele>
        <time>2021-03-27T12:43:46Z</time>
      </trkpt>
      <trkpt lat="45.65678" lon="6.81483">
        <ele>2181.7</ele>
        <time>2021-03-27T12:43:47Z</time>
      </trkpt>
      <trkpt lat="45.65679" lon="6.81483">
        <ele>2181.7</ele>
        <time>2021-03-27T12:43:48Z</time>
      </trkpt>
      <trkpt lat="45.65679" lon="6.81482">
        <ele>2181.7</ele>
        <time>2021-03-27T12:43:49Z</time>
      </trkpt>
      <trkpt lat="45.6568" lon="6.81482">
        <ele>2182.6</ele>
        <time>2021-03-27T12:43:50Z</time>
      </trkpt>
      <trkpt lat="45.6568" lon="6.81482">
        <ele>2182.6</ele>
        <time>2021-03-27T12:43:51Z</time>
      </trkpt>
      <trkpt lat="45.65681" lon="6.81483">
        <ele>2182.6</ele>
        <time>2021-03-27T12:43:52Z</time>
      </trkpt>
      <trkpt lat="45.65681" lon="6.81483">
        <ele>2182.6</ele>
        <time>2021-03-27T12:43:53Z</time>
      </trkpt>
      <trkpt lat="45.65682" lon="6.81483">
        <ele>2183.6</ele>
        <time>2021-03-27T12:43:54Z</time>
      </trkpt>
      <trkpt lat="45.65682" lon="6.81484">
        <ele>2183.6</ele>
        <time>2021-03-27T12:43:55Z</time>
      </trkpt>
      <trkpt lat="45.65682" lon="6.81484">
        <ele>2183.6</ele>
        <time>2021-03-27T12:43:56Z</time>
      </trkpt>
      <trkpt lat="45.65683" lon="6.81485">
        <ele>2183.6</ele>
        <time>2021-03-27T12:43:57Z</time>
      </trkpt>
      <trkpt lat="45.65683" lon="6.81485">
        <ele>2184.5</ele>
        <time>2021-03-27T12:43:58Z</time>
      </trkpt>
      <trkpt lat="45.65683" lon="6.81486">
        <ele>2184.5</ele>
        <time>2021-03-27T12:43:59Z</time>
      </trkpt>
      <trkpt lat="45.65684" lon="6.81486">
        <ele>2184.5</ele>
        <time>2021-03-27T12:44:00Z</time>
      </trkpt>
      <trkpt lat="45.65684" lon="6.81486">
        <ele>2184.5</ele>
        <time>2021-03-27T12:44:01Z</time>
      </trkpt>
      <trkpt lat="45.65685" lon="6.81486">
        <ele>2184.5</ele>
        <time>2021-03-27T12:44:02Z</time>
      </trkpt>
      <trkpt lat="45.65685" lon="6.81486">
        <ele>2184.5</ele>
        <time>2021-03-27T12:44:03Z</time>
      </trkpt>
      <trkpt lat="45.65685" lon="6.81487">
        <ele>2185.4</ele>
        <time>2021-03-27T12:44:04Z</time>
      </trkpt>
      <trkpt lat="45.65684" lon="6.81488">
        <ele>2185.4</ele>
        <time>2021-03-27T12:44:05Z</time>
      </trkpt>
      <trkpt lat="45.65684" lon="6.81489">
        <ele>2185.4</ele>
        <time>2021-03-27T12:44:06Z</time>
      </trkpt>
      <trkpt lat="45.65684" lon="6.8149">
        <ele>2185.4</ele>
        <time>2021-03-27T12:44:07Z</time>
      </trkpt>
      <trkpt lat="45.65684" lon="6.81491">
        <ele>2185.4</ele>
        <time>2021-03-27T12:44:08Z</time>
      </trkpt>
      <trkpt lat="45.65683" lon="6.81492">
        <ele>2186.4</ele>
        <time>2021-03-27T12:44:09Z</time>
      </trkpt>
      <trkpt lat="45.65683" lon="6.81492">
        <ele>2186.4</ele>
        <time>2021-03-27T12:44:10Z</time>
      </trkpt>
      <trkpt lat="45.65683" lon="6.81493">
        <ele>2185.5</ele>
        <time>2021-03-27T12:44:11Z</time>
      </trkpt>
      <trkpt lat="45.65682" lon="6.81494">
        <ele>2185.5</ele>
        <time>2021-03-27T12:44:12Z</time>
      </trkpt>
      <trkpt lat="45.65682" lon="6.81495">
        <ele>2185.5</ele>
        <time>2021-03-27T12:55:40Z</time>
      </trkpt>
      <trkpt lat="45.65682" lon="6.81496">
        <ele>2186.6</ele>
        <time>2021-03-27T12:55:41Z</time>
      </trkpt>
      <trkpt lat="45.65682" lon="6.81497">
        <ele>2186.6</ele>
        <time>2021-03-27T12:55:42Z</time>
      </trkpt>
      <trkpt lat="45.65682" lon="6.81498">
        <ele>2186.6</ele>
        <time>2021-03-27T12:55:43Z</time>
      </trkpt>
      <trkpt lat="45.65683" lon="6.815">
        <ele>2186.6</ele>
        <time>2021-03-27T12:55:44Z</time>
      </trkpt>
      <trkpt lat="45.65683" lon="6.81501">
        <ele>2188.5</ele>
        <time>2021-03-27T12:55:45Z</time>
      </trkpt>
      <trkpt lat="45.65683" lon="6.81502">
        <ele>2188.5</ele>
        <time>2021-03-27T12:55:46Z</time>
      </trkpt>
      <trkpt lat="45.65683" lon="6.81502">
        <ele>2188.5</ele>
        <time>2021-03-27T12:55:47Z</time>
      </trkpt>
      <trkpt lat="45.65683" lon="6.81502">
        <ele>2188.5</ele>
        <time>2021-03-27T12:55:48Z</time>
      </trkpt>
      <trkpt lat="45.65683" lon="6.81502">
        <ele>2188.5</ele>
        <time>2021-03-27T12:55:49Z</time>
      </trkpt>
      <trkpt lat="45.65685" lon="6.81504">
        <ele>2188.5</ele>
        <time>2021-03-27T12:55:50Z</time>
      </trkpt>
      <trkpt lat="45.65686" lon="6.81505">
        <ele>2190.4</ele>
        <time>2021-03-27T12:55:51Z</time>
      </trkpt>
      <trkpt lat="45.65686" lon="6.81505">
        <ele>2190.4</ele>
        <time>2021-03-27T12:55:52Z</time>
      </trkpt>
      <trkpt lat="45.65687" lon="6.81506">
        <ele>2190.4</ele>
        <time>2021-03-27T12:55:53Z</time>
      </trkpt>
      <trkpt lat="45.65688" lon="6.81506">
        <ele>2190.4</ele>
        <time>2021-03-27T12:55:54Z</time>
      </trkpt>
      <trkpt lat="45.65688" lon="6.81508">
        <ele>2190.4</ele>
        <time>2021-03-27T12:55:55Z</time>
      </trkpt>
      <trkpt lat="45.65688" lon="6.8151">
        <ele>2191.4</ele>
        <time>2021-03-27T12:55:56Z</time>
      </trkpt>
      <trkpt lat="45.65687" lon="6.81511">
        <ele>2191.4</ele>
        <time>2021-03-27T12:55:57Z</time>
      </trkpt>
      <trkpt lat="45.65687" lon="6.81512">
        <ele>2191.4</ele>
        <time>2021-03-27T12:55:58Z</time>
      </trkpt>
      <trkpt lat="45.65686" lon="6.81512">
        <ele>2191.4</ele>
        <time>2021-03-27T12:55:59Z</time>
      </trkpt>
      <trkpt lat="45.65686" lon="6.81513">
        <ele>2191.5</ele>
        <time>2021-03-27T12:56:00Z</time>
      </trkpt>
      <trkpt lat="45.65685" lon="6.81513">
        <ele>2191.5</ele>
        <time>2021-03-27T12:56:01Z</time>
      </trkpt>
      <trkpt lat="45.65685" lon="6.81516">
        <ele>2191.5</ele>
        <time>2021-03-27T12:56:02Z</time>
      </trkpt>
      <trkpt lat="45.65685" lon="6.81518">
        <ele>2192.6</ele>
        <time>2021-03-27T12:56:03Z</time>
      </trkpt>
      <trkpt lat="45.65685" lon="6.81519">
        <ele>2192.6</ele>
        <time>2021-03-27T12:56:04Z</time>
      </trkpt>
      <trkpt lat="45.65686" lon="6.8152">
        <ele>2193.5</ele>
        <time>2021-03-27T12:56:05Z</time>
      </trkpt>
      <trkpt lat="45.65687" lon="6.81521">
        <ele>2193.5</ele>
        <time>2021-03-27T12:56:06Z</time>
      </trkpt>
      <trkpt lat="45.65687" lon="6.81523">
        <ele>2194.6</ele>
        <time>2021-03-27T12:56:07Z</time>
      </trkpt>
      <trkpt lat="45.65687" lon="6.81524">
        <ele>2194.6</ele>
        <time>2021-03-27T12:56:08Z</time>
      </trkpt>
      <trkpt lat="45.65687" lon="6.81525">
        <ele>2194.6</ele>
        <time>2021-03-27T12:56:09Z</time>
      </trkpt>
      <trkpt lat="45.65688" lon="6.81527">
        <ele>2195.9</ele>
        <time>2021-03-27T12:56:10Z</time>
      </trkpt>
      <trkpt lat="45.65688" lon="6.81528">
        <ele>2195.9</ele>
        <time>2021-03-27T12:56:11Z</time>
      </trkpt>
      <trkpt lat="45.65687" lon="6.8153">
        <ele>2197.2</ele>
        <time>2021-03-27T12:56:12Z</time>
      </trkpt>
      <trkpt lat="45.65687" lon="6.81532">
        <ele>2197.2</ele>
        <time>2021-03-27T12:56:13Z</time>
      </trkpt>
      <trkpt lat="45.65686" lon="6.81533">
        <ele>2197.2</ele>
        <time>2021-03-27T12:56:14Z</time>
      </trkpt>
      <trkpt lat="45.65686" lon="6.81535">
        <ele>2198.5</ele>
        <time>2021-03-27T12:56:15Z</time>
      </trkpt>
      <trkpt lat="45.65686" lon="6.81536">
        <ele>2198.5</ele>
        <time>2021-03-27T12:56:16Z</time>
      </trkpt>
      <trkpt lat="45.65687" lon="6.81536">
        <ele>2198.5</ele>
        <time>2021-03-27T12:56:17Z</time>
      </trkpt>
      <trkpt lat="45.65687" lon="6.81537">
        <ele>2198.5</ele>
        <time>2021-03-27T12:56:18Z</time>
      </trkpt>
      <trkpt lat="45.65687" lon="6.81538">
        <ele>2198.5</ele>
        <time>2021-03-27T12:56:19Z</time>
      </trkpt>
      <trkpt lat="45.65688" lon="6.81538">
        <ele>2198.5</ele>
        <time>2021-03-27T12:56:20Z</time>
      </trkpt>
      <trkpt lat="45.65689" lon="6.81539">
        <ele>2199.3</ele>
        <time>2021-03-27T12:56:21Z</time>
      </trkpt>
      <trkpt lat="45.6569" lon="6.81539">
        <ele>2200.6</ele>
        <time>2021-03-27T12:56:22Z</time>
      </trkpt>
      <trkpt lat="45.65691" lon="6.81539">
        <ele>2200.6</ele>
        <time>2021-03-27T12:56:23Z</time>
      </trkpt>
      <trkpt lat="45.65692" lon="6.81538">
        <ele>2200.2</ele>
        <time>2021-03-27T12:56:24Z</time>
      </trkpt>
      <trkpt lat="45.65692" lon="6.81538">
        <ele>2200.2</ele>
        <time>2021-03-27T12:56:25Z</time>
      </trkpt>
      <trkpt lat="45.65693" lon="6.81538">
        <ele>2200.2</ele>
        <time>2021-03-27T12:56:26Z</time>
      </trkpt>
      <trkpt lat="45.65694" lon="6.81537">
        <ele>2200.2</ele>
        <time>2021-03-27T12:56:27Z</time>
      </trkpt>
      <trkpt lat="45.65695" lon="6.81536">
        <ele>2200.2</ele>
        <time>2021-03-27T12:56:28Z</time>
      </trkpt>
      <trkpt lat="45.65696" lon="6.81536">
        <ele>2201.1</ele>
        <time>2021-03-27T12:56:29Z</time>
      </trkpt>
      <trkpt lat="45.65697" lon="6.81535">
        <ele>2201.1</ele>
        <time>2021-03-27T12:56:30Z</time>
      </trkpt>
      <trkpt lat="45.65697" lon="6.81534">
        <ele>2201.1</ele>
        <time>2021-03-27T12:56:31Z</time>
      </trkpt>
      <trkpt lat="45.65697" lon="6.81534">
        <ele>2199.8</ele>
        <time>2021-03-27T12:56:32Z</time>
      </trkpt>
      <trkpt lat="45.65698" lon="6.81534">
        <ele>2200.7</ele>
        <time>2021-03-27T12:56:33Z</time>
      </trkpt>
      <trkpt lat="45.65698" lon="6.81534">
        <ele>2200.7</ele>
        <time>2021-03-27T12:56:34Z</time>
      </trkpt>
      <trkpt lat="45.65698" lon="6.81533">
        <ele>2200.7</ele>
        <time>2021-03-27T12:56:35Z</time>
      </trkpt>
      <trkpt lat="45.65699" lon="6.81532">
        <ele>2200.7</ele>
        <time>2021-03-27T12:56:36Z</time>
      </trkpt>
      <trkpt lat="45.65699" lon="6.81532">
        <ele>2200.7</ele>
        <time>2021-03-27T12:56:37Z</time>
      </trkpt>
      <trkpt lat="45.657" lon="6.81531">
        <ele>2200.7</ele>
        <time>2021-03-27T12:56:38Z</time>
      </trkpt>
      <trkpt lat="45.657" lon="6.8153">
        <ele>2200.7</ele>
        <time>2021-03-27T12:56:39Z</time>
      </trkpt>
      <trkpt lat="45.65701" lon="6.8153">
        <ele>2199.4</ele>
        <time>2021-03-27T12:56:40Z</time>
      </trkpt>
      <trkpt lat="45.65701" lon="6.81529">
        <ele>2200.3</ele>
        <time>2021-03-27T12:56:41Z</time>
      </trkpt>
      <trkpt lat="45.65702" lon="6.81529">
        <ele>2200.3</ele>
        <time>2021-03-27T12:56:42Z</time>
      </trkpt>
      <trkpt lat="45.65702" lon="6.81528">
        <ele>2200.3</ele>
        <time>2021-03-27T12:56:43Z</time>
      </trkpt>
      <trkpt lat="45.65702" lon="6.81528">
        <ele>2200.3</ele>
        <time>2021-03-27T12:56:44Z</time>
      </trkpt>
      <trkpt lat="45.65702" lon="6.81528">
        <ele>2200.3</ele>
        <time>2021-03-27T12:56:45Z</time>
      </trkpt>
      <trkpt lat="45.65703" lon="6.81529">
        <ele>2200.3</ele>
        <time>2021-03-27T12:56:46Z</time>
      </trkpt>
      <trkpt lat="45.65703" lon="6.8153">
        <ele>2201.5</ele>
        <time>2021-03-27T12:56:47Z</time>
      </trkpt>
      <trkpt lat="45.65704" lon="6.81531">
        <ele>2201.5</ele>
        <time>2021-03-27T12:56:48Z</time>
      </trkpt>
      <trkpt lat="45.65704" lon="6.81532">
        <ele>2202.3</ele>
        <time>2021-03-27T12:56:49Z</time>
      </trkpt>
      <trkpt lat="45.65705" lon="6.81533">
        <ele>2202.3</ele>
        <time>2021-03-27T12:56:50Z</time>
      </trkpt>
      <trkpt lat="45.65705" lon="6.81534">
        <ele>2202.3</ele>
        <time>2021-03-27T12:56:51Z</time>
      </trkpt>
      <trkpt lat="45.65706" lon="6.81535">
        <ele>2203.5</ele>
        <time>2021-03-27T12:56:52Z</time>
      </trkpt>
      <trkpt lat="45.65707" lon="6.81536">
        <ele>2204.2</ele>
        <time>2021-03-27T12:56:53Z</time>
      </trkpt>
      <trkpt lat="45.65707" lon="6.81537">
        <ele>2204.2</ele>
        <time>2021-03-27T12:56:54Z</time>
      </trkpt>
      <trkpt lat="45.65708" lon="6.81538">
        <ele>2204.2</ele>
        <time>2021-03-27T12:56:55Z</time>
      </trkpt>
      <trkpt lat="45.65708" lon="6.81539">
        <ele>2205.3</ele>
        <time>2021-03-27T12:56:56Z</time>
      </trkpt>
      <trkpt lat="45.65708" lon="6.81541">
        <ele>2205.3</ele>
        <time>2021-03-27T12:56:57Z</time>
      </trkpt>
      <trkpt lat="45.65708" lon="6.81542">
        <ele>2205.3</ele>
        <time>2021-03-27T12:56:58Z</time>
      </trkpt>
      <trkpt lat="45.65708" lon="6.81543">
        <ele>2206.4</ele>
        <time>2021-03-27T12:56:59Z</time>
      </trkpt>
      <trkpt lat="45.65709" lon="6.81544">
        <ele>2206.4</ele>
        <time>2021-03-27T12:57:00Z</time>
      </trkpt>
      <trkpt lat="45.65709" lon="6.81545">
        <ele>2206.4</ele>
        <time>2021-03-27T12:57:01Z</time>
      </trkpt>
      <trkpt lat="45.65709" lon="6.81545">
        <ele>2206.4</ele>
        <time>2021-03-27T12:57:02Z</time>
      </trkpt>
      <trkpt lat="45.6571" lon="6.81546">
        <ele>2207</ele>
        <time>2021-03-27T12:57:03Z</time>
      </trkpt>
      <trkpt lat="45.65711" lon="6.81546">
        <ele>2207</ele>
        <time>2021-03-27T12:57:04Z</time>
      </trkpt>
      <trkpt lat="45.65711" lon="6.81547">
        <ele>2207</ele>
        <time>2021-03-27T12:57:05Z</time>
      </trkpt>
      <trkpt lat="45.65711" lon="6.81547">
        <ele>2208</ele>
        <time>2021-03-27T12:57:06Z</time>
      </trkpt>
      <trkpt lat="45.65711" lon="6.81548">
        <ele>2208</ele>
        <time>2021-03-27T12:57:07Z</time>
      </trkpt>
      <trkpt lat="45.65712" lon="6.81548">
        <ele>2208</ele>
        <time>2021-03-27T12:57:08Z</time>
      </trkpt>
      <trkpt lat="45.65712" lon="6.81548">
        <ele>2208</ele>
        <time>2021-03-27T12:57:09Z</time>
      </trkpt>
      <trkpt lat="45.65713" lon="6.81548">
        <ele>2208.6</ele>
        <time>2021-03-27T12:57:10Z</time>
      </trkpt>
      <trkpt lat="45.65714" lon="6.81547">
        <ele>2208.6</ele>
        <time>2021-03-27T12:57:11Z</time>
      </trkpt>
      <trkpt lat="45.65715" lon="6.81547">
        <ele>2207.6</ele>
        <time>2021-03-27T12:57:12Z</time>
      </trkpt>
      <trkpt lat="45.65715" lon="6.81547">
        <ele>2207.6</ele>
        <time>2021-03-27T12:57:13Z</time>
      </trkpt>
      <trkpt lat="45.65716" lon="6.81546">
        <ele>2207.6</ele>
        <time>2021-03-27T12:57:14Z</time>
      </trkpt>
      <trkpt lat="45.65716" lon="6.81545">
        <ele>2208.3</ele>
        <time>2021-03-27T12:57:15Z</time>
      </trkpt>
      <trkpt lat="45.65717" lon="6.81545">
        <ele>2208.3</ele>
        <time>2021-03-27T12:57:16Z</time>
      </trkpt>
      <trkpt lat="45.65717" lon="6.81544">
        <ele>2208.3</ele>
        <time>2021-03-27T12:57:17Z</time>
      </trkpt>
      <trkpt lat="45.65718" lon="6.81543">
        <ele>2208.3</ele>
        <time>2021-03-27T12:57:18Z</time>
      </trkpt>
      <trkpt lat="45.65718" lon="6.81543">
        <ele>2207.3</ele>
        <time>2021-03-27T12:57:19Z</time>
      </trkpt>
      <trkpt lat="45.65718" lon="6.81542">
        <ele>2207.3</ele>
        <time>2021-03-27T12:57:20Z</time>
      </trkpt>
      <trkpt lat="45.65719" lon="6.81541">
        <ele>2208</ele>
        <time>2021-03-27T12:57:21Z</time>
      </trkpt>
      <trkpt lat="45.65719" lon="6.8154">
        <ele>2208</ele>
        <time>2021-03-27T12:57:22Z</time>
      </trkpt>
      <trkpt lat="45.6572" lon="6.8154">
        <ele>2208</ele>
        <time>2021-03-27T12:57:23Z</time>
      </trkpt>
      <trkpt lat="45.6572" lon="6.81539">
        <ele>2208</ele>
        <time>2021-03-27T12:57:24Z</time>
      </trkpt>
      <trkpt lat="45.6572" lon="6.81538">
        <ele>2207</ele>
        <time>2021-03-27T12:57:25Z</time>
      </trkpt>
      <trkpt lat="45.6572" lon="6.81537">
        <ele>2207</ele>
        <time>2021-03-27T12:57:26Z</time>
      </trkpt>
      <trkpt lat="45.6572" lon="6.81537">
        <ele>2207</ele>
        <time>2021-03-27T12:57:27Z</time>
      </trkpt>
      <trkpt lat="45.65721" lon="6.81536">
        <ele>2207</ele>
        <time>2021-03-27T12:57:28Z</time>
      </trkpt>
      <trkpt lat="45.65721" lon="6.81535">
        <ele>2207</ele>
        <time>2021-03-27T12:57:29Z</time>
      </trkpt>
      <trkpt lat="45.65722" lon="6.81535">
        <ele>2207</ele>
        <time>2021-03-27T12:57:30Z</time>
      </trkpt>
      <trkpt lat="45.65722" lon="6.81534">
        <ele>2206.7</ele>
        <time>2021-03-27T12:57:31Z</time>
      </trkpt>
      <trkpt lat="45.65722" lon="6.81534">
        <ele>2206.7</ele>
        <time>2021-03-27T12:57:32Z</time>
      </trkpt>
      <trkpt lat="45.65723" lon="6.81533">
        <ele>2206.7</ele>
        <time>2021-03-27T12:57:33Z</time>
      </trkpt>
      <trkpt lat="45.65723" lon="6.81533">
        <ele>2206.7</ele>
        <time>2021-03-27T12:57:34Z</time>
      </trkpt>
      <trkpt lat="45.65724" lon="6.81533">
        <ele>2206.7</ele>
        <time>2021-03-27T12:57:35Z</time>
      </trkpt>
      <trkpt lat="45.65724" lon="6.81532">
        <ele>2206.7</ele>
        <time>2021-03-27T12:57:36Z</time>
      </trkpt>
      <trkpt lat="45.65725" lon="6.81532">
        <ele>2207.6</ele>
        <time>2021-03-27T12:57:37Z</time>
      </trkpt>
      <trkpt lat="45.65725" lon="6.81532">
        <ele>2207.6</ele>
        <time>2021-03-27T12:57:38Z</time>
      </trkpt>
      <trkpt lat="45.65726" lon="6.81532">
        <ele>2207.6</ele>
        <time>2021-03-27T12:57:39Z</time>
      </trkpt>
      <trkpt lat="45.65726" lon="6.81532">
        <ele>2207.6</ele>
        <time>2021-03-27T12:57:40Z</time>
      </trkpt>
      <trkpt lat="45.65727" lon="6.81532">
        <ele>2207.6</ele>
        <time>2021-03-27T12:57:41Z</time>
      </trkpt>
      <trkpt lat="45.65727" lon="6.81533">
        <ele>2207.6</ele>
        <time>2021-03-27T12:57:42Z</time>
      </trkpt>
      <trkpt lat="45.65728" lon="6.81533">
        <ele>2208.4</ele>
        <time>2021-03-27T12:57:43Z</time>
      </trkpt>
      <trkpt lat="45.65728" lon="6.81534">
        <ele>2208.4</ele>
        <time>2021-03-27T12:57:44Z</time>
      </trkpt>
      <trkpt lat="45.65729" lon="6.81534">
        <ele>2209.4</ele>
        <time>2021-03-27T12:57:45Z</time>
      </trkpt>
      <trkpt lat="45.6573" lon="6.81535">
        <ele>2209.4</ele>
        <time>2021-03-27T12:57:46Z</time>
      </trkpt>
      <trkpt lat="45.65731" lon="6.81536">
        <ele>2209.4</ele>
        <time>2021-03-27T12:57:47Z</time>
      </trkpt>
      <trkpt lat="45.65732" lon="6.81537">
        <ele>2210.1</ele>
        <time>2021-03-27T12:57:48Z</time>
      </trkpt>
      <trkpt lat="45.65733" lon="6.81538">
        <ele>2210.1</ele>
        <time>2021-03-27T12:57:49Z</time>
      </trkpt>
      <trkpt lat="45.65734" lon="6.81538">
        <ele>2210.1</ele>
        <time>2021-03-27T12:57:50Z</time>
      </trkpt>
      <trkpt lat="45.65734" lon="6.81539">
        <ele>2211.7</ele>
        <time>2021-03-27T12:57:51Z</time>
      </trkpt>
      <trkpt lat="45.65735" lon="6.81541">
        <ele>2211.7</ele>
        <time>2021-03-27T12:57:52Z</time>
      </trkpt>
      <trkpt lat="45.65736" lon="6.81543">
        <ele>2211.7</ele>
        <time>2021-03-27T12:57:53Z</time>
      </trkpt>
      <trkpt lat="45.65737" lon="6.81544">
        <ele>2213.2</ele>
        <time>2021-03-27T12:57:54Z</time>
      </trkpt>
      <trkpt lat="45.65738" lon="6.81544">
        <ele>2213.2</ele>
        <time>2021-03-27T12:57:55Z</time>
      </trkpt>
      <trkpt lat="45.65739" lon="6.81545">
        <ele>2213.2</ele>
        <time>2021-03-27T12:57:56Z</time>
      </trkpt>
      <trkpt lat="45.65739" lon="6.81546">
        <ele>2213.2</ele>
        <time>2021-03-27T12:57:57Z</time>
      </trkpt>
      <trkpt lat="45.65739" lon="6.81547">
        <ele>2213.2</ele>
        <time>2021-03-27T12:57:58Z</time>
      </trkpt>
      <trkpt lat="45.65739" lon="6.81548">
        <ele>2214</ele>
        <time>2021-03-27T12:57:59Z</time>
      </trkpt>
      <trkpt lat="45.65739" lon="6.81549">
        <ele>2214</ele>
        <time>2021-03-27T12:58:00Z</time>
      </trkpt>
      <trkpt lat="45.65739" lon="6.8155">
        <ele>2214</ele>
        <time>2021-03-27T12:58:01Z</time>
      </trkpt>
      <trkpt lat="45.65739" lon="6.81551">
        <ele>2214</ele>
        <time>2021-03-27T12:58:02Z</time>
      </trkpt>
      <trkpt lat="45.65739" lon="6.81552">
        <ele>2214.9</ele>
        <time>2021-03-27T12:58:03Z</time>
      </trkpt>
      <trkpt lat="45.6574" lon="6.81553">
        <ele>2214.9</ele>
        <time>2021-03-27T12:58:04Z</time>
      </trkpt>
      <trkpt lat="45.6574" lon="6.81553">
        <ele>2214.9</ele>
        <time>2021-03-27T12:58:05Z</time>
      </trkpt>
      <trkpt lat="45.6574" lon="6.81554">
        <ele>2215.5</ele>
        <time>2021-03-27T12:58:06Z</time>
      </trkpt>
      <trkpt lat="45.6574" lon="6.81555">
        <ele>2215.5</ele>
        <time>2021-03-27T12:58:07Z</time>
      </trkpt>
      <trkpt lat="45.65741" lon="6.81555">
        <ele>2215.5</ele>
        <time>2021-03-27T12:58:08Z</time>
      </trkpt>
      <trkpt lat="45.65741" lon="6.81556">
        <ele>2216.3</ele>
        <time>2021-03-27T12:58:09Z</time>
      </trkpt>
      <trkpt lat="45.65742" lon="6.81557">
        <ele>2216.3</ele>
        <time>2021-03-27T12:58:10Z</time>
      </trkpt>
      <trkpt lat="45.65742" lon="6.81558">
        <ele>2216.3</ele>
        <time>2021-03-27T12:58:11Z</time>
      </trkpt>
      <trkpt lat="45.65742" lon="6.81558">
        <ele>2216.3</ele>
        <time>2021-03-27T12:58:12Z</time>
      </trkpt>
      <trkpt lat="45.65743" lon="6.81559">
        <ele>2217.1</ele>
        <time>2021-03-27T12:58:13Z</time>
      </trkpt>
      <trkpt lat="45.65743" lon="6.8156">
        <ele>2217.1</ele>
        <time>2021-03-27T12:58:14Z</time>
      </trkpt>
      <trkpt lat="45.65743" lon="6.8156">
        <ele>2217.9</ele>
        <time>2021-03-27T12:58:15Z</time>
      </trkpt>
      <trkpt lat="45.65744" lon="6.81561">
        <ele>2217.9</ele>
        <time>2021-03-27T12:58:16Z</time>
      </trkpt>
      <trkpt lat="45.65744" lon="6.81561">
        <ele>2217.9</ele>
        <time>2021-03-27T12:58:17Z</time>
      </trkpt>
      <trkpt lat="45.65745" lon="6.8156">
        <ele>2217.9</ele>
        <time>2021-03-27T12:58:18Z</time>
      </trkpt>
      <trkpt lat="45.65745" lon="6.81559">
        <ele>2217.1</ele>
        <time>2021-03-27T12:58:19Z</time>
      </trkpt>
      <trkpt lat="45.65746" lon="6.81558">
        <ele>2217.1</ele>
        <time>2021-03-27T12:58:20Z</time>
      </trkpt>
      <trkpt lat="45.65746" lon="6.81557">
        <ele>2217.9</ele>
        <time>2021-03-27T12:58:21Z</time>
      </trkpt>
      <trkpt lat="45.65746" lon="6.81556">
        <ele>2217.9</ele>
        <time>2021-03-27T12:58:22Z</time>
      </trkpt>
      <trkpt lat="45.65746" lon="6.81555">
        <ele>2217.1</ele>
        <time>2021-03-27T12:58:23Z</time>
      </trkpt>
      <trkpt lat="45.65746" lon="6.81555">
        <ele>2217.1</ele>
        <time>2021-03-27T12:58:24Z</time>
      </trkpt>
      <trkpt lat="45.65746" lon="6.81554">
        <ele>2217.1</ele>
        <time>2021-03-27T12:58:25Z</time>
      </trkpt>
      <trkpt lat="45.65746" lon="6.81553">
        <ele>2217.1</ele>
        <time>2021-03-27T12:58:26Z</time>
      </trkpt>
      <trkpt lat="45.65746" lon="6.81552">
        <ele>2217.1</ele>
        <time>2021-03-27T12:58:27Z</time>
      </trkpt>
      <trkpt lat="45.65746" lon="6.81551">
        <ele>2216.3</ele>
        <time>2021-03-27T12:58:28Z</time>
      </trkpt>
      <trkpt lat="45.65746" lon="6.81551">
        <ele>2216.3</ele>
        <time>2021-03-27T12:58:29Z</time>
      </trkpt>
      <trkpt lat="45.65747" lon="6.8155">
        <ele>2216.3</ele>
        <time>2021-03-27T12:58:30Z</time>
      </trkpt>
      <trkpt lat="45.65747" lon="6.81549">
        <ele>2216.3</ele>
        <time>2021-03-27T12:58:31Z</time>
      </trkpt>
      <trkpt lat="45.65747" lon="6.81548">
        <ele>2216.3</ele>
        <time>2021-03-27T12:58:32Z</time>
      </trkpt>
      <trkpt lat="45.65747" lon="6.81547">
        <ele>2216.3</ele>
        <time>2021-03-27T12:58:33Z</time>
      </trkpt>
      <trkpt lat="45.65747" lon="6.81547">
        <ele>2215.5</ele>
        <time>2021-03-27T12:58:34Z</time>
      </trkpt>
      <trkpt lat="45.65747" lon="6.81546">
        <ele>2215.5</ele>
        <time>2021-03-27T12:58:35Z</time>
      </trkpt>
      <trkpt lat="45.65748" lon="6.81545">
        <ele>2215.5</ele>
        <time>2021-03-27T12:58:36Z</time>
      </trkpt>
      <trkpt lat="45.65747" lon="6.81543">
        <ele>2215.5</ele>
        <time>2021-03-27T12:58:37Z</time>
      </trkpt>
      <trkpt lat="45.65747" lon="6.81543">
        <ele>2214.8</ele>
        <time>2021-03-27T12:58:38Z</time>
      </trkpt>
      <trkpt lat="45.65747" lon="6.81542">
        <ele>2214.8</ele>
        <time>2021-03-27T12:58:39Z</time>
      </trkpt>
      <trkpt lat="45.65747" lon="6.81541">
        <ele>2214.8</ele>
        <time>2021-03-27T12:58:40Z</time>
      </trkpt>
      <trkpt lat="45.65747" lon="6.8154">
        <ele>2214.8</ele>
        <time>2021-03-27T12:58:41Z</time>
      </trkpt>
      <trkpt lat="45.65747" lon="6.81539">
        <ele>2214.8</ele>
        <time>2021-03-27T12:58:42Z</time>
      </trkpt>
      <trkpt lat="45.65747" lon="6.81538">
        <ele>2214</ele>
        <time>2021-03-27T12:58:43Z</time>
      </trkpt>
      <trkpt lat="45.65748" lon="6.81538">
        <ele>2214</ele>
        <time>2021-03-27T12:58:44Z</time>
      </trkpt>
      <trkpt lat="45.65748" lon="6.81537">
        <ele>2214</ele>
        <time>2021-03-27T12:58:45Z</time>
      </trkpt>
      <trkpt lat="45.65748" lon="6.81537">
        <ele>2214</ele>
        <time>2021-03-27T12:58:46Z</time>
      </trkpt>
      <trkpt lat="45.65748" lon="6.81536">
        <ele>2214</ele>
        <time>2021-03-27T12:58:47Z</time>
      </trkpt>
      <trkpt lat="45.65749" lon="6.81536">
        <ele>2215</ele>
        <time>2021-03-27T12:58:48Z</time>
      </trkpt>
      <trkpt lat="45.65749" lon="6.81536">
        <ele>2215</ele>
        <time>2021-03-27T12:58:49Z</time>
      </trkpt>
      <trkpt lat="45.6575" lon="6.81537">
        <ele>2215</ele>
        <time>2021-03-27T12:58:50Z</time>
      </trkpt>
      <trkpt lat="45.65751" lon="6.81537">
        <ele>2215</ele>
        <time>2021-03-27T12:58:51Z</time>
      </trkpt>
      <trkpt lat="45.65752" lon="6.81538">
        <ele>2215</ele>
        <time>2021-03-27T12:58:52Z</time>
      </trkpt>
      <trkpt lat="45.65753" lon="6.81539">
        <ele>2216.8</ele>
        <time>2021-03-27T12:58:53Z</time>
      </trkpt>
      <trkpt lat="45.65753" lon="6.8154">
        <ele>2216.8</ele>
        <time>2021-03-27T12:58:54Z</time>
      </trkpt>
      <trkpt lat="45.65754" lon="6.8154">
        <ele>2216.8</ele>
        <time>2021-03-27T12:58:55Z</time>
      </trkpt>
      <trkpt lat="45.65754" lon="6.81541">
        <ele>2216.8</ele>
        <time>2021-03-27T12:58:56Z</time>
      </trkpt>
      <trkpt lat="45.65755" lon="6.81541">
        <ele>2216.8</ele>
        <time>2021-03-27T12:58:57Z</time>
      </trkpt>
      <trkpt lat="45.65755" lon="6.81542">
        <ele>2217.8</ele>
        <time>2021-03-27T12:58:58Z</time>
      </trkpt>
      <trkpt lat="45.65755" lon="6.81542">
        <ele>2217.8</ele>
        <time>2021-03-27T12:58:59Z</time>
      </trkpt>
      <trkpt lat="45.65755" lon="6.81543">
        <ele>2217.8</ele>
        <time>2021-03-27T12:59:00Z</time>
      </trkpt>
      <trkpt lat="45.65756" lon="6.81543">
        <ele>2218.4</ele>
        <time>2021-03-27T12:59:01Z</time>
      </trkpt>
      <trkpt lat="45.65756" lon="6.81543">
        <ele>2218.4</ele>
        <time>2021-03-27T12:59:02Z</time>
      </trkpt>
      <trkpt lat="45.65756" lon="6.81543">
        <ele>2217.8</ele>
        <time>2021-03-27T12:59:03Z</time>
      </trkpt>
      <trkpt lat="45.65758" lon="6.81544">
        <ele>2219.3</ele>
        <time>2021-03-27T12:59:04Z</time>
      </trkpt>
      <trkpt lat="45.6576" lon="6.81546">
        <ele>2219.3</ele>
        <time>2021-03-27T12:59:15Z</time>
      </trkpt>
      <trkpt lat="45.65762" lon="6.81547">
        <ele>2220.8</ele>
        <time>2021-03-27T12:59:16Z</time>
      </trkpt>
      <trkpt lat="45.65763" lon="6.81549">
        <ele>2220.8</ele>
        <time>2021-03-27T12:59:17Z</time>
      </trkpt>
      <trkpt lat="45.65764" lon="6.8155">
        <ele>2220.8</ele>
        <time>2021-03-27T12:59:18Z</time>
      </trkpt>
      <trkpt lat="45.65764" lon="6.81551">
        <ele>2221.7</ele>
        <time>2021-03-27T12:59:19Z</time>
      </trkpt>
      <trkpt lat="45.65764" lon="6.81552">
        <ele>2222.3</ele>
        <time>2021-03-27T12:59:20Z</time>
      </trkpt>
      <trkpt lat="45.65765" lon="6.81553">
        <ele>2222.3</ele>
        <time>2021-03-27T12:59:21Z</time>
      </trkpt>
      <trkpt lat="45.65765" lon="6.81554">
        <ele>2222.3</ele>
        <time>2021-03-27T12:59:22Z</time>
      </trkpt>
      <trkpt lat="45.65765" lon="6.81555">
        <ele>2222.3</ele>
        <time>2021-03-27T12:59:23Z</time>
      </trkpt>
      <trkpt lat="45.65764" lon="6.81557">
        <ele>2222.9</ele>
        <time>2021-03-27T12:59:24Z</time>
      </trkpt>
      <trkpt lat="45.65764" lon="6.81558">
        <ele>2222.9</ele>
        <time>2021-03-27T12:59:25Z</time>
      </trkpt>
      <trkpt lat="45.65764" lon="6.8156">
        <ele>2222.9</ele>
        <time>2021-03-27T12:59:26Z</time>
      </trkpt>
      <trkpt lat="45.65764" lon="6.81561">
        <ele>2222.7</ele>
        <time>2021-03-27T12:59:27Z</time>
      </trkpt>
      <trkpt lat="45.65763" lon="6.81563">
        <ele>2222.7</ele>
        <time>2021-03-27T12:59:28Z</time>
      </trkpt>
      <trkpt lat="45.65763" lon="6.81564">
        <ele>2222.7</ele>
        <time>2021-03-27T12:59:29Z</time>
      </trkpt>
      <trkpt lat="45.65762" lon="6.81565">
        <ele>2223.5</ele>
        <time>2021-03-27T12:59:30Z</time>
      </trkpt>
      <trkpt lat="45.65762" lon="6.81567">
        <ele>2223.5</ele>
        <time>2021-03-27T12:59:31Z</time>
      </trkpt>
      <trkpt lat="45.65762" lon="6.81568">
        <ele>2223.5</ele>
        <time>2021-03-27T12:59:32Z</time>
      </trkpt>
      <trkpt lat="45.65762" lon="6.81568">
        <ele>2223.5</ele>
        <time>2021-03-27T12:59:33Z</time>
      </trkpt>
      <trkpt lat="45.65763" lon="6.81569">
        <ele>2224.3</ele>
        <time>2021-03-27T12:59:34Z</time>
      </trkpt>
      <trkpt lat="45.65763" lon="6.8157">
        <ele>2224.3</ele>
        <time>2021-03-27T12:59:35Z</time>
      </trkpt>
      <trkpt lat="45.65764" lon="6.81571">
        <ele>2225</ele>
        <time>2021-03-27T12:59:36Z</time>
      </trkpt>
      <trkpt lat="45.65765" lon="6.81572">
        <ele>2225</ele>
        <time>2021-03-27T12:59:37Z</time>
      </trkpt>
      <trkpt lat="45.65766" lon="6.81572">
        <ele>2225</ele>
        <time>2021-03-27T12:59:38Z</time>
      </trkpt>
      <trkpt lat="45.65767" lon="6.81573">
        <ele>2225</ele>
        <time>2021-03-27T12:59:39Z</time>
      </trkpt>
      <trkpt lat="45.65768" lon="6.81573">
        <ele>2226.8</ele>
        <time>2021-03-27T12:59:40Z</time>
      </trkpt>
      <trkpt lat="45.65769" lon="6.81574">
        <ele>2226.8</ele>
        <time>2021-03-27T12:59:41Z</time>
      </trkpt>
      <trkpt lat="45.65769" lon="6.81575">
        <ele>2226.8</ele>
        <time>2021-03-27T12:59:42Z</time>
      </trkpt>
      <trkpt lat="45.65768" lon="6.81576">
        <ele>2226.8</ele>
        <time>2021-03-27T12:59:43Z</time>
      </trkpt>
      <trkpt lat="45.65768" lon="6.81578">
        <ele>2227.8</ele>
        <time>2021-03-27T12:59:44Z</time>
      </trkpt>
      <trkpt lat="45.65768" lon="6.81579">
        <ele>2227.8</ele>
        <time>2021-03-27T12:59:45Z</time>
      </trkpt>
      <trkpt lat="45.65768" lon="6.8158">
        <ele>2227.8</ele>
        <time>2021-03-27T12:59:46Z</time>
      </trkpt>
      <trkpt lat="45.65767" lon="6.81581">
        <ele>2227.8</ele>
        <time>2021-03-27T12:59:47Z</time>
      </trkpt>
      <trkpt lat="45.65767" lon="6.81582">
        <ele>2228.8</ele>
        <time>2021-03-27T12:59:48Z</time>
      </trkpt>
      <trkpt lat="45.65767" lon="6.81583">
        <ele>2228.8</ele>
        <time>2021-03-27T12:59:49Z</time>
      </trkpt>
      <trkpt lat="45.65767" lon="6.81584">
        <ele>2228.8</ele>
        <time>2021-03-27T12:59:50Z</time>
      </trkpt>
      <trkpt lat="45.65768" lon="6.81584">
        <ele>2228.8</ele>
        <time>2021-03-27T12:59:51Z</time>
      </trkpt>
      <trkpt lat="45.65768" lon="6.81585">
        <ele>2228.8</ele>
        <time>2021-03-27T12:59:52Z</time>
      </trkpt>
      <trkpt lat="45.65768" lon="6.81586">
        <ele>2229.9</ele>
        <time>2021-03-27T12:59:53Z</time>
      </trkpt>
      <trkpt lat="45.65768" lon="6.81587">
        <ele>2229.9</ele>
        <time>2021-03-27T12:59:54Z</time>
      </trkpt>
      <trkpt lat="45.65768" lon="6.81588">
        <ele>2229.9</ele>
        <time>2021-03-27T12:59:55Z</time>
      </trkpt>
      <trkpt lat="45.65768" lon="6.81589">
        <ele>2229.9</ele>
        <time>2021-03-27T12:59:56Z</time>
      </trkpt>
      <trkpt lat="45.65768" lon="6.81589">
        <ele>2229.9</ele>
        <time>2021-03-27T12:59:57Z</time>
      </trkpt>
      <trkpt lat="45.65769" lon="6.8159">
        <ele>2229.9</ele>
        <time>2021-03-27T12:59:58Z</time>
      </trkpt>
      <trkpt lat="45.65769" lon="6.81591">
        <ele>2230.9</ele>
        <time>2021-03-27T12:59:59Z</time>
      </trkpt>
      <trkpt lat="45.65769" lon="6.81591">
        <ele>2230.9</ele>
        <time>2021-03-27T13:00:00Z</time>
      </trkpt>
      <trkpt lat="45.65769" lon="6.81592">
        <ele>2230.9</ele>
        <time>2021-03-27T13:00:01Z</time>
      </trkpt>
      <trkpt lat="45.65769" lon="6.81592">
        <ele>2230.9</ele>
        <time>2021-03-27T13:00:02Z</time>
      </trkpt>
      <trkpt lat="45.6577" lon="6.81593">
        <ele>2230.9</ele>
        <time>2021-03-27T13:00:03Z</time>
      </trkpt>
      <trkpt lat="45.6577" lon="6.81593">
        <ele>2231.8</ele>
        <time>2021-03-27T13:00:04Z</time>
      </trkpt>
      <trkpt lat="45.65771" lon="6.81593">
        <ele>2231.8</ele>
        <time>2021-03-27T13:00:05Z</time>
      </trkpt>
      <trkpt lat="45.65771" lon="6.81593">
        <ele>2231.8</ele>
        <time>2021-03-27T13:00:06Z</time>
      </trkpt>
      <trkpt lat="45.65772" lon="6.81592">
        <ele>2231.8</ele>
        <time>2021-03-27T13:00:07Z</time>
      </trkpt>
      <trkpt lat="45.65772" lon="6.81592">
        <ele>2231.8</ele>
        <time>2021-03-27T13:00:08Z</time>
      </trkpt>
      <trkpt lat="45.65773" lon="6.81592">
        <ele>2231.8</ele>
        <time>2021-03-27T13:00:09Z</time>
      </trkpt>
      <trkpt lat="45.65773" lon="6.81592">
        <ele>2232.8</ele>
        <time>2021-03-27T13:00:10Z</time>
      </trkpt>
      <trkpt lat="45.65773" lon="6.81591">
        <ele>2232.8</ele>
        <time>2021-03-27T13:00:11Z</time>
      </trkpt>
      <trkpt lat="45.65774" lon="6.81591">
        <ele>2232.8</ele>
        <time>2021-03-27T13:00:12Z</time>
      </trkpt>
      <trkpt lat="45.65774" lon="6.81591">
        <ele>2232.8</ele>
        <time>2021-03-27T13:00:13Z</time>
      </trkpt>
      <trkpt lat="45.65775" lon="6.81591">
        <ele>2232.8</ele>
        <time>2021-03-27T13:00:14Z</time>
      </trkpt>
      <trkpt lat="45.65776" lon="6.8159">
        <ele>2232.8</ele>
        <time>2021-03-27T13:00:15Z</time>
      </trkpt>
      <trkpt lat="45.65776" lon="6.8159">
        <ele>2232.8</ele>
        <time>2021-03-27T13:00:16Z</time>
      </trkpt>
      <trkpt lat="45.65777" lon="6.8159">
        <ele>2232.8</ele>
        <time>2021-03-27T13:00:17Z</time>
      </trkpt>
      <trkpt lat="45.65777" lon="6.81589">
        <ele>2232.8</ele>
        <time>2021-03-27T13:00:18Z</time>
      </trkpt>
      <trkpt lat="45.65778" lon="6.81589">
        <ele>2232.8</ele>
        <time>2021-03-27T13:00:19Z</time>
      </trkpt>
      <trkpt lat="45.65778" lon="6.81588">
        <ele>2232.8</ele>
        <time>2021-03-27T13:00:20Z</time>
      </trkpt>
      <trkpt lat="45.65779" lon="6.81588">
        <ele>2232.8</ele>
        <time>2021-03-27T13:00:21Z</time>
      </trkpt>
      <trkpt lat="45.65779" lon="6.81588">
        <ele>2233.9</ele>
        <time>2021-03-27T13:00:22Z</time>
      </trkpt>
      <trkpt lat="45.6578" lon="6.81587">
        <ele>2233.9</ele>
        <time>2021-03-27T13:00:23Z</time>
      </trkpt>
      <trkpt lat="45.65781" lon="6.81587">
        <ele>2233.9</ele>
        <time>2021-03-27T13:00:24Z</time>
      </trkpt>
      <trkpt lat="45.65781" lon="6.81587">
        <ele>2233.9</ele>
        <time>2021-03-27T13:00:25Z</time>
      </trkpt>
      <trkpt lat="45.65782" lon="6.81586">
        <ele>2235</ele>
        <time>2021-03-27T13:00:26Z</time>
      </trkpt>
      <trkpt lat="45.65782" lon="6.81585">
        <ele>2234.1</ele>
        <time>2021-03-27T13:00:27Z</time>
      </trkpt>
      <trkpt lat="45.65782" lon="6.81585">
        <ele>2234.1</ele>
        <time>2021-03-27T13:00:28Z</time>
      </trkpt>
      <trkpt lat="45.65783" lon="6.81585">
        <ele>2234.1</ele>
        <time>2021-03-27T13:00:29Z</time>
      </trkpt>
      <trkpt lat="45.65783" lon="6.81584">
        <ele>2234.1</ele>
        <time>2021-03-27T13:00:30Z</time>
      </trkpt>
      <trkpt lat="45.65783" lon="6.81584">
        <ele>2234.1</ele>
        <time>2021-03-27T13:00:31Z</time>
      </trkpt>
      <trkpt lat="45.65783" lon="6.81583">
        <ele>2234.1</ele>
        <time>2021-03-27T13:00:32Z</time>
      </trkpt>
      <trkpt lat="45.65784" lon="6.81583">
        <ele>2234.1</ele>
        <time>2021-03-27T13:00:33Z</time>
      </trkpt>
      <trkpt lat="45.65784" lon="6.81583">
        <ele>2234.1</ele>
        <time>2021-03-27T13:00:34Z</time>
      </trkpt>
      <trkpt lat="45.65785" lon="6.81583">
        <ele>2235.2</ele>
        <time>2021-03-27T13:00:35Z</time>
      </trkpt>
      <trkpt lat="45.65786" lon="6.81583">
        <ele>2235.2</ele>
        <time>2021-03-27T13:00:36Z</time>
      </trkpt>
      <trkpt lat="45.65787" lon="6.81584">
        <ele>2235.2</ele>
        <time>2021-03-27T13:00:37Z</time>
      </trkpt>
      <trkpt lat="45.65788" lon="6.81585">
        <ele>2235.2</ele>
        <time>2021-03-27T13:00:38Z</time>
      </trkpt>
      <trkpt lat="45.65788" lon="6.81585">
        <ele>2236.4</ele>
        <time>2021-03-27T13:00:39Z</time>
      </trkpt>
      <trkpt lat="45.65788" lon="6.81586">
        <ele>2237.3</ele>
        <time>2021-03-27T13:00:40Z</time>
      </trkpt>
      <trkpt lat="45.65788" lon="6.81588">
        <ele>2237.3</ele>
        <time>2021-03-27T13:00:41Z</time>
      </trkpt>
      <trkpt lat="45.65788" lon="6.81589">
        <ele>2236.1</ele>
        <time>2021-03-27T13:00:42Z</time>
      </trkpt>
      <trkpt lat="45.65788" lon="6.8159">
        <ele>2237.3</ele>
        <time>2021-03-27T13:00:43Z</time>
      </trkpt>
      <trkpt lat="45.65788" lon="6.81591">
        <ele>2237</ele>
        <time>2021-03-27T13:00:44Z</time>
      </trkpt>
      <trkpt lat="45.65788" lon="6.81592">
        <ele>2238.1</ele>
        <time>2021-03-27T13:00:45Z</time>
      </trkpt>
      <trkpt lat="45.65788" lon="6.81593">
        <ele>2238.1</ele>
        <time>2021-03-27T13:00:46Z</time>
      </trkpt>
      <trkpt lat="45.65788" lon="6.81594">
        <ele>2238.1</ele>
        <time>2021-03-27T13:00:47Z</time>
      </trkpt>
      <trkpt lat="45.65789" lon="6.81595">
        <ele>2239</ele>
        <time>2021-03-27T13:00:48Z</time>
      </trkpt>
      <trkpt lat="45.65789" lon="6.81596">
        <ele>2239</ele>
        <time>2021-03-27T13:00:49Z</time>
      </trkpt>
      <trkpt lat="45.65789" lon="6.81598">
        <ele>2239</ele>
        <time>2021-03-27T13:00:50Z</time>
      </trkpt>
      <trkpt lat="45.65789" lon="6.81599">
        <ele>2239.8</ele>
        <time>2021-03-27T13:00:51Z</time>
      </trkpt>
      <trkpt lat="45.65789" lon="6.816">
        <ele>2239.8</ele>
        <time>2021-03-27T13:00:52Z</time>
      </trkpt>
      <trkpt lat="45.65789" lon="6.81601">
        <ele>2239.8</ele>
        <time>2021-03-27T13:00:53Z</time>
      </trkpt>
      <trkpt lat="45.65789" lon="6.81602">
        <ele>2239.8</ele>
        <time>2021-03-27T13:00:54Z</time>
      </trkpt>
      <trkpt lat="45.6579" lon="6.81603">
        <ele>2240.6</ele>
        <time>2021-03-27T13:00:55Z</time>
      </trkpt>
      <trkpt lat="45.6579" lon="6.81605">
        <ele>2240.6</ele>
        <time>2021-03-27T13:00:56Z</time>
      </trkpt>
      <trkpt lat="45.6579" lon="6.81605">
        <ele>2240.6</ele>
        <time>2021-03-27T13:00:57Z</time>
      </trkpt>
      <trkpt lat="45.6579" lon="6.81606">
        <ele>2240.6</ele>
        <time>2021-03-27T13:00:58Z</time>
      </trkpt>
      <trkpt lat="45.6579" lon="6.81607">
        <ele>2240.6</ele>
        <time>2021-03-27T13:00:59Z</time>
      </trkpt>
      <trkpt lat="45.65789" lon="6.81608">
        <ele>2241.5</ele>
        <time>2021-03-27T13:01:00Z</time>
      </trkpt>
      <trkpt lat="45.65789" lon="6.81609">
        <ele>2241.5</ele>
        <time>2021-03-27T13:01:01Z</time>
      </trkpt>
      <trkpt lat="45.65788" lon="6.81609">
        <ele>2241.5</ele>
        <time>2021-03-27T13:01:02Z</time>
      </trkpt>
      <trkpt lat="45.65788" lon="6.8161">
        <ele>2240.6</ele>
        <time>2021-03-27T13:01:03Z</time>
      </trkpt>
      <trkpt lat="45.65787" lon="6.81611">
        <ele>2240.6</ele>
        <time>2021-03-27T13:01:04Z</time>
      </trkpt>
      <trkpt lat="45.65787" lon="6.81612">
        <ele>2240.6</ele>
        <time>2021-03-27T13:01:05Z</time>
      </trkpt>
      <trkpt lat="45.65787" lon="6.81612">
        <ele>2241.6</ele>
        <time>2021-03-27T13:01:06Z</time>
      </trkpt>
      <trkpt lat="45.65786" lon="6.81613">
        <ele>2241.6</ele>
        <time>2021-03-27T13:01:07Z</time>
      </trkpt>
      <trkpt lat="45.65786" lon="6.81614">
        <ele>2241.6</ele>
        <time>2021-03-27T13:01:08Z</time>
      </trkpt>
      <trkpt lat="45.65786" lon="6.81615">
        <ele>2241.6</ele>
        <time>2021-03-27T13:01:09Z</time>
      </trkpt>
      <trkpt lat="45.65785" lon="6.81616">
        <ele>2241.6</ele>
        <time>2021-03-27T13:01:10Z</time>
      </trkpt>
      <trkpt lat="45.65785" lon="6.81616">
        <ele>2241.7</ele>
        <time>2021-03-27T13:01:11Z</time>
      </trkpt>
      <trkpt lat="45.65784" lon="6.81617">
        <ele>2241.7</ele>
        <time>2021-03-27T13:01:12Z</time>
      </trkpt>
      <trkpt lat="45.65784" lon="6.81618">
        <ele>2241.7</ele>
        <time>2021-03-27T13:01:13Z</time>
      </trkpt>
      <trkpt lat="45.65783" lon="6.81619">
        <ele>2241.7</ele>
        <time>2021-03-27T13:01:14Z</time>
      </trkpt>
      <trkpt lat="45.65783" lon="6.8162">
        <ele>2241.7</ele>
        <time>2021-03-27T13:01:15Z</time>
      </trkpt>
      <trkpt lat="45.65783" lon="6.8162">
        <ele>2242.9</ele>
        <time>2021-03-27T13:01:16Z</time>
      </trkpt>
      <trkpt lat="45.65783" lon="6.81621">
        <ele>2242.9</ele>
        <time>2021-03-27T13:01:17Z</time>
      </trkpt>
      <trkpt lat="45.65782" lon="6.81622">
        <ele>2242.9</ele>
        <time>2021-03-27T13:01:18Z</time>
      </trkpt>
      <trkpt lat="45.65782" lon="6.81622">
        <ele>2242.9</ele>
        <time>2021-03-27T13:01:19Z</time>
      </trkpt>
      <trkpt lat="45.65782" lon="6.81623">
        <ele>2242.9</ele>
        <time>2021-03-27T13:01:20Z</time>
      </trkpt>
      <trkpt lat="45.65782" lon="6.81624">
        <ele>2242</ele>
        <time>2021-03-27T13:01:21Z</time>
      </trkpt>
      <trkpt lat="45.65781" lon="6.81624">
        <ele>2242</ele>
        <time>2021-03-27T13:01:22Z</time>
      </trkpt>
      <trkpt lat="45.65781" lon="6.81625">
        <ele>2243.2</ele>
        <time>2021-03-27T13:01:23Z</time>
      </trkpt>
      <trkpt lat="45.65781" lon="6.81626">
        <ele>2243.2</ele>
        <time>2021-03-27T13:01:24Z</time>
      </trkpt>
      <trkpt lat="45.65781" lon="6.81627">
        <ele>2243.2</ele>
        <time>2021-03-27T13:01:25Z</time>
      </trkpt>
      <trkpt lat="45.6578" lon="6.81627">
        <ele>2243.2</ele>
        <time>2021-03-27T13:01:26Z</time>
      </trkpt>
      <trkpt lat="45.6578" lon="6.81628">
        <ele>2243.2</ele>
        <time>2021-03-27T13:01:27Z</time>
      </trkpt>
      <trkpt lat="45.6578" lon="6.81629">
        <ele>2243.2</ele>
        <time>2021-03-27T13:01:28Z</time>
      </trkpt>
      <trkpt lat="45.65779" lon="6.81629">
        <ele>2244.4</ele>
        <time>2021-03-27T13:01:29Z</time>
      </trkpt>
      <trkpt lat="45.65779" lon="6.8163">
        <ele>2244.4</ele>
        <time>2021-03-27T13:01:30Z</time>
      </trkpt>
      <trkpt lat="45.65779" lon="6.81631">
        <ele>2243.6</ele>
        <time>2021-03-27T13:01:31Z</time>
      </trkpt>
      <trkpt lat="45.65778" lon="6.81631">
        <ele>2243.6</ele>
        <time>2021-03-27T13:01:32Z</time>
      </trkpt>
      <trkpt lat="45.65778" lon="6.81632">
        <ele>2243.6</ele>
        <time>2021-03-27T13:01:33Z</time>
      </trkpt>
      <trkpt lat="45.65777" lon="6.81633">
        <ele>2243.6</ele>
        <time>2021-03-27T13:01:34Z</time>
      </trkpt>
      <trkpt lat="45.65777" lon="6.81634">
        <ele>2244.8</ele>
        <time>2021-03-27T13:01:35Z</time>
      </trkpt>
      <trkpt lat="45.65776" lon="6.81634">
        <ele>2244.8</ele>
        <time>2021-03-27T13:01:36Z</time>
      </trkpt>
      <trkpt lat="45.65776" lon="6.81635">
        <ele>2244.8</ele>
        <time>2021-03-27T13:01:37Z</time>
      </trkpt>
      <trkpt lat="45.65776" lon="6.81636">
        <ele>2244.8</ele>
        <time>2021-03-27T13:01:38Z</time>
      </trkpt>
      <trkpt lat="45.65776" lon="6.81637">
        <ele>2244</ele>
        <time>2021-03-27T13:01:39Z</time>
      </trkpt>
      <trkpt lat="45.65775" lon="6.81637">
        <ele>2245.2</ele>
        <time>2021-03-27T13:01:40Z</time>
      </trkpt>
      <trkpt lat="45.65775" lon="6.81638">
        <ele>2245.2</ele>
        <time>2021-03-27T13:01:41Z</time>
      </trkpt>
      <trkpt lat="45.65775" lon="6.81639">
        <ele>2245.2</ele>
        <time>2021-03-27T13:01:42Z</time>
      </trkpt>
      <trkpt lat="45.65775" lon="6.81639">
        <ele>2245.2</ele>
        <time>2021-03-27T13:01:43Z</time>
      </trkpt>
      <trkpt lat="45.65774" lon="6.8164">
        <ele>2245.2</ele>
        <time>2021-03-27T13:01:44Z</time>
      </trkpt>
      <trkpt lat="45.65774" lon="6.8164">
        <ele>2245.2</ele>
        <time>2021-03-27T13:01:45Z</time>
      </trkpt>
      <trkpt lat="45.65774" lon="6.81641">
        <ele>2245.2</ele>
        <time>2021-03-27T13:01:46Z</time>
      </trkpt>
      <trkpt lat="45.65774" lon="6.81641">
        <ele>2245.2</ele>
        <time>2021-03-27T13:01:47Z</time>
      </trkpt>
      <trkpt lat="45.65773" lon="6.81642">
        <ele>2246.5</ele>
        <time>2021-03-27T13:01:48Z</time>
      </trkpt>
      <trkpt lat="45.65773" lon="6.81643">
        <ele>2245.7</ele>
        <time>2021-03-27T13:01:49Z</time>
      </trkpt>
      <trkpt lat="45.65772" lon="6.81643">
        <ele>2245.7</ele>
        <time>2021-03-27T13:01:50Z</time>
      </trkpt>
      <trkpt lat="45.65772" lon="6.81644">
        <ele>2245.7</ele>
        <time>2021-03-27T13:01:51Z</time>
      </trkpt>
      <trkpt lat="45.65772" lon="6.81644">
        <ele>2245.7</ele>
        <time>2021-03-27T13:01:52Z</time>
      </trkpt>
      <trkpt lat="45.65773" lon="6.81644">
        <ele>2246.5</ele>
        <time>2021-03-27T13:01:53Z</time>
      </trkpt>
      <trkpt lat="45.65773" lon="6.81645">
        <ele>2246.5</ele>
        <time>2021-03-27T13:01:54Z</time>
      </trkpt>
      <trkpt lat="45.65774" lon="6.81645">
        <ele>2246.5</ele>
        <time>2021-03-27T13:01:55Z</time>
      </trkpt>
      <trkpt lat="45.65774" lon="6.81645">
        <ele>2246.5</ele>
        <time>2021-03-27T13:01:56Z</time>
      </trkpt>
      <trkpt lat="45.65774" lon="6.81645">
        <ele>2246.5</ele>
        <time>2021-03-27T13:01:57Z</time>
      </trkpt>
      <trkpt lat="45.65775" lon="6.81645">
        <ele>2246.5</ele>
        <time>2021-03-27T13:01:58Z</time>
      </trkpt>
      <trkpt lat="45.65775" lon="6.81645">
        <ele>2246.5</ele>
        <time>2021-03-27T13:01:59Z</time>
      </trkpt>
      <trkpt lat="45.65776" lon="6.81645">
        <ele>2246.5</ele>
        <time>2021-03-27T13:02:00Z</time>
      </trkpt>
      <trkpt lat="45.65776" lon="6.81645">
        <ele>2247.3</ele>
        <time>2021-03-27T13:02:01Z</time>
      </trkpt>
      <trkpt lat="45.65776" lon="6.81645">
        <ele>2247.3</ele>
        <time>2021-03-27T13:02:02Z</time>
      </trkpt>
      <trkpt lat="45.65777" lon="6.81646">
        <ele>2247.3</ele>
        <time>2021-03-27T13:02:03Z</time>
      </trkpt>
      <trkpt lat="45.65777" lon="6.81646">
        <ele>2247.3</ele>
        <time>2021-03-27T13:02:04Z</time>
      </trkpt>
      <trkpt lat="45.65777" lon="6.81646">
        <ele>2248.5</ele>
        <time>2021-03-27T13:02:05Z</time>
      </trkpt>
      <trkpt lat="45.65778" lon="6.81647">
        <ele>2248.5</ele>
        <time>2021-03-27T13:02:06Z</time>
      </trkpt>
      <trkpt lat="45.65778" lon="6.81647">
        <ele>2248.5</ele>
        <time>2021-03-27T13:02:07Z</time>
      </trkpt>
      <trkpt lat="45.65778" lon="6.81647">
        <ele>2248.5</ele>
        <time>2021-03-27T13:02:08Z</time>
      </trkpt>
      <trkpt lat="45.65779" lon="6.81648">
        <ele>2248.5</ele>
        <time>2021-03-27T13:02:09Z</time>
      </trkpt>
      <trkpt lat="45.65779" lon="6.81648">
        <ele>2249.3</ele>
        <time>2021-03-27T13:02:10Z</time>
      </trkpt>
      <trkpt lat="45.65779" lon="6.81649">
        <ele>2249.3</ele>
        <time>2021-03-27T13:02:11Z</time>
      </trkpt>
      <trkpt lat="45.6578" lon="6.81649">
        <ele>2249.3</ele>
        <time>2021-03-27T13:02:12Z</time>
      </trkpt>
      <trkpt lat="45.6578" lon="6.81649">
        <ele>2249.3</ele>
        <time>2021-03-27T13:02:13Z</time>
      </trkpt>
      <trkpt lat="45.65781" lon="6.8165">
        <ele>2249.3</ele>
        <time>2021-03-27T13:02:14Z</time>
      </trkpt>
      <trkpt lat="45.65781" lon="6.8165">
        <ele>2249.3</ele>
        <time>2021-03-27T13:02:15Z</time>
      </trkpt>
      <trkpt lat="45.65782" lon="6.8165">
        <ele>2249.3</ele>
        <time>2021-03-27T13:02:16Z</time>
      </trkpt>
      <trkpt lat="45.65782" lon="6.8165">
        <ele>2250.2</ele>
        <time>2021-03-27T13:02:17Z</time>
      </trkpt>
      <trkpt lat="45.65782" lon="6.8165">
        <ele>2251.3</ele>
        <time>2021-03-27T13:02:18Z</time>
      </trkpt>
      <trkpt lat="45.65783" lon="6.81651">
        <ele>2251.3</ele>
        <time>2021-03-27T13:02:19Z</time>
      </trkpt>
      <trkpt lat="45.65783" lon="6.81651">
        <ele>2251.3</ele>
        <time>2021-03-27T13:02:20Z</time>
      </trkpt>
      <trkpt lat="45.65784" lon="6.81651">
        <ele>2251.3</ele>
        <time>2021-03-27T13:02:21Z</time>
      </trkpt>
      <trkpt lat="45.65784" lon="6.81652">
        <ele>2251.3</ele>
        <time>2021-03-27T13:02:22Z</time>
      </trkpt>
      <trkpt lat="45.65784" lon="6.81652">
        <ele>2251.3</ele>
        <time>2021-03-27T13:02:23Z</time>
      </trkpt>
      <trkpt lat="45.65785" lon="6.81653">
        <ele>2251.3</ele>
        <time>2021-03-27T13:02:24Z</time>
      </trkpt>
      <trkpt lat="45.65785" lon="6.81653">
        <ele>2251.3</ele>
        <time>2021-03-27T13:02:25Z</time>
      </trkpt>
      <trkpt lat="45.65785" lon="6.81654">
        <ele>2252.2</ele>
        <time>2021-03-27T13:02:26Z</time>
      </trkpt>
      <trkpt lat="45.65785" lon="6.81654">
        <ele>2252.2</ele>
        <time>2021-03-27T13:02:27Z</time>
      </trkpt>
      <trkpt lat="45.65785" lon="6.81655">
        <ele>2253.4</ele>
        <time>2021-03-27T13:02:28Z</time>
      </trkpt>
      <trkpt lat="45.65786" lon="6.81655">
        <ele>2253.4</ele>
        <time>2021-03-27T13:02:29Z</time>
      </trkpt>
      <trkpt lat="45.65786" lon="6.81656">
        <ele>2253.4</ele>
        <time>2021-03-27T13:02:30Z</time>
      </trkpt>
      <trkpt lat="45.65785" lon="6.81657">
        <ele>2253.4</ele>
        <time>2021-03-27T13:02:31Z</time>
      </trkpt>
      <trkpt lat="45.65785" lon="6.81658">
        <ele>2253.4</ele>
        <time>2021-03-27T13:02:32Z</time>
      </trkpt>
      <trkpt lat="45.65785" lon="6.81659">
        <ele>2252.5</ele>
        <time>2021-03-27T13:02:33Z</time>
      </trkpt>
      <trkpt lat="45.65784" lon="6.81659">
        <ele>2253.8</ele>
        <time>2021-03-27T13:02:34Z</time>
      </trkpt>
      <trkpt lat="45.65784" lon="6.8166">
        <ele>2253.8</ele>
        <time>2021-03-27T13:02:35Z</time>
      </trkpt>
      <trkpt lat="45.65783" lon="6.81661">
        <ele>2253.8</ele>
        <time>2021-03-27T13:02:36Z</time>
      </trkpt>
      <trkpt lat="45.65782" lon="6.81661">
        <ele>2253.8</ele>
        <time>2021-03-27T13:02:37Z</time>
      </trkpt>
      <trkpt lat="45.65782" lon="6.81662">
        <ele>2252.9</ele>
        <time>2021-03-27T13:02:38Z</time>
      </trkpt>
      <trkpt lat="45.65781" lon="6.81662">
        <ele>2252.9</ele>
        <time>2021-03-27T13:02:39Z</time>
      </trkpt>
      <trkpt lat="45.6578" lon="6.81663">
        <ele>2252.9</ele>
        <time>2021-03-27T13:02:40Z</time>
      </trkpt>
      <trkpt lat="45.6578" lon="6.81663">
        <ele>2254.2</ele>
        <time>2021-03-27T13:02:41Z</time>
      </trkpt>
      <trkpt lat="45.65779" lon="6.81664">
        <ele>2254.2</ele>
        <time>2021-03-27T13:02:42Z</time>
      </trkpt>
      <trkpt lat="45.65779" lon="6.81664">
        <ele>2253.3</ele>
        <time>2021-03-27T13:02:43Z</time>
      </trkpt>
      <trkpt lat="45.65778" lon="6.81665">
        <ele>2253.3</ele>
        <time>2021-03-27T13:02:44Z</time>
      </trkpt>
      <trkpt lat="45.65778" lon="6.81666">
        <ele>2253.3</ele>
        <time>2021-03-27T13:02:45Z</time>
      </trkpt>
      <trkpt lat="45.65777" lon="6.81666">
        <ele>2253.3</ele>
        <time>2021-03-27T13:02:46Z</time>
      </trkpt>
      <trkpt lat="45.65776" lon="6.81667">
        <ele>2253.3</ele>
        <time>2021-03-27T13:02:47Z</time>
      </trkpt>
      <trkpt lat="45.65776" lon="6.81668">
        <ele>2254.6</ele>
        <time>2021-03-27T13:02:48Z</time>
      </trkpt>
      <trkpt lat="45.65775" lon="6.81669">
        <ele>2253.8</ele>
        <time>2021-03-27T13:02:49Z</time>
      </trkpt>
      <trkpt lat="45.65775" lon="6.81669">
        <ele>2253.8</ele>
        <time>2021-03-27T13:02:50Z</time>
      </trkpt>
      <trkpt lat="45.65774" lon="6.8167">
        <ele>2253.8</ele>
        <time>2021-03-27T13:02:51Z</time>
      </trkpt>
      <trkpt lat="45.65774" lon="6.81671">
        <ele>2253.8</ele>
        <time>2021-03-27T13:02:52Z</time>
      </trkpt>
      <trkpt lat="45.65773" lon="6.81671">
        <ele>2253.8</ele>
        <time>2021-03-27T13:02:53Z</time>
      </trkpt>
      <trkpt lat="45.65773" lon="6.81672">
        <ele>2254.3</ele>
        <time>2021-03-27T13:02:54Z</time>
      </trkpt>
      <trkpt lat="45.65772" lon="6.81672">
        <ele>2254.3</ele>
        <time>2021-03-27T13:02:55Z</time>
      </trkpt>
      <trkpt lat="45.65772" lon="6.81673">
        <ele>2254.3</ele>
        <time>2021-03-27T13:02:56Z</time>
      </trkpt>
      <trkpt lat="45.65771" lon="6.81674">
        <ele>2254.3</ele>
        <time>2021-03-27T13:02:57Z</time>
      </trkpt>
      <trkpt lat="45.65771" lon="6.81674">
        <ele>2254.3</ele>
        <time>2021-03-27T13:02:58Z</time>
      </trkpt>
      <trkpt lat="45.6577" lon="6.81675">
        <ele>2254.3</ele>
        <time>2021-03-27T13:02:59Z</time>
      </trkpt>
      <trkpt lat="45.6577" lon="6.81676">
        <ele>2254.3</ele>
        <time>2021-03-27T13:03:00Z</time>
      </trkpt>
      <trkpt lat="45.6577" lon="6.81676">
        <ele>2254.9</ele>
        <time>2021-03-27T13:03:01Z</time>
      </trkpt>
      <trkpt lat="45.65769" lon="6.81677">
        <ele>2254.9</ele>
        <time>2021-03-27T13:03:02Z</time>
      </trkpt>
      <trkpt lat="45.65769" lon="6.81677">
        <ele>2254.9</ele>
        <time>2021-03-27T13:03:03Z</time>
      </trkpt>
      <trkpt lat="45.65769" lon="6.81677">
        <ele>2254.9</ele>
        <time>2021-03-27T13:03:04Z</time>
      </trkpt>
      <trkpt lat="45.65768" lon="6.81678">
        <ele>2254.9</ele>
        <time>2021-03-27T13:03:05Z</time>
      </trkpt>
      <trkpt lat="45.65768" lon="6.81679">
        <ele>2254.9</ele>
        <time>2021-03-27T13:03:06Z</time>
      </trkpt>
      <trkpt lat="45.65768" lon="6.81679">
        <ele>2254.9</ele>
        <time>2021-03-27T13:03:07Z</time>
      </trkpt>
      <trkpt lat="45.65767" lon="6.8168">
        <ele>2254.9</ele>
        <time>2021-03-27T13:03:08Z</time>
      </trkpt>
      <trkpt lat="45.65767" lon="6.81681">
        <ele>2256</ele>
        <time>2021-03-27T13:03:09Z</time>
      </trkpt>
      <trkpt lat="45.65767" lon="6.81681">
        <ele>2255.4</ele>
        <time>2021-03-27T13:03:10Z</time>
      </trkpt>
      <trkpt lat="45.65767" lon="6.81682">
        <ele>2255.4</ele>
        <time>2021-03-27T13:03:11Z</time>
      </trkpt>
      <trkpt lat="45.65766" lon="6.81682">
        <ele>2255.4</ele>
        <time>2021-03-27T13:03:12Z</time>
      </trkpt>
      <trkpt lat="45.65766" lon="6.81682">
        <ele>2255.4</ele>
        <time>2021-03-27T13:03:13Z</time>
      </trkpt>
      <trkpt lat="45.65766" lon="6.81683">
        <ele>2255.4</ele>
        <time>2021-03-27T13:03:14Z</time>
      </trkpt>
      <trkpt lat="45.65766" lon="6.81683">
        <ele>2255.4</ele>
        <time>2021-03-27T13:03:15Z</time>
      </trkpt>
      <trkpt lat="45.65765" lon="6.81683">
        <ele>2255.4</ele>
        <time>2021-03-27T13:03:16Z</time>
      </trkpt>
      <trkpt lat="45.65765" lon="6.81684">
        <ele>2255.4</ele>
        <time>2021-03-27T13:03:17Z</time>
      </trkpt>
      <trkpt lat="45.65765" lon="6.81684">
        <ele>2255.4</ele>
        <time>2021-03-27T13:03:18Z</time>
      </trkpt>
      <trkpt lat="45.65765" lon="6.81684">
        <ele>2255.4</ele>
        <time>2021-03-27T13:03:19Z</time>
      </trkpt>
      <trkpt lat="45.65765" lon="6.81685">
        <ele>2256.6</ele>
        <time>2021-03-27T13:03:20Z</time>
      </trkpt>
      <trkpt lat="45.65765" lon="6.81686">
        <ele>2256.6</ele>
        <time>2021-03-27T13:03:21Z</time>
      </trkpt>
      <trkpt lat="45.65765" lon="6.81686">
        <ele>2256.6</ele>
        <time>2021-03-27T13:03:22Z</time>
      </trkpt>
      <trkpt lat="45.65765" lon="6.81686">
        <ele>2256.6</ele>
        <time>2021-03-27T13:03:23Z</time>
      </trkpt>
      <trkpt lat="45.65766" lon="6.81687">
        <ele>2256.6</ele>
        <time>2021-03-27T13:03:24Z</time>
      </trkpt>
      <trkpt lat="45.65766" lon="6.81687">
        <ele>2256.6</ele>
        <time>2021-03-27T13:03:25Z</time>
      </trkpt>
      <trkpt lat="45.65766" lon="6.81687">
        <ele>2256.6</ele>
        <time>2021-03-27T13:03:26Z</time>
      </trkpt>
      <trkpt lat="45.65767" lon="6.81687">
        <ele>2256.6</ele>
        <time>2021-03-27T13:03:27Z</time>
      </trkpt>
      <trkpt lat="45.65767" lon="6.81688">
        <ele>2257.1</ele>
        <time>2021-03-27T13:03:28Z</time>
      </trkpt>
      <trkpt lat="45.65768" lon="6.81688">
        <ele>2257.1</ele>
        <time>2021-03-27T13:03:29Z</time>
      </trkpt>
      <trkpt lat="45.65768" lon="6.81688">
        <ele>2257.1</ele>
        <time>2021-03-27T13:03:30Z</time>
      </trkpt>
      <trkpt lat="45.65769" lon="6.81688">
        <ele>2257.1</ele>
        <time>2021-03-27T13:03:31Z</time>
      </trkpt>
      <trkpt lat="45.65769" lon="6.81689">
        <ele>2257.1</ele>
        <time>2021-03-27T13:03:32Z</time>
      </trkpt>
      <trkpt lat="45.6577" lon="6.81689">
        <ele>2258.2</ele>
        <time>2021-03-27T13:03:33Z</time>
      </trkpt>
      <trkpt lat="45.6577" lon="6.8169">
        <ele>2258.8</ele>
        <time>2021-03-27T13:03:34Z</time>
      </trkpt>
      <trkpt lat="45.6577" lon="6.8169">
        <ele>2258.8</ele>
        <time>2021-03-27T13:03:35Z</time>
      </trkpt>
      <trkpt lat="45.65771" lon="6.8169">
        <ele>2258.8</ele>
        <time>2021-03-27T13:03:36Z</time>
      </trkpt>
      <trkpt lat="45.65771" lon="6.81691">
        <ele>2258.8</ele>
        <time>2021-03-27T13:03:37Z</time>
      </trkpt>
      <trkpt lat="45.65771" lon="6.81691">
        <ele>2258.8</ele>
        <time>2021-03-27T13:03:38Z</time>
      </trkpt>
      <trkpt lat="45.65772" lon="6.81692">
        <ele>2258.8</ele>
        <time>2021-03-27T13:03:39Z</time>
      </trkpt>
      <trkpt lat="45.65772" lon="6.81692">
        <ele>2258.8</ele>
        <time>2021-03-27T13:03:40Z</time>
      </trkpt>
      <trkpt lat="45.65773" lon="6.81693">
        <ele>2258.8</ele>
        <time>2021-03-27T13:03:41Z</time>
      </trkpt>
      <trkpt lat="45.65773" lon="6.81693">
        <ele>2260.5</ele>
        <time>2021-03-27T13:03:42Z</time>
      </trkpt>
      <trkpt lat="45.65773" lon="6.81694">
        <ele>2260.5</ele>
        <time>2021-03-27T13:03:43Z</time>
      </trkpt>
      <trkpt lat="45.65774" lon="6.81694">
        <ele>2260.5</ele>
        <time>2021-03-27T13:03:44Z</time>
      </trkpt>
      <trkpt lat="45.65775" lon="6.81694">
        <ele>2260.5</ele>
        <time>2021-03-27T13:03:45Z</time>
      </trkpt>
      <trkpt lat="45.65775" lon="6.81695">
        <ele>2260.5</ele>
        <time>2021-03-27T13:03:46Z</time>
      </trkpt>
      <trkpt lat="45.65776" lon="6.81695">
        <ele>2260.5</ele>
        <time>2021-03-27T13:03:47Z</time>
      </trkpt>
      <trkpt lat="45.65776" lon="6.81696">
        <ele>2261.1</ele>
        <time>2021-03-27T13:03:48Z</time>
      </trkpt>
      <trkpt lat="45.65776" lon="6.81696">
        <ele>2261.1</ele>
        <time>2021-03-27T13:03:49Z</time>
      </trkpt>
      <trkpt lat="45.65777" lon="6.81697">
        <ele>2261.1</ele>
        <time>2021-03-27T13:03:50Z</time>
      </trkpt>
      <trkpt lat="45.65777" lon="6.81697">
        <ele>2262.2</ele>
        <time>2021-03-27T13:03:51Z</time>
      </trkpt>
      <trkpt lat="45.65778" lon="6.81698">
        <ele>2262.2</ele>
        <time>2021-03-27T13:03:52Z</time>
      </trkpt>
      <trkpt lat="45.65778" lon="6.81698">
        <ele>2262.2</ele>
        <time>2021-03-27T13:03:53Z</time>
      </trkpt>
      <trkpt lat="45.65778" lon="6.81699">
        <ele>2262.2</ele>
        <time>2021-03-27T13:03:54Z</time>
      </trkpt>
      <trkpt lat="45.65779" lon="6.81699">
        <ele>2262.2</ele>
        <time>2021-03-27T13:03:55Z</time>
      </trkpt>
      <trkpt lat="45.65779" lon="6.817">
        <ele>2262.8</ele>
        <time>2021-03-27T13:03:56Z</time>
      </trkpt>
      <trkpt lat="45.6578" lon="6.817">
        <ele>2262.8</ele>
        <time>2021-03-27T13:03:57Z</time>
      </trkpt>
      <trkpt lat="45.6578" lon="6.81701">
        <ele>2262.8</ele>
        <time>2021-03-27T13:03:58Z</time>
      </trkpt>
      <trkpt lat="45.6578" lon="6.81701">
        <ele>2262.8</ele>
        <time>2021-03-27T13:03:59Z</time>
      </trkpt>
      <trkpt lat="45.65781" lon="6.81702">
        <ele>2263.9</ele>
        <time>2021-03-27T13:04:00Z</time>
      </trkpt>
      <trkpt lat="45.65781" lon="6.81702">
        <ele>2264.1</ele>
        <time>2021-03-27T13:04:01Z</time>
      </trkpt>
      <trkpt lat="45.65781" lon="6.81703">
        <ele>2264.2</ele>
        <time>2021-03-27T13:04:02Z</time>
      </trkpt>
      <trkpt lat="45.65781" lon="6.81703">
        <ele>2264.3</ele>
        <time>2021-03-27T13:04:03Z</time>
      </trkpt>
      <trkpt lat="45.65781" lon="6.81704">
        <ele>2264.5</ele>
        <time>2021-03-27T13:04:04Z</time>
      </trkpt>
      <trkpt lat="45.65782" lon="6.81704">
        <ele>2264.6</ele>
        <time>2021-03-27T13:04:05Z</time>
      </trkpt>
      <trkpt lat="45.65782" lon="6.81704">
        <ele>2265.4</ele>
        <time>2021-03-27T13:04:06Z</time>
      </trkpt>
      <trkpt lat="45.65782" lon="6.81705">
        <ele>2265.5</ele>
        <time>2021-03-27T13:04:07Z</time>
      </trkpt>
      <trkpt lat="45.65783" lon="6.81705">
        <ele>2265.6</ele>
        <time>2021-03-27T13:04:08Z</time>
      </trkpt>
      <trkpt lat="45.65783" lon="6.81706">
        <ele>2265.8</ele>
        <time>2021-03-27T13:04:09Z</time>
      </trkpt>
      <trkpt lat="45.65784" lon="6.81706">
        <ele>2266.9</ele>
        <time>2021-03-27T13:04:10Z</time>
      </trkpt>
      <trkpt lat="45.65784" lon="6.81706">
        <ele>2267</ele>
        <time>2021-03-27T13:04:11Z</time>
      </trkpt>
      <trkpt lat="45.65784" lon="6.81707">
        <ele>2267.2</ele>
        <time>2021-03-27T13:04:12Z</time>
      </trkpt>
      <trkpt lat="45.65785" lon="6.81707">
        <ele>2267.8</ele>
        <time>2021-03-27T13:04:13Z</time>
      </trkpt>
      <trkpt lat="45.65785" lon="6.81707">
        <ele>2268</ele>
        <time>2021-03-27T13:04:14Z</time>
      </trkpt>
      <trkpt lat="45.65785" lon="6.81707">
        <ele>2268.1</ele>
        <time>2021-03-27T13:04:15Z</time>
      </trkpt>
      <trkpt lat="45.65785" lon="6.81708">
        <ele>2268.2</ele>
        <time>2021-03-27T13:04:16Z</time>
      </trkpt>
      <trkpt lat="45.65785" lon="6.81709">
        <ele>2268.4</ele>
        <time>2021-03-27T13:04:17Z</time>
      </trkpt>
      <trkpt lat="45.65785" lon="6.8171">
        <ele>2268</ele>
        <time>2021-03-27T13:04:18Z</time>
      </trkpt>
      <trkpt lat="45.65784" lon="6.81711">
        <ele>2269</ele>
        <time>2021-03-27T13:04:19Z</time>
      </trkpt>
      <trkpt lat="45.65784" lon="6.81712">
        <ele>2269.2</ele>
        <time>2021-03-27T13:04:20Z</time>
      </trkpt>
      <trkpt lat="45.65783" lon="6.81713">
        <ele>2269.3</ele>
        <time>2021-03-27T13:04:21Z</time>
      </trkpt>
      <trkpt lat="45.65783" lon="6.81713">
        <ele>2269.5</ele>
        <time>2021-03-27T13:04:22Z</time>
      </trkpt>
      <trkpt lat="45.65782" lon="6.81714">
        <ele>2269.6</ele>
        <time>2021-03-27T13:04:23Z</time>
      </trkpt>
      <trkpt lat="45.65782" lon="6.81714">
        <ele>2269.2</ele>
        <time>2021-03-27T13:04:24Z</time>
      </trkpt>
      <trkpt lat="45.65781" lon="6.81715">
        <ele>2270.4</ele>
        <time>2021-03-27T13:04:25Z</time>
      </trkpt>
      <trkpt lat="45.65781" lon="6.81716">
        <ele>2270.5</ele>
        <time>2021-03-27T13:04:26Z</time>
      </trkpt>
      <trkpt lat="45.6578" lon="6.81716">
        <ele>2270.6</ele>
        <time>2021-03-27T13:04:27Z</time>
      </trkpt>
      <trkpt lat="45.6578" lon="6.81717">
        <ele>2270.8</ele>
        <time>2021-03-27T13:04:28Z</time>
      </trkpt>
      <trkpt lat="45.65779" lon="6.81718">
        <ele>2270.9</ele>
        <time>2021-03-27T13:04:29Z</time>
      </trkpt>
      <trkpt lat="45.65779" lon="6.81718">
        <ele>2270.5</ele>
        <time>2021-03-27T13:04:30Z</time>
      </trkpt>
      <trkpt lat="45.65778" lon="6.81719">
        <ele>2271.8</ele>
        <time>2021-03-27T13:04:31Z</time>
      </trkpt>
      <trkpt lat="45.65778" lon="6.8172">
        <ele>2271.9</ele>
        <time>2021-03-27T13:04:32Z</time>
      </trkpt>
      <trkpt lat="45.65777" lon="6.81721">
        <ele>2272</ele>
        <time>2021-03-27T13:04:33Z</time>
      </trkpt>
      <trkpt lat="45.65776" lon="6.81721">
        <ele>2272.2</ele>
        <time>2021-03-27T13:04:34Z</time>
      </trkpt>
      <trkpt lat="45.65776" lon="6.81722">
        <ele>2272.3</ele>
        <time>2021-03-27T13:04:35Z</time>
      </trkpt>
      <trkpt lat="45.65775" lon="6.81722">
        <ele>2271.9</ele>
        <time>2021-03-27T13:04:36Z</time>
      </trkpt>
      <trkpt lat="45.65775" lon="6.81723">
        <ele>2272.1</ele>
        <time>2021-03-27T13:04:37Z</time>
      </trkpt>
      <trkpt lat="45.65774" lon="6.81724">
        <ele>2273.2</ele>
        <time>2021-03-27T13:04:38Z</time>
      </trkpt>
      <trkpt lat="45.65774" lon="6.81724">
        <ele>2273.3</ele>
        <time>2021-03-27T13:04:39Z</time>
      </trkpt>
      <trkpt lat="45.65773" lon="6.81725">
        <ele>2273.5</ele>
        <time>2021-03-27T13:04:40Z</time>
      </trkpt>
      <trkpt lat="45.65773" lon="6.81725">
        <ele>2273.6</ele>
        <time>2021-03-27T13:04:41Z</time>
      </trkpt>
      <trkpt lat="45.65773" lon="6.81726">
        <ele>2273.3</ele>
        <time>2021-03-27T13:04:42Z</time>
      </trkpt>
      <trkpt lat="45.65772" lon="6.81726">
        <ele>2273.4</ele>
        <time>2021-03-27T13:04:43Z</time>
      </trkpt>
      <trkpt lat="45.65772" lon="6.81727">
        <ele>2273.6</ele>
        <time>2021-03-27T13:04:44Z</time>
      </trkpt>
      <trkpt lat="45.65771" lon="6.81728">
        <ele>2274.6</ele>
        <time>2021-03-27T13:04:45Z</time>
      </trkpt>
      <trkpt lat="45.65771" lon="6.81728">
        <ele>2274.7</ele>
        <time>2021-03-27T13:04:46Z</time>
      </trkpt>
      <trkpt lat="45.6577" lon="6.81729">
        <ele>2274.9</ele>
        <time>2021-03-27T13:04:47Z</time>
      </trkpt>
      <trkpt lat="45.6577" lon="6.8173">
        <ele>2275</ele>
        <time>2021-03-27T13:04:48Z</time>
      </trkpt>
      <trkpt lat="45.65769" lon="6.8173">
        <ele>2274.8</ele>
        <time>2021-03-27T13:04:49Z</time>
      </trkpt>
      <trkpt lat="45.65769" lon="6.81731">
        <ele>2274.9</ele>
        <time>2021-03-27T13:04:50Z</time>
      </trkpt>
      <trkpt lat="45.65769" lon="6.81731">
        <ele>2275</ele>
        <time>2021-03-27T13:04:51Z</time>
      </trkpt>
      <trkpt lat="45.65768" lon="6.81732">
        <ele>2275.2</ele>
        <time>2021-03-27T13:04:52Z</time>
      </trkpt>
      <trkpt lat="45.65768" lon="6.81732">
        <ele>2276.1</ele>
        <time>2021-03-27T13:04:53Z</time>
      </trkpt>
      <trkpt lat="45.65768" lon="6.81733">
        <ele>2276.2</ele>
        <time>2021-03-27T13:04:54Z</time>
      </trkpt>
      <trkpt lat="45.65768" lon="6.81734">
        <ele>2276.4</ele>
        <time>2021-03-27T13:04:55Z</time>
      </trkpt>
      <trkpt lat="45.65767" lon="6.81735">
        <ele>2276.5</ele>
        <time>2021-03-27T13:04:56Z</time>
      </trkpt>
      <trkpt lat="45.65767" lon="6.81735">
        <ele>2276.6</ele>
        <time>2021-03-27T13:04:57Z</time>
      </trkpt>
      <trkpt lat="45.65767" lon="6.81736">
        <ele>2277.5</ele>
        <time>2021-03-27T13:04:58Z</time>
      </trkpt>
      <trkpt lat="45.65767" lon="6.81737">
        <ele>2277.3</ele>
        <time>2021-03-27T13:04:59Z</time>
      </trkpt>
      <trkpt lat="45.65767" lon="6.81738">
        <ele>2277.4</ele>
        <time>2021-03-27T13:05:00Z</time>
      </trkpt>
      <trkpt lat="45.65766" lon="6.81739">
        <ele>2277.5</ele>
        <time>2021-03-27T13:05:01Z</time>
      </trkpt>
      <trkpt lat="45.65766" lon="6.81739">
        <ele>2277.7</ele>
        <time>2021-03-27T13:05:02Z</time>
      </trkpt>
      <trkpt lat="45.65766" lon="6.8174">
        <ele>2277.8</ele>
        <time>2021-03-27T13:05:03Z</time>
      </trkpt>
      <trkpt lat="45.65766" lon="6.81741">
        <ele>2278.6</ele>
        <time>2021-03-27T13:05:04Z</time>
      </trkpt>
      <trkpt lat="45.65766" lon="6.81741">
        <ele>2278.8</ele>
        <time>2021-03-27T13:05:05Z</time>
      </trkpt>
      <trkpt lat="45.65766" lon="6.81742">
        <ele>2278.9</ele>
        <time>2021-03-27T13:05:06Z</time>
      </trkpt>
      <trkpt lat="45.65766" lon="6.81743">
        <ele>2279</ele>
        <time>2021-03-27T13:05:07Z</time>
      </trkpt>
      <trkpt lat="45.65766" lon="6.81744">
        <ele>2279.2</ele>
        <time>2021-03-27T13:05:08Z</time>
      </trkpt>
      <trkpt lat="45.65767" lon="6.81744">
        <ele>2279.3</ele>
        <time>2021-03-27T13:05:09Z</time>
      </trkpt>
      <trkpt lat="45.65767" lon="6.81744">
        <ele>2279.5</ele>
        <time>2021-03-27T13:05:10Z</time>
      </trkpt>
      <trkpt lat="45.65767" lon="6.81745">
        <ele>2280.8</ele>
        <time>2021-03-27T13:05:11Z</time>
      </trkpt>
      <trkpt lat="45.65767" lon="6.81745">
        <ele>2280.9</ele>
        <time>2021-03-27T13:05:12Z</time>
      </trkpt>
      <trkpt lat="45.65767" lon="6.81745">
        <ele>2281</ele>
        <time>2021-03-27T13:05:13Z</time>
      </trkpt>
      <trkpt lat="45.65767" lon="6.81745">
        <ele>2281.2</ele>
        <time>2021-03-27T13:05:14Z</time>
      </trkpt>
      <trkpt lat="45.65768" lon="6.81745">
        <ele>2281.3</ele>
        <time>2021-03-27T13:05:15Z</time>
      </trkpt>
      <trkpt lat="45.65768" lon="6.81744">
        <ele>2280.7</ele>
        <time>2021-03-27T13:05:16Z</time>
      </trkpt>
      <trkpt lat="45.65769" lon="6.81744">
        <ele>2280.9</ele>
        <time>2021-03-27T13:05:17Z</time>
      </trkpt>
      <trkpt lat="45.65769" lon="6.81744">
        <ele>2281</ele>
        <time>2021-03-27T13:05:18Z</time>
      </trkpt>
      <trkpt lat="45.65769" lon="6.81744">
        <ele>2281.2</ele>
        <time>2021-03-27T13:05:19Z</time>
      </trkpt>
      <trkpt lat="45.6577" lon="6.81743">
        <ele>2281.3</ele>
        <time>2021-03-27T13:05:20Z</time>
      </trkpt>
      <trkpt lat="45.6577" lon="6.81743">
        <ele>2281.9</ele>
        <time>2021-03-27T13:05:21Z</time>
      </trkpt>
      <trkpt lat="45.65771" lon="6.81743">
        <ele>2282</ele>
        <time>2021-03-27T13:05:22Z</time>
      </trkpt>
      <trkpt lat="45.65771" lon="6.81743">
        <ele>2282.1</ele>
        <time>2021-03-27T13:05:23Z</time>
      </trkpt>
      <trkpt lat="45.65772" lon="6.81743">
        <ele>2282.3</ele>
        <time>2021-03-27T13:05:24Z</time>
      </trkpt>
      <trkpt lat="45.65772" lon="6.81743">
        <ele>2282.4</ele>
        <time>2021-03-27T13:05:25Z</time>
      </trkpt>
      <trkpt lat="45.65773" lon="6.81742">
        <ele>2283</ele>
        <time>2021-03-27T13:05:26Z</time>
      </trkpt>
      <trkpt lat="45.65773" lon="6.81742">
        <ele>2283.2</ele>
        <time>2021-03-27T13:05:27Z</time>
      </trkpt>
      <trkpt lat="45.65774" lon="6.81742">
        <ele>2283.3</ele>
        <time>2021-03-27T13:05:28Z</time>
      </trkpt>
      <trkpt lat="45.65774" lon="6.81742">
        <ele>2283.4</ele>
        <time>2021-03-27T13:05:29Z</time>
      </trkpt>
      <trkpt lat="45.65775" lon="6.81742">
        <ele>2283.6</ele>
        <time>2021-03-27T13:05:30Z</time>
      </trkpt>
      <trkpt lat="45.65775" lon="6.81743">
        <ele>2283.7</ele>
        <time>2021-03-27T13:05:31Z</time>
      </trkpt>
      <trkpt lat="45.65775" lon="6.81743">
        <ele>2283.8</ele>
        <time>2021-03-27T13:05:32Z</time>
      </trkpt>
      <trkpt lat="45.65776" lon="6.81743">
        <ele>2284.5</ele>
        <time>2021-03-27T13:05:33Z</time>
      </trkpt>
      <trkpt lat="45.65776" lon="6.81743">
        <ele>2284.6</ele>
        <time>2021-03-27T13:05:34Z</time>
      </trkpt>
      <trkpt lat="45.65777" lon="6.81743">
        <ele>2284.8</ele>
        <time>2021-03-27T13:05:35Z</time>
      </trkpt>
      <trkpt lat="45.65777" lon="6.81743">
        <ele>2284.9</ele>
        <time>2021-03-27T13:05:36Z</time>
      </trkpt>
      <trkpt lat="45.65778" lon="6.81744">
        <ele>2285</ele>
        <time>2021-03-27T13:05:37Z</time>
      </trkpt>
      <trkpt lat="45.65778" lon="6.81744">
        <ele>2285.2</ele>
        <time>2021-03-27T13:05:38Z</time>
      </trkpt>
      <trkpt lat="45.65778" lon="6.81744">
        <ele>2285.3</ele>
        <time>2021-03-27T13:05:39Z</time>
      </trkpt>
      <trkpt lat="45.65779" lon="6.81744">
        <ele>2285.3</ele>
        <time>2021-03-27T13:05:40Z</time>
      </trkpt>
      <trkpt lat="45.65779" lon="6.81744">
        <ele>2285.8</ele>
        <time>2021-03-27T13:05:41Z</time>
      </trkpt>
      <trkpt lat="45.6578" lon="6.81745">
        <ele>2286.5</ele>
        <time>2021-03-27T13:05:42Z</time>
      </trkpt>
      <trkpt lat="45.6578" lon="6.81745">
        <ele>2286.5</ele>
        <time>2021-03-27T13:05:43Z</time>
      </trkpt>
      <trkpt lat="45.65781" lon="6.81746">
        <ele>2286.5</ele>
        <time>2021-03-27T13:05:44Z</time>
      </trkpt>
      <trkpt lat="45.65781" lon="6.81746">
        <ele>2286.5</ele>
        <time>2021-03-27T13:05:45Z</time>
      </trkpt>
      <trkpt lat="45.65782" lon="6.81747">
        <ele>2287</ele>
        <time>2021-03-27T13:05:46Z</time>
      </trkpt>
      <trkpt lat="45.65782" lon="6.81747">
        <ele>2287</ele>
        <time>2021-03-27T13:05:47Z</time>
      </trkpt>
      <trkpt lat="45.65783" lon="6.81747">
        <ele>2287</ele>
        <time>2021-03-27T13:05:48Z</time>
      </trkpt>
      <trkpt lat="45.65783" lon="6.81747">
        <ele>2287</ele>
        <time>2021-03-27T13:05:49Z</time>
      </trkpt>
      <trkpt lat="45.65784" lon="6.81748">
        <ele>2287</ele>
        <time>2021-03-27T13:05:50Z</time>
      </trkpt>
      <trkpt lat="45.65785" lon="6.81748">
        <ele>2287</ele>
        <time>2021-03-27T13:05:51Z</time>
      </trkpt>
      <trkpt lat="45.65785" lon="6.81748">
        <ele>2287.5</ele>
        <time>2021-03-27T13:05:52Z</time>
      </trkpt>
      <trkpt lat="45.65786" lon="6.81749">
        <ele>2287.5</ele>
        <time>2021-03-27T13:05:53Z</time>
      </trkpt>
      <trkpt lat="45.65786" lon="6.81749">
        <ele>2288.3</ele>
        <time>2021-03-27T13:05:54Z</time>
      </trkpt>
      <trkpt lat="45.65786" lon="6.8175">
        <ele>2288.3</ele>
        <time>2021-03-27T13:05:55Z</time>
      </trkpt>
      <trkpt lat="45.65787" lon="6.8175">
        <ele>2288.3</ele>
        <time>2021-03-27T13:05:56Z</time>
      </trkpt>
      <trkpt lat="45.65788" lon="6.81751">
        <ele>2288.3</ele>
        <time>2021-03-27T13:05:57Z</time>
      </trkpt>
      <trkpt lat="45.65788" lon="6.81751">
        <ele>2288.8</ele>
        <time>2021-03-27T13:05:58Z</time>
      </trkpt>
      <trkpt lat="45.65789" lon="6.81752">
        <ele>2288.8</ele>
        <time>2021-03-27T13:05:59Z</time>
      </trkpt>
      <trkpt lat="45.65789" lon="6.81752">
        <ele>2288.8</ele>
        <time>2021-03-27T13:06:00Z</time>
      </trkpt>
      <trkpt lat="45.6579" lon="6.81753">
        <ele>2288.8</ele>
        <time>2021-03-27T13:06:01Z</time>
      </trkpt>
      <trkpt lat="45.6579" lon="6.81754">
        <ele>2289.6</ele>
        <time>2021-03-27T13:06:02Z</time>
      </trkpt>
      <trkpt lat="45.6579" lon="6.81754">
        <ele>2289.6</ele>
        <time>2021-03-27T13:06:03Z</time>
      </trkpt>
      <trkpt lat="45.65791" lon="6.81755">
        <ele>2290.1</ele>
        <time>2021-03-27T13:06:04Z</time>
      </trkpt>
      <trkpt lat="45.65792" lon="6.81756">
        <ele>2290.1</ele>
        <time>2021-03-27T13:06:05Z</time>
      </trkpt>
      <trkpt lat="45.65792" lon="6.81756">
        <ele>2290.1</ele>
        <time>2021-03-27T13:06:06Z</time>
      </trkpt>
      <trkpt lat="45.65793" lon="6.81757">
        <ele>2290.1</ele>
        <time>2021-03-27T13:06:07Z</time>
      </trkpt>
      <trkpt lat="45.65793" lon="6.81757">
        <ele>2290.1</ele>
        <time>2021-03-27T13:06:08Z</time>
      </trkpt>
      <trkpt lat="45.65793" lon="6.81758">
        <ele>2290.9</ele>
        <time>2021-03-27T13:06:09Z</time>
      </trkpt>
      <trkpt lat="45.65794" lon="6.81759">
        <ele>2291.4</ele>
        <time>2021-03-27T13:06:10Z</time>
      </trkpt>
      <trkpt lat="45.65794" lon="6.81759">
        <ele>2291.4</ele>
        <time>2021-03-27T13:06:11Z</time>
      </trkpt>
      <trkpt lat="45.65795" lon="6.8176">
        <ele>2291.4</ele>
        <time>2021-03-27T13:06:12Z</time>
      </trkpt>
      <trkpt lat="45.65795" lon="6.8176">
        <ele>2291.4</ele>
        <time>2021-03-27T13:06:13Z</time>
      </trkpt>
      <trkpt lat="45.65795" lon="6.81761">
        <ele>2291.4</ele>
        <time>2021-03-27T13:06:14Z</time>
      </trkpt>
      <trkpt lat="45.65796" lon="6.81761">
        <ele>2291.4</ele>
        <time>2021-03-27T13:06:15Z</time>
      </trkpt>
      <trkpt lat="45.65797" lon="6.81762">
        <ele>2291.4</ele>
        <time>2021-03-27T13:06:16Z</time>
      </trkpt>
      <trkpt lat="45.65797" lon="6.81762">
        <ele>2292.7</ele>
        <time>2021-03-27T13:06:17Z</time>
      </trkpt>
      <trkpt lat="45.65798" lon="6.81762">
        <ele>2292.7</ele>
        <time>2021-03-27T13:06:18Z</time>
      </trkpt>
      <trkpt lat="45.65798" lon="6.81762">
        <ele>2292.7</ele>
        <time>2021-03-27T13:06:19Z</time>
      </trkpt>
      <trkpt lat="45.65798" lon="6.81763">
        <ele>2292.7</ele>
        <time>2021-03-27T13:06:20Z</time>
      </trkpt>
      <trkpt lat="45.65799" lon="6.81763">
        <ele>2292.7</ele>
        <time>2021-03-27T13:06:21Z</time>
      </trkpt>
      <trkpt lat="45.65799" lon="6.81764">
        <ele>2292.7</ele>
        <time>2021-03-27T13:06:22Z</time>
      </trkpt>
      <trkpt lat="45.658" lon="6.81764">
        <ele>2292.7</ele>
        <time>2021-03-27T13:06:23Z</time>
      </trkpt>
      <trkpt lat="45.658" lon="6.81764">
        <ele>2293.2</ele>
        <time>2021-03-27T13:06:24Z</time>
      </trkpt>
      <trkpt lat="45.658" lon="6.81765">
        <ele>2293.2</ele>
        <time>2021-03-27T13:06:25Z</time>
      </trkpt>
      <trkpt lat="45.65801" lon="6.81765">
        <ele>2293.2</ele>
        <time>2021-03-27T13:06:26Z</time>
      </trkpt>
      <trkpt lat="45.65801" lon="6.81765">
        <ele>2293.2</ele>
        <time>2021-03-27T13:06:27Z</time>
      </trkpt>
      <trkpt lat="45.65802" lon="6.81765">
        <ele>2293.2</ele>
        <time>2021-03-27T13:06:28Z</time>
      </trkpt>
      <trkpt lat="45.65802" lon="6.81766">
        <ele>2293.2</ele>
        <time>2021-03-27T13:06:29Z</time>
      </trkpt>
      <trkpt lat="45.65803" lon="6.81766">
        <ele>2293.8</ele>
        <time>2021-03-27T13:06:30Z</time>
      </trkpt>
      <trkpt lat="45.65803" lon="6.81766">
        <ele>2293.8</ele>
        <time>2021-03-27T13:06:31Z</time>
      </trkpt>
      <trkpt lat="45.65804" lon="6.81766">
        <ele>2293.8</ele>
        <time>2021-03-27T13:06:32Z</time>
      </trkpt>
      <trkpt lat="45.65804" lon="6.81766">
        <ele>2294.4</ele>
        <time>2021-03-27T13:06:33Z</time>
      </trkpt>
      <trkpt lat="45.65805" lon="6.81766">
        <ele>2294.4</ele>
        <time>2021-03-27T13:06:34Z</time>
      </trkpt>
      <trkpt lat="45.65805" lon="6.81766">
        <ele>2294.4</ele>
        <time>2021-03-27T13:06:35Z</time>
      </trkpt>
      <trkpt lat="45.65805" lon="6.81766">
        <ele>2294.4</ele>
        <time>2021-03-27T13:06:36Z</time>
      </trkpt>
      <trkpt lat="45.65806" lon="6.81767">
        <ele>2295.1</ele>
        <time>2021-03-27T13:06:37Z</time>
      </trkpt>
      <trkpt lat="45.65806" lon="6.81767">
        <ele>2295.1</ele>
        <time>2021-03-27T13:06:38Z</time>
      </trkpt>
      <trkpt lat="45.65807" lon="6.81767">
        <ele>2295.1</ele>
        <time>2021-03-27T13:06:39Z</time>
      </trkpt>
      <trkpt lat="45.65807" lon="6.81768">
        <ele>2295.1</ele>
        <time>2021-03-27T13:06:40Z</time>
      </trkpt>
      <trkpt lat="45.65808" lon="6.81768">
        <ele>2295.1</ele>
        <time>2021-03-27T13:06:41Z</time>
      </trkpt>
      <trkpt lat="45.65808" lon="6.81768">
        <ele>2295.1</ele>
        <time>2021-03-27T13:06:42Z</time>
      </trkpt>
      <trkpt lat="45.65808" lon="6.81768">
        <ele>2295.1</ele>
        <time>2021-03-27T13:06:43Z</time>
      </trkpt>
      <trkpt lat="45.65809" lon="6.81769">
        <ele>2295.1</ele>
        <time>2021-03-27T13:06:44Z</time>
      </trkpt>
      <trkpt lat="45.65809" lon="6.81769">
        <ele>2295.7</ele>
        <time>2021-03-27T13:06:45Z</time>
      </trkpt>
      <trkpt lat="45.6581" lon="6.81769">
        <ele>2295.7</ele>
        <time>2021-03-27T13:06:46Z</time>
      </trkpt>
      <trkpt lat="45.6581" lon="6.8177">
        <ele>2295.7</ele>
        <time>2021-03-27T13:06:47Z</time>
      </trkpt>
      <trkpt lat="45.65811" lon="6.8177">
        <ele>2295.7</ele>
        <time>2021-03-27T13:06:48Z</time>
      </trkpt>
      <trkpt lat="45.65811" lon="6.81771">
        <ele>2296.2</ele>
        <time>2021-03-27T13:06:49Z</time>
      </trkpt>
      <trkpt lat="45.65812" lon="6.81771">
        <ele>2296.2</ele>
        <time>2021-03-27T13:06:50Z</time>
      </trkpt>
      <trkpt lat="45.65812" lon="6.81772">
        <ele>2296.8</ele>
        <time>2021-03-27T13:06:51Z</time>
      </trkpt>
      <trkpt lat="45.65813" lon="6.81772">
        <ele>2296.8</ele>
        <time>2021-03-27T13:06:52Z</time>
      </trkpt>
      <trkpt lat="45.65813" lon="6.81772">
        <ele>2296.8</ele>
        <time>2021-03-27T13:06:53Z</time>
      </trkpt>
      <trkpt lat="45.65814" lon="6.81773">
        <ele>2296.8</ele>
        <time>2021-03-27T13:06:54Z</time>
      </trkpt>
      <trkpt lat="45.65814" lon="6.81773">
        <ele>2296.8</ele>
        <time>2021-03-27T13:06:55Z</time>
      </trkpt>
      <trkpt lat="45.65815" lon="6.81774">
        <ele>2297.4</ele>
        <time>2021-03-27T13:06:56Z</time>
      </trkpt>
      <trkpt lat="45.65816" lon="6.81774">
        <ele>2297.4</ele>
        <time>2021-03-27T13:06:57Z</time>
      </trkpt>
      <trkpt lat="45.65816" lon="6.81775">
        <ele>2297.4</ele>
        <time>2021-03-27T13:06:58Z</time>
      </trkpt>
      <trkpt lat="45.65817" lon="6.81775">
        <ele>2297.8</ele>
        <time>2021-03-27T13:06:59Z</time>
      </trkpt>
      <trkpt lat="45.65817" lon="6.81776">
        <ele>2297.8</ele>
        <time>2021-03-27T13:07:00Z</time>
      </trkpt>
      <trkpt lat="45.65818" lon="6.81776">
        <ele>2297.8</ele>
        <time>2021-03-27T13:07:01Z</time>
      </trkpt>
      <trkpt lat="45.65818" lon="6.81776">
        <ele>2298.3</ele>
        <time>2021-03-27T13:07:02Z</time>
      </trkpt>
      <trkpt lat="45.65819" lon="6.81777">
        <ele>2298.3</ele>
        <time>2021-03-27T13:07:03Z</time>
      </trkpt>
      <trkpt lat="45.6582" lon="6.81777">
        <ele>2298.3</ele>
        <time>2021-03-27T13:07:04Z</time>
      </trkpt>
      <trkpt lat="45.6582" lon="6.81778">
        <ele>2298.3</ele>
        <time>2021-03-27T13:07:05Z</time>
      </trkpt>
      <trkpt lat="45.6582" lon="6.81778">
        <ele>2298.3</ele>
        <time>2021-03-27T13:07:06Z</time>
      </trkpt>
      <trkpt lat="45.65821" lon="6.81778">
        <ele>2298.3</ele>
        <time>2021-03-27T13:07:07Z</time>
      </trkpt>
      <trkpt lat="45.65821" lon="6.81779">
        <ele>2298.9</ele>
        <time>2021-03-27T13:07:08Z</time>
      </trkpt>
      <trkpt lat="45.65821" lon="6.8178">
        <ele>2299.2</ele>
        <time>2021-03-27T13:07:09Z</time>
      </trkpt>
      <trkpt lat="45.65822" lon="6.8178">
        <ele>2299.2</ele>
        <time>2021-03-27T13:07:10Z</time>
      </trkpt>
      <trkpt lat="45.65822" lon="6.81781">
        <ele>2299.2</ele>
        <time>2021-03-27T13:07:11Z</time>
      </trkpt>
      <trkpt lat="45.65823" lon="6.81781">
        <ele>2299.2</ele>
        <time>2021-03-27T13:07:12Z</time>
      </trkpt>
      <trkpt lat="45.65823" lon="6.81782">
        <ele>2299.2</ele>
        <time>2021-03-27T13:07:13Z</time>
      </trkpt>
      <trkpt lat="45.65823" lon="6.81782">
        <ele>2299.2</ele>
        <time>2021-03-27T13:07:14Z</time>
      </trkpt>
      <trkpt lat="45.65823" lon="6.81782">
        <ele>2299.2</ele>
        <time>2021-03-27T13:07:15Z</time>
      </trkpt>
      <trkpt lat="45.65824" lon="6.81783">
        <ele>2299.2</ele>
        <time>2021-03-27T13:07:16Z</time>
      </trkpt>
      <trkpt lat="45.65824" lon="6.81784">
        <ele>2300.1</ele>
        <time>2021-03-27T13:07:17Z</time>
      </trkpt>
      <trkpt lat="45.65824" lon="6.81784">
        <ele>2300.1</ele>
        <time>2021-03-27T13:07:18Z</time>
      </trkpt>
      <trkpt lat="45.65825" lon="6.81785">
        <ele>2300.1</ele>
        <time>2021-03-27T13:07:19Z</time>
      </trkpt>
      <trkpt lat="45.65825" lon="6.81785">
        <ele>2300.1</ele>
        <time>2021-03-27T13:07:20Z</time>
      </trkpt>
      <trkpt lat="45.65826" lon="6.81786">
        <ele>2300.1</ele>
        <time>2021-03-27T13:07:21Z</time>
      </trkpt>
      <trkpt lat="45.65826" lon="6.81786">
        <ele>2300.1</ele>
        <time>2021-03-27T13:07:22Z</time>
      </trkpt>
      <trkpt lat="45.65827" lon="6.81787">
        <ele>2300.1</ele>
        <time>2021-03-27T13:07:23Z</time>
      </trkpt>
      <trkpt lat="45.65827" lon="6.81788">
        <ele>2301</ele>
        <time>2021-03-27T13:07:24Z</time>
      </trkpt>
      <trkpt lat="45.65827" lon="6.81789">
        <ele>2301</ele>
        <time>2021-03-27T13:07:25Z</time>
      </trkpt>
      <trkpt lat="45.65827" lon="6.8179">
        <ele>2301</ele>
        <time>2021-03-27T13:07:26Z</time>
      </trkpt>
      <trkpt lat="45.65827" lon="6.81792">
        <ele>2301</ele>
        <time>2021-03-27T13:07:27Z</time>
      </trkpt>
      <trkpt lat="45.65828" lon="6.81793">
        <ele>2301.2</ele>
        <time>2021-03-27T13:07:28Z</time>
      </trkpt>
      <trkpt lat="45.65828" lon="6.81794">
        <ele>2301.2</ele>
        <time>2021-03-27T13:07:29Z</time>
      </trkpt>
      <trkpt lat="45.65828" lon="6.81795">
        <ele>2301.2</ele>
        <time>2021-03-27T13:07:30Z</time>
      </trkpt>
      <trkpt lat="45.65828" lon="6.81796">
        <ele>2301.2</ele>
        <time>2021-03-27T13:07:31Z</time>
      </trkpt>
      <trkpt lat="45.65828" lon="6.81797">
        <ele>2301.3</ele>
        <time>2021-03-27T13:07:32Z</time>
      </trkpt>
      <trkpt lat="45.65828" lon="6.81798">
        <ele>2301.3</ele>
        <time>2021-03-27T13:07:33Z</time>
      </trkpt>
      <trkpt lat="45.65828" lon="6.81799">
        <ele>2301.3</ele>
        <time>2021-03-27T13:07:34Z</time>
      </trkpt>
      <trkpt lat="45.65828" lon="6.818">
        <ele>2301.3</ele>
        <time>2021-03-27T13:07:35Z</time>
      </trkpt>
      <trkpt lat="45.65828" lon="6.81801">
        <ele>2301.4</ele>
        <time>2021-03-27T13:07:36Z</time>
      </trkpt>
      <trkpt lat="45.65828" lon="6.81802">
        <ele>2301.4</ele>
        <time>2021-03-27T13:07:37Z</time>
      </trkpt>
      <trkpt lat="45.65829" lon="6.81803">
        <ele>2301.4</ele>
        <time>2021-03-27T13:07:38Z</time>
      </trkpt>
      <trkpt lat="45.65829" lon="6.81804">
        <ele>2301.4</ele>
        <time>2021-03-27T13:07:39Z</time>
      </trkpt>
      <trkpt lat="45.65829" lon="6.81805">
        <ele>2301.5</ele>
        <time>2021-03-27T13:07:40Z</time>
      </trkpt>
      <trkpt lat="45.65829" lon="6.81806">
        <ele>2301.5</ele>
        <time>2021-03-27T13:07:41Z</time>
      </trkpt>
      <trkpt lat="45.6583" lon="6.81807">
        <ele>2301.5</ele>
        <time>2021-03-27T13:07:42Z</time>
      </trkpt>
      <trkpt lat="45.6583" lon="6.81808">
        <ele>2302.3</ele>
        <time>2021-03-27T13:07:43Z</time>
      </trkpt>
      <trkpt lat="45.6583" lon="6.81809">
        <ele>2302.3</ele>
        <time>2021-03-27T13:07:44Z</time>
      </trkpt>
      <trkpt lat="45.65831" lon="6.8181">
        <ele>2302.3</ele>
        <time>2021-03-27T13:07:45Z</time>
      </trkpt>
      <trkpt lat="45.65831" lon="6.81811">
        <ele>2302.3</ele>
        <time>2021-03-27T13:07:46Z</time>
      </trkpt>
      <trkpt lat="45.65831" lon="6.81811">
        <ele>2302.3</ele>
        <time>2021-03-27T13:07:47Z</time>
      </trkpt>
      <trkpt lat="45.65831" lon="6.81812">
        <ele>2302.3</ele>
        <time>2021-03-27T13:07:48Z</time>
      </trkpt>
      <trkpt lat="45.65832" lon="6.81813">
        <ele>2302.3</ele>
        <time>2021-03-27T13:07:49Z</time>
      </trkpt>
      <trkpt lat="45.65832" lon="6.81814">
        <ele>2302.2</ele>
        <time>2021-03-27T13:07:50Z</time>
      </trkpt>
      <trkpt lat="45.65832" lon="6.81814">
        <ele>2302.2</ele>
        <time>2021-03-27T13:07:51Z</time>
      </trkpt>
      <trkpt lat="45.65832" lon="6.81815">
        <ele>2302.2</ele>
        <time>2021-03-27T13:07:52Z</time>
      </trkpt>
      <trkpt lat="45.65833" lon="6.81816">
        <ele>2302.2</ele>
        <time>2021-03-27T13:07:53Z</time>
      </trkpt>
      <trkpt lat="45.65833" lon="6.81817">
        <ele>2303.1</ele>
        <time>2021-03-27T13:07:54Z</time>
      </trkpt>
      <trkpt lat="45.65834" lon="6.81817">
        <ele>2303.1</ele>
        <time>2021-03-27T13:07:55Z</time>
      </trkpt>
      <trkpt lat="45.65834" lon="6.81818">
        <ele>2303</ele>
        <time>2021-03-27T13:07:56Z</time>
      </trkpt>
      <trkpt lat="45.65835" lon="6.81818">
        <ele>2303</ele>
        <time>2021-03-27T13:07:57Z</time>
      </trkpt>
      <trkpt lat="45.65835" lon="6.81819">
        <ele>2303</ele>
        <time>2021-03-27T13:07:58Z</time>
      </trkpt>
      <trkpt lat="45.65835" lon="6.8182">
        <ele>2303</ele>
        <time>2021-03-27T13:07:59Z</time>
      </trkpt>
      <trkpt lat="45.65835" lon="6.81821">
        <ele>2303</ele>
        <time>2021-03-27T13:08:00Z</time>
      </trkpt>
      <trkpt lat="45.65836" lon="6.81822">
        <ele>2303</ele>
        <time>2021-03-27T13:08:01Z</time>
      </trkpt>
      <trkpt lat="45.65836" lon="6.81823">
        <ele>2302.9</ele>
        <time>2021-03-27T13:08:02Z</time>
      </trkpt>
      <trkpt lat="45.65836" lon="6.81823">
        <ele>2303.8</ele>
        <time>2021-03-27T13:08:03Z</time>
      </trkpt>
      <trkpt lat="45.65836" lon="6.81824">
        <ele>2303.8</ele>
        <time>2021-03-27T13:08:04Z</time>
      </trkpt>
      <trkpt lat="45.65837" lon="6.81825">
        <ele>2303.8</ele>
        <time>2021-03-27T13:08:05Z</time>
      </trkpt>
      <trkpt lat="45.65837" lon="6.81825">
        <ele>2303.8</ele>
        <time>2021-03-27T13:08:06Z</time>
      </trkpt>
      <trkpt lat="45.65837" lon="6.81825">
        <ele>2303.8</ele>
        <time>2021-03-27T13:08:07Z</time>
      </trkpt>
      <trkpt lat="45.65838" lon="6.81826">
        <ele>2303.8</ele>
        <time>2021-03-27T13:08:08Z</time>
      </trkpt>
      <trkpt lat="45.65838" lon="6.81826">
        <ele>2303.8</ele>
        <time>2021-03-27T13:08:09Z</time>
      </trkpt>
      <trkpt lat="45.65839" lon="6.81825">
        <ele>2303.8</ele>
        <time>2021-03-27T13:08:10Z</time>
      </trkpt>
      <trkpt lat="45.65839" lon="6.81825">
        <ele>2304.7</ele>
        <time>2021-03-27T13:08:11Z</time>
      </trkpt>
      <trkpt lat="45.65839" lon="6.81825">
        <ele>2304.7</ele>
        <time>2021-03-27T13:08:12Z</time>
      </trkpt>
      <trkpt lat="45.6584" lon="6.81825">
        <ele>2304.7</ele>
        <time>2021-03-27T13:08:13Z</time>
      </trkpt>
      <trkpt lat="45.6584" lon="6.81825">
        <ele>2304.7</ele>
        <time>2021-03-27T13:08:14Z</time>
      </trkpt>
      <trkpt lat="45.65841" lon="6.81824">
        <ele>2304.7</ele>
        <time>2021-03-27T13:08:15Z</time>
      </trkpt>
      <trkpt lat="45.65842" lon="6.81824">
        <ele>2304.7</ele>
        <time>2021-03-27T13:08:16Z</time>
      </trkpt>
      <trkpt lat="45.65842" lon="6.81823">
        <ele>2305.5</ele>
        <time>2021-03-27T13:08:17Z</time>
      </trkpt>
      <trkpt lat="45.65843" lon="6.81823">
        <ele>2305.5</ele>
        <time>2021-03-27T13:08:18Z</time>
      </trkpt>
      <trkpt lat="45.65843" lon="6.81822">
        <ele>2305.5</ele>
        <time>2021-03-27T13:08:19Z</time>
      </trkpt>
      <trkpt lat="45.65844" lon="6.81822">
        <ele>2305.7</ele>
        <time>2021-03-27T13:08:20Z</time>
      </trkpt>
      <trkpt lat="45.65844" lon="6.81822">
        <ele>2305.8</ele>
        <time>2021-03-27T13:08:21Z</time>
      </trkpt>
      <trkpt lat="45.65844" lon="6.81822">
        <ele>2305.9</ele>
        <time>2021-03-27T13:08:22Z</time>
      </trkpt>
      <trkpt lat="45.65845" lon="6.81823">
        <ele>2306.1</ele>
        <time>2021-03-27T13:08:23Z</time>
      </trkpt>
      <trkpt lat="45.65845" lon="6.81823">
        <ele>2306.3</ele>
        <time>2021-03-27T13:08:24Z</time>
      </trkpt>
      <trkpt lat="45.65846" lon="6.81823">
        <ele>2306.5</ele>
        <time>2021-03-27T13:08:25Z</time>
      </trkpt>
      <trkpt lat="45.65847" lon="6.81823">
        <ele>2306.8</ele>
        <time>2021-03-27T13:08:26Z</time>
      </trkpt>
      <trkpt lat="45.65847" lon="6.81824">
        <ele>2307</ele>
        <time>2021-03-27T13:08:27Z</time>
      </trkpt>
      <trkpt lat="45.65848" lon="6.81824">
        <ele>2307.2</ele>
        <time>2021-03-27T13:08:28Z</time>
      </trkpt>
      <trkpt lat="45.65848" lon="6.81824">
        <ele>2307.3</ele>
        <time>2021-03-27T13:08:29Z</time>
      </trkpt>
      <trkpt lat="45.65849" lon="6.81823">
        <ele>2307.5</ele>
        <time>2021-03-27T13:08:30Z</time>
      </trkpt>
      <trkpt lat="45.6585" lon="6.81823">
        <ele>2307.7</ele>
        <time>2021-03-27T13:08:31Z</time>
      </trkpt>
      <trkpt lat="45.6585" lon="6.81823">
        <ele>2307.9</ele>
        <time>2021-03-27T13:08:32Z</time>
      </trkpt>
      <trkpt lat="45.65851" lon="6.81823">
        <ele>2308.1</ele>
        <time>2021-03-27T13:08:33Z</time>
      </trkpt>
      <trkpt lat="45.65851" lon="6.81823">
        <ele>2308.3</ele>
        <time>2021-03-27T13:08:34Z</time>
      </trkpt>
      <trkpt lat="45.65852" lon="6.81823">
        <ele>2308.5</ele>
        <time>2021-03-27T13:08:35Z</time>
      </trkpt>
      <trkpt lat="45.65852" lon="6.81824">
        <ele>2308.7</ele>
        <time>2021-03-27T13:08:36Z</time>
      </trkpt>
      <trkpt lat="45.65853" lon="6.81824">
        <ele>2308.8</ele>
        <time>2021-03-27T13:08:37Z</time>
      </trkpt>
      <trkpt lat="45.65853" lon="6.81824">
        <ele>2308.9</ele>
        <time>2021-03-27T13:08:38Z</time>
      </trkpt>
      <trkpt lat="45.65854" lon="6.81824">
        <ele>2309.1</ele>
        <time>2021-03-27T13:08:39Z</time>
      </trkpt>
      <trkpt lat="45.65854" lon="6.81825">
        <ele>2309.3</ele>
        <time>2021-03-27T13:08:40Z</time>
      </trkpt>
      <trkpt lat="45.65855" lon="6.81825">
        <ele>2309.5</ele>
        <time>2021-03-27T13:08:41Z</time>
      </trkpt>
      <trkpt lat="45.65855" lon="6.81825">
        <ele>2309.7</ele>
        <time>2021-03-27T13:08:42Z</time>
      </trkpt>
      <trkpt lat="45.65856" lon="6.81824">
        <ele>2309.9</ele>
        <time>2021-03-27T13:08:43Z</time>
      </trkpt>
      <trkpt lat="45.65857" lon="6.81825">
        <ele>2310.2</ele>
        <time>2021-03-27T13:08:44Z</time>
      </trkpt>
      <trkpt lat="45.65857" lon="6.81825">
        <ele>2310.3</ele>
        <time>2021-03-27T13:08:45Z</time>
      </trkpt>
      <trkpt lat="45.65858" lon="6.81825">
        <ele>2310.5</ele>
        <time>2021-03-27T13:08:46Z</time>
      </trkpt>
      <trkpt lat="45.65858" lon="6.81825">
        <ele>2310.6</ele>
        <time>2021-03-27T13:08:47Z</time>
      </trkpt>
      <trkpt lat="45.65859" lon="6.81824">
        <ele>2310.8</ele>
        <time>2021-03-27T13:08:48Z</time>
      </trkpt>
      <trkpt lat="45.65859" lon="6.81824">
        <ele>2311</ele>
        <time>2021-03-27T13:08:49Z</time>
      </trkpt>
      <trkpt lat="45.6586" lon="6.81824">
        <ele>2311.2</ele>
        <time>2021-03-27T13:08:50Z</time>
      </trkpt>
      <trkpt lat="45.65861" lon="6.81824">
        <ele>2311.4</ele>
        <time>2021-03-27T13:08:51Z</time>
      </trkpt>
      <trkpt lat="45.65861" lon="6.81824">
        <ele>2311.6</ele>
        <time>2021-03-27T13:08:52Z</time>
      </trkpt>
      <trkpt lat="45.65862" lon="6.81824">
        <ele>2311.8</ele>
        <time>2021-03-27T13:08:53Z</time>
      </trkpt>
      <trkpt lat="45.65862" lon="6.81824">
        <ele>2311.9</ele>
        <time>2021-03-27T13:08:54Z</time>
      </trkpt>
      <trkpt lat="45.65863" lon="6.81823">
        <ele>2312.1</ele>
        <time>2021-03-27T13:08:55Z</time>
      </trkpt>
      <trkpt lat="45.65864" lon="6.81823">
        <ele>2312.7</ele>
        <time>2021-03-27T13:08:56Z</time>
      </trkpt>
      <trkpt lat="45.65866" lon="6.81823">
        <ele>2313.1</ele>
        <time>2021-03-27T13:08:57Z</time>
      </trkpt>
      <trkpt lat="45.65867" lon="6.81823">
        <ele>2313.5</ele>
        <time>2021-03-27T13:08:58Z</time>
      </trkpt>
      <trkpt lat="45.65868" lon="6.81823">
        <ele>2313.8</ele>
        <time>2021-03-27T13:08:59Z</time>
      </trkpt>
      <trkpt lat="45.6587" lon="6.81822">
        <ele>2314.2</ele>
        <time>2021-03-27T13:09:00Z</time>
      </trkpt>
      <trkpt lat="45.65871" lon="6.81822">
        <ele>2314.6</ele>
        <time>2021-03-27T13:09:21Z</time>
      </trkpt>
      <trkpt lat="45.65872" lon="6.81822">
        <ele>2315</ele>
        <time>2021-03-27T13:09:22Z</time>
      </trkpt>
      <trkpt lat="45.65874" lon="6.81822">
        <ele>2315.4</ele>
        <time>2021-03-27T13:09:23Z</time>
      </trkpt>
      <trkpt lat="45.65875" lon="6.81822">
        <ele>2315.8</ele>
        <time>2021-03-27T13:09:24Z</time>
      </trkpt>
      <trkpt lat="45.65876" lon="6.81822">
        <ele>2316.1</ele>
        <time>2021-03-27T13:09:25Z</time>
      </trkpt>
      <trkpt lat="45.65878" lon="6.81821">
        <ele>2316.5</ele>
        <time>2021-03-27T13:09:26Z</time>
      </trkpt>
      <trkpt lat="45.65878" lon="6.81821">
        <ele>2316.6</ele>
        <time>2021-03-27T13:09:27Z</time>
      </trkpt>
      <trkpt lat="45.65878" lon="6.81821">
        <ele>2316.8</ele>
        <time>2021-03-27T13:09:28Z</time>
      </trkpt>
      <trkpt lat="45.65879" lon="6.81821">
        <ele>2316.9</ele>
        <time>2021-03-27T13:09:29Z</time>
      </trkpt>
      <trkpt lat="45.65879" lon="6.81821">
        <ele>2317</ele>
        <time>2021-03-27T13:09:30Z</time>
      </trkpt>
      <trkpt lat="45.6588" lon="6.81821">
        <ele>2317.1</ele>
        <time>2021-03-27T13:09:31Z</time>
      </trkpt>
      <trkpt lat="45.6588" lon="6.81822">
        <ele>2317.3</ele>
        <time>2021-03-27T13:09:32Z</time>
      </trkpt>
      <trkpt lat="45.65881" lon="6.81822">
        <ele>2317.4</ele>
        <time>2021-03-27T13:09:33Z</time>
      </trkpt>
      <trkpt lat="45.65881" lon="6.81822">
        <ele>2317.5</ele>
        <time>2021-03-27T13:09:34Z</time>
      </trkpt>
      <trkpt lat="45.65881" lon="6.81822">
        <ele>2317.6</ele>
        <time>2021-03-27T13:09:35Z</time>
      </trkpt>
      <trkpt lat="45.65882" lon="6.81822">
        <ele>2317.7</ele>
        <time>2021-03-27T13:09:36Z</time>
      </trkpt>
      <trkpt lat="45.65882" lon="6.81822">
        <ele>2317.8</ele>
        <time>2021-03-27T13:09:37Z</time>
      </trkpt>
      <trkpt lat="45.65882" lon="6.81822">
        <ele>2317.9</ele>
        <time>2021-03-27T13:09:38Z</time>
      </trkpt>
      <trkpt lat="45.65883" lon="6.81822">
        <ele>2318</ele>
        <time>2021-03-27T13:09:39Z</time>
      </trkpt>
      <trkpt lat="45.65883" lon="6.81823">
        <ele>2318.2</ele>
        <time>2021-03-27T13:09:40Z</time>
      </trkpt>
      <trkpt lat="45.65883" lon="6.81824">
        <ele>2318.5</ele>
        <time>2021-03-27T13:09:41Z</time>
      </trkpt>
      <trkpt lat="45.65882" lon="6.81827">
        <ele>2319</ele>
        <time>2021-03-27T13:09:42Z</time>
      </trkpt>
      <trkpt lat="45.65882" lon="6.81828">
        <ele>2319.2</ele>
        <time>2021-03-27T13:09:43Z</time>
      </trkpt>
      <trkpt lat="45.65882" lon="6.81829">
        <ele>2319.4</ele>
        <time>2021-03-27T13:09:44Z</time>
      </trkpt>
      <trkpt lat="45.65881" lon="6.8183">
        <ele>2319.7</ele>
        <time>2021-03-27T13:09:45Z</time>
      </trkpt>
      <trkpt lat="45.65881" lon="6.81831">
        <ele>2319.9</ele>
        <time>2021-03-27T13:09:46Z</time>
      </trkpt>
      <trkpt lat="45.65881" lon="6.81832">
        <ele>2320.1</ele>
        <time>2021-03-27T13:09:47Z</time>
      </trkpt>
      <trkpt lat="45.65881" lon="6.81832">
        <ele>2320.3</ele>
        <time>2021-03-27T13:09:48Z</time>
      </trkpt>
      <trkpt lat="45.65881" lon="6.81834">
        <ele>2320.6</ele>
        <time>2021-03-27T13:09:49Z</time>
      </trkpt>
      <trkpt lat="45.65881" lon="6.81835">
        <ele>2320.8</ele>
        <time>2021-03-27T13:09:50Z</time>
      </trkpt>
      <trkpt lat="45.65881" lon="6.81836">
        <ele>2321.1</ele>
        <time>2021-03-27T13:09:51Z</time>
      </trkpt>
      <trkpt lat="45.65881" lon="6.81837">
        <ele>2321.3</ele>
        <time>2021-03-27T13:09:52Z</time>
      </trkpt>
      <trkpt lat="45.65881" lon="6.81838">
        <ele>2321.5</ele>
        <time>2021-03-27T13:09:53Z</time>
      </trkpt>
      <trkpt lat="45.65881" lon="6.81839">
        <ele>2321.7</ele>
        <time>2021-03-27T13:09:54Z</time>
      </trkpt>
      <trkpt lat="45.65881" lon="6.81839">
        <ele>2321.9</ele>
        <time>2021-03-27T13:09:55Z</time>
      </trkpt>
      <trkpt lat="45.65881" lon="6.8184">
        <ele>2322</ele>
        <time>2021-03-27T13:09:56Z</time>
      </trkpt>
      <trkpt lat="45.65881" lon="6.81841">
        <ele>2322.2</ele>
        <time>2021-03-27T13:09:57Z</time>
      </trkpt>
      <trkpt lat="45.65881" lon="6.81842">
        <ele>2322.4</ele>
        <time>2021-03-27T13:09:58Z</time>
      </trkpt>
      <trkpt lat="45.65882" lon="6.81842">
        <ele>2322.6</ele>
        <time>2021-03-27T13:09:59Z</time>
      </trkpt>
      <trkpt lat="45.65882" lon="6.81842">
        <ele>2322.7</ele>
        <time>2021-03-27T13:10:00Z</time>
      </trkpt>
      <trkpt lat="45.65882" lon="6.81842">
        <ele>2322.8</ele>
        <time>2021-03-27T13:10:01Z</time>
      </trkpt>
      <trkpt lat="45.65883" lon="6.81842">
        <ele>2323</ele>
        <time>2021-03-27T13:10:02Z</time>
      </trkpt>
      <trkpt lat="45.65883" lon="6.81842">
        <ele>2323.1</ele>
        <time>2021-03-27T13:10:03Z</time>
      </trkpt>
      <trkpt lat="45.65884" lon="6.81842">
        <ele>2323.3</ele>
        <time>2021-03-27T13:10:04Z</time>
      </trkpt>
      <trkpt lat="45.65885" lon="6.81841">
        <ele>2323.7</ele>
        <time>2021-03-27T13:10:05Z</time>
      </trkpt>
      <trkpt lat="45.65886" lon="6.81841">
        <ele>2323.9</ele>
        <time>2021-03-27T13:10:06Z</time>
      </trkpt>
      <trkpt lat="45.65886" lon="6.8184">
        <ele>2324.1</ele>
        <time>2021-03-27T13:10:10Z</time>
      </trkpt>
      <trkpt lat="45.65887" lon="6.8184">
        <ele>2324.4</ele>
        <time>2021-03-27T13:10:11Z</time>
      </trkpt>
      <trkpt lat="45.65887" lon="6.81839">
        <ele>2324.6</ele>
        <time>2021-03-27T13:10:12Z</time>
      </trkpt>
      <trkpt lat="45.65888" lon="6.81839">
        <ele>2324.8</ele>
        <time>2021-03-27T13:10:13Z</time>
      </trkpt>
      <trkpt lat="45.65889" lon="6.81838">
        <ele>2325</ele>
        <time>2021-03-27T13:10:14Z</time>
      </trkpt>
      <trkpt lat="45.65889" lon="6.81838">
        <ele>2325.1</ele>
        <time>2021-03-27T13:10:15Z</time>
      </trkpt>
      <trkpt lat="45.65889" lon="6.81838">
        <ele>2325.3</ele>
        <time>2021-03-27T13:10:16Z</time>
      </trkpt>
      <trkpt lat="45.6589" lon="6.81837">
        <ele>2325.4</ele>
        <time>2021-03-27T13:10:17Z</time>
      </trkpt>
      <trkpt lat="45.6589" lon="6.81837">
        <ele>2325.5</ele>
        <time>2021-03-27T13:10:18Z</time>
      </trkpt>
      <trkpt lat="45.6589" lon="6.81837">
        <ele>2325.7</ele>
        <time>2021-03-27T13:10:19Z</time>
      </trkpt>
      <trkpt lat="45.65891" lon="6.81836">
        <ele>2325.8</ele>
        <time>2021-03-27T13:10:20Z</time>
      </trkpt>
      <trkpt lat="45.65891" lon="6.81836">
        <ele>2326</ele>
        <time>2021-03-27T13:10:21Z</time>
      </trkpt>
      <trkpt lat="45.65892" lon="6.81836">
        <ele>2326.1</ele>
        <time>2021-03-27T13:10:22Z</time>
      </trkpt>
      <trkpt lat="45.65892" lon="6.81836">
        <ele>2326.3</ele>
        <time>2021-03-27T13:10:23Z</time>
      </trkpt>
      <trkpt lat="45.65893" lon="6.81836">
        <ele>2326.4</ele>
        <time>2021-03-27T13:10:24Z</time>
      </trkpt>
      <trkpt lat="45.65893" lon="6.81835">
        <ele>2326.6</ele>
        <time>2021-03-27T13:10:25Z</time>
      </trkpt>
      <trkpt lat="45.65894" lon="6.81835">
        <ele>2326.7</ele>
        <time>2021-03-27T13:10:26Z</time>
      </trkpt>
      <trkpt lat="45.65894" lon="6.81835">
        <ele>2326.9</ele>
        <time>2021-03-27T13:10:27Z</time>
      </trkpt>
      <trkpt lat="45.65895" lon="6.81835">
        <ele>2327.1</ele>
        <time>2021-03-27T13:10:28Z</time>
      </trkpt>
      <trkpt lat="45.65895" lon="6.81835">
        <ele>2327.3</ele>
        <time>2021-03-27T13:10:29Z</time>
      </trkpt>
      <trkpt lat="45.65896" lon="6.81835">
        <ele>2327.5</ele>
        <time>2021-03-27T13:10:30Z</time>
      </trkpt>
      <trkpt lat="45.65896" lon="6.81834">
        <ele>2327.7</ele>
        <time>2021-03-27T13:10:31Z</time>
      </trkpt>
      <trkpt lat="45.65897" lon="6.81834">
        <ele>2327.8</ele>
        <time>2021-03-27T13:10:32Z</time>
      </trkpt>
      <trkpt lat="45.65898" lon="6.81834">
        <ele>2328</ele>
        <time>2021-03-27T13:10:33Z</time>
      </trkpt>
      <trkpt lat="45.65898" lon="6.81834">
        <ele>2328.3</ele>
        <time>2021-03-27T13:10:34Z</time>
      </trkpt>
      <trkpt lat="45.65899" lon="6.81834">
        <ele>2328.5</ele>
        <time>2021-03-27T13:10:35Z</time>
      </trkpt>
      <trkpt lat="45.65899" lon="6.81834">
        <ele>2328.7</ele>
        <time>2021-03-27T13:10:36Z</time>
      </trkpt>
      <trkpt lat="45.659" lon="6.81834">
        <ele>2328.8</ele>
        <time>2021-03-27T13:10:37Z</time>
      </trkpt>
      <trkpt lat="45.659" lon="6.81834">
        <ele>2329</ele>
        <time>2021-03-27T13:10:38Z</time>
      </trkpt>
      <trkpt lat="45.65901" lon="6.81834">
        <ele>2329.2</ele>
        <time>2021-03-27T13:10:39Z</time>
      </trkpt>
      <trkpt lat="45.65901" lon="6.81834">
        <ele>2329.3</ele>
        <time>2021-03-27T13:10:40Z</time>
      </trkpt>
      <trkpt lat="45.65902" lon="6.81835">
        <ele>2329.5</ele>
        <time>2021-03-27T13:10:41Z</time>
      </trkpt>
      <trkpt lat="45.65903" lon="6.81835">
        <ele>2329.7</ele>
        <time>2021-03-27T13:10:42Z</time>
      </trkpt>
      <trkpt lat="45.65903" lon="6.81835">
        <ele>2329.9</ele>
        <time>2021-03-27T13:10:43Z</time>
      </trkpt>
      <trkpt lat="45.65904" lon="6.81835">
        <ele>2330.1</ele>
        <time>2021-03-27T13:10:44Z</time>
      </trkpt>
      <trkpt lat="45.65905" lon="6.81834">
        <ele>2330.3</ele>
        <time>2021-03-27T13:10:45Z</time>
      </trkpt>
      <trkpt lat="45.65905" lon="6.81834">
        <ele>2330.5</ele>
        <time>2021-03-27T13:10:46Z</time>
      </trkpt>
      <trkpt lat="45.65906" lon="6.81834">
        <ele>2330.6</ele>
        <time>2021-03-27T13:10:47Z</time>
      </trkpt>
      <trkpt lat="45.65906" lon="6.81834">
        <ele>2330.8</ele>
        <time>2021-03-27T13:10:48Z</time>
      </trkpt>
      <trkpt lat="45.65906" lon="6.81834">
        <ele>2330.9</ele>
        <time>2021-03-27T13:10:49Z</time>
      </trkpt>
      <trkpt lat="45.65907" lon="6.81834">
        <ele>2331</ele>
        <time>2021-03-27T13:10:50Z</time>
      </trkpt>
      <trkpt lat="45.65907" lon="6.81834">
        <ele>2331.1</ele>
        <time>2021-03-27T13:10:51Z</time>
      </trkpt>
      <trkpt lat="45.65908" lon="6.81834">
        <ele>2331.3</ele>
        <time>2021-03-27T13:10:52Z</time>
      </trkpt>
      <trkpt lat="45.65908" lon="6.81834">
        <ele>2331.4</ele>
        <time>2021-03-27T13:10:53Z</time>
      </trkpt>
      <trkpt lat="45.65908" lon="6.81835">
        <ele>2331.5</ele>
        <time>2021-03-27T13:10:54Z</time>
      </trkpt>
      <trkpt lat="45.65909" lon="6.81835">
        <ele>2331.7</ele>
        <time>2021-03-27T13:10:55Z</time>
      </trkpt>
      <trkpt lat="45.65909" lon="6.81835">
        <ele>2331.9</ele>
        <time>2021-03-27T13:10:56Z</time>
      </trkpt>
      <trkpt lat="45.6591" lon="6.81835">
        <ele>2332</ele>
        <time>2021-03-27T13:10:57Z</time>
      </trkpt>
      <trkpt lat="45.6591" lon="6.81835">
        <ele>2332.2</ele>
        <time>2021-03-27T13:10:58Z</time>
      </trkpt>
      <trkpt lat="45.6591" lon="6.81835">
        <ele>2332.2</ele>
        <time>2021-03-27T13:10:59Z</time>
      </trkpt>
      <trkpt lat="45.6591" lon="6.81835">
        <ele>2332.2</ele>
        <time>2021-03-27T13:11:00Z</time>
      </trkpt>
      <trkpt lat="45.65911" lon="6.81835">
        <ele>2332.4</ele>
        <time>2021-03-27T13:11:01Z</time>
      </trkpt>
      <trkpt lat="45.65911" lon="6.81835">
        <ele>2332.5</ele>
        <time>2021-03-27T13:11:02Z</time>
      </trkpt>
      <trkpt lat="45.65912" lon="6.81835">
        <ele>2332.6</ele>
        <time>2021-03-27T13:11:03Z</time>
      </trkpt>
      <trkpt lat="45.65912" lon="6.81835">
        <ele>2332.8</ele>
        <time>2021-03-27T13:11:04Z</time>
      </trkpt>
      <trkpt lat="45.65912" lon="6.81835">
        <ele>2332.9</ele>
        <time>2021-03-27T13:11:05Z</time>
      </trkpt>
      <trkpt lat="45.65913" lon="6.81836">
        <ele>2333</ele>
        <time>2021-03-27T13:11:06Z</time>
      </trkpt>
      <trkpt lat="45.65913" lon="6.81836">
        <ele>2333.2</ele>
        <time>2021-03-27T13:11:07Z</time>
      </trkpt>
      <trkpt lat="45.65914" lon="6.81836">
        <ele>2333.4</ele>
        <time>2021-03-27T13:11:08Z</time>
      </trkpt>
      <trkpt lat="45.65915" lon="6.81836">
        <ele>2333.6</ele>
        <time>2021-03-27T13:11:09Z</time>
      </trkpt>
      <trkpt lat="45.65915" lon="6.81836">
        <ele>2333.8</ele>
        <time>2021-03-27T13:11:10Z</time>
      </trkpt>
      <trkpt lat="45.65916" lon="6.81836">
        <ele>2334</ele>
        <time>2021-03-27T13:11:11Z</time>
      </trkpt>
      <trkpt lat="45.65916" lon="6.81837">
        <ele>2334.1</ele>
        <time>2021-03-27T13:11:12Z</time>
      </trkpt>
      <trkpt lat="45.65917" lon="6.81837">
        <ele>2334.3</ele>
        <time>2021-03-27T13:11:13Z</time>
      </trkpt>
      <trkpt lat="45.65918" lon="6.81837">
        <ele>2334.5</ele>
        <time>2021-03-27T13:11:14Z</time>
      </trkpt>
      <trkpt lat="45.65918" lon="6.81837">
        <ele>2334.7</ele>
        <time>2021-03-27T13:11:15Z</time>
      </trkpt>
      <trkpt lat="45.65919" lon="6.81837">
        <ele>2334.9</ele>
        <time>2021-03-27T13:11:16Z</time>
      </trkpt>
      <trkpt lat="45.6592" lon="6.81837">
        <ele>2335.2</ele>
        <time>2021-03-27T13:11:17Z</time>
      </trkpt>
      <trkpt lat="45.65921" lon="6.81837">
        <ele>2335.4</ele>
        <time>2021-03-27T13:11:18Z</time>
      </trkpt>
      <trkpt lat="45.65921" lon="6.81837">
        <ele>2335.6</ele>
        <time>2021-03-27T13:11:19Z</time>
      </trkpt>
      <trkpt lat="45.65922" lon="6.81837">
        <ele>2335.7</ele>
        <time>2021-03-27T13:11:20Z</time>
      </trkpt>
      <trkpt lat="45.65923" lon="6.81837">
        <ele>2335.9</ele>
        <time>2021-03-27T13:11:21Z</time>
      </trkpt>
      <trkpt lat="45.65923" lon="6.81837">
        <ele>2336.1</ele>
        <time>2021-03-27T13:11:22Z</time>
      </trkpt>
      <trkpt lat="45.65924" lon="6.81837">
        <ele>2336.2</ele>
        <time>2021-03-27T13:11:23Z</time>
      </trkpt>
      <trkpt lat="45.65924" lon="6.81837">
        <ele>2336.4</ele>
        <time>2021-03-27T13:11:24Z</time>
      </trkpt>
      <trkpt lat="45.65924" lon="6.81838">
        <ele>2336.5</ele>
        <time>2021-03-27T13:11:25Z</time>
      </trkpt>
      <trkpt lat="45.65925" lon="6.81838">
        <ele>2336.7</ele>
        <time>2021-03-27T13:11:26Z</time>
      </trkpt>
      <trkpt lat="45.65925" lon="6.81838">
        <ele>2336.8</ele>
        <time>2021-03-27T13:11:27Z</time>
      </trkpt>
      <trkpt lat="45.65926" lon="6.81838">
        <ele>2337</ele>
        <time>2021-03-27T13:11:28Z</time>
      </trkpt>
      <trkpt lat="45.65926" lon="6.81838">
        <ele>2337.1</ele>
        <time>2021-03-27T13:11:29Z</time>
      </trkpt>
      <trkpt lat="45.65927" lon="6.81839">
        <ele>2337.3</ele>
        <time>2021-03-27T13:11:30Z</time>
      </trkpt>
      <trkpt lat="45.65928" lon="6.81839">
        <ele>2337.5</ele>
        <time>2021-03-27T13:11:31Z</time>
      </trkpt>
      <trkpt lat="45.65928" lon="6.81839">
        <ele>2337.7</ele>
        <time>2021-03-27T13:11:32Z</time>
      </trkpt>
      <trkpt lat="45.65929" lon="6.8184">
        <ele>2337.9</ele>
        <time>2021-03-27T13:11:33Z</time>
      </trkpt>
      <trkpt lat="45.65929" lon="6.8184">
        <ele>2338</ele>
        <time>2021-03-27T13:11:34Z</time>
      </trkpt>
      <trkpt lat="45.6593" lon="6.8184">
        <ele>2338.2</ele>
        <time>2021-03-27T13:11:35Z</time>
      </trkpt>
      <trkpt lat="45.6593" lon="6.8184">
        <ele>2338.4</ele>
        <time>2021-03-27T13:11:36Z</time>
      </trkpt>
      <trkpt lat="45.65931" lon="6.8184">
        <ele>2338.6</ele>
        <time>2021-03-27T13:11:37Z</time>
      </trkpt>
      <trkpt lat="45.65932" lon="6.8184">
        <ele>2338.8</ele>
        <time>2021-03-27T13:11:38Z</time>
      </trkpt>
      <trkpt lat="45.65932" lon="6.8184">
        <ele>2339</ele>
        <time>2021-03-27T13:11:39Z</time>
      </trkpt>
      <trkpt lat="45.65933" lon="6.8184">
        <ele>2339.2</ele>
        <time>2021-03-27T13:11:40Z</time>
      </trkpt>
      <trkpt lat="45.65933" lon="6.8184">
        <ele>2339.4</ele>
        <time>2021-03-27T13:11:41Z</time>
      </trkpt>
      <trkpt lat="45.65934" lon="6.8184">
        <ele>2339.6</ele>
        <time>2021-03-27T13:11:42Z</time>
      </trkpt>
      <trkpt lat="45.65935" lon="6.8184">
        <ele>2339.7</ele>
        <time>2021-03-27T13:11:43Z</time>
      </trkpt>
      <trkpt lat="45.65935" lon="6.81839">
        <ele>2339.9</ele>
        <time>2021-03-27T13:11:44Z</time>
      </trkpt>
      <trkpt lat="45.65936" lon="6.81839">
        <ele>2340.1</ele>
        <time>2021-03-27T13:11:45Z</time>
      </trkpt>
      <trkpt lat="45.65936" lon="6.81839">
        <ele>2340.4</ele>
        <time>2021-03-27T13:11:46Z</time>
      </trkpt>
      <trkpt lat="45.65937" lon="6.81839">
        <ele>2340.6</ele>
        <time>2021-03-27T13:11:47Z</time>
      </trkpt>
      <trkpt lat="45.65938" lon="6.81839">
        <ele>2340.8</ele>
        <time>2021-03-27T13:11:48Z</time>
      </trkpt>
      <trkpt lat="45.65938" lon="6.81839">
        <ele>2340.9</ele>
        <time>2021-03-27T13:11:49Z</time>
      </trkpt>
      <trkpt lat="45.65939" lon="6.81839">
        <ele>2341.1</ele>
        <time>2021-03-27T13:11:50Z</time>
      </trkpt>
      <trkpt lat="45.65939" lon="6.81839">
        <ele>2341.3</ele>
        <time>2021-03-27T13:11:51Z</time>
      </trkpt>
      <trkpt lat="45.6594" lon="6.81839">
        <ele>2341.5</ele>
        <time>2021-03-27T13:11:52Z</time>
      </trkpt>
      <trkpt lat="45.6594" lon="6.81839">
        <ele>2341.7</ele>
        <time>2021-03-27T13:11:53Z</time>
      </trkpt>
      <trkpt lat="45.65941" lon="6.81839">
        <ele>2341.8</ele>
        <time>2021-03-27T13:11:54Z</time>
      </trkpt>
      <trkpt lat="45.65941" lon="6.81839">
        <ele>2342.1</ele>
        <time>2021-03-27T13:11:55Z</time>
      </trkpt>
      <trkpt lat="45.65942" lon="6.81839">
        <ele>2342.2</ele>
        <time>2021-03-27T13:11:56Z</time>
      </trkpt>
      <trkpt lat="45.65942" lon="6.8184">
        <ele>2342.4</ele>
        <time>2021-03-27T13:11:57Z</time>
      </trkpt>
      <trkpt lat="45.65943" lon="6.81839">
        <ele>2342.5</ele>
        <time>2021-03-27T13:11:58Z</time>
      </trkpt>
      <trkpt lat="45.65943" lon="6.81839">
        <ele>2342.7</ele>
        <time>2021-03-27T13:11:59Z</time>
      </trkpt>
      <trkpt lat="45.65944" lon="6.81839">
        <ele>2342.9</ele>
        <time>2021-03-27T13:12:00Z</time>
      </trkpt>
      <trkpt lat="45.65944" lon="6.81839">
        <ele>2343</ele>
        <time>2021-03-27T13:12:01Z</time>
      </trkpt>
      <trkpt lat="45.65944" lon="6.81839">
        <ele>2343.2</ele>
        <time>2021-03-27T13:12:02Z</time>
      </trkpt>
      <trkpt lat="45.65945" lon="6.81839">
        <ele>2343.3</ele>
        <time>2021-03-27T13:12:03Z</time>
      </trkpt>
      <trkpt lat="45.65945" lon="6.81839">
        <ele>2343.5</ele>
        <time>2021-03-27T13:12:04Z</time>
      </trkpt>
      <trkpt lat="45.65946" lon="6.81839">
        <ele>2343.6</ele>
        <time>2021-03-27T13:12:05Z</time>
      </trkpt>
      <trkpt lat="45.65946" lon="6.81839">
        <ele>2343.8</ele>
        <time>2021-03-27T13:12:06Z</time>
      </trkpt>
      <trkpt lat="45.65946" lon="6.81839">
        <ele>2343.9</ele>
        <time>2021-03-27T13:12:07Z</time>
      </trkpt>
      <trkpt lat="45.65947" lon="6.81839">
        <ele>2344.1</ele>
        <time>2021-03-27T13:12:08Z</time>
      </trkpt>
      <trkpt lat="45.65947" lon="6.81839">
        <ele>2344.2</ele>
        <time>2021-03-27T13:12:09Z</time>
      </trkpt>
      <trkpt lat="45.65948" lon="6.81838">
        <ele>2344.4</ele>
        <time>2021-03-27T13:12:10Z</time>
      </trkpt>
      <trkpt lat="45.65948" lon="6.81838">
        <ele>2344.5</ele>
        <time>2021-03-27T13:12:11Z</time>
      </trkpt>
      <trkpt lat="45.65949" lon="6.81838">
        <ele>2344.7</ele>
        <time>2021-03-27T13:12:12Z</time>
      </trkpt>
      <trkpt lat="45.65949" lon="6.81838">
        <ele>2344.9</ele>
        <time>2021-03-27T13:12:13Z</time>
      </trkpt>
      <trkpt lat="45.65949" lon="6.81838">
        <ele>2345</ele>
        <time>2021-03-27T13:12:14Z</time>
      </trkpt>
      <trkpt lat="45.6595" lon="6.81837">
        <ele>2345.2</ele>
        <time>2021-03-27T13:12:15Z</time>
      </trkpt>
      <trkpt lat="45.6595" lon="6.81837">
        <ele>2345.4</ele>
        <time>2021-03-27T13:12:16Z</time>
      </trkpt>
      <trkpt lat="45.65951" lon="6.81837">
        <ele>2345.5</ele>
        <time>2021-03-27T13:12:17Z</time>
      </trkpt>
      <trkpt lat="45.65951" lon="6.81837">
        <ele>2345.7</ele>
        <time>2021-03-27T13:12:18Z</time>
      </trkpt>
      <trkpt lat="45.65952" lon="6.81837">
        <ele>2345.9</ele>
        <time>2021-03-27T13:12:19Z</time>
      </trkpt>
      <trkpt lat="45.65952" lon="6.81837">
        <ele>2346</ele>
        <time>2021-03-27T13:12:20Z</time>
      </trkpt>
      <trkpt lat="45.65953" lon="6.81838">
        <ele>2346.2</ele>
        <time>2021-03-27T13:12:21Z</time>
      </trkpt>
      <trkpt lat="45.65953" lon="6.81838">
        <ele>2346.3</ele>
        <time>2021-03-27T13:12:22Z</time>
      </trkpt>
      <trkpt lat="45.65954" lon="6.81838">
        <ele>2346.5</ele>
        <time>2021-03-27T13:12:23Z</time>
      </trkpt>
      <trkpt lat="45.65954" lon="6.81838">
        <ele>2346.7</ele>
        <time>2021-03-27T13:12:24Z</time>
      </trkpt>
      <trkpt lat="45.65954" lon="6.81839">
        <ele>2346.9</ele>
        <time>2021-03-27T13:12:25Z</time>
      </trkpt>
      <trkpt lat="45.65955" lon="6.81839">
        <ele>2347.1</ele>
        <time>2021-03-27T13:12:26Z</time>
      </trkpt>
      <trkpt lat="45.65956" lon="6.81838">
        <ele>2347.3</ele>
        <time>2021-03-27T13:12:27Z</time>
      </trkpt>
      <trkpt lat="45.65956" lon="6.81838">
        <ele>2347.4</ele>
        <time>2021-03-27T13:12:28Z</time>
      </trkpt>
      <trkpt lat="45.65956" lon="6.81838">
        <ele>2347.6</ele>
        <time>2021-03-27T13:12:29Z</time>
      </trkpt>
      <trkpt lat="45.65957" lon="6.81838">
        <ele>2347.7</ele>
        <time>2021-03-27T13:12:30Z</time>
      </trkpt>
      <trkpt lat="45.65957" lon="6.81838">
        <ele>2347.9</ele>
        <time>2021-03-27T13:12:31Z</time>
      </trkpt>
      <trkpt lat="45.65958" lon="6.81837">
        <ele>2348.1</ele>
        <time>2021-03-27T13:12:32Z</time>
      </trkpt>
      <trkpt lat="45.65958" lon="6.81837">
        <ele>2348.2</ele>
        <time>2021-03-27T13:12:33Z</time>
      </trkpt>
      <trkpt lat="45.65959" lon="6.81837">
        <ele>2348.4</ele>
        <time>2021-03-27T13:12:34Z</time>
      </trkpt>
      <trkpt lat="45.65959" lon="6.81837">
        <ele>2348.6</ele>
        <time>2021-03-27T13:12:35Z</time>
      </trkpt>
      <trkpt lat="45.6596" lon="6.81836">
        <ele>2348.8</ele>
        <time>2021-03-27T13:12:36Z</time>
      </trkpt>
      <trkpt lat="45.6596" lon="6.81836">
        <ele>2349</ele>
        <time>2021-03-27T13:12:37Z</time>
      </trkpt>
      <trkpt lat="45.65961" lon="6.81836">
        <ele>2349.2</ele>
        <time>2021-03-27T13:12:38Z</time>
      </trkpt>
      <trkpt lat="45.65962" lon="6.81835">
        <ele>2349.4</ele>
        <time>2021-03-27T13:12:39Z</time>
      </trkpt>
      <trkpt lat="45.65962" lon="6.81835">
        <ele>2349.6</ele>
        <time>2021-03-27T13:12:40Z</time>
      </trkpt>
      <trkpt lat="45.65963" lon="6.81835">
        <ele>2349.8</ele>
        <time>2021-03-27T13:12:41Z</time>
      </trkpt>
      <trkpt lat="45.65963" lon="6.81835">
        <ele>2350</ele>
        <time>2021-03-27T13:12:42Z</time>
      </trkpt>
      <trkpt lat="45.65964" lon="6.81835">
        <ele>2350.2</ele>
        <time>2021-03-27T13:12:43Z</time>
      </trkpt>
      <trkpt lat="45.65964" lon="6.81835">
        <ele>2350.4</ele>
        <time>2021-03-27T13:12:44Z</time>
      </trkpt>
      <trkpt lat="45.65965" lon="6.81835">
        <ele>2350.5</ele>
        <time>2021-03-27T13:12:45Z</time>
      </trkpt>
      <trkpt lat="45.65965" lon="6.81835">
        <ele>2350.7</ele>
        <time>2021-03-27T13:12:46Z</time>
      </trkpt>
      <trkpt lat="45.65966" lon="6.81835">
        <ele>2350.8</ele>
        <time>2021-03-27T13:12:47Z</time>
      </trkpt>
      <trkpt lat="45.65966" lon="6.81835">
        <ele>2351</ele>
        <time>2021-03-27T13:12:48Z</time>
      </trkpt>
      <trkpt lat="45.65967" lon="6.81834">
        <ele>2351.1</ele>
        <time>2021-03-27T13:12:49Z</time>
      </trkpt>
      <trkpt lat="45.65967" lon="6.81834">
        <ele>2351.3</ele>
        <time>2021-03-27T13:12:50Z</time>
      </trkpt>
      <trkpt lat="45.65968" lon="6.81834">
        <ele>2351.5</ele>
        <time>2021-03-27T13:12:51Z</time>
      </trkpt>
      <trkpt lat="45.65969" lon="6.81834">
        <ele>2351.7</ele>
        <time>2021-03-27T13:12:52Z</time>
      </trkpt>
      <trkpt lat="45.65969" lon="6.81835">
        <ele>2351.9</ele>
        <time>2021-03-27T13:12:53Z</time>
      </trkpt>
      <trkpt lat="45.65969" lon="6.81835">
        <ele>2352</ele>
        <time>2021-03-27T13:12:54Z</time>
      </trkpt>
      <trkpt lat="45.6597" lon="6.81835">
        <ele>2352.1</ele>
        <time>2021-03-27T13:12:55Z</time>
      </trkpt>
      <trkpt lat="45.6597" lon="6.81835">
        <ele>2352.3</ele>
        <time>2021-03-27T13:12:56Z</time>
      </trkpt>
      <trkpt lat="45.65971" lon="6.81836">
        <ele>2352.4</ele>
        <time>2021-03-27T13:12:57Z</time>
      </trkpt>
      <trkpt lat="45.65971" lon="6.81836">
        <ele>2352.6</ele>
        <time>2021-03-27T13:12:58Z</time>
      </trkpt>
      <trkpt lat="45.65972" lon="6.81836">
        <ele>2352.7</ele>
        <time>2021-03-27T13:12:59Z</time>
      </trkpt>
      <trkpt lat="45.65972" lon="6.81836">
        <ele>2353</ele>
        <time>2021-03-27T13:13:00Z</time>
      </trkpt>
      <trkpt lat="45.65973" lon="6.81837">
        <ele>2353.1</ele>
        <time>2021-03-27T13:13:01Z</time>
      </trkpt>
      <trkpt lat="45.65973" lon="6.81837">
        <ele>2353.3</ele>
        <time>2021-03-27T13:13:02Z</time>
      </trkpt>
      <trkpt lat="45.65974" lon="6.81837">
        <ele>2353.5</ele>
        <time>2021-03-27T13:13:03Z</time>
      </trkpt>
      <trkpt lat="45.65974" lon="6.81838">
        <ele>2353.7</ele>
        <time>2021-03-27T13:13:04Z</time>
      </trkpt>
      <trkpt lat="45.65974" lon="6.81838">
        <ele>2353.9</ele>
        <time>2021-03-27T13:13:05Z</time>
      </trkpt>
      <trkpt lat="45.65975" lon="6.81839">
        <ele>2354</ele>
        <time>2021-03-27T13:13:06Z</time>
      </trkpt>
      <trkpt lat="45.65975" lon="6.81839">
        <ele>2354.2</ele>
        <time>2021-03-27T13:13:07Z</time>
      </trkpt>
      <trkpt lat="45.65976" lon="6.81839">
        <ele>2354.4</ele>
        <time>2021-03-27T13:13:08Z</time>
      </trkpt>
      <trkpt lat="45.65976" lon="6.81839">
        <ele>2354.5</ele>
        <time>2021-03-27T13:13:09Z</time>
      </trkpt>
      <trkpt lat="45.65976" lon="6.8184">
        <ele>2354.7</ele>
        <time>2021-03-27T13:13:10Z</time>
      </trkpt>
      <trkpt lat="45.65977" lon="6.81841">
        <ele>2354.9</ele>
        <time>2021-03-27T13:13:11Z</time>
      </trkpt>
      <trkpt lat="45.65977" lon="6.81842">
        <ele>2355.2</ele>
        <time>2021-03-27T13:13:12Z</time>
      </trkpt>
      <trkpt lat="45.65978" lon="6.81843">
        <ele>2355.5</ele>
        <time>2021-03-27T13:13:13Z</time>
      </trkpt>
      <trkpt lat="45.65978" lon="6.81844">
        <ele>2355.8</ele>
        <time>2021-03-27T13:13:14Z</time>
      </trkpt>
      <trkpt lat="45.65978" lon="6.81845">
        <ele>2356.1</ele>
        <time>2021-03-27T13:13:15Z</time>
      </trkpt>
      <trkpt lat="45.65978" lon="6.81846">
        <ele>2356.4</ele>
        <time>2021-03-27T13:13:16Z</time>
      </trkpt>
      <trkpt lat="45.65978" lon="6.81847">
        <ele>2356.6</ele>
        <time>2021-03-27T13:13:17Z</time>
      </trkpt>
      <trkpt lat="45.65977" lon="6.81848">
        <ele>2356.9</ele>
        <time>2021-03-27T13:13:18Z</time>
      </trkpt>
      <trkpt lat="45.65977" lon="6.8185">
        <ele>2357.3</ele>
        <time>2021-03-27T13:13:19Z</time>
      </trkpt>
      <trkpt lat="45.65977" lon="6.81851">
        <ele>2357.6</ele>
        <time>2021-03-27T13:13:20Z</time>
      </trkpt>
      <trkpt lat="45.65977" lon="6.81852">
        <ele>2357.9</ele>
        <time>2021-03-27T13:13:21Z</time>
      </trkpt>
      <trkpt lat="45.65977" lon="6.81853">
        <ele>2358.2</ele>
        <time>2021-03-27T13:13:22Z</time>
      </trkpt>
      <trkpt lat="45.65977" lon="6.81854">
        <ele>2358.5</ele>
        <time>2021-03-27T13:13:23Z</time>
      </trkpt>
      <trkpt lat="45.65977" lon="6.81855">
        <ele>2358.7</ele>
        <time>2021-03-27T13:13:24Z</time>
      </trkpt>
      <trkpt lat="45.65977" lon="6.81856">
        <ele>2358.9</ele>
        <time>2021-03-27T13:13:25Z</time>
      </trkpt>
      <trkpt lat="45.65977" lon="6.81857">
        <ele>2359.1</ele>
        <time>2021-03-27T13:13:26Z</time>
      </trkpt>
      <trkpt lat="45.65976" lon="6.81858">
        <ele>2359.3</ele>
        <time>2021-03-27T13:13:27Z</time>
      </trkpt>
      <trkpt lat="45.65976" lon="6.81859">
        <ele>2359.5</ele>
        <time>2021-03-27T13:13:28Z</time>
      </trkpt>
      <trkpt lat="45.65976" lon="6.81859">
        <ele>2359.6</ele>
        <time>2021-03-27T13:13:29Z</time>
      </trkpt>
      <trkpt lat="45.65976" lon="6.8186">
        <ele>2359.9</ele>
        <time>2021-03-27T13:13:30Z</time>
      </trkpt>
      <trkpt lat="45.65975" lon="6.81861">
        <ele>2360.1</ele>
        <time>2021-03-27T13:13:31Z</time>
      </trkpt>
      <trkpt lat="45.65975" lon="6.81862">
        <ele>2360.3</ele>
        <time>2021-03-27T13:13:32Z</time>
      </trkpt>
      <trkpt lat="45.65975" lon="6.81863">
        <ele>2360.5</ele>
        <time>2021-03-27T13:13:33Z</time>
      </trkpt>
      <trkpt lat="45.65974" lon="6.81863">
        <ele>2360.8</ele>
        <time>2021-03-27T13:13:34Z</time>
      </trkpt>
      <trkpt lat="45.65974" lon="6.81864">
        <ele>2361</ele>
        <time>2021-03-27T13:13:35Z</time>
      </trkpt>
      <trkpt lat="45.65974" lon="6.81865">
        <ele>2361.2</ele>
        <time>2021-03-27T13:13:36Z</time>
      </trkpt>
      <trkpt lat="45.65973" lon="6.81866">
        <ele>2361.5</ele>
        <time>2021-03-27T13:13:37Z</time>
      </trkpt>
      <trkpt lat="45.65973" lon="6.81867">
        <ele>2361.7</ele>
        <time>2021-03-27T13:14:03Z</time>
      </trkpt>
      <trkpt lat="45.65972" lon="6.81867">
        <ele>2361.9</ele>
        <time>2021-03-27T13:14:04Z</time>
      </trkpt>
      <trkpt lat="45.65972" lon="6.81868">
        <ele>2362.1</ele>
        <time>2021-03-27T13:14:05Z</time>
      </trkpt>
      <trkpt lat="45.65972" lon="6.81869">
        <ele>2362.3</ele>
        <time>2021-03-27T13:14:06Z</time>
      </trkpt>
      <trkpt lat="45.65972" lon="6.8187">
        <ele>2362.6</ele>
        <time>2021-03-27T13:14:07Z</time>
      </trkpt>
      <trkpt lat="45.65972" lon="6.81871">
        <ele>2362.8</ele>
        <time>2021-03-27T13:14:08Z</time>
      </trkpt>
      <trkpt lat="45.65971" lon="6.81872">
        <ele>2363</ele>
        <time>2021-03-27T13:14:09Z</time>
      </trkpt>
      <trkpt lat="45.65971" lon="6.81873">
        <ele>2363.3</ele>
        <time>2021-03-27T13:14:10Z</time>
      </trkpt>
      <trkpt lat="45.65971" lon="6.81874">
        <ele>2363.5</ele>
        <time>2021-03-27T13:14:11Z</time>
      </trkpt>
      <trkpt lat="45.65971" lon="6.81874">
        <ele>2363.7</ele>
        <time>2021-03-27T13:14:12Z</time>
      </trkpt>
      <trkpt lat="45.65971" lon="6.81875">
        <ele>2363.8</ele>
        <time>2021-03-27T13:14:13Z</time>
      </trkpt>
      <trkpt lat="45.65972" lon="6.81875">
        <ele>2363.9</ele>
        <time>2021-03-27T13:14:14Z</time>
      </trkpt>
      <trkpt lat="45.65972" lon="6.81874">
        <ele>2364.1</ele>
        <time>2021-03-27T13:14:15Z</time>
      </trkpt>
      <trkpt lat="45.65973" lon="6.81874">
        <ele>2364.4</ele>
        <time>2021-03-27T13:14:16Z</time>
      </trkpt>
      <trkpt lat="45.65974" lon="6.81874">
        <ele>2364.7</ele>
        <time>2021-03-27T13:14:17Z</time>
      </trkpt>
      <trkpt lat="45.65974" lon="6.81873">
        <ele>2364.9</ele>
        <time>2021-03-27T13:14:18Z</time>
      </trkpt>
      <trkpt lat="45.65974" lon="6.81873">
        <ele>2364.9</ele>
        <time>2021-03-27T13:14:19Z</time>
      </trkpt>
      <trkpt lat="45.65975" lon="6.81873">
        <ele>2365</ele>
        <time>2021-03-27T13:14:20Z</time>
      </trkpt>
      <trkpt lat="45.65975" lon="6.81873">
        <ele>2365.1</ele>
        <time>2021-03-27T13:14:21Z</time>
      </trkpt>
      <trkpt lat="45.65975" lon="6.81873">
        <ele>2365.2</ele>
        <time>2021-03-27T13:14:22Z</time>
      </trkpt>
      <trkpt lat="45.65975" lon="6.81873">
        <ele>2365.3</ele>
        <time>2021-03-27T13:14:23Z</time>
      </trkpt>
      <trkpt lat="45.65976" lon="6.81874">
        <ele>2365.5</ele>
        <time>2021-03-27T13:14:24Z</time>
      </trkpt>
      <trkpt lat="45.65976" lon="6.81875">
        <ele>2365.8</ele>
        <time>2021-03-27T13:14:25Z</time>
      </trkpt>
      <trkpt lat="45.65977" lon="6.81876">
        <ele>2366.1</ele>
        <time>2021-03-27T13:14:26Z</time>
      </trkpt>
      <trkpt lat="45.65978" lon="6.81876">
        <ele>2366.4</ele>
        <time>2021-03-27T13:14:27Z</time>
      </trkpt>
      <trkpt lat="45.65978" lon="6.81877">
        <ele>2366.7</ele>
        <time>2021-03-27T13:14:28Z</time>
      </trkpt>
      <trkpt lat="45.65979" lon="6.81878">
        <ele>2366.9</ele>
        <time>2021-03-27T13:14:29Z</time>
      </trkpt>
      <trkpt lat="45.6598" lon="6.81878">
        <ele>2367.1</ele>
        <time>2021-03-27T13:14:30Z</time>
      </trkpt>
      <trkpt lat="45.6598" lon="6.81879">
        <ele>2367.3</ele>
        <time>2021-03-27T13:14:31Z</time>
      </trkpt>
      <trkpt lat="45.6598" lon="6.81879">
        <ele>2367.5</ele>
        <time>2021-03-27T13:14:32Z</time>
      </trkpt>
      <trkpt lat="45.65981" lon="6.8188">
        <ele>2367.7</ele>
        <time>2021-03-27T13:14:33Z</time>
      </trkpt>
      <trkpt lat="45.65981" lon="6.81881">
        <ele>2368</ele>
        <time>2021-03-27T13:14:34Z</time>
      </trkpt>
      <trkpt lat="45.65982" lon="6.81882">
        <ele>2368.2</ele>
        <time>2021-03-27T13:14:35Z</time>
      </trkpt>
      <trkpt lat="45.65982" lon="6.81882">
        <ele>2368.4</ele>
        <time>2021-03-27T13:14:36Z</time>
      </trkpt>
      <trkpt lat="45.65982" lon="6.81883">
        <ele>2368.6</ele>
        <time>2021-03-27T13:14:37Z</time>
      </trkpt>
      <trkpt lat="45.65983" lon="6.81884">
        <ele>2368.8</ele>
        <time>2021-03-27T13:14:38Z</time>
      </trkpt>
      <trkpt lat="45.65983" lon="6.81884">
        <ele>2369</ele>
        <time>2021-03-27T13:14:39Z</time>
      </trkpt>
      <trkpt lat="45.65984" lon="6.81885">
        <ele>2369.1</ele>
        <time>2021-03-27T13:14:40Z</time>
      </trkpt>
      <trkpt lat="45.65984" lon="6.81885">
        <ele>2369.3</ele>
        <time>2021-03-27T13:14:41Z</time>
      </trkpt>
      <trkpt lat="45.65984" lon="6.81886">
        <ele>2369.5</ele>
        <time>2021-03-27T13:14:42Z</time>
      </trkpt>
      <trkpt lat="45.65985" lon="6.81886">
        <ele>2369.7</ele>
        <time>2021-03-27T13:14:43Z</time>
      </trkpt>
      <trkpt lat="45.65985" lon="6.81886">
        <ele>2369.8</ele>
        <time>2021-03-27T13:14:44Z</time>
      </trkpt>
      <trkpt lat="45.65986" lon="6.81887">
        <ele>2370</ele>
        <time>2021-03-27T13:14:45Z</time>
      </trkpt>
      <trkpt lat="45.65986" lon="6.81887">
        <ele>2370.1</ele>
        <time>2021-03-27T13:14:46Z</time>
      </trkpt>
      <trkpt lat="45.65987" lon="6.81887">
        <ele>2370.3</ele>
        <time>2021-03-27T13:14:47Z</time>
      </trkpt>
      <trkpt lat="45.65987" lon="6.81887">
        <ele>2370.4</ele>
        <time>2021-03-27T13:14:48Z</time>
      </trkpt>
      <trkpt lat="45.65988" lon="6.81887">
        <ele>2370.6</ele>
        <time>2021-03-27T13:14:49Z</time>
      </trkpt>
      <trkpt lat="45.65988" lon="6.81887">
        <ele>2370.7</ele>
        <time>2021-03-27T13:14:50Z</time>
      </trkpt>
      <trkpt lat="45.65988" lon="6.81887">
        <ele>2370.9</ele>
        <time>2021-03-27T13:14:51Z</time>
      </trkpt>
      <trkpt lat="45.65989" lon="6.81887">
        <ele>2371</ele>
        <time>2021-03-27T13:14:52Z</time>
      </trkpt>
      <trkpt lat="45.65989" lon="6.81887">
        <ele>2371</ele>
        <time>2021-03-27T13:14:53Z</time>
      </trkpt>
      <trkpt lat="45.65989" lon="6.81887">
        <ele>2371.2</ele>
        <time>2021-03-27T13:14:54Z</time>
      </trkpt>
      <trkpt lat="45.6599" lon="6.81887">
        <ele>2371.3</ele>
        <time>2021-03-27T13:14:55Z</time>
      </trkpt>
      <trkpt lat="45.65991" lon="6.81887">
        <ele>2371.5</ele>
        <time>2021-03-27T13:14:56Z</time>
      </trkpt>
      <trkpt lat="45.65991" lon="6.81887">
        <ele>2371.6</ele>
        <time>2021-03-27T13:14:57Z</time>
      </trkpt>
      <trkpt lat="45.65992" lon="6.81887">
        <ele>2371.8</ele>
        <time>2021-03-27T13:14:58Z</time>
      </trkpt>
      <trkpt lat="45.65992" lon="6.81887">
        <ele>2372</ele>
        <time>2021-03-27T13:14:59Z</time>
      </trkpt>
      <trkpt lat="45.65993" lon="6.81887">
        <ele>2372.1</ele>
        <time>2021-03-27T13:15:00Z</time>
      </trkpt>
      <trkpt lat="45.65993" lon="6.81886">
        <ele>2372.3</ele>
        <time>2021-03-27T13:15:01Z</time>
      </trkpt>
      <trkpt lat="45.65994" lon="6.81886">
        <ele>2372.4</ele>
        <time>2021-03-27T13:15:02Z</time>
      </trkpt>
      <trkpt lat="45.65994" lon="6.81886">
        <ele>2372.7</ele>
        <time>2021-03-27T13:15:03Z</time>
      </trkpt>
      <trkpt lat="45.65995" lon="6.81886">
        <ele>2372.9</ele>
        <time>2021-03-27T13:15:04Z</time>
      </trkpt>
      <trkpt lat="45.65996" lon="6.81885">
        <ele>2373.1</ele>
        <time>2021-03-27T13:15:05Z</time>
      </trkpt>
      <trkpt lat="45.65996" lon="6.81885">
        <ele>2373.3</ele>
        <time>2021-03-27T13:15:06Z</time>
      </trkpt>
      <trkpt lat="45.65997" lon="6.81885">
        <ele>2373.4</ele>
        <time>2021-03-27T13:15:07Z</time>
      </trkpt>
      <trkpt lat="45.65997" lon="6.81884">
        <ele>2373.5</ele>
        <time>2021-03-27T13:15:08Z</time>
      </trkpt>
      <trkpt lat="45.65997" lon="6.81884">
        <ele>2373.6</ele>
        <time>2021-03-27T13:15:09Z</time>
      </trkpt>
      <trkpt lat="45.65997" lon="6.81883">
        <ele>2373.8</ele>
        <time>2021-03-27T13:15:10Z</time>
      </trkpt>
      <trkpt lat="45.65997" lon="6.81883">
        <ele>2373.9</ele>
        <time>2021-03-27T13:15:11Z</time>
      </trkpt>
      <trkpt lat="45.65997" lon="6.81882">
        <ele>2374</ele>
        <time>2021-03-27T13:15:12Z</time>
      </trkpt>
      <trkpt lat="45.65997" lon="6.81882">
        <ele>2374.2</ele>
        <time>2021-03-27T13:15:13Z</time>
      </trkpt>
      <trkpt lat="45.65998" lon="6.81881">
        <ele>2374.4</ele>
        <time>2021-03-27T13:15:14Z</time>
      </trkpt>
      <trkpt lat="45.65998" lon="6.81881">
        <ele>2374.5</ele>
        <time>2021-03-27T13:15:15Z</time>
      </trkpt>
      <trkpt lat="45.66" lon="6.8188">
        <ele>2375</ele>
        <time>2021-03-27T13:15:16Z</time>
      </trkpt>
      <trkpt lat="45.66001" lon="6.8188">
        <ele>2375.2</ele>
        <time>2021-03-27T13:15:17Z</time>
      </trkpt>
      <trkpt lat="45.66001" lon="6.81879">
        <ele>2375.5</ele>
        <time>2021-03-27T13:15:18Z</time>
      </trkpt>
      <trkpt lat="45.66002" lon="6.81879">
        <ele>2375.7</ele>
        <time>2021-03-27T13:15:19Z</time>
      </trkpt>
      <trkpt lat="45.66003" lon="6.81878">
        <ele>2376.1</ele>
        <time>2021-03-27T13:15:20Z</time>
      </trkpt>
      <trkpt lat="45.66004" lon="6.81877">
        <ele>2376.3</ele>
        <time>2021-03-27T13:15:21Z</time>
      </trkpt>
      <trkpt lat="45.66004" lon="6.81877">
        <ele>2376.5</ele>
        <time>2021-03-27T13:15:22Z</time>
      </trkpt>
      <trkpt lat="45.66005" lon="6.81876">
        <ele>2376.6</ele>
        <time>2021-03-27T13:15:23Z</time>
      </trkpt>
      <trkpt lat="45.66005" lon="6.81876">
        <ele>2376.8</ele>
        <time>2021-03-27T13:15:24Z</time>
      </trkpt>
      <trkpt lat="45.66005" lon="6.81875">
        <ele>2376.9</ele>
        <time>2021-03-27T13:15:25Z</time>
      </trkpt>
      <trkpt lat="45.66005" lon="6.81875">
        <ele>2377.1</ele>
        <time>2021-03-27T13:15:26Z</time>
      </trkpt>
      <trkpt lat="45.66006" lon="6.81874">
        <ele>2377.3</ele>
        <time>2021-03-27T13:15:27Z</time>
      </trkpt>
      <trkpt lat="45.66007" lon="6.81874">
        <ele>2377.5</ele>
        <time>2021-03-27T13:15:28Z</time>
      </trkpt>
      <trkpt lat="45.66007" lon="6.81874">
        <ele>2377.7</ele>
        <time>2021-03-27T13:15:29Z</time>
      </trkpt>
      <trkpt lat="45.66008" lon="6.81874">
        <ele>2377.8</ele>
        <time>2021-03-27T13:15:30Z</time>
      </trkpt>
      <trkpt lat="45.66008" lon="6.81873">
        <ele>2378</ele>
        <time>2021-03-27T13:15:31Z</time>
      </trkpt>
      <trkpt lat="45.66009" lon="6.81873">
        <ele>2378.3</ele>
        <time>2021-03-27T13:15:32Z</time>
      </trkpt>
      <trkpt lat="45.6601" lon="6.81873">
        <ele>2378.6</ele>
        <time>2021-03-27T13:15:33Z</time>
      </trkpt>
      <trkpt lat="45.66011" lon="6.81872">
        <ele>2378.9</ele>
        <time>2021-03-27T13:15:34Z</time>
      </trkpt>
      <trkpt lat="45.66012" lon="6.81872">
        <ele>2379.2</ele>
        <time>2021-03-27T13:15:35Z</time>
      </trkpt>
      <trkpt lat="45.66013" lon="6.81872">
        <ele>2379.5</ele>
        <time>2021-03-27T13:15:36Z</time>
      </trkpt>
      <trkpt lat="45.66013" lon="6.81871">
        <ele>2379.7</ele>
        <time>2021-03-27T13:15:37Z</time>
      </trkpt>
      <trkpt lat="45.66014" lon="6.81871">
        <ele>2380</ele>
        <time>2021-03-27T13:15:38Z</time>
      </trkpt>
      <trkpt lat="45.66014" lon="6.81871">
        <ele>2380.2</ele>
        <time>2021-03-27T13:15:39Z</time>
      </trkpt>
      <trkpt lat="45.66015" lon="6.81871">
        <ele>2380.4</ele>
        <time>2021-03-27T13:15:40Z</time>
      </trkpt>
      <trkpt lat="45.66015" lon="6.8187">
        <ele>2380.6</ele>
        <time>2021-03-27T13:15:41Z</time>
      </trkpt>
      <trkpt lat="45.66016" lon="6.8187">
        <ele>2380.7</ele>
        <time>2021-03-27T13:15:42Z</time>
      </trkpt>
      <trkpt lat="45.66016" lon="6.8187">
        <ele>2380.9</ele>
        <time>2021-03-27T13:15:43Z</time>
      </trkpt>
      <trkpt lat="45.66016" lon="6.8187">
        <ele>2381</ele>
        <time>2021-03-27T13:15:44Z</time>
      </trkpt>
      <trkpt lat="45.66017" lon="6.81869">
        <ele>2381.2</ele>
        <time>2021-03-27T13:15:45Z</time>
      </trkpt>
      <trkpt lat="45.66017" lon="6.81869">
        <ele>2381.5</ele>
        <time>2021-03-27T13:15:46Z</time>
      </trkpt>
      <trkpt lat="45.66018" lon="6.81869">
        <ele>2381.6</ele>
        <time>2021-03-27T13:15:47Z</time>
      </trkpt>
      <trkpt lat="45.66018" lon="6.81869">
        <ele>2381.7</ele>
        <time>2021-03-27T13:15:48Z</time>
      </trkpt>
      <trkpt lat="45.66018" lon="6.81869">
        <ele>2381.8</ele>
        <time>2021-03-27T13:15:49Z</time>
      </trkpt>
      <trkpt lat="45.66019" lon="6.81868">
        <ele>2382</ele>
        <time>2021-03-27T13:15:50Z</time>
      </trkpt>
      <trkpt lat="45.66019" lon="6.81868">
        <ele>2382.2</ele>
        <time>2021-03-27T13:15:51Z</time>
      </trkpt>
      <trkpt lat="45.6602" lon="6.81868">
        <ele>2382.5</ele>
        <time>2021-03-27T13:15:52Z</time>
      </trkpt>
      <trkpt lat="45.6602" lon="6.81868">
        <ele>2382.8</ele>
        <time>2021-03-27T13:15:53Z</time>
      </trkpt>
      <trkpt lat="45.66021" lon="6.81868">
        <ele>2382.9</ele>
        <time>2021-03-27T13:15:54Z</time>
      </trkpt>
      <trkpt lat="45.66021" lon="6.81868">
        <ele>2383.2</ele>
        <time>2021-03-27T13:15:55Z</time>
      </trkpt>
      <trkpt lat="45.66022" lon="6.81868">
        <ele>2383.4</ele>
        <time>2021-03-27T13:15:56Z</time>
      </trkpt>
      <trkpt lat="45.66022" lon="6.81868">
        <ele>2383.5</ele>
        <time>2021-03-27T13:15:57Z</time>
      </trkpt>
      <trkpt lat="45.66022" lon="6.81868">
        <ele>2383.6</ele>
        <time>2021-03-27T13:15:58Z</time>
      </trkpt>
      <trkpt lat="45.66023" lon="6.81868">
        <ele>2383.7</ele>
        <time>2021-03-27T13:15:59Z</time>
      </trkpt>
      <trkpt lat="45.66023" lon="6.81868">
        <ele>2383.8</ele>
        <time>2021-03-27T13:16:00Z</time>
      </trkpt>
      <trkpt lat="45.66023" lon="6.81868">
        <ele>2383.9</ele>
        <time>2021-03-27T13:16:01Z</time>
      </trkpt>
      <trkpt lat="45.66023" lon="6.81868">
        <ele>2383.9</ele>
        <time>2021-03-27T13:16:02Z</time>
      </trkpt>
      <trkpt lat="45.66024" lon="6.81868">
        <ele>2384.2</ele>
        <time>2021-03-27T13:16:03Z</time>
      </trkpt>
      <trkpt lat="45.66024" lon="6.81868">
        <ele>2384.5</ele>
        <time>2021-03-27T13:16:04Z</time>
      </trkpt>
      <trkpt lat="45.66026" lon="6.81868">
        <ele>2385.2</ele>
        <time>2021-03-27T13:16:05Z</time>
      </trkpt>
      <trkpt lat="45.66027" lon="6.81867">
        <ele>2385.7</ele>
        <time>2021-03-27T13:16:06Z</time>
      </trkpt>
      <trkpt lat="45.66028" lon="6.81867">
        <ele>2386.1</ele>
        <time>2021-03-27T13:16:26Z</time>
      </trkpt>
      <trkpt lat="45.66029" lon="6.81867">
        <ele>2386.6</ele>
        <time>2021-03-27T13:16:27Z</time>
      </trkpt>
      <trkpt lat="45.66031" lon="6.81866">
        <ele>2387.2</ele>
        <time>2021-03-27T13:16:28Z</time>
      </trkpt>
      <trkpt lat="45.66032" lon="6.81866">
        <ele>2389.1</ele>
        <time>2021-03-27T13:16:29Z</time>
      </trkpt>
      <trkpt lat="45.66033" lon="6.81866">
        <ele>2389.1</ele>
        <time>2021-03-27T13:16:30Z</time>
      </trkpt>
      <trkpt lat="45.66034" lon="6.81865">
        <ele>2391</ele>
        <time>2021-03-27T13:16:31Z</time>
      </trkpt>
      <trkpt lat="45.66035" lon="6.81865">
        <ele>2391</ele>
        <time>2021-03-27T13:16:32Z</time>
      </trkpt>
      <trkpt lat="45.66036" lon="6.81865">
        <ele>2390.8</ele>
        <time>2021-03-27T13:16:33Z</time>
      </trkpt>
      <trkpt lat="45.66037" lon="6.81865">
        <ele>2390.8</ele>
        <time>2021-03-27T13:16:34Z</time>
      </trkpt>
      <trkpt lat="45.66037" lon="6.81864">
        <ele>2392.7</ele>
        <time>2021-03-27T13:16:35Z</time>
      </trkpt>
      <trkpt lat="45.66038" lon="6.81864">
        <ele>2392.7</ele>
        <time>2021-03-27T13:16:36Z</time>
      </trkpt>
      <trkpt lat="45.66038" lon="6.81864">
        <ele>2392.7</ele>
        <time>2021-03-27T13:16:37Z</time>
      </trkpt>
      <trkpt lat="45.66039" lon="6.81864">
        <ele>2392.7</ele>
        <time>2021-03-27T13:16:41Z</time>
      </trkpt>
      <trkpt lat="45.66039" lon="6.81864">
        <ele>2392.7</ele>
        <time>2021-03-27T13:16:42Z</time>
      </trkpt>
      <trkpt lat="45.6604" lon="6.81863">
        <ele>2394.7</ele>
        <time>2021-03-27T13:16:43Z</time>
      </trkpt>
      <trkpt lat="45.66041" lon="6.81863">
        <ele>2394.7</ele>
        <time>2021-03-27T13:16:44Z</time>
      </trkpt>
      <trkpt lat="45.66041" lon="6.81863">
        <ele>2394.7</ele>
        <time>2021-03-27T13:16:45Z</time>
      </trkpt>
      <trkpt lat="45.66041" lon="6.81863">
        <ele>2394.7</ele>
        <time>2021-03-27T13:16:46Z</time>
      </trkpt>
      <trkpt lat="45.66042" lon="6.81863">
        <ele>2394.7</ele>
        <time>2021-03-27T13:16:47Z</time>
      </trkpt>
      <trkpt lat="45.66043" lon="6.81862">
        <ele>2394.7</ele>
        <time>2021-03-27T13:16:48Z</time>
      </trkpt>
      <trkpt lat="45.66043" lon="6.81862">
        <ele>2396.7</ele>
        <time>2021-03-27T13:16:49Z</time>
      </trkpt>
      <trkpt lat="45.66044" lon="6.81862">
        <ele>2396.7</ele>
        <time>2021-03-27T13:16:50Z</time>
      </trkpt>
      <trkpt lat="45.66044" lon="6.81862">
        <ele>2396.7</ele>
        <time>2021-03-27T13:16:51Z</time>
      </trkpt>
      <trkpt lat="45.66045" lon="6.81862">
        <ele>2396.7</ele>
        <time>2021-03-27T13:16:52Z</time>
      </trkpt>
      <trkpt lat="45.66045" lon="6.81862">
        <ele>2396.7</ele>
        <time>2021-03-27T13:16:53Z</time>
      </trkpt>
      <trkpt lat="45.66046" lon="6.81861">
        <ele>2398.8</ele>
        <time>2021-03-27T13:16:54Z</time>
      </trkpt>
      <trkpt lat="45.66046" lon="6.81861">
        <ele>2398.8</ele>
        <time>2021-03-27T13:16:55Z</time>
      </trkpt>
      <trkpt lat="45.66047" lon="6.81861">
        <ele>2398.8</ele>
        <time>2021-03-27T13:16:56Z</time>
      </trkpt>
      <trkpt lat="45.66047" lon="6.81861">
        <ele>2398.8</ele>
        <time>2021-03-27T13:16:57Z</time>
      </trkpt>
      <trkpt lat="45.66048" lon="6.81861">
        <ele>2398.8</ele>
        <time>2021-03-27T13:16:58Z</time>
      </trkpt>
      <trkpt lat="45.66048" lon="6.81861">
        <ele>2398.8</ele>
        <time>2021-03-27T13:16:59Z</time>
      </trkpt>
      <trkpt lat="45.66049" lon="6.81861">
        <ele>2401</ele>
        <time>2021-03-27T13:17:00Z</time>
      </trkpt>
      <trkpt lat="45.66049" lon="6.8186">
        <ele>2400.8</ele>
        <time>2021-03-27T13:17:01Z</time>
      </trkpt>
      <trkpt lat="45.6605" lon="6.8186">
        <ele>2400.8</ele>
        <time>2021-03-27T13:17:02Z</time>
      </trkpt>
      <trkpt lat="45.6605" lon="6.8186">
        <ele>2400.8</ele>
        <time>2021-03-27T13:17:03Z</time>
      </trkpt>
      <trkpt lat="45.66051" lon="6.8186">
        <ele>2400.8</ele>
        <time>2021-03-27T13:17:04Z</time>
      </trkpt>
      <trkpt lat="45.66051" lon="6.8186">
        <ele>2400.8</ele>
        <time>2021-03-27T13:17:05Z</time>
      </trkpt>
      <trkpt lat="45.66052" lon="6.8186">
        <ele>2400.8</ele>
        <time>2021-03-27T13:17:06Z</time>
      </trkpt>
      <trkpt lat="45.66052" lon="6.8186">
        <ele>2400.8</ele>
        <time>2021-03-27T13:17:07Z</time>
      </trkpt>
      <trkpt lat="45.66052" lon="6.8186">
        <ele>2403.1</ele>
        <time>2021-03-27T13:17:08Z</time>
      </trkpt>
      <trkpt lat="45.66053" lon="6.81859">
        <ele>2403.1</ele>
        <time>2021-03-27T13:17:09Z</time>
      </trkpt>
      <trkpt lat="45.66053" lon="6.81859">
        <ele>2403.1</ele>
        <time>2021-03-27T13:17:10Z</time>
      </trkpt>
      <trkpt lat="45.66054" lon="6.81858">
        <ele>2403.1</ele>
        <time>2021-03-27T13:17:11Z</time>
      </trkpt>
      <trkpt lat="45.66054" lon="6.81858">
        <ele>2403.1</ele>
        <time>2021-03-27T13:17:12Z</time>
      </trkpt>
      <trkpt lat="45.66055" lon="6.81858">
        <ele>2405.4</ele>
        <time>2021-03-27T13:17:13Z</time>
      </trkpt>
      <trkpt lat="45.66056" lon="6.81857">
        <ele>2405.4</ele>
        <time>2021-03-27T13:17:14Z</time>
      </trkpt>
      <trkpt lat="45.66056" lon="6.81857">
        <ele>2405.4</ele>
        <time>2021-03-27T13:17:15Z</time>
      </trkpt>
      <trkpt lat="45.66057" lon="6.81856">
        <ele>2405.4</ele>
        <time>2021-03-27T13:17:26Z</time>
      </trkpt>
      <trkpt lat="45.66057" lon="6.81856">
        <ele>2405.2</ele>
        <time>2021-03-27T13:17:27Z</time>
      </trkpt>
      <trkpt lat="45.66058" lon="6.81856">
        <ele>2407.5</ele>
        <time>2021-03-27T13:17:28Z</time>
      </trkpt>
      <trkpt lat="45.66058" lon="6.81855">
        <ele>2407.5</ele>
        <time>2021-03-27T13:17:29Z</time>
      </trkpt>
      <trkpt lat="45.66059" lon="6.81855">
        <ele>2407.5</ele>
        <time>2021-03-27T13:17:30Z</time>
      </trkpt>
      <trkpt lat="45.66059" lon="6.81854">
        <ele>2407.5</ele>
        <time>2021-03-27T13:17:31Z</time>
      </trkpt>
      <trkpt lat="45.6606" lon="6.81854">
        <ele>2407.5</ele>
        <time>2021-03-27T13:17:32Z</time>
      </trkpt>
      <trkpt lat="45.66061" lon="6.81853">
        <ele>2407.5</ele>
        <time>2021-03-27T13:17:33Z</time>
      </trkpt>
      <trkpt lat="45.66061" lon="6.81853">
        <ele>2409.8</ele>
        <time>2021-03-27T13:17:34Z</time>
      </trkpt>
      <trkpt lat="45.66061" lon="6.81854">
        <ele>2409.8</ele>
        <time>2021-03-27T13:17:35Z</time>
      </trkpt>
      <trkpt lat="45.66061" lon="6.81854">
        <ele>2409.8</ele>
        <time>2021-03-27T13:17:36Z</time>
      </trkpt>
      <trkpt lat="45.66062" lon="6.81854">
        <ele>2409.8</ele>
        <time>2021-03-27T13:17:37Z</time>
      </trkpt>
      <trkpt lat="45.66062" lon="6.81854">
        <ele>2409.8</ele>
        <time>2021-03-27T13:17:38Z</time>
      </trkpt>
      <trkpt lat="45.66062" lon="6.81854">
        <ele>2409.8</ele>
        <time>2021-03-27T13:17:39Z</time>
      </trkpt>
      <trkpt lat="45.66062" lon="6.81854">
        <ele>2409.8</ele>
        <time>2021-03-27T13:17:40Z</time>
      </trkpt>
      <trkpt lat="45.66063" lon="6.81854">
        <ele>2409.8</ele>
        <time>2021-03-27T13:17:41Z</time>
      </trkpt>
      <trkpt lat="45.66063" lon="6.81854">
        <ele>2409.8</ele>
        <time>2021-03-27T13:17:42Z</time>
      </trkpt>
      <trkpt lat="45.66063" lon="6.81855">
        <ele>2409.8</ele>
        <time>2021-03-27T13:17:43Z</time>
      </trkpt>
      <trkpt lat="45.66063" lon="6.81855">
        <ele>2409.8</ele>
        <time>2021-03-27T13:17:44Z</time>
      </trkpt>
      <trkpt lat="45.66063" lon="6.81855">
        <ele>2409.8</ele>
        <time>2021-03-27T13:17:45Z</time>
      </trkpt>
      <trkpt lat="45.66064" lon="6.81855">
        <ele>2409.8</ele>
        <time>2021-03-27T13:17:46Z</time>
      </trkpt>
      <trkpt lat="45.66064" lon="6.81855">
        <ele>2412.1</ele>
        <time>2021-03-27T13:17:47Z</time>
      </trkpt>
      <trkpt lat="45.66064" lon="6.81855">
        <ele>2412.1</ele>
        <time>2021-03-27T13:18:40Z</time>
      </trkpt>
      <trkpt lat="45.66064" lon="6.81855">
        <ele>2412.1</ele>
        <time>2021-03-27T13:18:41Z</time>
      </trkpt>
      <trkpt lat="45.66065" lon="6.81855">
        <ele>2412.1</ele>
        <time>2021-03-27T13:18:42Z</time>
      </trkpt>
      <trkpt lat="45.66065" lon="6.81857">
        <ele>2412.3</ele>
        <time>2021-03-27T13:18:43Z</time>
      </trkpt>
      <trkpt lat="45.66064" lon="6.81858">
        <ele>2412.3</ele>
        <time>2021-03-27T13:18:44Z</time>
      </trkpt>
      <trkpt lat="45.66064" lon="6.8186">
        <ele>2412.3</ele>
        <time>2021-03-27T13:18:45Z</time>
      </trkpt>
      <trkpt lat="45.66064" lon="6.81861">
        <ele>2412.5</ele>
        <time>2021-03-27T13:18:46Z</time>
      </trkpt>
      <trkpt lat="45.66064" lon="6.81863">
        <ele>2410.3</ele>
        <time>2021-03-27T13:18:47Z</time>
      </trkpt>
      <trkpt lat="45.66063" lon="6.81863">
        <ele>2410.3</ele>
        <time>2021-03-27T13:18:48Z</time>
      </trkpt>
      <trkpt lat="45.66063" lon="6.81864">
        <ele>2410.3</ele>
        <time>2021-03-27T13:18:49Z</time>
      </trkpt>
      <trkpt lat="45.66063" lon="6.81865">
        <ele>2410.5</ele>
        <time>2021-03-27T13:18:50Z</time>
      </trkpt>
      <trkpt lat="45.66063" lon="6.81866">
        <ele>2410.5</ele>
        <time>2021-03-27T13:18:51Z</time>
      </trkpt>
      <trkpt lat="45.66063" lon="6.81867">
        <ele>2410.5</ele>
        <time>2021-03-27T13:18:52Z</time>
      </trkpt>
      <trkpt lat="45.66062" lon="6.81868">
        <ele>2410.5</ele>
        <time>2021-03-27T13:18:53Z</time>
      </trkpt>
      <trkpt lat="45.66062" lon="6.81868">
        <ele>2410.5</ele>
        <time>2021-03-27T13:18:54Z</time>
      </trkpt>
      <trkpt lat="45.66061" lon="6.81871">
        <ele>2410.8</ele>
        <time>2021-03-27T13:18:55Z</time>
      </trkpt>
      <trkpt lat="45.66061" lon="6.81872">
        <ele>2410.8</ele>
        <time>2021-03-27T13:18:56Z</time>
      </trkpt>
      <trkpt lat="45.66061" lon="6.81873">
        <ele>2408.5</ele>
        <time>2021-03-27T13:18:57Z</time>
      </trkpt>
      <trkpt lat="45.6606" lon="6.81874">
        <ele>2408.7</ele>
        <time>2021-03-27T13:18:58Z</time>
      </trkpt>
      <trkpt lat="45.6606" lon="6.81875">
        <ele>2408.7</ele>
        <time>2021-03-27T13:18:59Z</time>
      </trkpt>
      <trkpt lat="45.6606" lon="6.81876">
        <ele>2408.7</ele>
        <time>2021-03-27T13:19:00Z</time>
      </trkpt>
      <trkpt lat="45.6606" lon="6.81877">
        <ele>2408.7</ele>
        <time>2021-03-27T13:19:01Z</time>
      </trkpt>
      <trkpt lat="45.66059" lon="6.81878">
        <ele>2408.9</ele>
        <time>2021-03-27T13:19:02Z</time>
      </trkpt>
      <trkpt lat="45.66059" lon="6.81879">
        <ele>2408.9</ele>
        <time>2021-03-27T13:19:03Z</time>
      </trkpt>
      <trkpt lat="45.66059" lon="6.8188">
        <ele>2408.9</ele>
        <time>2021-03-27T13:19:04Z</time>
      </trkpt>
      <trkpt lat="45.66059" lon="6.81881">
        <ele>2408.9</ele>
        <time>2021-03-27T13:19:05Z</time>
      </trkpt>
      <trkpt lat="45.66059" lon="6.81883">
        <ele>2409.2</ele>
        <time>2021-03-27T13:19:06Z</time>
      </trkpt>
      <trkpt lat="45.66059" lon="6.81884">
        <ele>2409.2</ele>
        <time>2021-03-27T13:19:07Z</time>
      </trkpt>
      <trkpt lat="45.66059" lon="6.81885">
        <ele>2409.2</ele>
        <time>2021-03-27T13:19:08Z</time>
      </trkpt>
      <trkpt lat="45.66058" lon="6.81886">
        <ele>2409.2</ele>
        <time>2021-03-27T13:19:09Z</time>
      </trkpt>
      <trkpt lat="45.66058" lon="6.81887">
        <ele>2409.4</ele>
        <time>2021-03-27T13:19:10Z</time>
      </trkpt>
      <trkpt lat="45.66058" lon="6.81887">
        <ele>2409.4</ele>
        <time>2021-03-27T13:19:11Z</time>
      </trkpt>
      <trkpt lat="45.66058" lon="6.81888">
        <ele>2409.4</ele>
        <time>2021-03-27T13:19:12Z</time>
      </trkpt>
      <trkpt lat="45.66058" lon="6.81889">
        <ele>2409.4</ele>
        <time>2021-03-27T13:19:13Z</time>
      </trkpt>
      <trkpt lat="45.66058" lon="6.8189">
        <ele>2409.4</ele>
        <time>2021-03-27T13:19:14Z</time>
      </trkpt>
      <trkpt lat="45.66058" lon="6.81891">
        <ele>2409.6</ele>
        <time>2021-03-27T13:19:15Z</time>
      </trkpt>
      <trkpt lat="45.66058" lon="6.81892">
        <ele>2409.6</ele>
        <time>2021-03-27T13:19:16Z</time>
      </trkpt>
      <trkpt lat="45.66058" lon="6.81893">
        <ele>2409.6</ele>
        <time>2021-03-27T13:19:17Z</time>
      </trkpt>
      <trkpt lat="45.66058" lon="6.81894">
        <ele>2409.6</ele>
        <time>2021-03-27T13:19:18Z</time>
      </trkpt>
      <trkpt lat="45.66058" lon="6.81895">
        <ele>2409.6</ele>
        <time>2021-03-27T13:19:19Z</time>
      </trkpt>
      <trkpt lat="45.66058" lon="6.81895">
        <ele>2409.8</ele>
        <time>2021-03-27T13:19:20Z</time>
      </trkpt>
      <trkpt lat="45.66058" lon="6.81896">
        <ele>2409.8</ele>
        <time>2021-03-27T13:19:21Z</time>
      </trkpt>
      <trkpt lat="45.66058" lon="6.81897">
        <ele>2409.8</ele>
        <time>2021-03-27T13:19:22Z</time>
      </trkpt>
      <trkpt lat="45.66058" lon="6.81898">
        <ele>2409.8</ele>
        <time>2021-03-27T13:19:23Z</time>
      </trkpt>
      <trkpt lat="45.66058" lon="6.81899">
        <ele>2409.8</ele>
        <time>2021-03-27T13:19:24Z</time>
      </trkpt>
      <trkpt lat="45.66058" lon="6.81899">
        <ele>2410</ele>
        <time>2021-03-27T13:19:25Z</time>
      </trkpt>
      <trkpt lat="45.66058" lon="6.819">
        <ele>2410</ele>
        <time>2021-03-27T13:19:26Z</time>
      </trkpt>
      <trkpt lat="45.66058" lon="6.81901">
        <ele>2410</ele>
        <time>2021-03-27T13:19:27Z</time>
      </trkpt>
      <trkpt lat="45.66058" lon="6.81902">
        <ele>2410</ele>
        <time>2021-03-27T13:19:28Z</time>
      </trkpt>
      <trkpt lat="45.66058" lon="6.81903">
        <ele>2410</ele>
        <time>2021-03-27T13:19:29Z</time>
      </trkpt>
      <trkpt lat="45.66058" lon="6.81903">
        <ele>2410</ele>
        <time>2021-03-27T13:19:30Z</time>
      </trkpt>
      <trkpt lat="45.66059" lon="6.81904">
        <ele>2410.1</ele>
        <time>2021-03-27T13:19:31Z</time>
      </trkpt>
      <trkpt lat="45.66059" lon="6.81905">
        <ele>2410.1</ele>
        <time>2021-03-27T13:19:32Z</time>
      </trkpt>
      <trkpt lat="45.66059" lon="6.81905">
        <ele>2410.1</ele>
        <time>2021-03-27T13:19:33Z</time>
      </trkpt>
      <trkpt lat="45.6606" lon="6.81906">
        <ele>2410.1</ele>
        <time>2021-03-27T13:19:34Z</time>
      </trkpt>
      <trkpt lat="45.6606" lon="6.81906">
        <ele>2410.1</ele>
        <time>2021-03-27T13:19:35Z</time>
      </trkpt>
      <trkpt lat="45.6606" lon="6.81907">
        <ele>2410.1</ele>
        <time>2021-03-27T13:19:36Z</time>
      </trkpt>
      <trkpt lat="45.6606" lon="6.81908">
        <ele>2410.3</ele>
        <time>2021-03-27T13:19:37Z</time>
      </trkpt>
      <trkpt lat="45.6606" lon="6.81909">
        <ele>2410.3</ele>
        <time>2021-03-27T13:19:38Z</time>
      </trkpt>
      <trkpt lat="45.66061" lon="6.81909">
        <ele>2410.3</ele>
        <time>2021-03-27T13:19:39Z</time>
      </trkpt>
      <trkpt lat="45.66061" lon="6.8191">
        <ele>2410.3</ele>
        <time>2021-03-27T13:19:40Z</time>
      </trkpt>
      <trkpt lat="45.6606" lon="6.8191">
        <ele>2410.3</ele>
        <time>2021-03-27T13:19:41Z</time>
      </trkpt>
      <trkpt lat="45.6606" lon="6.81911">
        <ele>2410.3</ele>
        <time>2021-03-27T13:19:42Z</time>
      </trkpt>
      <trkpt lat="45.6606" lon="6.81912">
        <ele>2410.3</ele>
        <time>2021-03-27T13:19:43Z</time>
      </trkpt>
      <trkpt lat="45.6606" lon="6.81912">
        <ele>2410.4</ele>
        <time>2021-03-27T13:19:44Z</time>
      </trkpt>
      <trkpt lat="45.6606" lon="6.81913">
        <ele>2410.4</ele>
        <time>2021-03-27T13:19:45Z</time>
      </trkpt>
      <trkpt lat="45.6606" lon="6.81914">
        <ele>2410.4</ele>
        <time>2021-03-27T13:19:46Z</time>
      </trkpt>
      <trkpt lat="45.66061" lon="6.81915">
        <ele>2410.4</ele>
        <time>2021-03-27T13:19:47Z</time>
      </trkpt>
      <trkpt lat="45.66061" lon="6.81915">
        <ele>2410.4</ele>
        <time>2021-03-27T13:19:48Z</time>
      </trkpt>
      <trkpt lat="45.66061" lon="6.81916">
        <ele>2410.4</ele>
        <time>2021-03-27T13:19:49Z</time>
      </trkpt>
      <trkpt lat="45.66061" lon="6.81917">
        <ele>2410.5</ele>
        <time>2021-03-27T13:19:50Z</time>
      </trkpt>
      <trkpt lat="45.66061" lon="6.81918">
        <ele>2410.5</ele>
        <time>2021-03-27T13:19:51Z</time>
      </trkpt>
      <trkpt lat="45.66061" lon="6.81918">
        <ele>2410.5</ele>
        <time>2021-03-27T13:19:52Z</time>
      </trkpt>
      <trkpt lat="45.6606" lon="6.81919">
        <ele>2410.5</ele>
        <time>2021-03-27T13:19:53Z</time>
      </trkpt>
      <trkpt lat="45.6606" lon="6.8192">
        <ele>2410.5</ele>
        <time>2021-03-27T13:19:54Z</time>
      </trkpt>
      <trkpt lat="45.66061" lon="6.81921">
        <ele>2410.5</ele>
        <time>2021-03-27T13:19:55Z</time>
      </trkpt>
      <trkpt lat="45.66061" lon="6.81921">
        <ele>2410.5</ele>
        <time>2021-03-27T13:19:56Z</time>
      </trkpt>
      <trkpt lat="45.66061" lon="6.81922">
        <ele>2410.5</ele>
        <time>2021-03-27T13:19:57Z</time>
      </trkpt>
      <trkpt lat="45.66061" lon="6.81922">
        <ele>2410.5</ele>
        <time>2021-03-27T13:19:58Z</time>
      </trkpt>
      <trkpt lat="45.66061" lon="6.81922">
        <ele>2410.5</ele>
        <time>2021-03-27T13:19:59Z</time>
      </trkpt>
      <trkpt lat="45.66061" lon="6.81922">
        <ele>2410.5</ele>
        <time>2021-03-27T13:20:00Z</time>
      </trkpt>
      <trkpt lat="45.6606" lon="6.81924">
        <ele>2410.5</ele>
        <time>2021-03-27T13:20:01Z</time>
      </trkpt>
      <trkpt lat="45.6606" lon="6.81924">
        <ele>2410.5</ele>
        <time>2021-03-27T13:20:02Z</time>
      </trkpt>
      <trkpt lat="45.66061" lon="6.81924">
        <ele>2410.5</ele>
        <time>2021-03-27T13:20:03Z</time>
      </trkpt>
      <trkpt lat="45.66061" lon="6.81923">
        <ele>2412.6</ele>
        <time>2021-03-27T13:20:04Z</time>
      </trkpt>
      <trkpt lat="45.66061" lon="6.81923">
        <ele>2412.6</ele>
        <time>2021-03-27T13:20:05Z</time>
      </trkpt>
      <trkpt lat="45.66062" lon="6.81922">
        <ele>2412.6</ele>
        <time>2021-03-27T13:20:06Z</time>
      </trkpt>
      <trkpt lat="45.66062" lon="6.81922">
        <ele>2412.6</ele>
        <time>2021-03-27T13:20:07Z</time>
      </trkpt>
      <trkpt lat="45.66062" lon="6.81921">
        <ele>2412.6</ele>
        <time>2021-03-27T13:20:08Z</time>
      </trkpt>
      <trkpt lat="45.66063" lon="6.81921">
        <ele>2412.6</ele>
        <time>2021-03-27T13:20:09Z</time>
      </trkpt>
      <trkpt lat="45.66063" lon="6.8192">
        <ele>2412.6</ele>
        <time>2021-03-27T13:20:10Z</time>
      </trkpt>
      <trkpt lat="45.66063" lon="6.8192">
        <ele>2412.6</ele>
        <time>2021-03-27T13:20:11Z</time>
      </trkpt>
      <trkpt lat="45.66063" lon="6.81919">
        <ele>2412.6</ele>
        <time>2021-03-27T13:20:12Z</time>
      </trkpt>
      <trkpt lat="45.66064" lon="6.81919">
        <ele>2412.6</ele>
        <time>2021-03-27T13:20:13Z</time>
      </trkpt>
      <trkpt lat="45.66064" lon="6.81918">
        <ele>2414.6</ele>
        <time>2021-03-27T13:20:17Z</time>
      </trkpt>
      <trkpt lat="45.66064" lon="6.81918">
        <ele>2414.6</ele>
        <time>2021-03-27T13:20:18Z</time>
      </trkpt>
      <trkpt lat="45.66065" lon="6.81918">
        <ele>2414.6</ele>
        <time>2021-03-27T13:20:19Z</time>
      </trkpt>
      <trkpt lat="45.66065" lon="6.81917">
        <ele>2414.6</ele>
        <time>2021-03-27T13:20:20Z</time>
      </trkpt>
      <trkpt lat="45.66066" lon="6.81917">
        <ele>2414.6</ele>
        <time>2021-03-27T13:20:21Z</time>
      </trkpt>
      <trkpt lat="45.66067" lon="6.81916">
        <ele>2414.6</ele>
        <time>2021-03-27T13:20:22Z</time>
      </trkpt>
      <trkpt lat="45.66067" lon="6.81916">
        <ele>2416.5</ele>
        <time>2021-03-27T13:20:23Z</time>
      </trkpt>
      <trkpt lat="45.66068" lon="6.81915">
        <ele>2416.5</ele>
        <time>2021-03-27T13:20:24Z</time>
      </trkpt>
      <trkpt lat="45.66068" lon="6.81915">
        <ele>2416.5</ele>
        <time>2021-03-27T13:20:25Z</time>
      </trkpt>
      <trkpt lat="45.66069" lon="6.81914">
        <ele>2416.5</ele>
        <time>2021-03-27T13:20:26Z</time>
      </trkpt>
      <trkpt lat="45.66069" lon="6.81914">
        <ele>2416.5</ele>
        <time>2021-03-27T13:20:27Z</time>
      </trkpt>
      <trkpt lat="45.66069" lon="6.81913">
        <ele>2416.5</ele>
        <time>2021-03-27T13:20:28Z</time>
      </trkpt>
      <trkpt lat="45.66069" lon="6.81913">
        <ele>2416.5</ele>
        <time>2021-03-27T13:20:29Z</time>
      </trkpt>
      <trkpt lat="45.6607" lon="6.81912">
        <ele>2416.5</ele>
        <time>2021-03-27T13:20:30Z</time>
      </trkpt>
      <trkpt lat="45.6607" lon="6.81911">
        <ele>2416.5</ele>
        <time>2021-03-27T13:20:31Z</time>
      </trkpt>
      <trkpt lat="45.6607" lon="6.81911">
        <ele>2418.4</ele>
        <time>2021-03-27T13:20:32Z</time>
      </trkpt>
      <trkpt lat="45.6607" lon="6.81911">
        <ele>2418.4</ele>
        <time>2021-03-27T13:20:33Z</time>
      </trkpt>
      <trkpt lat="45.6607" lon="6.81911">
        <ele>2418.4</ele>
        <time>2021-03-27T13:20:34Z</time>
      </trkpt>
      <trkpt lat="45.66071" lon="6.8191">
        <ele>2418.4</ele>
        <time>2021-03-27T13:20:35Z</time>
      </trkpt>
      <trkpt lat="45.66072" lon="6.8191">
        <ele>2418.4</ele>
        <time>2021-03-27T13:20:36Z</time>
      </trkpt>
      <trkpt lat="45.66072" lon="6.8191">
        <ele>2418.4</ele>
        <time>2021-03-27T13:20:37Z</time>
      </trkpt>
      <trkpt lat="45.66073" lon="6.8191">
        <ele>2418.4</ele>
        <time>2021-03-27T13:20:38Z</time>
      </trkpt>
      <trkpt lat="45.66073" lon="6.81909">
        <ele>2420.2</ele>
        <time>2021-03-27T13:20:39Z</time>
      </trkpt>
      <trkpt lat="45.66073" lon="6.81909">
        <ele>2420.2</ele>
        <time>2021-03-27T13:20:40Z</time>
      </trkpt>
      <trkpt lat="45.66074" lon="6.81909">
        <ele>2420.2</ele>
        <time>2021-03-27T13:20:41Z</time>
      </trkpt>
      <trkpt lat="45.66074" lon="6.81908">
        <ele>2420.2</ele>
        <time>2021-03-27T13:20:42Z</time>
      </trkpt>
      <trkpt lat="45.66074" lon="6.81908">
        <ele>2420.2</ele>
        <time>2021-03-27T13:20:43Z</time>
      </trkpt>
      <trkpt lat="45.66075" lon="6.81908">
        <ele>2420.2</ele>
        <time>2021-03-27T13:20:44Z</time>
      </trkpt>
      <trkpt lat="45.66075" lon="6.81908">
        <ele>2420.2</ele>
        <time>2021-03-27T13:20:45Z</time>
      </trkpt>
      <trkpt lat="45.66076" lon="6.81907">
        <ele>2420.2</ele>
        <time>2021-03-27T13:20:46Z</time>
      </trkpt>
      <trkpt lat="45.66076" lon="6.81907">
        <ele>2422.1</ele>
        <time>2021-03-27T13:20:47Z</time>
      </trkpt>
      <trkpt lat="45.66076" lon="6.81906">
        <ele>2422.1</ele>
        <time>2021-03-27T13:20:48Z</time>
      </trkpt>
      <trkpt lat="45.66076" lon="6.81905">
        <ele>2422.1</ele>
        <time>2021-03-27T13:20:49Z</time>
      </trkpt>
      <trkpt lat="45.66077" lon="6.81905">
        <ele>2422.1</ele>
        <time>2021-03-27T13:20:50Z</time>
      </trkpt>
      <trkpt lat="45.66077" lon="6.81905">
        <ele>2422.1</ele>
        <time>2021-03-27T13:20:51Z</time>
      </trkpt>
      <trkpt lat="45.66077" lon="6.81905">
        <ele>2422.1</ele>
        <time>2021-03-27T13:20:52Z</time>
      </trkpt>
      <trkpt lat="45.66078" lon="6.81904">
        <ele>2422.1</ele>
        <time>2021-03-27T13:20:53Z</time>
      </trkpt>
      <trkpt lat="45.66078" lon="6.81904">
        <ele>2422.1</ele>
        <time>2021-03-27T13:20:54Z</time>
      </trkpt>
      <trkpt lat="45.66079" lon="6.81904">
        <ele>2424.1</ele>
        <time>2021-03-27T13:20:55Z</time>
      </trkpt>
      <trkpt lat="45.6608" lon="6.81904">
        <ele>2424.1</ele>
        <time>2021-03-27T13:20:56Z</time>
      </trkpt>
      <trkpt lat="45.6608" lon="6.81903">
        <ele>2424</ele>
        <time>2021-03-27T13:20:57Z</time>
      </trkpt>
      <trkpt lat="45.66081" lon="6.81903">
        <ele>2424</ele>
        <time>2021-03-27T13:20:58Z</time>
      </trkpt>
      <trkpt lat="45.66081" lon="6.81903">
        <ele>2424</ele>
        <time>2021-03-27T13:20:59Z</time>
      </trkpt>
      <trkpt lat="45.66082" lon="6.81902">
        <ele>2424</ele>
        <time>2021-03-27T13:21:00Z</time>
      </trkpt>
      <trkpt lat="45.66082" lon="6.81902">
        <ele>2426.1</ele>
        <time>2021-03-27T13:21:01Z</time>
      </trkpt>
      <trkpt lat="45.66083" lon="6.81902">
        <ele>2426.1</ele>
        <time>2021-03-27T13:21:02Z</time>
      </trkpt>
      <trkpt lat="45.66084" lon="6.81902">
        <ele>2426.1</ele>
        <time>2021-03-27T13:21:03Z</time>
      </trkpt>
      <trkpt lat="45.66084" lon="6.81901">
        <ele>2426.1</ele>
        <time>2021-03-27T13:21:04Z</time>
      </trkpt>
      <trkpt lat="45.66084" lon="6.81901">
        <ele>2426.1</ele>
        <time>2021-03-27T13:21:05Z</time>
      </trkpt>
      <trkpt lat="45.66085" lon="6.819">
        <ele>2426.1</ele>
        <time>2021-03-27T13:21:06Z</time>
      </trkpt>
      <trkpt lat="45.66085" lon="6.81899">
        <ele>2428.2</ele>
        <time>2021-03-27T13:21:07Z</time>
      </trkpt>
      <trkpt lat="45.66085" lon="6.81899">
        <ele>2428.2</ele>
        <time>2021-03-27T13:21:08Z</time>
      </trkpt>
      <trkpt lat="45.66085" lon="6.81899">
        <ele>2428.1</ele>
        <time>2021-03-27T13:21:09Z</time>
      </trkpt>
      <trkpt lat="45.66085" lon="6.81898">
        <ele>2428.1</ele>
        <time>2021-03-27T13:21:10Z</time>
      </trkpt>
      <trkpt lat="45.66086" lon="6.81898">
        <ele>2428.1</ele>
        <time>2021-03-27T13:21:11Z</time>
      </trkpt>
      <trkpt lat="45.66086" lon="6.81898">
        <ele>2428.1</ele>
        <time>2021-03-27T13:21:12Z</time>
      </trkpt>
      <trkpt lat="45.66087" lon="6.81898">
        <ele>2428.1</ele>
        <time>2021-03-27T13:21:13Z</time>
      </trkpt>
      <trkpt lat="45.66087" lon="6.81897">
        <ele>2428.1</ele>
        <time>2021-03-27T13:21:14Z</time>
      </trkpt>
      <trkpt lat="45.66088" lon="6.81897">
        <ele>2428.1</ele>
        <time>2021-03-27T13:21:15Z</time>
      </trkpt>
      <trkpt lat="45.66088" lon="6.81897">
        <ele>2430.1</ele>
        <time>2021-03-27T13:21:16Z</time>
      </trkpt>
      <trkpt lat="45.66088" lon="6.81897">
        <ele>2430.1</ele>
        <time>2021-03-27T13:21:17Z</time>
      </trkpt>
      <trkpt lat="45.66088" lon="6.81896">
        <ele>2430.1</ele>
        <time>2021-03-27T13:21:18Z</time>
      </trkpt>
      <trkpt lat="45.66089" lon="6.81895">
        <ele>2430.1</ele>
        <time>2021-03-27T13:21:19Z</time>
      </trkpt>
      <trkpt lat="45.66089" lon="6.81895">
        <ele>2430.1</ele>
        <time>2021-03-27T13:21:20Z</time>
      </trkpt>
      <trkpt lat="45.6609" lon="6.81894">
        <ele>2430</ele>
        <time>2021-03-27T13:21:21Z</time>
      </trkpt>
      <trkpt lat="45.66091" lon="6.81894">
        <ele>2430</ele>
        <time>2021-03-27T13:21:22Z</time>
      </trkpt>
      <trkpt lat="45.66091" lon="6.81894">
        <ele>2430</ele>
        <time>2021-03-27T13:21:23Z</time>
      </trkpt>
      <trkpt lat="45.66091" lon="6.81893">
        <ele>2430</ele>
        <time>2021-03-27T13:21:24Z</time>
      </trkpt>
      <trkpt lat="45.6609" lon="6.81892">
        <ele>2430</ele>
        <time>2021-03-27T13:21:25Z</time>
      </trkpt>
      <trkpt lat="45.6609" lon="6.81892">
        <ele>2430</ele>
        <time>2021-03-27T13:21:26Z</time>
      </trkpt>
      <trkpt lat="45.66091" lon="6.81891">
        <ele>2430</ele>
        <time>2021-03-27T13:21:27Z</time>
      </trkpt>
      <trkpt lat="45.66091" lon="6.81891">
        <ele>2430</ele>
        <time>2021-03-27T13:21:28Z</time>
      </trkpt>
      <trkpt lat="45.66091" lon="6.8189">
        <ele>2430</ele>
        <time>2021-03-27T13:21:29Z</time>
      </trkpt>
      <trkpt lat="45.66091" lon="6.8189">
        <ele>2430</ele>
        <time>2021-03-27T13:21:30Z</time>
      </trkpt>
      <trkpt lat="45.66091" lon="6.8189">
        <ele>2431.7</ele>
        <time>2021-03-27T13:21:31Z</time>
      </trkpt>
      <trkpt lat="45.66092" lon="6.81889">
        <ele>2431.7</ele>
        <time>2021-03-27T13:21:32Z</time>
      </trkpt>
      <trkpt lat="45.66092" lon="6.81889">
        <ele>2431.7</ele>
        <time>2021-03-27T13:21:33Z</time>
      </trkpt>
      <trkpt lat="45.66092" lon="6.81889">
        <ele>2431.7</ele>
        <time>2021-03-27T13:21:34Z</time>
      </trkpt>
      <trkpt lat="45.66093" lon="6.81889">
        <ele>2431.7</ele>
        <time>2021-03-27T13:21:35Z</time>
      </trkpt>
      <trkpt lat="45.66093" lon="6.81888">
        <ele>2431.7</ele>
        <time>2021-03-27T13:21:36Z</time>
      </trkpt>
      <trkpt lat="45.66093" lon="6.81888">
        <ele>2431.7</ele>
        <time>2021-03-27T13:21:37Z</time>
      </trkpt>
      <trkpt lat="45.66093" lon="6.81888">
        <ele>2431.7</ele>
        <time>2021-03-27T13:21:38Z</time>
      </trkpt>
      <trkpt lat="45.66093" lon="6.81887">
        <ele>2431.7</ele>
        <time>2021-03-27T13:21:39Z</time>
      </trkpt>
      <trkpt lat="45.66094" lon="6.81887">
        <ele>2433.3</ele>
        <time>2021-03-27T13:21:40Z</time>
      </trkpt>
      <trkpt lat="45.66095" lon="6.81886">
        <ele>2433.3</ele>
        <time>2021-03-27T13:21:41Z</time>
      </trkpt>
      <trkpt lat="45.66096" lon="6.81886">
        <ele>2433.3</ele>
        <time>2021-03-27T13:21:42Z</time>
      </trkpt>
      <trkpt lat="45.66097" lon="6.81886">
        <ele>2433.3</ele>
        <time>2021-03-27T13:21:43Z</time>
      </trkpt>
      <trkpt lat="45.66097" lon="6.81885">
        <ele>2434.8</ele>
        <time>2021-03-27T13:21:44Z</time>
      </trkpt>
      <trkpt lat="45.66098" lon="6.81885">
        <ele>2434.8</ele>
        <time>2021-03-27T13:21:45Z</time>
      </trkpt>
      <trkpt lat="45.66098" lon="6.81885">
        <ele>2434.8</ele>
        <time>2021-03-27T13:21:46Z</time>
      </trkpt>
      <trkpt lat="45.66098" lon="6.81886">
        <ele>2434.8</ele>
        <time>2021-03-27T13:21:47Z</time>
      </trkpt>
      <trkpt lat="45.66099" lon="6.81886">
        <ele>2434.8</ele>
        <time>2021-03-27T13:21:48Z</time>
      </trkpt>
      <trkpt lat="45.66099" lon="6.81886">
        <ele>2434.8</ele>
        <time>2021-03-27T13:21:49Z</time>
      </trkpt>
      <trkpt lat="45.66099" lon="6.81887">
        <ele>2434.8</ele>
        <time>2021-03-27T13:21:50Z</time>
      </trkpt>
      <trkpt lat="45.66099" lon="6.81887">
        <ele>2434.8</ele>
        <time>2021-03-27T13:21:51Z</time>
      </trkpt>
      <trkpt lat="45.66099" lon="6.81888">
        <ele>2434.8</ele>
        <time>2021-03-27T13:21:52Z</time>
      </trkpt>
      <trkpt lat="45.66099" lon="6.81888">
        <ele>2434.8</ele>
        <time>2021-03-27T13:21:53Z</time>
      </trkpt>
      <trkpt lat="45.661" lon="6.81889">
        <ele>2434.8</ele>
        <time>2021-03-27T13:21:54Z</time>
      </trkpt>
      <trkpt lat="45.661" lon="6.81889">
        <ele>2436.3</ele>
        <time>2021-03-27T13:22:22Z</time>
      </trkpt>
      <trkpt lat="45.661" lon="6.8189">
        <ele>2436.3</ele>
        <time>2021-03-27T13:22:23Z</time>
      </trkpt>
      <trkpt lat="45.661" lon="6.8189">
        <ele>2436.3</ele>
        <time>2021-03-27T13:22:24Z</time>
      </trkpt>
      <trkpt lat="45.661" lon="6.81891">
        <ele>2436.3</ele>
        <time>2021-03-27T13:22:25Z</time>
      </trkpt>
      <trkpt lat="45.661" lon="6.81892">
        <ele>2436.3</ele>
        <time>2021-03-27T13:22:26Z</time>
      </trkpt>
      <trkpt lat="45.661" lon="6.81892">
        <ele>2436.3</ele>
        <time>2021-03-27T13:22:27Z</time>
      </trkpt>
      <trkpt lat="45.66101" lon="6.81892">
        <ele>2436.3</ele>
        <time>2021-03-27T13:22:28Z</time>
      </trkpt>
      <trkpt lat="45.66101" lon="6.81893">
        <ele>2436.3</ele>
        <time>2021-03-27T13:22:29Z</time>
      </trkpt>
      <trkpt lat="45.66101" lon="6.81893">
        <ele>2436.3</ele>
        <time>2021-03-27T13:22:30Z</time>
      </trkpt>
      <trkpt lat="45.66101" lon="6.81894">
        <ele>2436.3</ele>
        <time>2021-03-27T13:22:31Z</time>
      </trkpt>
      <trkpt lat="45.66101" lon="6.81895">
        <ele>2436.3</ele>
        <time>2021-03-27T13:22:32Z</time>
      </trkpt>
      <trkpt lat="45.66101" lon="6.81898">
        <ele>2436.2</ele>
        <time>2021-03-27T13:22:33Z</time>
      </trkpt>
      <trkpt lat="45.66101" lon="6.819">
        <ele>2436.2</ele>
        <time>2021-03-27T13:22:34Z</time>
      </trkpt>
      <trkpt lat="45.66101" lon="6.81902">
        <ele>2436.2</ele>
        <time>2021-03-27T13:22:35Z</time>
      </trkpt>
      <trkpt lat="45.66101" lon="6.81904">
        <ele>2436</ele>
        <time>2021-03-27T13:22:36Z</time>
      </trkpt>
      <trkpt lat="45.66101" lon="6.81906">
        <ele>2436</ele>
        <time>2021-03-27T13:22:44Z</time>
      </trkpt>
      <trkpt lat="45.66101" lon="6.81908">
        <ele>2435.9</ele>
        <time>2021-03-27T13:22:45Z</time>
      </trkpt>
      <trkpt lat="45.66102" lon="6.81911">
        <ele>2435.9</ele>
        <time>2021-03-27T13:22:46Z</time>
      </trkpt>
      <trkpt lat="45.66102" lon="6.81912">
        <ele>2435.9</ele>
        <time>2021-03-27T13:22:47Z</time>
      </trkpt>
      <trkpt lat="45.66102" lon="6.81914">
        <ele>2435.8</ele>
        <time>2021-03-27T13:22:48Z</time>
      </trkpt>
      <trkpt lat="45.66103" lon="6.81915">
        <ele>2435.8</ele>
        <time>2021-03-27T13:22:49Z</time>
      </trkpt>
      <trkpt lat="45.66103" lon="6.81915">
        <ele>2435.8</ele>
        <time>2021-03-27T13:22:50Z</time>
      </trkpt>
      <trkpt lat="45.66103" lon="6.81916">
        <ele>2435.8</ele>
        <time>2021-03-27T13:22:51Z</time>
      </trkpt>
      <trkpt lat="45.66103" lon="6.81917">
        <ele>2435.6</ele>
        <time>2021-03-27T13:22:52Z</time>
      </trkpt>
      <trkpt lat="45.66103" lon="6.81917">
        <ele>2435.6</ele>
        <time>2021-03-27T13:22:53Z</time>
      </trkpt>
      <trkpt lat="45.66103" lon="6.81918">
        <ele>2437.1</ele>
        <time>2021-03-27T13:22:54Z</time>
      </trkpt>
      <trkpt lat="45.66103" lon="6.81919">
        <ele>2437.1</ele>
        <time>2021-03-27T13:22:55Z</time>
      </trkpt>
      <trkpt lat="45.66104" lon="6.81919">
        <ele>2437.1</ele>
        <time>2021-03-27T13:22:56Z</time>
      </trkpt>
      <trkpt lat="45.66104" lon="6.8192">
        <ele>2437.1</ele>
        <time>2021-03-27T13:22:57Z</time>
      </trkpt>
      <trkpt lat="45.66104" lon="6.81921">
        <ele>2436.9</ele>
        <time>2021-03-27T13:22:58Z</time>
      </trkpt>
      <trkpt lat="45.66104" lon="6.81922">
        <ele>2436.9</ele>
        <time>2021-03-27T13:22:59Z</time>
      </trkpt>
      <trkpt lat="45.66104" lon="6.81922">
        <ele>2436.9</ele>
        <time>2021-03-27T13:23:00Z</time>
      </trkpt>
      <trkpt lat="45.66104" lon="6.81923">
        <ele>2436.9</ele>
        <time>2021-03-27T13:23:01Z</time>
      </trkpt>
      <trkpt lat="45.66105" lon="6.81924">
        <ele>2436.9</ele>
        <time>2021-03-27T13:23:02Z</time>
      </trkpt>
      <trkpt lat="45.66105" lon="6.81924">
        <ele>2436.9</ele>
        <time>2021-03-27T13:23:03Z</time>
      </trkpt>
      <trkpt lat="45.66105" lon="6.81925">
        <ele>2436.7</ele>
        <time>2021-03-27T13:23:04Z</time>
      </trkpt>
      <trkpt lat="45.66105" lon="6.81926">
        <ele>2436.7</ele>
        <time>2021-03-27T13:23:05Z</time>
      </trkpt>
      <trkpt lat="45.66105" lon="6.81927">
        <ele>2436.7</ele>
        <time>2021-03-27T13:23:06Z</time>
      </trkpt>
      <trkpt lat="45.66105" lon="6.81928">
        <ele>2436.7</ele>
        <time>2021-03-27T13:23:07Z</time>
      </trkpt>
      <trkpt lat="45.66105" lon="6.81929">
        <ele>2436.7</ele>
        <time>2021-03-27T13:23:08Z</time>
      </trkpt>
      <trkpt lat="45.66105" lon="6.8193">
        <ele>2436.4</ele>
        <time>2021-03-27T13:23:09Z</time>
      </trkpt>
      <trkpt lat="45.66105" lon="6.8193">
        <ele>2436.4</ele>
        <time>2021-03-27T13:23:10Z</time>
      </trkpt>
      <trkpt lat="45.66105" lon="6.81931">
        <ele>2436.4</ele>
        <time>2021-03-27T13:23:11Z</time>
      </trkpt>
      <trkpt lat="45.66105" lon="6.81932">
        <ele>2436.4</ele>
        <time>2021-03-27T13:23:12Z</time>
      </trkpt>
      <trkpt lat="45.66106" lon="6.81932">
        <ele>2436.4</ele>
        <time>2021-03-27T13:23:13Z</time>
      </trkpt>
      <trkpt lat="45.66106" lon="6.81933">
        <ele>2436.4</ele>
        <time>2021-03-27T13:23:14Z</time>
      </trkpt>
      <trkpt lat="45.66106" lon="6.81934">
        <ele>2436.2</ele>
        <time>2021-03-27T13:23:15Z</time>
      </trkpt>
      <trkpt lat="45.66106" lon="6.81935">
        <ele>2436.2</ele>
        <time>2021-03-27T13:23:16Z</time>
      </trkpt>
      <trkpt lat="45.66106" lon="6.81936">
        <ele>2437.7</ele>
        <time>2021-03-27T13:23:17Z</time>
      </trkpt>
      <trkpt lat="45.66106" lon="6.81936">
        <ele>2437.7</ele>
        <time>2021-03-27T13:23:18Z</time>
      </trkpt>
      <trkpt lat="45.66106" lon="6.81937">
        <ele>2437.7</ele>
        <time>2021-03-27T13:23:19Z</time>
      </trkpt>
      <trkpt lat="45.66107" lon="6.81937">
        <ele>2437.7</ele>
        <time>2021-03-27T13:23:20Z</time>
      </trkpt>
      <trkpt lat="45.66107" lon="6.81938">
        <ele>2437.5</ele>
        <time>2021-03-27T13:23:21Z</time>
      </trkpt>
      <trkpt lat="45.66107" lon="6.81939">
        <ele>2437.5</ele>
        <time>2021-03-27T13:23:22Z</time>
      </trkpt>
      <trkpt lat="45.66107" lon="6.8194">
        <ele>2437.5</ele>
        <time>2021-03-27T13:23:23Z</time>
      </trkpt>
      <trkpt lat="45.66107" lon="6.8194">
        <ele>2437.5</ele>
        <time>2021-03-27T13:23:24Z</time>
      </trkpt>
      <trkpt lat="45.66108" lon="6.81941">
        <ele>2437.5</ele>
        <time>2021-03-27T13:23:25Z</time>
      </trkpt>
      <trkpt lat="45.66108" lon="6.81941">
        <ele>2437.5</ele>
        <time>2021-03-27T13:23:26Z</time>
      </trkpt>
      <trkpt lat="45.66109" lon="6.81941">
        <ele>2439</ele>
        <time>2021-03-27T13:23:27Z</time>
      </trkpt>
      <trkpt lat="45.6611" lon="6.81941">
        <ele>2439</ele>
        <time>2021-03-27T13:23:28Z</time>
      </trkpt>
      <trkpt lat="45.6611" lon="6.81941">
        <ele>2439</ele>
        <time>2021-03-27T13:23:29Z</time>
      </trkpt>
      <trkpt lat="45.66111" lon="6.8194">
        <ele>2439</ele>
        <time>2021-03-27T13:23:30Z</time>
      </trkpt>
      <trkpt lat="45.66111" lon="6.8194">
        <ele>2439</ele>
        <time>2021-03-27T13:23:31Z</time>
      </trkpt>
      <trkpt lat="45.66111" lon="6.81939">
        <ele>2439</ele>
        <time>2021-03-27T13:23:32Z</time>
      </trkpt>
      <trkpt lat="45.66112" lon="6.81939">
        <ele>2439</ele>
        <time>2021-03-27T13:23:33Z</time>
      </trkpt>
      <trkpt lat="45.66112" lon="6.81939">
        <ele>2440.5</ele>
        <time>2021-03-27T13:23:34Z</time>
      </trkpt>
      <trkpt lat="45.66113" lon="6.81938">
        <ele>2440.5</ele>
        <time>2021-03-27T13:23:35Z</time>
      </trkpt>
      <trkpt lat="45.66114" lon="6.81938">
        <ele>2440.5</ele>
        <time>2021-03-27T13:23:36Z</time>
      </trkpt>
      <trkpt lat="45.66114" lon="6.81937">
        <ele>2440.8</ele>
        <time>2021-03-27T13:23:37Z</time>
      </trkpt>
      <trkpt lat="45.66115" lon="6.81936">
        <ele>2442.2</ele>
        <time>2021-03-27T13:23:38Z</time>
      </trkpt>
      <trkpt lat="45.66116" lon="6.81936">
        <ele>2442.2</ele>
        <time>2021-03-27T13:23:39Z</time>
      </trkpt>
      <trkpt lat="45.66117" lon="6.81935">
        <ele>2442.2</ele>
        <time>2021-03-27T13:23:40Z</time>
      </trkpt>
      <trkpt lat="45.66117" lon="6.81935">
        <ele>2442.2</ele>
        <time>2021-03-27T13:23:41Z</time>
      </trkpt>
      <trkpt lat="45.66118" lon="6.81935">
        <ele>2443.4</ele>
        <time>2021-03-27T13:23:42Z</time>
      </trkpt>
      <trkpt lat="45.66119" lon="6.81934">
        <ele>2443.4</ele>
        <time>2021-03-27T13:23:43Z</time>
      </trkpt>
      <trkpt lat="45.66119" lon="6.81934">
        <ele>2443.4</ele>
        <time>2021-03-27T13:23:44Z</time>
      </trkpt>
      <trkpt lat="45.6612" lon="6.81934">
        <ele>2443.4</ele>
        <time>2021-03-27T13:23:45Z</time>
      </trkpt>
      <trkpt lat="45.66121" lon="6.81934">
        <ele>2443.4</ele>
        <time>2021-03-27T13:23:46Z</time>
      </trkpt>
      <trkpt lat="45.66121" lon="6.81934">
        <ele>2444.7</ele>
        <time>2021-03-27T13:23:47Z</time>
      </trkpt>
      <trkpt lat="45.66122" lon="6.81934">
        <ele>2444.7</ele>
        <time>2021-03-27T13:23:48Z</time>
      </trkpt>
      <trkpt lat="45.66123" lon="6.81934">
        <ele>2444.7</ele>
        <time>2021-03-27T13:23:49Z</time>
      </trkpt>
      <trkpt lat="45.66123" lon="6.81934">
        <ele>2444.7</ele>
        <time>2021-03-27T13:23:50Z</time>
      </trkpt>
      <trkpt lat="45.66123" lon="6.81934">
        <ele>2444.7</ele>
        <time>2021-03-27T13:23:51Z</time>
      </trkpt>
      <trkpt lat="45.66124" lon="6.81934">
        <ele>2445.9</ele>
        <time>2021-03-27T13:23:52Z</time>
      </trkpt>
      <trkpt lat="45.66125" lon="6.81934">
        <ele>2445.9</ele>
        <time>2021-03-27T13:23:53Z</time>
      </trkpt>
      <trkpt lat="45.66125" lon="6.81934">
        <ele>2445.9</ele>
        <time>2021-03-27T13:23:54Z</time>
      </trkpt>
      <trkpt lat="45.66126" lon="6.81935">
        <ele>2445.9</ele>
        <time>2021-03-27T13:23:55Z</time>
      </trkpt>
      <trkpt lat="45.66126" lon="6.81935">
        <ele>2445.9</ele>
        <time>2021-03-27T13:23:56Z</time>
      </trkpt>
      <trkpt lat="45.66126" lon="6.81935">
        <ele>2445.9</ele>
        <time>2021-03-27T13:23:57Z</time>
      </trkpt>
      <trkpt lat="45.66127" lon="6.81936">
        <ele>2445.9</ele>
        <time>2021-03-27T13:23:58Z</time>
      </trkpt>
      <trkpt lat="45.66127" lon="6.81936">
        <ele>2447.1</ele>
        <time>2021-03-27T13:23:59Z</time>
      </trkpt>
      <trkpt lat="45.66128" lon="6.81937">
        <ele>2447.1</ele>
        <time>2021-03-27T13:24:00Z</time>
      </trkpt>
      <trkpt lat="45.66129" lon="6.81937">
        <ele>2447.1</ele>
        <time>2021-03-27T13:24:01Z</time>
      </trkpt>
      <trkpt lat="45.66129" lon="6.81937">
        <ele>2447.1</ele>
        <time>2021-03-27T13:24:02Z</time>
      </trkpt>
      <trkpt lat="45.66129" lon="6.81937">
        <ele>2447.1</ele>
        <time>2021-03-27T13:24:03Z</time>
      </trkpt>
      <trkpt lat="45.6613" lon="6.81937">
        <ele>2448.5</ele>
        <time>2021-03-27T13:24:04Z</time>
      </trkpt>
      <trkpt lat="45.6613" lon="6.81938">
        <ele>2448.1</ele>
        <time>2021-03-27T13:24:05Z</time>
      </trkpt>
      <trkpt lat="45.6613" lon="6.81938">
        <ele>2448.1</ele>
        <time>2021-03-27T13:24:06Z</time>
      </trkpt>
      <trkpt lat="45.66131" lon="6.81939">
        <ele>2448.1</ele>
        <time>2021-03-27T13:24:07Z</time>
      </trkpt>
      <trkpt lat="45.66131" lon="6.81939">
        <ele>2448.1</ele>
        <time>2021-03-27T13:24:08Z</time>
      </trkpt>
      <trkpt lat="45.66132" lon="6.81939">
        <ele>2448.1</ele>
        <time>2021-03-27T13:24:09Z</time>
      </trkpt>
      <trkpt lat="45.66132" lon="6.81939">
        <ele>2448.1</ele>
        <time>2021-03-27T13:24:10Z</time>
      </trkpt>
      <trkpt lat="45.66132" lon="6.8194">
        <ele>2448.1</ele>
        <time>2021-03-27T13:24:11Z</time>
      </trkpt>
      <trkpt lat="45.66133" lon="6.8194">
        <ele>2449.5</ele>
        <time>2021-03-27T13:24:12Z</time>
      </trkpt>
      <trkpt lat="45.66133" lon="6.8194">
        <ele>2449.5</ele>
        <time>2021-03-27T13:24:13Z</time>
      </trkpt>
      <trkpt lat="45.66134" lon="6.81939">
        <ele>2449.5</ele>
        <time>2021-03-27T13:24:14Z</time>
      </trkpt>
      <trkpt lat="45.66134" lon="6.81939">
        <ele>2449.5</ele>
        <time>2021-03-27T13:24:15Z</time>
      </trkpt>
      <trkpt lat="45.66134" lon="6.81939">
        <ele>2449.5</ele>
        <time>2021-03-27T13:24:16Z</time>
      </trkpt>
      <trkpt lat="45.66135" lon="6.81938">
        <ele>2449.5</ele>
        <time>2021-03-27T13:24:17Z</time>
      </trkpt>
      <trkpt lat="45.66135" lon="6.81938">
        <ele>2449.9</ele>
        <time>2021-03-27T13:24:18Z</time>
      </trkpt>
      <trkpt lat="45.66136" lon="6.81937">
        <ele>2449.9</ele>
        <time>2021-03-27T13:24:19Z</time>
      </trkpt>
      <trkpt lat="45.66136" lon="6.81936">
        <ele>2451.3</ele>
        <time>2021-03-27T13:24:20Z</time>
      </trkpt>
      <trkpt lat="45.66136" lon="6.81936">
        <ele>2451.3</ele>
        <time>2021-03-27T13:24:21Z</time>
      </trkpt>
      <trkpt lat="45.66137" lon="6.81935">
        <ele>2451.3</ele>
        <time>2021-03-27T13:24:22Z</time>
      </trkpt>
      <trkpt lat="45.66137" lon="6.81934">
        <ele>2451.3</ele>
        <time>2021-03-27T13:24:23Z</time>
      </trkpt>
      <trkpt lat="45.66137" lon="6.81933">
        <ele>2451.7</ele>
        <time>2021-03-27T13:24:24Z</time>
      </trkpt>
      <trkpt lat="45.66137" lon="6.81932">
        <ele>2451.7</ele>
        <time>2021-03-27T13:24:25Z</time>
      </trkpt>
      <trkpt lat="45.66137" lon="6.81932">
        <ele>2451.7</ele>
        <time>2021-03-27T13:24:26Z</time>
      </trkpt>
      <trkpt lat="45.66137" lon="6.81931">
        <ele>2451.7</ele>
        <time>2021-03-27T13:24:27Z</time>
      </trkpt>
      <trkpt lat="45.66137" lon="6.8193">
        <ele>2451.7</ele>
        <time>2021-03-27T13:24:28Z</time>
      </trkpt>
      <trkpt lat="45.66137" lon="6.81929">
        <ele>2452</ele>
        <time>2021-03-27T13:24:29Z</time>
      </trkpt>
      <trkpt lat="45.66136" lon="6.81928">
        <ele>2452</ele>
        <time>2021-03-27T13:24:30Z</time>
      </trkpt>
      <trkpt lat="45.66136" lon="6.81927">
        <ele>2452</ele>
        <time>2021-03-27T13:24:31Z</time>
      </trkpt>
      <trkpt lat="45.66136" lon="6.81926">
        <ele>2452</ele>
        <time>2021-03-27T13:24:32Z</time>
      </trkpt>
      <trkpt lat="45.66136" lon="6.81926">
        <ele>2452</ele>
        <time>2021-03-27T13:24:33Z</time>
      </trkpt>
      <trkpt lat="45.66136" lon="6.81925">
        <ele>2452.4</ele>
        <time>2021-03-27T13:24:34Z</time>
      </trkpt>
      <trkpt lat="45.66136" lon="6.81924">
        <ele>2452.4</ele>
        <time>2021-03-27T13:24:35Z</time>
      </trkpt>
      <trkpt lat="45.66136" lon="6.81923">
        <ele>2452.4</ele>
        <time>2021-03-27T13:24:36Z</time>
      </trkpt>
      <trkpt lat="45.66136" lon="6.81922">
        <ele>2452.4</ele>
        <time>2021-03-27T13:24:37Z</time>
      </trkpt>
      <trkpt lat="45.66136" lon="6.81922">
        <ele>2450.9</ele>
        <time>2021-03-27T13:24:38Z</time>
      </trkpt>
      <trkpt lat="45.66136" lon="6.81921">
        <ele>2450.9</ele>
        <time>2021-03-27T13:24:39Z</time>
      </trkpt>
      <trkpt lat="45.66136" lon="6.8192">
        <ele>2451.3</ele>
        <time>2021-03-27T13:24:40Z</time>
      </trkpt>
      <trkpt lat="45.66136" lon="6.8192">
        <ele>2451.3</ele>
        <time>2021-03-27T13:24:41Z</time>
      </trkpt>
      <trkpt lat="45.66136" lon="6.8192">
        <ele>2452.8</ele>
        <time>2021-03-27T13:24:42Z</time>
      </trkpt>
      <trkpt lat="45.66136" lon="6.81919">
        <ele>2452.8</ele>
        <time>2021-03-27T13:24:43Z</time>
      </trkpt>
      <trkpt lat="45.66136" lon="6.81918">
        <ele>2452.8</ele>
        <time>2021-03-27T13:24:44Z</time>
      </trkpt>
      <trkpt lat="45.66136" lon="6.81917">
        <ele>2452.8</ele>
        <time>2021-03-27T13:24:45Z</time>
      </trkpt>
      <trkpt lat="45.66136" lon="6.81917">
        <ele>2452.8</ele>
        <time>2021-03-27T13:24:46Z</time>
      </trkpt>
      <trkpt lat="45.66136" lon="6.81916">
        <ele>2453.2</ele>
        <time>2021-03-27T13:24:47Z</time>
      </trkpt>
      <trkpt lat="45.66136" lon="6.81915">
        <ele>2453.2</ele>
        <time>2021-03-27T13:24:48Z</time>
      </trkpt>
      <trkpt lat="45.66136" lon="6.81915">
        <ele>2451.7</ele>
        <time>2021-03-27T13:24:49Z</time>
      </trkpt>
      <trkpt lat="45.66136" lon="6.81914">
        <ele>2451.7</ele>
        <time>2021-03-27T13:24:50Z</time>
      </trkpt>
      <trkpt lat="45.66136" lon="6.81913">
        <ele>2453.2</ele>
        <time>2021-03-27T13:24:51Z</time>
      </trkpt>
      <trkpt lat="45.66136" lon="6.81913">
        <ele>2453.2</ele>
        <time>2021-03-27T13:24:52Z</time>
      </trkpt>
      <trkpt lat="45.66136" lon="6.81912">
        <ele>2452.1</ele>
        <time>2021-03-27T13:24:53Z</time>
      </trkpt>
      <trkpt lat="45.66136" lon="6.81911">
        <ele>2452.1</ele>
        <time>2021-03-27T13:24:54Z</time>
      </trkpt>
      <trkpt lat="45.66135" lon="6.81911">
        <ele>2452.1</ele>
        <time>2021-03-27T13:24:55Z</time>
      </trkpt>
      <trkpt lat="45.66135" lon="6.8191">
        <ele>2452.1</ele>
        <time>2021-03-27T13:24:56Z</time>
      </trkpt>
      <trkpt lat="45.66136" lon="6.8191">
        <ele>2452.1</ele>
        <time>2021-03-27T13:24:57Z</time>
      </trkpt>
      <trkpt lat="45.66136" lon="6.81909">
        <ele>2453.6</ele>
        <time>2021-03-27T13:24:58Z</time>
      </trkpt>
      <trkpt lat="45.66136" lon="6.81909">
        <ele>2453.6</ele>
        <time>2021-03-27T13:24:59Z</time>
      </trkpt>
      <trkpt lat="45.66137" lon="6.81909">
        <ele>2453.6</ele>
        <time>2021-03-27T13:25:00Z</time>
      </trkpt>
      <trkpt lat="45.66138" lon="6.8191">
        <ele>2453.6</ele>
        <time>2021-03-27T13:25:01Z</time>
      </trkpt>
      <trkpt lat="45.66138" lon="6.8191">
        <ele>2453.6</ele>
        <time>2021-03-27T13:25:02Z</time>
      </trkpt>
      <trkpt lat="45.66139" lon="6.8191">
        <ele>2453.6</ele>
        <time>2021-03-27T13:25:03Z</time>
      </trkpt>
      <trkpt lat="45.66139" lon="6.8191">
        <ele>2455.2</ele>
        <time>2021-03-27T13:25:04Z</time>
      </trkpt>
      <trkpt lat="45.6614" lon="6.81911">
        <ele>2455.2</ele>
        <time>2021-03-27T13:25:05Z</time>
      </trkpt>
      <trkpt lat="45.6614" lon="6.81911">
        <ele>2455.2</ele>
        <time>2021-03-27T13:25:06Z</time>
      </trkpt>
      <trkpt lat="45.66141" lon="6.81911">
        <ele>2455.2</ele>
        <time>2021-03-27T13:25:07Z</time>
      </trkpt>
      <trkpt lat="45.66141" lon="6.81912">
        <ele>2455.2</ele>
        <time>2021-03-27T13:25:08Z</time>
      </trkpt>
      <trkpt lat="45.66142" lon="6.81912">
        <ele>2454.8</ele>
        <time>2021-03-27T13:25:51Z</time>
      </trkpt>
      <trkpt lat="45.66142" lon="6.81912">
        <ele>2456.3</ele>
        <time>2021-03-27T13:25:52Z</time>
      </trkpt>
      <trkpt lat="45.66143" lon="6.81913">
        <ele>2456.3</ele>
        <time>2021-03-27T13:25:53Z</time>
      </trkpt>
      <trkpt lat="45.66143" lon="6.81913">
        <ele>2456.3</ele>
        <time>2021-03-27T13:25:54Z</time>
      </trkpt>
      <trkpt lat="45.66144" lon="6.81913">
        <ele>2456.3</ele>
        <time>2021-03-27T13:25:55Z</time>
      </trkpt>
      <trkpt lat="45.66144" lon="6.81914">
        <ele>2456.3</ele>
        <time>2021-03-27T13:25:56Z</time>
      </trkpt>
      <trkpt lat="45.66145" lon="6.81914">
        <ele>2456.3</ele>
        <time>2021-03-27T13:25:57Z</time>
      </trkpt>
      <trkpt lat="45.66145" lon="6.81915">
        <ele>2457.8</ele>
        <time>2021-03-27T13:25:58Z</time>
      </trkpt>
      <trkpt lat="45.66145" lon="6.81916">
        <ele>2457.8</ele>
        <time>2021-03-27T13:25:59Z</time>
      </trkpt>
      <trkpt lat="45.66146" lon="6.81916">
        <ele>2457.4</ele>
        <time>2021-03-27T13:26:00Z</time>
      </trkpt>
      <trkpt lat="45.66146" lon="6.81917">
        <ele>2457.4</ele>
        <time>2021-03-27T13:26:01Z</time>
      </trkpt>
      <trkpt lat="45.66147" lon="6.81918">
        <ele>2457.4</ele>
        <time>2021-03-27T13:26:02Z</time>
      </trkpt>
      <trkpt lat="45.66147" lon="6.81918">
        <ele>2457.4</ele>
        <time>2021-03-27T13:26:03Z</time>
      </trkpt>
      <trkpt lat="45.66148" lon="6.81919">
        <ele>2457.4</ele>
        <time>2021-03-27T13:26:04Z</time>
      </trkpt>
      <trkpt lat="45.66148" lon="6.81919">
        <ele>2458.9</ele>
        <time>2021-03-27T13:26:05Z</time>
      </trkpt>
      <trkpt lat="45.66148" lon="6.81919">
        <ele>2458.9</ele>
        <time>2021-03-27T13:26:06Z</time>
      </trkpt>
      <trkpt lat="45.66148" lon="6.8192">
        <ele>2458.9</ele>
        <time>2021-03-27T13:26:07Z</time>
      </trkpt>
      <trkpt lat="45.66149" lon="6.81921">
        <ele>2458.4</ele>
        <time>2021-03-27T13:26:08Z</time>
      </trkpt>
      <trkpt lat="45.66149" lon="6.81922">
        <ele>2458.4</ele>
        <time>2021-03-27T13:26:09Z</time>
      </trkpt>
      <trkpt lat="45.66149" lon="6.81922">
        <ele>2458.3</ele>
        <time>2021-03-27T13:26:10Z</time>
      </trkpt>
      <trkpt lat="45.66149" lon="6.81923">
        <ele>2458.2</ele>
        <time>2021-03-27T13:26:11Z</time>
      </trkpt>
      <trkpt lat="45.6615" lon="6.81923">
        <ele>2458.1</ele>
        <time>2021-03-27T13:26:12Z</time>
      </trkpt>
      <trkpt lat="45.6615" lon="6.81922">
        <ele>2458</ele>
        <time>2021-03-27T13:26:13Z</time>
      </trkpt>
      <trkpt lat="45.6615" lon="6.81922">
        <ele>2457.9</ele>
        <time>2021-03-27T13:26:14Z</time>
      </trkpt>
      <trkpt lat="45.6615" lon="6.81921">
        <ele>2457.8</ele>
        <time>2021-03-27T13:26:15Z</time>
      </trkpt>
      <trkpt lat="45.6615" lon="6.81921">
        <ele>2457.7</ele>
        <time>2021-03-27T13:26:16Z</time>
      </trkpt>
      <trkpt lat="45.6615" lon="6.81921">
        <ele>2458.1</ele>
        <time>2021-03-27T13:26:17Z</time>
      </trkpt>
      <trkpt lat="45.6615" lon="6.8192">
        <ele>2458</ele>
        <time>2021-03-27T13:26:18Z</time>
      </trkpt>
      <trkpt lat="45.6615" lon="6.8192">
        <ele>2457.9</ele>
        <time>2021-03-27T13:26:19Z</time>
      </trkpt>
      <trkpt lat="45.6615" lon="6.81919">
        <ele>2457.8</ele>
        <time>2021-03-27T13:26:20Z</time>
      </trkpt>
      <trkpt lat="45.6615" lon="6.81919">
        <ele>2457.7</ele>
        <time>2021-03-27T13:26:21Z</time>
      </trkpt>
      <trkpt lat="45.6615" lon="6.81918">
        <ele>2457.6</ele>
        <time>2021-03-27T13:26:22Z</time>
      </trkpt>
      <trkpt lat="45.6615" lon="6.81918">
        <ele>2457.5</ele>
        <time>2021-03-27T13:26:23Z</time>
      </trkpt>
      <trkpt lat="45.6615" lon="6.81917">
        <ele>2457.4</ele>
        <time>2021-03-27T13:26:38Z</time>
      </trkpt>
      <trkpt lat="45.6615" lon="6.81917">
        <ele>2457.3</ele>
        <time>2021-03-27T13:26:39Z</time>
      </trkpt>
      <trkpt lat="45.6615" lon="6.81916">
        <ele>2457.2</ele>
        <time>2021-03-27T13:26:40Z</time>
      </trkpt>
      <trkpt lat="45.6615" lon="6.81916">
        <ele>2457.5</ele>
        <time>2021-03-27T13:26:41Z</time>
      </trkpt>
      <trkpt lat="45.6615" lon="6.81915">
        <ele>2457.4</ele>
        <time>2021-03-27T13:26:42Z</time>
      </trkpt>
      <trkpt lat="45.6615" lon="6.81915">
        <ele>2457.3</ele>
        <time>2021-03-27T13:26:43Z</time>
      </trkpt>
      <trkpt lat="45.6615" lon="6.81915">
        <ele>2457.2</ele>
        <time>2021-03-27T13:26:44Z</time>
      </trkpt>
      <trkpt lat="45.6615" lon="6.81914">
        <ele>2457.1</ele>
        <time>2021-03-27T13:26:45Z</time>
      </trkpt>
      <trkpt lat="45.6615" lon="6.81913">
        <ele>2457</ele>
        <time>2021-03-27T13:26:46Z</time>
      </trkpt>
      <trkpt lat="45.6615" lon="6.81912">
        <ele>2457.4</ele>
        <time>2021-03-27T13:26:47Z</time>
      </trkpt>
      <trkpt lat="45.6615" lon="6.81911">
        <ele>2457.3</ele>
        <time>2021-03-27T13:26:48Z</time>
      </trkpt>
      <trkpt lat="45.6615" lon="6.8191">
        <ele>2457.2</ele>
        <time>2021-03-27T13:26:49Z</time>
      </trkpt>
      <trkpt lat="45.6615" lon="6.81909">
        <ele>2457.1</ele>
        <time>2021-03-27T13:26:50Z</time>
      </trkpt>
      <trkpt lat="45.66149" lon="6.81908">
        <ele>2457</ele>
        <time>2021-03-27T13:26:51Z</time>
      </trkpt>
      <trkpt lat="45.66149" lon="6.81907">
        <ele>2457.4</ele>
        <time>2021-03-27T13:26:52Z</time>
      </trkpt>
      <trkpt lat="45.66149" lon="6.81906">
        <ele>2457.3</ele>
        <time>2021-03-27T13:26:53Z</time>
      </trkpt>
      <trkpt lat="45.66149" lon="6.81905">
        <ele>2457.2</ele>
        <time>2021-03-27T13:26:54Z</time>
      </trkpt>
      <trkpt lat="45.66149" lon="6.81904">
        <ele>2457.1</ele>
        <time>2021-03-27T13:26:55Z</time>
      </trkpt>
      <trkpt lat="45.66149" lon="6.81903">
        <ele>2457.4</ele>
        <time>2021-03-27T13:26:56Z</time>
      </trkpt>
      <trkpt lat="45.66149" lon="6.81902">
        <ele>2457.3</ele>
        <time>2021-03-27T13:26:57Z</time>
      </trkpt>
      <trkpt lat="45.66149" lon="6.81901">
        <ele>2457.2</ele>
        <time>2021-03-27T13:26:58Z</time>
      </trkpt>
      <trkpt lat="45.66149" lon="6.819">
        <ele>2457.1</ele>
        <time>2021-03-27T13:26:59Z</time>
      </trkpt>
      <trkpt lat="45.6615" lon="6.81899">
        <ele>2457.3</ele>
        <time>2021-03-27T13:27:00Z</time>
      </trkpt>
      <trkpt lat="45.66151" lon="6.81898">
        <ele>2457.2</ele>
        <time>2021-03-27T13:27:01Z</time>
      </trkpt>
      <trkpt lat="45.66151" lon="6.81896">
        <ele>2458.6</ele>
        <time>2021-03-27T13:27:02Z</time>
      </trkpt>
      <trkpt lat="45.66151" lon="6.81895">
        <ele>2458.5</ele>
        <time>2021-03-27T13:27:03Z</time>
      </trkpt>
      <trkpt lat="45.66151" lon="6.81894">
        <ele>2458.7</ele>
        <time>2021-03-27T13:27:04Z</time>
      </trkpt>
      <trkpt lat="45.66151" lon="6.81893">
        <ele>2458.6</ele>
        <time>2021-03-27T13:27:05Z</time>
      </trkpt>
      <trkpt lat="45.66151" lon="6.81892">
        <ele>2458.5</ele>
        <time>2021-03-27T13:27:06Z</time>
      </trkpt>
      <trkpt lat="45.66151" lon="6.81891">
        <ele>2458.4</ele>
        <time>2021-03-27T13:27:07Z</time>
      </trkpt>
      <trkpt lat="45.66151" lon="6.8189">
        <ele>2458.6</ele>
        <time>2021-03-27T13:27:08Z</time>
      </trkpt>
      <trkpt lat="45.66151" lon="6.81889">
        <ele>2458.5</ele>
        <time>2021-03-27T13:27:09Z</time>
      </trkpt>
      <trkpt lat="45.66151" lon="6.81888">
        <ele>2458.4</ele>
        <time>2021-03-27T13:27:10Z</time>
      </trkpt>
      <trkpt lat="45.66151" lon="6.81887">
        <ele>2458.3</ele>
        <time>2021-03-27T13:27:11Z</time>
      </trkpt>
      <trkpt lat="45.66151" lon="6.81886">
        <ele>2458.2</ele>
        <time>2021-03-27T13:27:12Z</time>
      </trkpt>
      <trkpt lat="45.66151" lon="6.81886">
        <ele>2456.9</ele>
        <time>2021-03-27T13:27:13Z</time>
      </trkpt>
      <trkpt lat="45.66151" lon="6.81885">
        <ele>2458.2</ele>
        <time>2021-03-27T13:27:14Z</time>
      </trkpt>
      <trkpt lat="45.66151" lon="6.81885">
        <ele>2458.1</ele>
        <time>2021-03-27T13:27:15Z</time>
      </trkpt>
      <trkpt lat="45.66152" lon="6.81884">
        <ele>2458</ele>
        <time>2021-03-27T13:27:16Z</time>
      </trkpt>
      <trkpt lat="45.66152" lon="6.81883">
        <ele>2457.9</ele>
        <time>2021-03-27T13:27:17Z</time>
      </trkpt>
      <trkpt lat="45.66152" lon="6.81882">
        <ele>2458</ele>
        <time>2021-03-27T13:27:18Z</time>
      </trkpt>
      <trkpt lat="45.66152" lon="6.81881">
        <ele>2457.9</ele>
        <time>2021-03-27T13:27:19Z</time>
      </trkpt>
      <trkpt lat="45.66152" lon="6.81881">
        <ele>2457.8</ele>
        <time>2021-03-27T13:27:20Z</time>
      </trkpt>
      <trkpt lat="45.66152" lon="6.8188">
        <ele>2457.7</ele>
        <time>2021-03-27T13:27:21Z</time>
      </trkpt>
      <trkpt lat="45.66152" lon="6.81878">
        <ele>2457.6</ele>
        <time>2021-03-27T13:27:22Z</time>
      </trkpt>
      <trkpt lat="45.66151" lon="6.81877">
        <ele>2457.6</ele>
        <time>2021-03-27T13:27:23Z</time>
      </trkpt>
      <trkpt lat="45.66151" lon="6.81876">
        <ele>2457.5</ele>
        <time>2021-03-27T13:27:24Z</time>
      </trkpt>
      <trkpt lat="45.66151" lon="6.81875">
        <ele>2457.4</ele>
        <time>2021-03-27T13:27:25Z</time>
      </trkpt>
      <trkpt lat="45.66151" lon="6.81874">
        <ele>2457.3</ele>
        <time>2021-03-27T13:27:26Z</time>
      </trkpt>
      <trkpt lat="45.66151" lon="6.81873">
        <ele>2457.2</ele>
        <time>2021-03-27T13:27:27Z</time>
      </trkpt>
      <trkpt lat="45.66151" lon="6.81872">
        <ele>2457.1</ele>
        <time>2021-03-27T13:27:28Z</time>
      </trkpt>
      <trkpt lat="45.66151" lon="6.81871">
        <ele>2457</ele>
        <time>2021-03-27T13:27:29Z</time>
      </trkpt>
      <trkpt lat="45.66151" lon="6.8187">
        <ele>2456.9</ele>
        <time>2021-03-27T13:27:30Z</time>
      </trkpt>
      <trkpt lat="45.66152" lon="6.8187">
        <ele>2456.8</ele>
        <time>2021-03-27T13:27:31Z</time>
      </trkpt>
      <trkpt lat="45.66152" lon="6.81869">
        <ele>2456.7</ele>
        <time>2021-03-27T13:27:32Z</time>
      </trkpt>
      <trkpt lat="45.66152" lon="6.81869">
        <ele>2456.6</ele>
        <time>2021-03-27T13:27:33Z</time>
      </trkpt>
      <trkpt lat="45.66151" lon="6.81868">
        <ele>2456.5</ele>
        <time>2021-03-27T13:27:34Z</time>
      </trkpt>
      <trkpt lat="45.66151" lon="6.81868">
        <ele>2455.1</ele>
        <time>2021-03-27T13:27:35Z</time>
      </trkpt>
      <trkpt lat="45.6615" lon="6.81868">
        <ele>2455</ele>
        <time>2021-03-27T13:27:36Z</time>
      </trkpt>
      <trkpt lat="45.6615" lon="6.81867">
        <ele>2454.9</ele>
        <time>2021-03-27T13:27:37Z</time>
      </trkpt>
      <trkpt lat="45.66149" lon="6.81867">
        <ele>2454.8</ele>
        <time>2021-03-27T13:27:38Z</time>
      </trkpt>
      <trkpt lat="45.66149" lon="6.81867">
        <ele>2454.7</ele>
        <time>2021-03-27T13:27:39Z</time>
      </trkpt>
      <trkpt lat="45.6615" lon="6.81867">
        <ele>2454.6</ele>
        <time>2021-03-27T13:27:40Z</time>
      </trkpt>
      <trkpt lat="45.6615" lon="6.81866">
        <ele>2454.5</ele>
        <time>2021-03-27T13:27:41Z</time>
      </trkpt>
      <trkpt lat="45.6615" lon="6.81865">
        <ele>2454.4</ele>
        <time>2021-03-27T13:27:42Z</time>
      </trkpt>
      <trkpt lat="45.6615" lon="6.81864">
        <ele>2454.3</ele>
        <time>2021-03-27T13:27:43Z</time>
      </trkpt>
      <trkpt lat="45.66151" lon="6.81863">
        <ele>2454.2</ele>
        <time>2021-03-27T13:27:44Z</time>
      </trkpt>
      <trkpt lat="45.66151" lon="6.81863">
        <ele>2455.4</ele>
        <time>2021-03-27T13:27:45Z</time>
      </trkpt>
      <trkpt lat="45.66151" lon="6.81863">
        <ele>2455.3</ele>
        <time>2021-03-27T13:27:46Z</time>
      </trkpt>
      <trkpt lat="45.66151" lon="6.81863">
        <ele>2455.2</ele>
        <time>2021-03-27T13:27:47Z</time>
      </trkpt>
      <trkpt lat="45.66152" lon="6.81863">
        <ele>2455.1</ele>
        <time>2021-03-27T13:27:48Z</time>
      </trkpt>
      <trkpt lat="45.66152" lon="6.81863">
        <ele>2455</ele>
        <time>2021-03-27T13:27:49Z</time>
      </trkpt>
      <trkpt lat="45.66152" lon="6.81863">
        <ele>2454.9</ele>
        <time>2021-03-27T13:27:50Z</time>
      </trkpt>
      <trkpt lat="45.66153" lon="6.81863">
        <ele>2454.8</ele>
        <time>2021-03-27T13:27:51Z</time>
      </trkpt>
      <trkpt lat="45.66153" lon="6.81862">
        <ele>2454.7</ele>
        <time>2021-03-27T13:27:52Z</time>
      </trkpt>
      <trkpt lat="45.66153" lon="6.81862">
        <ele>2454.6</ele>
        <time>2021-03-27T13:27:53Z</time>
      </trkpt>
      <trkpt lat="45.66153" lon="6.81862">
        <ele>2454.5</ele>
        <time>2021-03-27T13:27:54Z</time>
      </trkpt>
      <trkpt lat="45.66154" lon="6.81862">
        <ele>2454.4</ele>
        <time>2021-03-27T13:28:15Z</time>
      </trkpt>
      <trkpt lat="45.66154" lon="6.81862">
        <ele>2455.5</ele>
        <time>2021-03-27T13:28:16Z</time>
      </trkpt>
      <trkpt lat="45.66154" lon="6.81862">
        <ele>2455.4</ele>
        <time>2021-03-27T13:28:17Z</time>
      </trkpt>
      <trkpt lat="45.66155" lon="6.81863">
        <ele>2455.3</ele>
        <time>2021-03-27T13:28:18Z</time>
      </trkpt>
      <trkpt lat="45.66155" lon="6.81863">
        <ele>2455.2</ele>
        <time>2021-03-27T13:28:19Z</time>
      </trkpt>
      <trkpt lat="45.66155" lon="6.81863">
        <ele>2455.1</ele>
        <time>2021-03-27T13:28:20Z</time>
      </trkpt>
      <trkpt lat="45.66155" lon="6.81864">
        <ele>2455</ele>
        <time>2021-03-27T13:28:21Z</time>
      </trkpt>
      <trkpt lat="45.66155" lon="6.81864">
        <ele>2454.9</ele>
        <time>2021-03-27T13:28:22Z</time>
      </trkpt>
      <trkpt lat="45.66156" lon="6.81865">
        <ele>2454.9</ele>
        <time>2021-03-27T13:28:23Z</time>
      </trkpt>
      <trkpt lat="45.66156" lon="6.81865">
        <ele>2454.9</ele>
        <time>2021-03-27T13:28:24Z</time>
      </trkpt>
      <trkpt lat="45.66157" lon="6.81866">
        <ele>2456.1</ele>
        <time>2021-03-27T13:28:25Z</time>
      </trkpt>
      <trkpt lat="45.66157" lon="6.81866">
        <ele>2456.1</ele>
        <time>2021-03-27T13:28:26Z</time>
      </trkpt>
      <trkpt lat="45.66158" lon="6.81867">
        <ele>2456.1</ele>
        <time>2021-03-27T13:28:27Z</time>
      </trkpt>
      <trkpt lat="45.66158" lon="6.81868">
        <ele>2456.1</ele>
        <time>2021-03-27T13:28:28Z</time>
      </trkpt>
      <trkpt lat="45.66159" lon="6.81868">
        <ele>2456.1</ele>
        <time>2021-03-27T13:28:29Z</time>
      </trkpt>
      <trkpt lat="45.66159" lon="6.81869">
        <ele>2456.1</ele>
        <time>2021-03-27T13:28:30Z</time>
      </trkpt>
      <trkpt lat="45.66159" lon="6.8187">
        <ele>2456.2</ele>
        <time>2021-03-27T13:28:31Z</time>
      </trkpt>
      <trkpt lat="45.6616" lon="6.8187">
        <ele>2457.4</ele>
        <time>2021-03-27T13:28:32Z</time>
      </trkpt>
      <trkpt lat="45.6616" lon="6.81871">
        <ele>2457.4</ele>
        <time>2021-03-27T13:28:33Z</time>
      </trkpt>
      <trkpt lat="45.66161" lon="6.81872">
        <ele>2457.4</ele>
        <time>2021-03-27T13:28:34Z</time>
      </trkpt>
      <trkpt lat="45.66161" lon="6.81872">
        <ele>2457.4</ele>
        <time>2021-03-27T13:28:35Z</time>
      </trkpt>
      <trkpt lat="45.66162" lon="6.81873">
        <ele>2457.4</ele>
        <time>2021-03-27T13:28:36Z</time>
      </trkpt>
      <trkpt lat="45.66162" lon="6.81874">
        <ele>2457.4</ele>
        <time>2021-03-27T13:28:37Z</time>
      </trkpt>
      <trkpt lat="45.66163" lon="6.81874">
        <ele>2457.4</ele>
        <time>2021-03-27T13:28:38Z</time>
      </trkpt>
      <trkpt lat="45.66163" lon="6.81875">
        <ele>2458.7</ele>
        <time>2021-03-27T13:28:39Z</time>
      </trkpt>
      <trkpt lat="45.66164" lon="6.81875">
        <ele>2458.7</ele>
        <time>2021-03-27T13:28:40Z</time>
      </trkpt>
      <trkpt lat="45.66164" lon="6.81875">
        <ele>2458.7</ele>
        <time>2021-03-27T13:28:41Z</time>
      </trkpt>
      <trkpt lat="45.66165" lon="6.81875">
        <ele>2458.7</ele>
        <time>2021-03-27T13:28:42Z</time>
      </trkpt>
      <trkpt lat="45.66165" lon="6.81876">
        <ele>2458.7</ele>
        <time>2021-03-27T13:28:43Z</time>
      </trkpt>
      <trkpt lat="45.66166" lon="6.81876">
        <ele>2460</ele>
        <time>2021-03-27T13:28:44Z</time>
      </trkpt>
      <trkpt lat="45.66166" lon="6.81877">
        <ele>2460</ele>
        <time>2021-03-27T13:28:45Z</time>
      </trkpt>
      <trkpt lat="45.66167" lon="6.81877">
        <ele>2460</ele>
        <time>2021-03-27T13:28:46Z</time>
      </trkpt>
      <trkpt lat="45.66167" lon="6.81878">
        <ele>2460</ele>
        <time>2021-03-27T13:28:47Z</time>
      </trkpt>
      <trkpt lat="45.66168" lon="6.81878">
        <ele>2460</ele>
        <time>2021-03-27T13:28:48Z</time>
      </trkpt>
      <trkpt lat="45.66169" lon="6.81879">
        <ele>2460</ele>
        <time>2021-03-27T13:28:49Z</time>
      </trkpt>
      <trkpt lat="45.66169" lon="6.81879">
        <ele>2461.3</ele>
        <time>2021-03-27T13:28:50Z</time>
      </trkpt>
      <trkpt lat="45.6617" lon="6.81879">
        <ele>2461.3</ele>
        <time>2021-03-27T13:28:51Z</time>
      </trkpt>
      <trkpt lat="45.66171" lon="6.8188">
        <ele>2461.3</ele>
        <time>2021-03-27T13:28:52Z</time>
      </trkpt>
      <trkpt lat="45.66171" lon="6.8188">
        <ele>2461.3</ele>
        <time>2021-03-27T13:28:53Z</time>
      </trkpt>
      <trkpt lat="45.66172" lon="6.81881">
        <ele>2462.4</ele>
        <time>2021-03-27T13:28:54Z</time>
      </trkpt>
      <trkpt lat="45.66172" lon="6.81881">
        <ele>2462.4</ele>
        <time>2021-03-27T13:28:55Z</time>
      </trkpt>
      <trkpt lat="45.66173" lon="6.81882">
        <ele>2462.4</ele>
        <time>2021-03-27T13:28:56Z</time>
      </trkpt>
      <trkpt lat="45.66173" lon="6.81882">
        <ele>2462.4</ele>
        <time>2021-03-27T13:28:57Z</time>
      </trkpt>
      <trkpt lat="45.66174" lon="6.81883">
        <ele>2462.4</ele>
        <time>2021-03-27T13:28:58Z</time>
      </trkpt>
      <trkpt lat="45.66174" lon="6.81884">
        <ele>2462.4</ele>
        <time>2021-03-27T13:28:59Z</time>
      </trkpt>
      <trkpt lat="45.66174" lon="6.81884">
        <ele>2462.4</ele>
        <time>2021-03-27T13:29:00Z</time>
      </trkpt>
      <trkpt lat="45.66175" lon="6.81885">
        <ele>2462.4</ele>
        <time>2021-03-27T13:29:01Z</time>
      </trkpt>
      <trkpt lat="45.66175" lon="6.81885">
        <ele>2463.5</ele>
        <time>2021-03-27T13:29:02Z</time>
      </trkpt>
      <trkpt lat="45.66175" lon="6.81886">
        <ele>2463.4</ele>
        <time>2021-03-27T13:29:03Z</time>
      </trkpt>
      <trkpt lat="45.66175" lon="6.81887">
        <ele>2463.4</ele>
        <time>2021-03-27T13:29:04Z</time>
      </trkpt>
      <trkpt lat="45.66176" lon="6.81888">
        <ele>2463.4</ele>
        <time>2021-03-27T13:29:05Z</time>
      </trkpt>
      <trkpt lat="45.66176" lon="6.81889">
        <ele>2463.4</ele>
        <time>2021-03-27T13:29:06Z</time>
      </trkpt>
      <trkpt lat="45.66176" lon="6.8189">
        <ele>2463.4</ele>
        <time>2021-03-27T13:29:07Z</time>
      </trkpt>
      <trkpt lat="45.66176" lon="6.8189">
        <ele>2463.4</ele>
        <time>2021-03-27T13:29:08Z</time>
      </trkpt>
      <trkpt lat="45.66177" lon="6.81891">
        <ele>2463.4</ele>
        <time>2021-03-27T13:29:09Z</time>
      </trkpt>
      <trkpt lat="45.66177" lon="6.81892">
        <ele>2463.4</ele>
        <time>2021-03-27T13:29:10Z</time>
      </trkpt>
      <trkpt lat="45.66178" lon="6.81892">
        <ele>2463.4</ele>
        <time>2021-03-27T13:29:11Z</time>
      </trkpt>
      <trkpt lat="45.66178" lon="6.81893">
        <ele>2464.3</ele>
        <time>2021-03-27T13:29:12Z</time>
      </trkpt>
      <trkpt lat="45.66179" lon="6.81893">
        <ele>2464.3</ele>
        <time>2021-03-27T13:29:13Z</time>
      </trkpt>
      <trkpt lat="45.66179" lon="6.81893">
        <ele>2464.3</ele>
        <time>2021-03-27T13:29:14Z</time>
      </trkpt>
      <trkpt lat="45.66179" lon="6.81894">
        <ele>2464.3</ele>
        <time>2021-03-27T13:29:15Z</time>
      </trkpt>
      <trkpt lat="45.6618" lon="6.81894">
        <ele>2464.3</ele>
        <time>2021-03-27T13:29:16Z</time>
      </trkpt>
      <trkpt lat="45.6618" lon="6.81894">
        <ele>2464.3</ele>
        <time>2021-03-27T13:29:17Z</time>
      </trkpt>
      <trkpt lat="45.66181" lon="6.81894">
        <ele>2464.3</ele>
        <time>2021-03-27T13:29:18Z</time>
      </trkpt>
      <trkpt lat="45.66181" lon="6.81895">
        <ele>2465.1</ele>
        <time>2021-03-27T13:29:19Z</time>
      </trkpt>
      <trkpt lat="45.66182" lon="6.81895">
        <ele>2465.1</ele>
        <time>2021-03-27T13:29:20Z</time>
      </trkpt>
      <trkpt lat="45.66182" lon="6.81895">
        <ele>2465.1</ele>
        <time>2021-03-27T13:29:21Z</time>
      </trkpt>
      <trkpt lat="45.66183" lon="6.81894">
        <ele>2465.1</ele>
        <time>2021-03-27T13:29:22Z</time>
      </trkpt>
      <trkpt lat="45.66184" lon="6.81894">
        <ele>2465.1</ele>
        <time>2021-03-27T13:29:23Z</time>
      </trkpt>
      <trkpt lat="45.66184" lon="6.81894">
        <ele>2465.8</ele>
        <time>2021-03-27T13:29:24Z</time>
      </trkpt>
      <trkpt lat="45.66185" lon="6.81894">
        <ele>2465.8</ele>
        <time>2021-03-27T13:29:25Z</time>
      </trkpt>
      <trkpt lat="45.66185" lon="6.81894">
        <ele>2465.8</ele>
        <time>2021-03-27T13:29:26Z</time>
      </trkpt>
      <trkpt lat="45.66185" lon="6.81894">
        <ele>2465.8</ele>
        <time>2021-03-27T13:29:27Z</time>
      </trkpt>
      <trkpt lat="45.66186" lon="6.81893">
        <ele>2465.8</ele>
        <time>2021-03-27T13:29:28Z</time>
      </trkpt>
      <trkpt lat="45.66186" lon="6.81893">
        <ele>2465.8</ele>
        <time>2021-03-27T13:29:29Z</time>
      </trkpt>
      <trkpt lat="45.66187" lon="6.81892">
        <ele>2466.6</ele>
        <time>2021-03-27T13:29:30Z</time>
      </trkpt>
      <trkpt lat="45.66187" lon="6.81891">
        <ele>2466.6</ele>
        <time>2021-03-27T13:29:31Z</time>
      </trkpt>
      <trkpt lat="45.66188" lon="6.8189">
        <ele>2466.6</ele>
        <time>2021-03-27T13:29:32Z</time>
      </trkpt>
      <trkpt lat="45.66188" lon="6.81889">
        <ele>2466.6</ele>
        <time>2021-03-27T13:29:33Z</time>
      </trkpt>
      <trkpt lat="45.66188" lon="6.81888">
        <ele>2466.6</ele>
        <time>2021-03-27T13:29:34Z</time>
      </trkpt>
      <trkpt lat="45.66188" lon="6.81888">
        <ele>2466.6</ele>
        <time>2021-03-27T13:29:35Z</time>
      </trkpt>
      <trkpt lat="45.66189" lon="6.81887">
        <ele>2466.6</ele>
        <time>2021-03-27T13:29:36Z</time>
      </trkpt>
      <trkpt lat="45.66189" lon="6.81886">
        <ele>2466.6</ele>
        <time>2021-03-27T13:29:37Z</time>
      </trkpt>
      <trkpt lat="45.6619" lon="6.81885">
        <ele>2466.6</ele>
        <time>2021-03-27T13:29:38Z</time>
      </trkpt>
      <trkpt lat="45.6619" lon="6.81884">
        <ele>2467.3</ele>
        <time>2021-03-27T13:29:39Z</time>
      </trkpt>
      <trkpt lat="45.6619" lon="6.81883">
        <ele>2467.3</ele>
        <time>2021-03-27T13:29:40Z</time>
      </trkpt>
      <trkpt lat="45.66191" lon="6.81882">
        <ele>2467.3</ele>
        <time>2021-03-27T13:29:41Z</time>
      </trkpt>
      <trkpt lat="45.66191" lon="6.81882">
        <ele>2467.2</ele>
        <time>2021-03-27T13:29:42Z</time>
      </trkpt>
      <trkpt lat="45.66191" lon="6.81881">
        <ele>2467.2</ele>
        <time>2021-03-27T13:29:43Z</time>
      </trkpt>
      <trkpt lat="45.66191" lon="6.8188">
        <ele>2467.2</ele>
        <time>2021-03-27T13:29:44Z</time>
      </trkpt>
      <trkpt lat="45.66191" lon="6.81878">
        <ele>2467.2</ele>
        <time>2021-03-27T13:29:45Z</time>
      </trkpt>
      <trkpt lat="45.66191" lon="6.81877">
        <ele>2467</ele>
        <time>2021-03-27T13:29:46Z</time>
      </trkpt>
      <trkpt lat="45.66191" lon="6.81876">
        <ele>2467</ele>
        <time>2021-03-27T13:29:47Z</time>
      </trkpt>
      <trkpt lat="45.66191" lon="6.81875">
        <ele>2467</ele>
        <time>2021-03-27T13:29:48Z</time>
      </trkpt>
      <trkpt lat="45.66191" lon="6.81874">
        <ele>2467</ele>
        <time>2021-03-27T13:29:49Z</time>
      </trkpt>
      <trkpt lat="45.66192" lon="6.81873">
        <ele>2466.8</ele>
        <time>2021-03-27T13:29:50Z</time>
      </trkpt>
      <trkpt lat="45.66192" lon="6.81872">
        <ele>2466.8</ele>
        <time>2021-03-27T13:29:51Z</time>
      </trkpt>
      <trkpt lat="45.66192" lon="6.81872">
        <ele>2466.8</ele>
        <time>2021-03-27T13:29:52Z</time>
      </trkpt>
      <trkpt lat="45.66192" lon="6.81871">
        <ele>2466.8</ele>
        <time>2021-03-27T13:29:53Z</time>
      </trkpt>
      <trkpt lat="45.66192" lon="6.8187">
        <ele>2466.8</ele>
        <time>2021-03-27T13:29:54Z</time>
      </trkpt>
      <trkpt lat="45.66192" lon="6.8187">
        <ele>2466.8</ele>
        <time>2021-03-27T13:29:55Z</time>
      </trkpt>
      <trkpt lat="45.66193" lon="6.81869">
        <ele>2467.1</ele>
        <time>2021-03-27T13:29:56Z</time>
      </trkpt>
      <trkpt lat="45.66193" lon="6.81868">
        <ele>2467.1</ele>
        <time>2021-03-27T13:29:57Z</time>
      </trkpt>
      <trkpt lat="45.66193" lon="6.81867">
        <ele>2467.1</ele>
        <time>2021-03-27T13:29:58Z</time>
      </trkpt>
      <trkpt lat="45.66194" lon="6.81867">
        <ele>2467.1</ele>
        <time>2021-03-27T13:29:59Z</time>
      </trkpt>
      <trkpt lat="45.66194" lon="6.81866">
        <ele>2467.1</ele>
        <time>2021-03-27T13:30:00Z</time>
      </trkpt>
      <trkpt lat="45.66194" lon="6.81864">
        <ele>2466.8</ele>
        <time>2021-03-27T13:30:01Z</time>
      </trkpt>
      <trkpt lat="45.66195" lon="6.81863">
        <ele>2466.8</ele>
        <time>2021-03-27T13:30:02Z</time>
      </trkpt>
      <trkpt lat="45.66195" lon="6.81862">
        <ele>2466.8</ele>
        <time>2021-03-27T13:30:03Z</time>
      </trkpt>
      <trkpt lat="45.66195" lon="6.81861">
        <ele>2466.8</ele>
        <time>2021-03-27T13:30:04Z</time>
      </trkpt>
      <trkpt lat="45.66195" lon="6.8186">
        <ele>2466.3</ele>
        <time>2021-03-27T13:30:05Z</time>
      </trkpt>
      <trkpt lat="45.66196" lon="6.81859">
        <ele>2466.3</ele>
        <time>2021-03-27T13:30:06Z</time>
      </trkpt>
      <trkpt lat="45.66196" lon="6.81859">
        <ele>2466.8</ele>
        <time>2021-03-27T13:30:07Z</time>
      </trkpt>
      <trkpt lat="45.66196" lon="6.81858">
        <ele>2466.8</ele>
        <time>2021-03-27T13:30:08Z</time>
      </trkpt>
      <trkpt lat="45.66196" lon="6.81857">
        <ele>2466.8</ele>
        <time>2021-03-27T13:30:09Z</time>
      </trkpt>
      <trkpt lat="45.66196" lon="6.81856">
        <ele>2466.3</ele>
        <time>2021-03-27T13:30:10Z</time>
      </trkpt>
      <trkpt lat="45.66196" lon="6.81854">
        <ele>2466.3</ele>
        <time>2021-03-27T13:30:11Z</time>
      </trkpt>
      <trkpt lat="45.66197" lon="6.81853">
        <ele>2466.3</ele>
        <time>2021-03-27T13:30:12Z</time>
      </trkpt>
      <trkpt lat="45.66197" lon="6.81853">
        <ele>2466.3</ele>
        <time>2021-03-27T13:30:13Z</time>
      </trkpt>
      <trkpt lat="45.66197" lon="6.81852">
        <ele>2465.7</ele>
        <time>2021-03-27T13:30:14Z</time>
      </trkpt>
      <trkpt lat="45.66197" lon="6.81851">
        <ele>2465.7</ele>
        <time>2021-03-27T13:30:15Z</time>
      </trkpt>
      <trkpt lat="45.66197" lon="6.8185">
        <ele>2465.7</ele>
        <time>2021-03-27T13:30:16Z</time>
      </trkpt>
      <trkpt lat="45.66197" lon="6.81849">
        <ele>2465.7</ele>
        <time>2021-03-27T13:30:17Z</time>
      </trkpt>
      <trkpt lat="45.66197" lon="6.81848">
        <ele>2465.7</ele>
        <time>2021-03-27T13:30:18Z</time>
      </trkpt>
      <trkpt lat="45.66198" lon="6.81847">
        <ele>2465.1</ele>
        <time>2021-03-27T13:30:19Z</time>
      </trkpt>
      <trkpt lat="45.66198" lon="6.81846">
        <ele>2465.1</ele>
        <time>2021-03-27T13:30:20Z</time>
      </trkpt>
      <trkpt lat="45.66198" lon="6.81845">
        <ele>2465.1</ele>
        <time>2021-03-27T13:30:21Z</time>
      </trkpt>
      <trkpt lat="45.66198" lon="6.81844">
        <ele>2465.1</ele>
        <time>2021-03-27T13:30:22Z</time>
      </trkpt>
      <trkpt lat="45.66198" lon="6.81843">
        <ele>2465.1</ele>
        <time>2021-03-27T13:30:23Z</time>
      </trkpt>
      <trkpt lat="45.66198" lon="6.81843">
        <ele>2464.4</ele>
        <time>2021-03-27T13:30:24Z</time>
      </trkpt>
      <trkpt lat="45.66198" lon="6.81842">
        <ele>2464.4</ele>
        <time>2021-03-27T13:30:25Z</time>
      </trkpt>
      <trkpt lat="45.66198" lon="6.81842">
        <ele>2464.4</ele>
        <time>2021-03-27T13:30:26Z</time>
      </trkpt>
      <trkpt lat="45.66198" lon="6.81841">
        <ele>2464.4</ele>
        <time>2021-03-27T13:30:27Z</time>
      </trkpt>
      <trkpt lat="45.66198" lon="6.8184">
        <ele>2464.4</ele>
        <time>2021-03-27T13:30:28Z</time>
      </trkpt>
      <trkpt lat="45.66199" lon="6.81839">
        <ele>2463.9</ele>
        <time>2021-03-27T13:30:29Z</time>
      </trkpt>
      <trkpt lat="45.66199" lon="6.81838">
        <ele>2463.9</ele>
        <time>2021-03-27T13:30:30Z</time>
      </trkpt>
      <trkpt lat="45.66199" lon="6.81837">
        <ele>2463.9</ele>
        <time>2021-03-27T13:30:31Z</time>
      </trkpt>
      <trkpt lat="45.662" lon="6.81836">
        <ele>2463.9</ele>
        <time>2021-03-27T13:30:32Z</time>
      </trkpt>
      <trkpt lat="45.662" lon="6.81835">
        <ele>2463.9</ele>
        <time>2021-03-27T13:30:33Z</time>
      </trkpt>
      <trkpt lat="45.662" lon="6.81834">
        <ele>2463.2</ele>
        <time>2021-03-27T13:30:34Z</time>
      </trkpt>
      <trkpt lat="45.66201" lon="6.81833">
        <ele>2463.2</ele>
        <time>2021-03-27T13:30:35Z</time>
      </trkpt>
      <trkpt lat="45.66201" lon="6.81833">
        <ele>2463.2</ele>
        <time>2021-03-27T13:30:36Z</time>
      </trkpt>
      <trkpt lat="45.66202" lon="6.81831">
        <ele>2463.2</ele>
        <time>2021-03-27T13:30:37Z</time>
      </trkpt>
      <trkpt lat="45.66202" lon="6.8183">
        <ele>2462.4</ele>
        <time>2021-03-27T13:30:38Z</time>
      </trkpt>
      <trkpt lat="45.66202" lon="6.81829">
        <ele>2462.4</ele>
        <time>2021-03-27T13:30:39Z</time>
      </trkpt>
      <trkpt lat="45.66202" lon="6.81828">
        <ele>2462.4</ele>
        <time>2021-03-27T13:30:40Z</time>
      </trkpt>
      <trkpt lat="45.66202" lon="6.81827">
        <ele>2462.4</ele>
        <time>2021-03-27T13:30:41Z</time>
      </trkpt>
      <trkpt lat="45.66203" lon="6.81826">
        <ele>2461.5</ele>
        <time>2021-03-27T13:30:42Z</time>
      </trkpt>
      <trkpt lat="45.66203" lon="6.81826">
        <ele>2461.5</ele>
        <time>2021-03-27T13:30:43Z</time>
      </trkpt>
      <trkpt lat="45.66204" lon="6.81825">
        <ele>2461.5</ele>
        <time>2021-03-27T13:30:44Z</time>
      </trkpt>
      <trkpt lat="45.66205" lon="6.81825">
        <ele>2461.5</ele>
        <time>2021-03-27T13:30:45Z</time>
      </trkpt>
      <trkpt lat="45.66205" lon="6.81825">
        <ele>2461.5</ele>
        <time>2021-03-27T13:30:46Z</time>
      </trkpt>
      <trkpt lat="45.66206" lon="6.81824">
        <ele>2461.5</ele>
        <time>2021-03-27T13:30:47Z</time>
      </trkpt>
      <trkpt lat="45.66206" lon="6.81824">
        <ele>2461.5</ele>
        <time>2021-03-27T13:30:48Z</time>
      </trkpt>
      <trkpt lat="45.66207" lon="6.81824">
        <ele>2461.5</ele>
        <time>2021-03-27T13:30:49Z</time>
      </trkpt>
      <trkpt lat="45.66207" lon="6.81823">
        <ele>2461.5</ele>
        <time>2021-03-27T13:30:50Z</time>
      </trkpt>
      <trkpt lat="45.66208" lon="6.81823">
        <ele>2461.3</ele>
        <time>2021-03-27T13:30:51Z</time>
      </trkpt>
      <trkpt lat="45.66208" lon="6.81823">
        <ele>2461.3</ele>
        <time>2021-03-27T13:30:52Z</time>
      </trkpt>
      <trkpt lat="45.66209" lon="6.81822">
        <ele>2461.3</ele>
        <time>2021-03-27T13:30:53Z</time>
      </trkpt>
      <trkpt lat="45.6621" lon="6.81822">
        <ele>2461.3</ele>
        <time>2021-03-27T13:33:16Z</time>
      </trkpt>
      <trkpt lat="45.6621" lon="6.81822">
        <ele>2460.2</ele>
        <time>2021-03-27T13:33:17Z</time>
      </trkpt>
      <trkpt lat="45.6621" lon="6.8182">
        <ele>2460.2</ele>
        <time>2021-03-27T13:33:18Z</time>
      </trkpt>
      <trkpt lat="45.66211" lon="6.81819">
        <ele>2459.8</ele>
        <time>2021-03-27T13:33:19Z</time>
      </trkpt>
      <trkpt lat="45.66211" lon="6.81818">
        <ele>2459.8</ele>
        <time>2021-03-27T13:33:20Z</time>
      </trkpt>
      <trkpt lat="45.66211" lon="6.81817">
        <ele>2458.4</ele>
        <time>2021-03-27T13:33:21Z</time>
      </trkpt>
      <trkpt lat="45.66212" lon="6.81816">
        <ele>2458.4</ele>
        <time>2021-03-27T13:33:22Z</time>
      </trkpt>
      <trkpt lat="45.66212" lon="6.81815">
        <ele>2458.4</ele>
        <time>2021-03-27T13:33:23Z</time>
      </trkpt>
      <trkpt lat="45.66213" lon="6.81814">
        <ele>2458.4</ele>
        <time>2021-03-27T13:33:24Z</time>
      </trkpt>
      <trkpt lat="45.66214" lon="6.81812">
        <ele>2456.8</ele>
        <time>2021-03-27T13:33:25Z</time>
      </trkpt>
      <trkpt lat="45.66214" lon="6.81812">
        <ele>2456</ele>
        <time>2021-03-27T13:33:26Z</time>
      </trkpt>
      <trkpt lat="45.66214" lon="6.81812">
        <ele>2456</ele>
        <time>2021-03-27T13:33:27Z</time>
      </trkpt>
      <trkpt lat="45.66215" lon="6.81811">
        <ele>2456</ele>
        <time>2021-03-27T13:33:28Z</time>
      </trkpt>
      <trkpt lat="45.66215" lon="6.81811">
        <ele>2456</ele>
        <time>2021-03-27T13:33:29Z</time>
      </trkpt>
      <trkpt lat="45.66215" lon="6.81811">
        <ele>2456</ele>
        <time>2021-03-27T13:33:30Z</time>
      </trkpt>
      <trkpt lat="45.66215" lon="6.8181">
        <ele>2456</ele>
        <time>2021-03-27T13:33:31Z</time>
      </trkpt>
      <trkpt lat="45.66216" lon="6.8181">
        <ele>2456</ele>
        <time>2021-03-27T13:33:32Z</time>
      </trkpt>
      <trkpt lat="45.66217" lon="6.81809">
        <ele>2455.1</ele>
        <time>2021-03-27T13:33:33Z</time>
      </trkpt>
      <trkpt lat="45.66219" lon="6.81809">
        <ele>2453</ele>
        <time>2021-03-27T13:33:34Z</time>
      </trkpt>
      <trkpt lat="45.6622" lon="6.81808">
        <ele>2453</ele>
        <time>2021-03-27T13:33:35Z</time>
      </trkpt>
      <trkpt lat="45.66221" lon="6.81808">
        <ele>2451.7</ele>
        <time>2021-03-27T13:33:36Z</time>
      </trkpt>
      <trkpt lat="45.66222" lon="6.81808">
        <ele>2451.7</ele>
        <time>2021-03-27T13:33:37Z</time>
      </trkpt>
      <trkpt lat="45.66223" lon="6.81807">
        <ele>2450.2</ele>
        <time>2021-03-27T13:33:57Z</time>
      </trkpt>
      <trkpt lat="45.66224" lon="6.81807">
        <ele>2450.2</ele>
        <time>2021-03-27T13:33:58Z</time>
      </trkpt>
      <trkpt lat="45.66225" lon="6.81806">
        <ele>2450.2</ele>
        <time>2021-03-27T13:33:59Z</time>
      </trkpt>
      <trkpt lat="45.66226" lon="6.81806">
        <ele>2448.4</ele>
        <time>2021-03-27T13:34:00Z</time>
      </trkpt>
      <trkpt lat="45.66226" lon="6.81805">
        <ele>2445.7</ele>
        <time>2021-03-27T13:34:01Z</time>
      </trkpt>
      <trkpt lat="45.66226" lon="6.81804">
        <ele>2445.7</ele>
        <time>2021-03-27T13:34:02Z</time>
      </trkpt>
      <trkpt lat="45.66225" lon="6.81803">
        <ele>2447.5</ele>
        <time>2021-03-27T13:34:03Z</time>
      </trkpt>
      <trkpt lat="45.66225" lon="6.81802">
        <ele>2447.5</ele>
        <time>2021-03-27T13:34:04Z</time>
      </trkpt>
      <trkpt lat="45.66225" lon="6.81801">
        <ele>2447.5</ele>
        <time>2021-03-27T13:34:05Z</time>
      </trkpt>
      <trkpt lat="45.66224" lon="6.818">
        <ele>2444.8</ele>
        <time>2021-03-27T13:34:06Z</time>
      </trkpt>
      <trkpt lat="45.66224" lon="6.818">
        <ele>2444.8</ele>
        <time>2021-03-27T13:34:07Z</time>
      </trkpt>
      <trkpt lat="45.66224" lon="6.81799">
        <ele>2444.8</ele>
        <time>2021-03-27T13:34:08Z</time>
      </trkpt>
      <trkpt lat="45.66224" lon="6.81799">
        <ele>2444.8</ele>
        <time>2021-03-27T13:34:09Z</time>
      </trkpt>
      <trkpt lat="45.66223" lon="6.81798">
        <ele>2444.8</ele>
        <time>2021-03-27T13:34:10Z</time>
      </trkpt>
      <trkpt lat="45.66223" lon="6.81799">
        <ele>2444.8</ele>
        <time>2021-03-27T13:34:11Z</time>
      </trkpt>
      <trkpt lat="45.66223" lon="6.81799">
        <ele>2444.8</ele>
        <time>2021-03-27T13:34:12Z</time>
      </trkpt>
      <trkpt lat="45.66224" lon="6.818">
        <ele>2444.8</ele>
        <time>2021-03-27T13:34:13Z</time>
      </trkpt>
      <trkpt lat="45.66224" lon="6.81801">
        <ele>2447.5</ele>
        <time>2021-03-27T13:34:14Z</time>
      </trkpt>
      <trkpt lat="45.66224" lon="6.81801">
        <ele>2447.5</ele>
        <time>2021-03-27T13:47:10Z</time>
      </trkpt>
      <trkpt lat="45.66224" lon="6.81802">
        <ele>2447.5</ele>
        <time>2021-03-27T13:47:11Z</time>
      </trkpt>
      <trkpt lat="45.66224" lon="6.81802">
        <ele>2447.5</ele>
        <time>2021-03-27T13:47:12Z</time>
      </trkpt>
      <trkpt lat="45.66224" lon="6.81803">
        <ele>2447.5</ele>
        <time>2021-03-27T13:47:13Z</time>
      </trkpt>
      <trkpt lat="45.66224" lon="6.81803">
        <ele>2447.5</ele>
        <time>2021-03-27T13:47:14Z</time>
      </trkpt>
      <trkpt lat="45.66224" lon="6.81804">
        <ele>2447.5</ele>
        <time>2021-03-27T13:47:15Z</time>
      </trkpt>
      <trkpt lat="45.66224" lon="6.81805">
        <ele>2447.5</ele>
        <time>2021-03-27T13:47:16Z</time>
      </trkpt>
      <trkpt lat="45.66224" lon="6.81805">
        <ele>2450.2</ele>
        <time>2021-03-27T13:47:17Z</time>
      </trkpt>
      <trkpt lat="45.66224" lon="6.81806">
        <ele>2450.2</ele>
        <time>2021-03-27T13:47:18Z</time>
      </trkpt>
      <trkpt lat="45.66224" lon="6.81806">
        <ele>2450.2</ele>
        <time>2021-03-27T13:47:19Z</time>
      </trkpt>
      <trkpt lat="45.66224" lon="6.81807">
        <ele>2450.2</ele>
        <time>2021-03-27T13:47:20Z</time>
      </trkpt>
      <trkpt lat="45.66224" lon="6.81807">
        <ele>2450.2</ele>
        <time>2021-03-27T13:53:13Z</time>
      </trkpt>
      <trkpt lat="45.66224" lon="6.81808">
        <ele>2450.2</ele>
        <time>2021-03-27T13:53:14Z</time>
      </trkpt>
      <trkpt lat="45.66224" lon="6.81809">
        <ele>2450.2</ele>
        <time>2021-03-27T13:53:15Z</time>
      </trkpt>
      <trkpt lat="45.66222" lon="6.81813">
        <ele>2456</ele>
        <time>2021-03-27T13:53:16Z</time>
      </trkpt>
      <trkpt lat="45.66221" lon="6.81815">
        <ele>2456</ele>
        <time>2021-03-27T13:53:17Z</time>
      </trkpt>
      <trkpt lat="45.66219" lon="6.81819">
        <ele>2458.6</ele>
        <time>2021-03-27T13:53:18Z</time>
      </trkpt>
      <trkpt lat="45.66215" lon="6.81823">
        <ele>2460.6</ele>
        <time>2021-03-27T13:53:19Z</time>
      </trkpt>
      <trkpt lat="45.66213" lon="6.81827">
        <ele>2462.1</ele>
        <time>2021-03-27T13:53:20Z</time>
      </trkpt>
      <trkpt lat="45.66211" lon="6.81831">
        <ele>2463.2</ele>
        <time>2021-03-27T13:53:21Z</time>
      </trkpt>
      <trkpt lat="45.6621" lon="6.81834">
        <ele>2463.3</ele>
        <time>2021-03-27T13:53:22Z</time>
      </trkpt>
      <trkpt lat="45.66209" lon="6.81836">
        <ele>2464.2</ele>
        <time>2021-03-27T13:53:23Z</time>
      </trkpt>
      <trkpt lat="45.66208" lon="6.81838">
        <ele>2464.2</ele>
        <time>2021-03-27T13:53:24Z</time>
      </trkpt>
      <trkpt lat="45.66207" lon="6.81839">
        <ele>2465.1</ele>
        <time>2021-03-27T13:53:25Z</time>
      </trkpt>
      <trkpt lat="45.66207" lon="6.8184">
        <ele>2465.1</ele>
        <time>2021-03-27T13:53:26Z</time>
      </trkpt>
      <trkpt lat="45.66206" lon="6.81844">
        <ele>2465.9</ele>
        <time>2021-03-27T13:53:27Z</time>
      </trkpt>
      <trkpt lat="45.66205" lon="6.81846">
        <ele>2465.9</ele>
        <time>2021-03-27T13:53:28Z</time>
      </trkpt>
      <trkpt lat="45.66204" lon="6.8185">
        <ele>2466.4</ele>
        <time>2021-03-27T13:53:29Z</time>
      </trkpt>
      <trkpt lat="45.66201" lon="6.81854">
        <ele>2466.7</ele>
        <time>2021-03-27T13:53:30Z</time>
      </trkpt>
      <trkpt lat="45.66198" lon="6.81858">
        <ele>2466.8</ele>
        <time>2021-03-27T13:53:31Z</time>
      </trkpt>
      <trkpt lat="45.66195" lon="6.81862">
        <ele>2466.8</ele>
        <time>2021-03-27T13:53:32Z</time>
      </trkpt>
      <trkpt lat="45.66192" lon="6.81868">
        <ele>2466.5</ele>
        <time>2021-03-27T13:53:33Z</time>
      </trkpt>
      <trkpt lat="45.66189" lon="6.81876">
        <ele>2466.3</ele>
        <time>2021-03-27T13:53:34Z</time>
      </trkpt>
      <trkpt lat="45.66188" lon="6.81884">
        <ele>2466.6</ele>
        <time>2021-03-27T13:53:35Z</time>
      </trkpt>
      <trkpt lat="45.66185" lon="6.8189">
        <ele>2465.9</ele>
        <time>2021-03-27T13:53:36Z</time>
      </trkpt>
      <trkpt lat="45.66183" lon="6.81894">
        <ele>2465.1</ele>
        <time>2021-03-27T13:53:37Z</time>
      </trkpt>
      <trkpt lat="45.6618" lon="6.81897">
        <ele>2464.2</ele>
        <time>2021-03-27T13:53:38Z</time>
      </trkpt>
      <trkpt lat="45.66179" lon="6.819">
        <ele>2464</ele>
        <time>2021-03-27T13:53:39Z</time>
      </trkpt>
      <trkpt lat="45.66178" lon="6.81904">
        <ele>2463.8</ele>
        <time>2021-03-27T13:53:40Z</time>
      </trkpt>
      <trkpt lat="45.66178" lon="6.81907">
        <ele>2463.8</ele>
        <time>2021-03-27T13:53:41Z</time>
      </trkpt>
      <trkpt lat="45.66178" lon="6.81908">
        <ele>2462.5</ele>
        <time>2021-03-27T13:53:42Z</time>
      </trkpt>
      <trkpt lat="45.66178" lon="6.81907">
        <ele>2462.8</ele>
        <time>2021-03-27T13:53:43Z</time>
      </trkpt>
      <trkpt lat="45.66177" lon="6.81907">
        <ele>2462.8</ele>
        <time>2021-03-27T13:53:44Z</time>
      </trkpt>
      <trkpt lat="45.66177" lon="6.81906">
        <ele>2462.8</ele>
        <time>2021-03-27T13:53:45Z</time>
      </trkpt>
      <trkpt lat="45.66177" lon="6.81906">
        <ele>2462.8</ele>
        <time>2021-03-27T13:53:46Z</time>
      </trkpt>
      <trkpt lat="45.66177" lon="6.81906">
        <ele>2462.8</ele>
        <time>2021-03-27T13:53:47Z</time>
      </trkpt>
      <trkpt lat="45.66177" lon="6.81906">
        <ele>2462.8</ele>
        <time>2021-03-27T13:53:48Z</time>
      </trkpt>
      <trkpt lat="45.66177" lon="6.81906">
        <ele>2462.8</ele>
        <time>2021-03-27T13:53:49Z</time>
      </trkpt>
      <trkpt lat="45.66177" lon="6.81906">
        <ele>2462.8</ele>
        <time>2021-03-27T13:53:50Z</time>
      </trkpt>
      <trkpt lat="45.66177" lon="6.81906">
        <ele>2462.8</ele>
        <time>2021-03-27T13:53:51Z</time>
      </trkpt>
      <trkpt lat="45.66177" lon="6.81906">
        <ele>2462.8</ele>
        <time>2021-03-27T13:53:52Z</time>
      </trkpt>
      <trkpt lat="45.66177" lon="6.81906">
        <ele>2462.8</ele>
        <time>2021-03-27T13:53:53Z</time>
      </trkpt>
      <trkpt lat="45.66172" lon="6.81893">
        <ele>2462.3</ele>
        <time>2021-03-27T13:54:03Z</time>
      </trkpt>
      <trkpt lat="45.66169" lon="6.81891">
        <ele>2461.1</ele>
        <time>2021-03-27T13:54:04Z</time>
      </trkpt>
      <trkpt lat="45.66167" lon="6.8189">
        <ele>2459.9</ele>
        <time>2021-03-27T13:54:05Z</time>
      </trkpt>
      <trkpt lat="45.66165" lon="6.81894">
        <ele>2458.3</ele>
        <time>2021-03-27T13:54:06Z</time>
      </trkpt>
      <trkpt lat="45.66164" lon="6.81899">
        <ele>2458.1</ele>
        <time>2021-03-27T13:54:07Z</time>
      </trkpt>
      <trkpt lat="45.66163" lon="6.81904">
        <ele>2457.4</ele>
        <time>2021-03-27T13:54:08Z</time>
      </trkpt>
      <trkpt lat="45.66163" lon="6.81908">
        <ele>2457</ele>
        <time>2021-03-27T13:54:09Z</time>
      </trkpt>
      <trkpt lat="45.66163" lon="6.81914">
        <ele>2455.1</ele>
        <time>2021-03-27T13:54:10Z</time>
      </trkpt>
      <trkpt lat="45.66162" lon="6.81915">
        <ele>2455.1</ele>
        <time>2021-03-27T13:54:11Z</time>
      </trkpt>
      <trkpt lat="45.6616" lon="6.81918">
        <ele>2454.6</ele>
        <time>2021-03-27T13:54:12Z</time>
      </trkpt>
      <trkpt lat="45.66159" lon="6.81919">
        <ele>2453.1</ele>
        <time>2021-03-27T13:54:13Z</time>
      </trkpt>
      <trkpt lat="45.66157" lon="6.8192">
        <ele>2453.1</ele>
        <time>2021-03-27T13:54:14Z</time>
      </trkpt>
      <trkpt lat="45.66156" lon="6.81921">
        <ele>2451.3</ele>
        <time>2021-03-27T13:54:15Z</time>
      </trkpt>
      <trkpt lat="45.66153" lon="6.81919">
        <ele>2450.3</ele>
        <time>2021-03-27T13:54:16Z</time>
      </trkpt>
      <trkpt lat="45.66151" lon="6.81918">
        <ele>2450.3</ele>
        <time>2021-03-27T13:54:17Z</time>
      </trkpt>
      <trkpt lat="45.66148" lon="6.81914">
        <ele>2449.4</ele>
        <time>2021-03-27T13:54:18Z</time>
      </trkpt>
      <trkpt lat="45.66145" lon="6.81908">
        <ele>2448.3</ele>
        <time>2021-03-27T13:54:19Z</time>
      </trkpt>
      <trkpt lat="45.66141" lon="6.81903">
        <ele>2446.1</ele>
        <time>2021-03-27T13:54:20Z</time>
      </trkpt>
      <trkpt lat="45.66138" lon="6.81902">
        <ele>2444.5</ele>
        <time>2021-03-27T13:54:21Z</time>
      </trkpt>
      <trkpt lat="45.66137" lon="6.81903">
        <ele>2444.5</ele>
        <time>2021-03-27T13:54:22Z</time>
      </trkpt>
      <trkpt lat="45.66134" lon="6.81907">
        <ele>2442.5</ele>
        <time>2021-03-27T13:54:23Z</time>
      </trkpt>
      <trkpt lat="45.66134" lon="6.81914">
        <ele>2441.7</ele>
        <time>2021-03-27T13:54:24Z</time>
      </trkpt>
      <trkpt lat="45.66134" lon="6.81921">
        <ele>2441</ele>
        <time>2021-03-27T13:54:25Z</time>
      </trkpt>
      <trkpt lat="45.66134" lon="6.81926">
        <ele>2440.6</ele>
        <time>2021-03-27T13:54:26Z</time>
      </trkpt>
      <trkpt lat="45.66133" lon="6.8193">
        <ele>2440.2</ele>
        <time>2021-03-27T13:54:27Z</time>
      </trkpt>
      <trkpt lat="45.66133" lon="6.81932">
        <ele>2438.8</ele>
        <time>2021-03-27T13:54:28Z</time>
      </trkpt>
      <trkpt lat="45.6613" lon="6.81937">
        <ele>2437.2</ele>
        <time>2021-03-27T13:54:29Z</time>
      </trkpt>
      <trkpt lat="45.66126" lon="6.81944">
        <ele>2435.3</ele>
        <time>2021-03-27T13:54:30Z</time>
      </trkpt>
      <trkpt lat="45.66124" lon="6.81947">
        <ele>2435</ele>
        <time>2021-03-27T13:54:31Z</time>
      </trkpt>
      <trkpt lat="45.6612" lon="6.81944">
        <ele>2432.9</ele>
        <time>2021-03-27T13:54:32Z</time>
      </trkpt>
      <trkpt lat="45.66119" lon="6.81943">
        <ele>2432.9</ele>
        <time>2021-03-27T13:54:33Z</time>
      </trkpt>
      <trkpt lat="45.66117" lon="6.81937">
        <ele>2432.2</ele>
        <time>2021-03-27T13:54:34Z</time>
      </trkpt>
      <trkpt lat="45.66114" lon="6.81932">
        <ele>2431.1</ele>
        <time>2021-03-27T13:54:35Z</time>
      </trkpt>
      <trkpt lat="45.66109" lon="6.81928">
        <ele>2429.8</ele>
        <time>2021-03-27T13:54:36Z</time>
      </trkpt>
      <trkpt lat="45.66104" lon="6.81927">
        <ele>2426.7</ele>
        <time>2021-03-27T13:54:37Z</time>
      </trkpt>
      <trkpt lat="45.66099" lon="6.81929">
        <ele>2423.9</ele>
        <time>2021-03-27T13:54:38Z</time>
      </trkpt>
      <trkpt lat="45.66096" lon="6.81931">
        <ele>2422.3</ele>
        <time>2021-03-27T13:54:39Z</time>
      </trkpt>
      <trkpt lat="45.66093" lon="6.81931">
        <ele>2420.9</ele>
        <time>2021-03-27T13:54:40Z</time>
      </trkpt>
      <trkpt lat="45.66091" lon="6.81928">
        <ele>2419.5</ele>
        <time>2021-03-27T13:54:41Z</time>
      </trkpt>
      <trkpt lat="45.66089" lon="6.81923">
        <ele>2419.7</ele>
        <time>2021-03-27T13:54:42Z</time>
      </trkpt>
      <trkpt lat="45.66089" lon="6.81921">
        <ele>2419.7</ele>
        <time>2021-03-27T13:54:43Z</time>
      </trkpt>
      <trkpt lat="45.66089" lon="6.81921">
        <ele>2419.7</ele>
        <time>2021-03-27T13:54:44Z</time>
      </trkpt>
      <trkpt lat="45.6609" lon="6.8192">
        <ele>2419.8</ele>
        <time>2021-03-27T13:54:45Z</time>
      </trkpt>
      <trkpt lat="45.6609" lon="6.8192">
        <ele>2419.8</ele>
        <time>2021-03-27T13:54:46Z</time>
      </trkpt>
      <trkpt lat="45.6609" lon="6.8192">
        <ele>2419.8</ele>
        <time>2021-03-27T13:54:47Z</time>
      </trkpt>
      <trkpt lat="45.6609" lon="6.8192">
        <ele>2419.8</ele>
        <time>2021-03-27T13:54:48Z</time>
      </trkpt>
      <trkpt lat="45.6609" lon="6.8192">
        <ele>2419.8</ele>
        <time>2021-03-27T13:54:49Z</time>
      </trkpt>
      <trkpt lat="45.6609" lon="6.8192">
        <ele>2419.8</ele>
        <time>2021-03-27T13:54:50Z</time>
      </trkpt>
      <trkpt lat="45.6609" lon="6.8192">
        <ele>2419.8</ele>
        <time>2021-03-27T13:54:51Z</time>
      </trkpt>
      <trkpt lat="45.6609" lon="6.8192">
        <ele>2419.8</ele>
        <time>2021-03-27T13:54:52Z</time>
      </trkpt>
      <trkpt lat="45.6609" lon="6.8192">
        <ele>2419.8</ele>
        <time>2021-03-27T13:54:53Z</time>
      </trkpt>
      <trkpt lat="45.6609" lon="6.8192">
        <ele>2419.8</ele>
        <time>2021-03-27T13:54:54Z</time>
      </trkpt>
      <trkpt lat="45.66085" lon="6.81919">
        <ele>2418</ele>
        <time>2021-03-27T13:55:01Z</time>
      </trkpt>
      <trkpt lat="45.66082" lon="6.81921">
        <ele>2416</ele>
        <time>2021-03-27T13:55:02Z</time>
      </trkpt>
      <trkpt lat="45.66079" lon="6.81922">
        <ele>2412</ele>
        <time>2021-03-27T13:55:03Z</time>
      </trkpt>
      <trkpt lat="45.66075" lon="6.81924">
        <ele>2410.1</ele>
        <time>2021-03-27T13:55:04Z</time>
      </trkpt>
      <trkpt lat="45.66072" lon="6.81926">
        <ele>2408.3</ele>
        <time>2021-03-27T13:55:05Z</time>
      </trkpt>
      <trkpt lat="45.66069" lon="6.81924">
        <ele>2406.5</ele>
        <time>2021-03-27T13:55:06Z</time>
      </trkpt>
      <trkpt lat="45.66067" lon="6.8192">
        <ele>2406.6</ele>
        <time>2021-03-27T13:55:07Z</time>
      </trkpt>
      <trkpt lat="45.66067" lon="6.81919">
        <ele>2406.6</ele>
        <time>2021-03-27T13:55:08Z</time>
      </trkpt>
      <trkpt lat="45.66069" lon="6.81918">
        <ele>2406.6</ele>
        <time>2021-03-27T13:55:09Z</time>
      </trkpt>
      <trkpt lat="45.6607" lon="6.81919">
        <ele>2406.6</ele>
        <time>2021-03-27T13:55:10Z</time>
      </trkpt>
      <trkpt lat="45.6607" lon="6.81919">
        <ele>2408.4</ele>
        <time>2021-03-27T13:55:11Z</time>
      </trkpt>
      <trkpt lat="45.66071" lon="6.81919">
        <ele>2408.4</ele>
        <time>2021-03-27T13:55:12Z</time>
      </trkpt>
      <trkpt lat="45.66072" lon="6.81919">
        <ele>2408.4</ele>
        <time>2021-03-27T13:55:13Z</time>
      </trkpt>
      <trkpt lat="45.66073" lon="6.81919">
        <ele>2408.4</ele>
        <time>2021-03-27T13:55:14Z</time>
      </trkpt>
      <trkpt lat="45.66073" lon="6.81919">
        <ele>2410.2</ele>
        <time>2021-03-27T13:55:15Z</time>
      </trkpt>
      <trkpt lat="45.66073" lon="6.81915">
        <ele>2410.2</ele>
        <time>2021-03-27T13:55:16Z</time>
      </trkpt>
      <trkpt lat="45.66073" lon="6.81913">
        <ele>2410.2</ele>
        <time>2021-03-27T13:55:17Z</time>
      </trkpt>
      <trkpt lat="45.66074" lon="6.81908">
        <ele>2410.2</ele>
        <time>2021-03-27T13:55:18Z</time>
      </trkpt>
      <trkpt lat="45.66074" lon="6.81902">
        <ele>2410.1</ele>
        <time>2021-03-27T13:55:19Z</time>
      </trkpt>
      <trkpt lat="45.66074" lon="6.81897">
        <ele>2410</ele>
        <time>2021-03-27T13:55:20Z</time>
      </trkpt>
      <trkpt lat="45.66074" lon="6.81892">
        <ele>2409.9</ele>
        <time>2021-03-27T13:55:21Z</time>
      </trkpt>
      <trkpt lat="45.66074" lon="6.81887">
        <ele>2409.8</ele>
        <time>2021-03-27T13:55:22Z</time>
      </trkpt>
      <trkpt lat="45.66072" lon="6.81883">
        <ele>2407.7</ele>
        <time>2021-03-27T13:55:23Z</time>
      </trkpt>
      <trkpt lat="45.66069" lon="6.81879">
        <ele>2405.6</ele>
        <time>2021-03-27T13:55:24Z</time>
      </trkpt>
      <trkpt lat="45.66065" lon="6.81876">
        <ele>2403.3</ele>
        <time>2021-03-27T13:55:25Z</time>
      </trkpt>
      <trkpt lat="45.66062" lon="6.81872">
        <ele>2400.8</ele>
        <time>2021-03-27T13:55:26Z</time>
      </trkpt>
      <trkpt lat="45.6606" lon="6.81868">
        <ele>2398.3</ele>
        <time>2021-03-27T13:55:27Z</time>
      </trkpt>
      <trkpt lat="45.66059" lon="6.81864">
        <ele>2398</ele>
        <time>2021-03-27T13:55:28Z</time>
      </trkpt>
      <trkpt lat="45.66058" lon="6.8186">
        <ele>2397.8</ele>
        <time>2021-03-27T13:55:29Z</time>
      </trkpt>
      <trkpt lat="45.66056" lon="6.81857">
        <ele>2395.4</ele>
        <time>2021-03-27T13:55:30Z</time>
      </trkpt>
      <trkpt lat="45.66055" lon="6.81852">
        <ele>2395.2</ele>
        <time>2021-03-27T13:55:31Z</time>
      </trkpt>
      <trkpt lat="45.66055" lon="6.81851">
        <ele>2395</ele>
        <time>2021-03-27T13:55:32Z</time>
      </trkpt>
      <trkpt lat="45.66055" lon="6.81847">
        <ele>2394.8</ele>
        <time>2021-03-27T13:55:33Z</time>
      </trkpt>
      <trkpt lat="45.66054" lon="6.81842">
        <ele>2392.3</ele>
        <time>2021-03-27T13:55:34Z</time>
      </trkpt>
      <trkpt lat="45.66053" lon="6.81837">
        <ele>2392.1</ele>
        <time>2021-03-27T13:55:35Z</time>
      </trkpt>
      <trkpt lat="45.66052" lon="6.81833">
        <ele>2389.7</ele>
        <time>2021-03-27T13:55:36Z</time>
      </trkpt>
      <trkpt lat="45.6605" lon="6.81829">
        <ele>2389.5</ele>
        <time>2021-03-27T13:55:37Z</time>
      </trkpt>
      <trkpt lat="45.66048" lon="6.8183">
        <ele>2387.4</ele>
        <time>2021-03-27T13:55:38Z</time>
      </trkpt>
      <trkpt lat="45.66049" lon="6.81832">
        <ele>2387.5</ele>
        <time>2021-03-27T13:55:39Z</time>
      </trkpt>
      <trkpt lat="45.66049" lon="6.81834">
        <ele>2389.7</ele>
        <time>2021-03-27T13:55:40Z</time>
      </trkpt>
      <trkpt lat="45.66049" lon="6.81837">
        <ele>2389.9</ele>
        <time>2021-03-27T13:55:41Z</time>
      </trkpt>
      <trkpt lat="45.6605" lon="6.81839">
        <ele>2389.9</ele>
        <time>2021-03-27T13:55:42Z</time>
      </trkpt>
      <trkpt lat="45.66049" lon="6.81839">
        <ele>2390</ele>
        <time>2021-03-27T13:55:43Z</time>
      </trkpt>
      <trkpt lat="45.66048" lon="6.81839">
        <ele>2387.8</ele>
        <time>2021-03-27T13:55:44Z</time>
      </trkpt>
      <trkpt lat="45.66047" lon="6.81839">
        <ele>2387.8</ele>
        <time>2021-03-27T13:55:45Z</time>
      </trkpt>
      <trkpt lat="45.66046" lon="6.8184">
        <ele>2387.8</ele>
        <time>2021-03-27T13:55:46Z</time>
      </trkpt>
      <trkpt lat="45.66046" lon="6.8184">
        <ele>2385.7</ele>
        <time>2021-03-27T13:55:47Z</time>
      </trkpt>
      <trkpt lat="45.66045" lon="6.8184">
        <ele>2385.7</ele>
        <time>2021-03-27T13:55:48Z</time>
      </trkpt>
      <trkpt lat="45.66044" lon="6.8184">
        <ele>2385.7</ele>
        <time>2021-03-27T13:55:49Z</time>
      </trkpt>
      <trkpt lat="45.66043" lon="6.8184">
        <ele>2385.7</ele>
        <time>2021-03-27T13:55:56Z</time>
      </trkpt>
      <trkpt lat="45.66042" lon="6.8184">
        <ele>2383.7</ele>
        <time>2021-03-27T13:55:57Z</time>
      </trkpt>
      <trkpt lat="45.66041" lon="6.81837">
        <ele>2383.6</ele>
        <time>2021-03-27T13:55:58Z</time>
      </trkpt>
      <trkpt lat="45.66041" lon="6.81832">
        <ele>2383.4</ele>
        <time>2021-03-27T13:55:59Z</time>
      </trkpt>
      <trkpt lat="45.66042" lon="6.81831">
        <ele>2383.4</ele>
        <time>2021-03-27T13:56:00Z</time>
      </trkpt>
      <trkpt lat="45.66042" lon="6.81831">
        <ele>2383.4</ele>
        <time>2021-03-27T13:56:01Z</time>
      </trkpt>
      <trkpt lat="45.66044" lon="6.81829">
        <ele>2385.2</ele>
        <time>2021-03-27T13:56:02Z</time>
      </trkpt>
      <trkpt lat="45.66045" lon="6.81828">
        <ele>2385.2</ele>
        <time>2021-03-27T13:56:03Z</time>
      </trkpt>
      <trkpt lat="45.66045" lon="6.81826">
        <ele>2385.2</ele>
        <time>2021-03-27T13:56:04Z</time>
      </trkpt>
      <trkpt lat="45.66042" lon="6.81826">
        <ele>2383.1</ele>
        <time>2021-03-27T13:56:05Z</time>
      </trkpt>
      <trkpt lat="45.66039" lon="6.81827">
        <ele>2381.3</ele>
        <time>2021-03-27T13:56:06Z</time>
      </trkpt>
      <trkpt lat="45.66036" lon="6.8183">
        <ele>2379.4</ele>
        <time>2021-03-27T13:56:07Z</time>
      </trkpt>
      <trkpt lat="45.66033" lon="6.81832">
        <ele>2377.7</ele>
        <time>2021-03-27T13:56:08Z</time>
      </trkpt>
      <trkpt lat="45.6603" lon="6.81834">
        <ele>2375.7</ele>
        <time>2021-03-27T13:56:09Z</time>
      </trkpt>
      <trkpt lat="45.66027" lon="6.81831">
        <ele>2373.7</ele>
        <time>2021-03-27T13:56:10Z</time>
      </trkpt>
      <trkpt lat="45.66025" lon="6.81824">
        <ele>2373.2</ele>
        <time>2021-03-27T13:56:11Z</time>
      </trkpt>
      <trkpt lat="45.66026" lon="6.81817">
        <ele>2372.7</ele>
        <time>2021-03-27T13:56:12Z</time>
      </trkpt>
      <trkpt lat="45.66027" lon="6.81811">
        <ele>2372.3</ele>
        <time>2021-03-27T13:56:13Z</time>
      </trkpt>
      <trkpt lat="45.66026" lon="6.81807">
        <ele>2371.9</ele>
        <time>2021-03-27T13:56:14Z</time>
      </trkpt>
      <trkpt lat="45.66024" lon="6.81803">
        <ele>2369.4</ele>
        <time>2021-03-27T13:56:15Z</time>
      </trkpt>
      <trkpt lat="45.66021" lon="6.81802">
        <ele>2367.3</ele>
        <time>2021-03-27T13:56:16Z</time>
      </trkpt>
      <trkpt lat="45.66018" lon="6.81802">
        <ele>2365.4</ele>
        <time>2021-03-27T13:56:17Z</time>
      </trkpt>
      <trkpt lat="45.66014" lon="6.81801">
        <ele>2363.7</ele>
        <time>2021-03-27T13:56:18Z</time>
      </trkpt>
      <trkpt lat="45.66011" lon="6.81799">
        <ele>2360.6</ele>
        <time>2021-03-27T13:56:19Z</time>
      </trkpt>
      <trkpt lat="45.66009" lon="6.81795">
        <ele>2358.5</ele>
        <time>2021-03-27T13:56:20Z</time>
      </trkpt>
      <trkpt lat="45.66008" lon="6.81791">
        <ele>2358</ele>
        <time>2021-03-27T13:56:21Z</time>
      </trkpt>
      <trkpt lat="45.66008" lon="6.81789">
        <ele>2358</ele>
        <time>2021-03-27T13:56:22Z</time>
      </trkpt>
      <trkpt lat="45.66008" lon="6.81787">
        <ele>2357.5</ele>
        <time>2021-03-27T13:56:23Z</time>
      </trkpt>
      <trkpt lat="45.66006" lon="6.81787">
        <ele>2355.7</ele>
        <time>2021-03-27T13:56:24Z</time>
      </trkpt>
      <trkpt lat="45.66005" lon="6.81787">
        <ele>2355.7</ele>
        <time>2021-03-27T13:56:25Z</time>
      </trkpt>
      <trkpt lat="45.66003" lon="6.81788">
        <ele>2354.2</ele>
        <time>2021-03-27T13:56:26Z</time>
      </trkpt>
      <trkpt lat="45.65999" lon="6.81791">
        <ele>2352.3</ele>
        <time>2021-03-27T13:56:27Z</time>
      </trkpt>
      <trkpt lat="45.65996" lon="6.8179">
        <ele>2350.5</ele>
        <time>2021-03-27T13:56:28Z</time>
      </trkpt>
      <trkpt lat="45.65994" lon="6.81787">
        <ele>2348.3</ele>
        <time>2021-03-27T13:56:29Z</time>
      </trkpt>
      <trkpt lat="45.65992" lon="6.81782">
        <ele>2347.8</ele>
        <time>2021-03-27T13:56:30Z</time>
      </trkpt>
      <trkpt lat="45.65991" lon="6.81777">
        <ele>2345.7</ele>
        <time>2021-03-27T13:56:31Z</time>
      </trkpt>
      <trkpt lat="45.65989" lon="6.81774">
        <ele>2343.7</ele>
        <time>2021-03-27T13:56:32Z</time>
      </trkpt>
      <trkpt lat="45.65985" lon="6.81772">
        <ele>2342.2</ele>
        <time>2021-03-27T13:56:33Z</time>
      </trkpt>
      <trkpt lat="45.65982" lon="6.81771">
        <ele>2340.7</ele>
        <time>2021-03-27T13:56:34Z</time>
      </trkpt>
      <trkpt lat="45.65979" lon="6.81768">
        <ele>2338.4</ele>
        <time>2021-03-27T13:56:35Z</time>
      </trkpt>
      <trkpt lat="45.65977" lon="6.81765">
        <ele>2337.8</ele>
        <time>2021-03-27T13:56:36Z</time>
      </trkpt>
      <trkpt lat="45.65977" lon="6.81761">
        <ele>2337.2</ele>
        <time>2021-03-27T13:56:37Z</time>
      </trkpt>
      <trkpt lat="45.65977" lon="6.8176">
        <ele>2335.5</ele>
        <time>2021-03-27T13:56:38Z</time>
      </trkpt>
      <trkpt lat="45.65977" lon="6.81758">
        <ele>2335.5</ele>
        <time>2021-03-27T13:56:39Z</time>
      </trkpt>
      <trkpt lat="45.65976" lon="6.81755">
        <ele>2334.9</ele>
        <time>2021-03-27T13:56:40Z</time>
      </trkpt>
      <trkpt lat="45.65974" lon="6.81749">
        <ele>2332.8</ele>
        <time>2021-03-27T13:56:41Z</time>
      </trkpt>
      <trkpt lat="45.65972" lon="6.81748">
        <ele>2332.2</ele>
        <time>2021-03-27T13:56:42Z</time>
      </trkpt>
      <trkpt lat="45.65953" lon="6.81758">
        <ele>2326.4</ele>
        <time>2021-03-27T13:56:43Z</time>
      </trkpt>
      <trkpt lat="45.65951" lon="6.81758">
        <ele>2325.3</ele>
        <time>2021-03-27T13:56:44Z</time>
      </trkpt>
      <trkpt lat="45.65944" lon="6.81762">
        <ele>2322.1</ele>
        <time>2021-03-27T13:56:45Z</time>
      </trkpt>
      <trkpt lat="45.65939" lon="6.81765">
        <ele>2320.8</ele>
        <time>2021-03-27T13:56:46Z</time>
      </trkpt>
      <trkpt lat="45.65933" lon="6.81771">
        <ele>2319.4</ele>
        <time>2021-03-27T13:56:47Z</time>
      </trkpt>
      <trkpt lat="45.65929" lon="6.81767">
        <ele>2317.9</ele>
        <time>2021-03-27T13:56:48Z</time>
      </trkpt>
      <trkpt lat="45.65928" lon="6.81759">
        <ele>2315.9</ele>
        <time>2021-03-27T13:56:49Z</time>
      </trkpt>
      <trkpt lat="45.65926" lon="6.81753">
        <ele>2313.8</ele>
        <time>2021-03-27T13:56:50Z</time>
      </trkpt>
      <trkpt lat="45.65922" lon="6.81746">
        <ele>2312</ele>
        <time>2021-03-27T13:56:51Z</time>
      </trkpt>
      <trkpt lat="45.65918" lon="6.81739">
        <ele>2309.6</ele>
        <time>2021-03-27T13:56:52Z</time>
      </trkpt>
      <trkpt lat="45.65916" lon="6.81734">
        <ele>2307.7</ele>
        <time>2021-03-27T13:56:53Z</time>
      </trkpt>
      <trkpt lat="45.6592" lon="6.8173">
        <ele>2308.7</ele>
        <time>2021-03-27T13:56:54Z</time>
      </trkpt>
      <trkpt lat="45.6592" lon="6.81727">
        <ele>2309.6</ele>
        <time>2021-03-27T13:56:55Z</time>
      </trkpt>
      <trkpt lat="45.6592" lon="6.81726">
        <ele>2309.6</ele>
        <time>2021-03-27T13:56:56Z</time>
      </trkpt>
      <trkpt lat="45.65921" lon="6.81726">
        <ele>2309.6</ele>
        <time>2021-03-27T13:56:57Z</time>
      </trkpt>
      <trkpt lat="45.65921" lon="6.81726">
        <ele>2309.6</ele>
        <time>2021-03-27T13:56:58Z</time>
      </trkpt>
      <trkpt lat="45.65922" lon="6.81725">
        <ele>2309.6</ele>
        <time>2021-03-27T13:56:59Z</time>
      </trkpt>
      <trkpt lat="45.65922" lon="6.81725">
        <ele>2309.6</ele>
        <time>2021-03-27T13:57:00Z</time>
      </trkpt>
      <trkpt lat="45.65923" lon="6.81724">
        <ele>2309.6</ele>
        <time>2021-03-27T13:57:01Z</time>
      </trkpt>
      <trkpt lat="45.65923" lon="6.81724">
        <ele>2310.8</ele>
        <time>2021-03-27T13:57:02Z</time>
      </trkpt>
      <trkpt lat="45.65923" lon="6.81723">
        <ele>2310.8</ele>
        <time>2021-03-27T13:57:03Z</time>
      </trkpt>
      <trkpt lat="45.65924" lon="6.81723">
        <ele>2310.3</ele>
        <time>2021-03-27T13:57:04Z</time>
      </trkpt>
      <trkpt lat="45.65924" lon="6.81723">
        <ele>2310.3</ele>
        <time>2021-03-27T13:57:05Z</time>
      </trkpt>
      <trkpt lat="45.65925" lon="6.81722">
        <ele>2310.3</ele>
        <time>2021-03-27T13:57:06Z</time>
      </trkpt>
      <trkpt lat="45.65925" lon="6.81722">
        <ele>2310.3</ele>
        <time>2021-03-27T13:57:47Z</time>
      </trkpt>
      <trkpt lat="45.65925" lon="6.81721">
        <ele>2310.3</ele>
        <time>2021-03-27T13:57:48Z</time>
      </trkpt>
      <trkpt lat="45.65923" lon="6.81717">
        <ele>2309.8</ele>
        <time>2021-03-27T13:57:49Z</time>
      </trkpt>
      <trkpt lat="45.65919" lon="6.81715">
        <ele>2307.2</ele>
        <time>2021-03-27T13:57:50Z</time>
      </trkpt>
      <trkpt lat="45.65915" lon="6.81714">
        <ele>2305.4</ele>
        <time>2021-03-27T13:57:51Z</time>
      </trkpt>
      <trkpt lat="45.65909" lon="6.81709">
        <ele>2302.5</ele>
        <time>2021-03-27T13:57:52Z</time>
      </trkpt>
      <trkpt lat="45.65906" lon="6.81703">
        <ele>2301</ele>
        <time>2021-03-27T13:57:53Z</time>
      </trkpt>
      <trkpt lat="45.659" lon="6.81697">
        <ele>2298.2</ele>
        <time>2021-03-27T13:57:54Z</time>
      </trkpt>
      <trkpt lat="45.65894" lon="6.81691">
        <ele>2295.4</ele>
        <time>2021-03-27T13:57:55Z</time>
      </trkpt>
      <trkpt lat="45.65889" lon="6.81685">
        <ele>2292.5</ele>
        <time>2021-03-27T13:57:56Z</time>
      </trkpt>
      <trkpt lat="45.65884" lon="6.8168">
        <ele>2290.6</ele>
        <time>2021-03-27T13:57:57Z</time>
      </trkpt>
      <trkpt lat="45.6588" lon="6.81677">
        <ele>2288.1</ele>
        <time>2021-03-27T13:57:58Z</time>
      </trkpt>
      <trkpt lat="45.65875" lon="6.81675">
        <ele>2286.5</ele>
        <time>2021-03-27T13:57:59Z</time>
      </trkpt>
      <trkpt lat="45.6587" lon="6.8167">
        <ele>2283.5</ele>
        <time>2021-03-27T13:58:00Z</time>
      </trkpt>
      <trkpt lat="45.65866" lon="6.81663">
        <ele>2281.1</ele>
        <time>2021-03-27T13:58:01Z</time>
      </trkpt>
      <trkpt lat="45.65864" lon="6.81655">
        <ele>2279.1</ele>
        <time>2021-03-27T13:58:02Z</time>
      </trkpt>
      <trkpt lat="45.65863" lon="6.81648">
        <ele>2276.5</ele>
        <time>2021-03-27T13:58:03Z</time>
      </trkpt>
      <trkpt lat="45.65855" lon="6.81644">
        <ele>2272.8</ele>
        <time>2021-03-27T13:58:04Z</time>
      </trkpt>
      <trkpt lat="45.65849" lon="6.8165">
        <ele>2270.7</ele>
        <time>2021-03-27T13:58:05Z</time>
      </trkpt>
      <trkpt lat="45.65837" lon="6.81656">
        <ele>2267.2</ele>
        <time>2021-03-27T13:58:06Z</time>
      </trkpt>
      <trkpt lat="45.65838" lon="6.81652">
        <ele>2266.3</ele>
        <time>2021-03-27T13:58:07Z</time>
      </trkpt>
      <trkpt lat="45.65847" lon="6.81648">
        <ele>2269.4</ele>
        <time>2021-03-27T13:58:08Z</time>
      </trkpt>
      <trkpt lat="45.65848" lon="6.81642">
        <ele>2268.6</ele>
        <time>2021-03-27T13:58:09Z</time>
      </trkpt>
      <trkpt lat="45.65848" lon="6.81634">
        <ele>2268.3</ele>
        <time>2021-03-27T13:58:10Z</time>
      </trkpt>
      <trkpt lat="45.65849" lon="6.81628">
        <ele>2266.7</ele>
        <time>2021-03-27T13:58:11Z</time>
      </trkpt>
      <trkpt lat="45.65851" lon="6.81624">
        <ele>2265.9</ele>
        <time>2021-03-27T13:58:12Z</time>
      </trkpt>
      <trkpt lat="45.65843" lon="6.81621">
        <ele>2263</ele>
        <time>2021-03-27T13:58:13Z</time>
      </trkpt>
      <trkpt lat="45.65842" lon="6.81617">
        <ele>2260.8</ele>
        <time>2021-03-27T13:58:14Z</time>
      </trkpt>
      <trkpt lat="45.65839" lon="6.81611">
        <ele>2259.3</ele>
        <time>2021-03-27T13:58:15Z</time>
      </trkpt>
      <trkpt lat="45.65838" lon="6.81609">
        <ele>2257.7</ele>
        <time>2021-03-27T13:58:16Z</time>
      </trkpt>
      <trkpt lat="45.65835" lon="6.81607">
        <ele>2255.5</ele>
        <time>2021-03-27T13:58:17Z</time>
      </trkpt>
      <trkpt lat="45.65833" lon="6.81602">
        <ele>2253.3</ele>
        <time>2021-03-27T13:58:18Z</time>
      </trkpt>
      <trkpt lat="45.65831" lon="6.81601">
        <ele>2253.3</ele>
        <time>2021-03-27T13:58:19Z</time>
      </trkpt>
      <trkpt lat="45.6583" lon="6.81596">
        <ele>2252.8</ele>
        <time>2021-03-27T13:58:20Z</time>
      </trkpt>
      <trkpt lat="45.65829" lon="6.81593">
        <ele>2250.7</ele>
        <time>2021-03-27T13:58:21Z</time>
      </trkpt>
      <trkpt lat="45.65827" lon="6.81589">
        <ele>2250.1</ele>
        <time>2021-03-27T13:58:22Z</time>
      </trkpt>
      <trkpt lat="45.65826" lon="6.81585">
        <ele>2248.1</ele>
        <time>2021-03-27T13:58:23Z</time>
      </trkpt>
      <trkpt lat="45.65825" lon="6.81581">
        <ele>2247.6</ele>
        <time>2021-03-27T13:58:24Z</time>
      </trkpt>
      <trkpt lat="45.65823" lon="6.81576">
        <ele>2245.6</ele>
        <time>2021-03-27T13:58:25Z</time>
      </trkpt>
      <trkpt lat="45.65822" lon="6.81574">
        <ele>2245.6</ele>
        <time>2021-03-27T13:58:26Z</time>
      </trkpt>
      <trkpt lat="45.6582" lon="6.8157">
        <ele>2243.7</ele>
        <time>2021-03-27T13:58:27Z</time>
      </trkpt>
      <trkpt lat="45.65817" lon="6.81567">
        <ele>2241.8</ele>
        <time>2021-03-27T13:58:28Z</time>
      </trkpt>
      <trkpt lat="45.65814" lon="6.81567">
        <ele>2240.3</ele>
        <time>2021-03-27T13:58:29Z</time>
      </trkpt>
      <trkpt lat="45.6581" lon="6.81568">
        <ele>2238.7</ele>
        <time>2021-03-27T13:58:30Z</time>
      </trkpt>
      <trkpt lat="45.65809" lon="6.81568">
        <ele>2237.1</ele>
        <time>2021-03-27T13:58:31Z</time>
      </trkpt>
      <trkpt lat="45.65806" lon="6.81569">
        <ele>2237.7</ele>
        <time>2021-03-27T13:58:32Z</time>
      </trkpt>
      <trkpt lat="45.65803" lon="6.81571">
        <ele>2236.2</ele>
        <time>2021-03-27T13:58:33Z</time>
      </trkpt>
      <trkpt lat="45.658" lon="6.81574">
        <ele>2235.4</ele>
        <time>2021-03-27T13:58:34Z</time>
      </trkpt>
      <trkpt lat="45.65798" lon="6.81576">
        <ele>2234.1</ele>
        <time>2021-03-27T13:58:35Z</time>
      </trkpt>
      <trkpt lat="45.65794" lon="6.81575">
        <ele>2232.8</ele>
        <time>2021-03-27T13:58:36Z</time>
      </trkpt>
      <trkpt lat="45.65792" lon="6.81572">
        <ele>2230.8</ele>
        <time>2021-03-27T13:58:37Z</time>
      </trkpt>
      <trkpt lat="45.65789" lon="6.81567">
        <ele>2228.9</ele>
        <time>2021-03-27T13:58:38Z</time>
      </trkpt>
      <trkpt lat="45.65782" lon="6.81563">
        <ele>2225.8</ele>
        <time>2021-03-27T13:58:39Z</time>
      </trkpt>
      <trkpt lat="45.65778" lon="6.81569">
        <ele>2224.8</ele>
        <time>2021-03-27T13:58:40Z</time>
      </trkpt>
      <trkpt lat="45.65773" lon="6.81577">
        <ele>2224.6</ele>
        <time>2021-03-27T13:58:41Z</time>
      </trkpt>
      <trkpt lat="45.65768" lon="6.8158">
        <ele>2223.5</ele>
        <time>2021-03-27T13:58:42Z</time>
      </trkpt>
      <trkpt lat="45.65765" lon="6.81582">
        <ele>2223.8</ele>
        <time>2021-03-27T13:58:43Z</time>
      </trkpt>
      <trkpt lat="45.65762" lon="6.81581">
        <ele>2222</ele>
        <time>2021-03-27T13:58:44Z</time>
      </trkpt>
      <trkpt lat="45.65759" lon="6.8158">
        <ele>2221.3</ele>
        <time>2021-03-27T13:58:45Z</time>
      </trkpt>
      <trkpt lat="45.65758" lon="6.8158">
        <ele>2220.6</ele>
        <time>2021-03-27T13:58:46Z</time>
      </trkpt>
      <trkpt lat="45.65756" lon="6.81579">
        <ele>2220.6</ele>
        <time>2021-03-27T13:58:47Z</time>
      </trkpt>
      <trkpt lat="45.65756" lon="6.81579">
        <ele>2220.6</ele>
        <time>2021-03-27T13:58:48Z</time>
      </trkpt>
      <trkpt lat="45.65757" lon="6.81579">
        <ele>2220.6</ele>
        <time>2021-03-27T13:58:49Z</time>
      </trkpt>
      <trkpt lat="45.65755" lon="6.8158">
        <ele>2219.9</ele>
        <time>2021-03-27T13:58:50Z</time>
      </trkpt>
      <trkpt lat="45.65754" lon="6.81581">
        <ele>2219.9</ele>
        <time>2021-03-27T13:58:51Z</time>
      </trkpt>
      <trkpt lat="45.65754" lon="6.81581">
        <ele>2219.9</ele>
        <time>2021-03-27T13:58:52Z</time>
      </trkpt>
      <trkpt lat="45.65754" lon="6.81581">
        <ele>2219.9</ele>
        <time>2021-03-27T13:58:53Z</time>
      </trkpt>
      <trkpt lat="45.65754" lon="6.81581">
        <ele>2219.9</ele>
        <time>2021-03-27T13:58:54Z</time>
      </trkpt>
      <trkpt lat="45.65754" lon="6.81581">
        <ele>2219.9</ele>
        <time>2021-03-27T13:58:55Z</time>
      </trkpt>
      <trkpt lat="45.65756" lon="6.81584">
        <ele>2221.7</ele>
        <time>2021-03-27T13:58:56Z</time>
      </trkpt>
      <trkpt lat="45.65756" lon="6.81584">
        <ele>2221.7</ele>
        <time>2021-03-27T13:58:57Z</time>
      </trkpt>
      <trkpt lat="45.65755" lon="6.81584">
        <ele>2221</ele>
        <time>2021-03-27T13:58:58Z</time>
      </trkpt>
      <trkpt lat="45.65753" lon="6.81583">
        <ele>2221</ele>
        <time>2021-03-27T13:58:59Z</time>
      </trkpt>
      <trkpt lat="45.6575" lon="6.81583">
        <ele>2220.2</ele>
        <time>2021-03-27T13:59:00Z</time>
      </trkpt>
      <trkpt lat="45.65749" lon="6.81582">
        <ele>2219.5</ele>
        <time>2021-03-27T13:59:01Z</time>
      </trkpt>
      <trkpt lat="45.65746" lon="6.81579">
        <ele>2218.4</ele>
        <time>2021-03-27T13:59:02Z</time>
      </trkpt>
      <trkpt lat="45.65744" lon="6.81574">
        <ele>2216.5</ele>
        <time>2021-03-27T13:59:03Z</time>
      </trkpt>
      <trkpt lat="45.65744" lon="6.81569">
        <ele>2214.6</ele>
        <time>2021-03-27T13:59:04Z</time>
      </trkpt>
      <trkpt lat="45.65744" lon="6.81563">
        <ele>2213.7</ele>
        <time>2021-03-27T13:59:05Z</time>
      </trkpt>
      <trkpt lat="45.65743" lon="6.81559">
        <ele>2212.1</ele>
        <time>2021-03-27T13:59:06Z</time>
      </trkpt>
      <trkpt lat="45.6574" lon="6.81556">
        <ele>2212.1</ele>
        <time>2021-03-27T13:59:07Z</time>
      </trkpt>
      <trkpt lat="45.65736" lon="6.81552">
        <ele>2210</ele>
        <time>2021-03-27T13:59:08Z</time>
      </trkpt>
      <trkpt lat="45.6573" lon="6.81549">
        <ele>2207.9</ele>
        <time>2021-03-27T13:59:09Z</time>
      </trkpt>
      <trkpt lat="45.65722" lon="6.81546">
        <ele>2205.5</ele>
        <time>2021-03-27T13:59:10Z</time>
      </trkpt>
      <trkpt lat="45.65715" lon="6.81544">
        <ele>2203.4</ele>
        <time>2021-03-27T13:59:11Z</time>
      </trkpt>
      <trkpt lat="45.65708" lon="6.81543">
        <ele>2201.1</ele>
        <time>2021-03-27T13:59:12Z</time>
      </trkpt>
      <trkpt lat="45.65698" lon="6.81543">
        <ele>2198.9</ele>
        <time>2021-03-27T13:59:13Z</time>
      </trkpt>
      <trkpt lat="45.65692" lon="6.81542">
        <ele>2197.2</ele>
        <time>2021-03-27T13:59:14Z</time>
      </trkpt>
      <trkpt lat="45.65689" lon="6.81543">
        <ele>2196.4</ele>
        <time>2021-03-27T13:59:15Z</time>
      </trkpt>
      <trkpt lat="45.65686" lon="6.81543">
        <ele>2196.8</ele>
        <time>2021-03-27T13:59:16Z</time>
      </trkpt>
      <trkpt lat="45.65683" lon="6.81543">
        <ele>2194</ele>
        <time>2021-03-27T13:59:17Z</time>
      </trkpt>
      <trkpt lat="45.65682" lon="6.81537">
        <ele>2192.7</ele>
        <time>2021-03-27T13:59:18Z</time>
      </trkpt>
      <trkpt lat="45.65683" lon="6.81533">
        <ele>2192.1</ele>
        <time>2021-03-27T13:59:19Z</time>
      </trkpt>
      <trkpt lat="45.65686" lon="6.81529">
        <ele>2191.6</ele>
        <time>2021-03-27T13:59:20Z</time>
      </trkpt>
      <trkpt lat="45.6569" lon="6.81521">
        <ele>2190.1</ele>
        <time>2021-03-27T13:59:21Z</time>
      </trkpt>
      <trkpt lat="45.65692" lon="6.81514">
        <ele>2189</ele>
        <time>2021-03-27T13:59:22Z</time>
      </trkpt>
      <trkpt lat="45.65692" lon="6.81507">
        <ele>2188</ele>
        <time>2021-03-27T13:59:23Z</time>
      </trkpt>
      <trkpt lat="45.65693" lon="6.81501">
        <ele>2187</ele>
        <time>2021-03-27T13:59:24Z</time>
      </trkpt>
      <trkpt lat="45.65696" lon="6.81496">
        <ele>2187</ele>
        <time>2021-03-27T13:59:25Z</time>
      </trkpt>
      <trkpt lat="45.65688" lon="6.81496">
        <ele>2184.1</ele>
        <time>2021-03-27T13:59:26Z</time>
      </trkpt>
      <trkpt lat="45.65685" lon="6.81497">
        <ele>2183.2</ele>
        <time>2021-03-27T13:59:27Z</time>
      </trkpt>
      <trkpt lat="45.65682" lon="6.81498">
        <ele>2182.3</ele>
        <time>2021-03-27T13:59:28Z</time>
      </trkpt>
      <trkpt lat="45.65681" lon="6.815">
        <ele>2182.3</ele>
        <time>2021-03-27T13:59:29Z</time>
      </trkpt>
      <trkpt lat="45.65681" lon="6.81499">
        <ele>2182.3</ele>
        <time>2021-03-27T13:59:30Z</time>
      </trkpt>
      <trkpt lat="45.65682" lon="6.81499">
        <ele>2182.3</ele>
        <time>2021-03-27T13:59:31Z</time>
      </trkpt>
      <trkpt lat="45.65682" lon="6.81498">
        <ele>2182.3</ele>
        <time>2021-03-27T13:59:32Z</time>
      </trkpt>
      <trkpt lat="45.65682" lon="6.81497">
        <ele>2182.3</ele>
        <time>2021-03-27T13:59:33Z</time>
      </trkpt>
      <trkpt lat="45.65683" lon="6.81497">
        <ele>2182.3</ele>
        <time>2021-03-27T13:59:34Z</time>
      </trkpt>
      <trkpt lat="45.65683" lon="6.81496">
        <ele>2183.2</ele>
        <time>2021-03-27T13:59:35Z</time>
      </trkpt>
      <trkpt lat="45.65683" lon="6.81496">
        <ele>2182.2</ele>
        <time>2021-03-27T13:59:36Z</time>
      </trkpt>
      <trkpt lat="45.65684" lon="6.81495">
        <ele>2182.2</ele>
        <time>2021-03-27T13:59:37Z</time>
      </trkpt>
      <trkpt lat="45.65684" lon="6.81495">
        <ele>2182.2</ele>
        <time>2021-03-27T13:59:38Z</time>
      </trkpt>
      <trkpt lat="45.65684" lon="6.81494">
        <ele>2182.2</ele>
        <time>2021-03-27T14:00:17Z</time>
      </trkpt>
      <trkpt lat="45.65685" lon="6.81493">
        <ele>2182.2</ele>
        <time>2021-03-27T14:00:18Z</time>
      </trkpt>
      <trkpt lat="45.65685" lon="6.81488">
        <ele>2181.2</ele>
        <time>2021-03-27T14:00:19Z</time>
      </trkpt>
      <trkpt lat="45.65685" lon="6.81483">
        <ele>2179.4</ele>
        <time>2021-03-27T14:00:20Z</time>
      </trkpt>
      <trkpt lat="45.65685" lon="6.81479">
        <ele>2179.4</ele>
        <time>2021-03-27T14:00:21Z</time>
      </trkpt>
      <trkpt lat="45.65684" lon="6.81475">
        <ele>2178.5</ele>
        <time>2021-03-27T14:00:22Z</time>
      </trkpt>
      <trkpt lat="45.65684" lon="6.81474">
        <ele>2177.7</ele>
        <time>2021-03-27T14:00:23Z</time>
      </trkpt>
      <trkpt lat="45.65683" lon="6.81471">
        <ele>2177.7</ele>
        <time>2021-03-27T14:00:24Z</time>
      </trkpt>
      <trkpt lat="45.65682" lon="6.81469">
        <ele>2175.9</ele>
        <time>2021-03-27T14:00:25Z</time>
      </trkpt>
      <trkpt lat="45.65681" lon="6.81465">
        <ele>2175.2</ele>
        <time>2021-03-27T14:00:26Z</time>
      </trkpt>
      <trkpt lat="45.65681" lon="6.81463">
        <ele>2175.2</ele>
        <time>2021-03-27T14:00:27Z</time>
      </trkpt>
      <trkpt lat="45.65678" lon="6.81459">
        <ele>2173.4</ele>
        <time>2021-03-27T14:00:28Z</time>
      </trkpt>
      <trkpt lat="45.65677" lon="6.81457">
        <ele>2173.4</ele>
        <time>2021-03-27T14:00:29Z</time>
      </trkpt>
      <trkpt lat="45.65673" lon="6.81456">
        <ele>2170.6</ele>
        <time>2021-03-27T14:00:30Z</time>
      </trkpt>
      <trkpt lat="45.65669" lon="6.81457">
        <ele>2170.2</ele>
        <time>2021-03-27T14:00:31Z</time>
      </trkpt>
      <trkpt lat="45.65664" lon="6.8146">
        <ele>2167.7</ele>
        <time>2021-03-27T14:00:32Z</time>
      </trkpt>
      <trkpt lat="45.65658" lon="6.81465">
        <ele>2166.2</ele>
        <time>2021-03-27T14:00:33Z</time>
      </trkpt>
      <trkpt lat="45.65653" lon="6.81472">
        <ele>2167.1</ele>
        <time>2021-03-27T14:00:34Z</time>
      </trkpt>
      <trkpt lat="45.65649" lon="6.81477">
        <ele>2166.1</ele>
        <time>2021-03-27T14:00:35Z</time>
      </trkpt>
      <trkpt lat="45.65646" lon="6.81481">
        <ele>2166.2</ele>
        <time>2021-03-27T14:00:36Z</time>
      </trkpt>
      <trkpt lat="45.65644" lon="6.81483">
        <ele>2166.3</ele>
        <time>2021-03-27T14:00:37Z</time>
      </trkpt>
      <trkpt lat="45.65642" lon="6.81484">
        <ele>2166.3</ele>
        <time>2021-03-27T14:00:38Z</time>
      </trkpt>
      <trkpt lat="45.65641" lon="6.81485">
        <ele>2166.3</ele>
        <time>2021-03-27T14:00:39Z</time>
      </trkpt>
      <trkpt lat="45.65641" lon="6.81486">
        <ele>2166.3</ele>
        <time>2021-03-27T14:00:40Z</time>
      </trkpt>
      <trkpt lat="45.65641" lon="6.81487">
        <ele>2166.3</ele>
        <time>2021-03-27T14:00:41Z</time>
      </trkpt>
      <trkpt lat="45.65641" lon="6.81487">
        <ele>2166.3</ele>
        <time>2021-03-27T14:00:42Z</time>
      </trkpt>
      <trkpt lat="45.65641" lon="6.81487">
        <ele>2166.3</ele>
        <time>2021-03-27T14:00:43Z</time>
      </trkpt>
      <trkpt lat="45.65641" lon="6.81487">
        <ele>2166.3</ele>
        <time>2021-03-27T14:00:44Z</time>
      </trkpt>
      <trkpt lat="45.65641" lon="6.81487">
        <ele>2166.3</ele>
        <time>2021-03-27T14:00:45Z</time>
      </trkpt>
      <trkpt lat="45.65641" lon="6.81487">
        <ele>2166.3</ele>
        <time>2021-03-27T14:00:46Z</time>
      </trkpt>
      <trkpt lat="45.65641" lon="6.81487">
        <ele>2166.3</ele>
        <time>2021-03-27T14:00:47Z</time>
      </trkpt>
      <trkpt lat="45.65643" lon="6.81489">
        <ele>2167.7</ele>
        <time>2021-03-27T14:00:48Z</time>
      </trkpt>
      <trkpt lat="45.6564" lon="6.8149">
        <ele>2166.5</ele>
        <time>2021-03-27T14:00:49Z</time>
      </trkpt>
      <trkpt lat="45.65638" lon="6.8149">
        <ele>2166.5</ele>
        <time>2021-03-27T14:00:50Z</time>
      </trkpt>
      <trkpt lat="45.65636" lon="6.81491">
        <ele>2165.3</ele>
        <time>2021-03-27T14:00:54Z</time>
      </trkpt>
      <trkpt lat="45.65634" lon="6.81491">
        <ele>2164.2</ele>
        <time>2021-03-27T14:00:55Z</time>
      </trkpt>
      <trkpt lat="45.65632" lon="6.81492">
        <ele>2164.6</ele>
        <time>2021-03-27T14:00:56Z</time>
      </trkpt>
      <trkpt lat="45.65628" lon="6.81489">
        <ele>2162.2</ele>
        <time>2021-03-27T14:00:57Z</time>
      </trkpt>
      <trkpt lat="45.65627" lon="6.81487">
        <ele>2162.2</ele>
        <time>2021-03-27T14:00:58Z</time>
      </trkpt>
      <trkpt lat="45.65623" lon="6.81483">
        <ele>2158.3</ele>
        <time>2021-03-27T14:00:59Z</time>
      </trkpt>
      <trkpt lat="45.6562" lon="6.81479">
        <ele>2156.1</ele>
        <time>2021-03-27T14:01:00Z</time>
      </trkpt>
      <trkpt lat="45.65615" lon="6.81475">
        <ele>2153.4</ele>
        <time>2021-03-27T14:01:01Z</time>
      </trkpt>
      <trkpt lat="45.65609" lon="6.81471">
        <ele>2149.7</ele>
        <time>2021-03-27T14:01:02Z</time>
      </trkpt>
      <trkpt lat="45.65605" lon="6.81459">
        <ele>2144.6</ele>
        <time>2021-03-27T14:01:03Z</time>
      </trkpt>
      <trkpt lat="45.6559" lon="6.81452">
        <ele>2137.1</ele>
        <time>2021-03-27T14:01:04Z</time>
      </trkpt>
      <trkpt lat="45.65584" lon="6.81452">
        <ele>2135.2</ele>
        <time>2021-03-27T14:01:05Z</time>
      </trkpt>
      <trkpt lat="45.65577" lon="6.81453">
        <ele>2132.3</ele>
        <time>2021-03-27T14:01:06Z</time>
      </trkpt>
      <trkpt lat="45.65568" lon="6.81456">
        <ele>2131.2</ele>
        <time>2021-03-27T14:01:07Z</time>
      </trkpt>
      <trkpt lat="45.65561" lon="6.81458">
        <ele>2130.9</ele>
        <time>2021-03-27T14:01:08Z</time>
      </trkpt>
      <trkpt lat="45.65554" lon="6.81459">
        <ele>2127.8</ele>
        <time>2021-03-27T14:01:09Z</time>
      </trkpt>
      <trkpt lat="45.65547" lon="6.81463">
        <ele>2127.3</ele>
        <time>2021-03-27T14:01:10Z</time>
      </trkpt>
      <trkpt lat="45.65545" lon="6.81477">
        <ele>2130.8</ele>
        <time>2021-03-27T14:01:11Z</time>
      </trkpt>
      <trkpt lat="45.6554" lon="6.81478">
        <ele>2129.9</ele>
        <time>2021-03-27T14:01:12Z</time>
      </trkpt>
      <trkpt lat="45.65533" lon="6.81473">
        <ele>2126.6</ele>
        <time>2021-03-27T14:01:13Z</time>
      </trkpt>
      <trkpt lat="45.65531" lon="6.81462">
        <ele>2123</ele>
        <time>2021-03-27T14:01:14Z</time>
      </trkpt>
      <trkpt lat="45.65532" lon="6.81449">
        <ele>2119.1</ele>
        <time>2021-03-27T14:01:15Z</time>
      </trkpt>
      <trkpt lat="45.65529" lon="6.81442">
        <ele>2115.6</ele>
        <time>2021-03-27T14:01:16Z</time>
      </trkpt>
      <trkpt lat="45.65526" lon="6.81435">
        <ele>2112.4</ele>
        <time>2021-03-27T14:01:17Z</time>
      </trkpt>
      <trkpt lat="45.65518" lon="6.81434">
        <ele>2110.5</ele>
        <time>2021-03-27T14:01:18Z</time>
      </trkpt>
      <trkpt lat="45.65512" lon="6.81433">
        <ele>2107.9</ele>
        <time>2021-03-27T14:01:19Z</time>
      </trkpt>
      <trkpt lat="45.65498" lon="6.81434">
        <ele>2103.9</ele>
        <time>2021-03-27T14:01:20Z</time>
      </trkpt>
      <trkpt lat="45.65489" lon="6.81434">
        <ele>2100.5</ele>
        <time>2021-03-27T14:01:21Z</time>
      </trkpt>
      <trkpt lat="45.65481" lon="6.81434">
        <ele>2097.4</ele>
        <time>2021-03-27T14:01:22Z</time>
      </trkpt>
      <trkpt lat="45.65475" lon="6.81432">
        <ele>2095</ele>
        <time>2021-03-27T14:01:23Z</time>
      </trkpt>
      <trkpt lat="45.65471" lon="6.81432">
        <ele>2093.8</ele>
        <time>2021-03-27T14:01:24Z</time>
      </trkpt>
      <trkpt lat="45.65468" lon="6.81425">
        <ele>2090.9</ele>
        <time>2021-03-27T14:01:25Z</time>
      </trkpt>
      <trkpt lat="45.6547" lon="6.81414">
        <ele>2090.1</ele>
        <time>2021-03-27T14:01:26Z</time>
      </trkpt>
      <trkpt lat="45.65465" lon="6.81406">
        <ele>2087</ele>
        <time>2021-03-27T14:01:27Z</time>
      </trkpt>
      <trkpt lat="45.65464" lon="6.81401">
        <ele>2084.8</ele>
        <time>2021-03-27T14:01:28Z</time>
      </trkpt>
      <trkpt lat="45.65461" lon="6.81393">
        <ele>2083.6</ele>
        <time>2021-03-27T14:01:29Z</time>
      </trkpt>
      <trkpt lat="45.65459" lon="6.81388">
        <ele>2082.6</ele>
        <time>2021-03-27T14:01:30Z</time>
      </trkpt>
      <trkpt lat="45.65452" lon="6.81383">
        <ele>2079.5</ele>
        <time>2021-03-27T14:01:31Z</time>
      </trkpt>
      <trkpt lat="45.65448" lon="6.81372">
        <ele>2076.2</ele>
        <time>2021-03-27T14:01:32Z</time>
      </trkpt>
      <trkpt lat="45.65443" lon="6.81362">
        <ele>2072.1</ele>
        <time>2021-03-27T14:01:33Z</time>
      </trkpt>
      <trkpt lat="45.65443" lon="6.81354">
        <ele>2071.6</ele>
        <time>2021-03-27T14:01:34Z</time>
      </trkpt>
      <trkpt lat="45.65439" lon="6.81348">
        <ele>2068.7</ele>
        <time>2021-03-27T14:01:35Z</time>
      </trkpt>
      <trkpt lat="45.6544" lon="6.81338">
        <ele>2068.1</ele>
        <time>2021-03-27T14:01:36Z</time>
      </trkpt>
      <trkpt lat="45.65442" lon="6.8133">
        <ele>2066.7</ele>
        <time>2021-03-27T14:01:37Z</time>
      </trkpt>
      <trkpt lat="45.65444" lon="6.81324">
        <ele>2066.4</ele>
        <time>2021-03-27T14:01:38Z</time>
      </trkpt>
      <trkpt lat="45.65447" lon="6.81322">
        <ele>2067.5</ele>
        <time>2021-03-27T14:01:39Z</time>
      </trkpt>
      <trkpt lat="45.65449" lon="6.8132">
        <ele>2068.7</ele>
        <time>2021-03-27T14:01:40Z</time>
      </trkpt>
      <trkpt lat="45.6545" lon="6.81319">
        <ele>2068</ele>
        <time>2021-03-27T14:01:41Z</time>
      </trkpt>
      <trkpt lat="45.65451" lon="6.81317">
        <ele>2068</ele>
        <time>2021-03-27T14:01:42Z</time>
      </trkpt>
      <trkpt lat="45.65451" lon="6.81316">
        <ele>2068</ele>
        <time>2021-03-27T14:01:43Z</time>
      </trkpt>
      <trkpt lat="45.65451" lon="6.81314">
        <ele>2067.4</ele>
        <time>2021-03-27T14:01:44Z</time>
      </trkpt>
      <trkpt lat="45.65452" lon="6.81311">
        <ele>2067.4</ele>
        <time>2021-03-27T14:01:45Z</time>
      </trkpt>
      <trkpt lat="45.65452" lon="6.81307">
        <ele>2066.8</ele>
        <time>2021-03-27T14:01:46Z</time>
      </trkpt>
      <trkpt lat="45.65451" lon="6.81301">
        <ele>2065.7</ele>
        <time>2021-03-27T14:01:47Z</time>
      </trkpt>
      <trkpt lat="45.6545" lon="6.81294">
        <ele>2065.2</ele>
        <time>2021-03-27T14:01:48Z</time>
      </trkpt>
      <trkpt lat="45.65449" lon="6.81289">
        <ele>2064.4</ele>
        <time>2021-03-27T14:01:49Z</time>
      </trkpt>
      <trkpt lat="45.65449" lon="6.81284">
        <ele>2064</ele>
        <time>2021-03-27T14:01:50Z</time>
      </trkpt>
      <trkpt lat="45.6545" lon="6.81279">
        <ele>2063.5</ele>
        <time>2021-03-27T14:01:51Z</time>
      </trkpt>
      <trkpt lat="45.6545" lon="6.81275">
        <ele>2063.1</ele>
        <time>2021-03-27T14:01:52Z</time>
      </trkpt>
      <trkpt lat="45.65448" lon="6.8127">
        <ele>2061.6</ele>
        <time>2021-03-27T14:01:53Z</time>
      </trkpt>
      <trkpt lat="45.65448" lon="6.81265">
        <ele>2061.1</ele>
        <time>2021-03-27T14:01:54Z</time>
      </trkpt>
      <trkpt lat="45.65446" lon="6.81259">
        <ele>2060.2</ele>
        <time>2021-03-27T14:01:55Z</time>
      </trkpt>
      <trkpt lat="45.65445" lon="6.81254">
        <ele>2058.8</ele>
        <time>2021-03-27T14:01:56Z</time>
      </trkpt>
      <trkpt lat="45.65438" lon="6.81257">
        <ele>2057.2</ele>
        <time>2021-03-27T14:01:57Z</time>
      </trkpt>
      <trkpt lat="45.65434" lon="6.81256">
        <ele>2056.3</ele>
        <time>2021-03-27T14:01:58Z</time>
      </trkpt>
      <trkpt lat="45.65428" lon="6.81255">
        <ele>2052.8</ele>
        <time>2021-03-27T14:01:59Z</time>
      </trkpt>
      <trkpt lat="45.65423" lon="6.81251">
        <ele>2051.3</ele>
        <time>2021-03-27T14:02:00Z</time>
      </trkpt>
      <trkpt lat="45.65421" lon="6.81246">
        <ele>2049.7</ele>
        <time>2021-03-27T14:02:01Z</time>
      </trkpt>
      <trkpt lat="45.65417" lon="6.8124">
        <ele>2048.1</ele>
        <time>2021-03-27T14:02:02Z</time>
      </trkpt>
      <trkpt lat="45.65419" lon="6.81242">
        <ele>2049.3</ele>
        <time>2021-03-27T14:02:03Z</time>
      </trkpt>
      <trkpt lat="45.65421" lon="6.81245">
        <ele>2049.7</ele>
        <time>2021-03-27T14:02:04Z</time>
      </trkpt>
      <trkpt lat="45.65421" lon="6.81244">
        <ele>2049.7</ele>
        <time>2021-03-27T14:02:05Z</time>
      </trkpt>
      <trkpt lat="45.65421" lon="6.81243">
        <ele>2049.7</ele>
        <time>2021-03-27T14:02:06Z</time>
      </trkpt>
      <trkpt lat="45.6542" lon="6.81242">
        <ele>2049.3</ele>
        <time>2021-03-27T14:02:07Z</time>
      </trkpt>
      <trkpt lat="45.6542" lon="6.81241">
        <ele>2049.3</ele>
        <time>2021-03-27T14:02:08Z</time>
      </trkpt>
      <trkpt lat="45.6542" lon="6.8124">
        <ele>2049.3</ele>
        <time>2021-03-27T14:02:09Z</time>
      </trkpt>
      <trkpt lat="45.6542" lon="6.81239">
        <ele>2049.3</ele>
        <time>2021-03-27T14:02:10Z</time>
      </trkpt>
      <trkpt lat="45.6542" lon="6.81238">
        <ele>2048.9</ele>
        <time>2021-03-27T14:02:11Z</time>
      </trkpt>
      <trkpt lat="45.6542" lon="6.81237">
        <ele>2048.9</ele>
        <time>2021-03-27T14:02:12Z</time>
      </trkpt>
      <trkpt lat="45.6542" lon="6.81236">
        <ele>2048.9</ele>
        <time>2021-03-27T14:02:13Z</time>
      </trkpt>
      <trkpt lat="45.6542" lon="6.81235">
        <ele>2048.9</ele>
        <time>2021-03-27T14:02:14Z</time>
      </trkpt>
      <trkpt lat="45.65419" lon="6.81234">
        <ele>2048.9</ele>
        <time>2021-03-27T14:03:02Z</time>
      </trkpt>
      <trkpt lat="45.65419" lon="6.81233">
        <ele>2048.4</ele>
        <time>2021-03-27T14:03:03Z</time>
      </trkpt>
      <trkpt lat="45.65418" lon="6.81227">
        <ele>2046.7</ele>
        <time>2021-03-27T14:03:04Z</time>
      </trkpt>
      <trkpt lat="45.65417" lon="6.81225">
        <ele>2046.7</ele>
        <time>2021-03-27T14:03:05Z</time>
      </trkpt>
      <trkpt lat="45.65416" lon="6.81221">
        <ele>2045.5</ele>
        <time>2021-03-27T14:03:06Z</time>
      </trkpt>
      <trkpt lat="45.65415" lon="6.81215">
        <ele>2043.5</ele>
        <time>2021-03-27T14:03:07Z</time>
      </trkpt>
      <trkpt lat="45.65413" lon="6.81209">
        <ele>2042.9</ele>
        <time>2021-03-27T14:03:08Z</time>
      </trkpt>
      <trkpt lat="45.65412" lon="6.81203">
        <ele>2040.4</ele>
        <time>2021-03-27T14:03:09Z</time>
      </trkpt>
      <trkpt lat="45.6541" lon="6.81199">
        <ele>2039.9</ele>
        <time>2021-03-27T14:03:10Z</time>
      </trkpt>
      <trkpt lat="45.65407" lon="6.81195">
        <ele>2038.1</ele>
        <time>2021-03-27T14:03:11Z</time>
      </trkpt>
      <trkpt lat="45.65403" lon="6.81191">
        <ele>2035.5</ele>
        <time>2021-03-27T14:03:12Z</time>
      </trkpt>
      <trkpt lat="45.65399" lon="6.81187">
        <ele>2034.1</ele>
        <time>2021-03-27T14:03:13Z</time>
      </trkpt>
      <trkpt lat="45.65394" lon="6.81184">
        <ele>2031.9</ele>
        <time>2021-03-27T14:03:14Z</time>
      </trkpt>
      <trkpt lat="45.65389" lon="6.81181">
        <ele>2030.4</ele>
        <time>2021-03-27T14:03:15Z</time>
      </trkpt>
      <trkpt lat="45.65384" lon="6.81177">
        <ele>2027.5</ele>
        <time>2021-03-27T14:03:16Z</time>
      </trkpt>
      <trkpt lat="45.6538" lon="6.81172">
        <ele>2026</ele>
        <time>2021-03-27T14:03:17Z</time>
      </trkpt>
      <trkpt lat="45.65377" lon="6.81169">
        <ele>2024.5</ele>
        <time>2021-03-27T14:03:18Z</time>
      </trkpt>
      <trkpt lat="45.65374" lon="6.81166">
        <ele>2023.4</ele>
        <time>2021-03-27T14:03:19Z</time>
      </trkpt>
      <trkpt lat="45.65372" lon="6.81163">
        <ele>2022</ele>
        <time>2021-03-27T14:03:20Z</time>
      </trkpt>
      <trkpt lat="45.6537" lon="6.8116">
        <ele>2020.5</ele>
        <time>2021-03-27T14:03:21Z</time>
      </trkpt>
      <trkpt lat="45.65368" lon="6.81158">
        <ele>2019.2</ele>
        <time>2021-03-27T14:03:22Z</time>
      </trkpt>
      <trkpt lat="45.65366" lon="6.81155">
        <ele>2019</ele>
        <time>2021-03-27T14:03:23Z</time>
      </trkpt>
      <trkpt lat="45.65364" lon="6.81152">
        <ele>2017.4</ele>
        <time>2021-03-27T14:03:24Z</time>
      </trkpt>
      <trkpt lat="45.65362" lon="6.81151">
        <ele>2016.1</ele>
        <time>2021-03-27T14:03:25Z</time>
      </trkpt>
      <trkpt lat="45.65361" lon="6.81152">
        <ele>2016.1</ele>
        <time>2021-03-27T14:03:26Z</time>
      </trkpt>
      <trkpt lat="45.65358" lon="6.81157">
        <ele>2015</ele>
        <time>2021-03-27T14:03:27Z</time>
      </trkpt>
      <trkpt lat="45.65357" lon="6.81159">
        <ele>2015.2</ele>
        <time>2021-03-27T14:03:28Z</time>
      </trkpt>
      <trkpt lat="45.65356" lon="6.81165">
        <ele>2014.2</ele>
        <time>2021-03-27T14:03:29Z</time>
      </trkpt>
      <trkpt lat="45.65355" lon="6.81171">
        <ele>2014.8</ele>
        <time>2021-03-27T14:03:30Z</time>
      </trkpt>
      <trkpt lat="45.65354" lon="6.81177">
        <ele>2015.2</ele>
        <time>2021-03-27T14:03:31Z</time>
      </trkpt>
      <trkpt lat="45.65352" lon="6.81181">
        <ele>2014.4</ele>
        <time>2021-03-27T14:03:32Z</time>
      </trkpt>
      <trkpt lat="45.65351" lon="6.81182">
        <ele>2014.4</ele>
        <time>2021-03-27T14:03:33Z</time>
      </trkpt>
      <trkpt lat="45.65348" lon="6.81182">
        <ele>2013.2</ele>
        <time>2021-03-27T14:03:34Z</time>
      </trkpt>
      <trkpt lat="45.65344" lon="6.81182">
        <ele>2011</ele>
        <time>2021-03-27T14:03:35Z</time>
      </trkpt>
      <trkpt lat="45.65339" lon="6.81179">
        <ele>2009.9</ele>
        <time>2021-03-27T14:03:36Z</time>
      </trkpt>
      <trkpt lat="45.65336" lon="6.81175">
        <ele>2008.4</ele>
        <time>2021-03-27T14:03:37Z</time>
      </trkpt>
      <trkpt lat="45.65332" lon="6.81169">
        <ele>2006.7</ele>
        <time>2021-03-27T14:03:38Z</time>
      </trkpt>
      <trkpt lat="45.65328" lon="6.81162">
        <ele>2004.3</ele>
        <time>2021-03-27T14:03:39Z</time>
      </trkpt>
      <trkpt lat="45.65324" lon="6.81158">
        <ele>2003</ele>
        <time>2021-03-27T14:03:40Z</time>
      </trkpt>
      <trkpt lat="45.65321" lon="6.81155">
        <ele>2001.9</ele>
        <time>2021-03-27T14:03:41Z</time>
      </trkpt>
      <trkpt lat="45.65317" lon="6.81154">
        <ele>2000.1</ele>
        <time>2021-03-27T14:03:42Z</time>
      </trkpt>
      <trkpt lat="45.65313" lon="6.81152">
        <ele>1999</ele>
        <time>2021-03-27T14:03:43Z</time>
      </trkpt>
      <trkpt lat="45.65309" lon="6.81151">
        <ele>1998.1</ele>
        <time>2021-03-27T14:03:44Z</time>
      </trkpt>
      <trkpt lat="45.65304" lon="6.81143">
        <ele>1996.2</ele>
        <time>2021-03-27T14:03:45Z</time>
      </trkpt>
      <trkpt lat="45.65301" lon="6.81137">
        <ele>1995.4</ele>
        <time>2021-03-27T14:03:46Z</time>
      </trkpt>
      <trkpt lat="45.65297" lon="6.81131">
        <ele>1994.7</ele>
        <time>2021-03-27T14:03:47Z</time>
      </trkpt>
      <trkpt lat="45.65292" lon="6.81125">
        <ele>1993.5</ele>
        <time>2021-03-27T14:03:48Z</time>
      </trkpt>
      <trkpt lat="45.65289" lon="6.81118">
        <ele>1993.1</ele>
        <time>2021-03-27T14:03:49Z</time>
      </trkpt>
      <trkpt lat="45.65287" lon="6.81113">
        <ele>1993.1</ele>
        <time>2021-03-27T14:03:50Z</time>
      </trkpt>
      <trkpt lat="45.65283" lon="6.81114">
        <ele>1991.5</ele>
        <time>2021-03-27T14:03:51Z</time>
      </trkpt>
      <trkpt lat="45.65282" lon="6.81114">
        <ele>1991.6</ele>
        <time>2021-03-27T14:03:52Z</time>
      </trkpt>
      <trkpt lat="45.65281" lon="6.81119">
        <ele>1990.6</ele>
        <time>2021-03-27T14:03:53Z</time>
      </trkpt>
      <trkpt lat="45.6528" lon="6.81125">
        <ele>1990.4</ele>
        <time>2021-03-27T14:03:54Z</time>
      </trkpt>
      <trkpt lat="45.65277" lon="6.81129">
        <ele>1989.5</ele>
        <time>2021-03-27T14:03:55Z</time>
      </trkpt>
      <trkpt lat="45.65275" lon="6.8113">
        <ele>1988.7</ele>
        <time>2021-03-27T14:03:56Z</time>
      </trkpt>
      <trkpt lat="45.65272" lon="6.81135">
        <ele>1988.4</ele>
        <time>2021-03-27T14:03:57Z</time>
      </trkpt>
      <trkpt lat="45.65268" lon="6.81139">
        <ele>1987.1</ele>
        <time>2021-03-27T14:03:58Z</time>
      </trkpt>
      <trkpt lat="45.65263" lon="6.81143">
        <ele>1986.4</ele>
        <time>2021-03-27T14:03:59Z</time>
      </trkpt>
      <trkpt lat="45.6526" lon="6.81148">
        <ele>1985.7</ele>
        <time>2021-03-27T14:04:00Z</time>
      </trkpt>
      <trkpt lat="45.65257" lon="6.8115">
        <ele>1985</ele>
        <time>2021-03-27T14:04:01Z</time>
      </trkpt>
      <trkpt lat="45.65253" lon="6.81151">
        <ele>1983.7</ele>
        <time>2021-03-27T14:04:02Z</time>
      </trkpt>
      <trkpt lat="45.6525" lon="6.81152">
        <ele>1983.1</ele>
        <time>2021-03-27T14:04:03Z</time>
      </trkpt>
      <trkpt lat="45.65247" lon="6.81152">
        <ele>1982.5</ele>
        <time>2021-03-27T14:04:04Z</time>
      </trkpt>
      <trkpt lat="45.65244" lon="6.81152">
        <ele>1981.5</ele>
        <time>2021-03-27T14:04:05Z</time>
      </trkpt>
      <trkpt lat="45.6524" lon="6.81153">
        <ele>1980.7</ele>
        <time>2021-03-27T14:04:06Z</time>
      </trkpt>
      <trkpt lat="45.65241" lon="6.81147">
        <ele>1981.2</ele>
        <time>2021-03-27T14:04:07Z</time>
      </trkpt>
      <trkpt lat="45.65241" lon="6.81141">
        <ele>1981.4</ele>
        <time>2021-03-27T14:04:08Z</time>
      </trkpt>
      <trkpt lat="45.6524" lon="6.81135">
        <ele>1981.7</ele>
        <time>2021-03-27T14:04:09Z</time>
      </trkpt>
      <trkpt lat="45.65239" lon="6.81132">
        <ele>1981.3</ele>
        <time>2021-03-27T14:04:10Z</time>
      </trkpt>
      <trkpt lat="45.65238" lon="6.81125">
        <ele>1981.4</ele>
        <time>2021-03-27T14:04:11Z</time>
      </trkpt>
      <trkpt lat="45.65237" lon="6.81119">
        <ele>1981.4</ele>
        <time>2021-03-27T14:04:12Z</time>
      </trkpt>
      <trkpt lat="45.65234" lon="6.81116">
        <ele>1980.8</ele>
        <time>2021-03-27T14:04:13Z</time>
      </trkpt>
      <trkpt lat="45.6523" lon="6.81114">
        <ele>1980.1</ele>
        <time>2021-03-27T14:04:14Z</time>
      </trkpt>
      <trkpt lat="45.65227" lon="6.81116">
        <ele>1978.9</ele>
        <time>2021-03-27T14:04:15Z</time>
      </trkpt>
      <trkpt lat="45.65223" lon="6.8112">
        <ele>1978.3</ele>
        <time>2021-03-27T14:04:16Z</time>
      </trkpt>
      <trkpt lat="45.65223" lon="6.8112">
        <ele>1978.3</ele>
        <time>2021-03-27T14:04:17Z</time>
      </trkpt>
      <trkpt lat="45.65223" lon="6.81121">
        <ele>1978.3</ele>
        <time>2021-03-27T14:04:18Z</time>
      </trkpt>
      <trkpt lat="45.65224" lon="6.81122">
        <ele>1978.3</ele>
        <time>2021-03-27T14:04:19Z</time>
      </trkpt>
      <trkpt lat="45.65224" lon="6.81123">
        <ele>1979.2</ele>
        <time>2021-03-27T14:04:20Z</time>
      </trkpt>
      <trkpt lat="45.65225" lon="6.81123">
        <ele>1979.2</ele>
        <time>2021-03-27T14:04:21Z</time>
      </trkpt>
      <trkpt lat="45.65225" lon="6.81124">
        <ele>1979.2</ele>
        <time>2021-03-27T14:04:22Z</time>
      </trkpt>
      <trkpt lat="45.65226" lon="6.81125">
        <ele>1979.2</ele>
        <time>2021-03-27T14:04:23Z</time>
      </trkpt>
      <trkpt lat="45.65226" lon="6.81126">
        <ele>1979.2</ele>
        <time>2021-03-27T14:04:24Z</time>
      </trkpt>
      <trkpt lat="45.65227" lon="6.81126">
        <ele>1979.2</ele>
        <time>2021-03-27T14:04:25Z</time>
      </trkpt>
      <trkpt lat="45.65226" lon="6.81124">
        <ele>1979.2</ele>
        <time>2021-03-27T14:04:26Z</time>
      </trkpt>
      <trkpt lat="45.65226" lon="6.81121">
        <ele>1979.1</ele>
        <time>2021-03-27T14:04:27Z</time>
      </trkpt>
      <trkpt lat="45.65225" lon="6.81119">
        <ele>1979.1</ele>
        <time>2021-03-27T14:04:28Z</time>
      </trkpt>
      <trkpt lat="45.65224" lon="6.81116">
        <ele>1978.9</ele>
        <time>2021-03-27T14:06:03Z</time>
      </trkpt>
      <trkpt lat="45.65224" lon="6.81114">
        <ele>1978.1</ele>
        <time>2021-03-27T14:06:04Z</time>
      </trkpt>
      <trkpt lat="45.65223" lon="6.81109">
        <ele>1977.6</ele>
        <time>2021-03-27T14:06:05Z</time>
      </trkpt>
      <trkpt lat="45.65223" lon="6.81105">
        <ele>1977.3</ele>
        <time>2021-03-27T14:06:06Z</time>
      </trkpt>
      <trkpt lat="45.65222" lon="6.81101">
        <ele>1977.3</ele>
        <time>2021-03-27T14:06:07Z</time>
      </trkpt>
      <trkpt lat="45.65219" lon="6.81096">
        <ele>1975.7</ele>
        <time>2021-03-27T14:06:08Z</time>
      </trkpt>
      <trkpt lat="45.65217" lon="6.81091">
        <ele>1974.4</ele>
        <time>2021-03-27T14:06:09Z</time>
      </trkpt>
      <trkpt lat="45.65213" lon="6.81087">
        <ele>1973.2</ele>
        <time>2021-03-27T14:06:10Z</time>
      </trkpt>
      <trkpt lat="45.65209" lon="6.81085">
        <ele>1972.5</ele>
        <time>2021-03-27T14:06:11Z</time>
      </trkpt>
      <trkpt lat="45.65204" lon="6.81082">
        <ele>1970.5</ele>
        <time>2021-03-27T14:06:12Z</time>
      </trkpt>
      <trkpt lat="45.652" lon="6.81078">
        <ele>1969.3</ele>
        <time>2021-03-27T14:06:13Z</time>
      </trkpt>
      <trkpt lat="45.65197" lon="6.81072">
        <ele>1968.1</ele>
        <time>2021-03-27T14:06:14Z</time>
      </trkpt>
      <trkpt lat="45.65195" lon="6.81066">
        <ele>1966.7</ele>
        <time>2021-03-27T14:06:15Z</time>
      </trkpt>
      <trkpt lat="45.65192" lon="6.81058">
        <ele>1965.5</ele>
        <time>2021-03-27T14:06:16Z</time>
      </trkpt>
      <trkpt lat="45.65189" lon="6.8105">
        <ele>1964.6</ele>
        <time>2021-03-27T14:06:17Z</time>
      </trkpt>
      <trkpt lat="45.65189" lon="6.81044">
        <ele>1964.4</ele>
        <time>2021-03-27T14:06:18Z</time>
      </trkpt>
      <trkpt lat="45.65186" lon="6.8104">
        <ele>1963.6</ele>
        <time>2021-03-27T14:06:19Z</time>
      </trkpt>
      <trkpt lat="45.65182" lon="6.81038">
        <ele>1962.9</ele>
        <time>2021-03-27T14:06:20Z</time>
      </trkpt>
      <trkpt lat="45.6518" lon="6.81042">
        <ele>1962.2</ele>
        <time>2021-03-27T14:06:21Z</time>
      </trkpt>
      <trkpt lat="45.65176" lon="6.81042">
        <ele>1961.5</ele>
        <time>2021-03-27T14:06:22Z</time>
      </trkpt>
      <trkpt lat="45.65172" lon="6.8104">
        <ele>1959.9</ele>
        <time>2021-03-27T14:06:23Z</time>
      </trkpt>
      <trkpt lat="45.65165" lon="6.81031">
        <ele>1958.1</ele>
        <time>2021-03-27T14:06:24Z</time>
      </trkpt>
      <trkpt lat="45.65158" lon="6.8103">
        <ele>1956.3</ele>
        <time>2021-03-27T14:06:25Z</time>
      </trkpt>
      <trkpt lat="45.65152" lon="6.81029">
        <ele>1953.9</ele>
        <time>2021-03-27T14:06:26Z</time>
      </trkpt>
      <trkpt lat="45.65147" lon="6.81023">
        <ele>1952.9</ele>
        <time>2021-03-27T14:06:27Z</time>
      </trkpt>
      <trkpt lat="45.65141" lon="6.8102">
        <ele>1951.2</ele>
        <time>2021-03-27T14:06:28Z</time>
      </trkpt>
      <trkpt lat="45.65135" lon="6.81017">
        <ele>1949.2</ele>
        <time>2021-03-27T14:06:29Z</time>
      </trkpt>
      <trkpt lat="45.65129" lon="6.81012">
        <ele>1947.4</ele>
        <time>2021-03-27T14:06:30Z</time>
      </trkpt>
      <trkpt lat="45.65125" lon="6.81011">
        <ele>1945.9</ele>
        <time>2021-03-27T14:06:31Z</time>
      </trkpt>
      <trkpt lat="45.65119" lon="6.81008">
        <ele>1944.3</ele>
        <time>2021-03-27T14:06:32Z</time>
      </trkpt>
      <trkpt lat="45.65113" lon="6.81006">
        <ele>1943.3</ele>
        <time>2021-03-27T14:06:33Z</time>
      </trkpt>
      <trkpt lat="45.65109" lon="6.81003">
        <ele>1941.4</ele>
        <time>2021-03-27T14:06:34Z</time>
      </trkpt>
      <trkpt lat="45.65104" lon="6.81">
        <ele>1940.5</ele>
        <time>2021-03-27T14:06:35Z</time>
      </trkpt>
      <trkpt lat="45.65099" lon="6.80997">
        <ele>1938.8</ele>
        <time>2021-03-27T14:06:36Z</time>
      </trkpt>
      <trkpt lat="45.65088" lon="6.80998">
        <ele>1935.1</ele>
        <time>2021-03-27T14:06:37Z</time>
      </trkpt>
      <trkpt lat="45.65081" lon="6.80997">
        <ele>1933</ele>
        <time>2021-03-27T14:06:38Z</time>
      </trkpt>
      <trkpt lat="45.65076" lon="6.80994">
        <ele>1931</ele>
        <time>2021-03-27T14:06:39Z</time>
      </trkpt>
      <trkpt lat="45.65071" lon="6.80995">
        <ele>1929.1</ele>
        <time>2021-03-27T14:06:40Z</time>
      </trkpt>
      <trkpt lat="45.65066" lon="6.81002">
        <ele>1928.4</ele>
        <time>2021-03-27T14:06:41Z</time>
      </trkpt>
      <trkpt lat="45.65062" lon="6.81">
        <ele>1927.4</ele>
        <time>2021-03-27T14:06:42Z</time>
      </trkpt>
      <trkpt lat="45.65059" lon="6.81001">
        <ele>1926.5</ele>
        <time>2021-03-27T14:06:43Z</time>
      </trkpt>
      <trkpt lat="45.65058" lon="6.80999">
        <ele>1925.5</ele>
        <time>2021-03-27T14:06:44Z</time>
      </trkpt>
      <trkpt lat="45.65058" lon="6.80998">
        <ele>1925.5</ele>
        <time>2021-03-27T14:06:45Z</time>
      </trkpt>
      <trkpt lat="45.65056" lon="6.80995">
        <ele>1925.2</ele>
        <time>2021-03-27T14:06:46Z</time>
      </trkpt>
      <trkpt lat="45.65056" lon="6.80993">
        <ele>1924.9</ele>
        <time>2021-03-27T14:06:47Z</time>
      </trkpt>
      <trkpt lat="45.65055" lon="6.80992">
        <ele>1923.8</ele>
        <time>2021-03-27T14:06:48Z</time>
      </trkpt>
      <trkpt lat="45.65055" lon="6.80991">
        <ele>1923.8</ele>
        <time>2021-03-27T14:06:49Z</time>
      </trkpt>
      <trkpt lat="45.65055" lon="6.80991">
        <ele>1923.8</ele>
        <time>2021-03-27T14:06:50Z</time>
      </trkpt>
      <trkpt lat="45.65055" lon="6.80991">
        <ele>1923.8</ele>
        <time>2021-03-27T14:06:51Z</time>
      </trkpt>
      <trkpt lat="45.65055" lon="6.80991">
        <ele>1923.8</ele>
        <time>2021-03-27T14:06:52Z</time>
      </trkpt>
      <trkpt lat="45.65054" lon="6.8099">
        <ele>1923.8</ele>
        <time>2021-03-27T14:06:53Z</time>
      </trkpt>
      <trkpt lat="45.65052" lon="6.80991">
        <ele>1922.8</ele>
        <time>2021-03-27T14:06:54Z</time>
      </trkpt>
      <trkpt lat="45.6505" lon="6.80992">
        <ele>1922.8</ele>
        <time>2021-03-27T14:06:55Z</time>
      </trkpt>
      <trkpt lat="45.65048" lon="6.80993">
        <ele>1921.8</ele>
        <time>2021-03-27T14:06:56Z</time>
      </trkpt>
      <trkpt lat="45.65045" lon="6.80996">
        <ele>1921.2</ele>
        <time>2021-03-27T14:06:57Z</time>
      </trkpt>
      <trkpt lat="45.65042" lon="6.80995">
        <ele>1920.4</ele>
        <time>2021-03-27T14:06:58Z</time>
      </trkpt>
      <trkpt lat="45.65039" lon="6.80993">
        <ele>1919.3</ele>
        <time>2021-03-27T14:06:59Z</time>
      </trkpt>
      <trkpt lat="45.65037" lon="6.80989">
        <ele>1918.2</ele>
        <time>2021-03-27T14:07:00Z</time>
      </trkpt>
      <trkpt lat="45.65035" lon="6.80985">
        <ele>1917</ele>
        <time>2021-03-27T14:07:01Z</time>
      </trkpt>
      <trkpt lat="45.65033" lon="6.80982">
        <ele>1917</ele>
        <time>2021-03-27T14:07:02Z</time>
      </trkpt>
      <trkpt lat="45.65031" lon="6.8098">
        <ele>1915.9</ele>
        <time>2021-03-27T14:07:03Z</time>
      </trkpt>
      <trkpt lat="45.65027" lon="6.80978">
        <ele>1915</ele>
        <time>2021-03-27T14:07:04Z</time>
      </trkpt>
      <trkpt lat="45.65025" lon="6.80978">
        <ele>1914.2</ele>
        <time>2021-03-27T14:07:05Z</time>
      </trkpt>
      <trkpt lat="45.65022" lon="6.80978">
        <ele>1913.5</ele>
        <time>2021-03-27T14:07:06Z</time>
      </trkpt>
      <trkpt lat="45.65018" lon="6.80978">
        <ele>1912.8</ele>
        <time>2021-03-27T14:07:07Z</time>
      </trkpt>
      <trkpt lat="45.65014" lon="6.80977">
        <ele>1911.6</ele>
        <time>2021-03-27T14:07:08Z</time>
      </trkpt>
      <trkpt lat="45.6501" lon="6.80975">
        <ele>1910.8</ele>
        <time>2021-03-27T14:07:09Z</time>
      </trkpt>
      <trkpt lat="45.65006" lon="6.80973">
        <ele>1910.1</ele>
        <time>2021-03-27T14:07:10Z</time>
      </trkpt>
      <trkpt lat="45.65003" lon="6.80971">
        <ele>1909.2</ele>
        <time>2021-03-27T14:07:11Z</time>
      </trkpt>
      <trkpt lat="45.65" lon="6.80969">
        <ele>1908.7</ele>
        <time>2021-03-27T14:07:12Z</time>
      </trkpt>
      <trkpt lat="45.64998" lon="6.80967">
        <ele>1908.2</ele>
        <time>2021-03-27T14:07:13Z</time>
      </trkpt>
      <trkpt lat="45.64995" lon="6.80965">
        <ele>1907.7</ele>
        <time>2021-03-27T14:07:14Z</time>
      </trkpt>
      <trkpt lat="45.64992" lon="6.80964">
        <ele>1907.2</ele>
        <time>2021-03-27T14:07:15Z</time>
      </trkpt>
      <trkpt lat="45.64989" lon="6.80962">
        <ele>1906.7</ele>
        <time>2021-03-27T14:07:16Z</time>
      </trkpt>
      <trkpt lat="45.64986" lon="6.8096">
        <ele>1906.2</ele>
        <time>2021-03-27T14:07:17Z</time>
      </trkpt>
      <trkpt lat="45.64983" lon="6.80957">
        <ele>1905.8</ele>
        <time>2021-03-27T14:07:18Z</time>
      </trkpt>
      <trkpt lat="45.6498" lon="6.80953">
        <ele>1905.3</ele>
        <time>2021-03-27T14:07:19Z</time>
      </trkpt>
      <trkpt lat="45.64976" lon="6.80943">
        <ele>1904.2</ele>
        <time>2021-03-27T14:07:20Z</time>
      </trkpt>
      <trkpt lat="45.64971" lon="6.80938">
        <ele>1903.6</ele>
        <time>2021-03-27T14:07:21Z</time>
      </trkpt>
      <trkpt lat="45.64967" lon="6.80935">
        <ele>1903.1</ele>
        <time>2021-03-27T14:07:22Z</time>
      </trkpt>
      <trkpt lat="45.64962" lon="6.80931">
        <ele>1902.5</ele>
        <time>2021-03-27T14:07:23Z</time>
      </trkpt>
      <trkpt lat="45.64955" lon="6.80925">
        <ele>1901.6</ele>
        <time>2021-03-27T14:07:24Z</time>
      </trkpt>
      <trkpt lat="45.64947" lon="6.80919">
        <ele>1900.8</ele>
        <time>2021-03-27T14:07:25Z</time>
      </trkpt>
      <trkpt lat="45.6494" lon="6.80915">
        <ele>1900</ele>
        <time>2021-03-27T14:07:26Z</time>
      </trkpt>
      <trkpt lat="45.64934" lon="6.80913">
        <ele>1899.3</ele>
        <time>2021-03-27T14:07:27Z</time>
      </trkpt>
      <trkpt lat="45.6493" lon="6.80916">
        <ele>1898.6</ele>
        <time>2021-03-27T14:07:28Z</time>
      </trkpt>
      <trkpt lat="45.64927" lon="6.80921">
        <ele>1898.1</ele>
        <time>2021-03-27T14:07:29Z</time>
      </trkpt>
      <trkpt lat="45.64927" lon="6.80923">
        <ele>1897.9</ele>
        <time>2021-03-27T14:07:30Z</time>
      </trkpt>
      <trkpt lat="45.64927" lon="6.80925">
        <ele>1897.7</ele>
        <time>2021-03-27T14:07:31Z</time>
      </trkpt>
      <trkpt lat="45.64926" lon="6.80925">
        <ele>1897.6</ele>
        <time>2021-03-27T14:07:32Z</time>
      </trkpt>
      <trkpt lat="45.64926" lon="6.80926">
        <ele>1897.5</ele>
        <time>2021-03-27T14:07:33Z</time>
      </trkpt>
      <trkpt lat="45.64925" lon="6.80926">
        <ele>1897.5</ele>
        <time>2021-03-27T14:07:34Z</time>
      </trkpt>
      <trkpt lat="45.64925" lon="6.80927">
        <ele>1897.4</ele>
        <time>2021-03-27T14:07:35Z</time>
      </trkpt>
      <trkpt lat="45.64925" lon="6.80927">
        <ele>1897.3</ele>
        <time>2021-03-27T14:07:36Z</time>
      </trkpt>
      <trkpt lat="45.64924" lon="6.80928">
        <ele>1897.2</ele>
        <time>2021-03-27T14:07:37Z</time>
      </trkpt>
      <trkpt lat="45.64924" lon="6.80928">
        <ele>1897.1</ele>
        <time>2021-03-27T14:07:38Z</time>
      </trkpt>
      <trkpt lat="45.64923" lon="6.80929">
        <ele>1897</ele>
        <time>2021-03-27T14:07:39Z</time>
      </trkpt>
      <trkpt lat="45.64923" lon="6.80929">
        <ele>1897</ele>
        <time>2021-03-27T14:07:40Z</time>
      </trkpt>
      <trkpt lat="45.64922" lon="6.8093">
        <ele>1896.9</ele>
        <time>2021-03-27T14:07:41Z</time>
      </trkpt>
      <trkpt lat="45.64922" lon="6.8093">
        <ele>1896.8</ele>
        <time>2021-03-27T14:08:37Z</time>
      </trkpt>
      <trkpt lat="45.64921" lon="6.80931">
        <ele>1896.7</ele>
        <time>2021-03-27T14:08:38Z</time>
      </trkpt>
      <trkpt lat="45.64919" lon="6.80934">
        <ele>1896.2</ele>
        <time>2021-03-27T14:08:39Z</time>
      </trkpt>
      <trkpt lat="45.64918" lon="6.80935">
        <ele>1896</ele>
        <time>2021-03-27T14:08:40Z</time>
      </trkpt>
      <trkpt lat="45.64916" lon="6.80936">
        <ele>1895.7</ele>
        <time>2021-03-27T14:08:41Z</time>
      </trkpt>
      <trkpt lat="45.64915" lon="6.80936">
        <ele>1895.5</ele>
        <time>2021-03-27T14:08:42Z</time>
      </trkpt>
      <trkpt lat="45.64914" lon="6.80936">
        <ele>1895.3</ele>
        <time>2021-03-27T14:08:43Z</time>
      </trkpt>
      <trkpt lat="45.64914" lon="6.80935">
        <ele>1895.2</ele>
        <time>2021-03-27T14:08:44Z</time>
      </trkpt>
      <trkpt lat="45.64914" lon="6.80935">
        <ele>1895.2</ele>
        <time>2021-03-27T14:08:45Z</time>
      </trkpt>
      <trkpt lat="45.64914" lon="6.80935">
        <ele>1895.2</ele>
        <time>2021-03-27T14:08:46Z</time>
      </trkpt>
      <trkpt lat="45.64914" lon="6.80934">
        <ele>1895.1</ele>
        <time>2021-03-27T14:08:47Z</time>
      </trkpt>
      <trkpt lat="45.64914" lon="6.80933">
        <ele>1895</ele>
        <time>2021-03-27T14:08:48Z</time>
      </trkpt>
      <trkpt lat="45.64912" lon="6.80929">
        <ele>1894.4</ele>
        <time>2021-03-27T14:08:49Z</time>
      </trkpt>
      <trkpt lat="45.64911" lon="6.80927">
        <ele>1894.2</ele>
        <time>2021-03-27T14:08:50Z</time>
      </trkpt>
      <trkpt lat="45.64908" lon="6.80924">
        <ele>1893.7</ele>
        <time>2021-03-27T14:08:51Z</time>
      </trkpt>
      <trkpt lat="45.64905" lon="6.8092">
        <ele>1893.1</ele>
        <time>2021-03-27T14:08:52Z</time>
      </trkpt>
      <trkpt lat="45.64902" lon="6.80916">
        <ele>1892.4</ele>
        <time>2021-03-27T14:08:53Z</time>
      </trkpt>
      <trkpt lat="45.64897" lon="6.80912">
        <ele>1891.6</ele>
        <time>2021-03-27T14:08:54Z</time>
      </trkpt>
      <trkpt lat="45.64893" lon="6.80908">
        <ele>1890.9</ele>
        <time>2021-03-27T14:08:55Z</time>
      </trkpt>
      <trkpt lat="45.64888" lon="6.80905">
        <ele>1890.1</ele>
        <time>2021-03-27T14:08:56Z</time>
      </trkpt>
      <trkpt lat="45.64883" lon="6.80902">
        <ele>1889.3</ele>
        <time>2021-03-27T14:08:57Z</time>
      </trkpt>
      <trkpt lat="45.64879" lon="6.80898">
        <ele>1888.5</ele>
        <time>2021-03-27T14:08:58Z</time>
      </trkpt>
      <trkpt lat="45.64875" lon="6.80894">
        <ele>1887.5</ele>
        <time>2021-03-27T14:08:59Z</time>
      </trkpt>
      <trkpt lat="45.64871" lon="6.80889">
        <ele>1886.7</ele>
        <time>2021-03-27T14:09:00Z</time>
      </trkpt>
      <trkpt lat="45.64872" lon="6.8088">
        <ele>1885.6</ele>
        <time>2021-03-27T14:09:01Z</time>
      </trkpt>
      <trkpt lat="45.64872" lon="6.80873">
        <ele>1884.7</ele>
        <time>2021-03-27T14:09:02Z</time>
      </trkpt>
      <trkpt lat="45.64869" lon="6.80868">
        <ele>1883.9</ele>
        <time>2021-03-27T14:09:03Z</time>
      </trkpt>
      <trkpt lat="45.64867" lon="6.80863">
        <ele>1883.2</ele>
        <time>2021-03-27T14:09:04Z</time>
      </trkpt>
      <trkpt lat="45.64864" lon="6.80858">
        <ele>1882.6</ele>
        <time>2021-03-27T14:09:05Z</time>
      </trkpt>
      <trkpt lat="45.64863" lon="6.80852">
        <ele>1881.8</ele>
        <time>2021-03-27T14:09:06Z</time>
      </trkpt>
      <trkpt lat="45.64861" lon="6.80848">
        <ele>1881.3</ele>
        <time>2021-03-27T14:09:07Z</time>
      </trkpt>
      <trkpt lat="45.64857" lon="6.80841">
        <ele>1880.3</ele>
        <time>2021-03-27T14:09:08Z</time>
      </trkpt>
      <trkpt lat="45.64853" lon="6.80835">
        <ele>1879.3</ele>
        <time>2021-03-27T14:09:09Z</time>
      </trkpt>
      <trkpt lat="45.64846" lon="6.80827">
        <ele>1877.8</ele>
        <time>2021-03-27T14:09:10Z</time>
      </trkpt>
      <trkpt lat="45.64842" lon="6.80819">
        <ele>1876.7</ele>
        <time>2021-03-27T14:09:11Z</time>
      </trkpt>
      <trkpt lat="45.64839" lon="6.80813">
        <ele>1875.9</ele>
        <time>2021-03-27T14:09:12Z</time>
      </trkpt>
      <trkpt lat="45.64834" lon="6.80805">
        <ele>1874.8</ele>
        <time>2021-03-27T14:09:13Z</time>
      </trkpt>
      <trkpt lat="45.64831" lon="6.808">
        <ele>1874.1</ele>
        <time>2021-03-27T14:09:14Z</time>
      </trkpt>
      <trkpt lat="45.64828" lon="6.80793">
        <ele>1873.3</ele>
        <time>2021-03-27T14:09:15Z</time>
      </trkpt>
      <trkpt lat="45.64822" lon="6.80786">
        <ele>1872.4</ele>
        <time>2021-03-27T14:09:16Z</time>
      </trkpt>
      <trkpt lat="45.64816" lon="6.80778">
        <ele>1871.6</ele>
        <time>2021-03-27T14:09:17Z</time>
      </trkpt>
      <trkpt lat="45.64811" lon="6.80771">
        <ele>1870.9</ele>
        <time>2021-03-27T14:09:18Z</time>
      </trkpt>
      <trkpt lat="45.64806" lon="6.80765">
        <ele>1870.2</ele>
        <time>2021-03-27T14:09:19Z</time>
      </trkpt>
      <trkpt lat="45.64802" lon="6.8076">
        <ele>1869.8</ele>
        <time>2021-03-27T14:09:20Z</time>
      </trkpt>
      <trkpt lat="45.64799" lon="6.80755">
        <ele>1869.3</ele>
        <time>2021-03-27T14:09:21Z</time>
      </trkpt>
      <trkpt lat="45.64795" lon="6.8075">
        <ele>1868.8</ele>
        <time>2021-03-27T14:09:22Z</time>
      </trkpt>
      <trkpt lat="45.64791" lon="6.80745">
        <ele>1868.4</ele>
        <time>2021-03-27T14:09:23Z</time>
      </trkpt>
      <trkpt lat="45.64788" lon="6.80742">
        <ele>1868.2</ele>
        <time>2021-03-27T14:09:24Z</time>
      </trkpt>
      <trkpt lat="45.64785" lon="6.80738">
        <ele>1867.9</ele>
        <time>2021-03-27T14:09:25Z</time>
      </trkpt>
      <trkpt lat="45.64782" lon="6.80734">
        <ele>1867.7</ele>
        <time>2021-03-27T14:09:26Z</time>
      </trkpt>
      <trkpt lat="45.6478" lon="6.80731">
        <ele>1867.5</ele>
        <time>2021-03-27T14:09:27Z</time>
      </trkpt>
      <trkpt lat="45.64777" lon="6.80727">
        <ele>1867.3</ele>
        <time>2021-03-27T14:09:28Z</time>
      </trkpt>
      <trkpt lat="45.64774" lon="6.80724">
        <ele>1867.1</ele>
        <time>2021-03-27T14:09:29Z</time>
      </trkpt>
      <trkpt lat="45.64772" lon="6.80722">
        <ele>1866.9</ele>
        <time>2021-03-27T14:09:30Z</time>
      </trkpt>
      <trkpt lat="45.64771" lon="6.80721">
        <ele>1866.9</ele>
        <time>2021-03-27T14:09:31Z</time>
      </trkpt>
      <trkpt lat="45.64768" lon="6.80718">
        <ele>1866.6</ele>
        <time>2021-03-27T14:09:32Z</time>
      </trkpt>
      <trkpt lat="45.64767" lon="6.80717">
        <ele>1866.5</ele>
        <time>2021-03-27T14:09:33Z</time>
      </trkpt>
      <trkpt lat="45.64765" lon="6.80714">
        <ele>1866.3</ele>
        <time>2021-03-27T14:09:34Z</time>
      </trkpt>
      <trkpt lat="45.64764" lon="6.80713">
        <ele>1866.2</ele>
        <time>2021-03-27T14:09:35Z</time>
      </trkpt>
      <trkpt lat="45.64762" lon="6.8071">
        <ele>1866</ele>
        <time>2021-03-27T14:09:36Z</time>
      </trkpt>
      <trkpt lat="45.64761" lon="6.80709">
        <ele>1865.9</ele>
        <time>2021-03-27T14:09:37Z</time>
      </trkpt>
      <trkpt lat="45.64758" lon="6.80706">
        <ele>1865.5</ele>
        <time>2021-03-27T14:09:38Z</time>
      </trkpt>
      <trkpt lat="45.64757" lon="6.80704">
        <ele>1865.4</ele>
        <time>2021-03-27T14:09:39Z</time>
      </trkpt>
      <trkpt lat="45.64755" lon="6.807">
        <ele>1864.9</ele>
        <time>2021-03-27T14:09:40Z</time>
      </trkpt>
      <trkpt lat="45.64754" lon="6.80699">
        <ele>1864.8</ele>
        <time>2021-03-27T14:09:41Z</time>
      </trkpt>
      <trkpt lat="45.64753" lon="6.80697">
        <ele>1864.5</ele>
        <time>2021-03-27T14:09:42Z</time>
      </trkpt>
      <trkpt lat="45.64752" lon="6.80695">
        <ele>1864.4</ele>
        <time>2021-03-27T14:09:43Z</time>
      </trkpt>
      <trkpt lat="45.64751" lon="6.80693">
        <ele>1864.2</ele>
        <time>2021-03-27T14:09:44Z</time>
      </trkpt>
      <trkpt lat="45.64751" lon="6.80692">
        <ele>1864.1</ele>
        <time>2021-03-27T14:09:45Z</time>
      </trkpt>
      <trkpt lat="45.6475" lon="6.80691">
        <ele>1863.9</ele>
        <time>2021-03-27T14:09:46Z</time>
      </trkpt>
      <trkpt lat="45.64749" lon="6.80689">
        <ele>1863.7</ele>
        <time>2021-03-27T14:09:47Z</time>
      </trkpt>
      <trkpt lat="45.64747" lon="6.80687">
        <ele>1863.5</ele>
        <time>2021-03-27T14:09:48Z</time>
      </trkpt>
      <trkpt lat="45.64746" lon="6.80686">
        <ele>1863.3</ele>
        <time>2021-03-27T14:09:49Z</time>
      </trkpt>
      <trkpt lat="45.64745" lon="6.80684">
        <ele>1863</ele>
        <time>2021-03-27T14:09:50Z</time>
      </trkpt>
      <trkpt lat="45.64742" lon="6.80682">
        <ele>1862.6</ele>
        <time>2021-03-27T14:09:51Z</time>
      </trkpt>
      <trkpt lat="45.64741" lon="6.80681">
        <ele>1862.5</ele>
        <time>2021-03-27T14:09:52Z</time>
      </trkpt>
      <trkpt lat="45.64738" lon="6.8068">
        <ele>1862.1</ele>
        <time>2021-03-27T14:09:53Z</time>
      </trkpt>
      <trkpt lat="45.64736" lon="6.80678">
        <ele>1861.7</ele>
        <time>2021-03-27T14:09:54Z</time>
      </trkpt>
      <trkpt lat="45.64733" lon="6.80675">
        <ele>1861.3</ele>
        <time>2021-03-27T14:09:55Z</time>
      </trkpt>
      <trkpt lat="45.64729" lon="6.80671">
        <ele>1860.8</ele>
        <time>2021-03-27T14:09:56Z</time>
      </trkpt>
      <trkpt lat="45.64727" lon="6.80664">
        <ele>1860.1</ele>
        <time>2021-03-27T14:09:57Z</time>
      </trkpt>
      <trkpt lat="45.64724" lon="6.80659">
        <ele>1859.6</ele>
        <time>2021-03-27T14:09:58Z</time>
      </trkpt>
      <trkpt lat="45.64721" lon="6.80653">
        <ele>1859</ele>
        <time>2021-03-27T14:09:59Z</time>
      </trkpt>
      <trkpt lat="45.64719" lon="6.80648">
        <ele>1858.6</ele>
        <time>2021-03-27T14:10:00Z</time>
      </trkpt>
      <trkpt lat="45.64715" lon="6.80644">
        <ele>1858.1</ele>
        <time>2021-03-27T14:10:01Z</time>
      </trkpt>
      <trkpt lat="45.64712" lon="6.80639">
        <ele>1857.6</ele>
        <time>2021-03-27T14:10:02Z</time>
      </trkpt>
      <trkpt lat="45.64708" lon="6.80634">
        <ele>1856.9</ele>
        <time>2021-03-27T14:10:03Z</time>
      </trkpt>
      <trkpt lat="45.64704" lon="6.80627">
        <ele>1856.3</ele>
        <time>2021-03-27T14:10:04Z</time>
      </trkpt>
      <trkpt lat="45.64701" lon="6.80622">
        <ele>1855.8</ele>
        <time>2021-03-27T14:10:05Z</time>
      </trkpt>
      <trkpt lat="45.64698" lon="6.80618">
        <ele>1855.3</ele>
        <time>2021-03-27T14:10:06Z</time>
      </trkpt>
      <trkpt lat="45.64693" lon="6.80611">
        <ele>1854.7</ele>
        <time>2021-03-27T14:10:07Z</time>
      </trkpt>
      <trkpt lat="45.6469" lon="6.80605">
        <ele>1854.7</ele>
        <time>2021-03-27T14:10:08Z</time>
      </trkpt>
      <trkpt lat="45.64686" lon="6.806">
        <ele>1854.8</ele>
        <time>2021-03-27T14:10:09Z</time>
      </trkpt>
      <trkpt lat="45.64682" lon="6.80595">
        <ele>1854.6</ele>
        <time>2021-03-27T14:10:10Z</time>
      </trkpt>
      <trkpt lat="45.64679" lon="6.8059">
        <ele>1854.3</ele>
        <time>2021-03-27T14:10:11Z</time>
      </trkpt>
      <trkpt lat="45.64675" lon="6.80586">
        <ele>1853.8</ele>
        <time>2021-03-27T14:10:12Z</time>
      </trkpt>
      <trkpt lat="45.64671" lon="6.80581">
        <ele>1853.2</ele>
        <time>2021-03-27T14:10:13Z</time>
      </trkpt>
      <trkpt lat="45.64669" lon="6.80577">
        <ele>1852.8</ele>
        <time>2021-03-27T14:10:14Z</time>
      </trkpt>
      <trkpt lat="45.64663" lon="6.80574">
        <ele>1852</ele>
        <time>2021-03-27T14:10:15Z</time>
      </trkpt>
      <trkpt lat="45.6466" lon="6.80571">
        <ele>1851.5</ele>
        <time>2021-03-27T14:10:16Z</time>
      </trkpt>
      <trkpt lat="45.64657" lon="6.80567">
        <ele>1851.1</ele>
        <time>2021-03-27T14:10:17Z</time>
      </trkpt>
      <trkpt lat="45.64655" lon="6.80563">
        <ele>1850.6</ele>
        <time>2021-03-27T14:10:18Z</time>
      </trkpt>
      <trkpt lat="45.64651" lon="6.80559">
        <ele>1850.2</ele>
        <time>2021-03-27T14:10:19Z</time>
      </trkpt>
      <trkpt lat="45.64649" lon="6.80556">
        <ele>1849.9</ele>
        <time>2021-03-27T14:10:20Z</time>
      </trkpt>
      <trkpt lat="45.64645" lon="6.80551">
        <ele>1849.6</ele>
        <time>2021-03-27T14:10:21Z</time>
      </trkpt>
      <trkpt lat="45.64642" lon="6.80546">
        <ele>1849.2</ele>
        <time>2021-03-27T14:10:22Z</time>
      </trkpt>
      <trkpt lat="45.64639" lon="6.80542">
        <ele>1848.9</ele>
        <time>2021-03-27T14:10:23Z</time>
      </trkpt>
      <trkpt lat="45.64637" lon="6.80538">
        <ele>1848.6</ele>
        <time>2021-03-27T14:10:24Z</time>
      </trkpt>
      <trkpt lat="45.64634" lon="6.80533">
        <ele>1848.3</ele>
        <time>2021-03-27T14:10:25Z</time>
      </trkpt>
      <trkpt lat="45.64631" lon="6.80528">
        <ele>1848</ele>
        <time>2021-03-27T14:10:26Z</time>
      </trkpt>
      <trkpt lat="45.64628" lon="6.80523">
        <ele>1847.6</ele>
        <time>2021-03-27T14:10:27Z</time>
      </trkpt>
      <trkpt lat="45.64625" lon="6.80518">
        <ele>1847.1</ele>
        <time>2021-03-27T14:10:28Z</time>
      </trkpt>
      <trkpt lat="45.64622" lon="6.80514">
        <ele>1846.6</ele>
        <time>2021-03-27T14:10:29Z</time>
      </trkpt>
      <trkpt lat="45.6462" lon="6.80509">
        <ele>1846.1</ele>
        <time>2021-03-27T14:10:30Z</time>
      </trkpt>
      <trkpt lat="45.64617" lon="6.80505">
        <ele>1845.5</ele>
        <time>2021-03-27T14:10:31Z</time>
      </trkpt>
      <trkpt lat="45.64614" lon="6.805">
        <ele>1845.1</ele>
        <time>2021-03-27T14:10:32Z</time>
      </trkpt>
      <trkpt lat="45.64611" lon="6.80496">
        <ele>1844.7</ele>
        <time>2021-03-27T14:10:33Z</time>
      </trkpt>
      <trkpt lat="45.64608" lon="6.80491">
        <ele>1844.4</ele>
        <time>2021-03-27T14:10:34Z</time>
      </trkpt>
      <trkpt lat="45.64606" lon="6.80486">
        <ele>1844.2</ele>
        <time>2021-03-27T14:10:35Z</time>
      </trkpt>
      <trkpt lat="45.64604" lon="6.80482">
        <ele>1844</ele>
        <time>2021-03-27T14:10:36Z</time>
      </trkpt>
      <trkpt lat="45.64602" lon="6.80477">
        <ele>1843.7</ele>
        <time>2021-03-27T14:10:37Z</time>
      </trkpt>
      <trkpt lat="45.646" lon="6.80472">
        <ele>1843.5</ele>
        <time>2021-03-27T14:10:38Z</time>
      </trkpt>
      <trkpt lat="45.64598" lon="6.80467">
        <ele>1843.2</ele>
        <time>2021-03-27T14:10:39Z</time>
      </trkpt>
      <trkpt lat="45.64597" lon="6.80462">
        <ele>1843</ele>
        <time>2021-03-27T14:10:40Z</time>
      </trkpt>
      <trkpt lat="45.64596" lon="6.80458">
        <ele>1842.8</ele>
        <time>2021-03-27T14:10:41Z</time>
      </trkpt>
      <trkpt lat="45.64595" lon="6.80453">
        <ele>1842.7</ele>
        <time>2021-03-27T14:10:42Z</time>
      </trkpt>
      <trkpt lat="45.64594" lon="6.80448">
        <ele>1842.5</ele>
        <time>2021-03-27T14:10:43Z</time>
      </trkpt>
      <trkpt lat="45.64592" lon="6.80443">
        <ele>1842.4</ele>
        <time>2021-03-27T14:10:44Z</time>
      </trkpt>
      <trkpt lat="45.64591" lon="6.80439">
        <ele>1842.2</ele>
        <time>2021-03-27T14:10:45Z</time>
      </trkpt>
      <trkpt lat="45.6459" lon="6.80434">
        <ele>1842</ele>
        <time>2021-03-27T14:10:46Z</time>
      </trkpt>
      <trkpt lat="45.64589" lon="6.80429">
        <ele>1841.7</ele>
        <time>2021-03-27T14:10:47Z</time>
      </trkpt>
      <trkpt lat="45.64588" lon="6.80425">
        <ele>1841.5</ele>
        <time>2021-03-27T14:10:48Z</time>
      </trkpt>
      <trkpt lat="45.64586" lon="6.80421">
        <ele>1841.2</ele>
        <time>2021-03-27T14:10:49Z</time>
      </trkpt>
      <trkpt lat="45.64586" lon="6.8042">
        <ele>1841.1</ele>
        <time>2021-03-27T14:10:50Z</time>
      </trkpt>
      <trkpt lat="45.64584" lon="6.80416">
        <ele>1840.7</ele>
        <time>2021-03-27T14:10:51Z</time>
      </trkpt>
      <trkpt lat="45.64584" lon="6.80414">
        <ele>1840.6</ele>
        <time>2021-03-27T14:10:52Z</time>
      </trkpt>
      <trkpt lat="45.64582" lon="6.80409">
        <ele>1840.1</ele>
        <time>2021-03-27T14:10:53Z</time>
      </trkpt>
      <trkpt lat="45.64582" lon="6.80407">
        <ele>1839.9</ele>
        <time>2021-03-27T14:10:54Z</time>
      </trkpt>
      <trkpt lat="45.6458" lon="6.80403">
        <ele>1839.6</ele>
        <time>2021-03-27T14:10:55Z</time>
      </trkpt>
      <trkpt lat="45.64579" lon="6.80398">
        <ele>1839.2</ele>
        <time>2021-03-27T14:10:56Z</time>
      </trkpt>
      <trkpt lat="45.64577" lon="6.80393">
        <ele>1838.9</ele>
        <time>2021-03-27T14:10:57Z</time>
      </trkpt>
      <trkpt lat="45.64576" lon="6.80388">
        <ele>1838.5</ele>
        <time>2021-03-27T14:10:58Z</time>
      </trkpt>
      <trkpt lat="45.64574" lon="6.80383">
        <ele>1838.1</ele>
        <time>2021-03-27T14:10:59Z</time>
      </trkpt>
      <trkpt lat="45.64573" lon="6.80378">
        <ele>1837.7</ele>
        <time>2021-03-27T14:11:00Z</time>
      </trkpt>
      <trkpt lat="45.64571" lon="6.80372">
        <ele>1837.2</ele>
        <time>2021-03-27T14:11:01Z</time>
      </trkpt>
      <trkpt lat="45.6457" lon="6.80367">
        <ele>1836.7</ele>
        <time>2021-03-27T14:11:02Z</time>
      </trkpt>
      <trkpt lat="45.64568" lon="6.80362">
        <ele>1836.3</ele>
        <time>2021-03-27T14:11:03Z</time>
      </trkpt>
      <trkpt lat="45.64568" lon="6.80357">
        <ele>1835.9</ele>
        <time>2021-03-27T14:11:04Z</time>
      </trkpt>
      <trkpt lat="45.64567" lon="6.80351">
        <ele>1835.5</ele>
        <time>2021-03-27T14:11:05Z</time>
      </trkpt>
      <trkpt lat="45.64566" lon="6.80346">
        <ele>1835.1</ele>
        <time>2021-03-27T14:11:06Z</time>
      </trkpt>
      <trkpt lat="45.64565" lon="6.80341">
        <ele>1834.6</ele>
        <time>2021-03-27T14:11:07Z</time>
      </trkpt>
      <trkpt lat="45.64563" lon="6.80337">
        <ele>1834.2</ele>
        <time>2021-03-27T14:11:08Z</time>
      </trkpt>
      <trkpt lat="45.64562" lon="6.80334">
        <ele>1833.8</ele>
        <time>2021-03-27T14:11:09Z</time>
      </trkpt>
      <trkpt lat="45.6456" lon="6.8033">
        <ele>1833.3</ele>
        <time>2021-03-27T14:11:10Z</time>
      </trkpt>
      <trkpt lat="45.64558" lon="6.80325">
        <ele>1832.7</ele>
        <time>2021-03-27T14:11:11Z</time>
      </trkpt>
      <trkpt lat="45.64556" lon="6.8032">
        <ele>1832.2</ele>
        <time>2021-03-27T14:11:12Z</time>
      </trkpt>
      <trkpt lat="45.64553" lon="6.80317">
        <ele>1831.7</ele>
        <time>2021-03-27T14:11:13Z</time>
      </trkpt>
      <trkpt lat="45.64551" lon="6.80314">
        <ele>1831.3</ele>
        <time>2021-03-27T14:11:14Z</time>
      </trkpt>
      <trkpt lat="45.64548" lon="6.80312">
        <ele>1830.8</ele>
        <time>2021-03-27T14:11:15Z</time>
      </trkpt>
      <trkpt lat="45.64545" lon="6.80308">
        <ele>1830.4</ele>
        <time>2021-03-27T14:11:16Z</time>
      </trkpt>
      <trkpt lat="45.64543" lon="6.80303">
        <ele>1830</ele>
        <time>2021-03-27T14:11:17Z</time>
      </trkpt>
      <trkpt lat="45.64541" lon="6.80298">
        <ele>1829.5</ele>
        <time>2021-03-27T14:11:18Z</time>
      </trkpt>
      <trkpt lat="45.6454" lon="6.80294">
        <ele>1829.2</ele>
        <time>2021-03-27T14:11:19Z</time>
      </trkpt>
      <trkpt lat="45.64536" lon="6.80297">
        <ele>1828.9</ele>
        <time>2021-03-27T14:11:20Z</time>
      </trkpt>
      <trkpt lat="45.64535" lon="6.80299">
        <ele>1829.1</ele>
        <time>2021-03-27T14:11:21Z</time>
      </trkpt>
      <trkpt lat="45.64533" lon="6.80306">
        <ele>1829</ele>
        <time>2021-03-27T14:11:22Z</time>
      </trkpt>
      <trkpt lat="45.64532" lon="6.80313">
        <ele>1829.6</ele>
        <time>2021-03-27T14:11:23Z</time>
      </trkpt>
      <trkpt lat="45.64531" lon="6.8032">
        <ele>1829.7</ele>
        <time>2021-03-27T14:11:24Z</time>
      </trkpt>
      <trkpt lat="45.6453" lon="6.80326">
        <ele>1829.9</ele>
        <time>2021-03-27T14:11:25Z</time>
      </trkpt>
      <trkpt lat="45.64529" lon="6.80332">
        <ele>1830.1</ele>
        <time>2021-03-27T14:11:26Z</time>
      </trkpt>
      <trkpt lat="45.64528" lon="6.80336">
        <ele>1830.3</ele>
        <time>2021-03-27T14:11:27Z</time>
      </trkpt>
      <trkpt lat="45.64528" lon="6.80341">
        <ele>1829.8</ele>
        <time>2021-03-27T14:11:28Z</time>
      </trkpt>
      <trkpt lat="45.64528" lon="6.80342">
        <ele>1830</ele>
        <time>2021-03-27T14:11:29Z</time>
      </trkpt>
      <trkpt lat="45.64526" lon="6.80342">
        <ele>1830</ele>
        <time>2021-03-27T14:11:30Z</time>
      </trkpt>
      <trkpt lat="45.64525" lon="6.80341">
        <ele>1829.8</ele>
        <time>2021-03-27T14:11:31Z</time>
      </trkpt>
      <trkpt lat="45.64524" lon="6.8034">
        <ele>1829.2</ele>
        <time>2021-03-27T14:11:32Z</time>
      </trkpt>
      <trkpt lat="45.64522" lon="6.80342">
        <ele>1828.7</ele>
        <time>2021-03-27T14:11:33Z</time>
      </trkpt>
      <trkpt lat="45.6452" lon="6.80346">
        <ele>1828.8</ele>
        <time>2021-03-27T14:11:34Z</time>
      </trkpt>
      <trkpt lat="45.64518" lon="6.80351">
        <ele>1828.3</ele>
        <time>2021-03-27T14:11:35Z</time>
      </trkpt>
      <trkpt lat="45.64518" lon="6.80356">
        <ele>1828.5</ele>
        <time>2021-03-27T14:11:36Z</time>
      </trkpt>
      <trkpt lat="45.64519" lon="6.80361">
        <ele>1828.7</ele>
        <time>2021-03-27T14:11:37Z</time>
      </trkpt>
      <trkpt lat="45.64519" lon="6.80365">
        <ele>1829.6</ele>
        <time>2021-03-27T14:11:38Z</time>
      </trkpt>
      <trkpt lat="45.64519" lon="6.80365">
        <ele>1829.6</ele>
        <time>2021-03-27T14:11:39Z</time>
      </trkpt>
      <trkpt lat="45.64519" lon="6.80365">
        <ele>1829.6</ele>
        <time>2021-03-27T14:11:40Z</time>
      </trkpt>
      <trkpt lat="45.64519" lon="6.80365">
        <ele>1829.6</ele>
        <time>2021-03-27T14:11:41Z</time>
      </trkpt>
      <trkpt lat="45.64519" lon="6.80365">
        <ele>1829.6</ele>
        <time>2021-03-27T14:11:42Z</time>
      </trkpt>
      <trkpt lat="45.64519" lon="6.80365">
        <ele>1829.6</ele>
        <time>2021-03-27T14:11:43Z</time>
      </trkpt>
      <trkpt lat="45.64519" lon="6.80365">
        <ele>1829.6</ele>
        <time>2021-03-27T14:11:44Z</time>
      </trkpt>
      <trkpt lat="45.64519" lon="6.80365">
        <ele>1829.6</ele>
        <time>2021-03-27T14:11:45Z</time>
      </trkpt>
      <trkpt lat="45.64519" lon="6.80364">
        <ele>1829.6</ele>
        <time>2021-03-27T14:11:46Z</time>
      </trkpt>
      <trkpt lat="45.64519" lon="6.80365">
        <ele>1828.9</ele>
        <time>2021-03-27T14:11:47Z</time>
      </trkpt>
      <trkpt lat="45.64518" lon="6.80365">
        <ele>1828.9</ele>
        <time>2021-03-27T14:11:48Z</time>
      </trkpt>
      <trkpt lat="45.64517" lon="6.80365">
        <ele>1828.9</ele>
        <time>2021-03-27T14:11:49Z</time>
      </trkpt>
      <trkpt lat="45.64517" lon="6.80365">
        <ele>1828.9</ele>
        <time>2021-03-27T14:11:50Z</time>
      </trkpt>
      <trkpt lat="45.64517" lon="6.80367">
        <ele>1828.9</ele>
        <time>2021-03-27T14:11:51Z</time>
      </trkpt>
      <trkpt lat="45.64517" lon="6.80368">
        <ele>1829</ele>
        <time>2021-03-27T14:11:52Z</time>
      </trkpt>
      <trkpt lat="45.64517" lon="6.80368">
        <ele>1829.1</ele>
        <time>2021-03-27T14:11:53Z</time>
      </trkpt>
      <trkpt lat="45.64518" lon="6.80368">
        <ele>1829.1</ele>
        <time>2021-03-27T14:11:54Z</time>
      </trkpt>
      <trkpt lat="45.64518" lon="6.80368">
        <ele>1829.1</ele>
        <time>2021-03-27T14:11:55Z</time>
      </trkpt>
      <trkpt lat="45.64518" lon="6.80369">
        <ele>1829.1</ele>
        <time>2021-03-27T14:11:56Z</time>
      </trkpt>
      <trkpt lat="45.64518" lon="6.80369">
        <ele>1829.1</ele>
        <time>2021-03-27T14:11:57Z</time>
      </trkpt>
      <trkpt lat="45.64519" lon="6.80369">
        <ele>1829.1</ele>
        <time>2021-03-27T14:11:58Z</time>
      </trkpt>
      <trkpt lat="45.64519" lon="6.80369">
        <ele>1829.8</ele>
        <time>2021-03-27T14:11:59Z</time>
      </trkpt>
      <trkpt lat="45.64519" lon="6.80369">
        <ele>1829.8</ele>
        <time>2021-03-27T14:12:00Z</time>
      </trkpt>
      <trkpt lat="45.6452" lon="6.80369">
        <ele>1829.9</ele>
        <time>2021-03-27T14:12:01Z</time>
      </trkpt>
      <trkpt lat="45.6452" lon="6.80369">
        <ele>1829.9</ele>
        <time>2021-03-27T14:12:02Z</time>
      </trkpt>
      <trkpt lat="45.6452" lon="6.80369">
        <ele>1829.9</ele>
        <time>2021-03-27T14:12:07Z</time>
      </trkpt>
      <trkpt lat="45.6452" lon="6.80369">
        <ele>1829.9</ele>
        <time>2021-03-27T14:12:08Z</time>
      </trkpt>
      <trkpt lat="45.64521" lon="6.80369">
        <ele>1829.9</ele>
        <time>2021-03-27T14:12:09Z</time>
      </trkpt>
      <trkpt lat="45.64521" lon="6.80369">
        <ele>1829.9</ele>
        <time>2021-03-27T14:12:10Z</time>
      </trkpt>
      <trkpt lat="45.64521" lon="6.80369">
        <ele>1830</ele>
        <time>2021-03-27T14:12:11Z</time>
      </trkpt>
      <trkpt lat="45.64522" lon="6.80369">
        <ele>1830</ele>
        <time>2021-03-27T14:12:12Z</time>
      </trkpt>
      <trkpt lat="45.64522" lon="6.8037">
        <ele>1830</ele>
        <time>2021-03-27T14:12:13Z</time>
      </trkpt>
      <trkpt lat="45.64522" lon="6.8037">
        <ele>1830.8</ele>
        <time>2021-03-27T14:12:14Z</time>
      </trkpt>
      <trkpt lat="45.64522" lon="6.8037">
        <ele>1830.8</ele>
        <time>2021-03-27T14:12:15Z</time>
      </trkpt>
      <trkpt lat="45.64523" lon="6.8037">
        <ele>1830.8</ele>
        <time>2021-03-27T14:12:16Z</time>
      </trkpt>
      <trkpt lat="45.64523" lon="6.8037">
        <ele>1830.9</ele>
        <time>2021-03-27T14:12:50Z</time>
      </trkpt>
      <trkpt lat="45.64523" lon="6.8037">
        <ele>1830.9</ele>
        <time>2021-03-27T14:12:51Z</time>
      </trkpt>
      <trkpt lat="45.64524" lon="6.8037">
        <ele>1830.9</ele>
        <time>2021-03-27T14:12:52Z</time>
      </trkpt>
      <trkpt lat="45.64524" lon="6.8037">
        <ele>1830.9</ele>
        <time>2021-03-27T14:12:53Z</time>
      </trkpt>
      <trkpt lat="45.64525" lon="6.80371">
        <ele>1831.7</ele>
        <time>2021-03-27T14:12:54Z</time>
      </trkpt>
      <trkpt lat="45.64526" lon="6.80372">
        <ele>1831.8</ele>
        <time>2021-03-27T14:12:55Z</time>
      </trkpt>
      <trkpt lat="45.64525" lon="6.80373">
        <ele>1831.8</ele>
        <time>2021-03-27T14:12:56Z</time>
      </trkpt>
      <trkpt lat="45.64524" lon="6.80374">
        <ele>1831.1</ele>
        <time>2021-03-27T14:12:57Z</time>
      </trkpt>
      <trkpt lat="45.64522" lon="6.80374">
        <ele>1831.2</ele>
        <time>2021-03-27T14:12:58Z</time>
      </trkpt>
      <trkpt lat="45.6452" lon="6.80371">
        <ele>1830.5</ele>
        <time>2021-03-27T14:12:59Z</time>
      </trkpt>
      <trkpt lat="45.6452" lon="6.80371">
        <ele>1830.3</ele>
        <time>2021-03-27T14:13:00Z</time>
      </trkpt>
      <trkpt lat="45.6452" lon="6.80371">
        <ele>1830.3</ele>
        <time>2021-03-27T14:13:01Z</time>
      </trkpt>
      <trkpt lat="45.64519" lon="6.8037">
        <ele>1830.4</ele>
        <time>2021-03-27T14:13:02Z</time>
      </trkpt>
      <trkpt lat="45.64519" lon="6.8037">
        <ele>1830.4</ele>
        <time>2021-03-27T14:13:03Z</time>
      </trkpt>
      <trkpt lat="45.64519" lon="6.80369">
        <ele>1829.7</ele>
        <time>2021-03-27T14:13:04Z</time>
      </trkpt>
      <trkpt lat="45.64518" lon="6.80369">
        <ele>1829.8</ele>
        <time>2021-03-27T14:13:05Z</time>
      </trkpt>
      <trkpt lat="45.64518" lon="6.80369">
        <ele>1829.8</ele>
        <time>2021-03-27T14:13:06Z</time>
      </trkpt>
      <trkpt lat="45.64518" lon="6.80368">
        <ele>1829.8</ele>
        <time>2021-03-27T14:13:07Z</time>
      </trkpt>
      <trkpt lat="45.64517" lon="6.80368">
        <ele>1829.9</ele>
        <time>2021-03-27T14:13:08Z</time>
      </trkpt>
      <trkpt lat="45.64517" lon="6.80367">
        <ele>1829.9</ele>
        <time>2021-03-27T14:13:09Z</time>
      </trkpt>
      <trkpt lat="45.64517" lon="6.80367">
        <ele>1829.8</ele>
        <time>2021-03-27T14:14:00Z</time>
      </trkpt>
      <trkpt lat="45.64517" lon="6.80366">
        <ele>1829.8</ele>
        <time>2021-03-27T14:14:01Z</time>
      </trkpt>
      <trkpt lat="45.64516" lon="6.80366">
        <ele>1829.9</ele>
        <time>2021-03-27T14:14:02Z</time>
      </trkpt>
      <trkpt lat="45.64516" lon="6.80366">
        <ele>1829.9</ele>
        <time>2021-03-27T14:14:03Z</time>
      </trkpt>
      <trkpt lat="45.64516" lon="6.80365">
        <ele>1829.2</ele>
        <time>2021-03-27T14:14:04Z</time>
      </trkpt>
      <trkpt lat="45.64515" lon="6.80365">
        <ele>1829.3</ele>
        <time>2021-03-27T14:14:05Z</time>
      </trkpt>
      <trkpt lat="45.64515" lon="6.80364">
        <ele>1829.3</ele>
        <time>2021-03-27T14:14:06Z</time>
      </trkpt>
      <trkpt lat="45.64515" lon="6.80364">
        <ele>1829.3</ele>
        <time>2021-03-27T14:14:07Z</time>
      </trkpt>
      <trkpt lat="45.64514" lon="6.80363">
        <ele>1829.4</ele>
        <time>2021-03-27T14:14:08Z</time>
      </trkpt>
      <trkpt lat="45.64514" lon="6.80363">
        <ele>1829.4</ele>
        <time>2021-03-27T14:14:09Z</time>
      </trkpt>
      <trkpt lat="45.64514" lon="6.80364">
        <ele>1829.5</ele>
        <time>2021-03-27T14:14:10Z</time>
      </trkpt>
      <trkpt lat="45.64513" lon="6.80363">
        <ele>1829.5</ele>
        <time>2021-03-27T14:14:11Z</time>
      </trkpt>
      <trkpt lat="45.64513" lon="6.80363">
        <ele>1828.9</ele>
        <time>2021-03-27T14:14:12Z</time>
      </trkpt>
      <trkpt lat="45.64512" lon="6.80363">
        <ele>1828.9</ele>
        <time>2021-03-27T14:14:13Z</time>
      </trkpt>
      <trkpt lat="45.64512" lon="6.80363">
        <ele>1828.9</ele>
        <time>2021-03-27T14:14:14Z</time>
      </trkpt>
      <trkpt lat="45.64512" lon="6.80363">
        <ele>1829</ele>
        <time>2021-03-27T14:14:15Z</time>
      </trkpt>
      <trkpt lat="45.64512" lon="6.80363">
        <ele>1829</ele>
        <time>2021-03-27T14:14:16Z</time>
      </trkpt>
      <trkpt lat="45.64512" lon="6.80363">
        <ele>1828.9</ele>
        <time>2021-03-27T14:14:17Z</time>
      </trkpt>
      <trkpt lat="45.64512" lon="6.80363">
        <ele>1829.1</ele>
        <time>2021-03-27T14:14:18Z</time>
      </trkpt>
      <trkpt lat="45.64512" lon="6.80363">
        <ele>1829.2</ele>
        <time>2021-03-27T14:14:19Z</time>
      </trkpt>
      <trkpt lat="45.64513" lon="6.80364">
        <ele>1829.2</ele>
        <time>2021-03-27T14:14:20Z</time>
      </trkpt>
      <trkpt lat="45.64513" lon="6.80364">
        <ele>1829.2</ele>
        <time>2021-03-27T14:14:21Z</time>
      </trkpt>
      <trkpt lat="45.64513" lon="6.80364">
        <ele>1829.2</ele>
        <time>2021-03-27T14:14:22Z</time>
      </trkpt>
      <trkpt lat="45.64513" lon="6.80364">
        <ele>1829.3</ele>
        <time>2021-03-27T14:14:23Z</time>
      </trkpt>
      <trkpt lat="45.64513" lon="6.80366">
        <ele>1830.1</ele>
        <time>2021-03-27T14:14:54Z</time>
      </trkpt>
      <trkpt lat="45.64514" lon="6.80366">
        <ele>1830.1</ele>
        <time>2021-03-27T14:14:55Z</time>
      </trkpt>
      <trkpt lat="45.64515" lon="6.80367">
        <ele>1830.1</ele>
        <time>2021-03-27T14:14:56Z</time>
      </trkpt>
      <trkpt lat="45.64515" lon="6.80367">
        <ele>1830.2</ele>
        <time>2021-03-27T14:14:57Z</time>
      </trkpt>
      <trkpt lat="45.64516" lon="6.80367">
        <ele>1830.3</ele>
        <time>2021-03-27T14:14:58Z</time>
      </trkpt>
      <trkpt lat="45.64516" lon="6.80367">
        <ele>1830.3</ele>
        <time>2021-03-27T14:14:59Z</time>
      </trkpt>
      <trkpt lat="45.64516" lon="6.80366">
        <ele>1830.4</ele>
        <time>2021-03-27T14:15:00Z</time>
      </trkpt>
      <trkpt lat="45.64516" lon="6.80365">
        <ele>1830.4</ele>
        <time>2021-03-27T14:15:01Z</time>
      </trkpt>
      <trkpt lat="45.64516" lon="6.80365">
        <ele>1830.4</ele>
        <time>2021-03-27T14:15:02Z</time>
      </trkpt>
      <trkpt lat="45.64516" lon="6.80364">
        <ele>1831.2</ele>
        <time>2021-03-27T14:15:03Z</time>
      </trkpt>
      <trkpt lat="45.64516" lon="6.80363">
        <ele>1831.2</ele>
        <time>2021-03-27T14:15:04Z</time>
      </trkpt>
      <trkpt lat="45.64516" lon="6.80362">
        <ele>1831.1</ele>
        <time>2021-03-27T14:15:05Z</time>
      </trkpt>
      <trkpt lat="45.64516" lon="6.80362">
        <ele>1831.1</ele>
        <time>2021-03-27T14:15:39Z</time>
      </trkpt>
      <trkpt lat="45.64516" lon="6.80361">
        <ele>1831.2</ele>
        <time>2021-03-27T14:15:40Z</time>
      </trkpt>
      <trkpt lat="45.64516" lon="6.8036">
        <ele>1831.3</ele>
        <time>2021-03-27T14:15:41Z</time>
      </trkpt>
      <trkpt lat="45.64516" lon="6.8036">
        <ele>1831.3</ele>
        <time>2021-03-27T14:15:42Z</time>
      </trkpt>
      <trkpt lat="45.64516" lon="6.80359">
        <ele>1831.3</ele>
        <time>2021-03-27T14:15:43Z</time>
      </trkpt>
      <trkpt lat="45.64516" lon="6.80358">
        <ele>1831.3</ele>
        <time>2021-03-27T14:15:44Z</time>
      </trkpt>
      <trkpt lat="45.64516" lon="6.80358">
        <ele>1831.3</ele>
        <time>2021-03-27T14:15:45Z</time>
      </trkpt>
      <trkpt lat="45.64516" lon="6.80357">
        <ele>1831.3</ele>
        <time>2021-03-27T14:15:46Z</time>
      </trkpt>
      <trkpt lat="45.64516" lon="6.80356">
        <ele>1831.4</ele>
        <time>2021-03-27T14:15:47Z</time>
      </trkpt>
      <trkpt lat="45.64516" lon="6.80355">
        <ele>1831.5</ele>
        <time>2021-03-27T14:15:48Z</time>
      </trkpt>
      <trkpt lat="45.64516" lon="6.80355">
        <ele>1831.5</ele>
        <time>2021-03-27T14:15:49Z</time>
      </trkpt>
      <trkpt lat="45.64516" lon="6.80354">
        <ele>1831.4</ele>
        <time>2021-03-27T14:15:50Z</time>
      </trkpt>
      <trkpt lat="45.64516" lon="6.80353">
        <ele>1831.5</ele>
        <time>2021-03-27T14:15:51Z</time>
      </trkpt>
      <trkpt lat="45.64516" lon="6.80353">
        <ele>1831.5</ele>
        <time>2021-03-27T14:16:15Z</time>
      </trkpt>
      <trkpt lat="45.64516" lon="6.80352">
        <ele>1831.5</ele>
        <time>2021-03-27T14:16:16Z</time>
      </trkpt>
      <trkpt lat="45.64516" lon="6.80351">
        <ele>1831.7</ele>
        <time>2021-03-27T14:16:17Z</time>
      </trkpt>
      <trkpt lat="45.64516" lon="6.80351">
        <ele>1831.7</ele>
        <time>2021-03-27T14:16:18Z</time>
      </trkpt>
      <trkpt lat="45.64516" lon="6.8035">
        <ele>1831.6</ele>
        <time>2021-03-27T14:16:19Z</time>
      </trkpt>
      <trkpt lat="45.64516" lon="6.80349">
        <ele>1831.7</ele>
        <time>2021-03-27T14:16:20Z</time>
      </trkpt>
      <trkpt lat="45.64516" lon="6.80348">
        <ele>1831.7</ele>
        <time>2021-03-27T14:16:21Z</time>
      </trkpt>
      <trkpt lat="45.64515" lon="6.80349">
        <ele>1831.1</ele>
        <time>2021-03-27T14:16:22Z</time>
      </trkpt>
      <trkpt lat="45.64516" lon="6.80348">
        <ele>1831.8</ele>
        <time>2021-03-27T14:16:23Z</time>
      </trkpt>
      <trkpt lat="45.64516" lon="6.80347">
        <ele>1831.8</ele>
        <time>2021-03-27T14:16:24Z</time>
      </trkpt>
      <trkpt lat="45.64516" lon="6.80344">
        <ele>1831</ele>
        <time>2021-03-27T14:16:25Z</time>
      </trkpt>
      <trkpt lat="45.64514" lon="6.8034">
        <ele>1830.9</ele>
        <time>2021-03-27T14:16:26Z</time>
      </trkpt>
      <trkpt lat="45.64514" lon="6.80339">
        <ele>1830.9</ele>
        <time>2021-03-27T14:16:27Z</time>
      </trkpt>
      <trkpt lat="45.64512" lon="6.80335">
        <ele>1830.1</ele>
        <time>2021-03-27T14:16:28Z</time>
      </trkpt>
      <trkpt lat="45.64511" lon="6.80331">
        <ele>1830</ele>
        <time>2021-03-27T14:16:29Z</time>
      </trkpt>
      <trkpt lat="45.6451" lon="6.80327">
        <ele>1829.9</ele>
        <time>2021-03-27T14:16:30Z</time>
      </trkpt>
      <trkpt lat="45.6451" lon="6.80323">
        <ele>1829.1</ele>
        <time>2021-03-27T14:16:31Z</time>
      </trkpt>
      <trkpt lat="45.64509" lon="6.80317">
        <ele>1828.9</ele>
        <time>2021-03-27T14:16:32Z</time>
      </trkpt>
      <trkpt lat="45.64508" lon="6.80312">
        <ele>1828.8</ele>
        <time>2021-03-27T14:16:33Z</time>
      </trkpt>
      <trkpt lat="45.64507" lon="6.80305">
        <ele>1828.6</ele>
        <time>2021-03-27T14:16:34Z</time>
      </trkpt>
      <trkpt lat="45.64506" lon="6.80296">
        <ele>1827.8</ele>
        <time>2021-03-27T14:16:35Z</time>
      </trkpt>
      <trkpt lat="45.64505" lon="6.80286">
        <ele>1827.6</ele>
        <time>2021-03-27T14:16:36Z</time>
      </trkpt>
      <trkpt lat="45.64502" lon="6.80275">
        <ele>1826.4</ele>
        <time>2021-03-27T14:16:37Z</time>
      </trkpt>
      <trkpt lat="45.64499" lon="6.80264">
        <ele>1825.2</ele>
        <time>2021-03-27T14:16:38Z</time>
      </trkpt>
      <trkpt lat="45.64492" lon="6.80257">
        <ele>1823.3</ele>
        <time>2021-03-27T14:16:39Z</time>
      </trkpt>
      <trkpt lat="45.64487" lon="6.80257">
        <ele>1822</ele>
        <time>2021-03-27T14:16:40Z</time>
      </trkpt>
      <trkpt lat="45.64481" lon="6.80255">
        <ele>1820.3</ele>
        <time>2021-03-27T14:16:41Z</time>
      </trkpt>
      <trkpt lat="45.64477" lon="6.80255">
        <ele>1818.2</ele>
        <time>2021-03-27T14:16:42Z</time>
      </trkpt>
      <trkpt lat="45.64474" lon="6.80253">
        <ele>1817.3</ele>
        <time>2021-03-27T14:16:43Z</time>
      </trkpt>
      <trkpt lat="45.6447" lon="6.80251">
        <ele>1816.4</ele>
        <time>2021-03-27T14:16:44Z</time>
      </trkpt>
      <trkpt lat="45.64469" lon="6.80249">
        <ele>1816.4</ele>
        <time>2021-03-27T14:16:45Z</time>
      </trkpt>
      <trkpt lat="45.64465" lon="6.80247">
        <ele>1815.5</ele>
        <time>2021-03-27T14:16:46Z</time>
      </trkpt>
      <trkpt lat="45.64462" lon="6.80243">
        <ele>1814.8</ele>
        <time>2021-03-27T14:16:47Z</time>
      </trkpt>
      <trkpt lat="45.64458" lon="6.80239">
        <ele>1813.3</ele>
        <time>2021-03-27T14:16:48Z</time>
      </trkpt>
      <trkpt lat="45.64455" lon="6.80234">
        <ele>1812.6</ele>
        <time>2021-03-27T14:16:49Z</time>
      </trkpt>
      <trkpt lat="45.64451" lon="6.8023">
        <ele>1812.1</ele>
        <time>2021-03-27T14:16:50Z</time>
      </trkpt>
      <trkpt lat="45.64449" lon="6.80226">
        <ele>1811.5</ele>
        <time>2021-03-27T14:16:51Z</time>
      </trkpt>
      <trkpt lat="45.64446" lon="6.80221">
        <ele>1810.9</ele>
        <time>2021-03-27T14:16:52Z</time>
      </trkpt>
      <trkpt lat="45.64443" lon="6.80217">
        <ele>1810.3</ele>
        <time>2021-03-27T14:16:53Z</time>
      </trkpt>
      <trkpt lat="45.64441" lon="6.80213">
        <ele>1810.4</ele>
        <time>2021-03-27T14:16:54Z</time>
      </trkpt>
      <trkpt lat="45.64439" lon="6.80209">
        <ele>1809.7</ele>
        <time>2021-03-27T14:16:55Z</time>
      </trkpt>
      <trkpt lat="45.64436" lon="6.80205">
        <ele>1809.1</ele>
        <time>2021-03-27T14:16:56Z</time>
      </trkpt>
      <trkpt lat="45.64434" lon="6.80201">
        <ele>1808.5</ele>
        <time>2021-03-27T14:16:57Z</time>
      </trkpt>
      <trkpt lat="45.64431" lon="6.80197">
        <ele>1807.9</ele>
        <time>2021-03-27T14:16:58Z</time>
      </trkpt>
      <trkpt lat="45.64429" lon="6.80194">
        <ele>1807.4</ele>
        <time>2021-03-27T14:16:59Z</time>
      </trkpt>
      <trkpt lat="45.64427" lon="6.80191">
        <ele>1807.5</ele>
        <time>2021-03-27T14:17:00Z</time>
      </trkpt>
      <trkpt lat="45.64424" lon="6.80186">
        <ele>1807</ele>
        <time>2021-03-27T14:17:01Z</time>
      </trkpt>
      <trkpt lat="45.64424" lon="6.80184">
        <ele>1807</ele>
        <time>2021-03-27T14:17:02Z</time>
      </trkpt>
      <trkpt lat="45.64422" lon="6.8018">
        <ele>1806.5</ele>
        <time>2021-03-27T14:17:03Z</time>
      </trkpt>
      <trkpt lat="45.64421" lon="6.80178">
        <ele>1806.7</ele>
        <time>2021-03-27T14:17:04Z</time>
      </trkpt>
      <trkpt lat="45.6442" lon="6.80174">
        <ele>1806.2</ele>
        <time>2021-03-27T14:17:05Z</time>
      </trkpt>
      <trkpt lat="45.64419" lon="6.80172">
        <ele>1806.3</ele>
        <time>2021-03-27T14:17:06Z</time>
      </trkpt>
      <trkpt lat="45.64417" lon="6.80167">
        <ele>1806.5</ele>
        <time>2021-03-27T14:17:07Z</time>
      </trkpt>
      <trkpt lat="45.64417" lon="6.80165">
        <ele>1806</ele>
        <time>2021-03-27T14:17:08Z</time>
      </trkpt>
      <trkpt lat="45.64415" lon="6.80161">
        <ele>1806.2</ele>
        <time>2021-03-27T14:17:09Z</time>
      </trkpt>
      <trkpt lat="45.64413" lon="6.80155">
        <ele>1805.8</ele>
        <time>2021-03-27T14:17:10Z</time>
      </trkpt>
      <trkpt lat="45.64412" lon="6.8015">
        <ele>1806.1</ele>
        <time>2021-03-27T14:17:11Z</time>
      </trkpt>
      <trkpt lat="45.64409" lon="6.80144">
        <ele>1805.8</ele>
        <time>2021-03-27T14:17:12Z</time>
      </trkpt>
      <trkpt lat="45.64407" lon="6.8014">
        <ele>1805.5</ele>
        <time>2021-03-27T14:17:13Z</time>
      </trkpt>
      <trkpt lat="45.64405" lon="6.80137">
        <ele>1805.7</ele>
        <time>2021-03-27T14:17:14Z</time>
      </trkpt>
      <trkpt lat="45.64403" lon="6.80134">
        <ele>1805.4</ele>
        <time>2021-03-27T14:17:15Z</time>
      </trkpt>
      <trkpt lat="45.64402" lon="6.80134">
        <ele>1804.8</ele>
        <time>2021-03-27T14:17:16Z</time>
      </trkpt>
      <trkpt lat="45.64399" lon="6.80132">
        <ele>1804.9</ele>
        <time>2021-03-27T14:17:17Z</time>
      </trkpt>
      <trkpt lat="45.64398" lon="6.80131">
        <ele>1804.3</ele>
        <time>2021-03-27T14:17:18Z</time>
      </trkpt>
      <trkpt lat="45.64395" lon="6.80129">
        <ele>1803.8</ele>
        <time>2021-03-27T14:17:19Z</time>
      </trkpt>
      <trkpt lat="45.64392" lon="6.80128">
        <ele>1803.2</ele>
        <time>2021-03-27T14:17:20Z</time>
      </trkpt>
      <trkpt lat="45.64389" lon="6.80126">
        <ele>1802.7</ele>
        <time>2021-03-27T14:17:21Z</time>
      </trkpt>
      <trkpt lat="45.64386" lon="6.80125">
        <ele>1802</ele>
        <time>2021-03-27T14:17:22Z</time>
      </trkpt>
      <trkpt lat="45.64382" lon="6.80125">
        <ele>1801.4</ele>
        <time>2021-03-27T14:17:23Z</time>
      </trkpt>
      <trkpt lat="45.64381" lon="6.80124">
        <ele>1801.4</ele>
        <time>2021-03-27T14:17:24Z</time>
      </trkpt>
      <trkpt lat="45.64377" lon="6.80124">
        <ele>1800.2</ele>
        <time>2021-03-27T14:17:25Z</time>
      </trkpt>
      <trkpt lat="45.64375" lon="6.80123">
        <ele>1800.2</ele>
        <time>2021-03-27T14:17:26Z</time>
      </trkpt>
      <trkpt lat="45.64372" lon="6.80122">
        <ele>1799.1</ele>
        <time>2021-03-27T14:17:27Z</time>
      </trkpt>
      <trkpt lat="45.64368" lon="6.8012">
        <ele>1798.5</ele>
        <time>2021-03-27T14:17:28Z</time>
      </trkpt>
      <trkpt lat="45.64365" lon="6.80117">
        <ele>1798.1</ele>
        <time>2021-03-27T14:17:29Z</time>
      </trkpt>
      <trkpt lat="45.64361" lon="6.80114">
        <ele>1797.4</ele>
        <time>2021-03-27T14:17:30Z</time>
      </trkpt>
      <trkpt lat="45.64358" lon="6.8011">
        <ele>1796.9</ele>
        <time>2021-03-27T14:17:31Z</time>
      </trkpt>
      <trkpt lat="45.64354" lon="6.80106">
        <ele>1796.5</ele>
        <time>2021-03-27T14:17:32Z</time>
      </trkpt>
      <trkpt lat="45.64351" lon="6.80102">
        <ele>1795.3</ele>
        <time>2021-03-27T14:17:33Z</time>
      </trkpt>
      <trkpt lat="45.64347" lon="6.80097">
        <ele>1794.9</ele>
        <time>2021-03-27T14:17:34Z</time>
      </trkpt>
      <trkpt lat="45.64344" lon="6.80093">
        <ele>1794.4</ele>
        <time>2021-03-27T14:17:35Z</time>
      </trkpt>
      <trkpt lat="45.64341" lon="6.8009">
        <ele>1793.9</ele>
        <time>2021-03-27T14:17:36Z</time>
      </trkpt>
      <trkpt lat="45.64339" lon="6.80086">
        <ele>1793.2</ele>
        <time>2021-03-27T14:17:37Z</time>
      </trkpt>
      <trkpt lat="45.64336" lon="6.80083">
        <ele>1793.4</ele>
        <time>2021-03-27T14:17:38Z</time>
      </trkpt>
      <trkpt lat="45.64333" lon="6.80081">
        <ele>1792.5</ele>
        <time>2021-03-27T14:17:39Z</time>
      </trkpt>
      <trkpt lat="45.6433" lon="6.80078">
        <ele>1791.8</ele>
        <time>2021-03-27T14:17:40Z</time>
      </trkpt>
      <trkpt lat="45.64329" lon="6.80076">
        <ele>1791</ele>
        <time>2021-03-27T14:17:41Z</time>
      </trkpt>
      <trkpt lat="45.64327" lon="6.80074">
        <ele>1791.2</ele>
        <time>2021-03-27T14:17:42Z</time>
      </trkpt>
      <trkpt lat="45.64325" lon="6.8007">
        <ele>1790.6</ele>
        <time>2021-03-27T14:17:43Z</time>
      </trkpt>
      <trkpt lat="45.64322" lon="6.80067">
        <ele>1789.9</ele>
        <time>2021-03-27T14:17:44Z</time>
      </trkpt>
      <trkpt lat="45.64321" lon="6.80065">
        <ele>1790.1</ele>
        <time>2021-03-27T14:17:45Z</time>
      </trkpt>
      <trkpt lat="45.64319" lon="6.80063">
        <ele>1789.4</ele>
        <time>2021-03-27T14:17:46Z</time>
      </trkpt>
      <trkpt lat="45.64318" lon="6.80062">
        <ele>1789.6</ele>
        <time>2021-03-27T14:17:47Z</time>
      </trkpt>
      <trkpt lat="45.64316" lon="6.80059">
        <ele>1788.9</ele>
        <time>2021-03-27T14:17:48Z</time>
      </trkpt>
      <trkpt lat="45.64315" lon="6.80058">
        <ele>1789.1</ele>
        <time>2021-03-27T14:17:49Z</time>
      </trkpt>
      <trkpt lat="45.64312" lon="6.80054">
        <ele>1788.3</ele>
        <time>2021-03-27T14:17:50Z</time>
      </trkpt>
      <trkpt lat="45.64311" lon="6.80053">
        <ele>1787.7</ele>
        <time>2021-03-27T14:17:51Z</time>
      </trkpt>
      <trkpt lat="45.64309" lon="6.80052">
        <ele>1787.8</ele>
        <time>2021-03-27T14:17:52Z</time>
      </trkpt>
      <trkpt lat="45.64306" lon="6.80051">
        <ele>1786.8</ele>
        <time>2021-03-27T14:17:53Z</time>
      </trkpt>
      <trkpt lat="45.64303" lon="6.8005">
        <ele>1784.9</ele>
        <time>2021-03-27T14:17:54Z</time>
      </trkpt>
      <trkpt lat="45.64302" lon="6.8005">
        <ele>1784.9</ele>
        <time>2021-03-27T14:17:55Z</time>
      </trkpt>
      <trkpt lat="45.64299" lon="6.80051">
        <ele>1784</ele>
        <time>2021-03-27T14:17:56Z</time>
      </trkpt>
      <trkpt lat="45.64299" lon="6.80051">
        <ele>1784</ele>
        <time>2021-03-27T14:17:57Z</time>
      </trkpt>
      <trkpt lat="45.64298" lon="6.80051">
        <ele>1784.1</ele>
        <time>2021-03-27T14:17:58Z</time>
      </trkpt>
      <trkpt lat="45.64295" lon="6.80049">
        <ele>1783.4</ele>
        <time>2021-03-27T14:17:59Z</time>
      </trkpt>
      <trkpt lat="45.64293" lon="6.80048">
        <ele>1782.5</ele>
        <time>2021-03-27T14:18:00Z</time>
      </trkpt>
      <trkpt lat="45.6429" lon="6.80047">
        <ele>1781.7</ele>
        <time>2021-03-27T14:18:01Z</time>
      </trkpt>
      <trkpt lat="45.64286" lon="6.80046">
        <ele>1780.8</ele>
        <time>2021-03-27T14:18:02Z</time>
      </trkpt>
      <trkpt lat="45.64279" lon="6.80042">
        <ele>1779.3</ele>
        <time>2021-03-27T14:18:03Z</time>
      </trkpt>
      <trkpt lat="45.64275" lon="6.80035">
        <ele>1777.9</ele>
        <time>2021-03-27T14:18:04Z</time>
      </trkpt>
      <trkpt lat="45.64272" lon="6.80028">
        <ele>1777.6</ele>
        <time>2021-03-27T14:18:05Z</time>
      </trkpt>
      <trkpt lat="45.64268" lon="6.80021">
        <ele>1777</ele>
        <time>2021-03-27T14:18:06Z</time>
      </trkpt>
      <trkpt lat="45.64264" lon="6.80016">
        <ele>1776.5</ele>
        <time>2021-03-27T14:18:07Z</time>
      </trkpt>
      <trkpt lat="45.6426" lon="6.80018">
        <ele>1775.1</ele>
        <time>2021-03-27T14:18:08Z</time>
      </trkpt>
      <trkpt lat="45.64257" lon="6.80015">
        <ele>1774.4</ele>
        <time>2021-03-27T14:18:09Z</time>
      </trkpt>
      <trkpt lat="45.64255" lon="6.80013">
        <ele>1773.8</ele>
        <time>2021-03-27T14:18:10Z</time>
      </trkpt>
      <trkpt lat="45.64252" lon="6.80011">
        <ele>1773.8</ele>
        <time>2021-03-27T14:18:11Z</time>
      </trkpt>
      <trkpt lat="45.6425" lon="6.80009">
        <ele>1773.2</ele>
        <time>2021-03-27T14:18:12Z</time>
      </trkpt>
      <trkpt lat="45.6425" lon="6.80009">
        <ele>1773.2</ele>
        <time>2021-03-27T14:18:13Z</time>
      </trkpt>
      <trkpt lat="45.64249" lon="6.80008">
        <ele>1772.3</ele>
        <time>2021-03-27T14:18:14Z</time>
      </trkpt>
      <trkpt lat="45.64249" lon="6.80009">
        <ele>1772.4</ele>
        <time>2021-03-27T14:18:15Z</time>
      </trkpt>
      <trkpt lat="45.64248" lon="6.80007">
        <ele>1772.4</ele>
        <time>2021-03-27T14:18:16Z</time>
      </trkpt>
      <trkpt lat="45.64248" lon="6.80006">
        <ele>1772.7</ele>
        <time>2021-03-27T14:18:17Z</time>
      </trkpt>
      <trkpt lat="45.64248" lon="6.80005">
        <ele>1772.7</ele>
        <time>2021-03-27T14:18:18Z</time>
      </trkpt>
      <trkpt lat="45.64247" lon="6.80004">
        <ele>1772.7</ele>
        <time>2021-03-27T14:18:19Z</time>
      </trkpt>
      <trkpt lat="45.64247" lon="6.80003">
        <ele>1772.8</ele>
        <time>2021-03-27T14:18:20Z</time>
      </trkpt>
      <trkpt lat="45.64246" lon="6.80001">
        <ele>1773</ele>
        <time>2021-03-27T14:18:21Z</time>
      </trkpt>
      <trkpt lat="45.64244" lon="6.8">
        <ele>1772.2</ele>
        <time>2021-03-27T14:18:22Z</time>
      </trkpt>
      <trkpt lat="45.64243" lon="6.79999">
        <ele>1772.3</ele>
        <time>2021-03-27T14:18:23Z</time>
      </trkpt>
      <trkpt lat="45.64243" lon="6.79999">
        <ele>1771.6</ele>
        <time>2021-03-27T14:18:24Z</time>
      </trkpt>
      <trkpt lat="45.64242" lon="6.79998">
        <ele>1771.6</ele>
        <time>2021-03-27T14:18:25Z</time>
      </trkpt>
      <trkpt lat="45.64241" lon="6.79997">
        <ele>1771.9</ele>
        <time>2021-03-27T14:18:26Z</time>
      </trkpt>
      <trkpt lat="45.6424" lon="6.79997">
        <ele>1771.9</ele>
        <time>2021-03-27T14:18:27Z</time>
      </trkpt>
      <trkpt lat="45.64239" lon="6.79996">
        <ele>1771.3</ele>
        <time>2021-03-27T14:18:28Z</time>
      </trkpt>
      <trkpt lat="45.64238" lon="6.79995">
        <ele>1771.3</ele>
        <time>2021-03-27T14:18:29Z</time>
      </trkpt>
      <trkpt lat="45.64237" lon="6.79994">
        <ele>1771.4</ele>
        <time>2021-03-27T14:18:30Z</time>
      </trkpt>
      <trkpt lat="45.64236" lon="6.79993">
        <ele>1771.1</ele>
        <time>2021-03-27T14:18:31Z</time>
      </trkpt>
      <trkpt lat="45.64235" lon="6.79992">
        <ele>1771.1</ele>
        <time>2021-03-27T14:18:32Z</time>
      </trkpt>
      <trkpt lat="45.64232" lon="6.7999">
        <ele>1770.6</ele>
        <time>2021-03-27T14:18:33Z</time>
      </trkpt>
      <trkpt lat="45.64231" lon="6.7999">
        <ele>1770.6</ele>
        <time>2021-03-27T14:18:34Z</time>
      </trkpt>
      <trkpt lat="45.64228" lon="6.79988">
        <ele>1770.3</ele>
        <time>2021-03-27T14:18:35Z</time>
      </trkpt>
      <trkpt lat="45.64227" lon="6.79987">
        <ele>1769.7</ele>
        <time>2021-03-27T14:18:36Z</time>
      </trkpt>
      <trkpt lat="45.64225" lon="6.79985">
        <ele>1769.7</ele>
        <time>2021-03-27T14:18:37Z</time>
      </trkpt>
      <trkpt lat="45.64224" lon="6.79985">
        <ele>1769.4</ele>
        <time>2021-03-27T14:18:38Z</time>
      </trkpt>
      <trkpt lat="45.64223" lon="6.79984">
        <ele>1769.4</ele>
        <time>2021-03-27T14:18:39Z</time>
      </trkpt>
      <trkpt lat="45.64222" lon="6.79983">
        <ele>1769.4</ele>
        <time>2021-03-27T14:18:40Z</time>
      </trkpt>
      <trkpt lat="45.64222" lon="6.79982">
        <ele>1769.5</ele>
        <time>2021-03-27T14:18:41Z</time>
      </trkpt>
      <trkpt lat="45.64221" lon="6.79982">
        <ele>1768.9</ele>
        <time>2021-03-27T14:18:42Z</time>
      </trkpt>
      <trkpt lat="45.6422" lon="6.79981">
        <ele>1768.9</ele>
        <time>2021-03-27T14:18:43Z</time>
      </trkpt>
      <trkpt lat="45.64219" lon="6.79981">
        <ele>1769.2</ele>
        <time>2021-03-27T14:18:44Z</time>
      </trkpt>
      <trkpt lat="45.64219" lon="6.7998">
        <ele>1768.7</ele>
        <time>2021-03-27T14:18:45Z</time>
      </trkpt>
      <trkpt lat="45.64218" lon="6.79979">
        <ele>1768.7</ele>
        <time>2021-03-27T14:18:46Z</time>
      </trkpt>
      <trkpt lat="45.64218" lon="6.79979">
        <ele>1768.7</ele>
        <time>2021-03-27T14:18:47Z</time>
      </trkpt>
      <trkpt lat="45.64218" lon="6.79979">
        <ele>1768.7</ele>
        <time>2021-03-27T14:18:48Z</time>
      </trkpt>
      <trkpt lat="45.64217" lon="6.79978">
        <ele>1768.8</ele>
        <time>2021-03-27T14:18:49Z</time>
      </trkpt>
      <trkpt lat="45.64217" lon="6.79978">
        <ele>1768.8</ele>
        <time>2021-03-27T14:18:50Z</time>
      </trkpt>
      <trkpt lat="45.64217" lon="6.79978">
        <ele>1768.8</ele>
        <time>2021-03-27T14:18:51Z</time>
      </trkpt>
      <trkpt lat="45.64217" lon="6.79978">
        <ele>1768.8</ele>
        <time>2021-03-27T14:18:52Z</time>
      </trkpt>
      <trkpt lat="45.64216" lon="6.79977">
        <ele>1768.4</ele>
        <time>2021-03-27T14:18:53Z</time>
      </trkpt>
      <trkpt lat="45.64215" lon="6.79977">
        <ele>1768.4</ele>
        <time>2021-03-27T14:18:54Z</time>
      </trkpt>
      <trkpt lat="45.64214" lon="6.79977">
        <ele>1768.4</ele>
        <time>2021-03-27T14:18:55Z</time>
      </trkpt>
      <trkpt lat="45.64214" lon="6.79976">
        <ele>1768.7</ele>
        <time>2021-03-27T14:18:56Z</time>
      </trkpt>
      <trkpt lat="45.64213" lon="6.79976">
        <ele>1768.7</ele>
        <time>2021-03-27T14:18:57Z</time>
      </trkpt>
      <trkpt lat="45.64212" lon="6.79976">
        <ele>1768.2</ele>
        <time>2021-03-27T14:18:58Z</time>
      </trkpt>
      <trkpt lat="45.64212" lon="6.79975">
        <ele>1768.3</ele>
        <time>2021-03-27T14:18:59Z</time>
      </trkpt>
      <trkpt lat="45.64212" lon="6.79975">
        <ele>1768.3</ele>
        <time>2021-03-27T14:19:00Z</time>
      </trkpt>
      <trkpt lat="45.64211" lon="6.79975">
        <ele>1768.3</ele>
        <time>2021-03-27T14:19:01Z</time>
      </trkpt>
      <trkpt lat="45.64211" lon="6.79975">
        <ele>1768.4</ele>
        <time>2021-03-27T14:19:02Z</time>
      </trkpt>
      <trkpt lat="45.6421" lon="6.79975">
        <ele>1768.4</ele>
        <time>2021-03-27T14:19:03Z</time>
      </trkpt>
      <trkpt lat="45.6421" lon="6.79975">
        <ele>1768.4</ele>
        <time>2021-03-27T14:19:04Z</time>
      </trkpt>
      <trkpt lat="45.6421" lon="6.79975">
        <ele>1768.4</ele>
        <time>2021-03-27T14:19:05Z</time>
      </trkpt>
      <trkpt lat="45.64209" lon="6.79975">
        <ele>1767.9</ele>
        <time>2021-03-27T14:19:06Z</time>
      </trkpt>
      <trkpt lat="45.64209" lon="6.79975">
        <ele>1768</ele>
        <time>2021-03-27T14:19:07Z</time>
      </trkpt>
      <trkpt lat="45.64208" lon="6.79974">
        <ele>1768</ele>
        <time>2021-03-27T14:19:08Z</time>
      </trkpt>
      <trkpt lat="45.64207" lon="6.79974">
        <ele>1767.5</ele>
        <time>2021-03-27T14:19:09Z</time>
      </trkpt>
      <trkpt lat="45.64206" lon="6.79973">
        <ele>1767.5</ele>
        <time>2021-03-27T14:19:10Z</time>
      </trkpt>
      <trkpt lat="45.64205" lon="6.79972">
        <ele>1767.8</ele>
        <time>2021-03-27T14:19:11Z</time>
      </trkpt>
      <trkpt lat="45.64203" lon="6.79971">
        <ele>1767.2</ele>
        <time>2021-03-27T14:19:12Z</time>
      </trkpt>
      <trkpt lat="45.64201" lon="6.79973">
        <ele>1766.9</ele>
        <time>2021-03-27T14:19:13Z</time>
      </trkpt>
      <trkpt lat="45.64199" lon="6.79976">
        <ele>1766.3</ele>
        <time>2021-03-27T14:19:14Z</time>
      </trkpt>
      <trkpt lat="45.64199" lon="6.79977">
        <ele>1766.1</ele>
        <time>2021-03-27T14:19:15Z</time>
      </trkpt>
      <trkpt lat="45.64198" lon="6.79983">
        <ele>1765.9</ele>
        <time>2021-03-27T14:19:16Z</time>
      </trkpt>
      <trkpt lat="45.64197" lon="6.79985">
        <ele>1764.9</ele>
        <time>2021-03-27T14:19:17Z</time>
      </trkpt>
      <trkpt lat="45.64197" lon="6.79989">
        <ele>1764.9</ele>
        <time>2021-03-27T14:19:18Z</time>
      </trkpt>
      <trkpt lat="45.64196" lon="6.79994">
        <ele>1764.6</ele>
        <time>2021-03-27T14:19:19Z</time>
      </trkpt>
      <trkpt lat="45.64195" lon="6.79999">
        <ele>1763.1</ele>
        <time>2021-03-27T14:19:20Z</time>
      </trkpt>
      <trkpt lat="45.64194" lon="6.80004">
        <ele>1762.7</ele>
        <time>2021-03-27T14:19:21Z</time>
      </trkpt>
      <trkpt lat="45.64194" lon="6.80008">
        <ele>1762.2</ele>
        <time>2021-03-27T14:19:22Z</time>
      </trkpt>
      <trkpt lat="45.64193" lon="6.80014">
        <ele>1761.8</ele>
        <time>2021-03-27T14:19:23Z</time>
      </trkpt>
      <trkpt lat="45.64193" lon="6.80019">
        <ele>1760.9</ele>
        <time>2021-03-27T14:19:24Z</time>
      </trkpt>
      <trkpt lat="45.64193" lon="6.80026">
        <ele>1760.5</ele>
        <time>2021-03-27T14:19:25Z</time>
      </trkpt>
      <trkpt lat="45.64192" lon="6.80031">
        <ele>1760.1</ele>
        <time>2021-03-27T14:19:26Z</time>
      </trkpt>
      <trkpt lat="45.64193" lon="6.80036">
        <ele>1759.7</ele>
        <time>2021-03-27T14:19:27Z</time>
      </trkpt>
      <trkpt lat="45.64193" lon="6.80037">
        <ele>1759.3</ele>
        <time>2021-03-27T14:19:28Z</time>
      </trkpt>
      <trkpt lat="45.6419" lon="6.80036">
        <ele>1758.9</ele>
        <time>2021-03-27T14:19:29Z</time>
      </trkpt>
      <trkpt lat="45.64188" lon="6.80035">
        <ele>1758.1</ele>
        <time>2021-03-27T14:19:30Z</time>
      </trkpt>
      <trkpt lat="45.64186" lon="6.80032">
        <ele>1757.7</ele>
        <time>2021-03-27T14:19:31Z</time>
      </trkpt>
      <trkpt lat="45.64183" lon="6.80027">
        <ele>1757.4</ele>
        <time>2021-03-27T14:19:32Z</time>
      </trkpt>
      <trkpt lat="45.64179" lon="6.80023">
        <ele>1757.1</ele>
        <time>2021-03-27T14:19:33Z</time>
      </trkpt>
      <trkpt lat="45.64177" lon="6.80019">
        <ele>1756.8</ele>
        <time>2021-03-27T14:19:34Z</time>
      </trkpt>
      <trkpt lat="45.64174" lon="6.80016">
        <ele>1756.8</ele>
        <time>2021-03-27T14:19:35Z</time>
      </trkpt>
      <trkpt lat="45.64172" lon="6.80012">
        <ele>1756.5</ele>
        <time>2021-03-27T14:19:36Z</time>
      </trkpt>
      <trkpt lat="45.6417" lon="6.80009">
        <ele>1756.2</ele>
        <time>2021-03-27T14:19:37Z</time>
      </trkpt>
      <trkpt lat="45.64168" lon="6.80006">
        <ele>1756.8</ele>
        <time>2021-03-27T14:19:38Z</time>
      </trkpt>
      <trkpt lat="45.64166" lon="6.80003">
        <ele>1755.8</ele>
        <time>2021-03-27T14:19:39Z</time>
      </trkpt>
      <trkpt lat="45.64163" lon="6.8">
        <ele>1755.4</ele>
        <time>2021-03-27T14:19:40Z</time>
      </trkpt>
      <trkpt lat="45.64161" lon="6.79997">
        <ele>1755</ele>
        <time>2021-03-27T14:19:41Z</time>
      </trkpt>
      <trkpt lat="45.64159" lon="6.79994">
        <ele>1755.5</ele>
        <time>2021-03-27T14:19:42Z</time>
      </trkpt>
      <trkpt lat="45.64158" lon="6.7999">
        <ele>1754.6</ele>
        <time>2021-03-27T14:19:43Z</time>
      </trkpt>
      <trkpt lat="45.64157" lon="6.79985">
        <ele>1755.1</ele>
        <time>2021-03-27T14:19:44Z</time>
      </trkpt>
      <trkpt lat="45.64156" lon="6.79984">
        <ele>1755.6</ele>
        <time>2021-03-27T14:19:45Z</time>
      </trkpt>
      <trkpt lat="45.64152" lon="6.79982">
        <ele>1753.9</ele>
        <time>2021-03-27T14:19:46Z</time>
      </trkpt>
      <trkpt lat="45.6415" lon="6.79982">
        <ele>1753.9</ele>
        <time>2021-03-27T14:19:47Z</time>
      </trkpt>
      <trkpt lat="45.64147" lon="6.79979">
        <ele>1753.5</ele>
        <time>2021-03-27T14:19:48Z</time>
      </trkpt>
      <trkpt lat="45.64145" lon="6.79977">
        <ele>1752.5</ele>
        <time>2021-03-27T14:19:49Z</time>
      </trkpt>
      <trkpt lat="45.64142" lon="6.79975">
        <ele>1751.9</ele>
        <time>2021-03-27T14:19:50Z</time>
      </trkpt>
      <trkpt lat="45.64139" lon="6.79973">
        <ele>1750.8</ele>
        <time>2021-03-27T14:19:51Z</time>
      </trkpt>
      <trkpt lat="45.64135" lon="6.79971">
        <ele>1749.1</ele>
        <time>2021-03-27T14:19:52Z</time>
      </trkpt>
      <trkpt lat="45.64131" lon="6.7997">
        <ele>1748.1</ele>
        <time>2021-03-27T14:19:53Z</time>
      </trkpt>
      <trkpt lat="45.64129" lon="6.79968">
        <ele>1747.6</ele>
        <time>2021-03-27T14:19:54Z</time>
      </trkpt>
      <trkpt lat="45.64126" lon="6.79964">
        <ele>1746.7</ele>
        <time>2021-03-27T14:19:55Z</time>
      </trkpt>
      <trkpt lat="45.64125" lon="6.79963">
        <ele>1747.2</ele>
        <time>2021-03-27T14:19:56Z</time>
      </trkpt>
      <trkpt lat="45.64122" lon="6.79961">
        <ele>1746.2</ele>
        <time>2021-03-27T14:19:57Z</time>
      </trkpt>
      <trkpt lat="45.64121" lon="6.7996">
        <ele>1746.2</ele>
        <time>2021-03-27T14:19:58Z</time>
      </trkpt>
      <trkpt lat="45.64121" lon="6.7996">
        <ele>1746.2</ele>
        <time>2021-03-27T14:19:59Z</time>
      </trkpt>
      <trkpt lat="45.64121" lon="6.7996">
        <ele>1746.3</ele>
        <time>2021-03-27T14:20:00Z</time>
      </trkpt>
      <trkpt lat="45.64121" lon="6.7996">
        <ele>1746.3</ele>
        <time>2021-03-27T14:20:01Z</time>
      </trkpt>
      <trkpt lat="45.64121" lon="6.7996">
        <ele>1746.3</ele>
        <time>2021-03-27T14:20:02Z</time>
      </trkpt>
      <trkpt lat="45.64119" lon="6.7996">
        <ele>1745.2</ele>
        <time>2021-03-27T14:20:03Z</time>
      </trkpt>
      <trkpt lat="45.64118" lon="6.79959">
        <ele>1745.7</ele>
        <time>2021-03-27T14:20:04Z</time>
      </trkpt>
      <trkpt lat="45.64116" lon="6.79958">
        <ele>1744.6</ele>
        <time>2021-03-27T14:20:05Z</time>
      </trkpt>
      <trkpt lat="45.64116" lon="6.79958">
        <ele>1744.6</ele>
        <time>2021-03-27T14:20:06Z</time>
      </trkpt>
      <trkpt lat="45.64115" lon="6.79959">
        <ele>1744.6</ele>
        <time>2021-03-27T14:20:07Z</time>
      </trkpt>
      <trkpt lat="45.64115" lon="6.79959">
        <ele>1744.1</ele>
        <time>2021-03-27T14:20:08Z</time>
      </trkpt>
      <trkpt lat="45.64114" lon="6.79961">
        <ele>1744.1</ele>
        <time>2021-03-27T14:20:09Z</time>
      </trkpt>
      <trkpt lat="45.64114" lon="6.79961">
        <ele>1744.2</ele>
        <time>2021-03-27T14:20:10Z</time>
      </trkpt>
      <trkpt lat="45.64112" lon="6.79962">
        <ele>1743</ele>
        <time>2021-03-27T14:20:11Z</time>
      </trkpt>
      <trkpt lat="45.64111" lon="6.79962">
        <ele>1743</ele>
        <time>2021-03-27T14:20:12Z</time>
      </trkpt>
      <trkpt lat="45.6411" lon="6.79963">
        <ele>1741.8</ele>
        <time>2021-03-27T14:20:13Z</time>
      </trkpt>
      <trkpt lat="45.64109" lon="6.79963">
        <ele>1741.8</ele>
        <time>2021-03-27T14:20:14Z</time>
      </trkpt>
      <trkpt lat="45.64108" lon="6.79964">
        <ele>1741.3</ele>
        <time>2021-03-27T14:20:15Z</time>
      </trkpt>
      <trkpt lat="45.64108" lon="6.79965">
        <ele>1740</ele>
        <time>2021-03-27T14:20:16Z</time>
      </trkpt>
      <trkpt lat="45.64105" lon="6.79969">
        <ele>1738.3</ele>
        <time>2021-03-27T14:20:17Z</time>
      </trkpt>
      <trkpt lat="45.64104" lon="6.7997">
        <ele>1738.3</ele>
        <time>2021-03-27T14:20:18Z</time>
      </trkpt>
      <trkpt lat="45.641" lon="6.79971">
        <ele>1737.2</ele>
        <time>2021-03-27T14:20:19Z</time>
      </trkpt>
      <trkpt lat="45.64098" lon="6.7997">
        <ele>1736.1</ele>
        <time>2021-03-27T14:20:20Z</time>
      </trkpt>
      <trkpt lat="45.64095" lon="6.79968">
        <ele>1735.5</ele>
        <time>2021-03-27T14:20:21Z</time>
      </trkpt>
      <trkpt lat="45.64093" lon="6.79964">
        <ele>1734.4</ele>
        <time>2021-03-27T14:20:22Z</time>
      </trkpt>
      <trkpt lat="45.64091" lon="6.79959">
        <ele>1735.4</ele>
        <time>2021-03-27T14:20:23Z</time>
      </trkpt>
      <trkpt lat="45.64091" lon="6.79957">
        <ele>1735.5</ele>
        <time>2021-03-27T14:20:24Z</time>
      </trkpt>
      <trkpt lat="45.64091" lon="6.79952">
        <ele>1736</ele>
        <time>2021-03-27T14:20:25Z</time>
      </trkpt>
      <trkpt lat="45.6409" lon="6.7995">
        <ele>1736.6</ele>
        <time>2021-03-27T14:20:26Z</time>
      </trkpt>
      <trkpt lat="45.64089" lon="6.79947">
        <ele>1735.4</ele>
        <time>2021-03-27T14:20:27Z</time>
      </trkpt>
      <trkpt lat="45.64088" lon="6.79946">
        <ele>1736</ele>
        <time>2021-03-27T14:20:28Z</time>
      </trkpt>
      <trkpt lat="45.64087" lon="6.79942">
        <ele>1735.2</ele>
        <time>2021-03-27T14:20:29Z</time>
      </trkpt>
      <trkpt lat="45.64086" lon="6.7994">
        <ele>1735.2</ele>
        <time>2021-03-27T14:20:30Z</time>
      </trkpt>
      <trkpt lat="45.64086" lon="6.79938">
        <ele>1735.2</ele>
        <time>2021-03-27T14:20:31Z</time>
      </trkpt>
      <trkpt lat="45.64085" lon="6.79936">
        <ele>1735.7</ele>
        <time>2021-03-27T14:20:32Z</time>
      </trkpt>
      <trkpt lat="45.64084" lon="6.79934">
        <ele>1735.7</ele>
        <time>2021-03-27T14:20:33Z</time>
      </trkpt>
      <trkpt lat="45.64083" lon="6.79934">
        <ele>1734.3</ele>
        <time>2021-03-27T14:20:34Z</time>
      </trkpt>
      <trkpt lat="45.64083" lon="6.79933">
        <ele>1734.8</ele>
        <time>2021-03-27T14:20:35Z</time>
      </trkpt>
      <trkpt lat="45.64082" lon="6.79933">
        <ele>1734.8</ele>
        <time>2021-03-27T14:20:36Z</time>
      </trkpt>
      <trkpt lat="45.64079" lon="6.7993">
        <ele>1733.4</ele>
        <time>2021-03-27T14:20:37Z</time>
      </trkpt>
      <trkpt lat="45.64078" lon="6.79929">
        <ele>1732.4</ele>
        <time>2021-03-27T14:20:38Z</time>
      </trkpt>
      <trkpt lat="45.64075" lon="6.79926">
        <ele>1732.4</ele>
        <time>2021-03-27T14:20:39Z</time>
      </trkpt>
      <trkpt lat="45.64072" lon="6.79924">
        <ele>1731.5</ele>
        <time>2021-03-27T14:20:40Z</time>
      </trkpt>
      <trkpt lat="45.64068" lon="6.79922">
        <ele>1729.1</ele>
        <time>2021-03-27T14:20:41Z</time>
      </trkpt>
      <trkpt lat="45.64067" lon="6.79922">
        <ele>1729.2</ele>
        <time>2021-03-27T14:20:42Z</time>
      </trkpt>
      <trkpt lat="45.64064" lon="6.79921">
        <ele>1727.9</ele>
        <time>2021-03-27T14:20:43Z</time>
      </trkpt>
      <trkpt lat="45.64062" lon="6.79921">
        <ele>1726.6</ele>
        <time>2021-03-27T14:20:44Z</time>
      </trkpt>
      <trkpt lat="45.6406" lon="6.7992">
        <ele>1725.5</ele>
        <time>2021-03-27T14:20:45Z</time>
      </trkpt>
      <trkpt lat="45.64057" lon="6.79917">
        <ele>1724</ele>
        <time>2021-03-27T14:20:46Z</time>
      </trkpt>
      <trkpt lat="45.64054" lon="6.79913">
        <ele>1724.5</ele>
        <time>2021-03-27T14:20:47Z</time>
      </trkpt>
      <trkpt lat="45.64052" lon="6.79908">
        <ele>1723.9</ele>
        <time>2021-03-27T14:20:48Z</time>
      </trkpt>
      <trkpt lat="45.6405" lon="6.79901">
        <ele>1722.9</ele>
        <time>2021-03-27T14:20:49Z</time>
      </trkpt>
      <trkpt lat="45.64048" lon="6.79895">
        <ele>1723.3</ele>
        <time>2021-03-27T14:20:50Z</time>
      </trkpt>
      <trkpt lat="45.64046" lon="6.7989">
        <ele>1722.7</ele>
        <time>2021-03-27T14:20:51Z</time>
      </trkpt>
      <trkpt lat="45.64045" lon="6.79886">
        <ele>1721.8</ele>
        <time>2021-03-27T14:20:52Z</time>
      </trkpt>
      <trkpt lat="45.64043" lon="6.79882">
        <ele>1722.2</ele>
        <time>2021-03-27T14:20:53Z</time>
      </trkpt>
      <trkpt lat="45.64041" lon="6.79877">
        <ele>1721.2</ele>
        <time>2021-03-27T14:20:54Z</time>
      </trkpt>
      <trkpt lat="45.64039" lon="6.79872">
        <ele>1721.5</ele>
        <time>2021-03-27T14:20:55Z</time>
      </trkpt>
      <trkpt lat="45.64039" lon="6.79867">
        <ele>1720.4</ele>
        <time>2021-03-27T14:20:56Z</time>
      </trkpt>
      <trkpt lat="45.64038" lon="6.79862">
        <ele>1720.8</ele>
        <time>2021-03-27T14:20:57Z</time>
      </trkpt>
      <trkpt lat="45.64037" lon="6.79858">
        <ele>1721.1</ele>
        <time>2021-03-27T14:20:58Z</time>
      </trkpt>
      <trkpt lat="45.64036" lon="6.79852">
        <ele>1721.4</ele>
        <time>2021-03-27T14:20:59Z</time>
      </trkpt>
      <trkpt lat="45.64036" lon="6.7985">
        <ele>1721.7</ele>
        <time>2021-03-27T14:21:00Z</time>
      </trkpt>
      <trkpt lat="45.64034" lon="6.79845">
        <ele>1720.5</ele>
        <time>2021-03-27T14:21:01Z</time>
      </trkpt>
      <trkpt lat="45.64034" lon="6.79843">
        <ele>1720.8</ele>
        <time>2021-03-27T14:21:02Z</time>
      </trkpt>
      <trkpt lat="45.64032" lon="6.7984">
        <ele>1719.3</ele>
        <time>2021-03-27T14:21:03Z</time>
      </trkpt>
      <trkpt lat="45.6403" lon="6.79836">
        <ele>1718</ele>
        <time>2021-03-27T14:21:04Z</time>
      </trkpt>
      <trkpt lat="45.64027" lon="6.79831">
        <ele>1716.7</ele>
        <time>2021-03-27T14:21:05Z</time>
      </trkpt>
      <trkpt lat="45.64023" lon="6.79827">
        <ele>1715.3</ele>
        <time>2021-03-27T14:21:06Z</time>
      </trkpt>
      <trkpt lat="45.6402" lon="6.79822">
        <ele>1713.9</ele>
        <time>2021-03-27T14:21:07Z</time>
      </trkpt>
      <trkpt lat="45.64017" lon="6.79818">
        <ele>1712.5</ele>
        <time>2021-03-27T14:21:08Z</time>
      </trkpt>
      <trkpt lat="45.64015" lon="6.79813">
        <ele>1712.7</ele>
        <time>2021-03-27T14:21:09Z</time>
      </trkpt>
      <trkpt lat="45.64013" lon="6.79808">
        <ele>1711.4</ele>
        <time>2021-03-27T14:21:10Z</time>
      </trkpt>
      <trkpt lat="45.64011" lon="6.79803">
        <ele>1709.9</ele>
        <time>2021-03-27T14:21:11Z</time>
      </trkpt>
      <trkpt lat="45.64009" lon="6.79796">
        <ele>1710.2</ele>
        <time>2021-03-27T14:21:12Z</time>
      </trkpt>
      <trkpt lat="45.64008" lon="6.79791">
        <ele>1708.8</ele>
        <time>2021-03-27T14:21:13Z</time>
      </trkpt>
      <trkpt lat="45.64006" lon="6.79788">
        <ele>1707.2</ele>
        <time>2021-03-27T14:21:14Z</time>
      </trkpt>
      <trkpt lat="45.64006" lon="6.79784">
        <ele>1709</ele>
        <time>2021-03-27T14:21:15Z</time>
      </trkpt>
      <trkpt lat="45.64005" lon="6.79779">
        <ele>1707.6</ele>
        <time>2021-03-27T14:21:16Z</time>
      </trkpt>
      <trkpt lat="45.64005" lon="6.79775">
        <ele>1707.8</ele>
        <time>2021-03-27T14:21:17Z</time>
      </trkpt>
      <trkpt lat="45.64002" lon="6.79772">
        <ele>1706.2</ele>
        <time>2021-03-27T14:21:18Z</time>
      </trkpt>
      <trkpt lat="45.64001" lon="6.79767">
        <ele>1706.4</ele>
        <time>2021-03-27T14:21:19Z</time>
      </trkpt>
      <trkpt lat="45.63998" lon="6.79761">
        <ele>1704.9</ele>
        <time>2021-03-27T14:21:20Z</time>
      </trkpt>
      <trkpt lat="45.63997" lon="6.79753">
        <ele>1705.1</ele>
        <time>2021-03-27T14:21:21Z</time>
      </trkpt>
      <trkpt lat="45.63993" lon="6.79747">
        <ele>1701.7</ele>
        <time>2021-03-27T14:21:22Z</time>
      </trkpt>
      <trkpt lat="45.63991" lon="6.7974">
        <ele>1702</ele>
        <time>2021-03-27T14:21:23Z</time>
      </trkpt>
      <trkpt lat="45.63989" lon="6.79733">
        <ele>1700.5</ele>
        <time>2021-03-27T14:21:24Z</time>
      </trkpt>
      <trkpt lat="45.63988" lon="6.79732">
        <ele>1699</ele>
        <time>2021-03-27T14:21:25Z</time>
      </trkpt>
      <trkpt lat="45.63987" lon="6.7973">
        <ele>1699.1</ele>
        <time>2021-03-27T14:21:26Z</time>
      </trkpt>
      <trkpt lat="45.63986" lon="6.79731">
        <ele>1699.2</ele>
        <time>2021-03-27T14:21:27Z</time>
      </trkpt>
      <trkpt lat="45.63986" lon="6.79729">
        <ele>1699.2</ele>
        <time>2021-03-27T14:21:28Z</time>
      </trkpt>
      <trkpt lat="45.63985" lon="6.79726">
        <ele>1699.3</ele>
        <time>2021-03-27T14:21:29Z</time>
      </trkpt>
      <trkpt lat="45.63984" lon="6.79724">
        <ele>1697.9</ele>
        <time>2021-03-27T14:21:30Z</time>
      </trkpt>
      <trkpt lat="45.63984" lon="6.79722">
        <ele>1698</ele>
        <time>2021-03-27T14:21:31Z</time>
      </trkpt>
      <trkpt lat="45.63983" lon="6.79721">
        <ele>1698.1</ele>
        <time>2021-03-27T14:21:32Z</time>
      </trkpt>
      <trkpt lat="45.63983" lon="6.79718">
        <ele>1698.2</ele>
        <time>2021-03-27T14:21:33Z</time>
      </trkpt>
      <trkpt lat="45.63982" lon="6.79717">
        <ele>1698.3</ele>
        <time>2021-03-27T14:21:34Z</time>
      </trkpt>
      <trkpt lat="45.63982" lon="6.79715">
        <ele>1696.9</ele>
        <time>2021-03-27T14:21:35Z</time>
      </trkpt>
      <trkpt lat="45.63981" lon="6.79713">
        <ele>1696.9</ele>
        <time>2021-03-27T14:21:36Z</time>
      </trkpt>
      <trkpt lat="45.6398" lon="6.7971">
        <ele>1697</ele>
        <time>2021-03-27T14:21:37Z</time>
      </trkpt>
      <trkpt lat="45.63979" lon="6.79705">
        <ele>1697.2</ele>
        <time>2021-03-27T14:21:38Z</time>
      </trkpt>
      <trkpt lat="45.63979" lon="6.79704">
        <ele>1695.5</ele>
        <time>2021-03-27T14:21:39Z</time>
      </trkpt>
      <trkpt lat="45.63977" lon="6.79699">
        <ele>1695.6</ele>
        <time>2021-03-27T14:21:40Z</time>
      </trkpt>
      <trkpt lat="45.63977" lon="6.79697">
        <ele>1695.7</ele>
        <time>2021-03-27T14:21:41Z</time>
      </trkpt>
      <trkpt lat="45.63976" lon="6.79692">
        <ele>1693.9</ele>
        <time>2021-03-27T14:21:42Z</time>
      </trkpt>
      <trkpt lat="45.63975" lon="6.7969">
        <ele>1693.9</ele>
        <time>2021-03-27T14:21:43Z</time>
      </trkpt>
      <trkpt lat="45.63974" lon="6.79686">
        <ele>1694</ele>
        <time>2021-03-27T14:21:44Z</time>
      </trkpt>
      <trkpt lat="45.63973" lon="6.79685">
        <ele>1694</ele>
        <time>2021-03-27T14:21:45Z</time>
      </trkpt>
      <trkpt lat="45.63971" lon="6.7968">
        <ele>1692.1</ele>
        <time>2021-03-27T14:21:46Z</time>
      </trkpt>
      <trkpt lat="45.6397" lon="6.79679">
        <ele>1692.1</ele>
        <time>2021-03-27T14:21:47Z</time>
      </trkpt>
      <trkpt lat="45.63968" lon="6.79675">
        <ele>1690.1</ele>
        <time>2021-03-27T14:21:48Z</time>
      </trkpt>
      <trkpt lat="45.63967" lon="6.79674">
        <ele>1688.3</ele>
        <time>2021-03-27T14:21:49Z</time>
      </trkpt>
      <trkpt lat="45.63965" lon="6.79669">
        <ele>1688.2</ele>
        <time>2021-03-27T14:21:50Z</time>
      </trkpt>
      <trkpt lat="45.63964" lon="6.79667">
        <ele>1688.1</ele>
        <time>2021-03-27T14:21:51Z</time>
      </trkpt>
      <trkpt lat="45.63963" lon="6.79664">
        <ele>1686.5</ele>
        <time>2021-03-27T14:21:52Z</time>
      </trkpt>
      <trkpt lat="45.63961" lon="6.79661">
        <ele>1686.4</ele>
        <time>2021-03-27T14:21:53Z</time>
      </trkpt>
      <trkpt lat="45.63958" lon="6.79658">
        <ele>1684.7</ele>
        <time>2021-03-27T14:21:54Z</time>
      </trkpt>
      <trkpt lat="45.63956" lon="6.79654">
        <ele>1683</ele>
        <time>2021-03-27T14:21:55Z</time>
      </trkpt>
      <trkpt lat="45.63954" lon="6.79649">
        <ele>1681.2</ele>
        <time>2021-03-27T14:21:56Z</time>
      </trkpt>
      <trkpt lat="45.63952" lon="6.79644">
        <ele>1681.1</ele>
        <time>2021-03-27T14:21:57Z</time>
      </trkpt>
      <trkpt lat="45.63951" lon="6.79639">
        <ele>1679.1</ele>
        <time>2021-03-27T14:21:58Z</time>
      </trkpt>
      <trkpt lat="45.63949" lon="6.79634">
        <ele>1677.1</ele>
        <time>2021-03-27T14:21:59Z</time>
      </trkpt>
      <trkpt lat="45.63947" lon="6.7963">
        <ele>1676.9</ele>
        <time>2021-03-27T14:22:00Z</time>
      </trkpt>
      <trkpt lat="45.63946" lon="6.79626">
        <ele>1674.9</ele>
        <time>2021-03-27T14:22:01Z</time>
      </trkpt>
      <trkpt lat="45.63945" lon="6.79623">
        <ele>1674.7</ele>
        <time>2021-03-27T14:22:02Z</time>
      </trkpt>
      <trkpt lat="45.63944" lon="6.79617">
        <ele>1674.5</ele>
        <time>2021-03-27T14:22:03Z</time>
      </trkpt>
      <trkpt lat="45.63944" lon="6.79615">
        <ele>1674.2</ele>
        <time>2021-03-27T14:22:04Z</time>
      </trkpt>
      <trkpt lat="45.63943" lon="6.79611">
        <ele>1674</ele>
        <time>2021-03-27T14:22:05Z</time>
      </trkpt>
      <trkpt lat="45.63942" lon="6.79606">
        <ele>1671.7</ele>
        <time>2021-03-27T14:22:06Z</time>
      </trkpt>
      <trkpt lat="45.63942" lon="6.79604">
        <ele>1671.8</ele>
        <time>2021-03-27T14:22:07Z</time>
      </trkpt>
      <trkpt lat="45.63942" lon="6.79602">
        <ele>1671.4</ele>
        <time>2021-03-27T14:22:08Z</time>
      </trkpt>
      <trkpt lat="45.63941" lon="6.79601">
        <ele>1671.4</ele>
        <time>2021-03-27T14:22:09Z</time>
      </trkpt>
      <trkpt lat="45.63941" lon="6.796">
        <ele>1671.5</ele>
        <time>2021-03-27T14:22:10Z</time>
      </trkpt>
      <trkpt lat="45.63941" lon="6.79599">
        <ele>1671.1</ele>
        <time>2021-03-27T14:22:11Z</time>
      </trkpt>
      <trkpt lat="45.6394" lon="6.79596">
        <ele>1671.1</ele>
        <time>2021-03-27T14:22:12Z</time>
      </trkpt>
      <trkpt lat="45.6394" lon="6.79591">
        <ele>1670.7</ele>
        <time>2021-03-27T14:22:13Z</time>
      </trkpt>
      <trkpt lat="45.6394" lon="6.79589">
        <ele>1668.3</ele>
        <time>2021-03-27T14:22:14Z</time>
      </trkpt>
      <trkpt lat="45.6394" lon="6.79588">
        <ele>1668.4</ele>
        <time>2021-03-27T14:22:15Z</time>
      </trkpt>
      <trkpt lat="45.6394" lon="6.79587">
        <ele>1670.2</ele>
        <time>2021-03-27T14:22:16Z</time>
      </trkpt>
      <trkpt lat="45.6394" lon="6.79587">
        <ele>1670.3</ele>
        <time>2021-03-27T14:22:17Z</time>
      </trkpt>
      <trkpt lat="45.63941" lon="6.79587">
        <ele>1670.3</ele>
        <time>2021-03-27T14:22:18Z</time>
      </trkpt>
      <trkpt lat="45.63941" lon="6.79587">
        <ele>1670.3</ele>
        <time>2021-03-27T14:22:19Z</time>
      </trkpt>
      <trkpt lat="45.63941" lon="6.79586">
        <ele>1670.3</ele>
        <time>2021-03-27T14:22:20Z</time>
      </trkpt>
      <trkpt lat="45.63942" lon="6.79586">
        <ele>1670.4</ele>
        <time>2021-03-27T14:22:21Z</time>
      </trkpt>
      <trkpt lat="45.63942" lon="6.79586">
        <ele>1670.4</ele>
        <time>2021-03-27T14:22:22Z</time>
      </trkpt>
      <trkpt lat="45.63942" lon="6.79586">
        <ele>1669.9</ele>
        <time>2021-03-27T14:22:23Z</time>
      </trkpt>
      <trkpt lat="45.63942" lon="6.79586">
        <ele>1669.9</ele>
        <time>2021-03-27T14:22:24Z</time>
      </trkpt>
      <trkpt lat="45.63943" lon="6.79581">
        <ele>1669.4</ele>
        <time>2021-03-27T14:22:25Z</time>
      </trkpt>
      <trkpt lat="45.63943" lon="6.79579">
        <ele>1669.5</ele>
        <time>2021-03-27T14:22:26Z</time>
      </trkpt>
      <trkpt lat="45.63942" lon="6.79576">
        <ele>1668.9</ele>
        <time>2021-03-27T14:22:27Z</time>
      </trkpt>
      <trkpt lat="45.63942" lon="6.79574">
        <ele>1669</ele>
        <time>2021-03-27T14:22:28Z</time>
      </trkpt>
      <trkpt lat="45.63943" lon="6.79571">
        <ele>1668.4</ele>
        <time>2021-03-27T14:22:29Z</time>
      </trkpt>
      <trkpt lat="45.63943" lon="6.79569">
        <ele>1667.9</ele>
        <time>2021-03-27T14:22:30Z</time>
      </trkpt>
      <trkpt lat="45.63943" lon="6.79566">
        <ele>1667.9</ele>
        <time>2021-03-27T14:22:31Z</time>
      </trkpt>
      <trkpt lat="45.63943" lon="6.79562">
        <ele>1669.1</ele>
        <time>2021-03-27T14:22:32Z</time>
      </trkpt>
      <trkpt lat="45.63944" lon="6.79557">
        <ele>1668.4</ele>
        <time>2021-03-27T14:22:33Z</time>
      </trkpt>
      <trkpt lat="45.63945" lon="6.79553">
        <ele>1667.7</ele>
        <time>2021-03-27T14:22:34Z</time>
      </trkpt>
      <trkpt lat="45.63945" lon="6.79551">
        <ele>1667.6</ele>
        <time>2021-03-27T14:22:35Z</time>
      </trkpt>
      <trkpt lat="45.63945" lon="6.79549">
        <ele>1667.3</ele>
        <time>2021-03-27T14:22:36Z</time>
      </trkpt>
      <trkpt lat="45.63944" lon="6.79549">
        <ele>1667.1</ele>
        <time>2021-03-27T14:22:37Z</time>
      </trkpt>
      <trkpt lat="45.63943" lon="6.79549">
        <ele>1667</ele>
        <time>2021-03-27T14:22:38Z</time>
      </trkpt>
      <trkpt lat="45.63943" lon="6.79549">
        <ele>1667</ele>
        <time>2021-03-27T14:22:39Z</time>
      </trkpt>
      <trkpt lat="45.63943" lon="6.79549">
        <ele>1667</ele>
        <time>2021-03-27T14:22:40Z</time>
      </trkpt>
      <trkpt lat="45.63942" lon="6.7955">
        <ele>1666.7</ele>
        <time>2021-03-27T14:22:41Z</time>
      </trkpt>
      <trkpt lat="45.63941" lon="6.7955">
        <ele>1666.6</ele>
        <time>2021-03-27T14:22:42Z</time>
      </trkpt>
      <trkpt lat="45.63941" lon="6.79551">
        <ele>1666.5</ele>
        <time>2021-03-27T14:22:43Z</time>
      </trkpt>
      <trkpt lat="45.6394" lon="6.79553">
        <ele>1666.2</ele>
        <time>2021-03-27T14:22:44Z</time>
      </trkpt>
      <trkpt lat="45.63939" lon="6.79554">
        <ele>1666.1</ele>
        <time>2021-03-27T14:22:45Z</time>
      </trkpt>
      <trkpt lat="45.63939" lon="6.79555">
        <ele>1666</ele>
        <time>2021-03-27T14:22:46Z</time>
      </trkpt>
      <trkpt lat="45.63938" lon="6.79555">
        <ele>1665.8</ele>
        <time>2021-03-27T14:22:47Z</time>
      </trkpt>
      <trkpt lat="45.63937" lon="6.79556">
        <ele>1665.7</ele>
        <time>2021-03-27T14:22:48Z</time>
      </trkpt>
      <trkpt lat="45.63936" lon="6.79556">
        <ele>1665.6</ele>
        <time>2021-03-27T14:22:49Z</time>
      </trkpt>
      <trkpt lat="45.63936" lon="6.79557">
        <ele>1665.4</ele>
        <time>2021-03-27T14:22:50Z</time>
      </trkpt>
      <trkpt lat="45.63935" lon="6.79557">
        <ele>1665.3</ele>
        <time>2021-03-27T14:22:51Z</time>
      </trkpt>
      <trkpt lat="45.63934" lon="6.79558">
        <ele>1665.2</ele>
        <time>2021-03-27T14:22:52Z</time>
      </trkpt>
      <trkpt lat="45.63934" lon="6.79558">
        <ele>1665.1</ele>
        <time>2021-03-27T14:22:53Z</time>
      </trkpt>
      <trkpt lat="45.63933" lon="6.79559">
        <ele>1664.9</ele>
        <time>2021-03-27T14:22:54Z</time>
      </trkpt>
      <trkpt lat="45.63932" lon="6.79559">
        <ele>1664.8</ele>
        <time>2021-03-27T14:23:10Z</time>
      </trkpt>
      <trkpt lat="45.63931" lon="6.7956">
        <ele>1664.7</ele>
        <time>2021-03-27T14:23:11Z</time>
      </trkpt>
      <trkpt lat="45.63929" lon="6.79563">
        <ele>1664.2</ele>
        <time>2021-03-27T14:23:12Z</time>
      </trkpt>
      <trkpt lat="45.63927" lon="6.79565">
        <ele>1663.7</ele>
        <time>2021-03-27T14:23:13Z</time>
      </trkpt>
      <trkpt lat="45.63925" lon="6.79568">
        <ele>1663.3</ele>
        <time>2021-03-27T14:23:14Z</time>
      </trkpt>
      <trkpt lat="45.63924" lon="6.7957">
        <ele>1662.9</ele>
        <time>2021-03-27T14:23:15Z</time>
      </trkpt>
      <trkpt lat="45.63923" lon="6.79572">
        <ele>1662.7</ele>
        <time>2021-03-27T14:23:16Z</time>
      </trkpt>
      <trkpt lat="45.63922" lon="6.79575">
        <ele>1662.4</ele>
        <time>2021-03-27T14:23:17Z</time>
      </trkpt>
      <trkpt lat="45.63921" lon="6.79577">
        <ele>1662.1</ele>
        <time>2021-03-27T14:23:18Z</time>
      </trkpt>
      <trkpt lat="45.6392" lon="6.7958">
        <ele>1661.6</ele>
        <time>2021-03-27T14:23:19Z</time>
      </trkpt>
      <trkpt lat="45.63919" lon="6.79581">
        <ele>1661.4</ele>
        <time>2021-03-27T14:23:20Z</time>
      </trkpt>
      <trkpt lat="45.63917" lon="6.79586">
        <ele>1660.7</ele>
        <time>2021-03-27T14:23:21Z</time>
      </trkpt>
      <trkpt lat="45.63916" lon="6.79587">
        <ele>1660.4</ele>
        <time>2021-03-27T14:23:22Z</time>
      </trkpt>
      <trkpt lat="45.63914" lon="6.79592">
        <ele>1659.7</ele>
        <time>2021-03-27T14:23:23Z</time>
      </trkpt>
      <trkpt lat="45.63913" lon="6.79593">
        <ele>1659.5</ele>
        <time>2021-03-27T14:23:24Z</time>
      </trkpt>
      <trkpt lat="45.63911" lon="6.79597">
        <ele>1658.8</ele>
        <time>2021-03-27T14:23:25Z</time>
      </trkpt>
      <trkpt lat="45.6391" lon="6.79599">
        <ele>1658.5</ele>
        <time>2021-03-27T14:23:26Z</time>
      </trkpt>
      <trkpt lat="45.63909" lon="6.79604">
        <ele>1657.9</ele>
        <time>2021-03-27T14:23:27Z</time>
      </trkpt>
      <trkpt lat="45.63908" lon="6.79608">
        <ele>1657.3</ele>
        <time>2021-03-27T14:23:28Z</time>
      </trkpt>
      <trkpt lat="45.63906" lon="6.79612">
        <ele>1656.7</ele>
        <time>2021-03-27T14:23:29Z</time>
      </trkpt>
      <trkpt lat="45.63905" lon="6.79616">
        <ele>1656.1</ele>
        <time>2021-03-27T14:23:30Z</time>
      </trkpt>
      <trkpt lat="45.63904" lon="6.7962">
        <ele>1655.4</ele>
        <time>2021-03-27T14:23:31Z</time>
      </trkpt>
      <trkpt lat="45.63902" lon="6.79625">
        <ele>1654.7</ele>
        <time>2021-03-27T14:23:32Z</time>
      </trkpt>
      <trkpt lat="45.63901" lon="6.79631">
        <ele>1653.9</ele>
        <time>2021-03-27T14:23:33Z</time>
      </trkpt>
      <trkpt lat="45.639" lon="6.79635">
        <ele>1653.2</ele>
        <time>2021-03-27T14:23:34Z</time>
      </trkpt>
      <trkpt lat="45.63899" lon="6.79636">
        <ele>1653</ele>
        <time>2021-03-27T14:23:35Z</time>
      </trkpt>
      <trkpt lat="45.63898" lon="6.79637">
        <ele>1652.8</ele>
        <time>2021-03-27T14:23:36Z</time>
      </trkpt>
      <trkpt lat="45.63897" lon="6.79636">
        <ele>1652.7</ele>
        <time>2021-03-27T14:23:37Z</time>
      </trkpt>
      <trkpt lat="45.63896" lon="6.79637">
        <ele>1652.4</ele>
        <time>2021-03-27T14:23:38Z</time>
      </trkpt>
      <trkpt lat="45.63895" lon="6.7964">
        <ele>1652</ele>
        <time>2021-03-27T14:23:39Z</time>
      </trkpt>
      <trkpt lat="45.63894" lon="6.79644">
        <ele>1651.2</ele>
        <time>2021-03-27T14:23:40Z</time>
      </trkpt>
      <trkpt lat="45.63894" lon="6.79646">
        <ele>1651</ele>
        <time>2021-03-27T14:23:41Z</time>
      </trkpt>
      <trkpt lat="45.63893" lon="6.79652">
        <ele>1650</ele>
        <time>2021-03-27T14:23:42Z</time>
      </trkpt>
      <trkpt lat="45.63893" lon="6.79654">
        <ele>1649.7</ele>
        <time>2021-03-27T14:23:43Z</time>
      </trkpt>
      <trkpt lat="45.63893" lon="6.79659">
        <ele>1648.7</ele>
        <time>2021-03-27T14:23:44Z</time>
      </trkpt>
      <trkpt lat="45.63892" lon="6.79661">
        <ele>1648.2</ele>
        <time>2021-03-27T14:23:45Z</time>
      </trkpt>
      <trkpt lat="45.63892" lon="6.79666">
        <ele>1647.3</ele>
        <time>2021-03-27T14:23:46Z</time>
      </trkpt>
      <trkpt lat="45.63892" lon="6.7967">
        <ele>1646.5</ele>
        <time>2021-03-27T14:23:47Z</time>
      </trkpt>
      <trkpt lat="45.63891" lon="6.79676">
        <ele>1645.4</ele>
        <time>2021-03-27T14:23:48Z</time>
      </trkpt>
      <trkpt lat="45.63891" lon="6.79678">
        <ele>1645</ele>
        <time>2021-03-27T14:23:49Z</time>
      </trkpt>
      <trkpt lat="45.63891" lon="6.79682">
        <ele>1644.3</ele>
        <time>2021-03-27T14:23:50Z</time>
      </trkpt>
      <trkpt lat="45.63891" lon="6.79686">
        <ele>1643.6</ele>
        <time>2021-03-27T14:23:51Z</time>
      </trkpt>
      <trkpt lat="45.63892" lon="6.79691">
        <ele>1642.7</ele>
        <time>2021-03-27T14:23:52Z</time>
      </trkpt>
      <trkpt lat="45.63892" lon="6.79693">
        <ele>1642.3</ele>
        <time>2021-03-27T14:23:53Z</time>
      </trkpt>
      <trkpt lat="45.63891" lon="6.79699">
        <ele>1641.4</ele>
        <time>2021-03-27T14:23:54Z</time>
      </trkpt>
      <trkpt lat="45.63891" lon="6.79701">
        <ele>1641</ele>
        <time>2021-03-27T14:23:55Z</time>
      </trkpt>
      <trkpt lat="45.6389" lon="6.79704">
        <ele>1640.3</ele>
        <time>2021-03-27T14:23:56Z</time>
      </trkpt>
      <trkpt lat="45.6389" lon="6.7971">
        <ele>1639.1</ele>
        <time>2021-03-27T14:23:57Z</time>
      </trkpt>
      <trkpt lat="45.6389" lon="6.79712">
        <ele>1638.7</ele>
        <time>2021-03-27T14:23:58Z</time>
      </trkpt>
      <trkpt lat="45.6389" lon="6.79716">
        <ele>1637.7</ele>
        <time>2021-03-27T14:23:59Z</time>
      </trkpt>
      <trkpt lat="45.6389" lon="6.79721">
        <ele>1636.6</ele>
        <time>2021-03-27T14:24:00Z</time>
      </trkpt>
      <trkpt lat="45.63889" lon="6.79723">
        <ele>1636.2</ele>
        <time>2021-03-27T14:24:01Z</time>
      </trkpt>
      <trkpt lat="45.63888" lon="6.79727">
        <ele>1635</ele>
        <time>2021-03-27T14:24:02Z</time>
      </trkpt>
      <trkpt lat="45.63887" lon="6.79728">
        <ele>1634.6</ele>
        <time>2021-03-27T14:24:03Z</time>
      </trkpt>
      <trkpt lat="45.63885" lon="6.79732">
        <ele>1633.4</ele>
        <time>2021-03-27T14:24:04Z</time>
      </trkpt>
      <trkpt lat="45.63884" lon="6.79734">
        <ele>1632.9</ele>
        <time>2021-03-27T14:24:05Z</time>
      </trkpt>
      <trkpt lat="45.63884" lon="6.79738">
        <ele>1631.7</ele>
        <time>2021-03-27T14:24:06Z</time>
      </trkpt>
      <trkpt lat="45.63884" lon="6.79739">
        <ele>1631.5</ele>
        <time>2021-03-27T14:24:07Z</time>
      </trkpt>
      <trkpt lat="45.63884" lon="6.7974">
        <ele>1631.2</ele>
        <time>2021-03-27T14:24:08Z</time>
      </trkpt>
      <trkpt lat="45.63884" lon="6.79741">
        <ele>1631.1</ele>
        <time>2021-03-27T14:24:09Z</time>
      </trkpt>
      <trkpt lat="45.63884" lon="6.79741">
        <ele>1631.1</ele>
        <time>2021-03-27T14:24:10Z</time>
      </trkpt>
      <trkpt lat="45.63884" lon="6.79741">
        <ele>1631.1</ele>
        <time>2021-03-27T14:24:11Z</time>
      </trkpt>
      <trkpt lat="45.63884" lon="6.7974">
        <ele>1630.9</ele>
        <time>2021-03-27T14:24:12Z</time>
      </trkpt>
      <trkpt lat="45.63883" lon="6.7974">
        <ele>1630.8</ele>
        <time>2021-03-27T14:24:13Z</time>
      </trkpt>
      <trkpt lat="45.63883" lon="6.79741">
        <ele>1630.6</ele>
        <time>2021-03-27T14:24:14Z</time>
      </trkpt>
      <trkpt lat="45.63883" lon="6.79742">
        <ele>1630.2</ele>
        <time>2021-03-27T14:24:15Z</time>
      </trkpt>
      <trkpt lat="45.63883" lon="6.79744">
        <ele>1629.6</ele>
        <time>2021-03-27T14:24:16Z</time>
      </trkpt>
      <trkpt lat="45.63883" lon="6.79749">
        <ele>1628.5</ele>
        <time>2021-03-27T14:24:17Z</time>
      </trkpt>
      <trkpt lat="45.63884" lon="6.79754">
        <ele>1627.4</ele>
        <time>2021-03-27T14:24:18Z</time>
      </trkpt>
      <trkpt lat="45.63884" lon="6.79756">
        <ele>1626.9</ele>
        <time>2021-03-27T14:24:19Z</time>
      </trkpt>
      <trkpt lat="45.63883" lon="6.79756">
        <ele>1626.8</ele>
        <time>2021-03-27T14:24:20Z</time>
      </trkpt>
      <trkpt lat="45.63883" lon="6.79756">
        <ele>1626.8</ele>
        <time>2021-03-27T14:24:21Z</time>
      </trkpt>
      <trkpt lat="45.63883" lon="6.79756">
        <ele>1626.8</ele>
        <time>2021-03-27T14:24:22Z</time>
      </trkpt>
      <trkpt lat="45.63883" lon="6.79757">
        <ele>1626.5</ele>
        <time>2021-03-27T14:24:23Z</time>
      </trkpt>
      <trkpt lat="45.63882" lon="6.79758">
        <ele>1626.3</ele>
        <time>2021-03-27T14:24:24Z</time>
      </trkpt>
      <trkpt lat="45.63882" lon="6.79762">
        <ele>1625.6</ele>
        <time>2021-03-27T14:24:25Z</time>
      </trkpt>
      <trkpt lat="45.63882" lon="6.79767">
        <ele>1624.6</ele>
        <time>2021-03-27T14:24:26Z</time>
      </trkpt>
      <trkpt lat="45.63882" lon="6.79768">
        <ele>1624.3</ele>
        <time>2021-03-27T14:24:27Z</time>
      </trkpt>
      <trkpt lat="45.63883" lon="6.7977">
        <ele>1624</ele>
        <time>2021-03-27T14:24:28Z</time>
      </trkpt>
      <trkpt lat="45.63882" lon="6.79771">
        <ele>1623.8</ele>
        <time>2021-03-27T14:24:29Z</time>
      </trkpt>
      <trkpt lat="45.63882" lon="6.79773">
        <ele>1623.4</ele>
        <time>2021-03-27T14:24:30Z</time>
      </trkpt>
      <trkpt lat="45.63881" lon="6.79778">
        <ele>1622.5</ele>
        <time>2021-03-27T14:24:31Z</time>
      </trkpt>
      <trkpt lat="45.63881" lon="6.7978">
        <ele>1622.1</ele>
        <time>2021-03-27T14:24:32Z</time>
      </trkpt>
      <trkpt lat="45.63882" lon="6.79785">
        <ele>1621.2</ele>
        <time>2021-03-27T14:24:33Z</time>
      </trkpt>
      <trkpt lat="45.63884" lon="6.79789">
        <ele>1620.3</ele>
        <time>2021-03-27T14:24:34Z</time>
      </trkpt>
      <trkpt lat="45.63885" lon="6.79793">
        <ele>1619.6</ele>
        <time>2021-03-27T14:24:35Z</time>
      </trkpt>
      <trkpt lat="45.63885" lon="6.79797">
        <ele>1618.9</ele>
        <time>2021-03-27T14:24:36Z</time>
      </trkpt>
      <trkpt lat="45.63885" lon="6.79801">
        <ele>1618.2</ele>
        <time>2021-03-27T14:24:37Z</time>
      </trkpt>
      <trkpt lat="45.63885" lon="6.79807">
        <ele>1617.1</ele>
        <time>2021-03-27T14:24:38Z</time>
      </trkpt>
      <trkpt lat="45.63885" lon="6.79809">
        <ele>1616.7</ele>
        <time>2021-03-27T14:24:39Z</time>
      </trkpt>
      <trkpt lat="45.63885" lon="6.79815">
        <ele>1615.8</ele>
        <time>2021-03-27T14:24:40Z</time>
      </trkpt>
      <trkpt lat="45.63885" lon="6.7982">
        <ele>1614.9</ele>
        <time>2021-03-27T14:24:41Z</time>
      </trkpt>
      <trkpt lat="45.63884" lon="6.79824">
        <ele>1614.2</ele>
        <time>2021-03-27T14:24:42Z</time>
      </trkpt>
      <trkpt lat="45.63883" lon="6.79828">
        <ele>1613.4</ele>
        <time>2021-03-27T14:24:43Z</time>
      </trkpt>
      <trkpt lat="45.63883" lon="6.79829">
        <ele>1613.2</ele>
        <time>2021-03-27T14:24:44Z</time>
      </trkpt>
      <trkpt lat="45.63882" lon="6.79834">
        <ele>1612.3</ele>
        <time>2021-03-27T14:24:45Z</time>
      </trkpt>
      <trkpt lat="45.63882" lon="6.79836">
        <ele>1612</ele>
        <time>2021-03-27T14:24:46Z</time>
      </trkpt>
      <trkpt lat="45.63882" lon="6.79839">
        <ele>1611.5</ele>
        <time>2021-03-27T14:24:47Z</time>
      </trkpt>
      <trkpt lat="45.63882" lon="6.79841">
        <ele>1611.2</ele>
        <time>2021-03-27T14:24:48Z</time>
      </trkpt>
      <trkpt lat="45.63882" lon="6.79843">
        <ele>1610.9</ele>
        <time>2021-03-27T14:24:49Z</time>
      </trkpt>
      <trkpt lat="45.63882" lon="6.79843">
        <ele>1610.8</ele>
        <time>2021-03-27T14:24:50Z</time>
      </trkpt>
      <trkpt lat="45.63882" lon="6.79844">
        <ele>1610.7</ele>
        <time>2021-03-27T14:24:51Z</time>
      </trkpt>
      <trkpt lat="45.63882" lon="6.79845">
        <ele>1610.5</ele>
        <time>2021-03-27T14:24:52Z</time>
      </trkpt>
      <trkpt lat="45.63881" lon="6.79846">
        <ele>1610.4</ele>
        <time>2021-03-27T14:24:53Z</time>
      </trkpt>
      <trkpt lat="45.63881" lon="6.79847">
        <ele>1610.2</ele>
        <time>2021-03-27T14:24:54Z</time>
      </trkpt>
      <trkpt lat="45.63881" lon="6.79847">
        <ele>1610.1</ele>
        <time>2021-03-27T14:24:55Z</time>
      </trkpt>
      <trkpt lat="45.6388" lon="6.79853">
        <ele>1609.2</ele>
        <time>2021-03-27T14:24:56Z</time>
      </trkpt>
      <trkpt lat="45.63879" lon="6.79856">
        <ele>1608.8</ele>
        <time>2021-03-27T14:24:57Z</time>
      </trkpt>
      <trkpt lat="45.63878" lon="6.79861">
        <ele>1607.9</ele>
        <time>2021-03-27T14:24:58Z</time>
      </trkpt>
      <trkpt lat="45.63877" lon="6.79866">
        <ele>1607.1</ele>
        <time>2021-03-27T14:24:59Z</time>
      </trkpt>
      <trkpt lat="45.63876" lon="6.7987">
        <ele>1606.4</ele>
        <time>2021-03-27T14:25:00Z</time>
      </trkpt>
      <trkpt lat="45.63875" lon="6.79875">
        <ele>1605.7</ele>
        <time>2021-03-27T14:25:01Z</time>
      </trkpt>
      <trkpt lat="45.63874" lon="6.7988">
        <ele>1604.9</ele>
        <time>2021-03-27T14:25:02Z</time>
      </trkpt>
      <trkpt lat="45.63874" lon="6.79885">
        <ele>1604.2</ele>
        <time>2021-03-27T14:25:03Z</time>
      </trkpt>
      <trkpt lat="45.63873" lon="6.79889">
        <ele>1603.6</ele>
        <time>2021-03-27T14:25:04Z</time>
      </trkpt>
      <trkpt lat="45.63871" lon="6.79894">
        <ele>1602.7</ele>
        <time>2021-03-27T14:25:05Z</time>
      </trkpt>
      <trkpt lat="45.6387" lon="6.79896">
        <ele>1602.4</ele>
        <time>2021-03-27T14:25:06Z</time>
      </trkpt>
      <trkpt lat="45.63868" lon="6.79899">
        <ele>1601.7</ele>
        <time>2021-03-27T14:25:07Z</time>
      </trkpt>
      <trkpt lat="45.63866" lon="6.79902">
        <ele>1601</ele>
        <time>2021-03-27T14:25:08Z</time>
      </trkpt>
      <trkpt lat="45.63864" lon="6.79907">
        <ele>1600</ele>
        <time>2021-03-27T14:25:09Z</time>
      </trkpt>
      <trkpt lat="45.63863" lon="6.79908">
        <ele>1599.7</ele>
        <time>2021-03-27T14:25:10Z</time>
      </trkpt>
      <trkpt lat="45.63862" lon="6.79912">
        <ele>1599</ele>
        <time>2021-03-27T14:25:11Z</time>
      </trkpt>
      <trkpt lat="45.63861" lon="6.79916">
        <ele>1598.3</ele>
        <time>2021-03-27T14:25:12Z</time>
      </trkpt>
      <trkpt lat="45.63859" lon="6.79919">
        <ele>1597.6</ele>
        <time>2021-03-27T14:25:13Z</time>
      </trkpt>
      <trkpt lat="45.63858" lon="6.79924">
        <ele>1596.8</ele>
        <time>2021-03-27T14:25:14Z</time>
      </trkpt>
      <trkpt lat="45.63857" lon="6.79929">
        <ele>1596.2</ele>
        <time>2021-03-27T14:25:15Z</time>
      </trkpt>
      <trkpt lat="45.63857" lon="6.79933">
        <ele>1595.6</ele>
        <time>2021-03-27T14:25:16Z</time>
      </trkpt>
      <trkpt lat="45.63857" lon="6.79938">
        <ele>1594.9</ele>
        <time>2021-03-27T14:25:17Z</time>
      </trkpt>
      <trkpt lat="45.63857" lon="6.79943">
        <ele>1594.1</ele>
        <time>2021-03-27T14:25:18Z</time>
      </trkpt>
      <trkpt lat="45.63856" lon="6.79949">
        <ele>1593.3</ele>
        <time>2021-03-27T14:25:19Z</time>
      </trkpt>
      <trkpt lat="45.63856" lon="6.79953">
        <ele>1592.5</ele>
        <time>2021-03-27T14:25:20Z</time>
      </trkpt>
      <trkpt lat="45.63856" lon="6.79958">
        <ele>1591.7</ele>
        <time>2021-03-27T14:25:21Z</time>
      </trkpt>
      <trkpt lat="45.63856" lon="6.79963">
        <ele>1590.9</ele>
        <time>2021-03-27T14:25:22Z</time>
      </trkpt>
      <trkpt lat="45.63857" lon="6.79968">
        <ele>1590.1</ele>
        <time>2021-03-27T14:25:23Z</time>
      </trkpt>
      <trkpt lat="45.63857" lon="6.79972">
        <ele>1589.4</ele>
        <time>2021-03-27T14:25:24Z</time>
      </trkpt>
      <trkpt lat="45.63858" lon="6.79976">
        <ele>1588.6</ele>
        <time>2021-03-27T14:25:25Z</time>
      </trkpt>
      <trkpt lat="45.63858" lon="6.7998">
        <ele>1587.9</ele>
        <time>2021-03-27T14:25:26Z</time>
      </trkpt>
      <trkpt lat="45.63858" lon="6.79985">
        <ele>1587.2</ele>
        <time>2021-03-27T14:25:27Z</time>
      </trkpt>
      <trkpt lat="45.63858" lon="6.79987">
        <ele>1586.9</ele>
        <time>2021-03-27T14:25:28Z</time>
      </trkpt>
      <trkpt lat="45.63858" lon="6.79992">
        <ele>1586.2</ele>
        <time>2021-03-27T14:25:29Z</time>
      </trkpt>
      <trkpt lat="45.63858" lon="6.79994">
        <ele>1585.9</ele>
        <time>2021-03-27T14:25:30Z</time>
      </trkpt>
      <trkpt lat="45.63859" lon="6.79999">
        <ele>1585</ele>
        <time>2021-03-27T14:25:31Z</time>
      </trkpt>
      <trkpt lat="45.63859" lon="6.80001">
        <ele>1584.7</ele>
        <time>2021-03-27T14:25:32Z</time>
      </trkpt>
      <trkpt lat="45.63859" lon="6.80006">
        <ele>1584</ele>
        <time>2021-03-27T14:25:33Z</time>
      </trkpt>
      <trkpt lat="45.63859" lon="6.80012">
        <ele>1583.1</ele>
        <time>2021-03-27T14:25:34Z</time>
      </trkpt>
      <trkpt lat="45.63859" lon="6.80019">
        <ele>1582.2</ele>
        <time>2021-03-27T14:25:35Z</time>
      </trkpt>
      <trkpt lat="45.63863" lon="6.8003">
        <ele>1580.7</ele>
        <time>2021-03-27T14:25:36Z</time>
      </trkpt>
      <trkpt lat="45.63862" lon="6.80035">
        <ele>1580.2</ele>
        <time>2021-03-27T14:25:37Z</time>
      </trkpt>
      <trkpt lat="45.63859" lon="6.8004">
        <ele>1579.5</ele>
        <time>2021-03-27T14:25:38Z</time>
      </trkpt>
      <trkpt lat="45.63858" lon="6.80045">
        <ele>1578.9</ele>
        <time>2021-03-27T14:25:39Z</time>
      </trkpt>
      <trkpt lat="45.63856" lon="6.8005">
        <ele>1578.2</ele>
        <time>2021-03-27T14:25:40Z</time>
      </trkpt>
      <trkpt lat="45.63856" lon="6.80055">
        <ele>1577.6</ele>
        <time>2021-03-27T14:25:41Z</time>
      </trkpt>
      <trkpt lat="45.63855" lon="6.8006">
        <ele>1577</ele>
        <time>2021-03-27T14:25:42Z</time>
      </trkpt>
      <trkpt lat="45.63855" lon="6.80065">
        <ele>1576.5</ele>
        <time>2021-03-27T14:25:43Z</time>
      </trkpt>
      <trkpt lat="45.63854" lon="6.80069">
        <ele>1576</ele>
        <time>2021-03-27T14:25:44Z</time>
      </trkpt>
      <trkpt lat="45.63854" lon="6.80074">
        <ele>1575.4</ele>
        <time>2021-03-27T14:25:45Z</time>
      </trkpt>
      <trkpt lat="45.63853" lon="6.80079">
        <ele>1574.7</ele>
        <time>2021-03-27T14:25:46Z</time>
      </trkpt>
      <trkpt lat="45.63853" lon="6.80081">
        <ele>1574.5</ele>
        <time>2021-03-27T14:25:47Z</time>
      </trkpt>
      <trkpt lat="45.63853" lon="6.80086">
        <ele>1573.9</ele>
        <time>2021-03-27T14:25:48Z</time>
      </trkpt>
      <trkpt lat="45.63853" lon="6.80087">
        <ele>1573.6</ele>
        <time>2021-03-27T14:25:49Z</time>
      </trkpt>
      <trkpt lat="45.63853" lon="6.80092">
        <ele>1572.8</ele>
        <time>2021-03-27T14:25:50Z</time>
      </trkpt>
      <trkpt lat="45.63853" lon="6.80094">
        <ele>1572.5</ele>
        <time>2021-03-27T14:25:51Z</time>
      </trkpt>
      <trkpt lat="45.63853" lon="6.80099">
        <ele>1571.8</ele>
        <time>2021-03-27T14:25:52Z</time>
      </trkpt>
      <trkpt lat="45.63853" lon="6.80101">
        <ele>1571.5</ele>
        <time>2021-03-27T14:25:53Z</time>
      </trkpt>
      <trkpt lat="45.63853" lon="6.80103">
        <ele>1571.1</ele>
        <time>2021-03-27T14:25:54Z</time>
      </trkpt>
      <trkpt lat="45.63853" lon="6.80105">
        <ele>1570.8</ele>
        <time>2021-03-27T14:25:55Z</time>
      </trkpt>
      <trkpt lat="45.63854" lon="6.80107">
        <ele>1570.5</ele>
        <time>2021-03-27T14:25:56Z</time>
      </trkpt>
      <trkpt lat="45.63854" lon="6.80108">
        <ele>1570.4</ele>
        <time>2021-03-27T14:25:57Z</time>
      </trkpt>
      <trkpt lat="45.63854" lon="6.80108">
        <ele>1570.3</ele>
        <time>2021-03-27T14:25:58Z</time>
      </trkpt>
      <trkpt lat="45.63854" lon="6.80108">
        <ele>1570.3</ele>
        <time>2021-03-27T14:25:59Z</time>
      </trkpt>
      <trkpt lat="45.63854" lon="6.80109">
        <ele>1570.2</ele>
        <time>2021-03-27T14:26:00Z</time>
      </trkpt>
      <trkpt lat="45.63854" lon="6.80109">
        <ele>1570.2</ele>
        <time>2021-03-27T14:26:01Z</time>
      </trkpt>
      <trkpt lat="45.63855" lon="6.8011">
        <ele>1570.1</ele>
        <time>2021-03-27T14:26:02Z</time>
      </trkpt>
      <trkpt lat="45.63855" lon="6.8011">
        <ele>1570</ele>
        <time>2021-03-27T14:26:03Z</time>
      </trkpt>
      <trkpt lat="45.63855" lon="6.8011">
        <ele>1570</ele>
        <time>2021-03-27T14:26:04Z</time>
      </trkpt>
      <trkpt lat="45.63855" lon="6.80111">
        <ele>1569.9</ele>
        <time>2021-03-27T14:26:05Z</time>
      </trkpt>
      <trkpt lat="45.63855" lon="6.80111">
        <ele>1569.9</ele>
        <time>2021-03-27T14:26:06Z</time>
      </trkpt>
      <trkpt lat="45.63855" lon="6.80113">
        <ele>1569.6</ele>
        <time>2021-03-27T14:26:07Z</time>
      </trkpt>
      <trkpt lat="45.63855" lon="6.80115">
        <ele>1569.3</ele>
        <time>2021-03-27T14:26:08Z</time>
      </trkpt>
      <trkpt lat="45.63854" lon="6.80117">
        <ele>1569</ele>
        <time>2021-03-27T14:26:09Z</time>
      </trkpt>
      <trkpt lat="45.63853" lon="6.8012">
        <ele>1568.6</ele>
        <time>2021-03-27T14:26:10Z</time>
      </trkpt>
      <trkpt lat="45.63851" lon="6.80124">
        <ele>1568</ele>
        <time>2021-03-27T14:26:11Z</time>
      </trkpt>
      <trkpt lat="45.63851" lon="6.80126">
        <ele>1567.8</ele>
        <time>2021-03-27T14:26:12Z</time>
      </trkpt>
      <trkpt lat="45.63849" lon="6.80129">
        <ele>1567.2</ele>
        <time>2021-03-27T14:26:13Z</time>
      </trkpt>
      <trkpt lat="45.63848" lon="6.80133">
        <ele>1566.7</ele>
        <time>2021-03-27T14:26:14Z</time>
      </trkpt>
      <trkpt lat="45.63848" lon="6.80138">
        <ele>1566.2</ele>
        <time>2021-03-27T14:26:15Z</time>
      </trkpt>
      <trkpt lat="45.63847" lon="6.80141">
        <ele>1565.7</ele>
        <time>2021-03-27T14:26:16Z</time>
      </trkpt>
      <trkpt lat="45.63846" lon="6.80146">
        <ele>1565.1</ele>
        <time>2021-03-27T14:26:17Z</time>
      </trkpt>
      <trkpt lat="45.63846" lon="6.80151">
        <ele>1564.4</ele>
        <time>2021-03-27T14:26:18Z</time>
      </trkpt>
      <trkpt lat="45.63846" lon="6.80155">
        <ele>1563.8</ele>
        <time>2021-03-27T14:26:19Z</time>
      </trkpt>
      <trkpt lat="45.63847" lon="6.8016">
        <ele>1563.2</ele>
        <time>2021-03-27T14:26:20Z</time>
      </trkpt>
      <trkpt lat="45.63847" lon="6.80161">
        <ele>1563</ele>
        <time>2021-03-27T14:26:21Z</time>
      </trkpt>
      <trkpt lat="45.63847" lon="6.80166">
        <ele>1562.4</ele>
        <time>2021-03-27T14:26:22Z</time>
      </trkpt>
      <trkpt lat="45.63847" lon="6.80167">
        <ele>1562.2</ele>
        <time>2021-03-27T14:26:23Z</time>
      </trkpt>
      <trkpt lat="45.63846" lon="6.80171">
        <ele>1561.6</ele>
        <time>2021-03-27T14:26:24Z</time>
      </trkpt>
      <trkpt lat="45.63846" lon="6.80176">
        <ele>1560.9</ele>
        <time>2021-03-27T14:26:25Z</time>
      </trkpt>
      <trkpt lat="45.63847" lon="6.80181">
        <ele>1560.3</ele>
        <time>2021-03-27T14:26:26Z</time>
      </trkpt>
      <trkpt lat="45.63847" lon="6.80185">
        <ele>1559.5</ele>
        <time>2021-03-27T14:26:27Z</time>
      </trkpt>
      <trkpt lat="45.63848" lon="6.80186">
        <ele>1559.4</ele>
        <time>2021-03-27T14:26:28Z</time>
      </trkpt>
      <trkpt lat="45.63848" lon="6.80188">
        <ele>1559</ele>
        <time>2021-03-27T14:26:29Z</time>
      </trkpt>
      <trkpt lat="45.63848" lon="6.8019">
        <ele>1558.8</ele>
        <time>2021-03-27T14:26:30Z</time>
      </trkpt>
      <trkpt lat="45.63848" lon="6.80191">
        <ele>1558.6</ele>
        <time>2021-03-27T14:26:31Z</time>
      </trkpt>
      <trkpt lat="45.63848" lon="6.80193">
        <ele>1558.3</ele>
        <time>2021-03-27T14:26:32Z</time>
      </trkpt>
      <trkpt lat="45.63848" lon="6.80196">
        <ele>1557.9</ele>
        <time>2021-03-27T14:26:33Z</time>
      </trkpt>
      <trkpt lat="45.63848" lon="6.802">
        <ele>1557.2</ele>
        <time>2021-03-27T14:26:34Z</time>
      </trkpt>
      <trkpt lat="45.63849" lon="6.80205">
        <ele>1556.5</ele>
        <time>2021-03-27T14:26:35Z</time>
      </trkpt>
      <trkpt lat="45.63849" lon="6.80209">
        <ele>1555.9</ele>
        <time>2021-03-27T14:26:36Z</time>
      </trkpt>
      <trkpt lat="45.63849" lon="6.80214">
        <ele>1555.2</ele>
        <time>2021-03-27T14:26:37Z</time>
      </trkpt>
      <trkpt lat="45.63849" lon="6.80215">
        <ele>1555</ele>
        <time>2021-03-27T14:26:38Z</time>
      </trkpt>
      <trkpt lat="45.63849" lon="6.80221">
        <ele>1554.3</ele>
        <time>2021-03-27T14:26:39Z</time>
      </trkpt>
      <trkpt lat="45.63849" lon="6.80227">
        <ele>1553.5</ele>
        <time>2021-03-27T14:26:40Z</time>
      </trkpt>
      <trkpt lat="45.63849" lon="6.8023">
        <ele>1553.1</ele>
        <time>2021-03-27T14:26:41Z</time>
      </trkpt>
      <trkpt lat="45.63849" lon="6.80231">
        <ele>1552.9</ele>
        <time>2021-03-27T14:26:42Z</time>
      </trkpt>
      <trkpt lat="45.63849" lon="6.80232">
        <ele>1552.8</ele>
        <time>2021-03-27T14:26:43Z</time>
      </trkpt>
      <trkpt lat="45.63848" lon="6.80233">
        <ele>1552.7</ele>
        <time>2021-03-27T14:26:44Z</time>
      </trkpt>
      <trkpt lat="45.63848" lon="6.80233">
        <ele>1552.6</ele>
        <time>2021-03-27T14:26:45Z</time>
      </trkpt>
      <trkpt lat="45.63847" lon="6.80234">
        <ele>1552.4</ele>
        <time>2021-03-27T14:26:46Z</time>
      </trkpt>
      <trkpt lat="45.63847" lon="6.80235">
        <ele>1552.3</ele>
        <time>2021-03-27T14:26:47Z</time>
      </trkpt>
      <trkpt lat="45.63846" lon="6.80235">
        <ele>1552.2</ele>
        <time>2021-03-27T14:26:48Z</time>
      </trkpt>
      <trkpt lat="45.63846" lon="6.80241">
        <ele>1551.5</ele>
        <time>2021-03-27T14:26:49Z</time>
      </trkpt>
      <trkpt lat="45.63848" lon="6.80252">
        <ele>1549.9</ele>
        <time>2021-03-27T14:26:50Z</time>
      </trkpt>
      <trkpt lat="45.6385" lon="6.80257">
        <ele>1549</ele>
        <time>2021-03-27T14:26:51Z</time>
      </trkpt>
      <trkpt lat="45.63854" lon="6.80261">
        <ele>1548</ele>
        <time>2021-03-27T14:26:52Z</time>
      </trkpt>
      <trkpt lat="45.63856" lon="6.80262">
        <ele>1547.4</ele>
        <time>2021-03-27T14:26:53Z</time>
      </trkpt>
      <trkpt lat="45.63856" lon="6.80263">
        <ele>1547.3</ele>
        <time>2021-03-27T14:26:54Z</time>
      </trkpt>
      <trkpt lat="45.63857" lon="6.80263">
        <ele>1547.1</ele>
        <time>2021-03-27T14:26:55Z</time>
      </trkpt>
      <trkpt lat="45.63857" lon="6.80264">
        <ele>1547</ele>
        <time>2021-03-27T14:26:56Z</time>
      </trkpt>
      <trkpt lat="45.63857" lon="6.80265">
        <ele>1546.8</ele>
        <time>2021-03-27T14:26:57Z</time>
      </trkpt>
      <trkpt lat="45.63858" lon="6.80266">
        <ele>1546.7</ele>
        <time>2021-03-27T14:26:58Z</time>
      </trkpt>
      <trkpt lat="45.63858" lon="6.80266">
        <ele>1546.5</ele>
        <time>2021-03-27T14:26:59Z</time>
      </trkpt>
      <trkpt lat="45.63858" lon="6.80267">
        <ele>1546.4</ele>
        <time>2021-03-27T14:27:00Z</time>
      </trkpt>
      <trkpt lat="45.63859" lon="6.80268">
        <ele>1546.3</ele>
        <time>2021-03-27T14:27:01Z</time>
      </trkpt>
      <trkpt lat="45.63859" lon="6.80269">
        <ele>1546.1</ele>
        <time>2021-03-27T14:27:02Z</time>
      </trkpt>
      <trkpt lat="45.63859" lon="6.80269">
        <ele>1546</ele>
        <time>2021-03-27T14:27:03Z</time>
      </trkpt>
      <trkpt lat="45.63859" lon="6.8027">
        <ele>1545.9</ele>
        <time>2021-03-27T14:27:04Z</time>
      </trkpt>
      <trkpt lat="45.6386" lon="6.80271">
        <ele>1545.7</ele>
        <time>2021-03-27T14:28:13Z</time>
      </trkpt>
      <trkpt lat="45.6386" lon="6.80272">
        <ele>1545.6</ele>
        <time>2021-03-27T14:28:14Z</time>
      </trkpt>
      <trkpt lat="45.6386" lon="6.80272">
        <ele>1545.5</ele>
        <time>2021-03-27T14:28:15Z</time>
      </trkpt>
      <trkpt lat="45.63861" lon="6.80274">
        <ele>1545.2</ele>
        <time>2021-03-27T14:28:16Z</time>
      </trkpt>
      <trkpt lat="45.63861" lon="6.80275">
        <ele>1545</ele>
        <time>2021-03-27T14:28:17Z</time>
      </trkpt>
      <trkpt lat="45.63862" lon="6.80277">
        <ele>1544.7</ele>
        <time>2021-03-27T14:28:18Z</time>
      </trkpt>
      <trkpt lat="45.63862" lon="6.80277">
        <ele>1544.6</ele>
        <time>2021-03-27T14:28:19Z</time>
      </trkpt>
      <trkpt lat="45.63863" lon="6.80278">
        <ele>1544.4</ele>
        <time>2021-03-27T14:28:20Z</time>
      </trkpt>
      <trkpt lat="45.63864" lon="6.80279">
        <ele>1544.2</ele>
        <time>2021-03-27T14:28:21Z</time>
      </trkpt>
      <trkpt lat="45.63864" lon="6.80279">
        <ele>1544.1</ele>
        <time>2021-03-27T14:28:22Z</time>
      </trkpt>
      <trkpt lat="45.63865" lon="6.8028">
        <ele>1543.9</ele>
        <time>2021-03-27T14:28:23Z</time>
      </trkpt>
      <trkpt lat="45.63866" lon="6.8028">
        <ele>1543.7</ele>
        <time>2021-03-27T14:28:24Z</time>
      </trkpt>
      <trkpt lat="45.63866" lon="6.80281">
        <ele>1543.5</ele>
        <time>2021-03-27T14:28:25Z</time>
      </trkpt>
      <trkpt lat="45.63867" lon="6.80283">
        <ele>1543.3</ele>
        <time>2021-03-27T14:28:26Z</time>
      </trkpt>
      <trkpt lat="45.63867" lon="6.80284">
        <ele>1543.1</ele>
        <time>2021-03-27T14:28:27Z</time>
      </trkpt>
      <trkpt lat="45.63868" lon="6.80284">
        <ele>1543</ele>
        <time>2021-03-27T14:28:28Z</time>
      </trkpt>
      <trkpt lat="45.63868" lon="6.80286">
        <ele>1542.8</ele>
        <time>2021-03-27T14:28:29Z</time>
      </trkpt>
      <trkpt lat="45.63869" lon="6.80286">
        <ele>1542.6</ele>
        <time>2021-03-27T14:28:30Z</time>
      </trkpt>
      <trkpt lat="45.63869" lon="6.80286">
        <ele>1542.5</ele>
        <time>2021-03-27T14:28:31Z</time>
      </trkpt>
      <trkpt lat="45.63869" lon="6.80287">
        <ele>1542.5</ele>
        <time>2021-03-27T14:28:32Z</time>
      </trkpt>
      <trkpt lat="45.6387" lon="6.80287">
        <ele>1542.4</ele>
        <time>2021-03-27T14:28:33Z</time>
      </trkpt>
      <trkpt lat="45.6387" lon="6.80287">
        <ele>1542.3</ele>
        <time>2021-03-27T14:28:34Z</time>
      </trkpt>
      <trkpt lat="45.6387" lon="6.80287">
        <ele>1542.3</ele>
        <time>2021-03-27T14:28:35Z</time>
      </trkpt>
      <trkpt lat="45.63871" lon="6.80287">
        <ele>1542.2</ele>
        <time>2021-03-27T14:28:36Z</time>
      </trkpt>
      <trkpt lat="45.63871" lon="6.80287">
        <ele>1542.1</ele>
        <time>2021-03-27T14:28:37Z</time>
      </trkpt>
      <trkpt lat="45.63871" lon="6.80287">
        <ele>1542.1</ele>
        <time>2021-03-27T14:28:38Z</time>
      </trkpt>
      <trkpt lat="45.63871" lon="6.80287">
        <ele>1542</ele>
        <time>2021-03-27T14:28:39Z</time>
      </trkpt>
      <trkpt lat="45.63872" lon="6.80287">
        <ele>1541.9</ele>
        <time>2021-03-27T14:28:40Z</time>
      </trkpt>
      <trkpt lat="45.63872" lon="6.80287">
        <ele>1541.9</ele>
        <time>2021-03-27T14:28:41Z</time>
      </trkpt>
      <trkpt lat="45.63872" lon="6.80287">
        <ele>1541.8</ele>
        <time>2021-03-27T14:28:41Z</time>
      </trkpt>
      <trkpt lat="45.63873" lon="6.80289">
        <ele>1541.5</ele>
        <time>2021-03-27T14:28:42Z</time>
      </trkpt>
      <trkpt lat="45.63873" lon="6.8029">
        <ele>1541.3</ele>
        <time>2021-03-27T14:28:43Z</time>
      </trkpt>
      <trkpt lat="45.63874" lon="6.80292">
        <ele>1541</ele>
        <time>2021-03-27T14:28:44Z</time>
      </trkpt>
      <trkpt lat="45.63875" lon="6.80293">
        <ele>1540.7</ele>
        <time>2021-03-27T14:28:45Z</time>
      </trkpt>
      <trkpt lat="45.63875" lon="6.80294">
        <ele>1540.4</ele>
        <time>2021-03-27T14:28:46Z</time>
      </trkpt>
      <trkpt lat="45.63876" lon="6.80296">
        <ele>1540.2</ele>
        <time>2021-03-27T14:28:47Z</time>
      </trkpt>
      <trkpt lat="45.63876" lon="6.80297">
        <ele>1539.9</ele>
        <time>2021-03-27T14:28:48Z</time>
      </trkpt>
      <trkpt lat="45.63876" lon="6.80299">
        <ele>1539.6</ele>
        <time>2021-03-27T14:28:49Z</time>
      </trkpt>
      <trkpt lat="45.63876" lon="6.803">
        <ele>1539.3</ele>
        <time>2021-03-27T14:28:50Z</time>
      </trkpt>
      <trkpt lat="45.63876" lon="6.80302">
        <ele>1539.1</ele>
        <time>2021-03-27T14:28:51Z</time>
      </trkpt>
      <trkpt lat="45.63876" lon="6.80303">
        <ele>1538.8</ele>
        <time>2021-03-27T14:28:52Z</time>
      </trkpt>
      <trkpt lat="45.63876" lon="6.80304">
        <ele>1538.6</ele>
        <time>2021-03-27T14:28:53Z</time>
      </trkpt>
      <trkpt lat="45.63876" lon="6.80306">
        <ele>1535.4</ele>
        <time>2021-03-27T14:28:54Z</time>
      </trkpt>
      <trkpt lat="45.63876" lon="6.80307">
        <ele>1536.8</ele>
        <time>2021-03-27T14:28:55Z</time>
      </trkpt>
      <trkpt lat="45.63876" lon="6.80308">
        <ele>1536.9</ele>
        <time>2021-03-27T14:28:56Z</time>
      </trkpt>
      <trkpt lat="45.63875" lon="6.8031">
        <ele>1537.2</ele>
        <time>2021-03-27T14:28:57Z</time>
      </trkpt>
      <trkpt lat="45.63875" lon="6.80311">
        <ele>1537.3</ele>
        <time>2021-03-27T14:28:58Z</time>
      </trkpt>
      <trkpt lat="45.63874" lon="6.80312">
        <ele>1537.6</ele>
        <time>2021-03-27T14:28:59Z</time>
      </trkpt>
      <trkpt lat="45.63872" lon="6.80312">
        <ele>1537.9</ele>
        <time>2021-03-27T14:29:00Z</time>
      </trkpt>
      <trkpt lat="45.63871" lon="6.8031">
        <ele>1538.3</ele>
        <time>2021-03-27T14:29:01Z</time>
      </trkpt>
      <trkpt lat="45.6387" lon="6.80309">
        <ele>1538.4</ele>
        <time>2021-03-27T14:29:02Z</time>
      </trkpt>
      <trkpt lat="45.6387" lon="6.80308">
        <ele>1538.6</ele>
        <time>2021-03-27T14:29:03Z</time>
      </trkpt>
      <trkpt lat="45.6387" lon="6.80306">
        <ele>1538.9</ele>
        <time>2021-03-27T14:29:04Z</time>
      </trkpt>
      <trkpt lat="45.63869" lon="6.80304">
        <ele>1539.2</ele>
        <time>2021-03-27T14:29:05Z</time>
      </trkpt>
      <trkpt lat="45.63869" lon="6.80302">
        <ele>1539.4</ele>
        <time>2021-03-27T14:29:06Z</time>
      </trkpt>
      <trkpt lat="45.63868" lon="6.803">
        <ele>1539.7</ele>
        <time>2021-03-27T14:29:07Z</time>
      </trkpt>
      <trkpt lat="45.63868" lon="6.80298">
        <ele>1539.9</ele>
        <time>2021-03-27T14:29:08Z</time>
      </trkpt>
      <trkpt lat="45.63868" lon="6.80296">
        <ele>1540.2</ele>
        <time>2021-03-27T14:29:09Z</time>
      </trkpt>
      <trkpt lat="45.63868" lon="6.80293">
        <ele>1540.5</ele>
        <time>2021-03-27T14:29:10Z</time>
      </trkpt>
      <trkpt lat="45.63868" lon="6.80291">
        <ele>1540.8</ele>
        <time>2021-03-27T14:29:11Z</time>
      </trkpt>
      <trkpt lat="45.63867" lon="6.80288">
        <ele>1541.1</ele>
        <time>2021-03-27T14:29:12Z</time>
      </trkpt>
      <trkpt lat="45.63867" lon="6.80287">
        <ele>1541.3</ele>
        <time>2021-03-27T14:29:13Z</time>
      </trkpt>
      <trkpt lat="45.63866" lon="6.80286">
        <ele>1541.5</ele>
        <time>2021-03-27T14:29:14Z</time>
      </trkpt>
      <trkpt lat="45.63866" lon="6.80285">
        <ele>1541.7</ele>
        <time>2021-03-27T14:29:15Z</time>
      </trkpt>
      <trkpt lat="45.63865" lon="6.80284">
        <ele>1541.9</ele>
        <time>2021-03-27T14:29:16Z</time>
      </trkpt>
      <trkpt lat="45.63864" lon="6.80283">
        <ele>1542.1</ele>
        <time>2021-03-27T14:29:17Z</time>
      </trkpt>
      <trkpt lat="45.63863" lon="6.80282">
        <ele>1542.3</ele>
        <time>2021-03-27T14:29:18Z</time>
      </trkpt>
      <trkpt lat="45.63862" lon="6.8028">
        <ele>1542.6</ele>
        <time>2021-03-27T14:29:19Z</time>
      </trkpt>
      <trkpt lat="45.63861" lon="6.80279">
        <ele>1542.6</ele>
        <time>2021-03-27T14:29:20Z</time>
      </trkpt>
      <trkpt lat="45.6386" lon="6.80278">
        <ele>1542.5</ele>
        <time>2021-03-27T14:29:21Z</time>
      </trkpt>
      <trkpt lat="45.63859" lon="6.80277">
        <ele>1542.4</ele>
        <time>2021-03-27T14:29:22Z</time>
      </trkpt>
      <trkpt lat="45.63858" lon="6.80276">
        <ele>1542.4</ele>
        <time>2021-03-27T14:29:23Z</time>
      </trkpt>
      <trkpt lat="45.63857" lon="6.80275">
        <ele>1542.2</ele>
        <time>2021-03-27T14:29:24Z</time>
      </trkpt>
      <trkpt lat="45.63856" lon="6.80273">
        <ele>1542.1</ele>
        <time>2021-03-27T14:29:25Z</time>
      </trkpt>
      <trkpt lat="45.63855" lon="6.80272">
        <ele>1542.1</ele>
        <time>2021-03-27T14:29:26Z</time>
      </trkpt>
      <trkpt lat="45.63855" lon="6.80271">
        <ele>1542</ele>
        <time>2021-03-27T14:29:27Z</time>
      </trkpt>
      <trkpt lat="45.63854" lon="6.80269">
        <ele>1541.9</ele>
        <time>2021-03-27T14:29:28Z</time>
      </trkpt>
      <trkpt lat="45.63853" lon="6.80268">
        <ele>1541.8</ele>
        <time>2021-03-27T14:29:29Z</time>
      </trkpt>
      <trkpt lat="45.63852" lon="6.80267">
        <ele>1541.7</ele>
        <time>2021-03-27T14:29:30Z</time>
      </trkpt>
      <trkpt lat="45.6385" lon="6.80265">
        <ele>1541.5</ele>
        <time>2021-03-27T14:29:31Z</time>
      </trkpt>
      <trkpt lat="45.6385" lon="6.80265">
        <ele>1541.4</ele>
        <time>2021-03-27T14:29:32Z</time>
      </trkpt>
      <trkpt lat="45.63849" lon="6.80264">
        <ele>1541.3</ele>
        <time>2021-03-27T14:29:33Z</time>
      </trkpt>
      <trkpt lat="45.63848" lon="6.80263">
        <ele>1541.2</ele>
        <time>2021-03-27T14:29:34Z</time>
      </trkpt>
      <trkpt lat="45.63847" lon="6.80262">
        <ele>1541.1</ele>
        <time>2021-03-27T14:29:35Z</time>
      </trkpt>
      <trkpt lat="45.63846" lon="6.80261">
        <ele>1541</ele>
        <time>2021-03-27T14:29:36Z</time>
      </trkpt>
      <trkpt lat="45.63845" lon="6.80261">
        <ele>1540.9</ele>
        <time>2021-03-27T14:29:37Z</time>
      </trkpt>
      <trkpt lat="45.63844" lon="6.8026">
        <ele>1540.8</ele>
        <time>2021-03-27T14:29:38Z</time>
      </trkpt>
      <trkpt lat="45.63843" lon="6.8026">
        <ele>1540.7</ele>
        <time>2021-03-27T14:29:39Z</time>
      </trkpt>
      <trkpt lat="45.63842" lon="6.80258">
        <ele>1540.5</ele>
        <time>2021-03-27T14:29:40Z</time>
      </trkpt>
      <trkpt lat="45.63841" lon="6.80257">
        <ele>1540.4</ele>
        <time>2021-03-27T14:29:41Z</time>
      </trkpt>
      <trkpt lat="45.63839" lon="6.80255">
        <ele>1540.1</ele>
        <time>2021-03-27T14:29:42Z</time>
      </trkpt>
      <trkpt lat="45.63839" lon="6.80255">
        <ele>1540.1</ele>
        <time>2021-03-27T14:29:43Z</time>
      </trkpt>
      <trkpt lat="45.63838" lon="6.80254">
        <ele>1540</ele>
        <time>2021-03-27T14:29:44Z</time>
      </trkpt>
      <trkpt lat="45.63837" lon="6.80252">
        <ele>1539.8</ele>
        <time>2021-03-27T14:29:45Z</time>
      </trkpt>
      <trkpt lat="45.63837" lon="6.8025">
        <ele>1539.7</ele>
        <time>2021-03-27T14:29:46Z</time>
      </trkpt>
      <trkpt lat="45.63836" lon="6.80247">
        <ele>1539.5</ele>
        <time>2021-03-27T14:29:47Z</time>
      </trkpt>
      <trkpt lat="45.63836" lon="6.80246">
        <ele>1539.4</ele>
        <time>2021-03-27T14:29:48Z</time>
      </trkpt>
      <trkpt lat="45.63836" lon="6.80245">
        <ele>1539.4</ele>
        <time>2021-03-27T14:29:49Z</time>
      </trkpt>
      <trkpt lat="45.63835" lon="6.80242">
        <ele>1539.2</ele>
        <time>2021-03-27T14:29:50Z</time>
      </trkpt>
      <trkpt lat="45.63835" lon="6.80241">
        <ele>1539.1</ele>
        <time>2021-03-27T14:29:51Z</time>
      </trkpt>
      <trkpt lat="45.63834" lon="6.8024">
        <ele>1539</ele>
        <time>2021-03-27T14:29:52Z</time>
      </trkpt>
      <trkpt lat="45.63834" lon="6.80238">
        <ele>1538.8</ele>
        <time>2021-03-27T14:29:53Z</time>
      </trkpt>
      <trkpt lat="45.63833" lon="6.80236">
        <ele>1538.7</ele>
        <time>2021-03-27T14:29:54Z</time>
      </trkpt>
      <trkpt lat="45.63832" lon="6.80235">
        <ele>1538.6</ele>
        <time>2021-03-27T14:29:55Z</time>
      </trkpt>
      <trkpt lat="45.63832" lon="6.80233">
        <ele>1538.5</ele>
        <time>2021-03-27T14:29:56Z</time>
      </trkpt>
      <trkpt lat="45.63831" lon="6.80232">
        <ele>1538.4</ele>
        <time>2021-03-27T14:29:57Z</time>
      </trkpt>
      <trkpt lat="45.63831" lon="6.80231">
        <ele>1538.3</ele>
        <time>2021-03-27T14:29:58Z</time>
      </trkpt>
      <trkpt lat="45.63831" lon="6.80229">
        <ele>1538.2</ele>
        <time>2021-03-27T14:29:59Z</time>
      </trkpt>
      <trkpt lat="45.6383" lon="6.80228">
        <ele>1538.1</ele>
        <time>2021-03-27T14:30:00Z</time>
      </trkpt>
      <trkpt lat="45.6383" lon="6.80226">
        <ele>1538</ele>
        <time>2021-03-27T14:30:01Z</time>
      </trkpt>
      <trkpt lat="45.63829" lon="6.80225">
        <ele>1537.9</ele>
        <time>2021-03-27T14:30:02Z</time>
      </trkpt>
      <trkpt lat="45.63828" lon="6.80224">
        <ele>1537.8</ele>
        <time>2021-03-27T14:30:03Z</time>
      </trkpt>
      <trkpt lat="45.63828" lon="6.80223">
        <ele>1537.8</ele>
        <time>2021-03-27T14:30:04Z</time>
      </trkpt>
      <trkpt lat="45.63827" lon="6.80222">
        <ele>1537.7</ele>
        <time>2021-03-27T14:30:05Z</time>
      </trkpt>
      <trkpt lat="45.63827" lon="6.8022">
        <ele>1537.6</ele>
        <time>2021-03-27T14:30:06Z</time>
      </trkpt>
      <trkpt lat="45.63826" lon="6.80217">
        <ele>1537.4</ele>
        <time>2021-03-27T14:30:07Z</time>
      </trkpt>
      <trkpt lat="45.63826" lon="6.80216">
        <ele>1537.3</ele>
        <time>2021-03-27T14:30:08Z</time>
      </trkpt>
      <trkpt lat="45.63826" lon="6.80214">
        <ele>1537.2</ele>
        <time>2021-03-27T14:30:09Z</time>
      </trkpt>
      <trkpt lat="45.63826" lon="6.80213">
        <ele>1537.1</ele>
        <time>2021-03-27T14:30:10Z</time>
      </trkpt>
      <trkpt lat="45.63826" lon="6.80211">
        <ele>1537</ele>
        <time>2021-03-27T14:30:11Z</time>
      </trkpt>
      <trkpt lat="45.63826" lon="6.80208">
        <ele>1536.8</ele>
        <time>2021-03-27T14:30:12Z</time>
      </trkpt>
      <trkpt lat="45.63826" lon="6.80207">
        <ele>1536.7</ele>
        <time>2021-03-27T14:30:13Z</time>
      </trkpt>
      <trkpt lat="45.63826" lon="6.80205">
        <ele>1536.6</ele>
        <time>2021-03-27T14:30:14Z</time>
      </trkpt>
      <trkpt lat="45.63826" lon="6.80204">
        <ele>1536.5</ele>
        <time>2021-03-27T14:30:15Z</time>
      </trkpt>
      <trkpt lat="45.63825" lon="6.80202">
        <ele>1536.4</ele>
        <time>2021-03-27T14:30:16Z</time>
      </trkpt>
      <trkpt lat="45.63824" lon="6.802">
        <ele>1536.2</ele>
        <time>2021-03-27T14:30:17Z</time>
      </trkpt>
      <trkpt lat="45.63823" lon="6.80199">
        <ele>1536.1</ele>
        <time>2021-03-27T14:30:18Z</time>
      </trkpt>
      <trkpt lat="45.63822" lon="6.80199">
        <ele>1536</ele>
        <time>2021-03-27T14:30:19Z</time>
      </trkpt>
      <trkpt lat="45.63821" lon="6.80196">
        <ele>1535.8</ele>
        <time>2021-03-27T14:30:20Z</time>
      </trkpt>
      <trkpt lat="45.63821" lon="6.80195">
        <ele>1535.7</ele>
        <time>2021-03-27T14:30:21Z</time>
      </trkpt>
      <trkpt lat="45.6382" lon="6.80194">
        <ele>1535.6</ele>
        <time>2021-03-27T14:30:22Z</time>
      </trkpt>
      <trkpt lat="45.6382" lon="6.80192">
        <ele>1535.5</ele>
        <time>2021-03-27T14:30:23Z</time>
      </trkpt>
      <trkpt lat="45.63819" lon="6.8019">
        <ele>1535.4</ele>
        <time>2021-03-27T14:30:24Z</time>
      </trkpt>
      <trkpt lat="45.63819" lon="6.80187">
        <ele>1535.2</ele>
        <time>2021-03-27T14:30:25Z</time>
      </trkpt>
      <trkpt lat="45.63818" lon="6.80186">
        <ele>1535.1</ele>
        <time>2021-03-27T14:30:26Z</time>
      </trkpt>
      <trkpt lat="45.63818" lon="6.80185">
        <ele>1535.1</ele>
        <time>2021-03-27T14:30:27Z</time>
      </trkpt>
      <trkpt lat="45.63817" lon="6.80182">
        <ele>1534.9</ele>
        <time>2021-03-27T14:30:28Z</time>
      </trkpt>
      <trkpt lat="45.63817" lon="6.80181">
        <ele>1534.8</ele>
        <time>2021-03-27T14:30:29Z</time>
      </trkpt>
      <trkpt lat="45.63816" lon="6.8018">
        <ele>1534.8</ele>
        <time>2021-03-27T14:30:30Z</time>
      </trkpt>
      <trkpt lat="45.63815" lon="6.80177">
        <ele>1534.6</ele>
        <time>2021-03-27T14:30:31Z</time>
      </trkpt>
      <trkpt lat="45.63815" lon="6.80176">
        <ele>1534.5</ele>
        <time>2021-03-27T14:30:32Z</time>
      </trkpt>
      <trkpt lat="45.63814" lon="6.80175">
        <ele>1534.5</ele>
        <time>2021-03-27T14:30:33Z</time>
      </trkpt>
      <trkpt lat="45.63813" lon="6.80174">
        <ele>1534.3</ele>
        <time>2021-03-27T14:30:34Z</time>
      </trkpt>
      <trkpt lat="45.63812" lon="6.80173">
        <ele>1534.2</ele>
        <time>2021-03-27T14:30:35Z</time>
      </trkpt>
      <trkpt lat="45.6381" lon="6.80171">
        <ele>1534.1</ele>
        <time>2021-03-27T14:30:36Z</time>
      </trkpt>
      <trkpt lat="45.6381" lon="6.8017">
        <ele>1534</ele>
        <time>2021-03-27T14:30:37Z</time>
      </trkpt>
      <trkpt lat="45.63809" lon="6.80169">
        <ele>1533.9</ele>
        <time>2021-03-27T14:30:38Z</time>
      </trkpt>
      <trkpt lat="45.63809" lon="6.80167">
        <ele>1533.8</ele>
        <time>2021-03-27T14:30:39Z</time>
      </trkpt>
      <trkpt lat="45.63809" lon="6.80165">
        <ele>1533.7</ele>
        <time>2021-03-27T14:30:40Z</time>
      </trkpt>
      <trkpt lat="45.63808" lon="6.80163">
        <ele>1533.5</ele>
        <time>2021-03-27T14:30:41Z</time>
      </trkpt>
      <trkpt lat="45.63808" lon="6.80161">
        <ele>1533.4</ele>
        <time>2021-03-27T14:30:42Z</time>
      </trkpt>
      <trkpt lat="45.63807" lon="6.80158">
        <ele>1533.2</ele>
        <time>2021-03-27T14:30:43Z</time>
      </trkpt>
      <trkpt lat="45.63807" lon="6.80156">
        <ele>1533.2</ele>
        <time>2021-03-27T14:30:44Z</time>
      </trkpt>
      <trkpt lat="45.63807" lon="6.80155">
        <ele>1533.1</ele>
        <time>2021-03-27T14:30:45Z</time>
      </trkpt>
      <trkpt lat="45.63807" lon="6.80153">
        <ele>1533</ele>
        <time>2021-03-27T14:30:46Z</time>
      </trkpt>
      <trkpt lat="45.63807" lon="6.80151">
        <ele>1532.8</ele>
        <time>2021-03-27T14:30:47Z</time>
      </trkpt>
      <trkpt lat="45.63806" lon="6.80149">
        <ele>1532.7</ele>
        <time>2021-03-27T14:30:48Z</time>
      </trkpt>
      <trkpt lat="45.63806" lon="6.80146">
        <ele>1532.5</ele>
        <time>2021-03-27T14:30:49Z</time>
      </trkpt>
      <trkpt lat="45.63806" lon="6.80144">
        <ele>1532.4</ele>
        <time>2021-03-27T14:30:50Z</time>
      </trkpt>
      <trkpt lat="45.63806" lon="6.80143">
        <ele>1532.3</ele>
        <time>2021-03-27T14:30:51Z</time>
      </trkpt>
      <trkpt lat="45.63805" lon="6.80141">
        <ele>1532.2</ele>
        <time>2021-03-27T14:30:52Z</time>
      </trkpt>
      <trkpt lat="45.63805" lon="6.80139">
        <ele>1532.1</ele>
        <time>2021-03-27T14:30:53Z</time>
      </trkpt>
      <trkpt lat="45.63805" lon="6.80138">
        <ele>1532</ele>
        <time>2021-03-27T14:30:54Z</time>
      </trkpt>
      <trkpt lat="45.63805" lon="6.80136">
        <ele>1531.9</ele>
        <time>2021-03-27T14:30:55Z</time>
      </trkpt>
      <trkpt lat="45.63805" lon="6.80133">
        <ele>1531.8</ele>
        <time>2021-03-27T14:30:56Z</time>
      </trkpt>
      <trkpt lat="45.63805" lon="6.80131">
        <ele>1531.6</ele>
        <time>2021-03-27T14:30:57Z</time>
      </trkpt>
      <trkpt lat="45.63805" lon="6.80129">
        <ele>1531.5</ele>
        <time>2021-03-27T14:30:58Z</time>
      </trkpt>
      <trkpt lat="45.63805" lon="6.80127">
        <ele>1531.4</ele>
        <time>2021-03-27T14:30:59Z</time>
      </trkpt>
      <trkpt lat="45.63805" lon="6.80125">
        <ele>1531.3</ele>
        <time>2021-03-27T14:31:00Z</time>
      </trkpt>
      <trkpt lat="45.63805" lon="6.80123">
        <ele>1531.2</ele>
        <time>2021-03-27T14:31:01Z</time>
      </trkpt>
      <trkpt lat="45.63804" lon="6.80122">
        <ele>1531.2</ele>
        <time>2021-03-27T14:31:02Z</time>
      </trkpt>
      <trkpt lat="45.63804" lon="6.80121">
        <ele>1531.1</ele>
        <time>2021-03-27T14:31:03Z</time>
      </trkpt>
      <trkpt lat="45.63803" lon="6.80118">
        <ele>1530.9</ele>
        <time>2021-03-27T14:31:04Z</time>
      </trkpt>
      <trkpt lat="45.63802" lon="6.80117">
        <ele>1530.8</ele>
        <time>2021-03-27T14:31:05Z</time>
      </trkpt>
      <trkpt lat="45.63802" lon="6.80116">
        <ele>1530.8</ele>
        <time>2021-03-27T14:31:06Z</time>
      </trkpt>
      <trkpt lat="45.63801" lon="6.80114">
        <ele>1530.6</ele>
        <time>2021-03-27T14:31:07Z</time>
      </trkpt>
      <trkpt lat="45.638" lon="6.80113">
        <ele>1530.5</ele>
        <time>2021-03-27T14:31:08Z</time>
      </trkpt>
      <trkpt lat="45.63799" lon="6.80111">
        <ele>1530.4</ele>
        <time>2021-03-27T14:31:09Z</time>
      </trkpt>
      <trkpt lat="45.63799" lon="6.80108">
        <ele>1530.3</ele>
        <time>2021-03-27T14:31:10Z</time>
      </trkpt>
      <trkpt lat="45.63799" lon="6.80106">
        <ele>1530.2</ele>
        <time>2021-03-27T14:31:11Z</time>
      </trkpt>
      <trkpt lat="45.63798" lon="6.80105">
        <ele>1530</ele>
        <time>2021-03-27T14:31:12Z</time>
      </trkpt>
      <trkpt lat="45.63798" lon="6.80103">
        <ele>1529.9</ele>
        <time>2021-03-27T14:31:13Z</time>
      </trkpt>
      <trkpt lat="45.63797" lon="6.80101">
        <ele>1529.8</ele>
        <time>2021-03-27T14:31:14Z</time>
      </trkpt>
      <trkpt lat="45.63797" lon="6.80099">
        <ele>1529.7</ele>
        <time>2021-03-27T14:31:15Z</time>
      </trkpt>
      <trkpt lat="45.63796" lon="6.80096">
        <ele>1529.5</ele>
        <time>2021-03-27T14:31:16Z</time>
      </trkpt>
      <trkpt lat="45.63796" lon="6.80094">
        <ele>1529.4</ele>
        <time>2021-03-27T14:31:17Z</time>
      </trkpt>
      <trkpt lat="45.63796" lon="6.80092">
        <ele>1529.2</ele>
        <time>2021-03-27T14:31:18Z</time>
      </trkpt>
      <trkpt lat="45.63796" lon="6.80089">
        <ele>1529</ele>
        <time>2021-03-27T14:31:19Z</time>
      </trkpt>
      <trkpt lat="45.63796" lon="6.80088">
        <ele>1529</ele>
        <time>2021-03-27T14:31:20Z</time>
      </trkpt>
      <trkpt lat="45.63796" lon="6.80086">
        <ele>1528.9</ele>
        <time>2021-03-27T14:31:21Z</time>
      </trkpt>
      <trkpt lat="45.63796" lon="6.80083">
        <ele>1528.7</ele>
        <time>2021-03-27T14:31:22Z</time>
      </trkpt>
      <trkpt lat="45.63796" lon="6.80082">
        <ele>1528.6</ele>
        <time>2021-03-27T14:31:23Z</time>
      </trkpt>
      <trkpt lat="45.63796" lon="6.80081">
        <ele>1528.5</ele>
        <time>2021-03-27T14:31:24Z</time>
      </trkpt>
      <trkpt lat="45.63795" lon="6.80079">
        <ele>1528.4</ele>
        <time>2021-03-27T14:31:25Z</time>
      </trkpt>
      <trkpt lat="45.63795" lon="6.80077">
        <ele>1528.3</ele>
        <time>2021-03-27T14:31:26Z</time>
      </trkpt>
      <trkpt lat="45.63795" lon="6.80075">
        <ele>1528.1</ele>
        <time>2021-03-27T14:31:27Z</time>
      </trkpt>
      <trkpt lat="45.63796" lon="6.80072">
        <ele>1528</ele>
        <time>2021-03-27T14:31:28Z</time>
      </trkpt>
      <trkpt lat="45.63796" lon="6.8007">
        <ele>1527.9</ele>
        <time>2021-03-27T14:31:29Z</time>
      </trkpt>
      <trkpt lat="45.63795" lon="6.80068">
        <ele>1527.7</ele>
        <time>2021-03-27T14:31:30Z</time>
      </trkpt>
      <trkpt lat="45.63795" lon="6.80067">
        <ele>1527.6</ele>
        <time>2021-03-27T14:31:31Z</time>
      </trkpt>
      <trkpt lat="45.63793" lon="6.80065">
        <ele>1527.5</ele>
        <time>2021-03-27T14:31:32Z</time>
      </trkpt>
      <trkpt lat="45.63792" lon="6.80064">
        <ele>1527.3</ele>
        <time>2021-03-27T14:31:33Z</time>
      </trkpt>
      <trkpt lat="45.63791" lon="6.80063">
        <ele>1527.2</ele>
        <time>2021-03-27T14:31:34Z</time>
      </trkpt>
      <trkpt lat="45.6379" lon="6.80062">
        <ele>1527.1</ele>
        <time>2021-03-27T14:31:35Z</time>
      </trkpt>
      <trkpt lat="45.63789" lon="6.8006">
        <ele>1527</ele>
        <time>2021-03-27T14:31:36Z</time>
      </trkpt>
      <trkpt lat="45.63789" lon="6.8006">
        <ele>1526.9</ele>
        <time>2021-03-27T14:31:37Z</time>
      </trkpt>
      <trkpt lat="45.63788" lon="6.80057">
        <ele>1526.7</ele>
        <time>2021-03-27T14:31:38Z</time>
      </trkpt>
      <trkpt lat="45.63788" lon="6.80056">
        <ele>1526.7</ele>
        <time>2021-03-27T14:31:39Z</time>
      </trkpt>
      <trkpt lat="45.63788" lon="6.80054">
        <ele>1526.6</ele>
        <time>2021-03-27T14:31:40Z</time>
      </trkpt>
      <trkpt lat="45.63786" lon="6.80052">
        <ele>1526.4</ele>
        <time>2021-03-27T14:31:41Z</time>
      </trkpt>
      <trkpt lat="45.63786" lon="6.80051">
        <ele>1526.3</ele>
        <time>2021-03-27T14:31:42Z</time>
      </trkpt>
      <trkpt lat="45.63785" lon="6.8005">
        <ele>1526.2</ele>
        <time>2021-03-27T14:31:43Z</time>
      </trkpt>
      <trkpt lat="45.63785" lon="6.80048">
        <ele>1526.1</ele>
        <time>2021-03-27T14:31:44Z</time>
      </trkpt>
      <trkpt lat="45.63784" lon="6.80046">
        <ele>1526</ele>
        <time>2021-03-27T14:31:45Z</time>
      </trkpt>
      <trkpt lat="45.63783" lon="6.80045">
        <ele>1525.9</ele>
        <time>2021-03-27T14:31:46Z</time>
      </trkpt>
      <trkpt lat="45.63782" lon="6.80043">
        <ele>1525.9</ele>
        <time>2021-03-27T14:31:47Z</time>
      </trkpt>
      <trkpt lat="45.63782" lon="6.80042">
        <ele>1525.8</ele>
        <time>2021-03-27T14:31:48Z</time>
      </trkpt>
      <trkpt lat="45.6378" lon="6.80041">
        <ele>1525.7</ele>
        <time>2021-03-27T14:31:49Z</time>
      </trkpt>
      <trkpt lat="45.63779" lon="6.8004">
        <ele>1525.6</ele>
        <time>2021-03-27T14:31:50Z</time>
      </trkpt>
      <trkpt lat="45.63778" lon="6.80038">
        <ele>1525.5</ele>
        <time>2021-03-27T14:31:51Z</time>
      </trkpt>
      <trkpt lat="45.63777" lon="6.80036">
        <ele>1525.4</ele>
        <time>2021-03-27T14:31:52Z</time>
      </trkpt>
      <trkpt lat="45.63776" lon="6.80034">
        <ele>1525.2</ele>
        <time>2021-03-27T14:31:53Z</time>
      </trkpt>
      <trkpt lat="45.63776" lon="6.80033">
        <ele>1525.2</ele>
        <time>2021-03-27T14:31:54Z</time>
      </trkpt>
      <trkpt lat="45.63775" lon="6.80032">
        <ele>1525.1</ele>
        <time>2021-03-27T14:31:55Z</time>
      </trkpt>
      <trkpt lat="45.63774" lon="6.8003">
        <ele>1525</ele>
        <time>2021-03-27T14:31:56Z</time>
      </trkpt>
      <trkpt lat="45.63774" lon="6.80029">
        <ele>1524.9</ele>
        <time>2021-03-27T14:31:57Z</time>
      </trkpt>
      <trkpt lat="45.63773" lon="6.80027">
        <ele>1524.8</ele>
        <time>2021-03-27T14:31:58Z</time>
      </trkpt>
      <trkpt lat="45.63773" lon="6.80025">
        <ele>1524.7</ele>
        <time>2021-03-27T14:31:59Z</time>
      </trkpt>
      <trkpt lat="45.63773" lon="6.80024">
        <ele>1524.6</ele>
        <time>2021-03-27T14:32:00Z</time>
      </trkpt>
      <trkpt lat="45.63773" lon="6.80023">
        <ele>1524.6</ele>
        <time>2021-03-27T14:32:01Z</time>
      </trkpt>
      <trkpt lat="45.63773" lon="6.80022">
        <ele>1524.5</ele>
        <time>2021-03-27T14:32:02Z</time>
      </trkpt>
      <trkpt lat="45.63772" lon="6.80021">
        <ele>1524.4</ele>
        <time>2021-03-27T14:32:03Z</time>
      </trkpt>
      <trkpt lat="45.63772" lon="6.80021">
        <ele>1524.4</ele>
        <time>2021-03-27T14:32:04Z</time>
      </trkpt>
      <trkpt lat="45.63771" lon="6.8002">
        <ele>1524.3</ele>
        <time>2021-03-27T14:32:05Z</time>
      </trkpt>
      <trkpt lat="45.63771" lon="6.8002">
        <ele>1524.2</ele>
        <time>2021-03-27T14:32:06Z</time>
      </trkpt>
      <trkpt lat="45.6377" lon="6.80019">
        <ele>1524.2</ele>
        <time>2021-03-27T14:32:07Z</time>
      </trkpt>
      <trkpt lat="45.6377" lon="6.80018">
        <ele>1524.1</ele>
        <time>2021-03-27T14:32:08Z</time>
      </trkpt>
      <trkpt lat="45.6377" lon="6.80017">
        <ele>1524.1</ele>
        <time>2021-03-27T14:32:09Z</time>
      </trkpt>
      <trkpt lat="45.63769" lon="6.80016">
        <ele>1524</ele>
        <time>2021-03-27T14:32:10Z</time>
      </trkpt>
      <trkpt lat="45.63768" lon="6.80015">
        <ele>1523.9</ele>
        <time>2021-03-27T14:32:11Z</time>
      </trkpt>
      <trkpt lat="45.63767" lon="6.80014">
        <ele>1523.7</ele>
        <time>2021-03-27T14:32:12Z</time>
      </trkpt>
      <trkpt lat="45.63766" lon="6.80013">
        <ele>1523.6</ele>
        <time>2021-03-27T14:32:13Z</time>
      </trkpt>
      <trkpt lat="45.63766" lon="6.80012">
        <ele>1523.5</ele>
        <time>2021-03-27T14:32:14Z</time>
      </trkpt>
      <trkpt lat="45.63765" lon="6.8001">
        <ele>1523.4</ele>
        <time>2021-03-27T14:32:15Z</time>
      </trkpt>
      <trkpt lat="45.63765" lon="6.80009">
        <ele>1523.3</ele>
        <time>2021-03-27T14:32:16Z</time>
      </trkpt>
      <trkpt lat="45.63765" lon="6.80008">
        <ele>1523.2</ele>
        <time>2021-03-27T14:32:17Z</time>
      </trkpt>
      <trkpt lat="45.63765" lon="6.80007">
        <ele>1523.2</ele>
        <time>2021-03-27T14:32:18Z</time>
      </trkpt>
      <trkpt lat="45.63765" lon="6.80007">
        <ele>1523.1</ele>
        <time>2021-03-27T14:32:19Z</time>
      </trkpt>
      <trkpt lat="45.63765" lon="6.80006">
        <ele>1523</ele>
        <time>2021-03-27T14:32:20Z</time>
      </trkpt>
      <trkpt lat="45.63764" lon="6.80005">
        <ele>1523</ele>
        <time>2021-03-27T14:32:21Z</time>
      </trkpt>
      <trkpt lat="45.63764" lon="6.80003">
        <ele>1522.9</ele>
        <time>2021-03-27T14:32:22Z</time>
      </trkpt>
      <trkpt lat="45.63763" lon="6.80002">
        <ele>1522.8</ele>
        <time>2021-03-27T14:32:23Z</time>
      </trkpt>
      <trkpt lat="45.63763" lon="6.8">
        <ele>1522.6</ele>
        <time>2021-03-27T14:32:24Z</time>
      </trkpt>
      <trkpt lat="45.63762" lon="6.79999">
        <ele>1522.5</ele>
        <time>2021-03-27T14:32:25Z</time>
      </trkpt>
      <trkpt lat="45.63762" lon="6.79998">
        <ele>1522.4</ele>
        <time>2021-03-27T14:32:26Z</time>
      </trkpt>
      <trkpt lat="45.63762" lon="6.79997">
        <ele>1522.4</ele>
        <time>2021-03-27T14:32:27Z</time>
      </trkpt>
      <trkpt lat="45.63761" lon="6.79995">
        <ele>1522.1</ele>
        <time>2021-03-27T14:32:28Z</time>
      </trkpt>
      <trkpt lat="45.63761" lon="6.79993">
        <ele>1522</ele>
        <time>2021-03-27T14:32:29Z</time>
      </trkpt>
      <trkpt lat="45.63761" lon="6.79992">
        <ele>1521.9</ele>
        <time>2021-03-27T14:32:30Z</time>
      </trkpt>
      <trkpt lat="45.63762" lon="6.7999">
        <ele>1521.7</ele>
        <time>2021-03-27T14:32:31Z</time>
      </trkpt>
      <trkpt lat="45.63763" lon="6.79988">
        <ele>1521.5</ele>
        <time>2021-03-27T14:32:32Z</time>
      </trkpt>
      <trkpt lat="45.63763" lon="6.79986">
        <ele>1521.3</ele>
        <time>2021-03-27T14:32:33Z</time>
      </trkpt>
      <trkpt lat="45.63764" lon="6.79984">
        <ele>1521.2</ele>
        <time>2021-03-27T14:32:34Z</time>
      </trkpt>
      <trkpt lat="45.63764" lon="6.79982">
        <ele>1521</ele>
        <time>2021-03-27T14:32:35Z</time>
      </trkpt>
      <trkpt lat="45.63764" lon="6.79981">
        <ele>1520.9</ele>
        <time>2021-03-27T14:32:36Z</time>
      </trkpt>
      <trkpt lat="45.63764" lon="6.7998">
        <ele>1520.8</ele>
        <time>2021-03-27T14:32:37Z</time>
      </trkpt>
      <trkpt lat="45.63764" lon="6.79977">
        <ele>1520.5</ele>
        <time>2021-03-27T14:32:38Z</time>
      </trkpt>
      <trkpt lat="45.63764" lon="6.79975">
        <ele>1520.4</ele>
        <time>2021-03-27T14:32:39Z</time>
      </trkpt>
      <trkpt lat="45.63763" lon="6.79974">
        <ele>1520.3</ele>
        <time>2021-03-27T14:32:40Z</time>
      </trkpt>
      <trkpt lat="45.63764" lon="6.79972">
        <ele>1520.2</ele>
        <time>2021-03-27T14:32:41Z</time>
      </trkpt>
      <trkpt lat="45.63764" lon="6.79971">
        <ele>1520.1</ele>
        <time>2021-03-27T14:32:42Z</time>
      </trkpt>
      <trkpt lat="45.63764" lon="6.7997">
        <ele>1520</ele>
        <time>2021-03-27T14:32:43Z</time>
      </trkpt>
      <trkpt lat="45.63764" lon="6.79969">
        <ele>1519.9</ele>
        <time>2021-03-27T14:32:44Z</time>
      </trkpt>
      <trkpt lat="45.63764" lon="6.79967">
        <ele>1519.8</ele>
        <time>2021-03-27T14:32:45Z</time>
      </trkpt>
      <trkpt lat="45.63763" lon="6.79966">
        <ele>1519.6</ele>
        <time>2021-03-27T14:32:46Z</time>
      </trkpt>
      <trkpt lat="45.63763" lon="6.79964">
        <ele>1519.5</ele>
        <time>2021-03-27T14:32:47Z</time>
      </trkpt>
      <trkpt lat="45.63762" lon="6.79963">
        <ele>1519.4</ele>
        <time>2021-03-27T14:32:48Z</time>
      </trkpt>
      <trkpt lat="45.63762" lon="6.79961">
        <ele>1519.2</ele>
        <time>2021-03-27T14:32:49Z</time>
      </trkpt>
      <trkpt lat="45.63761" lon="6.7996">
        <ele>1519.2</ele>
        <time>2021-03-27T14:32:50Z</time>
      </trkpt>
      <trkpt lat="45.63761" lon="6.79959">
        <ele>1519.1</ele>
        <time>2021-03-27T14:32:51Z</time>
      </trkpt>
      <trkpt lat="45.6376" lon="6.79958">
        <ele>1519</ele>
        <time>2021-03-27T14:32:52Z</time>
      </trkpt>
      <trkpt lat="45.6376" lon="6.79955">
        <ele>1518.7</ele>
        <time>2021-03-27T14:32:53Z</time>
      </trkpt>
      <trkpt lat="45.63759" lon="6.79954">
        <ele>1518.7</ele>
        <time>2021-03-27T14:32:54Z</time>
      </trkpt>
      <trkpt lat="45.63759" lon="6.79953">
        <ele>1518.6</ele>
        <time>2021-03-27T14:32:55Z</time>
      </trkpt>
      <trkpt lat="45.63759" lon="6.7995">
        <ele>1518.4</ele>
        <time>2021-03-27T14:32:56Z</time>
      </trkpt>
      <trkpt lat="45.63758" lon="6.79949">
        <ele>1518.3</ele>
        <time>2021-03-27T14:32:57Z</time>
      </trkpt>
      <trkpt lat="45.63758" lon="6.79948">
        <ele>1518.2</ele>
        <time>2021-03-27T14:32:58Z</time>
      </trkpt>
      <trkpt lat="45.63757" lon="6.79946">
        <ele>1518</ele>
        <time>2021-03-27T14:32:59Z</time>
      </trkpt>
      <trkpt lat="45.63756" lon="6.79944">
        <ele>1517.9</ele>
        <time>2021-03-27T14:33:00Z</time>
      </trkpt>
      <trkpt lat="45.63755" lon="6.79941">
        <ele>1517.7</ele>
        <time>2021-03-27T14:33:01Z</time>
      </trkpt>
      <trkpt lat="45.63755" lon="6.7994">
        <ele>1517.6</ele>
        <time>2021-03-27T14:33:02Z</time>
      </trkpt>
      <trkpt lat="45.63754" lon="6.79939">
        <ele>1517.5</ele>
        <time>2021-03-27T14:33:03Z</time>
      </trkpt>
      <trkpt lat="45.63754" lon="6.79937">
        <ele>1517.4</ele>
        <time>2021-03-27T14:33:04Z</time>
      </trkpt>
      <trkpt lat="45.63753" lon="6.79936">
        <ele>1517.2</ele>
        <time>2021-03-27T14:33:05Z</time>
      </trkpt>
      <trkpt lat="45.63752" lon="6.79933">
        <ele>1517</ele>
        <time>2021-03-27T14:33:06Z</time>
      </trkpt>
      <trkpt lat="45.63751" lon="6.79932">
        <ele>1516.9</ele>
        <time>2021-03-27T14:33:07Z</time>
      </trkpt>
      <trkpt lat="45.63751" lon="6.79931">
        <ele>1516.9</ele>
        <time>2021-03-27T14:33:08Z</time>
      </trkpt>
      <trkpt lat="45.6375" lon="6.79928">
        <ele>1516.6</ele>
        <time>2021-03-27T14:33:09Z</time>
      </trkpt>
      <trkpt lat="45.6375" lon="6.79927">
        <ele>1516.5</ele>
        <time>2021-03-27T14:33:10Z</time>
      </trkpt>
      <trkpt lat="45.6375" lon="6.79926">
        <ele>1516.4</ele>
        <time>2021-03-27T14:33:11Z</time>
      </trkpt>
      <trkpt lat="45.6375" lon="6.79924">
        <ele>1516.3</ele>
        <time>2021-03-27T14:33:12Z</time>
      </trkpt>
      <trkpt lat="45.6375" lon="6.79922">
        <ele>1516.1</ele>
        <time>2021-03-27T14:33:13Z</time>
      </trkpt>
      <trkpt lat="45.63749" lon="6.7992">
        <ele>1516</ele>
        <time>2021-03-27T14:33:14Z</time>
      </trkpt>
      <trkpt lat="45.63749" lon="6.79919">
        <ele>1515.9</ele>
        <time>2021-03-27T14:33:15Z</time>
      </trkpt>
      <trkpt lat="45.63748" lon="6.79917">
        <ele>1515.8</ele>
        <time>2021-03-27T14:33:16Z</time>
      </trkpt>
      <trkpt lat="45.63747" lon="6.79915">
        <ele>1515.6</ele>
        <time>2021-03-27T14:33:17Z</time>
      </trkpt>
      <trkpt lat="45.63747" lon="6.79913">
        <ele>1515.4</ele>
        <time>2021-03-27T14:33:18Z</time>
      </trkpt>
      <trkpt lat="45.63747" lon="6.79911">
        <ele>1515.3</ele>
        <time>2021-03-27T14:33:19Z</time>
      </trkpt>
      <trkpt lat="45.63747" lon="6.79909">
        <ele>1515.1</ele>
        <time>2021-03-27T14:33:20Z</time>
      </trkpt>
      <trkpt lat="45.63746" lon="6.79907">
        <ele>1515</ele>
        <time>2021-03-27T14:33:21Z</time>
      </trkpt>
      <trkpt lat="45.63746" lon="6.79905">
        <ele>1514.8</ele>
        <time>2021-03-27T14:33:22Z</time>
      </trkpt>
      <trkpt lat="45.63746" lon="6.79903">
        <ele>1514.7</ele>
        <time>2021-03-27T14:33:23Z</time>
      </trkpt>
      <trkpt lat="45.63746" lon="6.79901">
        <ele>1514.5</ele>
        <time>2021-03-27T14:33:24Z</time>
      </trkpt>
      <trkpt lat="45.63745" lon="6.79899">
        <ele>1514.4</ele>
        <time>2021-03-27T14:33:25Z</time>
      </trkpt>
      <trkpt lat="45.63745" lon="6.79897">
        <ele>1514.2</ele>
        <time>2021-03-27T14:33:26Z</time>
      </trkpt>
      <trkpt lat="45.63745" lon="6.79895">
        <ele>1514</ele>
        <time>2021-03-27T14:33:27Z</time>
      </trkpt>
      <trkpt lat="45.63745" lon="6.79893">
        <ele>1513.9</ele>
        <time>2021-03-27T14:33:28Z</time>
      </trkpt>
      <trkpt lat="45.63745" lon="6.79891">
        <ele>1513.7</ele>
        <time>2021-03-27T14:33:29Z</time>
      </trkpt>
      <trkpt lat="45.63745" lon="6.79889">
        <ele>1513.5</ele>
        <time>2021-03-27T14:33:30Z</time>
      </trkpt>
      <trkpt lat="45.63745" lon="6.79887">
        <ele>1513.3</ele>
        <time>2021-03-27T14:33:31Z</time>
      </trkpt>
      <trkpt lat="45.63745" lon="6.79884">
        <ele>1513.1</ele>
        <time>2021-03-27T14:33:32Z</time>
      </trkpt>
      <trkpt lat="45.63744" lon="6.79883">
        <ele>1513</ele>
        <time>2021-03-27T14:33:33Z</time>
      </trkpt>
      <trkpt lat="45.63744" lon="6.7988">
        <ele>1512.8</ele>
        <time>2021-03-27T14:33:34Z</time>
      </trkpt>
      <trkpt lat="45.63743" lon="6.79877">
        <ele>1512.6</ele>
        <time>2021-03-27T14:33:35Z</time>
      </trkpt>
      <trkpt lat="45.63743" lon="6.79876">
        <ele>1512.5</ele>
        <time>2021-03-27T14:33:36Z</time>
      </trkpt>
      <trkpt lat="45.63743" lon="6.79875">
        <ele>1512.4</ele>
        <time>2021-03-27T14:33:37Z</time>
      </trkpt>
      <trkpt lat="45.63743" lon="6.79874">
        <ele>1512.3</ele>
        <time>2021-03-27T14:33:38Z</time>
      </trkpt>
      <trkpt lat="45.63742" lon="6.79873">
        <ele>1512.1</ele>
        <time>2021-03-27T14:33:39Z</time>
      </trkpt>
      <trkpt lat="45.63741" lon="6.79872">
        <ele>1512</ele>
        <time>2021-03-27T14:33:40Z</time>
      </trkpt>
      <trkpt lat="45.63739" lon="6.79871">
        <ele>1511.8</ele>
        <time>2021-03-27T14:33:41Z</time>
      </trkpt>
      <trkpt lat="45.63738" lon="6.79871">
        <ele>1511.6</ele>
        <time>2021-03-27T14:33:42Z</time>
      </trkpt>
      <trkpt lat="45.63736" lon="6.7987">
        <ele>1511.4</ele>
        <time>2021-03-27T14:33:43Z</time>
      </trkpt>
      <trkpt lat="45.63734" lon="6.79869">
        <ele>1511.2</ele>
        <time>2021-03-27T14:33:44Z</time>
      </trkpt>
      <trkpt lat="45.63733" lon="6.79869">
        <ele>1511</ele>
        <time>2021-03-27T14:33:45Z</time>
      </trkpt>
      <trkpt lat="45.63731" lon="6.79868">
        <ele>1510.8</ele>
        <time>2021-03-27T14:33:46Z</time>
      </trkpt>
      <trkpt lat="45.6373" lon="6.79868">
        <ele>1510.6</ele>
        <time>2021-03-27T14:33:47Z</time>
      </trkpt>
      <trkpt lat="45.63729" lon="6.79868">
        <ele>1510.4</ele>
        <time>2021-03-27T14:33:48Z</time>
      </trkpt>
      <trkpt lat="45.63727" lon="6.79868">
        <ele>1510.2</ele>
        <time>2021-03-27T14:33:49Z</time>
      </trkpt>
      <trkpt lat="45.63726" lon="6.79867">
        <ele>1510</ele>
        <time>2021-03-27T14:33:50Z</time>
      </trkpt>
      <trkpt lat="45.63724" lon="6.79867">
        <ele>1509.8</ele>
        <time>2021-03-27T14:33:51Z</time>
      </trkpt>
      <trkpt lat="45.63723" lon="6.79866">
        <ele>1509.7</ele>
        <time>2021-03-27T14:33:52Z</time>
      </trkpt>
      <trkpt lat="45.63723" lon="6.79866">
        <ele>1509.6</ele>
        <time>2021-03-27T14:33:53Z</time>
      </trkpt>
      <trkpt lat="45.63722" lon="6.79865">
        <ele>1509.5</ele>
        <time>2021-03-27T14:33:54Z</time>
      </trkpt>
      <trkpt lat="45.6372" lon="6.79865">
        <ele>1509.3</ele>
        <time>2021-03-27T14:33:55Z</time>
      </trkpt>
      <trkpt lat="45.63719" lon="6.79865">
        <ele>1509.2</ele>
        <time>2021-03-27T14:33:56Z</time>
      </trkpt>
      <trkpt lat="45.63717" lon="6.79866">
        <ele>1508.9</ele>
        <time>2021-03-27T14:33:57Z</time>
      </trkpt>
      <trkpt lat="45.63716" lon="6.79867">
        <ele>1508.8</ele>
        <time>2021-03-27T14:33:58Z</time>
      </trkpt>
      <trkpt lat="45.63715" lon="6.79867">
        <ele>1508.6</ele>
        <time>2021-03-27T14:33:59Z</time>
      </trkpt>
      <trkpt lat="45.63714" lon="6.79867">
        <ele>1508.4</ele>
        <time>2021-03-27T14:34:00Z</time>
      </trkpt>
      <trkpt lat="45.63712" lon="6.79866">
        <ele>1508.3</ele>
        <time>2021-03-27T14:34:01Z</time>
      </trkpt>
      <trkpt lat="45.63711" lon="6.79864">
        <ele>1508</ele>
        <time>2021-03-27T14:34:02Z</time>
      </trkpt>
      <trkpt lat="45.6371" lon="6.79864">
        <ele>1507.9</ele>
        <time>2021-03-27T14:34:03Z</time>
      </trkpt>
      <trkpt lat="45.63709" lon="6.79863">
        <ele>1507.8</ele>
        <time>2021-03-27T14:34:04Z</time>
      </trkpt>
      <trkpt lat="45.63708" lon="6.79862">
        <ele>1507.7</ele>
        <time>2021-03-27T14:34:05Z</time>
      </trkpt>
      <trkpt lat="45.63707" lon="6.79861">
        <ele>1507.5</ele>
        <time>2021-03-27T14:34:06Z</time>
      </trkpt>
      <trkpt lat="45.63706" lon="6.7986">
        <ele>1507.4</ele>
        <time>2021-03-27T14:34:07Z</time>
      </trkpt>
      <trkpt lat="45.63706" lon="6.79858">
        <ele>1507.2</ele>
        <time>2021-03-27T14:34:08Z</time>
      </trkpt>
      <trkpt lat="45.63706" lon="6.79856">
        <ele>1507.1</ele>
        <time>2021-03-27T14:34:09Z</time>
      </trkpt>
      <trkpt lat="45.63705" lon="6.79856">
        <ele>1507</ele>
        <time>2021-03-27T14:34:10Z</time>
      </trkpt>
      <trkpt lat="45.63703" lon="6.79854">
        <ele>1506.8</ele>
        <time>2021-03-27T14:34:11Z</time>
      </trkpt>
      <trkpt lat="45.63702" lon="6.79854">
        <ele>1506.7</ele>
        <time>2021-03-27T14:34:12Z</time>
      </trkpt>
      <trkpt lat="45.63701" lon="6.79853">
        <ele>1506.6</ele>
        <time>2021-03-27T14:34:13Z</time>
      </trkpt>
      <trkpt lat="45.637" lon="6.79852">
        <ele>1506.4</ele>
        <time>2021-03-27T14:34:14Z</time>
      </trkpt>
      <trkpt lat="45.63699" lon="6.79852">
        <ele>1506.3</ele>
        <time>2021-03-27T14:34:15Z</time>
      </trkpt>
      <trkpt lat="45.63698" lon="6.79851">
        <ele>1506.2</ele>
        <time>2021-03-27T14:34:16Z</time>
      </trkpt>
      <trkpt lat="45.63697" lon="6.79851">
        <ele>1506.1</ele>
        <time>2021-03-27T14:34:17Z</time>
      </trkpt>
      <trkpt lat="45.63696" lon="6.7985">
        <ele>1505.9</ele>
        <time>2021-03-27T14:34:18Z</time>
      </trkpt>
      <trkpt lat="45.63693" lon="6.79849">
        <ele>1505.7</ele>
        <time>2021-03-27T14:34:19Z</time>
      </trkpt>
      <trkpt lat="45.63693" lon="6.79848">
        <ele>1505.6</ele>
        <time>2021-03-27T14:34:20Z</time>
      </trkpt>
      <trkpt lat="45.63692" lon="6.79848">
        <ele>1505.5</ele>
        <time>2021-03-27T14:34:21Z</time>
      </trkpt>
      <trkpt lat="45.63691" lon="6.79847">
        <ele>1505.3</ele>
        <time>2021-03-27T14:34:22Z</time>
      </trkpt>
      <trkpt lat="45.63689" lon="6.79847">
        <ele>1505.2</ele>
        <time>2021-03-27T14:34:23Z</time>
      </trkpt>
      <trkpt lat="45.63688" lon="6.79846">
        <ele>1505</ele>
        <time>2021-03-27T14:34:24Z</time>
      </trkpt>
      <trkpt lat="45.63686" lon="6.79845">
        <ele>1504.8</ele>
        <time>2021-03-27T14:34:25Z</time>
      </trkpt>
      <trkpt lat="45.63684" lon="6.79844">
        <ele>1504.5</ele>
        <time>2021-03-27T14:34:26Z</time>
      </trkpt>
      <trkpt lat="45.63684" lon="6.79844">
        <ele>1504.4</ele>
        <time>2021-03-27T14:34:27Z</time>
      </trkpt>
      <trkpt lat="45.63683" lon="6.79843">
        <ele>1504.3</ele>
        <time>2021-03-27T14:34:28Z</time>
      </trkpt>
      <trkpt lat="45.63681" lon="6.79842">
        <ele>1504.1</ele>
        <time>2021-03-27T14:34:29Z</time>
      </trkpt>
      <trkpt lat="45.6368" lon="6.79842">
        <ele>1504</ele>
        <time>2021-03-27T14:34:30Z</time>
      </trkpt>
      <trkpt lat="45.63679" lon="6.79841">
        <ele>1503.9</ele>
        <time>2021-03-27T14:34:31Z</time>
      </trkpt>
      <trkpt lat="45.63678" lon="6.7984">
        <ele>1503.7</ele>
        <time>2021-03-27T14:34:32Z</time>
      </trkpt>
      <trkpt lat="45.63678" lon="6.7984">
        <ele>1503.7</ele>
        <time>2021-03-27T14:34:33Z</time>
      </trkpt>
      <trkpt lat="45.63678" lon="6.7984">
        <ele>1503.7</ele>
        <time>2021-03-27T14:34:34Z</time>
      </trkpt>
      <trkpt lat="45.63678" lon="6.7984">
        <ele>1503.7</ele>
        <time>2021-03-27T14:34:35Z</time>
      </trkpt>
      <trkpt lat="45.63678" lon="6.7984">
        <ele>1503.7</ele>
        <time>2021-03-27T14:34:36Z</time>
      </trkpt>
      <trkpt lat="45.63678" lon="6.7984">
        <ele>1503.7</ele>
        <time>2021-03-27T14:34:37Z</time>
      </trkpt>
      <trkpt lat="45.63678" lon="6.7984">
        <ele>1503.7</ele>
        <time>2021-03-27T14:34:38Z</time>
      </trkpt>
      <trkpt lat="45.63678" lon="6.7984">
        <ele>1503.7</ele>
        <time>2021-03-27T14:34:39Z</time>
      </trkpt>
      <trkpt lat="45.63678" lon="6.7984">
        <ele>1503.7</ele>
        <time>2021-03-27T14:34:40Z</time>
      </trkpt>
      <trkpt lat="45.63678" lon="6.7984">
        <ele>1503.7</ele>
        <time>2021-03-27T14:34:41Z</time>
      </trkpt>
      <trkpt lat="45.63678" lon="6.7984">
        <ele>1503.7</ele>
        <time>2021-03-27T14:34:42Z</time>
      </trkpt>
      <trkpt lat="45.63678" lon="6.7984">
        <ele>1503.7</ele>
        <time>2021-03-27T14:34:43Z</time>
      </trkpt>
    </trkseg>
  </trk>
</gpx>